<?xml version="1.0" encoding="UTF-8" standalone="no" ?>
<gpx xmlns="http://www.topografix.com/GPX/1/1" xmlns:xsi="http://www.w3.org/2001/XMLSchema-instance" xsi:schemaLocation="http://www.topografix.com/GPX/1/1 http://www.topografix.com/GPX/1/1/gpx.xsd" version="1.1" creator="VisuGPX - https://www.visugpx.com">
  <metadata>
    <name>Pirmil Mauves Oudon Ancenis Champtoceaux La Varenne Divatte Pirmil</name>
    <desc><![CDATA[Pirmil Mauves Oudon Ancenis Champtoceaux La Varenne Divatte Pirmil]]></desc>
  </metadata>
  <trk>
    <name><![CDATA[2021-03-27 09:04 +01:00]]></name>
    <trkseg>
      <trkpt lat="47.16822" lon="-1.62589">
        <ele>67</ele>
        <time>2021-03-27T08:06:50.000Z</time>
      </trkpt>
      <trkpt lat="47.16811" lon="-1.62581">
        <ele>72</ele>
        <time>2021-03-27T08:07:12.000Z</time>
      </trkpt>
      <trkpt lat="47.1682" lon="-1.62583">
        <ele>70</ele>
        <time>2021-03-27T08:07:31.000Z</time>
      </trkpt>
      <trkpt lat="47.16821" lon="-1.62598">
        <ele>71</ele>
        <time>2021-03-27T08:07:36.000Z</time>
      </trkpt>
      <trkpt lat="47.16812" lon="-1.62589">
        <ele>68</ele>
        <time>2021-03-27T08:10:04.000Z</time>
      </trkpt>
      <trkpt lat="47.1682" lon="-1.62596">
        <ele>68</ele>
        <time>2021-03-27T08:10:43.000Z</time>
      </trkpt>
      <trkpt lat="47.16814" lon="-1.62586">
        <ele>67</ele>
        <time>2021-03-27T08:14:14.000Z</time>
      </trkpt>
      <trkpt lat="47.16805" lon="-1.62591">
        <ele>68</ele>
        <time>2021-03-27T08:14:37.000Z</time>
      </trkpt>
      <trkpt lat="47.16814" lon="-1.62597">
        <ele>67</ele>
        <time>2021-03-27T08:16:25.000Z</time>
      </trkpt>
      <trkpt lat="47.16823" lon="-1.6259">
        <ele>65</ele>
        <time>2021-03-27T08:23:25.000Z</time>
      </trkpt>
      <trkpt lat="47.16827" lon="-1.62574">
        <ele>69</ele>
        <time>2021-03-27T08:24:24.000Z</time>
      </trkpt>
      <trkpt lat="47.16821" lon="-1.62563">
        <ele>70</ele>
        <time>2021-03-27T08:24:27.000Z</time>
      </trkpt>
      <trkpt lat="47.16812" lon="-1.62554">
        <ele>70</ele>
        <time>2021-03-27T08:24:30.000Z</time>
      </trkpt>
      <trkpt lat="47.16804" lon="-1.62548">
        <ele>70</ele>
        <time>2021-03-27T08:24:33.000Z</time>
      </trkpt>
      <trkpt lat="47.16794" lon="-1.62542">
        <ele>70</ele>
        <time>2021-03-27T08:24:36.000Z</time>
      </trkpt>
      <trkpt lat="47.16784" lon="-1.62536">
        <ele>70</ele>
        <time>2021-03-27T08:24:39.000Z</time>
      </trkpt>
      <trkpt lat="47.16775" lon="-1.62529">
        <ele>70</ele>
        <time>2021-03-27T08:24:42.000Z</time>
      </trkpt>
      <trkpt lat="47.16765" lon="-1.62524">
        <ele>71</ele>
        <time>2021-03-27T08:24:45.000Z</time>
      </trkpt>
      <trkpt lat="47.16754" lon="-1.62518">
        <ele>70</ele>
        <time>2021-03-27T08:24:48.000Z</time>
      </trkpt>
      <trkpt lat="47.16744" lon="-1.62512">
        <ele>69</ele>
        <time>2021-03-27T08:24:51.000Z</time>
      </trkpt>
      <trkpt lat="47.16731" lon="-1.62506">
        <ele>69</ele>
        <time>2021-03-27T08:24:54.000Z</time>
      </trkpt>
      <trkpt lat="47.16721" lon="-1.62501">
        <ele>68</ele>
        <time>2021-03-27T08:24:57.000Z</time>
      </trkpt>
      <trkpt lat="47.1671" lon="-1.62495">
        <ele>68</ele>
        <time>2021-03-27T08:25:01.000Z</time>
      </trkpt>
      <trkpt lat="47.16708" lon="-1.62478">
        <ele>69</ele>
        <time>2021-03-27T08:25:04.000Z</time>
      </trkpt>
      <trkpt lat="47.16709" lon="-1.6246">
        <ele>68</ele>
        <time>2021-03-27T08:25:07.000Z</time>
      </trkpt>
      <trkpt lat="47.1671" lon="-1.62443">
        <ele>68</ele>
        <time>2021-03-27T08:25:10.000Z</time>
      </trkpt>
      <trkpt lat="47.16714" lon="-1.62423">
        <ele>69</ele>
        <time>2021-03-27T08:25:13.000Z</time>
      </trkpt>
      <trkpt lat="47.16722" lon="-1.62408">
        <ele>69</ele>
        <time>2021-03-27T08:25:16.000Z</time>
      </trkpt>
      <trkpt lat="47.16726" lon="-1.62395">
        <ele>69</ele>
        <time>2021-03-27T08:25:18.000Z</time>
      </trkpt>
      <trkpt lat="47.1673" lon="-1.62382">
        <ele>69</ele>
        <time>2021-03-27T08:25:20.000Z</time>
      </trkpt>
      <trkpt lat="47.16738" lon="-1.62364">
        <ele>70</ele>
        <time>2021-03-27T08:25:23.000Z</time>
      </trkpt>
      <trkpt lat="47.16745" lon="-1.62356">
        <ele>70</ele>
        <time>2021-03-27T08:25:25.000Z</time>
      </trkpt>
      <trkpt lat="47.16754" lon="-1.6235">
        <ele>69</ele>
        <time>2021-03-27T08:25:27.000Z</time>
      </trkpt>
      <trkpt lat="47.16765" lon="-1.62343">
        <ele>70</ele>
        <time>2021-03-27T08:25:30.000Z</time>
      </trkpt>
      <trkpt lat="47.16777" lon="-1.62335">
        <ele>71</ele>
        <time>2021-03-27T08:25:33.000Z</time>
      </trkpt>
      <trkpt lat="47.16786" lon="-1.62331">
        <ele>70</ele>
        <time>2021-03-27T08:25:35.000Z</time>
      </trkpt>
      <trkpt lat="47.16799" lon="-1.62324">
        <ele>71</ele>
        <time>2021-03-27T08:25:38.000Z</time>
      </trkpt>
      <trkpt lat="47.16808" lon="-1.62317">
        <ele>71</ele>
        <time>2021-03-27T08:25:40.000Z</time>
      </trkpt>
      <trkpt lat="47.16818" lon="-1.62312">
        <ele>71</ele>
        <time>2021-03-27T08:25:42.000Z</time>
      </trkpt>
      <trkpt lat="47.16828" lon="-1.62302">
        <ele>71</ele>
        <time>2021-03-27T08:25:45.000Z</time>
      </trkpt>
      <trkpt lat="47.16837" lon="-1.62294">
        <ele>71</ele>
        <time>2021-03-27T08:25:47.000Z</time>
      </trkpt>
      <trkpt lat="47.16844" lon="-1.62285">
        <ele>71</ele>
        <time>2021-03-27T08:25:49.000Z</time>
      </trkpt>
      <trkpt lat="47.16852" lon="-1.62274">
        <ele>71</ele>
        <time>2021-03-27T08:25:51.000Z</time>
      </trkpt>
      <trkpt lat="47.1686" lon="-1.62265">
        <ele>70</ele>
        <time>2021-03-27T08:25:53.000Z</time>
      </trkpt>
      <trkpt lat="47.16867" lon="-1.62252">
        <ele>69</ele>
        <time>2021-03-27T08:25:55.000Z</time>
      </trkpt>
      <trkpt lat="47.16875" lon="-1.62244">
        <ele>69</ele>
        <time>2021-03-27T08:25:57.000Z</time>
      </trkpt>
      <trkpt lat="47.16884" lon="-1.62236">
        <ele>69</ele>
        <time>2021-03-27T08:25:59.000Z</time>
      </trkpt>
      <trkpt lat="47.16896" lon="-1.62219">
        <ele>70</ele>
        <time>2021-03-27T08:26:02.000Z</time>
      </trkpt>
      <trkpt lat="47.16903" lon="-1.62207">
        <ele>71</ele>
        <time>2021-03-27T08:26:04.000Z</time>
      </trkpt>
      <trkpt lat="47.16912" lon="-1.62195">
        <ele>71</ele>
        <time>2021-03-27T08:26:06.000Z</time>
      </trkpt>
      <trkpt lat="47.16919" lon="-1.62182">
        <ele>71</ele>
        <time>2021-03-27T08:26:08.000Z</time>
      </trkpt>
      <trkpt lat="47.16926" lon="-1.62169">
        <ele>71</ele>
        <time>2021-03-27T08:26:10.000Z</time>
      </trkpt>
      <trkpt lat="47.16933" lon="-1.62155">
        <ele>71</ele>
        <time>2021-03-27T08:26:12.000Z</time>
      </trkpt>
      <trkpt lat="47.1694" lon="-1.62142">
        <ele>71</ele>
        <time>2021-03-27T08:26:14.000Z</time>
      </trkpt>
      <trkpt lat="47.16951" lon="-1.62121">
        <ele>70</ele>
        <time>2021-03-27T08:26:17.000Z</time>
      </trkpt>
      <trkpt lat="47.16958" lon="-1.62107">
        <ele>71</ele>
        <time>2021-03-27T08:26:19.000Z</time>
      </trkpt>
      <trkpt lat="47.16965" lon="-1.62093">
        <ele>70</ele>
        <time>2021-03-27T08:26:21.000Z</time>
      </trkpt>
      <trkpt lat="47.16975" lon="-1.62073">
        <ele>70</ele>
        <time>2021-03-27T08:26:24.000Z</time>
      </trkpt>
      <trkpt lat="47.16983" lon="-1.6206">
        <ele>70</ele>
        <time>2021-03-27T08:26:26.000Z</time>
      </trkpt>
      <trkpt lat="47.16988" lon="-1.62044">
        <ele>67</ele>
        <time>2021-03-27T08:26:28.000Z</time>
      </trkpt>
      <trkpt lat="47.16996" lon="-1.62033">
        <ele>67</ele>
        <time>2021-03-27T08:26:30.000Z</time>
      </trkpt>
      <trkpt lat="47.17005" lon="-1.6202">
        <ele>69</ele>
        <time>2021-03-27T08:26:32.000Z</time>
      </trkpt>
      <trkpt lat="47.17014" lon="-1.62008">
        <ele>70</ele>
        <time>2021-03-27T08:26:34.000Z</time>
      </trkpt>
      <trkpt lat="47.17021" lon="-1.61995">
        <ele>70</ele>
        <time>2021-03-27T08:26:36.000Z</time>
      </trkpt>
      <trkpt lat="47.17028" lon="-1.61984">
        <ele>69</ele>
        <time>2021-03-27T08:26:38.000Z</time>
      </trkpt>
      <trkpt lat="47.17037" lon="-1.61972">
        <ele>70</ele>
        <time>2021-03-27T08:26:40.000Z</time>
      </trkpt>
      <trkpt lat="47.17047" lon="-1.61961">
        <ele>70</ele>
        <time>2021-03-27T08:26:42.000Z</time>
      </trkpt>
      <trkpt lat="47.17056" lon="-1.6195">
        <ele>70</ele>
        <time>2021-03-27T08:26:44.000Z</time>
      </trkpt>
      <trkpt lat="47.17063" lon="-1.61937">
        <ele>68</ele>
        <time>2021-03-27T08:26:46.000Z</time>
      </trkpt>
      <trkpt lat="47.17073" lon="-1.61928">
        <ele>69</ele>
        <time>2021-03-27T08:26:48.000Z</time>
      </trkpt>
      <trkpt lat="47.17083" lon="-1.61919">
        <ele>69</ele>
        <time>2021-03-27T08:26:50.000Z</time>
      </trkpt>
      <trkpt lat="47.17093" lon="-1.6191">
        <ele>69</ele>
        <time>2021-03-27T08:26:52.000Z</time>
      </trkpt>
      <trkpt lat="47.17102" lon="-1.61901">
        <ele>69</ele>
        <time>2021-03-27T08:26:54.000Z</time>
      </trkpt>
      <trkpt lat="47.17112" lon="-1.61891">
        <ele>69</ele>
        <time>2021-03-27T08:26:56.000Z</time>
      </trkpt>
      <trkpt lat="47.17127" lon="-1.61877">
        <ele>69</ele>
        <time>2021-03-27T08:26:59.000Z</time>
      </trkpt>
      <trkpt lat="47.17136" lon="-1.61868">
        <ele>68</ele>
        <time>2021-03-27T08:27:01.000Z</time>
      </trkpt>
      <trkpt lat="47.17146" lon="-1.61859">
        <ele>69</ele>
        <time>2021-03-27T08:27:03.000Z</time>
      </trkpt>
      <trkpt lat="47.17155" lon="-1.61849">
        <ele>69</ele>
        <time>2021-03-27T08:27:05.000Z</time>
      </trkpt>
      <trkpt lat="47.17165" lon="-1.6184">
        <ele>69</ele>
        <time>2021-03-27T08:27:07.000Z</time>
      </trkpt>
      <trkpt lat="47.17176" lon="-1.61827">
        <ele>67</ele>
        <time>2021-03-27T08:27:10.000Z</time>
      </trkpt>
      <trkpt lat="47.17186" lon="-1.61816">
        <ele>66</ele>
        <time>2021-03-27T08:27:12.000Z</time>
      </trkpt>
      <trkpt lat="47.17203" lon="-1.61803">
        <ele>67</ele>
        <time>2021-03-27T08:27:15.000Z</time>
      </trkpt>
      <trkpt lat="47.17212" lon="-1.61793">
        <ele>68</ele>
        <time>2021-03-27T08:27:17.000Z</time>
      </trkpt>
      <trkpt lat="47.17221" lon="-1.61778">
        <ele>68</ele>
        <time>2021-03-27T08:27:20.000Z</time>
      </trkpt>
      <trkpt lat="47.17224" lon="-1.61762">
        <ele>69</ele>
        <time>2021-03-27T08:27:22.000Z</time>
      </trkpt>
      <trkpt lat="47.17231" lon="-1.61749">
        <ele>69</ele>
        <time>2021-03-27T08:27:24.000Z</time>
      </trkpt>
      <trkpt lat="47.1724" lon="-1.61739">
        <ele>69</ele>
        <time>2021-03-27T08:27:26.000Z</time>
      </trkpt>
      <trkpt lat="47.17248" lon="-1.61727">
        <ele>70</ele>
        <time>2021-03-27T08:27:28.000Z</time>
      </trkpt>
      <trkpt lat="47.17255" lon="-1.61712">
        <ele>70</ele>
        <time>2021-03-27T08:27:30.000Z</time>
      </trkpt>
      <trkpt lat="47.17265" lon="-1.61691">
        <ele>72</ele>
        <time>2021-03-27T08:27:33.000Z</time>
      </trkpt>
      <trkpt lat="47.17275" lon="-1.6167">
        <ele>72</ele>
        <time>2021-03-27T08:27:36.000Z</time>
      </trkpt>
      <trkpt lat="47.17284" lon="-1.6165">
        <ele>73</ele>
        <time>2021-03-27T08:27:39.000Z</time>
      </trkpt>
      <trkpt lat="47.17293" lon="-1.61631">
        <ele>74</ele>
        <time>2021-03-27T08:27:42.000Z</time>
      </trkpt>
      <trkpt lat="47.17302" lon="-1.61619">
        <ele>73</ele>
        <time>2021-03-27T08:27:44.000Z</time>
      </trkpt>
      <trkpt lat="47.17311" lon="-1.61607">
        <ele>71</ele>
        <time>2021-03-27T08:27:46.000Z</time>
      </trkpt>
      <trkpt lat="47.17322" lon="-1.61589">
        <ele>74</ele>
        <time>2021-03-27T08:27:49.000Z</time>
      </trkpt>
      <trkpt lat="47.17331" lon="-1.61578">
        <ele>74</ele>
        <time>2021-03-27T08:27:51.000Z</time>
      </trkpt>
      <trkpt lat="47.1734" lon="-1.61568">
        <ele>74</ele>
        <time>2021-03-27T08:27:53.000Z</time>
      </trkpt>
      <trkpt lat="47.17349" lon="-1.61558">
        <ele>73</ele>
        <time>2021-03-27T08:27:55.000Z</time>
      </trkpt>
      <trkpt lat="47.17358" lon="-1.61549">
        <ele>73</ele>
        <time>2021-03-27T08:27:57.000Z</time>
      </trkpt>
      <trkpt lat="47.17369" lon="-1.61539">
        <ele>73</ele>
        <time>2021-03-27T08:27:59.000Z</time>
      </trkpt>
      <trkpt lat="47.1738" lon="-1.61529">
        <ele>72</ele>
        <time>2021-03-27T08:28:01.000Z</time>
      </trkpt>
      <trkpt lat="47.1739" lon="-1.6152">
        <ele>71</ele>
        <time>2021-03-27T08:28:03.000Z</time>
      </trkpt>
      <trkpt lat="47.17402" lon="-1.61511">
        <ele>70</ele>
        <time>2021-03-27T08:28:05.000Z</time>
      </trkpt>
      <trkpt lat="47.17414" lon="-1.61503">
        <ele>70</ele>
        <time>2021-03-27T08:28:07.000Z</time>
      </trkpt>
      <trkpt lat="47.17426" lon="-1.61494">
        <ele>69</ele>
        <time>2021-03-27T08:28:09.000Z</time>
      </trkpt>
      <trkpt lat="47.17439" lon="-1.61485">
        <ele>68</ele>
        <time>2021-03-27T08:28:11.000Z</time>
      </trkpt>
      <trkpt lat="47.17451" lon="-1.61478">
        <ele>69</ele>
        <time>2021-03-27T08:28:13.000Z</time>
      </trkpt>
      <trkpt lat="47.17465" lon="-1.61471">
        <ele>69</ele>
        <time>2021-03-27T08:28:15.000Z</time>
      </trkpt>
      <trkpt lat="47.17487" lon="-1.61462">
        <ele>70</ele>
        <time>2021-03-27T08:28:18.000Z</time>
      </trkpt>
      <trkpt lat="47.175" lon="-1.61458">
        <ele>68</ele>
        <time>2021-03-27T08:28:20.000Z</time>
      </trkpt>
      <trkpt lat="47.17511" lon="-1.61452">
        <ele>68</ele>
        <time>2021-03-27T08:28:22.000Z</time>
      </trkpt>
      <trkpt lat="47.17516" lon="-1.6144">
        <ele>67</ele>
        <time>2021-03-27T08:28:24.000Z</time>
      </trkpt>
      <trkpt lat="47.17518" lon="-1.61415">
        <ele>67</ele>
        <time>2021-03-27T08:28:27.000Z</time>
      </trkpt>
      <trkpt lat="47.17522" lon="-1.61384">
        <ele>67</ele>
        <time>2021-03-27T08:28:30.000Z</time>
      </trkpt>
      <trkpt lat="47.17527" lon="-1.61355">
        <ele>67</ele>
        <time>2021-03-27T08:28:33.000Z</time>
      </trkpt>
      <trkpt lat="47.17523" lon="-1.6134">
        <ele>65</ele>
        <time>2021-03-27T08:28:35.000Z</time>
      </trkpt>
      <trkpt lat="47.17519" lon="-1.61324">
        <ele>65</ele>
        <time>2021-03-27T08:28:37.000Z</time>
      </trkpt>
      <trkpt lat="47.17519" lon="-1.61305">
        <ele>64</ele>
        <time>2021-03-27T08:28:39.000Z</time>
      </trkpt>
      <trkpt lat="47.17515" lon="-1.61288">
        <ele>63</ele>
        <time>2021-03-27T08:28:41.000Z</time>
      </trkpt>
      <trkpt lat="47.17507" lon="-1.61272">
        <ele>63</ele>
        <time>2021-03-27T08:28:43.000Z</time>
      </trkpt>
      <trkpt lat="47.175" lon="-1.61257">
        <ele>63</ele>
        <time>2021-03-27T08:28:45.000Z</time>
      </trkpt>
      <trkpt lat="47.17493" lon="-1.61242">
        <ele>63</ele>
        <time>2021-03-27T08:28:47.000Z</time>
      </trkpt>
      <trkpt lat="47.17487" lon="-1.61225">
        <ele>63</ele>
        <time>2021-03-27T08:28:49.000Z</time>
      </trkpt>
      <trkpt lat="47.1748" lon="-1.61209">
        <ele>63</ele>
        <time>2021-03-27T08:28:51.000Z</time>
      </trkpt>
      <trkpt lat="47.17472" lon="-1.61193">
        <ele>62</ele>
        <time>2021-03-27T08:28:53.000Z</time>
      </trkpt>
      <trkpt lat="47.17464" lon="-1.61176">
        <ele>62</ele>
        <time>2021-03-27T08:28:55.000Z</time>
      </trkpt>
      <trkpt lat="47.17459" lon="-1.61159">
        <ele>62</ele>
        <time>2021-03-27T08:28:57.000Z</time>
      </trkpt>
      <trkpt lat="47.17449" lon="-1.61133">
        <ele>61</ele>
        <time>2021-03-27T08:29:00.000Z</time>
      </trkpt>
      <trkpt lat="47.17442" lon="-1.61116">
        <ele>61</ele>
        <time>2021-03-27T08:29:02.000Z</time>
      </trkpt>
      <trkpt lat="47.17435" lon="-1.61097">
        <ele>60</ele>
        <time>2021-03-27T08:29:04.000Z</time>
      </trkpt>
      <trkpt lat="47.17427" lon="-1.61079">
        <ele>60</ele>
        <time>2021-03-27T08:29:06.000Z</time>
      </trkpt>
      <trkpt lat="47.17419" lon="-1.6106">
        <ele>59</ele>
        <time>2021-03-27T08:29:08.000Z</time>
      </trkpt>
      <trkpt lat="47.17408" lon="-1.61033">
        <ele>58</ele>
        <time>2021-03-27T08:29:11.000Z</time>
      </trkpt>
      <trkpt lat="47.17396" lon="-1.61022">
        <ele>57</ele>
        <time>2021-03-27T08:29:13.000Z</time>
      </trkpt>
      <trkpt lat="47.17387" lon="-1.61007">
        <ele>57</ele>
        <time>2021-03-27T08:29:15.000Z</time>
      </trkpt>
      <trkpt lat="47.17393" lon="-1.60989">
        <ele>57</ele>
        <time>2021-03-27T08:29:17.000Z</time>
      </trkpt>
      <trkpt lat="47.17406" lon="-1.60985">
        <ele>57</ele>
        <time>2021-03-27T08:29:19.000Z</time>
      </trkpt>
      <trkpt lat="47.17417" lon="-1.60996">
        <ele>58</ele>
        <time>2021-03-27T08:29:21.000Z</time>
      </trkpt>
      <trkpt lat="47.17422" lon="-1.61011">
        <ele>59</ele>
        <time>2021-03-27T08:29:23.000Z</time>
      </trkpt>
      <trkpt lat="47.17429" lon="-1.61023">
        <ele>59</ele>
        <time>2021-03-27T08:29:25.000Z</time>
      </trkpt>
      <trkpt lat="47.17436" lon="-1.61044">
        <ele>61</ele>
        <time>2021-03-27T08:29:28.000Z</time>
      </trkpt>
      <trkpt lat="47.17446" lon="-1.61068">
        <ele>61</ele>
        <time>2021-03-27T08:29:31.000Z</time>
      </trkpt>
      <trkpt lat="47.1746" lon="-1.61088">
        <ele>60</ele>
        <time>2021-03-27T08:29:34.000Z</time>
      </trkpt>
      <trkpt lat="47.17474" lon="-1.61099">
        <ele>61</ele>
        <time>2021-03-27T08:29:36.000Z</time>
      </trkpt>
      <trkpt lat="47.17487" lon="-1.61105">
        <ele>61</ele>
        <time>2021-03-27T08:29:38.000Z</time>
      </trkpt>
      <trkpt lat="47.17501" lon="-1.61104">
        <ele>60</ele>
        <time>2021-03-27T08:29:40.000Z</time>
      </trkpt>
      <trkpt lat="47.17514" lon="-1.61099">
        <ele>59</ele>
        <time>2021-03-27T08:29:42.000Z</time>
      </trkpt>
      <trkpt lat="47.17532" lon="-1.61085">
        <ele>58</ele>
        <time>2021-03-27T08:29:45.000Z</time>
      </trkpt>
      <trkpt lat="47.17543" lon="-1.61074">
        <ele>58</ele>
        <time>2021-03-27T08:29:47.000Z</time>
      </trkpt>
      <trkpt lat="47.17555" lon="-1.61064">
        <ele>58</ele>
        <time>2021-03-27T08:29:49.000Z</time>
      </trkpt>
      <trkpt lat="47.17567" lon="-1.61054">
        <ele>58</ele>
        <time>2021-03-27T08:29:51.000Z</time>
      </trkpt>
      <trkpt lat="47.17578" lon="-1.61044">
        <ele>58</ele>
        <time>2021-03-27T08:29:53.000Z</time>
      </trkpt>
      <trkpt lat="47.1759" lon="-1.61034">
        <ele>58</ele>
        <time>2021-03-27T08:29:55.000Z</time>
      </trkpt>
      <trkpt lat="47.17601" lon="-1.61025">
        <ele>57</ele>
        <time>2021-03-27T08:29:57.000Z</time>
      </trkpt>
      <trkpt lat="47.17612" lon="-1.61014">
        <ele>57</ele>
        <time>2021-03-27T08:29:59.000Z</time>
      </trkpt>
      <trkpt lat="47.17624" lon="-1.61003">
        <ele>56</ele>
        <time>2021-03-27T08:30:01.000Z</time>
      </trkpt>
      <trkpt lat="47.17641" lon="-1.60988">
        <ele>56</ele>
        <time>2021-03-27T08:30:04.000Z</time>
      </trkpt>
      <trkpt lat="47.17652" lon="-1.60978">
        <ele>55</ele>
        <time>2021-03-27T08:30:06.000Z</time>
      </trkpt>
      <trkpt lat="47.17665" lon="-1.60972">
        <ele>55</ele>
        <time>2021-03-27T08:30:08.000Z</time>
      </trkpt>
      <trkpt lat="47.17679" lon="-1.60971">
        <ele>55</ele>
        <time>2021-03-27T08:30:10.000Z</time>
      </trkpt>
      <trkpt lat="47.17692" lon="-1.60973">
        <ele>57</ele>
        <time>2021-03-27T08:30:12.000Z</time>
      </trkpt>
      <trkpt lat="47.17714" lon="-1.60967">
        <ele>55</ele>
        <time>2021-03-27T08:30:15.000Z</time>
      </trkpt>
      <trkpt lat="47.17724" lon="-1.60961">
        <ele>55</ele>
        <time>2021-03-27T08:30:17.000Z</time>
      </trkpt>
      <trkpt lat="47.17739" lon="-1.6095">
        <ele>55</ele>
        <time>2021-03-27T08:30:20.000Z</time>
      </trkpt>
      <trkpt lat="47.1775" lon="-1.60941">
        <ele>56</ele>
        <time>2021-03-27T08:30:22.000Z</time>
      </trkpt>
      <trkpt lat="47.17766" lon="-1.60927">
        <ele>56</ele>
        <time>2021-03-27T08:30:25.000Z</time>
      </trkpt>
      <trkpt lat="47.17777" lon="-1.60919">
        <ele>55</ele>
        <time>2021-03-27T08:30:27.000Z</time>
      </trkpt>
      <trkpt lat="47.17788" lon="-1.6091">
        <ele>55</ele>
        <time>2021-03-27T08:30:29.000Z</time>
      </trkpt>
      <trkpt lat="47.17805" lon="-1.60896">
        <ele>55</ele>
        <time>2021-03-27T08:30:32.000Z</time>
      </trkpt>
      <trkpt lat="47.17821" lon="-1.60879">
        <ele>55</ele>
        <time>2021-03-27T08:30:35.000Z</time>
      </trkpt>
      <trkpt lat="47.17829" lon="-1.60864">
        <ele>55</ele>
        <time>2021-03-27T08:30:37.000Z</time>
      </trkpt>
      <trkpt lat="47.17837" lon="-1.60848">
        <ele>55</ele>
        <time>2021-03-27T08:30:39.000Z</time>
      </trkpt>
      <trkpt lat="47.17844" lon="-1.60832">
        <ele>55</ele>
        <time>2021-03-27T08:30:41.000Z</time>
      </trkpt>
      <trkpt lat="47.17849" lon="-1.60814">
        <ele>56</ele>
        <time>2021-03-27T08:30:43.000Z</time>
      </trkpt>
      <trkpt lat="47.17853" lon="-1.60795">
        <ele>56</ele>
        <time>2021-03-27T08:30:45.000Z</time>
      </trkpt>
      <trkpt lat="47.17857" lon="-1.60774">
        <ele>54</ele>
        <time>2021-03-27T08:30:47.000Z</time>
      </trkpt>
      <trkpt lat="47.1786" lon="-1.60755">
        <ele>54</ele>
        <time>2021-03-27T08:30:49.000Z</time>
      </trkpt>
      <trkpt lat="47.17866" lon="-1.60736">
        <ele>54</ele>
        <time>2021-03-27T08:30:51.000Z</time>
      </trkpt>
      <trkpt lat="47.1787" lon="-1.60717">
        <ele>54</ele>
        <time>2021-03-27T08:30:53.000Z</time>
      </trkpt>
      <trkpt lat="47.17874" lon="-1.60699">
        <ele>55</ele>
        <time>2021-03-27T08:30:55.000Z</time>
      </trkpt>
      <trkpt lat="47.17879" lon="-1.6068">
        <ele>54</ele>
        <time>2021-03-27T08:30:57.000Z</time>
      </trkpt>
      <trkpt lat="47.17884" lon="-1.60663">
        <ele>55</ele>
        <time>2021-03-27T08:30:59.000Z</time>
      </trkpt>
      <trkpt lat="47.17892" lon="-1.60647">
        <ele>53</ele>
        <time>2021-03-27T08:31:01.000Z</time>
      </trkpt>
      <trkpt lat="47.17898" lon="-1.60632">
        <ele>52</ele>
        <time>2021-03-27T08:31:03.000Z</time>
      </trkpt>
      <trkpt lat="47.17902" lon="-1.60617">
        <ele>53</ele>
        <time>2021-03-27T08:31:05.000Z</time>
      </trkpt>
      <trkpt lat="47.17905" lon="-1.60602">
        <ele>55</ele>
        <time>2021-03-27T08:31:07.000Z</time>
      </trkpt>
      <trkpt lat="47.1791" lon="-1.60586">
        <ele>56</ele>
        <time>2021-03-27T08:31:10.000Z</time>
      </trkpt>
      <trkpt lat="47.17922" lon="-1.60586">
        <ele>58</ele>
        <time>2021-03-27T08:31:13.000Z</time>
      </trkpt>
      <trkpt lat="47.17933" lon="-1.60585">
        <ele>59</ele>
        <time>2021-03-27T08:31:15.000Z</time>
      </trkpt>
      <trkpt lat="47.17943" lon="-1.60582">
        <ele>59</ele>
        <time>2021-03-27T08:31:17.000Z</time>
      </trkpt>
      <trkpt lat="47.17954" lon="-1.60577">
        <ele>58</ele>
        <time>2021-03-27T08:31:19.000Z</time>
      </trkpt>
      <trkpt lat="47.17964" lon="-1.60572">
        <ele>58</ele>
        <time>2021-03-27T08:31:21.000Z</time>
      </trkpt>
      <trkpt lat="47.17976" lon="-1.60567">
        <ele>58</ele>
        <time>2021-03-27T08:31:23.000Z</time>
      </trkpt>
      <trkpt lat="47.17986" lon="-1.60562">
        <ele>58</ele>
        <time>2021-03-27T08:31:25.000Z</time>
      </trkpt>
      <trkpt lat="47.17997" lon="-1.6056">
        <ele>58</ele>
        <time>2021-03-27T08:31:27.000Z</time>
      </trkpt>
      <trkpt lat="47.18008" lon="-1.60555">
        <ele>57</ele>
        <time>2021-03-27T08:31:29.000Z</time>
      </trkpt>
      <trkpt lat="47.18021" lon="-1.60553">
        <ele>57</ele>
        <time>2021-03-27T08:31:31.000Z</time>
      </trkpt>
      <trkpt lat="47.18034" lon="-1.60555">
        <ele>55</ele>
        <time>2021-03-27T08:31:33.000Z</time>
      </trkpt>
      <trkpt lat="47.18045" lon="-1.60559">
        <ele>54</ele>
        <time>2021-03-27T08:31:35.000Z</time>
      </trkpt>
      <trkpt lat="47.18055" lon="-1.60566">
        <ele>55</ele>
        <time>2021-03-27T08:31:37.000Z</time>
      </trkpt>
      <trkpt lat="47.18065" lon="-1.60571">
        <ele>55</ele>
        <time>2021-03-27T08:31:39.000Z</time>
      </trkpt>
      <trkpt lat="47.18076" lon="-1.60577">
        <ele>55</ele>
        <time>2021-03-27T08:31:41.000Z</time>
      </trkpt>
      <trkpt lat="47.18087" lon="-1.60583">
        <ele>55</ele>
        <time>2021-03-27T08:31:43.000Z</time>
      </trkpt>
      <trkpt lat="47.18098" lon="-1.60589">
        <ele>55</ele>
        <time>2021-03-27T08:31:45.000Z</time>
      </trkpt>
      <trkpt lat="47.18109" lon="-1.60593">
        <ele>56</ele>
        <time>2021-03-27T08:31:47.000Z</time>
      </trkpt>
      <trkpt lat="47.18119" lon="-1.60597">
        <ele>56</ele>
        <time>2021-03-27T08:31:49.000Z</time>
      </trkpt>
      <trkpt lat="47.1813" lon="-1.606">
        <ele>56</ele>
        <time>2021-03-27T08:31:51.000Z</time>
      </trkpt>
      <trkpt lat="47.18141" lon="-1.60603">
        <ele>56</ele>
        <time>2021-03-27T08:31:53.000Z</time>
      </trkpt>
      <trkpt lat="47.18153" lon="-1.60605">
        <ele>56</ele>
        <time>2021-03-27T08:31:55.000Z</time>
      </trkpt>
      <trkpt lat="47.1817" lon="-1.60604">
        <ele>56</ele>
        <time>2021-03-27T08:31:58.000Z</time>
      </trkpt>
      <trkpt lat="47.18181" lon="-1.60602">
        <ele>55</ele>
        <time>2021-03-27T08:32:00.000Z</time>
      </trkpt>
      <trkpt lat="47.18188" lon="-1.60592">
        <ele>55</ele>
        <time>2021-03-27T08:32:08.000Z</time>
      </trkpt>
      <trkpt lat="47.18194" lon="-1.60578">
        <ele>55</ele>
        <time>2021-03-27T08:32:11.000Z</time>
      </trkpt>
      <trkpt lat="47.18206" lon="-1.60573">
        <ele>52</ele>
        <time>2021-03-27T08:32:14.000Z</time>
      </trkpt>
      <trkpt lat="47.18225" lon="-1.60561">
        <ele>54</ele>
        <time>2021-03-27T08:32:18.000Z</time>
      </trkpt>
      <trkpt lat="47.18234" lon="-1.60556">
        <ele>55</ele>
        <time>2021-03-27T08:32:20.000Z</time>
      </trkpt>
      <trkpt lat="47.18245" lon="-1.6055">
        <ele>56</ele>
        <time>2021-03-27T08:32:22.000Z</time>
      </trkpt>
      <trkpt lat="47.18256" lon="-1.60541">
        <ele>56</ele>
        <time>2021-03-27T08:32:24.000Z</time>
      </trkpt>
      <trkpt lat="47.18268" lon="-1.60529">
        <ele>55</ele>
        <time>2021-03-27T08:32:26.000Z</time>
      </trkpt>
      <trkpt lat="47.1828" lon="-1.60519">
        <ele>55</ele>
        <time>2021-03-27T08:32:28.000Z</time>
      </trkpt>
      <trkpt lat="47.18291" lon="-1.60506">
        <ele>55</ele>
        <time>2021-03-27T08:32:30.000Z</time>
      </trkpt>
      <trkpt lat="47.18303" lon="-1.60494">
        <ele>56</ele>
        <time>2021-03-27T08:32:32.000Z</time>
      </trkpt>
      <trkpt lat="47.18314" lon="-1.60482">
        <ele>56</ele>
        <time>2021-03-27T08:32:34.000Z</time>
      </trkpt>
      <trkpt lat="47.18325" lon="-1.60469">
        <ele>56</ele>
        <time>2021-03-27T08:32:36.000Z</time>
      </trkpt>
      <trkpt lat="47.18336" lon="-1.60454">
        <ele>55</ele>
        <time>2021-03-27T08:32:38.000Z</time>
      </trkpt>
      <trkpt lat="47.18347" lon="-1.60442">
        <ele>55</ele>
        <time>2021-03-27T08:32:40.000Z</time>
      </trkpt>
      <trkpt lat="47.18358" lon="-1.60428">
        <ele>56</ele>
        <time>2021-03-27T08:32:42.000Z</time>
      </trkpt>
      <trkpt lat="47.18374" lon="-1.60407">
        <ele>56</ele>
        <time>2021-03-27T08:32:45.000Z</time>
      </trkpt>
      <trkpt lat="47.18384" lon="-1.60392">
        <ele>55</ele>
        <time>2021-03-27T08:32:47.000Z</time>
      </trkpt>
      <trkpt lat="47.18396" lon="-1.60377">
        <ele>55</ele>
        <time>2021-03-27T08:32:49.000Z</time>
      </trkpt>
      <trkpt lat="47.18406" lon="-1.60363">
        <ele>55</ele>
        <time>2021-03-27T08:32:51.000Z</time>
      </trkpt>
      <trkpt lat="47.18417" lon="-1.60348">
        <ele>56</ele>
        <time>2021-03-27T08:32:53.000Z</time>
      </trkpt>
      <trkpt lat="47.18426" lon="-1.60332">
        <ele>55</ele>
        <time>2021-03-27T08:32:55.000Z</time>
      </trkpt>
      <trkpt lat="47.18437" lon="-1.60317">
        <ele>55</ele>
        <time>2021-03-27T08:32:57.000Z</time>
      </trkpt>
      <trkpt lat="47.18447" lon="-1.60301">
        <ele>56</ele>
        <time>2021-03-27T08:32:59.000Z</time>
      </trkpt>
      <trkpt lat="47.18461" lon="-1.60275">
        <ele>54</ele>
        <time>2021-03-27T08:33:02.000Z</time>
      </trkpt>
      <trkpt lat="47.18474" lon="-1.60251">
        <ele>53</ele>
        <time>2021-03-27T08:33:05.000Z</time>
      </trkpt>
      <trkpt lat="47.18483" lon="-1.60234">
        <ele>53</ele>
        <time>2021-03-27T08:33:07.000Z</time>
      </trkpt>
      <trkpt lat="47.18493" lon="-1.60217">
        <ele>54</ele>
        <time>2021-03-27T08:33:09.000Z</time>
      </trkpt>
      <trkpt lat="47.18502" lon="-1.60188">
        <ele>49</ele>
        <time>2021-03-27T08:33:12.000Z</time>
      </trkpt>
      <trkpt lat="47.18508" lon="-1.6017">
        <ele>49</ele>
        <time>2021-03-27T08:33:14.000Z</time>
      </trkpt>
      <trkpt lat="47.18522" lon="-1.60155">
        <ele>52</ele>
        <time>2021-03-27T08:33:16.000Z</time>
      </trkpt>
      <trkpt lat="47.18531" lon="-1.60137">
        <ele>53</ele>
        <time>2021-03-27T08:33:18.000Z</time>
      </trkpt>
      <trkpt lat="47.1854" lon="-1.60119">
        <ele>54</ele>
        <time>2021-03-27T08:33:20.000Z</time>
      </trkpt>
      <trkpt lat="47.18548" lon="-1.601">
        <ele>54</ele>
        <time>2021-03-27T08:33:22.000Z</time>
      </trkpt>
      <trkpt lat="47.18555" lon="-1.60081">
        <ele>54</ele>
        <time>2021-03-27T08:33:24.000Z</time>
      </trkpt>
      <trkpt lat="47.18563" lon="-1.60063">
        <ele>55</ele>
        <time>2021-03-27T08:33:26.000Z</time>
      </trkpt>
      <trkpt lat="47.1857" lon="-1.60045">
        <ele>55</ele>
        <time>2021-03-27T08:33:28.000Z</time>
      </trkpt>
      <trkpt lat="47.18577" lon="-1.60027">
        <ele>56</ele>
        <time>2021-03-27T08:33:30.000Z</time>
      </trkpt>
      <trkpt lat="47.18583" lon="-1.60008">
        <ele>56</ele>
        <time>2021-03-27T08:33:32.000Z</time>
      </trkpt>
      <trkpt lat="47.18589" lon="-1.59991">
        <ele>56</ele>
        <time>2021-03-27T08:33:34.000Z</time>
      </trkpt>
      <trkpt lat="47.18594" lon="-1.59975">
        <ele>56</ele>
        <time>2021-03-27T08:33:36.000Z</time>
      </trkpt>
      <trkpt lat="47.18599" lon="-1.59958">
        <ele>56</ele>
        <time>2021-03-27T08:33:38.000Z</time>
      </trkpt>
      <trkpt lat="47.18604" lon="-1.59941">
        <ele>55</ele>
        <time>2021-03-27T08:33:40.000Z</time>
      </trkpt>
      <trkpt lat="47.18608" lon="-1.59925">
        <ele>55</ele>
        <time>2021-03-27T08:33:42.000Z</time>
      </trkpt>
      <trkpt lat="47.18613" lon="-1.59907">
        <ele>55</ele>
        <time>2021-03-27T08:33:44.000Z</time>
      </trkpt>
      <trkpt lat="47.18618" lon="-1.5989">
        <ele>55</ele>
        <time>2021-03-27T08:33:46.000Z</time>
      </trkpt>
      <trkpt lat="47.18621" lon="-1.59875">
        <ele>56</ele>
        <time>2021-03-27T08:33:48.000Z</time>
      </trkpt>
      <trkpt lat="47.18622" lon="-1.59859">
        <ele>55</ele>
        <time>2021-03-27T08:33:50.000Z</time>
      </trkpt>
      <trkpt lat="47.18618" lon="-1.59846">
        <ele>55</ele>
        <time>2021-03-27T08:33:52.000Z</time>
      </trkpt>
      <trkpt lat="47.18614" lon="-1.59833">
        <ele>55</ele>
        <time>2021-03-27T08:33:55.000Z</time>
      </trkpt>
      <trkpt lat="47.18622" lon="-1.5982">
        <ele>55</ele>
        <time>2021-03-27T08:33:58.000Z</time>
      </trkpt>
      <trkpt lat="47.18628" lon="-1.59804">
        <ele>55</ele>
        <time>2021-03-27T08:34:01.000Z</time>
      </trkpt>
      <trkpt lat="47.18631" lon="-1.5979">
        <ele>55</ele>
        <time>2021-03-27T08:34:03.000Z</time>
      </trkpt>
      <trkpt lat="47.18636" lon="-1.59777">
        <ele>55</ele>
        <time>2021-03-27T08:34:05.000Z</time>
      </trkpt>
      <trkpt lat="47.18643" lon="-1.59766">
        <ele>56</ele>
        <time>2021-03-27T08:34:07.000Z</time>
      </trkpt>
      <trkpt lat="47.18649" lon="-1.59756">
        <ele>56</ele>
        <time>2021-03-27T08:34:09.000Z</time>
      </trkpt>
      <trkpt lat="47.18653" lon="-1.59737">
        <ele>56</ele>
        <time>2021-03-27T08:34:12.000Z</time>
      </trkpt>
      <trkpt lat="47.18655" lon="-1.59721">
        <ele>57</ele>
        <time>2021-03-27T08:34:14.000Z</time>
      </trkpt>
      <trkpt lat="47.18659" lon="-1.59704">
        <ele>57</ele>
        <time>2021-03-27T08:34:16.000Z</time>
      </trkpt>
      <trkpt lat="47.18663" lon="-1.59686">
        <ele>57</ele>
        <time>2021-03-27T08:34:18.000Z</time>
      </trkpt>
      <trkpt lat="47.18667" lon="-1.59669">
        <ele>57</ele>
        <time>2021-03-27T08:34:20.000Z</time>
      </trkpt>
      <trkpt lat="47.18671" lon="-1.59651">
        <ele>57</ele>
        <time>2021-03-27T08:34:22.000Z</time>
      </trkpt>
      <trkpt lat="47.18674" lon="-1.59631">
        <ele>57</ele>
        <time>2021-03-27T08:34:24.000Z</time>
      </trkpt>
      <trkpt lat="47.18677" lon="-1.59612">
        <ele>56</ele>
        <time>2021-03-27T08:34:26.000Z</time>
      </trkpt>
      <trkpt lat="47.1868" lon="-1.59593">
        <ele>56</ele>
        <time>2021-03-27T08:34:28.000Z</time>
      </trkpt>
      <trkpt lat="47.18682" lon="-1.59575">
        <ele>56</ele>
        <time>2021-03-27T08:34:30.000Z</time>
      </trkpt>
      <trkpt lat="47.18684" lon="-1.59557">
        <ele>56</ele>
        <time>2021-03-27T08:34:32.000Z</time>
      </trkpt>
      <trkpt lat="47.18686" lon="-1.59539">
        <ele>57</ele>
        <time>2021-03-27T08:34:34.000Z</time>
      </trkpt>
      <trkpt lat="47.18688" lon="-1.5952">
        <ele>57</ele>
        <time>2021-03-27T08:34:36.000Z</time>
      </trkpt>
      <trkpt lat="47.1869" lon="-1.59501">
        <ele>57</ele>
        <time>2021-03-27T08:34:38.000Z</time>
      </trkpt>
      <trkpt lat="47.18692" lon="-1.59483">
        <ele>57</ele>
        <time>2021-03-27T08:34:40.000Z</time>
      </trkpt>
      <trkpt lat="47.18694" lon="-1.59464">
        <ele>57</ele>
        <time>2021-03-27T08:34:42.000Z</time>
      </trkpt>
      <trkpt lat="47.18696" lon="-1.59444">
        <ele>57</ele>
        <time>2021-03-27T08:34:44.000Z</time>
      </trkpt>
      <trkpt lat="47.18698" lon="-1.59425">
        <ele>56</ele>
        <time>2021-03-27T08:34:46.000Z</time>
      </trkpt>
      <trkpt lat="47.187" lon="-1.59406">
        <ele>56</ele>
        <time>2021-03-27T08:34:48.000Z</time>
      </trkpt>
      <trkpt lat="47.18703" lon="-1.59387">
        <ele>56</ele>
        <time>2021-03-27T08:34:50.000Z</time>
      </trkpt>
      <trkpt lat="47.18705" lon="-1.59367">
        <ele>55</ele>
        <time>2021-03-27T08:34:52.000Z</time>
      </trkpt>
      <trkpt lat="47.18707" lon="-1.59347">
        <ele>56</ele>
        <time>2021-03-27T08:34:54.000Z</time>
      </trkpt>
      <trkpt lat="47.18709" lon="-1.59327">
        <ele>56</ele>
        <time>2021-03-27T08:34:56.000Z</time>
      </trkpt>
      <trkpt lat="47.18711" lon="-1.59306">
        <ele>55</ele>
        <time>2021-03-27T08:34:58.000Z</time>
      </trkpt>
      <trkpt lat="47.18713" lon="-1.59286">
        <ele>55</ele>
        <time>2021-03-27T08:35:00.000Z</time>
      </trkpt>
      <trkpt lat="47.18715" lon="-1.59265">
        <ele>55</ele>
        <time>2021-03-27T08:35:02.000Z</time>
      </trkpt>
      <trkpt lat="47.18718" lon="-1.59244">
        <ele>56</ele>
        <time>2021-03-27T08:35:04.000Z</time>
      </trkpt>
      <trkpt lat="47.1872" lon="-1.59224">
        <ele>56</ele>
        <time>2021-03-27T08:35:06.000Z</time>
      </trkpt>
      <trkpt lat="47.18723" lon="-1.59203">
        <ele>56</ele>
        <time>2021-03-27T08:35:08.000Z</time>
      </trkpt>
      <trkpt lat="47.18725" lon="-1.59181">
        <ele>56</ele>
        <time>2021-03-27T08:35:10.000Z</time>
      </trkpt>
      <trkpt lat="47.18727" lon="-1.5916">
        <ele>56</ele>
        <time>2021-03-27T08:35:12.000Z</time>
      </trkpt>
      <trkpt lat="47.1873" lon="-1.59138">
        <ele>56</ele>
        <time>2021-03-27T08:35:14.000Z</time>
      </trkpt>
      <trkpt lat="47.18732" lon="-1.59118">
        <ele>56</ele>
        <time>2021-03-27T08:35:16.000Z</time>
      </trkpt>
      <trkpt lat="47.18734" lon="-1.59097">
        <ele>56</ele>
        <time>2021-03-27T08:35:18.000Z</time>
      </trkpt>
      <trkpt lat="47.18737" lon="-1.59075">
        <ele>56</ele>
        <time>2021-03-27T08:35:20.000Z</time>
      </trkpt>
      <trkpt lat="47.18739" lon="-1.59054">
        <ele>56</ele>
        <time>2021-03-27T08:35:22.000Z</time>
      </trkpt>
      <trkpt lat="47.18741" lon="-1.59034">
        <ele>56</ele>
        <time>2021-03-27T08:35:24.000Z</time>
      </trkpt>
      <trkpt lat="47.18744" lon="-1.59014">
        <ele>56</ele>
        <time>2021-03-27T08:35:26.000Z</time>
      </trkpt>
      <trkpt lat="47.18746" lon="-1.58994">
        <ele>56</ele>
        <time>2021-03-27T08:35:28.000Z</time>
      </trkpt>
      <trkpt lat="47.18748" lon="-1.58974">
        <ele>56</ele>
        <time>2021-03-27T08:35:30.000Z</time>
      </trkpt>
      <trkpt lat="47.1875" lon="-1.58954">
        <ele>57</ele>
        <time>2021-03-27T08:35:32.000Z</time>
      </trkpt>
      <trkpt lat="47.18751" lon="-1.58934">
        <ele>57</ele>
        <time>2021-03-27T08:35:34.000Z</time>
      </trkpt>
      <trkpt lat="47.18754" lon="-1.58915">
        <ele>57</ele>
        <time>2021-03-27T08:35:36.000Z</time>
      </trkpt>
      <trkpt lat="47.18756" lon="-1.58896">
        <ele>57</ele>
        <time>2021-03-27T08:35:38.000Z</time>
      </trkpt>
      <trkpt lat="47.18759" lon="-1.58877">
        <ele>57</ele>
        <time>2021-03-27T08:35:40.000Z</time>
      </trkpt>
      <trkpt lat="47.18761" lon="-1.58857">
        <ele>57</ele>
        <time>2021-03-27T08:35:42.000Z</time>
      </trkpt>
      <trkpt lat="47.18763" lon="-1.58837">
        <ele>57</ele>
        <time>2021-03-27T08:35:44.000Z</time>
      </trkpt>
      <trkpt lat="47.18765" lon="-1.58818">
        <ele>57</ele>
        <time>2021-03-27T08:35:46.000Z</time>
      </trkpt>
      <trkpt lat="47.18765" lon="-1.588">
        <ele>56</ele>
        <time>2021-03-27T08:35:48.000Z</time>
      </trkpt>
      <trkpt lat="47.18763" lon="-1.58782">
        <ele>56</ele>
        <time>2021-03-27T08:35:50.000Z</time>
      </trkpt>
      <trkpt lat="47.18759" lon="-1.58765">
        <ele>56</ele>
        <time>2021-03-27T08:35:52.000Z</time>
      </trkpt>
      <trkpt lat="47.18758" lon="-1.58746">
        <ele>57</ele>
        <time>2021-03-27T08:35:54.000Z</time>
      </trkpt>
      <trkpt lat="47.18764" lon="-1.58727">
        <ele>57</ele>
        <time>2021-03-27T08:35:56.000Z</time>
      </trkpt>
      <trkpt lat="47.18772" lon="-1.58713">
        <ele>57</ele>
        <time>2021-03-27T08:35:58.000Z</time>
      </trkpt>
      <trkpt lat="47.18781" lon="-1.58698">
        <ele>56</ele>
        <time>2021-03-27T08:36:00.000Z</time>
      </trkpt>
      <trkpt lat="47.18787" lon="-1.58681">
        <ele>56</ele>
        <time>2021-03-27T08:36:02.000Z</time>
      </trkpt>
      <trkpt lat="47.18791" lon="-1.58661">
        <ele>57</ele>
        <time>2021-03-27T08:36:04.000Z</time>
      </trkpt>
      <trkpt lat="47.18795" lon="-1.58643">
        <ele>57</ele>
        <time>2021-03-27T08:36:06.000Z</time>
      </trkpt>
      <trkpt lat="47.188" lon="-1.58623">
        <ele>56</ele>
        <time>2021-03-27T08:36:08.000Z</time>
      </trkpt>
      <trkpt lat="47.18805" lon="-1.58604">
        <ele>57</ele>
        <time>2021-03-27T08:36:10.000Z</time>
      </trkpt>
      <trkpt lat="47.1881" lon="-1.58586">
        <ele>56</ele>
        <time>2021-03-27T08:36:12.000Z</time>
      </trkpt>
      <trkpt lat="47.18815" lon="-1.58567">
        <ele>57</ele>
        <time>2021-03-27T08:36:14.000Z</time>
      </trkpt>
      <trkpt lat="47.1882" lon="-1.58548">
        <ele>57</ele>
        <time>2021-03-27T08:36:16.000Z</time>
      </trkpt>
      <trkpt lat="47.18825" lon="-1.58529">
        <ele>57</ele>
        <time>2021-03-27T08:36:18.000Z</time>
      </trkpt>
      <trkpt lat="47.1883" lon="-1.58509">
        <ele>57</ele>
        <time>2021-03-27T08:36:20.000Z</time>
      </trkpt>
      <trkpt lat="47.18836" lon="-1.5849">
        <ele>57</ele>
        <time>2021-03-27T08:36:22.000Z</time>
      </trkpt>
      <trkpt lat="47.18842" lon="-1.58471">
        <ele>57</ele>
        <time>2021-03-27T08:36:24.000Z</time>
      </trkpt>
      <trkpt lat="47.18847" lon="-1.58452">
        <ele>57</ele>
        <time>2021-03-27T08:36:26.000Z</time>
      </trkpt>
      <trkpt lat="47.18853" lon="-1.58434">
        <ele>57</ele>
        <time>2021-03-27T08:36:28.000Z</time>
      </trkpt>
      <trkpt lat="47.18859" lon="-1.58415">
        <ele>57</ele>
        <time>2021-03-27T08:36:30.000Z</time>
      </trkpt>
      <trkpt lat="47.18865" lon="-1.58396">
        <ele>57</ele>
        <time>2021-03-27T08:36:32.000Z</time>
      </trkpt>
      <trkpt lat="47.18871" lon="-1.58378">
        <ele>57</ele>
        <time>2021-03-27T08:36:34.000Z</time>
      </trkpt>
      <trkpt lat="47.18877" lon="-1.58359">
        <ele>57</ele>
        <time>2021-03-27T08:36:36.000Z</time>
      </trkpt>
      <trkpt lat="47.18884" lon="-1.5834">
        <ele>57</ele>
        <time>2021-03-27T08:36:38.000Z</time>
      </trkpt>
      <trkpt lat="47.1889" lon="-1.58322">
        <ele>57</ele>
        <time>2021-03-27T08:36:40.000Z</time>
      </trkpt>
      <trkpt lat="47.18897" lon="-1.58303">
        <ele>57</ele>
        <time>2021-03-27T08:36:42.000Z</time>
      </trkpt>
      <trkpt lat="47.18904" lon="-1.58284">
        <ele>57</ele>
        <time>2021-03-27T08:36:44.000Z</time>
      </trkpt>
      <trkpt lat="47.1891" lon="-1.58266">
        <ele>57</ele>
        <time>2021-03-27T08:36:46.000Z</time>
      </trkpt>
      <trkpt lat="47.18917" lon="-1.58246">
        <ele>57</ele>
        <time>2021-03-27T08:36:48.000Z</time>
      </trkpt>
      <trkpt lat="47.18924" lon="-1.58227">
        <ele>57</ele>
        <time>2021-03-27T08:36:50.000Z</time>
      </trkpt>
      <trkpt lat="47.1893" lon="-1.58207">
        <ele>58</ele>
        <time>2021-03-27T08:36:52.000Z</time>
      </trkpt>
      <trkpt lat="47.18937" lon="-1.58188">
        <ele>57</ele>
        <time>2021-03-27T08:36:54.000Z</time>
      </trkpt>
      <trkpt lat="47.18944" lon="-1.58169">
        <ele>57</ele>
        <time>2021-03-27T08:36:56.000Z</time>
      </trkpt>
      <trkpt lat="47.18951" lon="-1.58149">
        <ele>57</ele>
        <time>2021-03-27T08:36:58.000Z</time>
      </trkpt>
      <trkpt lat="47.18958" lon="-1.5813">
        <ele>57</ele>
        <time>2021-03-27T08:37:00.000Z</time>
      </trkpt>
      <trkpt lat="47.18965" lon="-1.5811">
        <ele>57</ele>
        <time>2021-03-27T08:37:02.000Z</time>
      </trkpt>
      <trkpt lat="47.18972" lon="-1.5809">
        <ele>57</ele>
        <time>2021-03-27T08:37:04.000Z</time>
      </trkpt>
      <trkpt lat="47.18979" lon="-1.5807">
        <ele>57</ele>
        <time>2021-03-27T08:37:06.000Z</time>
      </trkpt>
      <trkpt lat="47.18986" lon="-1.58051">
        <ele>57</ele>
        <time>2021-03-27T08:37:08.000Z</time>
      </trkpt>
      <trkpt lat="47.18993" lon="-1.58032">
        <ele>57</ele>
        <time>2021-03-27T08:37:10.000Z</time>
      </trkpt>
      <trkpt lat="47.19" lon="-1.58013">
        <ele>57</ele>
        <time>2021-03-27T08:37:12.000Z</time>
      </trkpt>
      <trkpt lat="47.19007" lon="-1.57993">
        <ele>57</ele>
        <time>2021-03-27T08:37:14.000Z</time>
      </trkpt>
      <trkpt lat="47.19013" lon="-1.57975">
        <ele>57</ele>
        <time>2021-03-27T08:37:16.000Z</time>
      </trkpt>
      <trkpt lat="47.1902" lon="-1.57956">
        <ele>58</ele>
        <time>2021-03-27T08:37:18.000Z</time>
      </trkpt>
      <trkpt lat="47.19027" lon="-1.57937">
        <ele>58</ele>
        <time>2021-03-27T08:37:20.000Z</time>
      </trkpt>
      <trkpt lat="47.19034" lon="-1.57919">
        <ele>58</ele>
        <time>2021-03-27T08:37:22.000Z</time>
      </trkpt>
      <trkpt lat="47.1904" lon="-1.579">
        <ele>58</ele>
        <time>2021-03-27T08:37:24.000Z</time>
      </trkpt>
      <trkpt lat="47.19047" lon="-1.57881">
        <ele>57</ele>
        <time>2021-03-27T08:37:26.000Z</time>
      </trkpt>
      <trkpt lat="47.19053" lon="-1.57862">
        <ele>58</ele>
        <time>2021-03-27T08:37:28.000Z</time>
      </trkpt>
      <trkpt lat="47.1906" lon="-1.57845">
        <ele>58</ele>
        <time>2021-03-27T08:37:30.000Z</time>
      </trkpt>
      <trkpt lat="47.19066" lon="-1.57826">
        <ele>58</ele>
        <time>2021-03-27T08:37:32.000Z</time>
      </trkpt>
      <trkpt lat="47.19073" lon="-1.57808">
        <ele>58</ele>
        <time>2021-03-27T08:37:34.000Z</time>
      </trkpt>
      <trkpt lat="47.1908" lon="-1.57789">
        <ele>58</ele>
        <time>2021-03-27T08:37:36.000Z</time>
      </trkpt>
      <trkpt lat="47.19086" lon="-1.5777">
        <ele>58</ele>
        <time>2021-03-27T08:37:38.000Z</time>
      </trkpt>
      <trkpt lat="47.19093" lon="-1.57752">
        <ele>58</ele>
        <time>2021-03-27T08:37:40.000Z</time>
      </trkpt>
      <trkpt lat="47.19099" lon="-1.57734">
        <ele>58</ele>
        <time>2021-03-27T08:37:42.000Z</time>
      </trkpt>
      <trkpt lat="47.19106" lon="-1.57715">
        <ele>58</ele>
        <time>2021-03-27T08:37:44.000Z</time>
      </trkpt>
      <trkpt lat="47.19113" lon="-1.57696">
        <ele>58</ele>
        <time>2021-03-27T08:37:46.000Z</time>
      </trkpt>
      <trkpt lat="47.19119" lon="-1.57678">
        <ele>57</ele>
        <time>2021-03-27T08:37:48.000Z</time>
      </trkpt>
      <trkpt lat="47.19126" lon="-1.57659">
        <ele>57</ele>
        <time>2021-03-27T08:37:50.000Z</time>
      </trkpt>
      <trkpt lat="47.19133" lon="-1.5764">
        <ele>57</ele>
        <time>2021-03-27T08:37:52.000Z</time>
      </trkpt>
      <trkpt lat="47.19139" lon="-1.57621">
        <ele>58</ele>
        <time>2021-03-27T08:37:54.000Z</time>
      </trkpt>
      <trkpt lat="47.19146" lon="-1.57602">
        <ele>58</ele>
        <time>2021-03-27T08:37:56.000Z</time>
      </trkpt>
      <trkpt lat="47.19152" lon="-1.57582">
        <ele>58</ele>
        <time>2021-03-27T08:37:58.000Z</time>
      </trkpt>
      <trkpt lat="47.1916" lon="-1.57564">
        <ele>58</ele>
        <time>2021-03-27T08:38:00.000Z</time>
      </trkpt>
      <trkpt lat="47.19166" lon="-1.57544">
        <ele>58</ele>
        <time>2021-03-27T08:38:02.000Z</time>
      </trkpt>
      <trkpt lat="47.19173" lon="-1.57525">
        <ele>57</ele>
        <time>2021-03-27T08:38:04.000Z</time>
      </trkpt>
      <trkpt lat="47.1918" lon="-1.57505">
        <ele>57</ele>
        <time>2021-03-27T08:38:06.000Z</time>
      </trkpt>
      <trkpt lat="47.19186" lon="-1.57485">
        <ele>57</ele>
        <time>2021-03-27T08:38:08.000Z</time>
      </trkpt>
      <trkpt lat="47.19192" lon="-1.57464">
        <ele>57</ele>
        <time>2021-03-27T08:38:10.000Z</time>
      </trkpt>
      <trkpt lat="47.19197" lon="-1.57445">
        <ele>57</ele>
        <time>2021-03-27T08:38:12.000Z</time>
      </trkpt>
      <trkpt lat="47.19202" lon="-1.57424">
        <ele>57</ele>
        <time>2021-03-27T08:38:14.000Z</time>
      </trkpt>
      <trkpt lat="47.19208" lon="-1.57405">
        <ele>57</ele>
        <time>2021-03-27T08:38:16.000Z</time>
      </trkpt>
      <trkpt lat="47.19214" lon="-1.57385">
        <ele>57</ele>
        <time>2021-03-27T08:38:18.000Z</time>
      </trkpt>
      <trkpt lat="47.19219" lon="-1.57366">
        <ele>58</ele>
        <time>2021-03-27T08:38:20.000Z</time>
      </trkpt>
      <trkpt lat="47.19223" lon="-1.57347">
        <ele>59</ele>
        <time>2021-03-27T08:38:22.000Z</time>
      </trkpt>
      <trkpt lat="47.19229" lon="-1.57316">
        <ele>59</ele>
        <time>2021-03-27T08:38:25.000Z</time>
      </trkpt>
      <trkpt lat="47.19234" lon="-1.57296">
        <ele>59</ele>
        <time>2021-03-27T08:38:27.000Z</time>
      </trkpt>
      <trkpt lat="47.19236" lon="-1.57277">
        <ele>59</ele>
        <time>2021-03-27T08:38:29.000Z</time>
      </trkpt>
      <trkpt lat="47.1924" lon="-1.57248">
        <ele>59</ele>
        <time>2021-03-27T08:38:32.000Z</time>
      </trkpt>
      <trkpt lat="47.19242" lon="-1.5723">
        <ele>58</ele>
        <time>2021-03-27T08:38:34.000Z</time>
      </trkpt>
      <trkpt lat="47.19246" lon="-1.57199">
        <ele>58</ele>
        <time>2021-03-27T08:38:37.000Z</time>
      </trkpt>
      <trkpt lat="47.1925" lon="-1.57181">
        <ele>58</ele>
        <time>2021-03-27T08:38:39.000Z</time>
      </trkpt>
      <trkpt lat="47.19253" lon="-1.57161">
        <ele>60</ele>
        <time>2021-03-27T08:38:41.000Z</time>
      </trkpt>
      <trkpt lat="47.19255" lon="-1.5714">
        <ele>59</ele>
        <time>2021-03-27T08:38:43.000Z</time>
      </trkpt>
      <trkpt lat="47.19258" lon="-1.57119">
        <ele>59</ele>
        <time>2021-03-27T08:38:45.000Z</time>
      </trkpt>
      <trkpt lat="47.19261" lon="-1.57098">
        <ele>57</ele>
        <time>2021-03-27T08:38:47.000Z</time>
      </trkpt>
      <trkpt lat="47.19263" lon="-1.57078">
        <ele>55</ele>
        <time>2021-03-27T08:38:50.000Z</time>
      </trkpt>
      <trkpt lat="47.19257" lon="-1.57066">
        <ele>54</ele>
        <time>2021-03-27T08:38:55.000Z</time>
      </trkpt>
      <trkpt lat="47.19256" lon="-1.57043">
        <ele>54</ele>
        <time>2021-03-27T08:38:58.000Z</time>
      </trkpt>
      <trkpt lat="47.19263" lon="-1.57025">
        <ele>54</ele>
        <time>2021-03-27T08:39:00.000Z</time>
      </trkpt>
      <trkpt lat="47.19271" lon="-1.57009">
        <ele>56</ele>
        <time>2021-03-27T08:39:02.000Z</time>
      </trkpt>
      <trkpt lat="47.19274" lon="-1.5699">
        <ele>56</ele>
        <time>2021-03-27T08:39:04.000Z</time>
      </trkpt>
      <trkpt lat="47.19275" lon="-1.56972">
        <ele>55</ele>
        <time>2021-03-27T08:39:06.000Z</time>
      </trkpt>
      <trkpt lat="47.19275" lon="-1.56956">
        <ele>55</ele>
        <time>2021-03-27T08:39:08.000Z</time>
      </trkpt>
      <trkpt lat="47.19277" lon="-1.56936">
        <ele>57</ele>
        <time>2021-03-27T08:39:10.000Z</time>
      </trkpt>
      <trkpt lat="47.19279" lon="-1.56913">
        <ele>58</ele>
        <time>2021-03-27T08:39:12.000Z</time>
      </trkpt>
      <trkpt lat="47.19281" lon="-1.56893">
        <ele>58</ele>
        <time>2021-03-27T08:39:14.000Z</time>
      </trkpt>
      <trkpt lat="47.19283" lon="-1.56872">
        <ele>58</ele>
        <time>2021-03-27T08:39:16.000Z</time>
      </trkpt>
      <trkpt lat="47.19283" lon="-1.56855">
        <ele>56</ele>
        <time>2021-03-27T08:39:18.000Z</time>
      </trkpt>
      <trkpt lat="47.19284" lon="-1.56838">
        <ele>55</ele>
        <time>2021-03-27T08:39:20.000Z</time>
      </trkpt>
      <trkpt lat="47.19286" lon="-1.56818">
        <ele>57</ele>
        <time>2021-03-27T08:39:22.000Z</time>
      </trkpt>
      <trkpt lat="47.19286" lon="-1.56801">
        <ele>57</ele>
        <time>2021-03-27T08:39:24.000Z</time>
      </trkpt>
      <trkpt lat="47.19288" lon="-1.56783">
        <ele>58</ele>
        <time>2021-03-27T08:39:26.000Z</time>
      </trkpt>
      <trkpt lat="47.19288" lon="-1.56763">
        <ele>58</ele>
        <time>2021-03-27T08:39:28.000Z</time>
      </trkpt>
      <trkpt lat="47.19289" lon="-1.56745">
        <ele>58</ele>
        <time>2021-03-27T08:39:30.000Z</time>
      </trkpt>
      <trkpt lat="47.1929" lon="-1.56726">
        <ele>58</ele>
        <time>2021-03-27T08:39:32.000Z</time>
      </trkpt>
      <trkpt lat="47.19289" lon="-1.56707">
        <ele>58</ele>
        <time>2021-03-27T08:39:34.000Z</time>
      </trkpt>
      <trkpt lat="47.19288" lon="-1.56679">
        <ele>58</ele>
        <time>2021-03-27T08:39:37.000Z</time>
      </trkpt>
      <trkpt lat="47.19287" lon="-1.5666">
        <ele>58</ele>
        <time>2021-03-27T08:39:39.000Z</time>
      </trkpt>
      <trkpt lat="47.19286" lon="-1.56641">
        <ele>58</ele>
        <time>2021-03-27T08:39:41.000Z</time>
      </trkpt>
      <trkpt lat="47.19284" lon="-1.56622">
        <ele>58</ele>
        <time>2021-03-27T08:39:43.000Z</time>
      </trkpt>
      <trkpt lat="47.19283" lon="-1.56604">
        <ele>58</ele>
        <time>2021-03-27T08:39:45.000Z</time>
      </trkpt>
      <trkpt lat="47.19281" lon="-1.56587">
        <ele>59</ele>
        <time>2021-03-27T08:39:47.000Z</time>
      </trkpt>
      <trkpt lat="47.19278" lon="-1.5657">
        <ele>58</ele>
        <time>2021-03-27T08:39:49.000Z</time>
      </trkpt>
      <trkpt lat="47.19277" lon="-1.5655">
        <ele>57</ele>
        <time>2021-03-27T08:39:51.000Z</time>
      </trkpt>
      <trkpt lat="47.19275" lon="-1.5653">
        <ele>57</ele>
        <time>2021-03-27T08:39:53.000Z</time>
      </trkpt>
      <trkpt lat="47.19274" lon="-1.56509">
        <ele>57</ele>
        <time>2021-03-27T08:39:55.000Z</time>
      </trkpt>
      <trkpt lat="47.19272" lon="-1.56491">
        <ele>57</ele>
        <time>2021-03-27T08:39:57.000Z</time>
      </trkpt>
      <trkpt lat="47.19269" lon="-1.56473">
        <ele>57</ele>
        <time>2021-03-27T08:39:59.000Z</time>
      </trkpt>
      <trkpt lat="47.19267" lon="-1.56455">
        <ele>57</ele>
        <time>2021-03-27T08:40:01.000Z</time>
      </trkpt>
      <trkpt lat="47.19264" lon="-1.56438">
        <ele>58</ele>
        <time>2021-03-27T08:40:03.000Z</time>
      </trkpt>
      <trkpt lat="47.19264" lon="-1.56419">
        <ele>57</ele>
        <time>2021-03-27T08:40:05.000Z</time>
      </trkpt>
      <trkpt lat="47.19263" lon="-1.56399">
        <ele>57</ele>
        <time>2021-03-27T08:40:07.000Z</time>
      </trkpt>
      <trkpt lat="47.19262" lon="-1.56379">
        <ele>57</ele>
        <time>2021-03-27T08:40:09.000Z</time>
      </trkpt>
      <trkpt lat="47.19257" lon="-1.56352">
        <ele>57</ele>
        <time>2021-03-27T08:40:12.000Z</time>
      </trkpt>
      <trkpt lat="47.19254" lon="-1.56336">
        <ele>57</ele>
        <time>2021-03-27T08:40:14.000Z</time>
      </trkpt>
      <trkpt lat="47.19249" lon="-1.56321">
        <ele>57</ele>
        <time>2021-03-27T08:40:16.000Z</time>
      </trkpt>
      <trkpt lat="47.19238" lon="-1.56306">
        <ele>57</ele>
        <time>2021-03-27T08:40:18.000Z</time>
      </trkpt>
      <trkpt lat="47.19235" lon="-1.56279">
        <ele>57</ele>
        <time>2021-03-27T08:40:21.000Z</time>
      </trkpt>
      <trkpt lat="47.1924" lon="-1.56262">
        <ele>58</ele>
        <time>2021-03-27T08:40:23.000Z</time>
      </trkpt>
      <trkpt lat="47.19246" lon="-1.56247">
        <ele>58</ele>
        <time>2021-03-27T08:40:25.000Z</time>
      </trkpt>
      <trkpt lat="47.19245" lon="-1.5623">
        <ele>57</ele>
        <time>2021-03-27T08:40:27.000Z</time>
      </trkpt>
      <trkpt lat="47.19245" lon="-1.56211">
        <ele>58</ele>
        <time>2021-03-27T08:40:29.000Z</time>
      </trkpt>
      <trkpt lat="47.19244" lon="-1.56192">
        <ele>56</ele>
        <time>2021-03-27T08:40:31.000Z</time>
      </trkpt>
      <trkpt lat="47.19244" lon="-1.56171">
        <ele>56</ele>
        <time>2021-03-27T08:40:33.000Z</time>
      </trkpt>
      <trkpt lat="47.19244" lon="-1.5615">
        <ele>57</ele>
        <time>2021-03-27T08:40:35.000Z</time>
      </trkpt>
      <trkpt lat="47.19243" lon="-1.5613">
        <ele>57</ele>
        <time>2021-03-27T08:40:37.000Z</time>
      </trkpt>
      <trkpt lat="47.19243" lon="-1.56096">
        <ele>57</ele>
        <time>2021-03-27T08:40:40.000Z</time>
      </trkpt>
      <trkpt lat="47.19241" lon="-1.56075">
        <ele>57</ele>
        <time>2021-03-27T08:40:42.000Z</time>
      </trkpt>
      <trkpt lat="47.1924" lon="-1.56054">
        <ele>58</ele>
        <time>2021-03-27T08:40:44.000Z</time>
      </trkpt>
      <trkpt lat="47.19239" lon="-1.56035">
        <ele>56</ele>
        <time>2021-03-27T08:40:46.000Z</time>
      </trkpt>
      <trkpt lat="47.19238" lon="-1.56015">
        <ele>56</ele>
        <time>2021-03-27T08:40:48.000Z</time>
      </trkpt>
      <trkpt lat="47.19232" lon="-1.55985">
        <ele>56</ele>
        <time>2021-03-27T08:40:51.000Z</time>
      </trkpt>
      <trkpt lat="47.19229" lon="-1.55965">
        <ele>56</ele>
        <time>2021-03-27T08:40:53.000Z</time>
      </trkpt>
      <trkpt lat="47.19227" lon="-1.55945">
        <ele>57</ele>
        <time>2021-03-27T08:40:55.000Z</time>
      </trkpt>
      <trkpt lat="47.19225" lon="-1.55926">
        <ele>57</ele>
        <time>2021-03-27T08:40:57.000Z</time>
      </trkpt>
      <trkpt lat="47.19223" lon="-1.55905">
        <ele>57</ele>
        <time>2021-03-27T08:40:59.000Z</time>
      </trkpt>
      <trkpt lat="47.19223" lon="-1.55885">
        <ele>57</ele>
        <time>2021-03-27T08:41:01.000Z</time>
      </trkpt>
      <trkpt lat="47.19221" lon="-1.55866">
        <ele>57</ele>
        <time>2021-03-27T08:41:03.000Z</time>
      </trkpt>
      <trkpt lat="47.1922" lon="-1.55846">
        <ele>57</ele>
        <time>2021-03-27T08:41:05.000Z</time>
      </trkpt>
      <trkpt lat="47.19219" lon="-1.55826">
        <ele>57</ele>
        <time>2021-03-27T08:41:07.000Z</time>
      </trkpt>
      <trkpt lat="47.19218" lon="-1.55806">
        <ele>57</ele>
        <time>2021-03-27T08:41:09.000Z</time>
      </trkpt>
      <trkpt lat="47.19218" lon="-1.55786">
        <ele>57</ele>
        <time>2021-03-27T08:41:11.000Z</time>
      </trkpt>
      <trkpt lat="47.19218" lon="-1.55765">
        <ele>57</ele>
        <time>2021-03-27T08:41:13.000Z</time>
      </trkpt>
      <trkpt lat="47.19218" lon="-1.55745">
        <ele>58</ele>
        <time>2021-03-27T08:41:15.000Z</time>
      </trkpt>
      <trkpt lat="47.19218" lon="-1.55724">
        <ele>58</ele>
        <time>2021-03-27T08:41:17.000Z</time>
      </trkpt>
      <trkpt lat="47.19218" lon="-1.55704">
        <ele>58</ele>
        <time>2021-03-27T08:41:19.000Z</time>
      </trkpt>
      <trkpt lat="47.19219" lon="-1.55684">
        <ele>58</ele>
        <time>2021-03-27T08:41:21.000Z</time>
      </trkpt>
      <trkpt lat="47.1922" lon="-1.55664">
        <ele>58</ele>
        <time>2021-03-27T08:41:23.000Z</time>
      </trkpt>
      <trkpt lat="47.1922" lon="-1.55644">
        <ele>57</ele>
        <time>2021-03-27T08:41:25.000Z</time>
      </trkpt>
      <trkpt lat="47.19221" lon="-1.55624">
        <ele>57</ele>
        <time>2021-03-27T08:41:27.000Z</time>
      </trkpt>
      <trkpt lat="47.19223" lon="-1.55605">
        <ele>57</ele>
        <time>2021-03-27T08:41:29.000Z</time>
      </trkpt>
      <trkpt lat="47.19224" lon="-1.55586">
        <ele>57</ele>
        <time>2021-03-27T08:41:31.000Z</time>
      </trkpt>
      <trkpt lat="47.19226" lon="-1.55565">
        <ele>57</ele>
        <time>2021-03-27T08:41:33.000Z</time>
      </trkpt>
      <trkpt lat="47.19228" lon="-1.55546">
        <ele>58</ele>
        <time>2021-03-27T08:41:35.000Z</time>
      </trkpt>
      <trkpt lat="47.19229" lon="-1.55527">
        <ele>57</ele>
        <time>2021-03-27T08:41:37.000Z</time>
      </trkpt>
      <trkpt lat="47.19231" lon="-1.55508">
        <ele>56</ele>
        <time>2021-03-27T08:41:39.000Z</time>
      </trkpt>
      <trkpt lat="47.19231" lon="-1.5549">
        <ele>56</ele>
        <time>2021-03-27T08:41:41.000Z</time>
      </trkpt>
      <trkpt lat="47.1923" lon="-1.55472">
        <ele>56</ele>
        <time>2021-03-27T08:41:43.000Z</time>
      </trkpt>
      <trkpt lat="47.19223" lon="-1.55458">
        <ele>56</ele>
        <time>2021-03-27T08:41:45.000Z</time>
      </trkpt>
      <trkpt lat="47.19216" lon="-1.55443">
        <ele>56</ele>
        <time>2021-03-27T08:41:47.000Z</time>
      </trkpt>
      <trkpt lat="47.19218" lon="-1.55423">
        <ele>56</ele>
        <time>2021-03-27T08:41:49.000Z</time>
      </trkpt>
      <trkpt lat="47.1923" lon="-1.55402">
        <ele>57</ele>
        <time>2021-03-27T08:41:52.000Z</time>
      </trkpt>
      <trkpt lat="47.19239" lon="-1.55391">
        <ele>57</ele>
        <time>2021-03-27T08:41:54.000Z</time>
      </trkpt>
      <trkpt lat="47.19245" lon="-1.55374">
        <ele>54</ele>
        <time>2021-03-27T08:41:56.000Z</time>
      </trkpt>
      <trkpt lat="47.19249" lon="-1.55354">
        <ele>55</ele>
        <time>2021-03-27T08:41:58.000Z</time>
      </trkpt>
      <trkpt lat="47.19254" lon="-1.55336">
        <ele>56</ele>
        <time>2021-03-27T08:42:00.000Z</time>
      </trkpt>
      <trkpt lat="47.19259" lon="-1.55316">
        <ele>58</ele>
        <time>2021-03-27T08:42:02.000Z</time>
      </trkpt>
      <trkpt lat="47.19263" lon="-1.55298">
        <ele>58</ele>
        <time>2021-03-27T08:42:04.000Z</time>
      </trkpt>
      <trkpt lat="47.19269" lon="-1.5527">
        <ele>58</ele>
        <time>2021-03-27T08:42:07.000Z</time>
      </trkpt>
      <trkpt lat="47.19272" lon="-1.55252">
        <ele>59</ele>
        <time>2021-03-27T08:42:09.000Z</time>
      </trkpt>
      <trkpt lat="47.19276" lon="-1.55233">
        <ele>59</ele>
        <time>2021-03-27T08:42:11.000Z</time>
      </trkpt>
      <trkpt lat="47.19283" lon="-1.55205">
        <ele>59</ele>
        <time>2021-03-27T08:42:14.000Z</time>
      </trkpt>
      <trkpt lat="47.19288" lon="-1.55189">
        <ele>57</ele>
        <time>2021-03-27T08:42:16.000Z</time>
      </trkpt>
      <trkpt lat="47.19295" lon="-1.55163">
        <ele>56</ele>
        <time>2021-03-27T08:42:19.000Z</time>
      </trkpt>
      <trkpt lat="47.19299" lon="-1.55147">
        <ele>57</ele>
        <time>2021-03-27T08:42:21.000Z</time>
      </trkpt>
      <trkpt lat="47.19305" lon="-1.55121">
        <ele>58</ele>
        <time>2021-03-27T08:42:24.000Z</time>
      </trkpt>
      <trkpt lat="47.19312" lon="-1.55098">
        <ele>58</ele>
        <time>2021-03-27T08:42:27.000Z</time>
      </trkpt>
      <trkpt lat="47.19317" lon="-1.55083">
        <ele>60</ele>
        <time>2021-03-27T08:42:29.000Z</time>
      </trkpt>
      <trkpt lat="47.19321" lon="-1.55066">
        <ele>60</ele>
        <time>2021-03-27T08:42:31.000Z</time>
      </trkpt>
      <trkpt lat="47.19327" lon="-1.55043">
        <ele>61</ele>
        <time>2021-03-27T08:42:34.000Z</time>
      </trkpt>
      <trkpt lat="47.1933" lon="-1.55028">
        <ele>62</ele>
        <time>2021-03-27T08:42:36.000Z</time>
      </trkpt>
      <trkpt lat="47.19335" lon="-1.55013">
        <ele>62</ele>
        <time>2021-03-27T08:42:38.000Z</time>
      </trkpt>
      <trkpt lat="47.19338" lon="-1.54999">
        <ele>62</ele>
        <time>2021-03-27T08:42:40.000Z</time>
      </trkpt>
      <trkpt lat="47.19342" lon="-1.54984">
        <ele>62</ele>
        <time>2021-03-27T08:42:42.000Z</time>
      </trkpt>
      <trkpt lat="47.19347" lon="-1.54965">
        <ele>64</ele>
        <time>2021-03-27T08:42:45.000Z</time>
      </trkpt>
      <trkpt lat="47.1935" lon="-1.5495">
        <ele>64</ele>
        <time>2021-03-27T08:42:47.000Z</time>
      </trkpt>
      <trkpt lat="47.19354" lon="-1.54936">
        <ele>64</ele>
        <time>2021-03-27T08:42:49.000Z</time>
      </trkpt>
      <trkpt lat="47.19357" lon="-1.54919">
        <ele>65</ele>
        <time>2021-03-27T08:42:51.000Z</time>
      </trkpt>
      <trkpt lat="47.19362" lon="-1.54896">
        <ele>65</ele>
        <time>2021-03-27T08:42:54.000Z</time>
      </trkpt>
      <trkpt lat="47.19365" lon="-1.54881">
        <ele>64</ele>
        <time>2021-03-27T08:42:56.000Z</time>
      </trkpt>
      <trkpt lat="47.19368" lon="-1.54865">
        <ele>61</ele>
        <time>2021-03-27T08:42:58.000Z</time>
      </trkpt>
      <trkpt lat="47.19374" lon="-1.54846">
        <ele>62</ele>
        <time>2021-03-27T08:43:00.000Z</time>
      </trkpt>
      <trkpt lat="47.19378" lon="-1.54824">
        <ele>60</ele>
        <time>2021-03-27T08:43:02.000Z</time>
      </trkpt>
      <trkpt lat="47.19387" lon="-1.54795">
        <ele>60</ele>
        <time>2021-03-27T08:43:05.000Z</time>
      </trkpt>
      <trkpt lat="47.19393" lon="-1.5477">
        <ele>59</ele>
        <time>2021-03-27T08:43:07.000Z</time>
      </trkpt>
      <trkpt lat="47.19398" lon="-1.54747">
        <ele>59</ele>
        <time>2021-03-27T08:43:09.000Z</time>
      </trkpt>
      <trkpt lat="47.19404" lon="-1.54725">
        <ele>58</ele>
        <time>2021-03-27T08:43:11.000Z</time>
      </trkpt>
      <trkpt lat="47.19408" lon="-1.54706">
        <ele>59</ele>
        <time>2021-03-27T08:43:13.000Z</time>
      </trkpt>
      <trkpt lat="47.19411" lon="-1.54692">
        <ele>61</ele>
        <time>2021-03-27T08:43:15.000Z</time>
      </trkpt>
      <trkpt lat="47.19416" lon="-1.54675">
        <ele>61</ele>
        <time>2021-03-27T08:43:17.000Z</time>
      </trkpt>
      <trkpt lat="47.19425" lon="-1.54652">
        <ele>62</ele>
        <time>2021-03-27T08:43:20.000Z</time>
      </trkpt>
      <trkpt lat="47.19429" lon="-1.54637">
        <ele>61</ele>
        <time>2021-03-27T08:43:22.000Z</time>
      </trkpt>
      <trkpt lat="47.19432" lon="-1.54622">
        <ele>60</ele>
        <time>2021-03-27T08:43:24.000Z</time>
      </trkpt>
      <trkpt lat="47.19427" lon="-1.5461">
        <ele>59</ele>
        <time>2021-03-27T08:43:26.000Z</time>
      </trkpt>
      <trkpt lat="47.19423" lon="-1.54583">
        <ele>58</ele>
        <time>2021-03-27T08:43:30.000Z</time>
      </trkpt>
      <trkpt lat="47.19429" lon="-1.5457">
        <ele>58</ele>
        <time>2021-03-27T08:43:32.000Z</time>
      </trkpt>
      <trkpt lat="47.19437" lon="-1.54559">
        <ele>57</ele>
        <time>2021-03-27T08:43:34.000Z</time>
      </trkpt>
      <trkpt lat="47.19447" lon="-1.54551">
        <ele>57</ele>
        <time>2021-03-27T08:43:36.000Z</time>
      </trkpt>
      <trkpt lat="47.19452" lon="-1.54537">
        <ele>57</ele>
        <time>2021-03-27T08:43:38.000Z</time>
      </trkpt>
      <trkpt lat="47.19456" lon="-1.54523">
        <ele>58</ele>
        <time>2021-03-27T08:43:40.000Z</time>
      </trkpt>
      <trkpt lat="47.19466" lon="-1.54494">
        <ele>57</ele>
        <time>2021-03-27T08:43:43.000Z</time>
      </trkpt>
      <trkpt lat="47.19471" lon="-1.54476">
        <ele>57</ele>
        <time>2021-03-27T08:43:45.000Z</time>
      </trkpt>
      <trkpt lat="47.19479" lon="-1.54462">
        <ele>57</ele>
        <time>2021-03-27T08:43:47.000Z</time>
      </trkpt>
      <trkpt lat="47.19489" lon="-1.54454">
        <ele>57</ele>
        <time>2021-03-27T08:43:49.000Z</time>
      </trkpt>
      <trkpt lat="47.19498" lon="-1.54447">
        <ele>57</ele>
        <time>2021-03-27T08:43:51.000Z</time>
      </trkpt>
      <trkpt lat="47.19508" lon="-1.5444">
        <ele>57</ele>
        <time>2021-03-27T08:43:53.000Z</time>
      </trkpt>
      <trkpt lat="47.19517" lon="-1.54433">
        <ele>58</ele>
        <time>2021-03-27T08:43:55.000Z</time>
      </trkpt>
      <trkpt lat="47.19528" lon="-1.54425">
        <ele>58</ele>
        <time>2021-03-27T08:43:57.000Z</time>
      </trkpt>
      <trkpt lat="47.19539" lon="-1.54416">
        <ele>58</ele>
        <time>2021-03-27T08:43:59.000Z</time>
      </trkpt>
      <trkpt lat="47.19549" lon="-1.54408">
        <ele>58</ele>
        <time>2021-03-27T08:44:01.000Z</time>
      </trkpt>
      <trkpt lat="47.1956" lon="-1.544">
        <ele>58</ele>
        <time>2021-03-27T08:44:03.000Z</time>
      </trkpt>
      <trkpt lat="47.1957" lon="-1.54392">
        <ele>57</ele>
        <time>2021-03-27T08:44:05.000Z</time>
      </trkpt>
      <trkpt lat="47.19584" lon="-1.5438">
        <ele>57</ele>
        <time>2021-03-27T08:44:08.000Z</time>
      </trkpt>
      <trkpt lat="47.19596" lon="-1.54372">
        <ele>56</ele>
        <time>2021-03-27T08:44:10.000Z</time>
      </trkpt>
      <trkpt lat="47.19606" lon="-1.54362">
        <ele>56</ele>
        <time>2021-03-27T08:44:12.000Z</time>
      </trkpt>
      <trkpt lat="47.19616" lon="-1.5435">
        <ele>56</ele>
        <time>2021-03-27T08:44:14.000Z</time>
      </trkpt>
      <trkpt lat="47.19625" lon="-1.54337">
        <ele>56</ele>
        <time>2021-03-27T08:44:16.000Z</time>
      </trkpt>
      <trkpt lat="47.19633" lon="-1.54324">
        <ele>56</ele>
        <time>2021-03-27T08:44:18.000Z</time>
      </trkpt>
      <trkpt lat="47.1964" lon="-1.54311">
        <ele>56</ele>
        <time>2021-03-27T08:44:20.000Z</time>
      </trkpt>
      <trkpt lat="47.1965" lon="-1.54303">
        <ele>56</ele>
        <time>2021-03-27T08:44:22.000Z</time>
      </trkpt>
      <trkpt lat="47.1966" lon="-1.54296">
        <ele>56</ele>
        <time>2021-03-27T08:44:24.000Z</time>
      </trkpt>
      <trkpt lat="47.19669" lon="-1.54288">
        <ele>54</ele>
        <time>2021-03-27T08:44:26.000Z</time>
      </trkpt>
      <trkpt lat="47.1968" lon="-1.54279">
        <ele>52</ele>
        <time>2021-03-27T08:44:29.000Z</time>
      </trkpt>
      <trkpt lat="47.19696" lon="-1.54267">
        <ele>53</ele>
        <time>2021-03-27T08:44:32.000Z</time>
      </trkpt>
      <trkpt lat="47.19705" lon="-1.5426">
        <ele>53</ele>
        <time>2021-03-27T08:44:34.000Z</time>
      </trkpt>
      <trkpt lat="47.19717" lon="-1.54255">
        <ele>53</ele>
        <time>2021-03-27T08:44:36.000Z</time>
      </trkpt>
      <trkpt lat="47.19728" lon="-1.54249">
        <ele>53</ele>
        <time>2021-03-27T08:44:38.000Z</time>
      </trkpt>
      <trkpt lat="47.19737" lon="-1.54241">
        <ele>55</ele>
        <time>2021-03-27T08:44:40.000Z</time>
      </trkpt>
      <trkpt lat="47.19747" lon="-1.54227">
        <ele>56</ele>
        <time>2021-03-27T08:44:43.000Z</time>
      </trkpt>
      <trkpt lat="47.19755" lon="-1.54217">
        <ele>56</ele>
        <time>2021-03-27T08:44:46.000Z</time>
      </trkpt>
      <trkpt lat="47.19766" lon="-1.54207">
        <ele>57</ele>
        <time>2021-03-27T08:44:49.000Z</time>
      </trkpt>
      <trkpt lat="47.19774" lon="-1.542">
        <ele>58</ele>
        <time>2021-03-27T08:44:51.000Z</time>
      </trkpt>
      <trkpt lat="47.19785" lon="-1.54189">
        <ele>58</ele>
        <time>2021-03-27T08:44:54.000Z</time>
      </trkpt>
      <trkpt lat="47.19789" lon="-1.54175">
        <ele>58</ele>
        <time>2021-03-27T08:44:56.000Z</time>
      </trkpt>
      <trkpt lat="47.19793" lon="-1.54153">
        <ele>58</ele>
        <time>2021-03-27T08:44:59.000Z</time>
      </trkpt>
      <trkpt lat="47.19795" lon="-1.54139">
        <ele>59</ele>
        <time>2021-03-27T08:45:01.000Z</time>
      </trkpt>
      <trkpt lat="47.198" lon="-1.54125">
        <ele>58</ele>
        <time>2021-03-27T08:45:03.000Z</time>
      </trkpt>
      <trkpt lat="47.19809" lon="-1.54111">
        <ele>58</ele>
        <time>2021-03-27T08:45:05.000Z</time>
      </trkpt>
      <trkpt lat="47.19817" lon="-1.541">
        <ele>56</ele>
        <time>2021-03-27T08:45:07.000Z</time>
      </trkpt>
      <trkpt lat="47.19827" lon="-1.54089">
        <ele>56</ele>
        <time>2021-03-27T08:45:09.000Z</time>
      </trkpt>
      <trkpt lat="47.19833" lon="-1.54074">
        <ele>56</ele>
        <time>2021-03-27T08:45:11.000Z</time>
      </trkpt>
      <trkpt lat="47.19842" lon="-1.5406">
        <ele>55</ele>
        <time>2021-03-27T08:45:13.000Z</time>
      </trkpt>
      <trkpt lat="47.19849" lon="-1.54044">
        <ele>55</ele>
        <time>2021-03-27T08:45:15.000Z</time>
      </trkpt>
      <trkpt lat="47.19854" lon="-1.54027">
        <ele>55</ele>
        <time>2021-03-27T08:45:17.000Z</time>
      </trkpt>
      <trkpt lat="47.19861" lon="-1.54003">
        <ele>55</ele>
        <time>2021-03-27T08:45:20.000Z</time>
      </trkpt>
      <trkpt lat="47.19869" lon="-1.53978">
        <ele>54</ele>
        <time>2021-03-27T08:45:23.000Z</time>
      </trkpt>
      <trkpt lat="47.19874" lon="-1.53961">
        <ele>54</ele>
        <time>2021-03-27T08:45:25.000Z</time>
      </trkpt>
      <trkpt lat="47.19879" lon="-1.53943">
        <ele>54</ele>
        <time>2021-03-27T08:45:27.000Z</time>
      </trkpt>
      <trkpt lat="47.19884" lon="-1.53924">
        <ele>54</ele>
        <time>2021-03-27T08:45:29.000Z</time>
      </trkpt>
      <trkpt lat="47.19888" lon="-1.53906">
        <ele>53</ele>
        <time>2021-03-27T08:45:31.000Z</time>
      </trkpt>
      <trkpt lat="47.19891" lon="-1.53887">
        <ele>54</ele>
        <time>2021-03-27T08:45:33.000Z</time>
      </trkpt>
      <trkpt lat="47.19895" lon="-1.53868">
        <ele>54</ele>
        <time>2021-03-27T08:45:35.000Z</time>
      </trkpt>
      <trkpt lat="47.19898" lon="-1.53848">
        <ele>51</ele>
        <time>2021-03-27T08:45:38.000Z</time>
      </trkpt>
      <trkpt lat="47.19902" lon="-1.53827">
        <ele>52</ele>
        <time>2021-03-27T08:45:42.000Z</time>
      </trkpt>
      <trkpt lat="47.19906" lon="-1.53806">
        <ele>54</ele>
        <time>2021-03-27T08:45:44.000Z</time>
      </trkpt>
      <trkpt lat="47.19911" lon="-1.53784">
        <ele>52</ele>
        <time>2021-03-27T08:45:46.000Z</time>
      </trkpt>
      <trkpt lat="47.19917" lon="-1.53759">
        <ele>52</ele>
        <time>2021-03-27T08:45:48.000Z</time>
      </trkpt>
      <trkpt lat="47.19925" lon="-1.53735">
        <ele>55</ele>
        <time>2021-03-27T08:45:50.000Z</time>
      </trkpt>
      <trkpt lat="47.1993" lon="-1.53715">
        <ele>56</ele>
        <time>2021-03-27T08:45:52.000Z</time>
      </trkpt>
      <trkpt lat="47.19934" lon="-1.53696">
        <ele>56</ele>
        <time>2021-03-27T08:45:54.000Z</time>
      </trkpt>
      <trkpt lat="47.19939" lon="-1.53677">
        <ele>56</ele>
        <time>2021-03-27T08:45:56.000Z</time>
      </trkpt>
      <trkpt lat="47.19943" lon="-1.53659">
        <ele>56</ele>
        <time>2021-03-27T08:45:58.000Z</time>
      </trkpt>
      <trkpt lat="47.19945" lon="-1.53642">
        <ele>56</ele>
        <time>2021-03-27T08:46:00.000Z</time>
      </trkpt>
      <trkpt lat="47.1995" lon="-1.53622">
        <ele>55</ele>
        <time>2021-03-27T08:46:02.000Z</time>
      </trkpt>
      <trkpt lat="47.19955" lon="-1.53604">
        <ele>55</ele>
        <time>2021-03-27T08:46:04.000Z</time>
      </trkpt>
      <trkpt lat="47.19962" lon="-1.5358">
        <ele>55</ele>
        <time>2021-03-27T08:46:07.000Z</time>
      </trkpt>
      <trkpt lat="47.19966" lon="-1.53563">
        <ele>55</ele>
        <time>2021-03-27T08:46:09.000Z</time>
      </trkpt>
      <trkpt lat="47.19971" lon="-1.53549">
        <ele>56</ele>
        <time>2021-03-27T08:46:11.000Z</time>
      </trkpt>
      <trkpt lat="47.19977" lon="-1.53532">
        <ele>55</ele>
        <time>2021-03-27T08:46:13.000Z</time>
      </trkpt>
      <trkpt lat="47.19981" lon="-1.53515">
        <ele>56</ele>
        <time>2021-03-27T08:46:15.000Z</time>
      </trkpt>
      <trkpt lat="47.19984" lon="-1.535">
        <ele>56</ele>
        <time>2021-03-27T08:46:17.000Z</time>
      </trkpt>
      <trkpt lat="47.19984" lon="-1.53485">
        <ele>57</ele>
        <time>2021-03-27T08:46:19.000Z</time>
      </trkpt>
      <trkpt lat="47.19992" lon="-1.5347">
        <ele>57</ele>
        <time>2021-03-27T08:46:21.000Z</time>
      </trkpt>
      <trkpt lat="47.20005" lon="-1.53468">
        <ele>56</ele>
        <time>2021-03-27T08:46:23.000Z</time>
      </trkpt>
      <trkpt lat="47.20017" lon="-1.53467">
        <ele>57</ele>
        <time>2021-03-27T08:46:25.000Z</time>
      </trkpt>
      <trkpt lat="47.20025" lon="-1.53456">
        <ele>56</ele>
        <time>2021-03-27T08:46:27.000Z</time>
      </trkpt>
      <trkpt lat="47.20029" lon="-1.53441">
        <ele>57</ele>
        <time>2021-03-27T08:46:29.000Z</time>
      </trkpt>
      <trkpt lat="47.20035" lon="-1.53424">
        <ele>58</ele>
        <time>2021-03-27T08:46:31.000Z</time>
      </trkpt>
      <trkpt lat="47.20041" lon="-1.53408">
        <ele>58</ele>
        <time>2021-03-27T08:46:33.000Z</time>
      </trkpt>
      <trkpt lat="47.2005" lon="-1.53383">
        <ele>57</ele>
        <time>2021-03-27T08:46:36.000Z</time>
      </trkpt>
      <trkpt lat="47.20058" lon="-1.53371">
        <ele>57</ele>
        <time>2021-03-27T08:46:38.000Z</time>
      </trkpt>
      <trkpt lat="47.20064" lon="-1.5336">
        <ele>57</ele>
        <time>2021-03-27T08:46:41.000Z</time>
      </trkpt>
      <trkpt lat="47.20075" lon="-1.53352">
        <ele>57</ele>
        <time>2021-03-27T08:46:44.000Z</time>
      </trkpt>
      <trkpt lat="47.20082" lon="-1.53336">
        <ele>57</ele>
        <time>2021-03-27T08:46:47.000Z</time>
      </trkpt>
      <trkpt lat="47.20089" lon="-1.53316">
        <ele>57</ele>
        <time>2021-03-27T08:46:50.000Z</time>
      </trkpt>
      <trkpt lat="47.20094" lon="-1.53294">
        <ele>56</ele>
        <time>2021-03-27T08:46:53.000Z</time>
      </trkpt>
      <trkpt lat="47.20098" lon="-1.53279">
        <ele>57</ele>
        <time>2021-03-27T08:46:55.000Z</time>
      </trkpt>
      <trkpt lat="47.20104" lon="-1.53264">
        <ele>58</ele>
        <time>2021-03-27T08:46:57.000Z</time>
      </trkpt>
      <trkpt lat="47.2011" lon="-1.53247">
        <ele>57</ele>
        <time>2021-03-27T08:46:59.000Z</time>
      </trkpt>
      <trkpt lat="47.20115" lon="-1.53228">
        <ele>58</ele>
        <time>2021-03-27T08:47:01.000Z</time>
      </trkpt>
      <trkpt lat="47.20122" lon="-1.532">
        <ele>57</ele>
        <time>2021-03-27T08:47:04.000Z</time>
      </trkpt>
      <trkpt lat="47.20125" lon="-1.53182">
        <ele>57</ele>
        <time>2021-03-27T08:47:06.000Z</time>
      </trkpt>
      <trkpt lat="47.2013" lon="-1.53165">
        <ele>57</ele>
        <time>2021-03-27T08:47:08.000Z</time>
      </trkpt>
      <trkpt lat="47.20136" lon="-1.53147">
        <ele>58</ele>
        <time>2021-03-27T08:47:10.000Z</time>
      </trkpt>
      <trkpt lat="47.20144" lon="-1.5313">
        <ele>58</ele>
        <time>2021-03-27T08:47:12.000Z</time>
      </trkpt>
      <trkpt lat="47.20151" lon="-1.53113">
        <ele>57</ele>
        <time>2021-03-27T08:47:14.000Z</time>
      </trkpt>
      <trkpt lat="47.20159" lon="-1.53098">
        <ele>58</ele>
        <time>2021-03-27T08:47:16.000Z</time>
      </trkpt>
      <trkpt lat="47.20167" lon="-1.53081">
        <ele>59</ele>
        <time>2021-03-27T08:47:18.000Z</time>
      </trkpt>
      <trkpt lat="47.20176" lon="-1.53066">
        <ele>60</ele>
        <time>2021-03-27T08:47:20.000Z</time>
      </trkpt>
      <trkpt lat="47.20184" lon="-1.5305">
        <ele>59</ele>
        <time>2021-03-27T08:47:22.000Z</time>
      </trkpt>
      <trkpt lat="47.20197" lon="-1.53037">
        <ele>59</ele>
        <time>2021-03-27T08:47:24.000Z</time>
      </trkpt>
      <trkpt lat="47.20209" lon="-1.53025">
        <ele>59</ele>
        <time>2021-03-27T08:47:26.000Z</time>
      </trkpt>
      <trkpt lat="47.20221" lon="-1.53012">
        <ele>58</ele>
        <time>2021-03-27T08:47:28.000Z</time>
      </trkpt>
      <trkpt lat="47.2023" lon="-1.52996">
        <ele>58</ele>
        <time>2021-03-27T08:47:30.000Z</time>
      </trkpt>
      <trkpt lat="47.20237" lon="-1.52977">
        <ele>60</ele>
        <time>2021-03-27T08:47:32.000Z</time>
      </trkpt>
      <trkpt lat="47.20247" lon="-1.52963">
        <ele>61</ele>
        <time>2021-03-27T08:47:34.000Z</time>
      </trkpt>
      <trkpt lat="47.20256" lon="-1.52947">
        <ele>61</ele>
        <time>2021-03-27T08:47:36.000Z</time>
      </trkpt>
      <trkpt lat="47.20266" lon="-1.52931">
        <ele>61</ele>
        <time>2021-03-27T08:47:38.000Z</time>
      </trkpt>
      <trkpt lat="47.20274" lon="-1.52915">
        <ele>60</ele>
        <time>2021-03-27T08:47:40.000Z</time>
      </trkpt>
      <trkpt lat="47.20282" lon="-1.52897">
        <ele>59</ele>
        <time>2021-03-27T08:47:42.000Z</time>
      </trkpt>
      <trkpt lat="47.2029" lon="-1.52879">
        <ele>58</ele>
        <time>2021-03-27T08:47:44.000Z</time>
      </trkpt>
      <trkpt lat="47.20296" lon="-1.52861">
        <ele>58</ele>
        <time>2021-03-27T08:47:46.000Z</time>
      </trkpt>
      <trkpt lat="47.20303" lon="-1.52843">
        <ele>58</ele>
        <time>2021-03-27T08:47:48.000Z</time>
      </trkpt>
      <trkpt lat="47.20315" lon="-1.5282">
        <ele>58</ele>
        <time>2021-03-27T08:47:51.000Z</time>
      </trkpt>
      <trkpt lat="47.20323" lon="-1.52803">
        <ele>58</ele>
        <time>2021-03-27T08:47:53.000Z</time>
      </trkpt>
      <trkpt lat="47.20331" lon="-1.52787">
        <ele>57</ele>
        <time>2021-03-27T08:47:55.000Z</time>
      </trkpt>
      <trkpt lat="47.20339" lon="-1.52771">
        <ele>57</ele>
        <time>2021-03-27T08:47:57.000Z</time>
      </trkpt>
      <trkpt lat="47.20347" lon="-1.52755">
        <ele>56</ele>
        <time>2021-03-27T08:47:59.000Z</time>
      </trkpt>
      <trkpt lat="47.20354" lon="-1.5274">
        <ele>57</ele>
        <time>2021-03-27T08:48:01.000Z</time>
      </trkpt>
      <trkpt lat="47.20368" lon="-1.52716">
        <ele>56</ele>
        <time>2021-03-27T08:48:04.000Z</time>
      </trkpt>
      <trkpt lat="47.20378" lon="-1.52701">
        <ele>55</ele>
        <time>2021-03-27T08:48:06.000Z</time>
      </trkpt>
      <trkpt lat="47.20385" lon="-1.52686">
        <ele>56</ele>
        <time>2021-03-27T08:48:08.000Z</time>
      </trkpt>
      <trkpt lat="47.20391" lon="-1.5267">
        <ele>56</ele>
        <time>2021-03-27T08:48:10.000Z</time>
      </trkpt>
      <trkpt lat="47.20397" lon="-1.52654">
        <ele>57</ele>
        <time>2021-03-27T08:48:12.000Z</time>
      </trkpt>
      <trkpt lat="47.20404" lon="-1.52637">
        <ele>57</ele>
        <time>2021-03-27T08:48:14.000Z</time>
      </trkpt>
      <trkpt lat="47.2041" lon="-1.52622">
        <ele>57</ele>
        <time>2021-03-27T08:48:16.000Z</time>
      </trkpt>
      <trkpt lat="47.20416" lon="-1.52604">
        <ele>57</ele>
        <time>2021-03-27T08:48:18.000Z</time>
      </trkpt>
      <trkpt lat="47.2042" lon="-1.52586">
        <ele>57</ele>
        <time>2021-03-27T08:48:20.000Z</time>
      </trkpt>
      <trkpt lat="47.20425" lon="-1.52567">
        <ele>57</ele>
        <time>2021-03-27T08:48:22.000Z</time>
      </trkpt>
      <trkpt lat="47.2043" lon="-1.5255">
        <ele>57</ele>
        <time>2021-03-27T08:48:24.000Z</time>
      </trkpt>
      <trkpt lat="47.20436" lon="-1.52534">
        <ele>57</ele>
        <time>2021-03-27T08:48:26.000Z</time>
      </trkpt>
      <trkpt lat="47.20446" lon="-1.52511">
        <ele>57</ele>
        <time>2021-03-27T08:48:29.000Z</time>
      </trkpt>
      <trkpt lat="47.20453" lon="-1.52493">
        <ele>58</ele>
        <time>2021-03-27T08:48:31.000Z</time>
      </trkpt>
      <trkpt lat="47.20459" lon="-1.52478">
        <ele>58</ele>
        <time>2021-03-27T08:48:33.000Z</time>
      </trkpt>
      <trkpt lat="47.20463" lon="-1.5246">
        <ele>58</ele>
        <time>2021-03-27T08:48:35.000Z</time>
      </trkpt>
      <trkpt lat="47.20467" lon="-1.52443">
        <ele>58</ele>
        <time>2021-03-27T08:48:37.000Z</time>
      </trkpt>
      <trkpt lat="47.20471" lon="-1.52426">
        <ele>58</ele>
        <time>2021-03-27T08:48:39.000Z</time>
      </trkpt>
      <trkpt lat="47.20477" lon="-1.5241">
        <ele>58</ele>
        <time>2021-03-27T08:48:41.000Z</time>
      </trkpt>
      <trkpt lat="47.20483" lon="-1.52396">
        <ele>58</ele>
        <time>2021-03-27T08:48:43.000Z</time>
      </trkpt>
      <trkpt lat="47.20488" lon="-1.52384">
        <ele>58</ele>
        <time>2021-03-27T08:48:45.000Z</time>
      </trkpt>
      <trkpt lat="47.20494" lon="-1.52373">
        <ele>58</ele>
        <time>2021-03-27T08:48:49.000Z</time>
      </trkpt>
      <trkpt lat="47.20504" lon="-1.52373">
        <ele>59</ele>
        <time>2021-03-27T08:48:53.000Z</time>
      </trkpt>
      <trkpt lat="47.20514" lon="-1.52387">
        <ele>59</ele>
        <time>2021-03-27T08:48:56.000Z</time>
      </trkpt>
      <trkpt lat="47.2052" lon="-1.52401">
        <ele>59</ele>
        <time>2021-03-27T08:48:58.000Z</time>
      </trkpt>
      <trkpt lat="47.20526" lon="-1.52411">
        <ele>59</ele>
        <time>2021-03-27T08:49:00.000Z</time>
      </trkpt>
      <trkpt lat="47.20532" lon="-1.52423">
        <ele>59</ele>
        <time>2021-03-27T08:49:02.000Z</time>
      </trkpt>
      <trkpt lat="47.20538" lon="-1.52433">
        <ele>59</ele>
        <time>2021-03-27T08:49:04.000Z</time>
      </trkpt>
      <trkpt lat="47.20546" lon="-1.52447">
        <ele>60</ele>
        <time>2021-03-27T08:49:07.000Z</time>
      </trkpt>
      <trkpt lat="47.20555" lon="-1.52461">
        <ele>60</ele>
        <time>2021-03-27T08:49:10.000Z</time>
      </trkpt>
      <trkpt lat="47.20565" lon="-1.52478">
        <ele>60</ele>
        <time>2021-03-27T08:49:13.000Z</time>
      </trkpt>
      <trkpt lat="47.20576" lon="-1.52494">
        <ele>61</ele>
        <time>2021-03-27T08:49:16.000Z</time>
      </trkpt>
      <trkpt lat="47.20586" lon="-1.52511">
        <ele>59</ele>
        <time>2021-03-27T08:49:19.000Z</time>
      </trkpt>
      <trkpt lat="47.20593" lon="-1.52524">
        <ele>61</ele>
        <time>2021-03-27T08:49:21.000Z</time>
      </trkpt>
      <trkpt lat="47.20601" lon="-1.52537">
        <ele>60</ele>
        <time>2021-03-27T08:49:23.000Z</time>
      </trkpt>
      <trkpt lat="47.20609" lon="-1.5255">
        <ele>59</ele>
        <time>2021-03-27T08:49:25.000Z</time>
      </trkpt>
      <trkpt lat="47.20617" lon="-1.52563">
        <ele>59</ele>
        <time>2021-03-27T08:49:27.000Z</time>
      </trkpt>
      <trkpt lat="47.20625" lon="-1.52578">
        <ele>59</ele>
        <time>2021-03-27T08:49:29.000Z</time>
      </trkpt>
      <trkpt lat="47.20633" lon="-1.52592">
        <ele>59</ele>
        <time>2021-03-27T08:49:31.000Z</time>
      </trkpt>
      <trkpt lat="47.20647" lon="-1.52613">
        <ele>59</ele>
        <time>2021-03-27T08:49:34.000Z</time>
      </trkpt>
      <trkpt lat="47.20656" lon="-1.52627">
        <ele>59</ele>
        <time>2021-03-27T08:49:36.000Z</time>
      </trkpt>
      <trkpt lat="47.20665" lon="-1.52642">
        <ele>58</ele>
        <time>2021-03-27T08:49:38.000Z</time>
      </trkpt>
      <trkpt lat="47.20674" lon="-1.52657">
        <ele>57</ele>
        <time>2021-03-27T08:49:40.000Z</time>
      </trkpt>
      <trkpt lat="47.20691" lon="-1.52663">
        <ele>57</ele>
        <time>2021-03-27T08:49:44.000Z</time>
      </trkpt>
      <trkpt lat="47.20696" lon="-1.52651">
        <ele>57</ele>
        <time>2021-03-27T08:49:46.000Z</time>
      </trkpt>
      <trkpt lat="47.20706" lon="-1.52648">
        <ele>57</ele>
        <time>2021-03-27T08:49:48.000Z</time>
      </trkpt>
      <trkpt lat="47.20716" lon="-1.52654">
        <ele>57</ele>
        <time>2021-03-27T08:49:50.000Z</time>
      </trkpt>
      <trkpt lat="47.20727" lon="-1.52659">
        <ele>58</ele>
        <time>2021-03-27T08:49:52.000Z</time>
      </trkpt>
      <trkpt lat="47.20743" lon="-1.52673">
        <ele>58</ele>
        <time>2021-03-27T08:49:55.000Z</time>
      </trkpt>
      <trkpt lat="47.20755" lon="-1.52677">
        <ele>59</ele>
        <time>2021-03-27T08:49:57.000Z</time>
      </trkpt>
      <trkpt lat="47.20766" lon="-1.52681">
        <ele>60</ele>
        <time>2021-03-27T08:49:59.000Z</time>
      </trkpt>
      <trkpt lat="47.20777" lon="-1.52685">
        <ele>61</ele>
        <time>2021-03-27T08:50:01.000Z</time>
      </trkpt>
      <trkpt lat="47.20787" lon="-1.52688">
        <ele>62</ele>
        <time>2021-03-27T08:50:03.000Z</time>
      </trkpt>
      <trkpt lat="47.20798" lon="-1.52693">
        <ele>63</ele>
        <time>2021-03-27T08:50:05.000Z</time>
      </trkpt>
      <trkpt lat="47.20813" lon="-1.52694">
        <ele>64</ele>
        <time>2021-03-27T08:50:08.000Z</time>
      </trkpt>
      <trkpt lat="47.20825" lon="-1.52702">
        <ele>64</ele>
        <time>2021-03-27T08:50:10.000Z</time>
      </trkpt>
      <trkpt lat="47.20837" lon="-1.52708">
        <ele>64</ele>
        <time>2021-03-27T08:50:12.000Z</time>
      </trkpt>
      <trkpt lat="47.20849" lon="-1.52714">
        <ele>64</ele>
        <time>2021-03-27T08:50:14.000Z</time>
      </trkpt>
      <trkpt lat="47.2086" lon="-1.52725">
        <ele>63</ele>
        <time>2021-03-27T08:50:16.000Z</time>
      </trkpt>
      <trkpt lat="47.20869" lon="-1.52736">
        <ele>62</ele>
        <time>2021-03-27T08:50:18.000Z</time>
      </trkpt>
      <trkpt lat="47.20879" lon="-1.52747">
        <ele>63</ele>
        <time>2021-03-27T08:50:20.000Z</time>
      </trkpt>
      <trkpt lat="47.20889" lon="-1.52755">
        <ele>62</ele>
        <time>2021-03-27T08:50:22.000Z</time>
      </trkpt>
      <trkpt lat="47.209" lon="-1.52759">
        <ele>62</ele>
        <time>2021-03-27T08:50:24.000Z</time>
      </trkpt>
      <trkpt lat="47.20917" lon="-1.52768">
        <ele>62</ele>
        <time>2021-03-27T08:50:27.000Z</time>
      </trkpt>
      <trkpt lat="47.20926" lon="-1.5277">
        <ele>60</ele>
        <time>2021-03-27T08:50:29.000Z</time>
      </trkpt>
      <trkpt lat="47.20935" lon="-1.52761">
        <ele>60</ele>
        <time>2021-03-27T08:50:31.000Z</time>
      </trkpt>
      <trkpt lat="47.20942" lon="-1.52748">
        <ele>58</ele>
        <time>2021-03-27T08:50:33.000Z</time>
      </trkpt>
      <trkpt lat="47.2095" lon="-1.52735">
        <ele>58</ele>
        <time>2021-03-27T08:50:35.000Z</time>
      </trkpt>
      <trkpt lat="47.20958" lon="-1.52722">
        <ele>58</ele>
        <time>2021-03-27T08:50:37.000Z</time>
      </trkpt>
      <trkpt lat="47.20971" lon="-1.52705">
        <ele>58</ele>
        <time>2021-03-27T08:50:40.000Z</time>
      </trkpt>
      <trkpt lat="47.20981" lon="-1.527">
        <ele>58</ele>
        <time>2021-03-27T08:50:42.000Z</time>
      </trkpt>
      <trkpt lat="47.20991" lon="-1.52704">
        <ele>58</ele>
        <time>2021-03-27T08:50:44.000Z</time>
      </trkpt>
      <trkpt lat="47.21" lon="-1.52709">
        <ele>58</ele>
        <time>2021-03-27T08:50:46.000Z</time>
      </trkpt>
      <trkpt lat="47.21009" lon="-1.52722">
        <ele>59</ele>
        <time>2021-03-27T08:50:49.000Z</time>
      </trkpt>
      <trkpt lat="47.2102" lon="-1.52734">
        <ele>58</ele>
        <time>2021-03-27T08:50:52.000Z</time>
      </trkpt>
      <trkpt lat="47.21027" lon="-1.52744">
        <ele>59</ele>
        <time>2021-03-27T08:50:54.000Z</time>
      </trkpt>
      <trkpt lat="47.21035" lon="-1.52754">
        <ele>59</ele>
        <time>2021-03-27T08:50:56.000Z</time>
      </trkpt>
      <trkpt lat="47.21048" lon="-1.52771">
        <ele>59</ele>
        <time>2021-03-27T08:50:59.000Z</time>
      </trkpt>
      <trkpt lat="47.21057" lon="-1.52783">
        <ele>60</ele>
        <time>2021-03-27T08:51:01.000Z</time>
      </trkpt>
      <trkpt lat="47.21065" lon="-1.52795">
        <ele>62</ele>
        <time>2021-03-27T08:51:03.000Z</time>
      </trkpt>
      <trkpt lat="47.21073" lon="-1.52803">
        <ele>65</ele>
        <time>2021-03-27T08:51:05.000Z</time>
      </trkpt>
      <trkpt lat="47.21081" lon="-1.52811">
        <ele>66</ele>
        <time>2021-03-27T08:51:07.000Z</time>
      </trkpt>
      <trkpt lat="47.21092" lon="-1.52816">
        <ele>66</ele>
        <time>2021-03-27T08:51:09.000Z</time>
      </trkpt>
      <trkpt lat="47.21101" lon="-1.52828">
        <ele>65</ele>
        <time>2021-03-27T08:51:11.000Z</time>
      </trkpt>
      <trkpt lat="47.21107" lon="-1.5284">
        <ele>65</ele>
        <time>2021-03-27T08:51:13.000Z</time>
      </trkpt>
      <trkpt lat="47.21117" lon="-1.52851">
        <ele>63</ele>
        <time>2021-03-27T08:51:15.000Z</time>
      </trkpt>
      <trkpt lat="47.21128" lon="-1.52862">
        <ele>59</ele>
        <time>2021-03-27T08:51:17.000Z</time>
      </trkpt>
      <trkpt lat="47.21138" lon="-1.52869">
        <ele>58</ele>
        <time>2021-03-27T08:51:19.000Z</time>
      </trkpt>
      <trkpt lat="47.21149" lon="-1.52876">
        <ele>58</ele>
        <time>2021-03-27T08:51:21.000Z</time>
      </trkpt>
      <trkpt lat="47.21159" lon="-1.52879">
        <ele>58</ele>
        <time>2021-03-27T08:51:23.000Z</time>
      </trkpt>
      <trkpt lat="47.2117" lon="-1.52883">
        <ele>57</ele>
        <time>2021-03-27T08:51:25.000Z</time>
      </trkpt>
      <trkpt lat="47.21185" lon="-1.52887">
        <ele>58</ele>
        <time>2021-03-27T08:51:28.000Z</time>
      </trkpt>
      <trkpt lat="47.21195" lon="-1.5289">
        <ele>59</ele>
        <time>2021-03-27T08:51:30.000Z</time>
      </trkpt>
      <trkpt lat="47.21205" lon="-1.52893">
        <ele>59</ele>
        <time>2021-03-27T08:51:32.000Z</time>
      </trkpt>
      <trkpt lat="47.21214" lon="-1.52895">
        <ele>60</ele>
        <time>2021-03-27T08:51:34.000Z</time>
      </trkpt>
      <trkpt lat="47.21225" lon="-1.52898">
        <ele>60</ele>
        <time>2021-03-27T08:51:36.000Z</time>
      </trkpt>
      <trkpt lat="47.21235" lon="-1.529">
        <ele>60</ele>
        <time>2021-03-27T08:51:38.000Z</time>
      </trkpt>
      <trkpt lat="47.21245" lon="-1.52903">
        <ele>60</ele>
        <time>2021-03-27T08:51:40.000Z</time>
      </trkpt>
      <trkpt lat="47.2126" lon="-1.52905">
        <ele>60</ele>
        <time>2021-03-27T08:51:43.000Z</time>
      </trkpt>
      <trkpt lat="47.21278" lon="-1.52912">
        <ele>60</ele>
        <time>2021-03-27T08:51:46.000Z</time>
      </trkpt>
      <trkpt lat="47.21289" lon="-1.52916">
        <ele>60</ele>
        <time>2021-03-27T08:51:48.000Z</time>
      </trkpt>
      <trkpt lat="47.21304" lon="-1.52918">
        <ele>60</ele>
        <time>2021-03-27T08:51:51.000Z</time>
      </trkpt>
      <trkpt lat="47.21321" lon="-1.52925">
        <ele>60</ele>
        <time>2021-03-27T08:51:54.000Z</time>
      </trkpt>
      <trkpt lat="47.21331" lon="-1.52928">
        <ele>60</ele>
        <time>2021-03-27T08:51:56.000Z</time>
      </trkpt>
      <trkpt lat="47.21341" lon="-1.52929">
        <ele>59</ele>
        <time>2021-03-27T08:51:58.000Z</time>
      </trkpt>
      <trkpt lat="47.21351" lon="-1.52926">
        <ele>59</ele>
        <time>2021-03-27T08:52:02.000Z</time>
      </trkpt>
      <trkpt lat="47.21358" lon="-1.52917">
        <ele>56</ele>
        <time>2021-03-27T08:53:06.000Z</time>
      </trkpt>
      <trkpt lat="47.21364" lon="-1.52904">
        <ele>59</ele>
        <time>2021-03-27T08:57:55.000Z</time>
      </trkpt>
      <trkpt lat="47.21366" lon="-1.52882">
        <ele>59</ele>
        <time>2021-03-27T08:57:58.000Z</time>
      </trkpt>
      <trkpt lat="47.21364" lon="-1.52865">
        <ele>58</ele>
        <time>2021-03-27T08:58:00.000Z</time>
      </trkpt>
      <trkpt lat="47.21364" lon="-1.52839">
        <ele>57</ele>
        <time>2021-03-27T08:58:03.000Z</time>
      </trkpt>
      <trkpt lat="47.21365" lon="-1.5282">
        <ele>57</ele>
        <time>2021-03-27T08:58:05.000Z</time>
      </trkpt>
      <trkpt lat="47.21366" lon="-1.52804">
        <ele>57</ele>
        <time>2021-03-27T08:58:07.000Z</time>
      </trkpt>
      <trkpt lat="47.21365" lon="-1.52789">
        <ele>57</ele>
        <time>2021-03-27T08:58:09.000Z</time>
      </trkpt>
      <trkpt lat="47.21367" lon="-1.52769">
        <ele>56</ele>
        <time>2021-03-27T08:58:11.000Z</time>
      </trkpt>
      <trkpt lat="47.21372" lon="-1.52748">
        <ele>54</ele>
        <time>2021-03-27T08:58:13.000Z</time>
      </trkpt>
      <trkpt lat="47.21374" lon="-1.52729">
        <ele>54</ele>
        <time>2021-03-27T08:58:15.000Z</time>
      </trkpt>
      <trkpt lat="47.21378" lon="-1.52709">
        <ele>55</ele>
        <time>2021-03-27T08:58:17.000Z</time>
      </trkpt>
      <trkpt lat="47.21385" lon="-1.52681">
        <ele>56</ele>
        <time>2021-03-27T08:58:20.000Z</time>
      </trkpt>
      <trkpt lat="47.2139" lon="-1.52661">
        <ele>55</ele>
        <time>2021-03-27T08:58:22.000Z</time>
      </trkpt>
      <trkpt lat="47.21393" lon="-1.52643">
        <ele>55</ele>
        <time>2021-03-27T08:58:24.000Z</time>
      </trkpt>
      <trkpt lat="47.21399" lon="-1.52624">
        <ele>55</ele>
        <time>2021-03-27T08:58:26.000Z</time>
      </trkpt>
      <trkpt lat="47.21407" lon="-1.52597">
        <ele>54</ele>
        <time>2021-03-27T08:58:29.000Z</time>
      </trkpt>
      <trkpt lat="47.21412" lon="-1.52583">
        <ele>54</ele>
        <time>2021-03-27T08:58:31.000Z</time>
      </trkpt>
      <trkpt lat="47.21417" lon="-1.5257">
        <ele>54</ele>
        <time>2021-03-27T08:58:33.000Z</time>
      </trkpt>
      <trkpt lat="47.21423" lon="-1.52553">
        <ele>54</ele>
        <time>2021-03-27T08:58:35.000Z</time>
      </trkpt>
      <trkpt lat="47.21429" lon="-1.52535">
        <ele>55</ele>
        <time>2021-03-27T08:58:37.000Z</time>
      </trkpt>
      <trkpt lat="47.21435" lon="-1.52517">
        <ele>56</ele>
        <time>2021-03-27T08:58:39.000Z</time>
      </trkpt>
      <trkpt lat="47.2144" lon="-1.52497">
        <ele>56</ele>
        <time>2021-03-27T08:58:41.000Z</time>
      </trkpt>
      <trkpt lat="47.21446" lon="-1.5248">
        <ele>56</ele>
        <time>2021-03-27T08:58:43.000Z</time>
      </trkpt>
      <trkpt lat="47.21452" lon="-1.52463">
        <ele>56</ele>
        <time>2021-03-27T08:58:45.000Z</time>
      </trkpt>
      <trkpt lat="47.21457" lon="-1.52445">
        <ele>55</ele>
        <time>2021-03-27T08:58:47.000Z</time>
      </trkpt>
      <trkpt lat="47.21462" lon="-1.52428">
        <ele>55</ele>
        <time>2021-03-27T08:58:49.000Z</time>
      </trkpt>
      <trkpt lat="47.21469" lon="-1.5241">
        <ele>55</ele>
        <time>2021-03-27T08:58:51.000Z</time>
      </trkpt>
      <trkpt lat="47.21475" lon="-1.52391">
        <ele>56</ele>
        <time>2021-03-27T08:58:53.000Z</time>
      </trkpt>
      <trkpt lat="47.21481" lon="-1.52372">
        <ele>55</ele>
        <time>2021-03-27T08:58:55.000Z</time>
      </trkpt>
      <trkpt lat="47.21487" lon="-1.52353">
        <ele>55</ele>
        <time>2021-03-27T08:58:57.000Z</time>
      </trkpt>
      <trkpt lat="47.21493" lon="-1.52335">
        <ele>55</ele>
        <time>2021-03-27T08:58:59.000Z</time>
      </trkpt>
      <trkpt lat="47.21499" lon="-1.52316">
        <ele>55</ele>
        <time>2021-03-27T08:59:01.000Z</time>
      </trkpt>
      <trkpt lat="47.21505" lon="-1.52297">
        <ele>55</ele>
        <time>2021-03-27T08:59:03.000Z</time>
      </trkpt>
      <trkpt lat="47.21515" lon="-1.52268">
        <ele>55</ele>
        <time>2021-03-27T08:59:06.000Z</time>
      </trkpt>
      <trkpt lat="47.21522" lon="-1.52247">
        <ele>56</ele>
        <time>2021-03-27T08:59:08.000Z</time>
      </trkpt>
      <trkpt lat="47.21527" lon="-1.52229">
        <ele>56</ele>
        <time>2021-03-27T08:59:10.000Z</time>
      </trkpt>
      <trkpt lat="47.21533" lon="-1.52212">
        <ele>56</ele>
        <time>2021-03-27T08:59:12.000Z</time>
      </trkpt>
      <trkpt lat="47.21536" lon="-1.52198">
        <ele>54</ele>
        <time>2021-03-27T08:59:48.000Z</time>
      </trkpt>
      <trkpt lat="47.21543" lon="-1.52182">
        <ele>53</ele>
        <time>2021-03-27T08:59:51.000Z</time>
      </trkpt>
      <trkpt lat="47.21548" lon="-1.52164">
        <ele>55</ele>
        <time>2021-03-27T08:59:54.000Z</time>
      </trkpt>
      <trkpt lat="47.21553" lon="-1.52152">
        <ele>55</ele>
        <time>2021-03-27T08:59:56.000Z</time>
      </trkpt>
      <trkpt lat="47.21558" lon="-1.52138">
        <ele>55</ele>
        <time>2021-03-27T08:59:58.000Z</time>
      </trkpt>
      <trkpt lat="47.21562" lon="-1.52124">
        <ele>55</ele>
        <time>2021-03-27T09:00:00.000Z</time>
      </trkpt>
      <trkpt lat="47.21567" lon="-1.52109">
        <ele>55</ele>
        <time>2021-03-27T09:00:02.000Z</time>
      </trkpt>
      <trkpt lat="47.21572" lon="-1.52093">
        <ele>55</ele>
        <time>2021-03-27T09:00:04.000Z</time>
      </trkpt>
      <trkpt lat="47.21581" lon="-1.52067">
        <ele>56</ele>
        <time>2021-03-27T09:00:07.000Z</time>
      </trkpt>
      <trkpt lat="47.21587" lon="-1.52052">
        <ele>56</ele>
        <time>2021-03-27T09:00:09.000Z</time>
      </trkpt>
      <trkpt lat="47.2159" lon="-1.52035">
        <ele>56</ele>
        <time>2021-03-27T09:00:11.000Z</time>
      </trkpt>
      <trkpt lat="47.21596" lon="-1.52017">
        <ele>56</ele>
        <time>2021-03-27T09:00:13.000Z</time>
      </trkpt>
      <trkpt lat="47.21605" lon="-1.51989">
        <ele>54</ele>
        <time>2021-03-27T09:00:16.000Z</time>
      </trkpt>
      <trkpt lat="47.21612" lon="-1.51973">
        <ele>53</ele>
        <time>2021-03-27T09:00:18.000Z</time>
      </trkpt>
      <trkpt lat="47.21621" lon="-1.51959">
        <ele>53</ele>
        <time>2021-03-27T09:00:20.000Z</time>
      </trkpt>
      <trkpt lat="47.21627" lon="-1.51944">
        <ele>53</ele>
        <time>2021-03-27T09:00:22.000Z</time>
      </trkpt>
      <trkpt lat="47.21629" lon="-1.51925">
        <ele>53</ele>
        <time>2021-03-27T09:00:24.000Z</time>
      </trkpt>
      <trkpt lat="47.21633" lon="-1.51906">
        <ele>54</ele>
        <time>2021-03-27T09:00:26.000Z</time>
      </trkpt>
      <trkpt lat="47.2164" lon="-1.5189">
        <ele>54</ele>
        <time>2021-03-27T09:00:28.000Z</time>
      </trkpt>
      <trkpt lat="47.21646" lon="-1.51872">
        <ele>53</ele>
        <time>2021-03-27T09:00:30.000Z</time>
      </trkpt>
      <trkpt lat="47.21651" lon="-1.51852">
        <ele>54</ele>
        <time>2021-03-27T09:00:32.000Z</time>
      </trkpt>
      <trkpt lat="47.21656" lon="-1.51834">
        <ele>55</ele>
        <time>2021-03-27T09:00:34.000Z</time>
      </trkpt>
      <trkpt lat="47.21663" lon="-1.51815">
        <ele>54</ele>
        <time>2021-03-27T09:00:36.000Z</time>
      </trkpt>
      <trkpt lat="47.21671" lon="-1.51794">
        <ele>53</ele>
        <time>2021-03-27T09:00:38.000Z</time>
      </trkpt>
      <trkpt lat="47.21678" lon="-1.51774">
        <ele>52</ele>
        <time>2021-03-27T09:00:40.000Z</time>
      </trkpt>
      <trkpt lat="47.21687" lon="-1.51756">
        <ele>53</ele>
        <time>2021-03-27T09:00:42.000Z</time>
      </trkpt>
      <trkpt lat="47.21695" lon="-1.51739">
        <ele>54</ele>
        <time>2021-03-27T09:00:44.000Z</time>
      </trkpt>
      <trkpt lat="47.21704" lon="-1.5172">
        <ele>54</ele>
        <time>2021-03-27T09:00:46.000Z</time>
      </trkpt>
      <trkpt lat="47.21712" lon="-1.51702">
        <ele>55</ele>
        <time>2021-03-27T09:00:48.000Z</time>
      </trkpt>
      <trkpt lat="47.21722" lon="-1.51676">
        <ele>54</ele>
        <time>2021-03-27T09:00:51.000Z</time>
      </trkpt>
      <trkpt lat="47.21736" lon="-1.51649">
        <ele>55</ele>
        <time>2021-03-27T09:00:54.000Z</time>
      </trkpt>
      <trkpt lat="47.21744" lon="-1.51631">
        <ele>49</ele>
        <time>2021-03-27T09:00:56.000Z</time>
      </trkpt>
      <trkpt lat="47.21751" lon="-1.51614">
        <ele>49</ele>
        <time>2021-03-27T09:00:58.000Z</time>
      </trkpt>
      <trkpt lat="47.21761" lon="-1.51601">
        <ele>51</ele>
        <time>2021-03-27T09:01:00.000Z</time>
      </trkpt>
      <trkpt lat="47.21772" lon="-1.51587">
        <ele>52</ele>
        <time>2021-03-27T09:01:02.000Z</time>
      </trkpt>
      <trkpt lat="47.21781" lon="-1.51571">
        <ele>53</ele>
        <time>2021-03-27T09:01:04.000Z</time>
      </trkpt>
      <trkpt lat="47.21789" lon="-1.51553">
        <ele>53</ele>
        <time>2021-03-27T09:01:06.000Z</time>
      </trkpt>
      <trkpt lat="47.21797" lon="-1.51535">
        <ele>52</ele>
        <time>2021-03-27T09:01:08.000Z</time>
      </trkpt>
      <trkpt lat="47.21803" lon="-1.51515">
        <ele>52</ele>
        <time>2021-03-27T09:01:10.000Z</time>
      </trkpt>
      <trkpt lat="47.21811" lon="-1.51496">
        <ele>53</ele>
        <time>2021-03-27T09:01:12.000Z</time>
      </trkpt>
      <trkpt lat="47.21818" lon="-1.51477">
        <ele>53</ele>
        <time>2021-03-27T09:01:14.000Z</time>
      </trkpt>
      <trkpt lat="47.21821" lon="-1.51456">
        <ele>54</ele>
        <time>2021-03-27T09:01:16.000Z</time>
      </trkpt>
      <trkpt lat="47.21824" lon="-1.51435">
        <ele>54</ele>
        <time>2021-03-27T09:01:18.000Z</time>
      </trkpt>
      <trkpt lat="47.21828" lon="-1.51414">
        <ele>54</ele>
        <time>2021-03-27T09:01:20.000Z</time>
      </trkpt>
      <trkpt lat="47.21833" lon="-1.51393">
        <ele>55</ele>
        <time>2021-03-27T09:01:22.000Z</time>
      </trkpt>
      <trkpt lat="47.21838" lon="-1.51372">
        <ele>54</ele>
        <time>2021-03-27T09:01:24.000Z</time>
      </trkpt>
      <trkpt lat="47.21843" lon="-1.51349">
        <ele>52</ele>
        <time>2021-03-27T09:01:26.000Z</time>
      </trkpt>
      <trkpt lat="47.2185" lon="-1.5133">
        <ele>50</ele>
        <time>2021-03-27T09:01:28.000Z</time>
      </trkpt>
      <trkpt lat="47.21856" lon="-1.51311">
        <ele>51</ele>
        <time>2021-03-27T09:01:30.000Z</time>
      </trkpt>
      <trkpt lat="47.21867" lon="-1.51279">
        <ele>51</ele>
        <time>2021-03-27T09:01:33.000Z</time>
      </trkpt>
      <trkpt lat="47.21872" lon="-1.51258">
        <ele>51</ele>
        <time>2021-03-27T09:01:35.000Z</time>
      </trkpt>
      <trkpt lat="47.21879" lon="-1.51236">
        <ele>51</ele>
        <time>2021-03-27T09:01:37.000Z</time>
      </trkpt>
      <trkpt lat="47.21887" lon="-1.51215">
        <ele>52</ele>
        <time>2021-03-27T09:01:39.000Z</time>
      </trkpt>
      <trkpt lat="47.21894" lon="-1.51195">
        <ele>53</ele>
        <time>2021-03-27T09:01:41.000Z</time>
      </trkpt>
      <trkpt lat="47.219" lon="-1.51175">
        <ele>51</ele>
        <time>2021-03-27T09:01:43.000Z</time>
      </trkpt>
      <trkpt lat="47.21907" lon="-1.51154">
        <ele>53</ele>
        <time>2021-03-27T09:01:45.000Z</time>
      </trkpt>
      <trkpt lat="47.21914" lon="-1.51133">
        <ele>53</ele>
        <time>2021-03-27T09:01:47.000Z</time>
      </trkpt>
      <trkpt lat="47.21921" lon="-1.51112">
        <ele>53</ele>
        <time>2021-03-27T09:01:49.000Z</time>
      </trkpt>
      <trkpt lat="47.21928" lon="-1.51093">
        <ele>53</ele>
        <time>2021-03-27T09:01:51.000Z</time>
      </trkpt>
      <trkpt lat="47.2194" lon="-1.51068">
        <ele>54</ele>
        <time>2021-03-27T09:01:54.000Z</time>
      </trkpt>
      <trkpt lat="47.21952" lon="-1.51049">
        <ele>54</ele>
        <time>2021-03-27T09:01:57.000Z</time>
      </trkpt>
      <trkpt lat="47.21956" lon="-1.51031">
        <ele>54</ele>
        <time>2021-03-27T09:01:59.000Z</time>
      </trkpt>
      <trkpt lat="47.2196" lon="-1.51013">
        <ele>54</ele>
        <time>2021-03-27T09:02:01.000Z</time>
      </trkpt>
      <trkpt lat="47.21966" lon="-1.50994">
        <ele>54</ele>
        <time>2021-03-27T09:02:03.000Z</time>
      </trkpt>
      <trkpt lat="47.21977" lon="-1.5097">
        <ele>54</ele>
        <time>2021-03-27T09:02:06.000Z</time>
      </trkpt>
      <trkpt lat="47.21982" lon="-1.50952">
        <ele>53</ele>
        <time>2021-03-27T09:02:08.000Z</time>
      </trkpt>
      <trkpt lat="47.21986" lon="-1.50931">
        <ele>52</ele>
        <time>2021-03-27T09:02:10.000Z</time>
      </trkpt>
      <trkpt lat="47.21991" lon="-1.50911">
        <ele>51</ele>
        <time>2021-03-27T09:02:12.000Z</time>
      </trkpt>
      <trkpt lat="47.21998" lon="-1.5088">
        <ele>49</ele>
        <time>2021-03-27T09:02:15.000Z</time>
      </trkpt>
      <trkpt lat="47.22005" lon="-1.5086">
        <ele>50</ele>
        <time>2021-03-27T09:02:17.000Z</time>
      </trkpt>
      <trkpt lat="47.22014" lon="-1.50841">
        <ele>51</ele>
        <time>2021-03-27T09:02:19.000Z</time>
      </trkpt>
      <trkpt lat="47.22021" lon="-1.50823">
        <ele>51</ele>
        <time>2021-03-27T09:02:21.000Z</time>
      </trkpt>
      <trkpt lat="47.22028" lon="-1.50806">
        <ele>51</ele>
        <time>2021-03-27T09:02:23.000Z</time>
      </trkpt>
      <trkpt lat="47.22032" lon="-1.50788">
        <ele>50</ele>
        <time>2021-03-27T09:02:25.000Z</time>
      </trkpt>
      <trkpt lat="47.22038" lon="-1.50769">
        <ele>50</ele>
        <time>2021-03-27T09:02:27.000Z</time>
      </trkpt>
      <trkpt lat="47.22041" lon="-1.50748">
        <ele>50</ele>
        <time>2021-03-27T09:02:29.000Z</time>
      </trkpt>
      <trkpt lat="47.22044" lon="-1.50728">
        <ele>51</ele>
        <time>2021-03-27T09:02:31.000Z</time>
      </trkpt>
      <trkpt lat="47.22046" lon="-1.50702">
        <ele>51</ele>
        <time>2021-03-27T09:02:34.000Z</time>
      </trkpt>
      <trkpt lat="47.22047" lon="-1.50682">
        <ele>52</ele>
        <time>2021-03-27T09:02:36.000Z</time>
      </trkpt>
      <trkpt lat="47.22048" lon="-1.50662">
        <ele>52</ele>
        <time>2021-03-27T09:02:38.000Z</time>
      </trkpt>
      <trkpt lat="47.22052" lon="-1.50643">
        <ele>53</ele>
        <time>2021-03-27T09:02:40.000Z</time>
      </trkpt>
      <trkpt lat="47.22054" lon="-1.50622">
        <ele>54</ele>
        <time>2021-03-27T09:02:42.000Z</time>
      </trkpt>
      <trkpt lat="47.22055" lon="-1.50601">
        <ele>55</ele>
        <time>2021-03-27T09:02:44.000Z</time>
      </trkpt>
      <trkpt lat="47.22057" lon="-1.50582">
        <ele>54</ele>
        <time>2021-03-27T09:02:46.000Z</time>
      </trkpt>
      <trkpt lat="47.22058" lon="-1.50559">
        <ele>54</ele>
        <time>2021-03-27T09:02:48.000Z</time>
      </trkpt>
      <trkpt lat="47.2206" lon="-1.50535">
        <ele>53</ele>
        <time>2021-03-27T09:02:50.000Z</time>
      </trkpt>
      <trkpt lat="47.22062" lon="-1.50513">
        <ele>53</ele>
        <time>2021-03-27T09:02:52.000Z</time>
      </trkpt>
      <trkpt lat="47.22065" lon="-1.50494">
        <ele>52</ele>
        <time>2021-03-27T09:02:54.000Z</time>
      </trkpt>
      <trkpt lat="47.22067" lon="-1.50477">
        <ele>52</ele>
        <time>2021-03-27T09:02:56.000Z</time>
      </trkpt>
      <trkpt lat="47.22069" lon="-1.50452">
        <ele>51</ele>
        <time>2021-03-27T09:02:58.000Z</time>
      </trkpt>
      <trkpt lat="47.22071" lon="-1.50427">
        <ele>52</ele>
        <time>2021-03-27T09:03:00.000Z</time>
      </trkpt>
      <trkpt lat="47.2208" lon="-1.50388">
        <ele>52</ele>
        <time>2021-03-27T09:03:04.000Z</time>
      </trkpt>
      <trkpt lat="47.22084" lon="-1.5037">
        <ele>51</ele>
        <time>2021-03-27T09:03:06.000Z</time>
      </trkpt>
      <trkpt lat="47.22089" lon="-1.5035">
        <ele>53</ele>
        <time>2021-03-27T09:03:08.000Z</time>
      </trkpt>
      <trkpt lat="47.22095" lon="-1.50331">
        <ele>53</ele>
        <time>2021-03-27T09:03:10.000Z</time>
      </trkpt>
      <trkpt lat="47.221" lon="-1.50316">
        <ele>50</ele>
        <time>2021-03-27T09:03:12.000Z</time>
      </trkpt>
      <trkpt lat="47.22109" lon="-1.50298">
        <ele>50</ele>
        <time>2021-03-27T09:03:14.000Z</time>
      </trkpt>
      <trkpt lat="47.22119" lon="-1.50282">
        <ele>51</ele>
        <time>2021-03-27T09:03:16.000Z</time>
      </trkpt>
      <trkpt lat="47.22127" lon="-1.50264">
        <ele>50</ele>
        <time>2021-03-27T09:03:18.000Z</time>
      </trkpt>
      <trkpt lat="47.22136" lon="-1.50251">
        <ele>49</ele>
        <time>2021-03-27T09:03:20.000Z</time>
      </trkpt>
      <trkpt lat="47.22137" lon="-1.50237">
        <ele>53</ele>
        <time>2021-03-27T09:03:22.000Z</time>
      </trkpt>
      <trkpt lat="47.22139" lon="-1.5022">
        <ele>53</ele>
        <time>2021-03-27T09:03:24.000Z</time>
      </trkpt>
      <trkpt lat="47.22145" lon="-1.50202">
        <ele>53</ele>
        <time>2021-03-27T09:03:26.000Z</time>
      </trkpt>
      <trkpt lat="47.2215" lon="-1.50184">
        <ele>53</ele>
        <time>2021-03-27T09:03:28.000Z</time>
      </trkpt>
      <trkpt lat="47.22153" lon="-1.50164">
        <ele>51</ele>
        <time>2021-03-27T09:03:30.000Z</time>
      </trkpt>
      <trkpt lat="47.22158" lon="-1.50145">
        <ele>52</ele>
        <time>2021-03-27T09:03:32.000Z</time>
      </trkpt>
      <trkpt lat="47.22165" lon="-1.50127">
        <ele>52</ele>
        <time>2021-03-27T09:03:34.000Z</time>
      </trkpt>
      <trkpt lat="47.22173" lon="-1.50109">
        <ele>52</ele>
        <time>2021-03-27T09:03:36.000Z</time>
      </trkpt>
      <trkpt lat="47.22179" lon="-1.5009">
        <ele>52</ele>
        <time>2021-03-27T09:03:38.000Z</time>
      </trkpt>
      <trkpt lat="47.22183" lon="-1.50071">
        <ele>52</ele>
        <time>2021-03-27T09:03:40.000Z</time>
      </trkpt>
      <trkpt lat="47.22186" lon="-1.50053">
        <ele>51</ele>
        <time>2021-03-27T09:03:42.000Z</time>
      </trkpt>
      <trkpt lat="47.2219" lon="-1.50034">
        <ele>52</ele>
        <time>2021-03-27T09:03:44.000Z</time>
      </trkpt>
      <trkpt lat="47.22195" lon="-1.50013">
        <ele>52</ele>
        <time>2021-03-27T09:03:46.000Z</time>
      </trkpt>
      <trkpt lat="47.22201" lon="-1.49993">
        <ele>52</ele>
        <time>2021-03-27T09:03:48.000Z</time>
      </trkpt>
      <trkpt lat="47.22207" lon="-1.49972">
        <ele>52</ele>
        <time>2021-03-27T09:03:50.000Z</time>
      </trkpt>
      <trkpt lat="47.22212" lon="-1.49951">
        <ele>52</ele>
        <time>2021-03-27T09:03:52.000Z</time>
      </trkpt>
      <trkpt lat="47.2222" lon="-1.49919">
        <ele>51</ele>
        <time>2021-03-27T09:03:55.000Z</time>
      </trkpt>
      <trkpt lat="47.22225" lon="-1.49898">
        <ele>52</ele>
        <time>2021-03-27T09:03:57.000Z</time>
      </trkpt>
      <trkpt lat="47.2223" lon="-1.49877">
        <ele>53</ele>
        <time>2021-03-27T09:03:59.000Z</time>
      </trkpt>
      <trkpt lat="47.22234" lon="-1.49857">
        <ele>53</ele>
        <time>2021-03-27T09:04:01.000Z</time>
      </trkpt>
      <trkpt lat="47.22239" lon="-1.49838">
        <ele>53</ele>
        <time>2021-03-27T09:04:03.000Z</time>
      </trkpt>
      <trkpt lat="47.22243" lon="-1.49817">
        <ele>53</ele>
        <time>2021-03-27T09:04:05.000Z</time>
      </trkpt>
      <trkpt lat="47.22248" lon="-1.49796">
        <ele>54</ele>
        <time>2021-03-27T09:04:07.000Z</time>
      </trkpt>
      <trkpt lat="47.22251" lon="-1.49774">
        <ele>54</ele>
        <time>2021-03-27T09:04:09.000Z</time>
      </trkpt>
      <trkpt lat="47.22253" lon="-1.49753">
        <ele>53</ele>
        <time>2021-03-27T09:04:11.000Z</time>
      </trkpt>
      <trkpt lat="47.22259" lon="-1.49733">
        <ele>52</ele>
        <time>2021-03-27T09:04:13.000Z</time>
      </trkpt>
      <trkpt lat="47.22265" lon="-1.49712">
        <ele>53</ele>
        <time>2021-03-27T09:04:15.000Z</time>
      </trkpt>
      <trkpt lat="47.22277" lon="-1.49672">
        <ele>52</ele>
        <time>2021-03-27T09:04:19.000Z</time>
      </trkpt>
      <trkpt lat="47.22283" lon="-1.49651">
        <ele>51</ele>
        <time>2021-03-27T09:04:21.000Z</time>
      </trkpt>
      <trkpt lat="47.2229" lon="-1.49631">
        <ele>53</ele>
        <time>2021-03-27T09:04:23.000Z</time>
      </trkpt>
      <trkpt lat="47.22294" lon="-1.49611">
        <ele>53</ele>
        <time>2021-03-27T09:04:25.000Z</time>
      </trkpt>
      <trkpt lat="47.223" lon="-1.49593">
        <ele>53</ele>
        <time>2021-03-27T09:04:27.000Z</time>
      </trkpt>
      <trkpt lat="47.22307" lon="-1.49575">
        <ele>53</ele>
        <time>2021-03-27T09:04:29.000Z</time>
      </trkpt>
      <trkpt lat="47.22313" lon="-1.49558">
        <ele>53</ele>
        <time>2021-03-27T09:04:31.000Z</time>
      </trkpt>
      <trkpt lat="47.22319" lon="-1.4954">
        <ele>53</ele>
        <time>2021-03-27T09:04:33.000Z</time>
      </trkpt>
      <trkpt lat="47.22331" lon="-1.49515">
        <ele>53</ele>
        <time>2021-03-27T09:04:36.000Z</time>
      </trkpt>
      <trkpt lat="47.22337" lon="-1.49495">
        <ele>53</ele>
        <time>2021-03-27T09:04:38.000Z</time>
      </trkpt>
      <trkpt lat="47.22342" lon="-1.49473">
        <ele>53</ele>
        <time>2021-03-27T09:04:40.000Z</time>
      </trkpt>
      <trkpt lat="47.22348" lon="-1.49453">
        <ele>54</ele>
        <time>2021-03-27T09:04:42.000Z</time>
      </trkpt>
      <trkpt lat="47.22354" lon="-1.49433">
        <ele>53</ele>
        <time>2021-03-27T09:04:44.000Z</time>
      </trkpt>
      <trkpt lat="47.22361" lon="-1.49413">
        <ele>55</ele>
        <time>2021-03-27T09:04:46.000Z</time>
      </trkpt>
      <trkpt lat="47.22367" lon="-1.49395">
        <ele>51</ele>
        <time>2021-03-27T09:04:48.000Z</time>
      </trkpt>
      <trkpt lat="47.22375" lon="-1.49379">
        <ele>52</ele>
        <time>2021-03-27T09:04:50.000Z</time>
      </trkpt>
      <trkpt lat="47.22382" lon="-1.49363">
        <ele>52</ele>
        <time>2021-03-27T09:04:52.000Z</time>
      </trkpt>
      <trkpt lat="47.22389" lon="-1.49345">
        <ele>53</ele>
        <time>2021-03-27T09:04:54.000Z</time>
      </trkpt>
      <trkpt lat="47.22397" lon="-1.49323">
        <ele>53</ele>
        <time>2021-03-27T09:04:56.000Z</time>
      </trkpt>
      <trkpt lat="47.22401" lon="-1.49312">
        <ele>53</ele>
        <time>2021-03-27T09:04:57.000Z</time>
      </trkpt>
      <trkpt lat="47.22409" lon="-1.49292">
        <ele>53</ele>
        <time>2021-03-27T09:04:59.000Z</time>
      </trkpt>
      <trkpt lat="47.22417" lon="-1.49272">
        <ele>54</ele>
        <time>2021-03-27T09:05:01.000Z</time>
      </trkpt>
      <trkpt lat="47.22432" lon="-1.49246">
        <ele>54</ele>
        <time>2021-03-27T09:05:04.000Z</time>
      </trkpt>
      <trkpt lat="47.2244" lon="-1.49227">
        <ele>54</ele>
        <time>2021-03-27T09:05:06.000Z</time>
      </trkpt>
      <trkpt lat="47.22447" lon="-1.49207">
        <ele>53</ele>
        <time>2021-03-27T09:05:08.000Z</time>
      </trkpt>
      <trkpt lat="47.22459" lon="-1.49167">
        <ele>53</ele>
        <time>2021-03-27T09:05:12.000Z</time>
      </trkpt>
      <trkpt lat="47.22466" lon="-1.49149">
        <ele>52</ele>
        <time>2021-03-27T09:05:14.000Z</time>
      </trkpt>
      <trkpt lat="47.22472" lon="-1.4913">
        <ele>53</ele>
        <time>2021-03-27T09:05:16.000Z</time>
      </trkpt>
      <trkpt lat="47.22477" lon="-1.4911">
        <ele>53</ele>
        <time>2021-03-27T09:05:18.000Z</time>
      </trkpt>
      <trkpt lat="47.22484" lon="-1.49091">
        <ele>53</ele>
        <time>2021-03-27T09:05:20.000Z</time>
      </trkpt>
      <trkpt lat="47.22495" lon="-1.4906">
        <ele>51</ele>
        <time>2021-03-27T09:05:23.000Z</time>
      </trkpt>
      <trkpt lat="47.22501" lon="-1.49043">
        <ele>51</ele>
        <time>2021-03-27T09:05:25.000Z</time>
      </trkpt>
      <trkpt lat="47.22507" lon="-1.49024">
        <ele>50</ele>
        <time>2021-03-27T09:05:27.000Z</time>
      </trkpt>
      <trkpt lat="47.22514" lon="-1.49007">
        <ele>46</ele>
        <time>2021-03-27T09:05:29.000Z</time>
      </trkpt>
      <trkpt lat="47.22519" lon="-1.48985">
        <ele>48</ele>
        <time>2021-03-27T09:05:31.000Z</time>
      </trkpt>
      <trkpt lat="47.22526" lon="-1.48965">
        <ele>49</ele>
        <time>2021-03-27T09:05:33.000Z</time>
      </trkpt>
      <trkpt lat="47.22533" lon="-1.48946">
        <ele>50</ele>
        <time>2021-03-27T09:05:35.000Z</time>
      </trkpt>
      <trkpt lat="47.22539" lon="-1.48926">
        <ele>51</ele>
        <time>2021-03-27T09:05:37.000Z</time>
      </trkpt>
      <trkpt lat="47.22544" lon="-1.48907">
        <ele>50</ele>
        <time>2021-03-27T09:05:39.000Z</time>
      </trkpt>
      <trkpt lat="47.22549" lon="-1.48887">
        <ele>50</ele>
        <time>2021-03-27T09:05:41.000Z</time>
      </trkpt>
      <trkpt lat="47.22555" lon="-1.48868">
        <ele>50</ele>
        <time>2021-03-27T09:05:43.000Z</time>
      </trkpt>
      <trkpt lat="47.22561" lon="-1.48849">
        <ele>51</ele>
        <time>2021-03-27T09:05:45.000Z</time>
      </trkpt>
      <trkpt lat="47.22566" lon="-1.4883">
        <ele>50</ele>
        <time>2021-03-27T09:05:47.000Z</time>
      </trkpt>
      <trkpt lat="47.22578" lon="-1.48801">
        <ele>50</ele>
        <time>2021-03-27T09:05:50.000Z</time>
      </trkpt>
      <trkpt lat="47.22586" lon="-1.48783">
        <ele>48</ele>
        <time>2021-03-27T09:05:52.000Z</time>
      </trkpt>
      <trkpt lat="47.22591" lon="-1.48763">
        <ele>49</ele>
        <time>2021-03-27T09:05:54.000Z</time>
      </trkpt>
      <trkpt lat="47.22595" lon="-1.48743">
        <ele>49</ele>
        <time>2021-03-27T09:05:56.000Z</time>
      </trkpt>
      <trkpt lat="47.22602" lon="-1.48719">
        <ele>50</ele>
        <time>2021-03-27T09:05:58.000Z</time>
      </trkpt>
      <trkpt lat="47.22608" lon="-1.48697">
        <ele>49</ele>
        <time>2021-03-27T09:06:00.000Z</time>
      </trkpt>
      <trkpt lat="47.22614" lon="-1.48675">
        <ele>50</ele>
        <time>2021-03-27T09:06:02.000Z</time>
      </trkpt>
      <trkpt lat="47.2262" lon="-1.48656">
        <ele>49</ele>
        <time>2021-03-27T09:06:04.000Z</time>
      </trkpt>
      <trkpt lat="47.22627" lon="-1.48637">
        <ele>50</ele>
        <time>2021-03-27T09:06:06.000Z</time>
      </trkpt>
      <trkpt lat="47.22631" lon="-1.48619">
        <ele>50</ele>
        <time>2021-03-27T09:06:08.000Z</time>
      </trkpt>
      <trkpt lat="47.22637" lon="-1.48603">
        <ele>48</ele>
        <time>2021-03-27T09:06:10.000Z</time>
      </trkpt>
      <trkpt lat="47.22646" lon="-1.48584">
        <ele>48</ele>
        <time>2021-03-27T09:06:12.000Z</time>
      </trkpt>
      <trkpt lat="47.22653" lon="-1.48564">
        <ele>49</ele>
        <time>2021-03-27T09:06:14.000Z</time>
      </trkpt>
      <trkpt lat="47.22659" lon="-1.48545">
        <ele>50</ele>
        <time>2021-03-27T09:06:16.000Z</time>
      </trkpt>
      <trkpt lat="47.22665" lon="-1.48525">
        <ele>52</ele>
        <time>2021-03-27T09:06:18.000Z</time>
      </trkpt>
      <trkpt lat="47.2267" lon="-1.48507">
        <ele>51</ele>
        <time>2021-03-27T09:06:20.000Z</time>
      </trkpt>
      <trkpt lat="47.22674" lon="-1.48491">
        <ele>52</ele>
        <time>2021-03-27T09:06:22.000Z</time>
      </trkpt>
      <trkpt lat="47.22684" lon="-1.48474">
        <ele>52</ele>
        <time>2021-03-27T09:06:24.000Z</time>
      </trkpt>
      <trkpt lat="47.22696" lon="-1.48446">
        <ele>53</ele>
        <time>2021-03-27T09:06:27.000Z</time>
      </trkpt>
      <trkpt lat="47.22702" lon="-1.48428">
        <ele>53</ele>
        <time>2021-03-27T09:06:29.000Z</time>
      </trkpt>
      <trkpt lat="47.22711" lon="-1.4841">
        <ele>54</ele>
        <time>2021-03-27T09:06:31.000Z</time>
      </trkpt>
      <trkpt lat="47.22719" lon="-1.48395">
        <ele>54</ele>
        <time>2021-03-27T09:06:33.000Z</time>
      </trkpt>
      <trkpt lat="47.2273" lon="-1.48382">
        <ele>54</ele>
        <time>2021-03-27T09:06:35.000Z</time>
      </trkpt>
      <trkpt lat="47.2274" lon="-1.48368">
        <ele>54</ele>
        <time>2021-03-27T09:06:37.000Z</time>
      </trkpt>
      <trkpt lat="47.22751" lon="-1.48353">
        <ele>54</ele>
        <time>2021-03-27T09:06:39.000Z</time>
      </trkpt>
      <trkpt lat="47.22769" lon="-1.48331">
        <ele>55</ele>
        <time>2021-03-27T09:06:42.000Z</time>
      </trkpt>
      <trkpt lat="47.22779" lon="-1.48316">
        <ele>54</ele>
        <time>2021-03-27T09:06:44.000Z</time>
      </trkpt>
      <trkpt lat="47.22788" lon="-1.483">
        <ele>55</ele>
        <time>2021-03-27T09:06:46.000Z</time>
      </trkpt>
      <trkpt lat="47.22796" lon="-1.48285">
        <ele>55</ele>
        <time>2021-03-27T09:06:48.000Z</time>
      </trkpt>
      <trkpt lat="47.22805" lon="-1.48269">
        <ele>55</ele>
        <time>2021-03-27T09:06:50.000Z</time>
      </trkpt>
      <trkpt lat="47.22814" lon="-1.48255">
        <ele>55</ele>
        <time>2021-03-27T09:06:52.000Z</time>
      </trkpt>
      <trkpt lat="47.22824" lon="-1.48241">
        <ele>55</ele>
        <time>2021-03-27T09:06:54.000Z</time>
      </trkpt>
      <trkpt lat="47.22835" lon="-1.48228">
        <ele>55</ele>
        <time>2021-03-27T09:06:56.000Z</time>
      </trkpt>
      <trkpt lat="47.22845" lon="-1.48214">
        <ele>54</ele>
        <time>2021-03-27T09:06:58.000Z</time>
      </trkpt>
      <trkpt lat="47.22853" lon="-1.48198">
        <ele>55</ele>
        <time>2021-03-27T09:07:00.000Z</time>
      </trkpt>
      <trkpt lat="47.22862" lon="-1.48182">
        <ele>56</ele>
        <time>2021-03-27T09:07:02.000Z</time>
      </trkpt>
      <trkpt lat="47.22873" lon="-1.48169">
        <ele>53</ele>
        <time>2021-03-27T09:07:04.000Z</time>
      </trkpt>
      <trkpt lat="47.22884" lon="-1.48156">
        <ele>52</ele>
        <time>2021-03-27T09:07:06.000Z</time>
      </trkpt>
      <trkpt lat="47.22894" lon="-1.4814">
        <ele>53</ele>
        <time>2021-03-27T09:07:08.000Z</time>
      </trkpt>
      <trkpt lat="47.22902" lon="-1.48126">
        <ele>53</ele>
        <time>2021-03-27T09:07:10.000Z</time>
      </trkpt>
      <trkpt lat="47.22912" lon="-1.48114">
        <ele>53</ele>
        <time>2021-03-27T09:07:12.000Z</time>
      </trkpt>
      <trkpt lat="47.22927" lon="-1.48109">
        <ele>51</ele>
        <time>2021-03-27T09:07:14.000Z</time>
      </trkpt>
      <trkpt lat="47.22939" lon="-1.48108">
        <ele>52</ele>
        <time>2021-03-27T09:07:16.000Z</time>
      </trkpt>
      <trkpt lat="47.22949" lon="-1.48105">
        <ele>53</ele>
        <time>2021-03-27T09:07:18.000Z</time>
      </trkpt>
      <trkpt lat="47.22957" lon="-1.48094">
        <ele>52</ele>
        <time>2021-03-27T09:07:20.000Z</time>
      </trkpt>
      <trkpt lat="47.22963" lon="-1.48082">
        <ele>51</ele>
        <time>2021-03-27T09:07:22.000Z</time>
      </trkpt>
      <trkpt lat="47.22972" lon="-1.4807">
        <ele>53</ele>
        <time>2021-03-27T09:07:25.000Z</time>
      </trkpt>
      <trkpt lat="47.22979" lon="-1.48059">
        <ele>53</ele>
        <time>2021-03-27T09:07:27.000Z</time>
      </trkpt>
      <trkpt lat="47.22987" lon="-1.48044">
        <ele>53</ele>
        <time>2021-03-27T09:07:29.000Z</time>
      </trkpt>
      <trkpt lat="47.22994" lon="-1.48029">
        <ele>54</ele>
        <time>2021-03-27T09:07:31.000Z</time>
      </trkpt>
      <trkpt lat="47.23003" lon="-1.48013">
        <ele>54</ele>
        <time>2021-03-27T09:07:33.000Z</time>
      </trkpt>
      <trkpt lat="47.23012" lon="-1.47998">
        <ele>55</ele>
        <time>2021-03-27T09:07:35.000Z</time>
      </trkpt>
      <trkpt lat="47.23021" lon="-1.47985">
        <ele>55</ele>
        <time>2021-03-27T09:07:37.000Z</time>
      </trkpt>
      <trkpt lat="47.2303" lon="-1.47971">
        <ele>55</ele>
        <time>2021-03-27T09:07:39.000Z</time>
      </trkpt>
      <trkpt lat="47.23045" lon="-1.4795">
        <ele>56</ele>
        <time>2021-03-27T09:07:42.000Z</time>
      </trkpt>
      <trkpt lat="47.23055" lon="-1.47937">
        <ele>56</ele>
        <time>2021-03-27T09:07:44.000Z</time>
      </trkpt>
      <trkpt lat="47.23072" lon="-1.47916">
        <ele>54</ele>
        <time>2021-03-27T09:07:47.000Z</time>
      </trkpt>
      <trkpt lat="47.23083" lon="-1.47904">
        <ele>54</ele>
        <time>2021-03-27T09:07:49.000Z</time>
      </trkpt>
      <trkpt lat="47.23094" lon="-1.47892">
        <ele>54</ele>
        <time>2021-03-27T09:07:51.000Z</time>
      </trkpt>
      <trkpt lat="47.23104" lon="-1.47879">
        <ele>53</ele>
        <time>2021-03-27T09:07:53.000Z</time>
      </trkpt>
      <trkpt lat="47.23114" lon="-1.47862">
        <ele>54</ele>
        <time>2021-03-27T09:07:55.000Z</time>
      </trkpt>
      <trkpt lat="47.23123" lon="-1.47848">
        <ele>54</ele>
        <time>2021-03-27T09:07:57.000Z</time>
      </trkpt>
      <trkpt lat="47.23131" lon="-1.4783">
        <ele>54</ele>
        <time>2021-03-27T09:07:59.000Z</time>
      </trkpt>
      <trkpt lat="47.23137" lon="-1.47811">
        <ele>52</ele>
        <time>2021-03-27T09:08:01.000Z</time>
      </trkpt>
      <trkpt lat="47.23141" lon="-1.47796">
        <ele>53</ele>
        <time>2021-03-27T09:08:03.000Z</time>
      </trkpt>
      <trkpt lat="47.23146" lon="-1.47778">
        <ele>52</ele>
        <time>2021-03-27T09:08:05.000Z</time>
      </trkpt>
      <trkpt lat="47.23155" lon="-1.47759">
        <ele>53</ele>
        <time>2021-03-27T09:08:07.000Z</time>
      </trkpt>
      <trkpt lat="47.23162" lon="-1.4774">
        <ele>54</ele>
        <time>2021-03-27T09:08:09.000Z</time>
      </trkpt>
      <trkpt lat="47.23175" lon="-1.47718">
        <ele>54</ele>
        <time>2021-03-27T09:08:12.000Z</time>
      </trkpt>
      <trkpt lat="47.2318" lon="-1.47701">
        <ele>55</ele>
        <time>2021-03-27T09:08:14.000Z</time>
      </trkpt>
      <trkpt lat="47.23187" lon="-1.47685">
        <ele>56</ele>
        <time>2021-03-27T09:08:16.000Z</time>
      </trkpt>
      <trkpt lat="47.23198" lon="-1.4766">
        <ele>56</ele>
        <time>2021-03-27T09:08:19.000Z</time>
      </trkpt>
      <trkpt lat="47.23205" lon="-1.47643">
        <ele>56</ele>
        <time>2021-03-27T09:08:21.000Z</time>
      </trkpt>
      <trkpt lat="47.23212" lon="-1.47625">
        <ele>58</ele>
        <time>2021-03-27T09:08:23.000Z</time>
      </trkpt>
      <trkpt lat="47.2322" lon="-1.4761">
        <ele>58</ele>
        <time>2021-03-27T09:08:25.000Z</time>
      </trkpt>
      <trkpt lat="47.23225" lon="-1.47596">
        <ele>57</ele>
        <time>2021-03-27T09:08:27.000Z</time>
      </trkpt>
      <trkpt lat="47.23232" lon="-1.47581">
        <ele>57</ele>
        <time>2021-03-27T09:08:29.000Z</time>
      </trkpt>
      <trkpt lat="47.2324" lon="-1.47567">
        <ele>56</ele>
        <time>2021-03-27T09:08:31.000Z</time>
      </trkpt>
      <trkpt lat="47.23251" lon="-1.47546">
        <ele>57</ele>
        <time>2021-03-27T09:08:34.000Z</time>
      </trkpt>
      <trkpt lat="47.23266" lon="-1.47525">
        <ele>55</ele>
        <time>2021-03-27T09:08:37.000Z</time>
      </trkpt>
      <trkpt lat="47.23278" lon="-1.47515">
        <ele>54</ele>
        <time>2021-03-27T09:08:39.000Z</time>
      </trkpt>
      <trkpt lat="47.2329" lon="-1.47507">
        <ele>55</ele>
        <time>2021-03-27T09:08:41.000Z</time>
      </trkpt>
      <trkpt lat="47.23303" lon="-1.47499">
        <ele>54</ele>
        <time>2021-03-27T09:08:43.000Z</time>
      </trkpt>
      <trkpt lat="47.23315" lon="-1.47492">
        <ele>54</ele>
        <time>2021-03-27T09:08:45.000Z</time>
      </trkpt>
      <trkpt lat="47.23326" lon="-1.47483">
        <ele>55</ele>
        <time>2021-03-27T09:08:47.000Z</time>
      </trkpt>
      <trkpt lat="47.23339" lon="-1.47473">
        <ele>55</ele>
        <time>2021-03-27T09:08:49.000Z</time>
      </trkpt>
      <trkpt lat="47.23352" lon="-1.47465">
        <ele>55</ele>
        <time>2021-03-27T09:08:51.000Z</time>
      </trkpt>
      <trkpt lat="47.23367" lon="-1.4746">
        <ele>55</ele>
        <time>2021-03-27T09:08:53.000Z</time>
      </trkpt>
      <trkpt lat="47.2338" lon="-1.47454">
        <ele>55</ele>
        <time>2021-03-27T09:08:55.000Z</time>
      </trkpt>
      <trkpt lat="47.23392" lon="-1.47447">
        <ele>55</ele>
        <time>2021-03-27T09:08:57.000Z</time>
      </trkpt>
      <trkpt lat="47.23405" lon="-1.4744">
        <ele>55</ele>
        <time>2021-03-27T09:08:59.000Z</time>
      </trkpt>
      <trkpt lat="47.23417" lon="-1.47432">
        <ele>55</ele>
        <time>2021-03-27T09:09:01.000Z</time>
      </trkpt>
      <trkpt lat="47.2343" lon="-1.47423">
        <ele>55</ele>
        <time>2021-03-27T09:09:03.000Z</time>
      </trkpt>
      <trkpt lat="47.23449" lon="-1.47409">
        <ele>54</ele>
        <time>2021-03-27T09:09:06.000Z</time>
      </trkpt>
      <trkpt lat="47.23468" lon="-1.47403">
        <ele>54</ele>
        <time>2021-03-27T09:09:09.000Z</time>
      </trkpt>
      <trkpt lat="47.23483" lon="-1.47396">
        <ele>54</ele>
        <time>2021-03-27T09:09:11.000Z</time>
      </trkpt>
      <trkpt lat="47.23497" lon="-1.47389">
        <ele>50</ele>
        <time>2021-03-27T09:09:13.000Z</time>
      </trkpt>
      <trkpt lat="47.23509" lon="-1.47379">
        <ele>51</ele>
        <time>2021-03-27T09:09:15.000Z</time>
      </trkpt>
      <trkpt lat="47.23522" lon="-1.47369">
        <ele>53</ele>
        <time>2021-03-27T09:09:17.000Z</time>
      </trkpt>
      <trkpt lat="47.23535" lon="-1.47359">
        <ele>54</ele>
        <time>2021-03-27T09:09:19.000Z</time>
      </trkpt>
      <trkpt lat="47.23548" lon="-1.47349">
        <ele>54</ele>
        <time>2021-03-27T09:09:21.000Z</time>
      </trkpt>
      <trkpt lat="47.23561" lon="-1.47339">
        <ele>54</ele>
        <time>2021-03-27T09:09:23.000Z</time>
      </trkpt>
      <trkpt lat="47.23573" lon="-1.47327">
        <ele>54</ele>
        <time>2021-03-27T09:09:25.000Z</time>
      </trkpt>
      <trkpt lat="47.23585" lon="-1.47317">
        <ele>54</ele>
        <time>2021-03-27T09:09:27.000Z</time>
      </trkpt>
      <trkpt lat="47.23597" lon="-1.47305">
        <ele>54</ele>
        <time>2021-03-27T09:09:29.000Z</time>
      </trkpt>
      <trkpt lat="47.23609" lon="-1.47292">
        <ele>55</ele>
        <time>2021-03-27T09:09:31.000Z</time>
      </trkpt>
      <trkpt lat="47.23628" lon="-1.47273">
        <ele>53</ele>
        <time>2021-03-27T09:09:34.000Z</time>
      </trkpt>
      <trkpt lat="47.2364" lon="-1.47259">
        <ele>52</ele>
        <time>2021-03-27T09:09:36.000Z</time>
      </trkpt>
      <trkpt lat="47.23652" lon="-1.47246">
        <ele>53</ele>
        <time>2021-03-27T09:09:38.000Z</time>
      </trkpt>
      <trkpt lat="47.23663" lon="-1.47233">
        <ele>53</ele>
        <time>2021-03-27T09:09:40.000Z</time>
      </trkpt>
      <trkpt lat="47.2368" lon="-1.47214">
        <ele>53</ele>
        <time>2021-03-27T09:09:43.000Z</time>
      </trkpt>
      <trkpt lat="47.23695" lon="-1.47192">
        <ele>53</ele>
        <time>2021-03-27T09:09:46.000Z</time>
      </trkpt>
      <trkpt lat="47.23704" lon="-1.47176">
        <ele>54</ele>
        <time>2021-03-27T09:09:48.000Z</time>
      </trkpt>
      <trkpt lat="47.23715" lon="-1.47157">
        <ele>53</ele>
        <time>2021-03-27T09:09:51.000Z</time>
      </trkpt>
      <trkpt lat="47.2373" lon="-1.47135">
        <ele>50</ele>
        <time>2021-03-27T09:09:54.000Z</time>
      </trkpt>
      <trkpt lat="47.23748" lon="-1.47117">
        <ele>52</ele>
        <time>2021-03-27T09:09:57.000Z</time>
      </trkpt>
      <trkpt lat="47.23765" lon="-1.47095">
        <ele>53</ele>
        <time>2021-03-27T09:10:00.000Z</time>
      </trkpt>
      <trkpt lat="47.23774" lon="-1.47081">
        <ele>54</ele>
        <time>2021-03-27T09:10:02.000Z</time>
      </trkpt>
      <trkpt lat="47.23783" lon="-1.4707">
        <ele>54</ele>
        <time>2021-03-27T09:10:04.000Z</time>
      </trkpt>
      <trkpt lat="47.23793" lon="-1.47058">
        <ele>54</ele>
        <time>2021-03-27T09:10:06.000Z</time>
      </trkpt>
      <trkpt lat="47.23802" lon="-1.47044">
        <ele>54</ele>
        <time>2021-03-27T09:10:08.000Z</time>
      </trkpt>
      <trkpt lat="47.23812" lon="-1.47032">
        <ele>54</ele>
        <time>2021-03-27T09:10:10.000Z</time>
      </trkpt>
      <trkpt lat="47.2382" lon="-1.47017">
        <ele>54</ele>
        <time>2021-03-27T09:10:12.000Z</time>
      </trkpt>
      <trkpt lat="47.23829" lon="-1.47002">
        <ele>55</ele>
        <time>2021-03-27T09:10:14.000Z</time>
      </trkpt>
      <trkpt lat="47.23838" lon="-1.46989">
        <ele>55</ele>
        <time>2021-03-27T09:10:16.000Z</time>
      </trkpt>
      <trkpt lat="47.23848" lon="-1.46976">
        <ele>55</ele>
        <time>2021-03-27T09:10:18.000Z</time>
      </trkpt>
      <trkpt lat="47.23865" lon="-1.46955">
        <ele>53</ele>
        <time>2021-03-27T09:10:21.000Z</time>
      </trkpt>
      <trkpt lat="47.23876" lon="-1.46943">
        <ele>53</ele>
        <time>2021-03-27T09:10:23.000Z</time>
      </trkpt>
      <trkpt lat="47.23891" lon="-1.46921">
        <ele>51</ele>
        <time>2021-03-27T09:10:26.000Z</time>
      </trkpt>
      <trkpt lat="47.23901" lon="-1.46907">
        <ele>53</ele>
        <time>2021-03-27T09:10:28.000Z</time>
      </trkpt>
      <trkpt lat="47.23911" lon="-1.46895">
        <ele>52</ele>
        <time>2021-03-27T09:10:30.000Z</time>
      </trkpt>
      <trkpt lat="47.23927" lon="-1.46878">
        <ele>53</ele>
        <time>2021-03-27T09:10:33.000Z</time>
      </trkpt>
      <trkpt lat="47.23938" lon="-1.46869">
        <ele>53</ele>
        <time>2021-03-27T09:10:35.000Z</time>
      </trkpt>
      <trkpt lat="47.2395" lon="-1.4686">
        <ele>54</ele>
        <time>2021-03-27T09:10:37.000Z</time>
      </trkpt>
      <trkpt lat="47.23966" lon="-1.46842">
        <ele>56</ele>
        <time>2021-03-27T09:10:40.000Z</time>
      </trkpt>
      <trkpt lat="47.23976" lon="-1.46832">
        <ele>55</ele>
        <time>2021-03-27T09:10:42.000Z</time>
      </trkpt>
      <trkpt lat="47.23987" lon="-1.4682">
        <ele>56</ele>
        <time>2021-03-27T09:10:44.000Z</time>
      </trkpt>
      <trkpt lat="47.23997" lon="-1.46808">
        <ele>56</ele>
        <time>2021-03-27T09:10:46.000Z</time>
      </trkpt>
      <trkpt lat="47.24008" lon="-1.46797">
        <ele>55</ele>
        <time>2021-03-27T09:10:48.000Z</time>
      </trkpt>
      <trkpt lat="47.24023" lon="-1.46781">
        <ele>57</ele>
        <time>2021-03-27T09:10:51.000Z</time>
      </trkpt>
      <trkpt lat="47.24034" lon="-1.46767">
        <ele>57</ele>
        <time>2021-03-27T09:10:53.000Z</time>
      </trkpt>
      <trkpt lat="47.24045" lon="-1.46755">
        <ele>57</ele>
        <time>2021-03-27T09:10:55.000Z</time>
      </trkpt>
      <trkpt lat="47.24062" lon="-1.46736">
        <ele>57</ele>
        <time>2021-03-27T09:10:58.000Z</time>
      </trkpt>
      <trkpt lat="47.24073" lon="-1.46722">
        <ele>56</ele>
        <time>2021-03-27T09:11:00.000Z</time>
      </trkpt>
      <trkpt lat="47.24086" lon="-1.467">
        <ele>53</ele>
        <time>2021-03-27T09:11:03.000Z</time>
      </trkpt>
      <trkpt lat="47.24102" lon="-1.46679">
        <ele>54</ele>
        <time>2021-03-27T09:11:06.000Z</time>
      </trkpt>
      <trkpt lat="47.24113" lon="-1.46667">
        <ele>54</ele>
        <time>2021-03-27T09:11:08.000Z</time>
      </trkpt>
      <trkpt lat="47.24121" lon="-1.46655">
        <ele>53</ele>
        <time>2021-03-27T09:11:10.000Z</time>
      </trkpt>
      <trkpt lat="47.2413" lon="-1.46641">
        <ele>53</ele>
        <time>2021-03-27T09:11:12.000Z</time>
      </trkpt>
      <trkpt lat="47.24138" lon="-1.46628">
        <ele>54</ele>
        <time>2021-03-27T09:11:14.000Z</time>
      </trkpt>
      <trkpt lat="47.24145" lon="-1.46615">
        <ele>52</ele>
        <time>2021-03-27T09:11:16.000Z</time>
      </trkpt>
      <trkpt lat="47.24154" lon="-1.46605">
        <ele>52</ele>
        <time>2021-03-27T09:11:18.000Z</time>
      </trkpt>
      <trkpt lat="47.24163" lon="-1.46592">
        <ele>53</ele>
        <time>2021-03-27T09:11:20.000Z</time>
      </trkpt>
      <trkpt lat="47.24173" lon="-1.4658">
        <ele>53</ele>
        <time>2021-03-27T09:11:22.000Z</time>
      </trkpt>
      <trkpt lat="47.24188" lon="-1.46563">
        <ele>53</ele>
        <time>2021-03-27T09:11:25.000Z</time>
      </trkpt>
      <trkpt lat="47.24203" lon="-1.46541">
        <ele>52</ele>
        <time>2021-03-27T09:11:28.000Z</time>
      </trkpt>
      <trkpt lat="47.24214" lon="-1.46531">
        <ele>53</ele>
        <time>2021-03-27T09:11:30.000Z</time>
      </trkpt>
      <trkpt lat="47.24222" lon="-1.4652">
        <ele>53</ele>
        <time>2021-03-27T09:11:32.000Z</time>
      </trkpt>
      <trkpt lat="47.24232" lon="-1.46508">
        <ele>54</ele>
        <time>2021-03-27T09:11:34.000Z</time>
      </trkpt>
      <trkpt lat="47.24242" lon="-1.46494">
        <ele>53</ele>
        <time>2021-03-27T09:11:36.000Z</time>
      </trkpt>
      <trkpt lat="47.24256" lon="-1.46474">
        <ele>46</ele>
        <time>2021-03-27T09:11:39.000Z</time>
      </trkpt>
      <trkpt lat="47.24265" lon="-1.46462">
        <ele>48</ele>
        <time>2021-03-27T09:11:41.000Z</time>
      </trkpt>
      <trkpt lat="47.24276" lon="-1.46449">
        <ele>50</ele>
        <time>2021-03-27T09:11:43.000Z</time>
      </trkpt>
      <trkpt lat="47.24285" lon="-1.46436">
        <ele>52</ele>
        <time>2021-03-27T09:11:45.000Z</time>
      </trkpt>
      <trkpt lat="47.24294" lon="-1.46423">
        <ele>52</ele>
        <time>2021-03-27T09:11:47.000Z</time>
      </trkpt>
      <trkpt lat="47.24303" lon="-1.46409">
        <ele>54</ele>
        <time>2021-03-27T09:11:49.000Z</time>
      </trkpt>
      <trkpt lat="47.24317" lon="-1.46386">
        <ele>54</ele>
        <time>2021-03-27T09:11:52.000Z</time>
      </trkpt>
      <trkpt lat="47.24325" lon="-1.4637">
        <ele>54</ele>
        <time>2021-03-27T09:11:54.000Z</time>
      </trkpt>
      <trkpt lat="47.24331" lon="-1.46357">
        <ele>53</ele>
        <time>2021-03-27T09:11:56.000Z</time>
      </trkpt>
      <trkpt lat="47.24339" lon="-1.46344">
        <ele>55</ele>
        <time>2021-03-27T09:11:58.000Z</time>
      </trkpt>
      <trkpt lat="47.24348" lon="-1.46329">
        <ele>55</ele>
        <time>2021-03-27T09:12:00.000Z</time>
      </trkpt>
      <trkpt lat="47.24357" lon="-1.46315">
        <ele>55</ele>
        <time>2021-03-27T09:12:02.000Z</time>
      </trkpt>
      <trkpt lat="47.24367" lon="-1.46301">
        <ele>56</ele>
        <time>2021-03-27T09:12:04.000Z</time>
      </trkpt>
      <trkpt lat="47.24376" lon="-1.46287">
        <ele>56</ele>
        <time>2021-03-27T09:12:06.000Z</time>
      </trkpt>
      <trkpt lat="47.24386" lon="-1.46273">
        <ele>56</ele>
        <time>2021-03-27T09:12:08.000Z</time>
      </trkpt>
      <trkpt lat="47.24401" lon="-1.46254">
        <ele>56</ele>
        <time>2021-03-27T09:12:11.000Z</time>
      </trkpt>
      <trkpt lat="47.24415" lon="-1.46234">
        <ele>55</ele>
        <time>2021-03-27T09:12:14.000Z</time>
      </trkpt>
      <trkpt lat="47.24426" lon="-1.46218">
        <ele>52</ele>
        <time>2021-03-27T09:12:16.000Z</time>
      </trkpt>
      <trkpt lat="47.24436" lon="-1.46207">
        <ele>52</ele>
        <time>2021-03-27T09:12:18.000Z</time>
      </trkpt>
      <trkpt lat="47.24445" lon="-1.46194">
        <ele>53</ele>
        <time>2021-03-27T09:12:20.000Z</time>
      </trkpt>
      <trkpt lat="47.24456" lon="-1.46181">
        <ele>54</ele>
        <time>2021-03-27T09:12:22.000Z</time>
      </trkpt>
      <trkpt lat="47.24466" lon="-1.46169">
        <ele>55</ele>
        <time>2021-03-27T09:12:24.000Z</time>
      </trkpt>
      <trkpt lat="47.24475" lon="-1.46157">
        <ele>55</ele>
        <time>2021-03-27T09:12:26.000Z</time>
      </trkpt>
      <trkpt lat="47.24485" lon="-1.46145">
        <ele>55</ele>
        <time>2021-03-27T09:12:28.000Z</time>
      </trkpt>
      <trkpt lat="47.24494" lon="-1.46135">
        <ele>55</ele>
        <time>2021-03-27T09:12:30.000Z</time>
      </trkpt>
      <trkpt lat="47.24502" lon="-1.46125">
        <ele>56</ele>
        <time>2021-03-27T09:12:32.000Z</time>
      </trkpt>
      <trkpt lat="47.2451" lon="-1.46115">
        <ele>56</ele>
        <time>2021-03-27T09:12:34.000Z</time>
      </trkpt>
      <trkpt lat="47.24518" lon="-1.46106">
        <ele>56</ele>
        <time>2021-03-27T09:12:36.000Z</time>
      </trkpt>
      <trkpt lat="47.24526" lon="-1.46096">
        <ele>57</ele>
        <time>2021-03-27T09:12:38.000Z</time>
      </trkpt>
      <trkpt lat="47.24531" lon="-1.46085">
        <ele>57</ele>
        <time>2021-03-27T09:12:40.000Z</time>
      </trkpt>
      <trkpt lat="47.24536" lon="-1.46074">
        <ele>56</ele>
        <time>2021-03-27T09:12:42.000Z</time>
      </trkpt>
      <trkpt lat="47.24541" lon="-1.46061">
        <ele>57</ele>
        <time>2021-03-27T09:12:44.000Z</time>
      </trkpt>
      <trkpt lat="47.24547" lon="-1.46046">
        <ele>57</ele>
        <time>2021-03-27T09:12:46.000Z</time>
      </trkpt>
      <trkpt lat="47.24555" lon="-1.46031">
        <ele>56</ele>
        <time>2021-03-27T09:12:48.000Z</time>
      </trkpt>
      <trkpt lat="47.24563" lon="-1.4602">
        <ele>53</ele>
        <time>2021-03-27T09:12:50.000Z</time>
      </trkpt>
      <trkpt lat="47.24569" lon="-1.46006">
        <ele>53</ele>
        <time>2021-03-27T09:12:52.000Z</time>
      </trkpt>
      <trkpt lat="47.24577" lon="-1.45989">
        <ele>53</ele>
        <time>2021-03-27T09:12:54.000Z</time>
      </trkpt>
      <trkpt lat="47.24585" lon="-1.45972">
        <ele>54</ele>
        <time>2021-03-27T09:12:56.000Z</time>
      </trkpt>
      <trkpt lat="47.24592" lon="-1.45956">
        <ele>54</ele>
        <time>2021-03-27T09:12:58.000Z</time>
      </trkpt>
      <trkpt lat="47.246" lon="-1.45941">
        <ele>54</ele>
        <time>2021-03-27T09:13:00.000Z</time>
      </trkpt>
      <trkpt lat="47.24607" lon="-1.45925">
        <ele>55</ele>
        <time>2021-03-27T09:13:02.000Z</time>
      </trkpt>
      <trkpt lat="47.24613" lon="-1.45908">
        <ele>55</ele>
        <time>2021-03-27T09:13:04.000Z</time>
      </trkpt>
      <trkpt lat="47.24619" lon="-1.45891">
        <ele>55</ele>
        <time>2021-03-27T09:13:06.000Z</time>
      </trkpt>
      <trkpt lat="47.24623" lon="-1.45875">
        <ele>54</ele>
        <time>2021-03-27T09:13:08.000Z</time>
      </trkpt>
      <trkpt lat="47.24631" lon="-1.45848">
        <ele>55</ele>
        <time>2021-03-27T09:13:11.000Z</time>
      </trkpt>
      <trkpt lat="47.24636" lon="-1.4583">
        <ele>56</ele>
        <time>2021-03-27T09:13:13.000Z</time>
      </trkpt>
      <trkpt lat="47.2464" lon="-1.45812">
        <ele>56</ele>
        <time>2021-03-27T09:13:15.000Z</time>
      </trkpt>
      <trkpt lat="47.24646" lon="-1.45795">
        <ele>57</ele>
        <time>2021-03-27T09:13:17.000Z</time>
      </trkpt>
      <trkpt lat="47.2465" lon="-1.45777">
        <ele>57</ele>
        <time>2021-03-27T09:13:19.000Z</time>
      </trkpt>
      <trkpt lat="47.24655" lon="-1.45759">
        <ele>57</ele>
        <time>2021-03-27T09:13:21.000Z</time>
      </trkpt>
      <trkpt lat="47.24659" lon="-1.4574">
        <ele>57</ele>
        <time>2021-03-27T09:13:23.000Z</time>
      </trkpt>
      <trkpt lat="47.24663" lon="-1.45723">
        <ele>57</ele>
        <time>2021-03-27T09:13:25.000Z</time>
      </trkpt>
      <trkpt lat="47.24664" lon="-1.45706">
        <ele>57</ele>
        <time>2021-03-27T09:13:27.000Z</time>
      </trkpt>
      <trkpt lat="47.24673" lon="-1.45681">
        <ele>58</ele>
        <time>2021-03-27T09:13:30.000Z</time>
      </trkpt>
      <trkpt lat="47.24677" lon="-1.45665">
        <ele>58</ele>
        <time>2021-03-27T09:13:32.000Z</time>
      </trkpt>
      <trkpt lat="47.24682" lon="-1.45649">
        <ele>58</ele>
        <time>2021-03-27T09:13:34.000Z</time>
      </trkpt>
      <trkpt lat="47.24688" lon="-1.45633">
        <ele>59</ele>
        <time>2021-03-27T09:13:36.000Z</time>
      </trkpt>
      <trkpt lat="47.24694" lon="-1.45616">
        <ele>59</ele>
        <time>2021-03-27T09:13:38.000Z</time>
      </trkpt>
      <trkpt lat="47.24698" lon="-1.456">
        <ele>59</ele>
        <time>2021-03-27T09:13:40.000Z</time>
      </trkpt>
      <trkpt lat="47.24702" lon="-1.45583">
        <ele>56</ele>
        <time>2021-03-27T09:13:42.000Z</time>
      </trkpt>
      <trkpt lat="47.24708" lon="-1.45566">
        <ele>56</ele>
        <time>2021-03-27T09:13:44.000Z</time>
      </trkpt>
      <trkpt lat="47.24714" lon="-1.45549">
        <ele>55</ele>
        <time>2021-03-27T09:13:46.000Z</time>
      </trkpt>
      <trkpt lat="47.2472" lon="-1.45532">
        <ele>55</ele>
        <time>2021-03-27T09:13:48.000Z</time>
      </trkpt>
      <trkpt lat="47.24727" lon="-1.45515">
        <ele>55</ele>
        <time>2021-03-27T09:13:50.000Z</time>
      </trkpt>
      <trkpt lat="47.24734" lon="-1.45499">
        <ele>55</ele>
        <time>2021-03-27T09:13:52.000Z</time>
      </trkpt>
      <trkpt lat="47.24743" lon="-1.45477">
        <ele>55</ele>
        <time>2021-03-27T09:13:55.000Z</time>
      </trkpt>
      <trkpt lat="47.2475" lon="-1.45462">
        <ele>55</ele>
        <time>2021-03-27T09:13:57.000Z</time>
      </trkpt>
      <trkpt lat="47.24755" lon="-1.45445">
        <ele>55</ele>
        <time>2021-03-27T09:13:59.000Z</time>
      </trkpt>
      <trkpt lat="47.24761" lon="-1.45429">
        <ele>55</ele>
        <time>2021-03-27T09:14:01.000Z</time>
      </trkpt>
      <trkpt lat="47.24768" lon="-1.45413">
        <ele>55</ele>
        <time>2021-03-27T09:14:03.000Z</time>
      </trkpt>
      <trkpt lat="47.24773" lon="-1.45397">
        <ele>55</ele>
        <time>2021-03-27T09:14:05.000Z</time>
      </trkpt>
      <trkpt lat="47.24779" lon="-1.4538">
        <ele>54</ele>
        <time>2021-03-27T09:14:07.000Z</time>
      </trkpt>
      <trkpt lat="47.24785" lon="-1.45364">
        <ele>54</ele>
        <time>2021-03-27T09:14:09.000Z</time>
      </trkpt>
      <trkpt lat="47.24792" lon="-1.45351">
        <ele>54</ele>
        <time>2021-03-27T09:14:11.000Z</time>
      </trkpt>
      <trkpt lat="47.248" lon="-1.45335">
        <ele>54</ele>
        <time>2021-03-27T09:14:13.000Z</time>
      </trkpt>
      <trkpt lat="47.24806" lon="-1.45323">
        <ele>54</ele>
        <time>2021-03-27T09:14:15.000Z</time>
      </trkpt>
      <trkpt lat="47.24815" lon="-1.45308">
        <ele>54</ele>
        <time>2021-03-27T09:14:17.000Z</time>
      </trkpt>
      <trkpt lat="47.24822" lon="-1.45292">
        <ele>54</ele>
        <time>2021-03-27T09:14:19.000Z</time>
      </trkpt>
      <trkpt lat="47.24831" lon="-1.45276">
        <ele>54</ele>
        <time>2021-03-27T09:14:21.000Z</time>
      </trkpt>
      <trkpt lat="47.2484" lon="-1.45262">
        <ele>52</ele>
        <time>2021-03-27T09:14:23.000Z</time>
      </trkpt>
      <trkpt lat="47.24853" lon="-1.4524">
        <ele>50</ele>
        <time>2021-03-27T09:14:26.000Z</time>
      </trkpt>
      <trkpt lat="47.24862" lon="-1.45226">
        <ele>51</ele>
        <time>2021-03-27T09:14:28.000Z</time>
      </trkpt>
      <trkpt lat="47.24871" lon="-1.45213">
        <ele>51</ele>
        <time>2021-03-27T09:14:30.000Z</time>
      </trkpt>
      <trkpt lat="47.2488" lon="-1.452">
        <ele>51</ele>
        <time>2021-03-27T09:14:32.000Z</time>
      </trkpt>
      <trkpt lat="47.2489" lon="-1.45188">
        <ele>51</ele>
        <time>2021-03-27T09:14:34.000Z</time>
      </trkpt>
      <trkpt lat="47.24898" lon="-1.45174">
        <ele>51</ele>
        <time>2021-03-27T09:14:36.000Z</time>
      </trkpt>
      <trkpt lat="47.24907" lon="-1.45161">
        <ele>51</ele>
        <time>2021-03-27T09:14:38.000Z</time>
      </trkpt>
      <trkpt lat="47.24918" lon="-1.45149">
        <ele>51</ele>
        <time>2021-03-27T09:14:40.000Z</time>
      </trkpt>
      <trkpt lat="47.24929" lon="-1.45137">
        <ele>50</ele>
        <time>2021-03-27T09:14:42.000Z</time>
      </trkpt>
      <trkpt lat="47.24942" lon="-1.45124">
        <ele>49</ele>
        <time>2021-03-27T09:14:44.000Z</time>
      </trkpt>
      <trkpt lat="47.24956" lon="-1.45107">
        <ele>49</ele>
        <time>2021-03-27T09:14:47.000Z</time>
      </trkpt>
      <trkpt lat="47.24967" lon="-1.45097">
        <ele>50</ele>
        <time>2021-03-27T09:14:49.000Z</time>
      </trkpt>
      <trkpt lat="47.24979" lon="-1.45086">
        <ele>51</ele>
        <time>2021-03-27T09:14:51.000Z</time>
      </trkpt>
      <trkpt lat="47.24989" lon="-1.45073">
        <ele>52</ele>
        <time>2021-03-27T09:14:53.000Z</time>
      </trkpt>
      <trkpt lat="47.25" lon="-1.4506">
        <ele>52</ele>
        <time>2021-03-27T09:14:55.000Z</time>
      </trkpt>
      <trkpt lat="47.2501" lon="-1.45048">
        <ele>53</ele>
        <time>2021-03-27T09:14:57.000Z</time>
      </trkpt>
      <trkpt lat="47.25022" lon="-1.45037">
        <ele>52</ele>
        <time>2021-03-27T09:14:59.000Z</time>
      </trkpt>
      <trkpt lat="47.25034" lon="-1.45028">
        <ele>53</ele>
        <time>2021-03-27T09:15:01.000Z</time>
      </trkpt>
      <trkpt lat="47.25047" lon="-1.45019">
        <ele>51</ele>
        <time>2021-03-27T09:15:03.000Z</time>
      </trkpt>
      <trkpt lat="47.25058" lon="-1.4501">
        <ele>51</ele>
        <time>2021-03-27T09:15:05.000Z</time>
      </trkpt>
      <trkpt lat="47.2507" lon="-1.45003">
        <ele>51</ele>
        <time>2021-03-27T09:15:07.000Z</time>
      </trkpt>
      <trkpt lat="47.2508" lon="-1.44993">
        <ele>51</ele>
        <time>2021-03-27T09:15:09.000Z</time>
      </trkpt>
      <trkpt lat="47.25094" lon="-1.44978">
        <ele>51</ele>
        <time>2021-03-27T09:15:12.000Z</time>
      </trkpt>
      <trkpt lat="47.25107" lon="-1.44969">
        <ele>52</ele>
        <time>2021-03-27T09:15:14.000Z</time>
      </trkpt>
      <trkpt lat="47.25118" lon="-1.4496">
        <ele>51</ele>
        <time>2021-03-27T09:15:16.000Z</time>
      </trkpt>
      <trkpt lat="47.25129" lon="-1.4495">
        <ele>51</ele>
        <time>2021-03-27T09:15:18.000Z</time>
      </trkpt>
      <trkpt lat="47.2514" lon="-1.44939">
        <ele>51</ele>
        <time>2021-03-27T09:15:20.000Z</time>
      </trkpt>
      <trkpt lat="47.25152" lon="-1.44928">
        <ele>51</ele>
        <time>2021-03-27T09:15:22.000Z</time>
      </trkpt>
      <trkpt lat="47.25163" lon="-1.44919">
        <ele>51</ele>
        <time>2021-03-27T09:15:24.000Z</time>
      </trkpt>
      <trkpt lat="47.25174" lon="-1.44909">
        <ele>52</ele>
        <time>2021-03-27T09:15:26.000Z</time>
      </trkpt>
      <trkpt lat="47.25184" lon="-1.44901">
        <ele>52</ele>
        <time>2021-03-27T09:15:28.000Z</time>
      </trkpt>
      <trkpt lat="47.252" lon="-1.44887">
        <ele>52</ele>
        <time>2021-03-27T09:15:31.000Z</time>
      </trkpt>
      <trkpt lat="47.25209" lon="-1.44879">
        <ele>52</ele>
        <time>2021-03-27T09:15:33.000Z</time>
      </trkpt>
      <trkpt lat="47.25219" lon="-1.4487">
        <ele>53</ele>
        <time>2021-03-27T09:15:35.000Z</time>
      </trkpt>
      <trkpt lat="47.25232" lon="-1.4486">
        <ele>53</ele>
        <time>2021-03-27T09:15:37.000Z</time>
      </trkpt>
      <trkpt lat="47.25244" lon="-1.44849">
        <ele>52</ele>
        <time>2021-03-27T09:15:39.000Z</time>
      </trkpt>
      <trkpt lat="47.25255" lon="-1.44837">
        <ele>52</ele>
        <time>2021-03-27T09:15:41.000Z</time>
      </trkpt>
      <trkpt lat="47.25266" lon="-1.44824">
        <ele>52</ele>
        <time>2021-03-27T09:15:43.000Z</time>
      </trkpt>
      <trkpt lat="47.25276" lon="-1.44812">
        <ele>52</ele>
        <time>2021-03-27T09:15:45.000Z</time>
      </trkpt>
      <trkpt lat="47.25285" lon="-1.448">
        <ele>51</ele>
        <time>2021-03-27T09:15:47.000Z</time>
      </trkpt>
      <trkpt lat="47.25293" lon="-1.4479">
        <ele>49</ele>
        <time>2021-03-27T09:15:49.000Z</time>
      </trkpt>
      <trkpt lat="47.25304" lon="-1.44779">
        <ele>50</ele>
        <time>2021-03-27T09:15:51.000Z</time>
      </trkpt>
      <trkpt lat="47.25315" lon="-1.44767">
        <ele>50</ele>
        <time>2021-03-27T09:15:53.000Z</time>
      </trkpt>
      <trkpt lat="47.25326" lon="-1.44756">
        <ele>51</ele>
        <time>2021-03-27T09:15:55.000Z</time>
      </trkpt>
      <trkpt lat="47.25343" lon="-1.4474">
        <ele>51</ele>
        <time>2021-03-27T09:15:58.000Z</time>
      </trkpt>
      <trkpt lat="47.25354" lon="-1.4473">
        <ele>50</ele>
        <time>2021-03-27T09:16:00.000Z</time>
      </trkpt>
      <trkpt lat="47.25366" lon="-1.44719">
        <ele>51</ele>
        <time>2021-03-27T09:16:02.000Z</time>
      </trkpt>
      <trkpt lat="47.25375" lon="-1.44708">
        <ele>50</ele>
        <time>2021-03-27T09:16:04.000Z</time>
      </trkpt>
      <trkpt lat="47.25385" lon="-1.44696">
        <ele>51</ele>
        <time>2021-03-27T09:16:06.000Z</time>
      </trkpt>
      <trkpt lat="47.25396" lon="-1.44683">
        <ele>51</ele>
        <time>2021-03-27T09:16:08.000Z</time>
      </trkpt>
      <trkpt lat="47.25405" lon="-1.44671">
        <ele>52</ele>
        <time>2021-03-27T09:16:10.000Z</time>
      </trkpt>
      <trkpt lat="47.25414" lon="-1.44658">
        <ele>52</ele>
        <time>2021-03-27T09:16:12.000Z</time>
      </trkpt>
      <trkpt lat="47.25423" lon="-1.44645">
        <ele>52</ele>
        <time>2021-03-27T09:16:14.000Z</time>
      </trkpt>
      <trkpt lat="47.25432" lon="-1.44632">
        <ele>53</ele>
        <time>2021-03-27T09:16:16.000Z</time>
      </trkpt>
      <trkpt lat="47.25442" lon="-1.44617">
        <ele>53</ele>
        <time>2021-03-27T09:16:18.000Z</time>
      </trkpt>
      <trkpt lat="47.25451" lon="-1.44605">
        <ele>53</ele>
        <time>2021-03-27T09:16:20.000Z</time>
      </trkpt>
      <trkpt lat="47.2546" lon="-1.44592">
        <ele>52</ele>
        <time>2021-03-27T09:16:22.000Z</time>
      </trkpt>
      <trkpt lat="47.25469" lon="-1.44579">
        <ele>52</ele>
        <time>2021-03-27T09:16:24.000Z</time>
      </trkpt>
      <trkpt lat="47.25477" lon="-1.44566">
        <ele>51</ele>
        <time>2021-03-27T09:16:26.000Z</time>
      </trkpt>
      <trkpt lat="47.25487" lon="-1.44552">
        <ele>51</ele>
        <time>2021-03-27T09:16:28.000Z</time>
      </trkpt>
      <trkpt lat="47.25496" lon="-1.44541">
        <ele>53</ele>
        <time>2021-03-27T09:16:30.000Z</time>
      </trkpt>
      <trkpt lat="47.25504" lon="-1.44528">
        <ele>53</ele>
        <time>2021-03-27T09:16:32.000Z</time>
      </trkpt>
      <trkpt lat="47.25513" lon="-1.44515">
        <ele>53</ele>
        <time>2021-03-27T09:16:34.000Z</time>
      </trkpt>
      <trkpt lat="47.25522" lon="-1.44502">
        <ele>53</ele>
        <time>2021-03-27T09:16:36.000Z</time>
      </trkpt>
      <trkpt lat="47.2553" lon="-1.44489">
        <ele>53</ele>
        <time>2021-03-27T09:16:38.000Z</time>
      </trkpt>
      <trkpt lat="47.25539" lon="-1.44476">
        <ele>51</ele>
        <time>2021-03-27T09:16:40.000Z</time>
      </trkpt>
      <trkpt lat="47.25548" lon="-1.44462">
        <ele>49</ele>
        <time>2021-03-27T09:16:42.000Z</time>
      </trkpt>
      <trkpt lat="47.25559" lon="-1.44447">
        <ele>49</ele>
        <time>2021-03-27T09:16:44.000Z</time>
      </trkpt>
      <trkpt lat="47.25568" lon="-1.44434">
        <ele>48</ele>
        <time>2021-03-27T09:16:46.000Z</time>
      </trkpt>
      <trkpt lat="47.25578" lon="-1.44424">
        <ele>45</ele>
        <time>2021-03-27T09:16:48.000Z</time>
      </trkpt>
      <trkpt lat="47.25587" lon="-1.44415">
        <ele>46</ele>
        <time>2021-03-27T09:16:50.000Z</time>
      </trkpt>
      <trkpt lat="47.25596" lon="-1.44405">
        <ele>46</ele>
        <time>2021-03-27T09:16:52.000Z</time>
      </trkpt>
      <trkpt lat="47.25607" lon="-1.44392">
        <ele>48</ele>
        <time>2021-03-27T09:16:54.000Z</time>
      </trkpt>
      <trkpt lat="47.25617" lon="-1.44378">
        <ele>49</ele>
        <time>2021-03-27T09:16:56.000Z</time>
      </trkpt>
      <trkpt lat="47.25627" lon="-1.44366">
        <ele>50</ele>
        <time>2021-03-27T09:16:58.000Z</time>
      </trkpt>
      <trkpt lat="47.25636" lon="-1.44357">
        <ele>50</ele>
        <time>2021-03-27T09:17:00.000Z</time>
      </trkpt>
      <trkpt lat="47.25646" lon="-1.44346">
        <ele>50</ele>
        <time>2021-03-27T09:17:02.000Z</time>
      </trkpt>
      <trkpt lat="47.25658" lon="-1.44334">
        <ele>50</ele>
        <time>2021-03-27T09:17:04.000Z</time>
      </trkpt>
      <trkpt lat="47.25667" lon="-1.44323">
        <ele>49</ele>
        <time>2021-03-27T09:17:06.000Z</time>
      </trkpt>
      <trkpt lat="47.25676" lon="-1.4431">
        <ele>51</ele>
        <time>2021-03-27T09:17:08.000Z</time>
      </trkpt>
      <trkpt lat="47.25686" lon="-1.44297">
        <ele>52</ele>
        <time>2021-03-27T09:17:10.000Z</time>
      </trkpt>
      <trkpt lat="47.257" lon="-1.44276">
        <ele>52</ele>
        <time>2021-03-27T09:17:13.000Z</time>
      </trkpt>
      <trkpt lat="47.25712" lon="-1.44265">
        <ele>50</ele>
        <time>2021-03-27T09:17:15.000Z</time>
      </trkpt>
      <trkpt lat="47.25727" lon="-1.4425">
        <ele>51</ele>
        <time>2021-03-27T09:17:18.000Z</time>
      </trkpt>
      <trkpt lat="47.25736" lon="-1.44239">
        <ele>49</ele>
        <time>2021-03-27T09:17:20.000Z</time>
      </trkpt>
      <trkpt lat="47.25746" lon="-1.44228">
        <ele>46</ele>
        <time>2021-03-27T09:17:22.000Z</time>
      </trkpt>
      <trkpt lat="47.25756" lon="-1.44214">
        <ele>47</ele>
        <time>2021-03-27T09:17:24.000Z</time>
      </trkpt>
      <trkpt lat="47.25766" lon="-1.442">
        <ele>49</ele>
        <time>2021-03-27T09:17:26.000Z</time>
      </trkpt>
      <trkpt lat="47.25782" lon="-1.44182">
        <ele>46</ele>
        <time>2021-03-27T09:17:29.000Z</time>
      </trkpt>
      <trkpt lat="47.25797" lon="-1.44162">
        <ele>47</ele>
        <time>2021-03-27T09:17:32.000Z</time>
      </trkpt>
      <trkpt lat="47.25806" lon="-1.44151">
        <ele>50</ele>
        <time>2021-03-27T09:17:34.000Z</time>
      </trkpt>
      <trkpt lat="47.25816" lon="-1.44139">
        <ele>51</ele>
        <time>2021-03-27T09:17:36.000Z</time>
      </trkpt>
      <trkpt lat="47.25825" lon="-1.44128">
        <ele>52</ele>
        <time>2021-03-27T09:17:38.000Z</time>
      </trkpt>
      <trkpt lat="47.25835" lon="-1.44117">
        <ele>53</ele>
        <time>2021-03-27T09:17:40.000Z</time>
      </trkpt>
      <trkpt lat="47.25845" lon="-1.44106">
        <ele>53</ele>
        <time>2021-03-27T09:17:42.000Z</time>
      </trkpt>
      <trkpt lat="47.25855" lon="-1.44095">
        <ele>53</ele>
        <time>2021-03-27T09:17:44.000Z</time>
      </trkpt>
      <trkpt lat="47.25862" lon="-1.44085">
        <ele>53</ele>
        <time>2021-03-27T09:17:46.000Z</time>
      </trkpt>
      <trkpt lat="47.25864" lon="-1.4407">
        <ele>54</ele>
        <time>2021-03-27T09:18:03.000Z</time>
      </trkpt>
      <trkpt lat="47.25871" lon="-1.44053">
        <ele>52</ele>
        <time>2021-03-27T09:18:08.000Z</time>
      </trkpt>
      <trkpt lat="47.25875" lon="-1.44041">
        <ele>52</ele>
        <time>2021-03-27T09:18:12.000Z</time>
      </trkpt>
      <trkpt lat="47.25883" lon="-1.4403">
        <ele>53</ele>
        <time>2021-03-27T09:21:26.000Z</time>
      </trkpt>
      <trkpt lat="47.25891" lon="-1.44022">
        <ele>51</ele>
        <time>2021-03-27T09:21:30.000Z</time>
      </trkpt>
      <trkpt lat="47.25901" lon="-1.44011">
        <ele>52</ele>
        <time>2021-03-27T09:21:35.000Z</time>
      </trkpt>
      <trkpt lat="47.25906" lon="-1.43999">
        <ele>53</ele>
        <time>2021-03-27T09:21:38.000Z</time>
      </trkpt>
      <trkpt lat="47.25917" lon="-1.43989">
        <ele>54</ele>
        <time>2021-03-27T09:21:41.000Z</time>
      </trkpt>
      <trkpt lat="47.25926" lon="-1.43971">
        <ele>53</ele>
        <time>2021-03-27T09:21:45.000Z</time>
      </trkpt>
      <trkpt lat="47.25937" lon="-1.43961">
        <ele>55</ele>
        <time>2021-03-27T09:21:48.000Z</time>
      </trkpt>
      <trkpt lat="47.25945" lon="-1.43954">
        <ele>56</ele>
        <time>2021-03-27T09:21:50.000Z</time>
      </trkpt>
      <trkpt lat="47.25952" lon="-1.43945">
        <ele>57</ele>
        <time>2021-03-27T09:21:52.000Z</time>
      </trkpt>
      <trkpt lat="47.2596" lon="-1.43937">
        <ele>58</ele>
        <time>2021-03-27T09:21:54.000Z</time>
      </trkpt>
      <trkpt lat="47.25971" lon="-1.43924">
        <ele>58</ele>
        <time>2021-03-27T09:21:57.000Z</time>
      </trkpt>
      <trkpt lat="47.25979" lon="-1.43915">
        <ele>58</ele>
        <time>2021-03-27T09:21:59.000Z</time>
      </trkpt>
      <trkpt lat="47.25986" lon="-1.43907">
        <ele>58</ele>
        <time>2021-03-27T09:22:01.000Z</time>
      </trkpt>
      <trkpt lat="47.25994" lon="-1.43898">
        <ele>58</ele>
        <time>2021-03-27T09:22:03.000Z</time>
      </trkpt>
      <trkpt lat="47.26002" lon="-1.4389">
        <ele>57</ele>
        <time>2021-03-27T09:22:05.000Z</time>
      </trkpt>
      <trkpt lat="47.26009" lon="-1.43883">
        <ele>57</ele>
        <time>2021-03-27T09:22:07.000Z</time>
      </trkpt>
      <trkpt lat="47.26018" lon="-1.43868">
        <ele>54</ele>
        <time>2021-03-27T09:22:10.000Z</time>
      </trkpt>
      <trkpt lat="47.26027" lon="-1.43861">
        <ele>55</ele>
        <time>2021-03-27T09:22:12.000Z</time>
      </trkpt>
      <trkpt lat="47.26036" lon="-1.43853">
        <ele>55</ele>
        <time>2021-03-27T09:22:14.000Z</time>
      </trkpt>
      <trkpt lat="47.26042" lon="-1.43842">
        <ele>56</ele>
        <time>2021-03-27T09:22:16.000Z</time>
      </trkpt>
      <trkpt lat="47.26047" lon="-1.43826">
        <ele>56</ele>
        <time>2021-03-27T09:22:18.000Z</time>
      </trkpt>
      <trkpt lat="47.26052" lon="-1.43812">
        <ele>57</ele>
        <time>2021-03-27T09:22:20.000Z</time>
      </trkpt>
      <trkpt lat="47.2606" lon="-1.43802">
        <ele>57</ele>
        <time>2021-03-27T09:22:22.000Z</time>
      </trkpt>
      <trkpt lat="47.26067" lon="-1.43793">
        <ele>56</ele>
        <time>2021-03-27T09:22:24.000Z</time>
      </trkpt>
      <trkpt lat="47.26074" lon="-1.43781">
        <ele>57</ele>
        <time>2021-03-27T09:22:26.000Z</time>
      </trkpt>
      <trkpt lat="47.2608" lon="-1.43771">
        <ele>57</ele>
        <time>2021-03-27T09:22:28.000Z</time>
      </trkpt>
      <trkpt lat="47.2609" lon="-1.43762">
        <ele>57</ele>
        <time>2021-03-27T09:22:30.000Z</time>
      </trkpt>
      <trkpt lat="47.26098" lon="-1.43752">
        <ele>58</ele>
        <time>2021-03-27T09:22:32.000Z</time>
      </trkpt>
      <trkpt lat="47.26111" lon="-1.43737">
        <ele>59</ele>
        <time>2021-03-27T09:22:35.000Z</time>
      </trkpt>
      <trkpt lat="47.26119" lon="-1.43725">
        <ele>59</ele>
        <time>2021-03-27T09:22:37.000Z</time>
      </trkpt>
      <trkpt lat="47.26126" lon="-1.43712">
        <ele>59</ele>
        <time>2021-03-27T09:22:39.000Z</time>
      </trkpt>
      <trkpt lat="47.26134" lon="-1.43702">
        <ele>59</ele>
        <time>2021-03-27T09:22:41.000Z</time>
      </trkpt>
      <trkpt lat="47.26141" lon="-1.4369">
        <ele>59</ele>
        <time>2021-03-27T09:22:43.000Z</time>
      </trkpt>
      <trkpt lat="47.26158" lon="-1.43667">
        <ele>57</ele>
        <time>2021-03-27T09:22:47.000Z</time>
      </trkpt>
      <trkpt lat="47.26165" lon="-1.43655">
        <ele>56</ele>
        <time>2021-03-27T09:22:49.000Z</time>
      </trkpt>
      <trkpt lat="47.26173" lon="-1.43644">
        <ele>56</ele>
        <time>2021-03-27T09:22:51.000Z</time>
      </trkpt>
      <trkpt lat="47.26179" lon="-1.43631">
        <ele>55</ele>
        <time>2021-03-27T09:22:53.000Z</time>
      </trkpt>
      <trkpt lat="47.26186" lon="-1.43618">
        <ele>53</ele>
        <time>2021-03-27T09:22:55.000Z</time>
      </trkpt>
      <trkpt lat="47.26193" lon="-1.43607">
        <ele>55</ele>
        <time>2021-03-27T09:22:57.000Z</time>
      </trkpt>
      <trkpt lat="47.26201" lon="-1.43595">
        <ele>56</ele>
        <time>2021-03-27T09:22:59.000Z</time>
      </trkpt>
      <trkpt lat="47.26209" lon="-1.43583">
        <ele>56</ele>
        <time>2021-03-27T09:23:01.000Z</time>
      </trkpt>
      <trkpt lat="47.26215" lon="-1.43568">
        <ele>57</ele>
        <time>2021-03-27T09:23:03.000Z</time>
      </trkpt>
      <trkpt lat="47.26219" lon="-1.43555">
        <ele>57</ele>
        <time>2021-03-27T09:23:05.000Z</time>
      </trkpt>
      <trkpt lat="47.26221" lon="-1.43537">
        <ele>57</ele>
        <time>2021-03-27T09:23:08.000Z</time>
      </trkpt>
      <trkpt lat="47.26228" lon="-1.43525">
        <ele>58</ele>
        <time>2021-03-27T09:23:10.000Z</time>
      </trkpt>
      <trkpt lat="47.26242" lon="-1.4351">
        <ele>59</ele>
        <time>2021-03-27T09:23:13.000Z</time>
      </trkpt>
      <trkpt lat="47.26253" lon="-1.43501">
        <ele>58</ele>
        <time>2021-03-27T09:23:15.000Z</time>
      </trkpt>
      <trkpt lat="47.26263" lon="-1.43492">
        <ele>58</ele>
        <time>2021-03-27T09:23:17.000Z</time>
      </trkpt>
      <trkpt lat="47.26274" lon="-1.43489">
        <ele>58</ele>
        <time>2021-03-27T09:23:19.000Z</time>
      </trkpt>
      <trkpt lat="47.26284" lon="-1.43488">
        <ele>58</ele>
        <time>2021-03-27T09:23:21.000Z</time>
      </trkpt>
      <trkpt lat="47.26299" lon="-1.43478">
        <ele>59</ele>
        <time>2021-03-27T09:23:24.000Z</time>
      </trkpt>
      <trkpt lat="47.26308" lon="-1.4347">
        <ele>55</ele>
        <time>2021-03-27T09:23:26.000Z</time>
      </trkpt>
      <trkpt lat="47.26318" lon="-1.43458">
        <ele>57</ele>
        <time>2021-03-27T09:23:28.000Z</time>
      </trkpt>
      <trkpt lat="47.26329" lon="-1.43448">
        <ele>56</ele>
        <time>2021-03-27T09:23:30.000Z</time>
      </trkpt>
      <trkpt lat="47.26339" lon="-1.43438">
        <ele>56</ele>
        <time>2021-03-27T09:23:32.000Z</time>
      </trkpt>
      <trkpt lat="47.26348" lon="-1.43427">
        <ele>56</ele>
        <time>2021-03-27T09:23:34.000Z</time>
      </trkpt>
      <trkpt lat="47.26358" lon="-1.4342">
        <ele>54</ele>
        <time>2021-03-27T09:23:36.000Z</time>
      </trkpt>
      <trkpt lat="47.26368" lon="-1.43408">
        <ele>53</ele>
        <time>2021-03-27T09:23:38.000Z</time>
      </trkpt>
      <trkpt lat="47.26378" lon="-1.43395">
        <ele>54</ele>
        <time>2021-03-27T09:23:40.000Z</time>
      </trkpt>
      <trkpt lat="47.26389" lon="-1.43383">
        <ele>54</ele>
        <time>2021-03-27T09:23:42.000Z</time>
      </trkpt>
      <trkpt lat="47.26398" lon="-1.43369">
        <ele>54</ele>
        <time>2021-03-27T09:23:44.000Z</time>
      </trkpt>
      <trkpt lat="47.26408" lon="-1.43358">
        <ele>55</ele>
        <time>2021-03-27T09:23:46.000Z</time>
      </trkpt>
      <trkpt lat="47.26418" lon="-1.43347">
        <ele>55</ele>
        <time>2021-03-27T09:23:48.000Z</time>
      </trkpt>
      <trkpt lat="47.26433" lon="-1.43328">
        <ele>55</ele>
        <time>2021-03-27T09:23:51.000Z</time>
      </trkpt>
      <trkpt lat="47.26443" lon="-1.43315">
        <ele>55</ele>
        <time>2021-03-27T09:23:53.000Z</time>
      </trkpt>
      <trkpt lat="47.26452" lon="-1.43302">
        <ele>56</ele>
        <time>2021-03-27T09:23:55.000Z</time>
      </trkpt>
      <trkpt lat="47.26461" lon="-1.43288">
        <ele>57</ele>
        <time>2021-03-27T09:23:57.000Z</time>
      </trkpt>
      <trkpt lat="47.2647" lon="-1.43275">
        <ele>56</ele>
        <time>2021-03-27T09:23:59.000Z</time>
      </trkpt>
      <trkpt lat="47.26479" lon="-1.43261">
        <ele>57</ele>
        <time>2021-03-27T09:24:01.000Z</time>
      </trkpt>
      <trkpt lat="47.26487" lon="-1.4325">
        <ele>57</ele>
        <time>2021-03-27T09:24:03.000Z</time>
      </trkpt>
      <trkpt lat="47.26497" lon="-1.43236">
        <ele>57</ele>
        <time>2021-03-27T09:24:05.000Z</time>
      </trkpt>
      <trkpt lat="47.26507" lon="-1.43222">
        <ele>55</ele>
        <time>2021-03-27T09:24:07.000Z</time>
      </trkpt>
      <trkpt lat="47.26516" lon="-1.43207">
        <ele>54</ele>
        <time>2021-03-27T09:24:09.000Z</time>
      </trkpt>
      <trkpt lat="47.26525" lon="-1.43192">
        <ele>56</ele>
        <time>2021-03-27T09:24:11.000Z</time>
      </trkpt>
      <trkpt lat="47.26534" lon="-1.43178">
        <ele>56</ele>
        <time>2021-03-27T09:24:13.000Z</time>
      </trkpt>
      <trkpt lat="47.26541" lon="-1.43163">
        <ele>55</ele>
        <time>2021-03-27T09:24:15.000Z</time>
      </trkpt>
      <trkpt lat="47.26552" lon="-1.43148">
        <ele>55</ele>
        <time>2021-03-27T09:24:17.000Z</time>
      </trkpt>
      <trkpt lat="47.26562" lon="-1.43135">
        <ele>56</ele>
        <time>2021-03-27T09:24:19.000Z</time>
      </trkpt>
      <trkpt lat="47.26572" lon="-1.43122">
        <ele>55</ele>
        <time>2021-03-27T09:24:21.000Z</time>
      </trkpt>
      <trkpt lat="47.26581" lon="-1.43109">
        <ele>55</ele>
        <time>2021-03-27T09:24:23.000Z</time>
      </trkpt>
      <trkpt lat="47.2659" lon="-1.43095">
        <ele>55</ele>
        <time>2021-03-27T09:24:25.000Z</time>
      </trkpt>
      <trkpt lat="47.26598" lon="-1.4308">
        <ele>55</ele>
        <time>2021-03-27T09:24:27.000Z</time>
      </trkpt>
      <trkpt lat="47.2661" lon="-1.43057">
        <ele>56</ele>
        <time>2021-03-27T09:24:30.000Z</time>
      </trkpt>
      <trkpt lat="47.26619" lon="-1.43041">
        <ele>54</ele>
        <time>2021-03-27T09:24:32.000Z</time>
      </trkpt>
      <trkpt lat="47.26626" lon="-1.43027">
        <ele>54</ele>
        <time>2021-03-27T09:24:34.000Z</time>
      </trkpt>
      <trkpt lat="47.26634" lon="-1.43011">
        <ele>55</ele>
        <time>2021-03-27T09:24:36.000Z</time>
      </trkpt>
      <trkpt lat="47.26641" lon="-1.42995">
        <ele>55</ele>
        <time>2021-03-27T09:24:38.000Z</time>
      </trkpt>
      <trkpt lat="47.26649" lon="-1.42977">
        <ele>55</ele>
        <time>2021-03-27T09:24:40.000Z</time>
      </trkpt>
      <trkpt lat="47.26658" lon="-1.42954">
        <ele>55</ele>
        <time>2021-03-27T09:24:43.000Z</time>
      </trkpt>
      <trkpt lat="47.26667" lon="-1.4294">
        <ele>55</ele>
        <time>2021-03-27T09:24:45.000Z</time>
      </trkpt>
      <trkpt lat="47.26678" lon="-1.42918">
        <ele>52</ele>
        <time>2021-03-27T09:24:48.000Z</time>
      </trkpt>
      <trkpt lat="47.26684" lon="-1.42903">
        <ele>53</ele>
        <time>2021-03-27T09:24:50.000Z</time>
      </trkpt>
      <trkpt lat="47.26692" lon="-1.42888">
        <ele>55</ele>
        <time>2021-03-27T09:24:52.000Z</time>
      </trkpt>
      <trkpt lat="47.26699" lon="-1.42872">
        <ele>56</ele>
        <time>2021-03-27T09:24:54.000Z</time>
      </trkpt>
      <trkpt lat="47.26708" lon="-1.42857">
        <ele>53</ele>
        <time>2021-03-27T09:24:56.000Z</time>
      </trkpt>
      <trkpt lat="47.26716" lon="-1.42844">
        <ele>55</ele>
        <time>2021-03-27T09:24:58.000Z</time>
      </trkpt>
      <trkpt lat="47.26721" lon="-1.42826">
        <ele>56</ele>
        <time>2021-03-27T09:25:00.000Z</time>
      </trkpt>
      <trkpt lat="47.26726" lon="-1.42811">
        <ele>56</ele>
        <time>2021-03-27T09:25:02.000Z</time>
      </trkpt>
      <trkpt lat="47.26736" lon="-1.42776">
        <ele>55</ele>
        <time>2021-03-27T09:25:06.000Z</time>
      </trkpt>
      <trkpt lat="47.26742" lon="-1.42759">
        <ele>55</ele>
        <time>2021-03-27T09:25:08.000Z</time>
      </trkpt>
      <trkpt lat="47.26751" lon="-1.42744">
        <ele>56</ele>
        <time>2021-03-27T09:25:10.000Z</time>
      </trkpt>
      <trkpt lat="47.26759" lon="-1.42729">
        <ele>56</ele>
        <time>2021-03-27T09:25:12.000Z</time>
      </trkpt>
      <trkpt lat="47.26766" lon="-1.42713">
        <ele>55</ele>
        <time>2021-03-27T09:25:14.000Z</time>
      </trkpt>
      <trkpt lat="47.26773" lon="-1.42697">
        <ele>55</ele>
        <time>2021-03-27T09:25:16.000Z</time>
      </trkpt>
      <trkpt lat="47.26785" lon="-1.42666">
        <ele>55</ele>
        <time>2021-03-27T09:25:20.000Z</time>
      </trkpt>
      <trkpt lat="47.26789" lon="-1.42649">
        <ele>55</ele>
        <time>2021-03-27T09:25:22.000Z</time>
      </trkpt>
      <trkpt lat="47.26797" lon="-1.42632">
        <ele>57</ele>
        <time>2021-03-27T09:25:24.000Z</time>
      </trkpt>
      <trkpt lat="47.26804" lon="-1.42615">
        <ele>58</ele>
        <time>2021-03-27T09:25:26.000Z</time>
      </trkpt>
      <trkpt lat="47.26814" lon="-1.4259">
        <ele>58</ele>
        <time>2021-03-27T09:25:29.000Z</time>
      </trkpt>
      <trkpt lat="47.2682" lon="-1.42573">
        <ele>58</ele>
        <time>2021-03-27T09:25:31.000Z</time>
      </trkpt>
      <trkpt lat="47.26828" lon="-1.42558">
        <ele>58</ele>
        <time>2021-03-27T09:25:33.000Z</time>
      </trkpt>
      <trkpt lat="47.26836" lon="-1.42544">
        <ele>58</ele>
        <time>2021-03-27T09:25:35.000Z</time>
      </trkpt>
      <trkpt lat="47.26845" lon="-1.42525">
        <ele>57</ele>
        <time>2021-03-27T09:25:37.000Z</time>
      </trkpt>
      <trkpt lat="47.26854" lon="-1.4251">
        <ele>57</ele>
        <time>2021-03-27T09:25:39.000Z</time>
      </trkpt>
      <trkpt lat="47.2686" lon="-1.42496">
        <ele>57</ele>
        <time>2021-03-27T09:25:41.000Z</time>
      </trkpt>
      <trkpt lat="47.26868" lon="-1.42481">
        <ele>55</ele>
        <time>2021-03-27T09:25:43.000Z</time>
      </trkpt>
      <trkpt lat="47.26876" lon="-1.4247">
        <ele>54</ele>
        <time>2021-03-27T09:25:45.000Z</time>
      </trkpt>
      <trkpt lat="47.26883" lon="-1.42455">
        <ele>55</ele>
        <time>2021-03-27T09:25:47.000Z</time>
      </trkpt>
      <trkpt lat="47.26891" lon="-1.4244">
        <ele>56</ele>
        <time>2021-03-27T09:25:49.000Z</time>
      </trkpt>
      <trkpt lat="47.269" lon="-1.42425">
        <ele>55</ele>
        <time>2021-03-27T09:25:51.000Z</time>
      </trkpt>
      <trkpt lat="47.26909" lon="-1.42412">
        <ele>53</ele>
        <time>2021-03-27T09:25:53.000Z</time>
      </trkpt>
      <trkpt lat="47.26917" lon="-1.42396">
        <ele>56</ele>
        <time>2021-03-27T09:25:55.000Z</time>
      </trkpt>
      <trkpt lat="47.26924" lon="-1.4238">
        <ele>56</ele>
        <time>2021-03-27T09:25:57.000Z</time>
      </trkpt>
      <trkpt lat="47.26931" lon="-1.42364">
        <ele>56</ele>
        <time>2021-03-27T09:25:59.000Z</time>
      </trkpt>
      <trkpt lat="47.26939" lon="-1.42349">
        <ele>56</ele>
        <time>2021-03-27T09:26:01.000Z</time>
      </trkpt>
      <trkpt lat="47.26946" lon="-1.42334">
        <ele>56</ele>
        <time>2021-03-27T09:26:03.000Z</time>
      </trkpt>
      <trkpt lat="47.26954" lon="-1.42317">
        <ele>56</ele>
        <time>2021-03-27T09:26:05.000Z</time>
      </trkpt>
      <trkpt lat="47.26963" lon="-1.42303">
        <ele>56</ele>
        <time>2021-03-27T09:26:07.000Z</time>
      </trkpt>
      <trkpt lat="47.26968" lon="-1.42288">
        <ele>57</ele>
        <time>2021-03-27T09:26:09.000Z</time>
      </trkpt>
      <trkpt lat="47.26977" lon="-1.42272">
        <ele>57</ele>
        <time>2021-03-27T09:26:11.000Z</time>
      </trkpt>
      <trkpt lat="47.26986" lon="-1.42256">
        <ele>58</ele>
        <time>2021-03-27T09:26:13.000Z</time>
      </trkpt>
      <trkpt lat="47.26995" lon="-1.4224">
        <ele>59</ele>
        <time>2021-03-27T09:26:15.000Z</time>
      </trkpt>
      <trkpt lat="47.27005" lon="-1.42222">
        <ele>59</ele>
        <time>2021-03-27T09:26:17.000Z</time>
      </trkpt>
      <trkpt lat="47.27014" lon="-1.42205">
        <ele>59</ele>
        <time>2021-03-27T09:26:19.000Z</time>
      </trkpt>
      <trkpt lat="47.27023" lon="-1.4219">
        <ele>59</ele>
        <time>2021-03-27T09:26:21.000Z</time>
      </trkpt>
      <trkpt lat="47.27031" lon="-1.42174">
        <ele>56</ele>
        <time>2021-03-27T09:26:23.000Z</time>
      </trkpt>
      <trkpt lat="47.2704" lon="-1.42159">
        <ele>57</ele>
        <time>2021-03-27T09:26:25.000Z</time>
      </trkpt>
      <trkpt lat="47.27049" lon="-1.42142">
        <ele>57</ele>
        <time>2021-03-27T09:26:27.000Z</time>
      </trkpt>
      <trkpt lat="47.27062" lon="-1.42118">
        <ele>57</ele>
        <time>2021-03-27T09:26:30.000Z</time>
      </trkpt>
      <trkpt lat="47.27071" lon="-1.42102">
        <ele>57</ele>
        <time>2021-03-27T09:26:32.000Z</time>
      </trkpt>
      <trkpt lat="47.2708" lon="-1.42087">
        <ele>58</ele>
        <time>2021-03-27T09:26:34.000Z</time>
      </trkpt>
      <trkpt lat="47.2709" lon="-1.42071">
        <ele>57</ele>
        <time>2021-03-27T09:26:36.000Z</time>
      </trkpt>
      <trkpt lat="47.271" lon="-1.42056">
        <ele>57</ele>
        <time>2021-03-27T09:26:38.000Z</time>
      </trkpt>
      <trkpt lat="47.27111" lon="-1.42043">
        <ele>55</ele>
        <time>2021-03-27T09:26:40.000Z</time>
      </trkpt>
      <trkpt lat="47.2712" lon="-1.42026">
        <ele>55</ele>
        <time>2021-03-27T09:26:42.000Z</time>
      </trkpt>
      <trkpt lat="47.2713" lon="-1.42011">
        <ele>56</ele>
        <time>2021-03-27T09:26:44.000Z</time>
      </trkpt>
      <trkpt lat="47.2714" lon="-1.41994">
        <ele>57</ele>
        <time>2021-03-27T09:26:46.000Z</time>
      </trkpt>
      <trkpt lat="47.27151" lon="-1.41968">
        <ele>57</ele>
        <time>2021-03-27T09:26:49.000Z</time>
      </trkpt>
      <trkpt lat="47.2716" lon="-1.41952">
        <ele>58</ele>
        <time>2021-03-27T09:26:51.000Z</time>
      </trkpt>
      <trkpt lat="47.27169" lon="-1.41937">
        <ele>58</ele>
        <time>2021-03-27T09:26:53.000Z</time>
      </trkpt>
      <trkpt lat="47.27179" lon="-1.41921">
        <ele>58</ele>
        <time>2021-03-27T09:26:55.000Z</time>
      </trkpt>
      <trkpt lat="47.27188" lon="-1.41906">
        <ele>58</ele>
        <time>2021-03-27T09:26:57.000Z</time>
      </trkpt>
      <trkpt lat="47.27197" lon="-1.41891">
        <ele>58</ele>
        <time>2021-03-27T09:26:59.000Z</time>
      </trkpt>
      <trkpt lat="47.27206" lon="-1.41876">
        <ele>58</ele>
        <time>2021-03-27T09:27:01.000Z</time>
      </trkpt>
      <trkpt lat="47.27214" lon="-1.41861">
        <ele>59</ele>
        <time>2021-03-27T09:27:03.000Z</time>
      </trkpt>
      <trkpt lat="47.27223" lon="-1.41845">
        <ele>59</ele>
        <time>2021-03-27T09:27:05.000Z</time>
      </trkpt>
      <trkpt lat="47.27236" lon="-1.41822">
        <ele>60</ele>
        <time>2021-03-27T09:27:08.000Z</time>
      </trkpt>
      <trkpt lat="47.27244" lon="-1.41806">
        <ele>60</ele>
        <time>2021-03-27T09:27:10.000Z</time>
      </trkpt>
      <trkpt lat="47.27253" lon="-1.41789">
        <ele>60</ele>
        <time>2021-03-27T09:27:12.000Z</time>
      </trkpt>
      <trkpt lat="47.27261" lon="-1.41773">
        <ele>60</ele>
        <time>2021-03-27T09:27:14.000Z</time>
      </trkpt>
      <trkpt lat="47.2727" lon="-1.41758">
        <ele>59</ele>
        <time>2021-03-27T09:27:16.000Z</time>
      </trkpt>
      <trkpt lat="47.2728" lon="-1.41741">
        <ele>59</ele>
        <time>2021-03-27T09:27:18.000Z</time>
      </trkpt>
      <trkpt lat="47.27291" lon="-1.41726">
        <ele>59</ele>
        <time>2021-03-27T09:27:20.000Z</time>
      </trkpt>
      <trkpt lat="47.27297" lon="-1.4171">
        <ele>59</ele>
        <time>2021-03-27T09:27:22.000Z</time>
      </trkpt>
      <trkpt lat="47.27308" lon="-1.41685">
        <ele>59</ele>
        <time>2021-03-27T09:27:25.000Z</time>
      </trkpt>
      <trkpt lat="47.27314" lon="-1.41671">
        <ele>57</ele>
        <time>2021-03-27T09:27:27.000Z</time>
      </trkpt>
      <trkpt lat="47.27328" lon="-1.4165">
        <ele>57</ele>
        <time>2021-03-27T09:27:30.000Z</time>
      </trkpt>
      <trkpt lat="47.27338" lon="-1.41634">
        <ele>57</ele>
        <time>2021-03-27T09:27:32.000Z</time>
      </trkpt>
      <trkpt lat="47.27348" lon="-1.41619">
        <ele>58</ele>
        <time>2021-03-27T09:27:34.000Z</time>
      </trkpt>
      <trkpt lat="47.27358" lon="-1.41604">
        <ele>55</ele>
        <time>2021-03-27T09:27:36.000Z</time>
      </trkpt>
      <trkpt lat="47.27366" lon="-1.41589">
        <ele>55</ele>
        <time>2021-03-27T09:27:38.000Z</time>
      </trkpt>
      <trkpt lat="47.27376" lon="-1.41573">
        <ele>57</ele>
        <time>2021-03-27T09:27:40.000Z</time>
      </trkpt>
      <trkpt lat="47.27386" lon="-1.4156">
        <ele>57</ele>
        <time>2021-03-27T09:27:42.000Z</time>
      </trkpt>
      <trkpt lat="47.27396" lon="-1.41545">
        <ele>57</ele>
        <time>2021-03-27T09:27:44.000Z</time>
      </trkpt>
      <trkpt lat="47.27405" lon="-1.4153">
        <ele>57</ele>
        <time>2021-03-27T09:27:46.000Z</time>
      </trkpt>
      <trkpt lat="47.27414" lon="-1.41515">
        <ele>58</ele>
        <time>2021-03-27T09:27:48.000Z</time>
      </trkpt>
      <trkpt lat="47.27423" lon="-1.415">
        <ele>57</ele>
        <time>2021-03-27T09:27:50.000Z</time>
      </trkpt>
      <trkpt lat="47.27433" lon="-1.41482">
        <ele>58</ele>
        <time>2021-03-27T09:27:52.000Z</time>
      </trkpt>
      <trkpt lat="47.27441" lon="-1.41469">
        <ele>57</ele>
        <time>2021-03-27T09:27:54.000Z</time>
      </trkpt>
      <trkpt lat="47.2745" lon="-1.41454">
        <ele>57</ele>
        <time>2021-03-27T09:27:56.000Z</time>
      </trkpt>
      <trkpt lat="47.27459" lon="-1.41439">
        <ele>57</ele>
        <time>2021-03-27T09:27:58.000Z</time>
      </trkpt>
      <trkpt lat="47.27468" lon="-1.41424">
        <ele>58</ele>
        <time>2021-03-27T09:28:00.000Z</time>
      </trkpt>
      <trkpt lat="47.27476" lon="-1.41409">
        <ele>58</ele>
        <time>2021-03-27T09:28:02.000Z</time>
      </trkpt>
      <trkpt lat="47.27485" lon="-1.41392">
        <ele>58</ele>
        <time>2021-03-27T09:28:04.000Z</time>
      </trkpt>
      <trkpt lat="47.27494" lon="-1.41377">
        <ele>58</ele>
        <time>2021-03-27T09:28:06.000Z</time>
      </trkpt>
      <trkpt lat="47.27503" lon="-1.41359">
        <ele>58</ele>
        <time>2021-03-27T09:28:08.000Z</time>
      </trkpt>
      <trkpt lat="47.27513" lon="-1.41348">
        <ele>59</ele>
        <time>2021-03-27T09:28:10.000Z</time>
      </trkpt>
      <trkpt lat="47.27528" lon="-1.41329">
        <ele>58</ele>
        <time>2021-03-27T09:28:13.000Z</time>
      </trkpt>
      <trkpt lat="47.27537" lon="-1.41314">
        <ele>58</ele>
        <time>2021-03-27T09:28:15.000Z</time>
      </trkpt>
      <trkpt lat="47.27547" lon="-1.41302">
        <ele>58</ele>
        <time>2021-03-27T09:28:17.000Z</time>
      </trkpt>
      <trkpt lat="47.27557" lon="-1.41289">
        <ele>56</ele>
        <time>2021-03-27T09:28:19.000Z</time>
      </trkpt>
      <trkpt lat="47.27568" lon="-1.41276">
        <ele>57</ele>
        <time>2021-03-27T09:28:21.000Z</time>
      </trkpt>
      <trkpt lat="47.27578" lon="-1.41265">
        <ele>56</ele>
        <time>2021-03-27T09:28:23.000Z</time>
      </trkpt>
      <trkpt lat="47.27589" lon="-1.41251">
        <ele>57</ele>
        <time>2021-03-27T09:28:25.000Z</time>
      </trkpt>
      <trkpt lat="47.27599" lon="-1.4124">
        <ele>57</ele>
        <time>2021-03-27T09:28:27.000Z</time>
      </trkpt>
      <trkpt lat="47.2761" lon="-1.41229">
        <ele>57</ele>
        <time>2021-03-27T09:28:29.000Z</time>
      </trkpt>
      <trkpt lat="47.27621" lon="-1.41218">
        <ele>56</ele>
        <time>2021-03-27T09:28:31.000Z</time>
      </trkpt>
      <trkpt lat="47.27632" lon="-1.41208">
        <ele>56</ele>
        <time>2021-03-27T09:28:33.000Z</time>
      </trkpt>
      <trkpt lat="47.27643" lon="-1.41196">
        <ele>57</ele>
        <time>2021-03-27T09:28:35.000Z</time>
      </trkpt>
      <trkpt lat="47.27653" lon="-1.41186">
        <ele>57</ele>
        <time>2021-03-27T09:28:37.000Z</time>
      </trkpt>
      <trkpt lat="47.27663" lon="-1.41174">
        <ele>57</ele>
        <time>2021-03-27T09:28:39.000Z</time>
      </trkpt>
      <trkpt lat="47.27674" lon="-1.41162">
        <ele>57</ele>
        <time>2021-03-27T09:28:41.000Z</time>
      </trkpt>
      <trkpt lat="47.27684" lon="-1.41151">
        <ele>58</ele>
        <time>2021-03-27T09:28:43.000Z</time>
      </trkpt>
      <trkpt lat="47.27694" lon="-1.41139">
        <ele>57</ele>
        <time>2021-03-27T09:28:45.000Z</time>
      </trkpt>
      <trkpt lat="47.27704" lon="-1.41128">
        <ele>57</ele>
        <time>2021-03-27T09:28:47.000Z</time>
      </trkpt>
      <trkpt lat="47.27715" lon="-1.41118">
        <ele>57</ele>
        <time>2021-03-27T09:28:49.000Z</time>
      </trkpt>
      <trkpt lat="47.27725" lon="-1.41107">
        <ele>57</ele>
        <time>2021-03-27T09:28:51.000Z</time>
      </trkpt>
      <trkpt lat="47.27737" lon="-1.41096">
        <ele>57</ele>
        <time>2021-03-27T09:28:53.000Z</time>
      </trkpt>
      <trkpt lat="47.27747" lon="-1.41086">
        <ele>57</ele>
        <time>2021-03-27T09:28:55.000Z</time>
      </trkpt>
      <trkpt lat="47.27758" lon="-1.41075">
        <ele>57</ele>
        <time>2021-03-27T09:28:57.000Z</time>
      </trkpt>
      <trkpt lat="47.27767" lon="-1.41062">
        <ele>57</ele>
        <time>2021-03-27T09:28:59.000Z</time>
      </trkpt>
      <trkpt lat="47.27772" lon="-1.41046">
        <ele>57</ele>
        <time>2021-03-27T09:29:01.000Z</time>
      </trkpt>
      <trkpt lat="47.27777" lon="-1.41029">
        <ele>57</ele>
        <time>2021-03-27T09:29:03.000Z</time>
      </trkpt>
      <trkpt lat="47.27785" lon="-1.41014">
        <ele>57</ele>
        <time>2021-03-27T09:29:05.000Z</time>
      </trkpt>
      <trkpt lat="47.278" lon="-1.40997">
        <ele>58</ele>
        <time>2021-03-27T09:29:08.000Z</time>
      </trkpt>
      <trkpt lat="47.2781" lon="-1.40983">
        <ele>58</ele>
        <time>2021-03-27T09:29:10.000Z</time>
      </trkpt>
      <trkpt lat="47.27818" lon="-1.40968">
        <ele>58</ele>
        <time>2021-03-27T09:29:12.000Z</time>
      </trkpt>
      <trkpt lat="47.27826" lon="-1.40953">
        <ele>58</ele>
        <time>2021-03-27T09:29:14.000Z</time>
      </trkpt>
      <trkpt lat="47.27834" lon="-1.40938">
        <ele>58</ele>
        <time>2021-03-27T09:29:16.000Z</time>
      </trkpt>
      <trkpt lat="47.27842" lon="-1.40923">
        <ele>58</ele>
        <time>2021-03-27T09:29:18.000Z</time>
      </trkpt>
      <trkpt lat="47.27849" lon="-1.40907">
        <ele>59</ele>
        <time>2021-03-27T09:29:20.000Z</time>
      </trkpt>
      <trkpt lat="47.27857" lon="-1.40891">
        <ele>58</ele>
        <time>2021-03-27T09:29:22.000Z</time>
      </trkpt>
      <trkpt lat="47.27863" lon="-1.40875">
        <ele>59</ele>
        <time>2021-03-27T09:29:24.000Z</time>
      </trkpt>
      <trkpt lat="47.27874" lon="-1.4085">
        <ele>58</ele>
        <time>2021-03-27T09:29:27.000Z</time>
      </trkpt>
      <trkpt lat="47.27882" lon="-1.40834">
        <ele>58</ele>
        <time>2021-03-27T09:29:29.000Z</time>
      </trkpt>
      <trkpt lat="47.27892" lon="-1.40821">
        <ele>58</ele>
        <time>2021-03-27T09:29:31.000Z</time>
      </trkpt>
      <trkpt lat="47.27903" lon="-1.4081">
        <ele>57</ele>
        <time>2021-03-27T09:29:33.000Z</time>
      </trkpt>
      <trkpt lat="47.27914" lon="-1.408">
        <ele>57</ele>
        <time>2021-03-27T09:29:35.000Z</time>
      </trkpt>
      <trkpt lat="47.27925" lon="-1.4079">
        <ele>56</ele>
        <time>2021-03-27T09:29:37.000Z</time>
      </trkpt>
      <trkpt lat="47.27937" lon="-1.40779">
        <ele>56</ele>
        <time>2021-03-27T09:29:39.000Z</time>
      </trkpt>
      <trkpt lat="47.27947" lon="-1.4077">
        <ele>56</ele>
        <time>2021-03-27T09:29:41.000Z</time>
      </trkpt>
      <trkpt lat="47.27958" lon="-1.4076">
        <ele>56</ele>
        <time>2021-03-27T09:29:43.000Z</time>
      </trkpt>
      <trkpt lat="47.27969" lon="-1.4075">
        <ele>56</ele>
        <time>2021-03-27T09:29:45.000Z</time>
      </trkpt>
      <trkpt lat="47.2798" lon="-1.40739">
        <ele>57</ele>
        <time>2021-03-27T09:29:47.000Z</time>
      </trkpt>
      <trkpt lat="47.27992" lon="-1.40727">
        <ele>55</ele>
        <time>2021-03-27T09:29:49.000Z</time>
      </trkpt>
      <trkpt lat="47.28005" lon="-1.40716">
        <ele>51</ele>
        <time>2021-03-27T09:29:51.000Z</time>
      </trkpt>
      <trkpt lat="47.28015" lon="-1.40705">
        <ele>52</ele>
        <time>2021-03-27T09:29:53.000Z</time>
      </trkpt>
      <trkpt lat="47.2803" lon="-1.4069">
        <ele>53</ele>
        <time>2021-03-27T09:29:56.000Z</time>
      </trkpt>
      <trkpt lat="47.2804" lon="-1.40679">
        <ele>54</ele>
        <time>2021-03-27T09:29:58.000Z</time>
      </trkpt>
      <trkpt lat="47.2805" lon="-1.40668">
        <ele>54</ele>
        <time>2021-03-27T09:30:00.000Z</time>
      </trkpt>
      <trkpt lat="47.2806" lon="-1.40659">
        <ele>55</ele>
        <time>2021-03-27T09:30:02.000Z</time>
      </trkpt>
      <trkpt lat="47.2807" lon="-1.40649">
        <ele>56</ele>
        <time>2021-03-27T09:30:04.000Z</time>
      </trkpt>
      <trkpt lat="47.28081" lon="-1.40639">
        <ele>56</ele>
        <time>2021-03-27T09:30:06.000Z</time>
      </trkpt>
      <trkpt lat="47.28089" lon="-1.40631">
        <ele>56</ele>
        <time>2021-03-27T09:30:08.000Z</time>
      </trkpt>
      <trkpt lat="47.281" lon="-1.4062">
        <ele>57</ele>
        <time>2021-03-27T09:30:10.000Z</time>
      </trkpt>
      <trkpt lat="47.28111" lon="-1.4061">
        <ele>57</ele>
        <time>2021-03-27T09:30:12.000Z</time>
      </trkpt>
      <trkpt lat="47.28127" lon="-1.40593">
        <ele>57</ele>
        <time>2021-03-27T09:30:15.000Z</time>
      </trkpt>
      <trkpt lat="47.28139" lon="-1.40583">
        <ele>58</ele>
        <time>2021-03-27T09:30:17.000Z</time>
      </trkpt>
      <trkpt lat="47.28149" lon="-1.40573">
        <ele>58</ele>
        <time>2021-03-27T09:30:19.000Z</time>
      </trkpt>
      <trkpt lat="47.28159" lon="-1.40562">
        <ele>58</ele>
        <time>2021-03-27T09:30:21.000Z</time>
      </trkpt>
      <trkpt lat="47.28168" lon="-1.4055">
        <ele>58</ele>
        <time>2021-03-27T09:30:23.000Z</time>
      </trkpt>
      <trkpt lat="47.28179" lon="-1.4054">
        <ele>59</ele>
        <time>2021-03-27T09:30:25.000Z</time>
      </trkpt>
      <trkpt lat="47.28191" lon="-1.4053">
        <ele>59</ele>
        <time>2021-03-27T09:30:27.000Z</time>
      </trkpt>
      <trkpt lat="47.28203" lon="-1.4052">
        <ele>59</ele>
        <time>2021-03-27T09:30:29.000Z</time>
      </trkpt>
      <trkpt lat="47.28219" lon="-1.40504">
        <ele>59</ele>
        <time>2021-03-27T09:30:32.000Z</time>
      </trkpt>
      <trkpt lat="47.2823" lon="-1.40494">
        <ele>58</ele>
        <time>2021-03-27T09:30:34.000Z</time>
      </trkpt>
      <trkpt lat="47.28241" lon="-1.40484">
        <ele>57</ele>
        <time>2021-03-27T09:30:36.000Z</time>
      </trkpt>
      <trkpt lat="47.28251" lon="-1.40474">
        <ele>57</ele>
        <time>2021-03-27T09:30:38.000Z</time>
      </trkpt>
      <trkpt lat="47.28262" lon="-1.40465">
        <ele>57</ele>
        <time>2021-03-27T09:30:40.000Z</time>
      </trkpt>
      <trkpt lat="47.28273" lon="-1.40452">
        <ele>56</ele>
        <time>2021-03-27T09:30:42.000Z</time>
      </trkpt>
      <trkpt lat="47.28285" lon="-1.4044">
        <ele>56</ele>
        <time>2021-03-27T09:30:44.000Z</time>
      </trkpt>
      <trkpt lat="47.28296" lon="-1.4043">
        <ele>56</ele>
        <time>2021-03-27T09:30:46.000Z</time>
      </trkpt>
      <trkpt lat="47.28306" lon="-1.40418">
        <ele>56</ele>
        <time>2021-03-27T09:30:48.000Z</time>
      </trkpt>
      <trkpt lat="47.28316" lon="-1.40407">
        <ele>56</ele>
        <time>2021-03-27T09:30:50.000Z</time>
      </trkpt>
      <trkpt lat="47.28326" lon="-1.40396">
        <ele>56</ele>
        <time>2021-03-27T09:30:52.000Z</time>
      </trkpt>
      <trkpt lat="47.28336" lon="-1.40383">
        <ele>57</ele>
        <time>2021-03-27T09:30:54.000Z</time>
      </trkpt>
      <trkpt lat="47.28345" lon="-1.40371">
        <ele>57</ele>
        <time>2021-03-27T09:30:56.000Z</time>
      </trkpt>
      <trkpt lat="47.28355" lon="-1.40357">
        <ele>57</ele>
        <time>2021-03-27T09:30:58.000Z</time>
      </trkpt>
      <trkpt lat="47.28364" lon="-1.40344">
        <ele>57</ele>
        <time>2021-03-27T09:31:00.000Z</time>
      </trkpt>
      <trkpt lat="47.28374" lon="-1.4033">
        <ele>57</ele>
        <time>2021-03-27T09:31:02.000Z</time>
      </trkpt>
      <trkpt lat="47.28383" lon="-1.40315">
        <ele>57</ele>
        <time>2021-03-27T09:31:04.000Z</time>
      </trkpt>
      <trkpt lat="47.28391" lon="-1.403">
        <ele>58</ele>
        <time>2021-03-27T09:31:06.000Z</time>
      </trkpt>
      <trkpt lat="47.28399" lon="-1.40284">
        <ele>58</ele>
        <time>2021-03-27T09:31:08.000Z</time>
      </trkpt>
      <trkpt lat="47.28407" lon="-1.40267">
        <ele>58</ele>
        <time>2021-03-27T09:31:10.000Z</time>
      </trkpt>
      <trkpt lat="47.28414" lon="-1.4025">
        <ele>58</ele>
        <time>2021-03-27T09:31:12.000Z</time>
      </trkpt>
      <trkpt lat="47.28428" lon="-1.40218">
        <ele>58</ele>
        <time>2021-03-27T09:31:16.000Z</time>
      </trkpt>
      <trkpt lat="47.28435" lon="-1.40201">
        <ele>58</ele>
        <time>2021-03-27T09:31:18.000Z</time>
      </trkpt>
      <trkpt lat="47.28442" lon="-1.40184">
        <ele>58</ele>
        <time>2021-03-27T09:31:20.000Z</time>
      </trkpt>
      <trkpt lat="47.28452" lon="-1.40158">
        <ele>59</ele>
        <time>2021-03-27T09:31:23.000Z</time>
      </trkpt>
      <trkpt lat="47.28459" lon="-1.40141">
        <ele>59</ele>
        <time>2021-03-27T09:31:25.000Z</time>
      </trkpt>
      <trkpt lat="47.28467" lon="-1.40123">
        <ele>59</ele>
        <time>2021-03-27T09:31:27.000Z</time>
      </trkpt>
      <trkpt lat="47.28473" lon="-1.40106">
        <ele>59</ele>
        <time>2021-03-27T09:31:29.000Z</time>
      </trkpt>
      <trkpt lat="47.2848" lon="-1.40089">
        <ele>59</ele>
        <time>2021-03-27T09:31:31.000Z</time>
      </trkpt>
      <trkpt lat="47.2849" lon="-1.40066">
        <ele>59</ele>
        <time>2021-03-27T09:31:34.000Z</time>
      </trkpt>
      <trkpt lat="47.28497" lon="-1.4005">
        <ele>59</ele>
        <time>2021-03-27T09:31:36.000Z</time>
      </trkpt>
      <trkpt lat="47.28505" lon="-1.40035">
        <ele>59</ele>
        <time>2021-03-27T09:31:38.000Z</time>
      </trkpt>
      <trkpt lat="47.28518" lon="-1.40013">
        <ele>59</ele>
        <time>2021-03-27T09:31:41.000Z</time>
      </trkpt>
      <trkpt lat="47.28527" lon="-1.4">
        <ele>59</ele>
        <time>2021-03-27T09:31:43.000Z</time>
      </trkpt>
      <trkpt lat="47.28536" lon="-1.39987">
        <ele>59</ele>
        <time>2021-03-27T09:31:45.000Z</time>
      </trkpt>
      <trkpt lat="47.2855" lon="-1.39967">
        <ele>59</ele>
        <time>2021-03-27T09:31:48.000Z</time>
      </trkpt>
      <trkpt lat="47.28559" lon="-1.39953">
        <ele>59</ele>
        <time>2021-03-27T09:31:50.000Z</time>
      </trkpt>
      <trkpt lat="47.28568" lon="-1.39941">
        <ele>59</ele>
        <time>2021-03-27T09:31:52.000Z</time>
      </trkpt>
      <trkpt lat="47.2858" lon="-1.39919">
        <ele>59</ele>
        <time>2021-03-27T09:31:55.000Z</time>
      </trkpt>
      <trkpt lat="47.28589" lon="-1.39906">
        <ele>60</ele>
        <time>2021-03-27T09:31:57.000Z</time>
      </trkpt>
      <trkpt lat="47.28598" lon="-1.39892">
        <ele>60</ele>
        <time>2021-03-27T09:31:59.000Z</time>
      </trkpt>
      <trkpt lat="47.28607" lon="-1.39878">
        <ele>58</ele>
        <time>2021-03-27T09:32:01.000Z</time>
      </trkpt>
      <trkpt lat="47.28616" lon="-1.39866">
        <ele>55</ele>
        <time>2021-03-27T09:32:03.000Z</time>
      </trkpt>
      <trkpt lat="47.28624" lon="-1.39852">
        <ele>54</ele>
        <time>2021-03-27T09:32:05.000Z</time>
      </trkpt>
      <trkpt lat="47.28636" lon="-1.39837">
        <ele>56</ele>
        <time>2021-03-27T09:32:07.000Z</time>
      </trkpt>
      <trkpt lat="47.2865" lon="-1.39815">
        <ele>57</ele>
        <time>2021-03-27T09:32:10.000Z</time>
      </trkpt>
      <trkpt lat="47.28661" lon="-1.39804">
        <ele>57</ele>
        <time>2021-03-27T09:32:12.000Z</time>
      </trkpt>
      <trkpt lat="47.2867" lon="-1.39789">
        <ele>57</ele>
        <time>2021-03-27T09:32:14.000Z</time>
      </trkpt>
      <trkpt lat="47.28683" lon="-1.39768">
        <ele>58</ele>
        <time>2021-03-27T09:32:17.000Z</time>
      </trkpt>
      <trkpt lat="47.28691" lon="-1.39754">
        <ele>60</ele>
        <time>2021-03-27T09:32:19.000Z</time>
      </trkpt>
      <trkpt lat="47.28702" lon="-1.39743">
        <ele>61</ele>
        <time>2021-03-27T09:32:21.000Z</time>
      </trkpt>
      <trkpt lat="47.28712" lon="-1.39732">
        <ele>61</ele>
        <time>2021-03-27T09:32:23.000Z</time>
      </trkpt>
      <trkpt lat="47.28722" lon="-1.39719">
        <ele>62</ele>
        <time>2021-03-27T09:32:25.000Z</time>
      </trkpt>
      <trkpt lat="47.28738" lon="-1.397">
        <ele>61</ele>
        <time>2021-03-27T09:32:28.000Z</time>
      </trkpt>
      <trkpt lat="47.28749" lon="-1.39689">
        <ele>61</ele>
        <time>2021-03-27T09:32:30.000Z</time>
      </trkpt>
      <trkpt lat="47.28759" lon="-1.39677">
        <ele>61</ele>
        <time>2021-03-27T09:32:32.000Z</time>
      </trkpt>
      <trkpt lat="47.28769" lon="-1.39664">
        <ele>59</ele>
        <time>2021-03-27T09:32:34.000Z</time>
      </trkpt>
      <trkpt lat="47.28779" lon="-1.39651">
        <ele>59</ele>
        <time>2021-03-27T09:32:36.000Z</time>
      </trkpt>
      <trkpt lat="47.28789" lon="-1.39641">
        <ele>59</ele>
        <time>2021-03-27T09:32:38.000Z</time>
      </trkpt>
      <trkpt lat="47.28797" lon="-1.3963">
        <ele>58</ele>
        <time>2021-03-27T09:32:40.000Z</time>
      </trkpt>
      <trkpt lat="47.28807" lon="-1.39619">
        <ele>56</ele>
        <time>2021-03-27T09:32:42.000Z</time>
      </trkpt>
      <trkpt lat="47.28817" lon="-1.39607">
        <ele>56</ele>
        <time>2021-03-27T09:32:44.000Z</time>
      </trkpt>
      <trkpt lat="47.28828" lon="-1.39595">
        <ele>56</ele>
        <time>2021-03-27T09:32:46.000Z</time>
      </trkpt>
      <trkpt lat="47.28838" lon="-1.39583">
        <ele>57</ele>
        <time>2021-03-27T09:32:48.000Z</time>
      </trkpt>
      <trkpt lat="47.28848" lon="-1.39571">
        <ele>58</ele>
        <time>2021-03-27T09:32:50.000Z</time>
      </trkpt>
      <trkpt lat="47.28858" lon="-1.3956">
        <ele>58</ele>
        <time>2021-03-27T09:32:52.000Z</time>
      </trkpt>
      <trkpt lat="47.28867" lon="-1.39548">
        <ele>59</ele>
        <time>2021-03-27T09:32:54.000Z</time>
      </trkpt>
      <trkpt lat="47.28876" lon="-1.39536">
        <ele>59</ele>
        <time>2021-03-27T09:32:56.000Z</time>
      </trkpt>
      <trkpt lat="47.28886" lon="-1.39523">
        <ele>59</ele>
        <time>2021-03-27T09:32:58.000Z</time>
      </trkpt>
      <trkpt lat="47.28896" lon="-1.39513">
        <ele>58</ele>
        <time>2021-03-27T09:33:00.000Z</time>
      </trkpt>
      <trkpt lat="47.28906" lon="-1.39502">
        <ele>58</ele>
        <time>2021-03-27T09:33:02.000Z</time>
      </trkpt>
      <trkpt lat="47.28921" lon="-1.39482">
        <ele>59</ele>
        <time>2021-03-27T09:33:05.000Z</time>
      </trkpt>
      <trkpt lat="47.28931" lon="-1.39471">
        <ele>58</ele>
        <time>2021-03-27T09:33:07.000Z</time>
      </trkpt>
      <trkpt lat="47.28941" lon="-1.3946">
        <ele>59</ele>
        <time>2021-03-27T09:33:09.000Z</time>
      </trkpt>
      <trkpt lat="47.28949" lon="-1.39449">
        <ele>60</ele>
        <time>2021-03-27T09:33:11.000Z</time>
      </trkpt>
      <trkpt lat="47.2896" lon="-1.39438">
        <ele>60</ele>
        <time>2021-03-27T09:33:13.000Z</time>
      </trkpt>
      <trkpt lat="47.28969" lon="-1.39426">
        <ele>60</ele>
        <time>2021-03-27T09:33:15.000Z</time>
      </trkpt>
      <trkpt lat="47.28978" lon="-1.39413">
        <ele>60</ele>
        <time>2021-03-27T09:33:17.000Z</time>
      </trkpt>
      <trkpt lat="47.28992" lon="-1.39394">
        <ele>60</ele>
        <time>2021-03-27T09:33:20.000Z</time>
      </trkpt>
      <trkpt lat="47.28999" lon="-1.39383">
        <ele>60</ele>
        <time>2021-03-27T09:33:22.000Z</time>
      </trkpt>
      <trkpt lat="47.29009" lon="-1.3937">
        <ele>60</ele>
        <time>2021-03-27T09:33:24.000Z</time>
      </trkpt>
      <trkpt lat="47.29019" lon="-1.39358">
        <ele>59</ele>
        <time>2021-03-27T09:33:26.000Z</time>
      </trkpt>
      <trkpt lat="47.29029" lon="-1.39346">
        <ele>59</ele>
        <time>2021-03-27T09:33:28.000Z</time>
      </trkpt>
      <trkpt lat="47.29038" lon="-1.39335">
        <ele>59</ele>
        <time>2021-03-27T09:33:30.000Z</time>
      </trkpt>
      <trkpt lat="47.29049" lon="-1.39324">
        <ele>58</ele>
        <time>2021-03-27T09:33:32.000Z</time>
      </trkpt>
      <trkpt lat="47.29058" lon="-1.39312">
        <ele>58</ele>
        <time>2021-03-27T09:33:34.000Z</time>
      </trkpt>
      <trkpt lat="47.29069" lon="-1.39302">
        <ele>59</ele>
        <time>2021-03-27T09:33:36.000Z</time>
      </trkpt>
      <trkpt lat="47.29079" lon="-1.3929">
        <ele>59</ele>
        <time>2021-03-27T09:33:38.000Z</time>
      </trkpt>
      <trkpt lat="47.29088" lon="-1.39277">
        <ele>59</ele>
        <time>2021-03-27T09:33:40.000Z</time>
      </trkpt>
      <trkpt lat="47.29101" lon="-1.39254">
        <ele>57</ele>
        <time>2021-03-27T09:33:43.000Z</time>
      </trkpt>
      <trkpt lat="47.29111" lon="-1.39237">
        <ele>56</ele>
        <time>2021-03-27T09:33:45.000Z</time>
      </trkpt>
      <trkpt lat="47.29121" lon="-1.39225">
        <ele>57</ele>
        <time>2021-03-27T09:33:47.000Z</time>
      </trkpt>
      <trkpt lat="47.29131" lon="-1.39213">
        <ele>57</ele>
        <time>2021-03-27T09:33:49.000Z</time>
      </trkpt>
      <trkpt lat="47.29142" lon="-1.392">
        <ele>57</ele>
        <time>2021-03-27T09:33:51.000Z</time>
      </trkpt>
      <trkpt lat="47.29159" lon="-1.39183">
        <ele>53</ele>
        <time>2021-03-27T09:33:54.000Z</time>
      </trkpt>
      <trkpt lat="47.29175" lon="-1.39165">
        <ele>53</ele>
        <time>2021-03-27T09:33:57.000Z</time>
      </trkpt>
      <trkpt lat="47.29184" lon="-1.39152">
        <ele>54</ele>
        <time>2021-03-27T09:33:59.000Z</time>
      </trkpt>
      <trkpt lat="47.29192" lon="-1.3914">
        <ele>54</ele>
        <time>2021-03-27T09:34:01.000Z</time>
      </trkpt>
      <trkpt lat="47.29203" lon="-1.39127">
        <ele>55</ele>
        <time>2021-03-27T09:34:03.000Z</time>
      </trkpt>
      <trkpt lat="47.29213" lon="-1.39112">
        <ele>55</ele>
        <time>2021-03-27T09:34:05.000Z</time>
      </trkpt>
      <trkpt lat="47.29221" lon="-1.39096">
        <ele>56</ele>
        <time>2021-03-27T09:34:07.000Z</time>
      </trkpt>
      <trkpt lat="47.29229" lon="-1.39068">
        <ele>56</ele>
        <time>2021-03-27T09:34:10.000Z</time>
      </trkpt>
      <trkpt lat="47.29236" lon="-1.39051">
        <ele>56</ele>
        <time>2021-03-27T09:34:12.000Z</time>
      </trkpt>
      <trkpt lat="47.2924" lon="-1.39036">
        <ele>56</ele>
        <time>2021-03-27T09:34:14.000Z</time>
      </trkpt>
      <trkpt lat="47.29245" lon="-1.39019">
        <ele>56</ele>
        <time>2021-03-27T09:34:16.000Z</time>
      </trkpt>
      <trkpt lat="47.29249" lon="-1.39001">
        <ele>55</ele>
        <time>2021-03-27T09:34:18.000Z</time>
      </trkpt>
      <trkpt lat="47.29254" lon="-1.38984">
        <ele>56</ele>
        <time>2021-03-27T09:34:20.000Z</time>
      </trkpt>
      <trkpt lat="47.29259" lon="-1.38967">
        <ele>56</ele>
        <time>2021-03-27T09:34:22.000Z</time>
      </trkpt>
      <trkpt lat="47.29264" lon="-1.38949">
        <ele>56</ele>
        <time>2021-03-27T09:34:24.000Z</time>
      </trkpt>
      <trkpt lat="47.29269" lon="-1.38931">
        <ele>56</ele>
        <time>2021-03-27T09:34:26.000Z</time>
      </trkpt>
      <trkpt lat="47.29274" lon="-1.38914">
        <ele>56</ele>
        <time>2021-03-27T09:34:28.000Z</time>
      </trkpt>
      <trkpt lat="47.29278" lon="-1.38897">
        <ele>56</ele>
        <time>2021-03-27T09:34:30.000Z</time>
      </trkpt>
      <trkpt lat="47.29282" lon="-1.38877">
        <ele>56</ele>
        <time>2021-03-27T09:34:32.000Z</time>
      </trkpt>
      <trkpt lat="47.29285" lon="-1.38859">
        <ele>57</ele>
        <time>2021-03-27T09:34:34.000Z</time>
      </trkpt>
      <trkpt lat="47.29294" lon="-1.38834">
        <ele>56</ele>
        <time>2021-03-27T09:34:37.000Z</time>
      </trkpt>
      <trkpt lat="47.29299" lon="-1.38816">
        <ele>56</ele>
        <time>2021-03-27T09:34:39.000Z</time>
      </trkpt>
      <trkpt lat="47.29304" lon="-1.388">
        <ele>55</ele>
        <time>2021-03-27T09:34:41.000Z</time>
      </trkpt>
      <trkpt lat="47.29308" lon="-1.38783">
        <ele>55</ele>
        <time>2021-03-27T09:34:43.000Z</time>
      </trkpt>
      <trkpt lat="47.29313" lon="-1.38765">
        <ele>56</ele>
        <time>2021-03-27T09:34:45.000Z</time>
      </trkpt>
      <trkpt lat="47.29318" lon="-1.38748">
        <ele>56</ele>
        <time>2021-03-27T09:34:47.000Z</time>
      </trkpt>
      <trkpt lat="47.29319" lon="-1.38729">
        <ele>55</ele>
        <time>2021-03-27T09:34:49.000Z</time>
      </trkpt>
      <trkpt lat="47.29324" lon="-1.38709">
        <ele>56</ele>
        <time>2021-03-27T09:34:51.000Z</time>
      </trkpt>
      <trkpt lat="47.29331" lon="-1.38692">
        <ele>56</ele>
        <time>2021-03-27T09:34:53.000Z</time>
      </trkpt>
      <trkpt lat="47.29339" lon="-1.38667">
        <ele>56</ele>
        <time>2021-03-27T09:34:56.000Z</time>
      </trkpt>
      <trkpt lat="47.29346" lon="-1.38643">
        <ele>56</ele>
        <time>2021-03-27T09:34:59.000Z</time>
      </trkpt>
      <trkpt lat="47.29351" lon="-1.38627">
        <ele>56</ele>
        <time>2021-03-27T09:35:01.000Z</time>
      </trkpt>
      <trkpt lat="47.29355" lon="-1.38611">
        <ele>56</ele>
        <time>2021-03-27T09:35:03.000Z</time>
      </trkpt>
      <trkpt lat="47.29362" lon="-1.38586">
        <ele>55</ele>
        <time>2021-03-27T09:35:06.000Z</time>
      </trkpt>
      <trkpt lat="47.29368" lon="-1.38571">
        <ele>56</ele>
        <time>2021-03-27T09:35:08.000Z</time>
      </trkpt>
      <trkpt lat="47.29373" lon="-1.38558">
        <ele>57</ele>
        <time>2021-03-27T09:35:10.000Z</time>
      </trkpt>
      <trkpt lat="47.29378" lon="-1.38545">
        <ele>58</ele>
        <time>2021-03-27T09:35:12.000Z</time>
      </trkpt>
      <trkpt lat="47.29385" lon="-1.38533">
        <ele>57</ele>
        <time>2021-03-27T09:35:14.000Z</time>
      </trkpt>
      <trkpt lat="47.29391" lon="-1.38519">
        <ele>57</ele>
        <time>2021-03-27T09:35:16.000Z</time>
      </trkpt>
      <trkpt lat="47.29395" lon="-1.38505">
        <ele>57</ele>
        <time>2021-03-27T09:35:18.000Z</time>
      </trkpt>
      <trkpt lat="47.294" lon="-1.38489">
        <ele>53</ele>
        <time>2021-03-27T09:35:20.000Z</time>
      </trkpt>
      <trkpt lat="47.29405" lon="-1.38473">
        <ele>55</ele>
        <time>2021-03-27T09:35:22.000Z</time>
      </trkpt>
      <trkpt lat="47.29408" lon="-1.38457">
        <ele>56</ele>
        <time>2021-03-27T09:35:24.000Z</time>
      </trkpt>
      <trkpt lat="47.29413" lon="-1.38433">
        <ele>57</ele>
        <time>2021-03-27T09:35:27.000Z</time>
      </trkpt>
      <trkpt lat="47.29416" lon="-1.38419">
        <ele>57</ele>
        <time>2021-03-27T09:35:29.000Z</time>
      </trkpt>
      <trkpt lat="47.2942" lon="-1.38403">
        <ele>57</ele>
        <time>2021-03-27T09:35:31.000Z</time>
      </trkpt>
      <trkpt lat="47.29427" lon="-1.38378">
        <ele>57</ele>
        <time>2021-03-27T09:35:34.000Z</time>
      </trkpt>
      <trkpt lat="47.2943" lon="-1.38362">
        <ele>58</ele>
        <time>2021-03-27T09:35:36.000Z</time>
      </trkpt>
      <trkpt lat="47.29433" lon="-1.38347">
        <ele>58</ele>
        <time>2021-03-27T09:35:38.000Z</time>
      </trkpt>
      <trkpt lat="47.29431" lon="-1.38325">
        <ele>59</ele>
        <time>2021-03-27T09:35:41.000Z</time>
      </trkpt>
      <trkpt lat="47.29424" lon="-1.38313">
        <ele>60</ele>
        <time>2021-03-27T09:35:43.000Z</time>
      </trkpt>
      <trkpt lat="47.29416" lon="-1.38304">
        <ele>60</ele>
        <time>2021-03-27T09:35:45.000Z</time>
      </trkpt>
      <trkpt lat="47.29402" lon="-1.3829">
        <ele>59</ele>
        <time>2021-03-27T09:35:49.000Z</time>
      </trkpt>
      <trkpt lat="47.29393" lon="-1.3828">
        <ele>60</ele>
        <time>2021-03-27T09:35:51.000Z</time>
      </trkpt>
      <trkpt lat="47.29383" lon="-1.38272">
        <ele>58</ele>
        <time>2021-03-27T09:35:54.000Z</time>
      </trkpt>
      <trkpt lat="47.29371" lon="-1.38253">
        <ele>60</ele>
        <time>2021-03-27T09:35:57.000Z</time>
      </trkpt>
      <trkpt lat="47.29363" lon="-1.38244">
        <ele>61</ele>
        <time>2021-03-27T09:35:59.000Z</time>
      </trkpt>
      <trkpt lat="47.29354" lon="-1.38234">
        <ele>62</ele>
        <time>2021-03-27T09:36:02.000Z</time>
      </trkpt>
      <trkpt lat="47.29344" lon="-1.38221">
        <ele>64</ele>
        <time>2021-03-27T09:36:05.000Z</time>
      </trkpt>
      <trkpt lat="47.29336" lon="-1.38211">
        <ele>64</ele>
        <time>2021-03-27T09:36:07.000Z</time>
      </trkpt>
      <trkpt lat="47.29329" lon="-1.38201">
        <ele>64</ele>
        <time>2021-03-27T09:36:09.000Z</time>
      </trkpt>
      <trkpt lat="47.29322" lon="-1.38189">
        <ele>63</ele>
        <time>2021-03-27T09:36:12.000Z</time>
      </trkpt>
      <trkpt lat="47.29313" lon="-1.38179">
        <ele>63</ele>
        <time>2021-03-27T09:36:14.000Z</time>
      </trkpt>
      <trkpt lat="47.29305" lon="-1.3817">
        <ele>63</ele>
        <time>2021-03-27T09:36:16.000Z</time>
      </trkpt>
      <trkpt lat="47.29296" lon="-1.38159">
        <ele>63</ele>
        <time>2021-03-27T09:36:19.000Z</time>
      </trkpt>
      <trkpt lat="47.29285" lon="-1.38147">
        <ele>65</ele>
        <time>2021-03-27T09:36:23.000Z</time>
      </trkpt>
      <trkpt lat="47.29274" lon="-1.38136">
        <ele>65</ele>
        <time>2021-03-27T09:36:25.000Z</time>
      </trkpt>
      <trkpt lat="47.29263" lon="-1.38127">
        <ele>65</ele>
        <time>2021-03-27T09:36:27.000Z</time>
      </trkpt>
      <trkpt lat="47.29253" lon="-1.38111">
        <ele>67</ele>
        <time>2021-03-27T09:36:30.000Z</time>
      </trkpt>
      <trkpt lat="47.29243" lon="-1.381">
        <ele>66</ele>
        <time>2021-03-27T09:36:33.000Z</time>
      </trkpt>
      <trkpt lat="47.29233" lon="-1.38088">
        <ele>67</ele>
        <time>2021-03-27T09:36:36.000Z</time>
      </trkpt>
      <trkpt lat="47.29224" lon="-1.38075">
        <ele>69</ele>
        <time>2021-03-27T09:36:39.000Z</time>
      </trkpt>
      <trkpt lat="47.29214" lon="-1.38064">
        <ele>69</ele>
        <time>2021-03-27T09:36:42.000Z</time>
      </trkpt>
      <trkpt lat="47.29205" lon="-1.38051">
        <ele>68</ele>
        <time>2021-03-27T09:36:44.000Z</time>
      </trkpt>
      <trkpt lat="47.29192" lon="-1.38035">
        <ele>66</ele>
        <time>2021-03-27T09:36:47.000Z</time>
      </trkpt>
      <trkpt lat="47.29184" lon="-1.38024">
        <ele>66</ele>
        <time>2021-03-27T09:36:49.000Z</time>
      </trkpt>
      <trkpt lat="47.29175" lon="-1.38014">
        <ele>65</ele>
        <time>2021-03-27T09:36:51.000Z</time>
      </trkpt>
      <trkpt lat="47.29167" lon="-1.38004">
        <ele>64</ele>
        <time>2021-03-27T09:36:53.000Z</time>
      </trkpt>
      <trkpt lat="47.29151" lon="-1.37988">
        <ele>61</ele>
        <time>2021-03-27T09:36:57.000Z</time>
      </trkpt>
      <trkpt lat="47.29141" lon="-1.37979">
        <ele>61</ele>
        <time>2021-03-27T09:36:59.000Z</time>
      </trkpt>
      <trkpt lat="47.29133" lon="-1.37965">
        <ele>62</ele>
        <time>2021-03-27T09:37:01.000Z</time>
      </trkpt>
      <trkpt lat="47.29124" lon="-1.37954">
        <ele>63</ele>
        <time>2021-03-27T09:37:03.000Z</time>
      </trkpt>
      <trkpt lat="47.29113" lon="-1.37939">
        <ele>62</ele>
        <time>2021-03-27T09:37:06.000Z</time>
      </trkpt>
      <trkpt lat="47.29105" lon="-1.3793">
        <ele>61</ele>
        <time>2021-03-27T09:37:08.000Z</time>
      </trkpt>
      <trkpt lat="47.29095" lon="-1.37918">
        <ele>61</ele>
        <time>2021-03-27T09:37:10.000Z</time>
      </trkpt>
      <trkpt lat="47.29087" lon="-1.37911">
        <ele>60</ele>
        <time>2021-03-27T09:37:12.000Z</time>
      </trkpt>
      <trkpt lat="47.29082" lon="-1.37898">
        <ele>60</ele>
        <time>2021-03-27T09:37:15.000Z</time>
      </trkpt>
      <trkpt lat="47.29069" lon="-1.37876">
        <ele>60</ele>
        <time>2021-03-27T09:37:18.000Z</time>
      </trkpt>
      <trkpt lat="47.29059" lon="-1.37863">
        <ele>60</ele>
        <time>2021-03-27T09:37:20.000Z</time>
      </trkpt>
      <trkpt lat="47.2905" lon="-1.37852">
        <ele>59</ele>
        <time>2021-03-27T09:37:22.000Z</time>
      </trkpt>
      <trkpt lat="47.29041" lon="-1.37841">
        <ele>58</ele>
        <time>2021-03-27T09:37:24.000Z</time>
      </trkpt>
      <trkpt lat="47.29032" lon="-1.37828">
        <ele>59</ele>
        <time>2021-03-27T09:37:26.000Z</time>
      </trkpt>
      <trkpt lat="47.29022" lon="-1.37816">
        <ele>59</ele>
        <time>2021-03-27T09:37:28.000Z</time>
      </trkpt>
      <trkpt lat="47.29013" lon="-1.37806">
        <ele>59</ele>
        <time>2021-03-27T09:37:30.000Z</time>
      </trkpt>
      <trkpt lat="47.29003" lon="-1.37794">
        <ele>58</ele>
        <time>2021-03-27T09:37:32.000Z</time>
      </trkpt>
      <trkpt lat="47.28994" lon="-1.37783">
        <ele>58</ele>
        <time>2021-03-27T09:37:34.000Z</time>
      </trkpt>
      <trkpt lat="47.28984" lon="-1.37771">
        <ele>58</ele>
        <time>2021-03-27T09:37:36.000Z</time>
      </trkpt>
      <trkpt lat="47.28975" lon="-1.37758">
        <ele>58</ele>
        <time>2021-03-27T09:37:38.000Z</time>
      </trkpt>
      <trkpt lat="47.28966" lon="-1.37745">
        <ele>58</ele>
        <time>2021-03-27T09:37:40.000Z</time>
      </trkpt>
      <trkpt lat="47.28956" lon="-1.37735">
        <ele>58</ele>
        <time>2021-03-27T09:37:42.000Z</time>
      </trkpt>
      <trkpt lat="47.28942" lon="-1.37718">
        <ele>58</ele>
        <time>2021-03-27T09:37:45.000Z</time>
      </trkpt>
      <trkpt lat="47.28932" lon="-1.37705">
        <ele>58</ele>
        <time>2021-03-27T09:37:47.000Z</time>
      </trkpt>
      <trkpt lat="47.28924" lon="-1.37695">
        <ele>58</ele>
        <time>2021-03-27T09:37:49.000Z</time>
      </trkpt>
      <trkpt lat="47.28916" lon="-1.37686">
        <ele>59</ele>
        <time>2021-03-27T09:37:51.000Z</time>
      </trkpt>
      <trkpt lat="47.28907" lon="-1.37679">
        <ele>59</ele>
        <time>2021-03-27T09:37:53.000Z</time>
      </trkpt>
      <trkpt lat="47.28896" lon="-1.37666">
        <ele>59</ele>
        <time>2021-03-27T09:37:56.000Z</time>
      </trkpt>
      <trkpt lat="47.28887" lon="-1.37657">
        <ele>59</ele>
        <time>2021-03-27T09:37:58.000Z</time>
      </trkpt>
      <trkpt lat="47.28879" lon="-1.37647">
        <ele>58</ele>
        <time>2021-03-27T09:38:00.000Z</time>
      </trkpt>
      <trkpt lat="47.28863" lon="-1.3763">
        <ele>58</ele>
        <time>2021-03-27T09:38:04.000Z</time>
      </trkpt>
      <trkpt lat="47.28852" lon="-1.37619">
        <ele>58</ele>
        <time>2021-03-27T09:38:06.000Z</time>
      </trkpt>
      <trkpt lat="47.28843" lon="-1.37608">
        <ele>58</ele>
        <time>2021-03-27T09:38:08.000Z</time>
      </trkpt>
      <trkpt lat="47.28832" lon="-1.37594">
        <ele>57</ele>
        <time>2021-03-27T09:38:13.000Z</time>
      </trkpt>
      <trkpt lat="47.28825" lon="-1.37583">
        <ele>56</ele>
        <time>2021-03-27T09:38:16.000Z</time>
      </trkpt>
      <trkpt lat="47.28825" lon="-1.37567">
        <ele>56</ele>
        <time>2021-03-27T09:38:18.000Z</time>
      </trkpt>
      <trkpt lat="47.2883" lon="-1.37555">
        <ele>57</ele>
        <time>2021-03-27T09:38:20.000Z</time>
      </trkpt>
      <trkpt lat="47.28835" lon="-1.37543">
        <ele>58</ele>
        <time>2021-03-27T09:38:22.000Z</time>
      </trkpt>
      <trkpt lat="47.28841" lon="-1.37532">
        <ele>59</ele>
        <time>2021-03-27T09:38:24.000Z</time>
      </trkpt>
      <trkpt lat="47.28848" lon="-1.37518">
        <ele>59</ele>
        <time>2021-03-27T09:38:27.000Z</time>
      </trkpt>
      <trkpt lat="47.28857" lon="-1.37493">
        <ele>58</ele>
        <time>2021-03-27T09:38:31.000Z</time>
      </trkpt>
      <trkpt lat="47.2886" lon="-1.37478">
        <ele>55</ele>
        <time>2021-03-27T09:38:33.000Z</time>
      </trkpt>
      <trkpt lat="47.28865" lon="-1.37464">
        <ele>58</ele>
        <time>2021-03-27T09:38:35.000Z</time>
      </trkpt>
      <trkpt lat="47.28872" lon="-1.37447">
        <ele>59</ele>
        <time>2021-03-27T09:38:37.000Z</time>
      </trkpt>
      <trkpt lat="47.28879" lon="-1.3743">
        <ele>59</ele>
        <time>2021-03-27T09:38:39.000Z</time>
      </trkpt>
      <trkpt lat="47.28883" lon="-1.37412">
        <ele>59</ele>
        <time>2021-03-27T09:38:41.000Z</time>
      </trkpt>
      <trkpt lat="47.28889" lon="-1.37396">
        <ele>60</ele>
        <time>2021-03-27T09:38:43.000Z</time>
      </trkpt>
      <trkpt lat="47.28894" lon="-1.3738">
        <ele>61</ele>
        <time>2021-03-27T09:38:45.000Z</time>
      </trkpt>
      <trkpt lat="47.28901" lon="-1.37351">
        <ele>59</ele>
        <time>2021-03-27T09:38:48.000Z</time>
      </trkpt>
      <trkpt lat="47.28904" lon="-1.37332">
        <ele>57</ele>
        <time>2021-03-27T09:38:50.000Z</time>
      </trkpt>
      <trkpt lat="47.28911" lon="-1.37313">
        <ele>58</ele>
        <time>2021-03-27T09:38:52.000Z</time>
      </trkpt>
      <trkpt lat="47.28918" lon="-1.37296">
        <ele>58</ele>
        <time>2021-03-27T09:38:54.000Z</time>
      </trkpt>
      <trkpt lat="47.28925" lon="-1.37277">
        <ele>58</ele>
        <time>2021-03-27T09:38:56.000Z</time>
      </trkpt>
      <trkpt lat="47.28931" lon="-1.37259">
        <ele>58</ele>
        <time>2021-03-27T09:38:58.000Z</time>
      </trkpt>
      <trkpt lat="47.28939" lon="-1.3724">
        <ele>58</ele>
        <time>2021-03-27T09:39:00.000Z</time>
      </trkpt>
      <trkpt lat="47.28952" lon="-1.37201">
        <ele>58</ele>
        <time>2021-03-27T09:39:04.000Z</time>
      </trkpt>
      <trkpt lat="47.28959" lon="-1.37182">
        <ele>58</ele>
        <time>2021-03-27T09:39:06.000Z</time>
      </trkpt>
      <trkpt lat="47.28967" lon="-1.37163">
        <ele>59</ele>
        <time>2021-03-27T09:39:08.000Z</time>
      </trkpt>
      <trkpt lat="47.28974" lon="-1.37147">
        <ele>59</ele>
        <time>2021-03-27T09:39:10.000Z</time>
      </trkpt>
      <trkpt lat="47.28982" lon="-1.37128">
        <ele>59</ele>
        <time>2021-03-27T09:39:12.000Z</time>
      </trkpt>
      <trkpt lat="47.2899" lon="-1.37111">
        <ele>58</ele>
        <time>2021-03-27T09:39:14.000Z</time>
      </trkpt>
      <trkpt lat="47.29002" lon="-1.37084">
        <ele>58</ele>
        <time>2021-03-27T09:39:17.000Z</time>
      </trkpt>
      <trkpt lat="47.29008" lon="-1.37068">
        <ele>58</ele>
        <time>2021-03-27T09:39:19.000Z</time>
      </trkpt>
      <trkpt lat="47.29015" lon="-1.37052">
        <ele>59</ele>
        <time>2021-03-27T09:39:21.000Z</time>
      </trkpt>
      <trkpt lat="47.29026" lon="-1.37036">
        <ele>59</ele>
        <time>2021-03-27T09:39:23.000Z</time>
      </trkpt>
      <trkpt lat="47.29039" lon="-1.37013">
        <ele>59</ele>
        <time>2021-03-27T09:39:26.000Z</time>
      </trkpt>
      <trkpt lat="47.29047" lon="-1.36998">
        <ele>59</ele>
        <time>2021-03-27T09:39:28.000Z</time>
      </trkpt>
      <trkpt lat="47.29055" lon="-1.36989">
        <ele>59</ele>
        <time>2021-03-27T09:39:30.000Z</time>
      </trkpt>
      <trkpt lat="47.29066" lon="-1.36985">
        <ele>58</ele>
        <time>2021-03-27T09:39:32.000Z</time>
      </trkpt>
      <trkpt lat="47.29075" lon="-1.36978">
        <ele>58</ele>
        <time>2021-03-27T09:39:34.000Z</time>
      </trkpt>
      <trkpt lat="47.29086" lon="-1.36954">
        <ele>57</ele>
        <time>2021-03-27T09:39:37.000Z</time>
      </trkpt>
      <trkpt lat="47.29089" lon="-1.36935">
        <ele>57</ele>
        <time>2021-03-27T09:39:39.000Z</time>
      </trkpt>
      <trkpt lat="47.29096" lon="-1.36919">
        <ele>56</ele>
        <time>2021-03-27T09:39:41.000Z</time>
      </trkpt>
      <trkpt lat="47.29102" lon="-1.36906">
        <ele>57</ele>
        <time>2021-03-27T09:39:43.000Z</time>
      </trkpt>
      <trkpt lat="47.29111" lon="-1.36883">
        <ele>57</ele>
        <time>2021-03-27T09:39:46.000Z</time>
      </trkpt>
      <trkpt lat="47.29119" lon="-1.3687">
        <ele>56</ele>
        <time>2021-03-27T09:39:48.000Z</time>
      </trkpt>
      <trkpt lat="47.29127" lon="-1.36858">
        <ele>56</ele>
        <time>2021-03-27T09:39:50.000Z</time>
      </trkpt>
      <trkpt lat="47.29135" lon="-1.36844">
        <ele>56</ele>
        <time>2021-03-27T09:39:52.000Z</time>
      </trkpt>
      <trkpt lat="47.29146" lon="-1.3682">
        <ele>56</ele>
        <time>2021-03-27T09:39:55.000Z</time>
      </trkpt>
      <trkpt lat="47.29155" lon="-1.36806">
        <ele>55</ele>
        <time>2021-03-27T09:39:57.000Z</time>
      </trkpt>
      <trkpt lat="47.29162" lon="-1.36791">
        <ele>55</ele>
        <time>2021-03-27T09:39:59.000Z</time>
      </trkpt>
      <trkpt lat="47.2917" lon="-1.36776">
        <ele>56</ele>
        <time>2021-03-27T09:40:01.000Z</time>
      </trkpt>
      <trkpt lat="47.29177" lon="-1.3676">
        <ele>56</ele>
        <time>2021-03-27T09:40:03.000Z</time>
      </trkpt>
      <trkpt lat="47.29185" lon="-1.36745">
        <ele>56</ele>
        <time>2021-03-27T09:40:05.000Z</time>
      </trkpt>
      <trkpt lat="47.29192" lon="-1.36732">
        <ele>56</ele>
        <time>2021-03-27T09:40:07.000Z</time>
      </trkpt>
      <trkpt lat="47.292" lon="-1.36717">
        <ele>57</ele>
        <time>2021-03-27T09:40:09.000Z</time>
      </trkpt>
      <trkpt lat="47.29208" lon="-1.36703">
        <ele>57</ele>
        <time>2021-03-27T09:40:11.000Z</time>
      </trkpt>
      <trkpt lat="47.29221" lon="-1.36678">
        <ele>57</ele>
        <time>2021-03-27T09:40:14.000Z</time>
      </trkpt>
      <trkpt lat="47.29228" lon="-1.36663">
        <ele>56</ele>
        <time>2021-03-27T09:40:16.000Z</time>
      </trkpt>
      <trkpt lat="47.29237" lon="-1.36648">
        <ele>53</ele>
        <time>2021-03-27T09:40:18.000Z</time>
      </trkpt>
      <trkpt lat="47.29245" lon="-1.36629">
        <ele>52</ele>
        <time>2021-03-27T09:40:20.000Z</time>
      </trkpt>
      <trkpt lat="47.29255" lon="-1.36616">
        <ele>53</ele>
        <time>2021-03-27T09:40:22.000Z</time>
      </trkpt>
      <trkpt lat="47.29263" lon="-1.36598">
        <ele>53</ele>
        <time>2021-03-27T09:40:24.000Z</time>
      </trkpt>
      <trkpt lat="47.29271" lon="-1.36581">
        <ele>53</ele>
        <time>2021-03-27T09:40:26.000Z</time>
      </trkpt>
      <trkpt lat="47.29284" lon="-1.36558">
        <ele>53</ele>
        <time>2021-03-27T09:40:29.000Z</time>
      </trkpt>
      <trkpt lat="47.29292" lon="-1.36542">
        <ele>53</ele>
        <time>2021-03-27T09:40:31.000Z</time>
      </trkpt>
      <trkpt lat="47.293" lon="-1.36526">
        <ele>53</ele>
        <time>2021-03-27T09:40:33.000Z</time>
      </trkpt>
      <trkpt lat="47.29308" lon="-1.3651">
        <ele>54</ele>
        <time>2021-03-27T09:40:35.000Z</time>
      </trkpt>
      <trkpt lat="47.29316" lon="-1.36495">
        <ele>55</ele>
        <time>2021-03-27T09:40:37.000Z</time>
      </trkpt>
      <trkpt lat="47.29325" lon="-1.36479">
        <ele>54</ele>
        <time>2021-03-27T09:40:39.000Z</time>
      </trkpt>
      <trkpt lat="47.29332" lon="-1.36463">
        <ele>53</ele>
        <time>2021-03-27T09:40:41.000Z</time>
      </trkpt>
      <trkpt lat="47.29341" lon="-1.36446">
        <ele>51</ele>
        <time>2021-03-27T09:40:43.000Z</time>
      </trkpt>
      <trkpt lat="47.29352" lon="-1.36429">
        <ele>52</ele>
        <time>2021-03-27T09:40:45.000Z</time>
      </trkpt>
      <trkpt lat="47.29358" lon="-1.36413">
        <ele>53</ele>
        <time>2021-03-27T09:40:47.000Z</time>
      </trkpt>
      <trkpt lat="47.2937" lon="-1.36387">
        <ele>54</ele>
        <time>2021-03-27T09:40:50.000Z</time>
      </trkpt>
      <trkpt lat="47.29379" lon="-1.36372">
        <ele>54</ele>
        <time>2021-03-27T09:40:52.000Z</time>
      </trkpt>
      <trkpt lat="47.29388" lon="-1.36356">
        <ele>55</ele>
        <time>2021-03-27T09:40:54.000Z</time>
      </trkpt>
      <trkpt lat="47.29396" lon="-1.36339">
        <ele>55</ele>
        <time>2021-03-27T09:40:56.000Z</time>
      </trkpt>
      <trkpt lat="47.29404" lon="-1.36323">
        <ele>54</ele>
        <time>2021-03-27T09:40:58.000Z</time>
      </trkpt>
      <trkpt lat="47.29412" lon="-1.36307">
        <ele>55</ele>
        <time>2021-03-27T09:41:00.000Z</time>
      </trkpt>
      <trkpt lat="47.29422" lon="-1.36291">
        <ele>56</ele>
        <time>2021-03-27T09:41:02.000Z</time>
      </trkpt>
      <trkpt lat="47.29429" lon="-1.36275">
        <ele>56</ele>
        <time>2021-03-27T09:41:04.000Z</time>
      </trkpt>
      <trkpt lat="47.29438" lon="-1.36259">
        <ele>56</ele>
        <time>2021-03-27T09:41:06.000Z</time>
      </trkpt>
      <trkpt lat="47.29446" lon="-1.36243">
        <ele>56</ele>
        <time>2021-03-27T09:41:08.000Z</time>
      </trkpt>
      <trkpt lat="47.29454" lon="-1.36227">
        <ele>55</ele>
        <time>2021-03-27T09:41:10.000Z</time>
      </trkpt>
      <trkpt lat="47.29462" lon="-1.36212">
        <ele>55</ele>
        <time>2021-03-27T09:41:12.000Z</time>
      </trkpt>
      <trkpt lat="47.2947" lon="-1.36196">
        <ele>55</ele>
        <time>2021-03-27T09:41:14.000Z</time>
      </trkpt>
      <trkpt lat="47.29479" lon="-1.36181">
        <ele>55</ele>
        <time>2021-03-27T09:41:16.000Z</time>
      </trkpt>
      <trkpt lat="47.29487" lon="-1.36164">
        <ele>55</ele>
        <time>2021-03-27T09:41:18.000Z</time>
      </trkpt>
      <trkpt lat="47.29495" lon="-1.36148">
        <ele>55</ele>
        <time>2021-03-27T09:41:20.000Z</time>
      </trkpt>
      <trkpt lat="47.29503" lon="-1.36133">
        <ele>55</ele>
        <time>2021-03-27T09:41:22.000Z</time>
      </trkpt>
      <trkpt lat="47.29511" lon="-1.36117">
        <ele>55</ele>
        <time>2021-03-27T09:41:24.000Z</time>
      </trkpt>
      <trkpt lat="47.29519" lon="-1.36101">
        <ele>56</ele>
        <time>2021-03-27T09:41:26.000Z</time>
      </trkpt>
      <trkpt lat="47.29528" lon="-1.36085">
        <ele>56</ele>
        <time>2021-03-27T09:41:28.000Z</time>
      </trkpt>
      <trkpt lat="47.29536" lon="-1.36069">
        <ele>56</ele>
        <time>2021-03-27T09:41:30.000Z</time>
      </trkpt>
      <trkpt lat="47.29544" lon="-1.36053">
        <ele>56</ele>
        <time>2021-03-27T09:41:32.000Z</time>
      </trkpt>
      <trkpt lat="47.29552" lon="-1.36038">
        <ele>56</ele>
        <time>2021-03-27T09:41:34.000Z</time>
      </trkpt>
      <trkpt lat="47.29565" lon="-1.3601">
        <ele>55</ele>
        <time>2021-03-27T09:41:37.000Z</time>
      </trkpt>
      <trkpt lat="47.29574" lon="-1.35993">
        <ele>54</ele>
        <time>2021-03-27T09:41:39.000Z</time>
      </trkpt>
      <trkpt lat="47.29582" lon="-1.35979">
        <ele>55</ele>
        <time>2021-03-27T09:41:41.000Z</time>
      </trkpt>
      <trkpt lat="47.2959" lon="-1.35964">
        <ele>54</ele>
        <time>2021-03-27T09:41:43.000Z</time>
      </trkpt>
      <trkpt lat="47.29597" lon="-1.35947">
        <ele>54</ele>
        <time>2021-03-27T09:41:45.000Z</time>
      </trkpt>
      <trkpt lat="47.29606" lon="-1.35933">
        <ele>55</ele>
        <time>2021-03-27T09:41:47.000Z</time>
      </trkpt>
      <trkpt lat="47.29618" lon="-1.35909">
        <ele>55</ele>
        <time>2021-03-27T09:41:50.000Z</time>
      </trkpt>
      <trkpt lat="47.29626" lon="-1.35892">
        <ele>55</ele>
        <time>2021-03-27T09:41:52.000Z</time>
      </trkpt>
      <trkpt lat="47.29634" lon="-1.35877">
        <ele>55</ele>
        <time>2021-03-27T09:41:54.000Z</time>
      </trkpt>
      <trkpt lat="47.29642" lon="-1.35861">
        <ele>56</ele>
        <time>2021-03-27T09:41:56.000Z</time>
      </trkpt>
      <trkpt lat="47.29648" lon="-1.35845">
        <ele>53</ele>
        <time>2021-03-27T09:41:58.000Z</time>
      </trkpt>
      <trkpt lat="47.29658" lon="-1.35828">
        <ele>54</ele>
        <time>2021-03-27T09:42:00.000Z</time>
      </trkpt>
      <trkpt lat="47.29668" lon="-1.35815">
        <ele>55</ele>
        <time>2021-03-27T09:42:02.000Z</time>
      </trkpt>
      <trkpt lat="47.29686" lon="-1.35801">
        <ele>55</ele>
        <time>2021-03-27T09:42:05.000Z</time>
      </trkpt>
      <trkpt lat="47.29699" lon="-1.35775">
        <ele>57</ele>
        <time>2021-03-27T09:42:09.001Z</time>
      </trkpt>
      <trkpt lat="47.29702" lon="-1.3575">
        <ele>57</ele>
        <time>2021-03-27T09:42:11.999Z</time>
      </trkpt>
      <trkpt lat="47.29708" lon="-1.35739">
        <ele>56</ele>
        <time>2021-03-27T09:42:13.000Z</time>
      </trkpt>
      <trkpt lat="47.29716" lon="-1.3572">
        <ele>56</ele>
        <time>2021-03-27T09:42:15.000Z</time>
      </trkpt>
      <trkpt lat="47.29722" lon="-1.35706">
        <ele>54</ele>
        <time>2021-03-27T09:42:17.000Z</time>
      </trkpt>
      <trkpt lat="47.2973" lon="-1.35692">
        <ele>55</ele>
        <time>2021-03-27T09:42:19.000Z</time>
      </trkpt>
      <trkpt lat="47.29739" lon="-1.35681">
        <ele>57</ele>
        <time>2021-03-27T09:42:21.000Z</time>
      </trkpt>
      <trkpt lat="47.29746" lon="-1.3567">
        <ele>56</ele>
        <time>2021-03-27T09:42:23.000Z</time>
      </trkpt>
      <trkpt lat="47.29754" lon="-1.35656">
        <ele>58</ele>
        <time>2021-03-27T09:42:25.000Z</time>
      </trkpt>
      <trkpt lat="47.29762" lon="-1.35643">
        <ele>57</ele>
        <time>2021-03-27T09:42:27.000Z</time>
      </trkpt>
      <trkpt lat="47.29769" lon="-1.35624">
        <ele>56</ele>
        <time>2021-03-27T09:42:29.000Z</time>
      </trkpt>
      <trkpt lat="47.29774" lon="-1.35602">
        <ele>55</ele>
        <time>2021-03-27T09:42:31.000Z</time>
      </trkpt>
      <trkpt lat="47.2978" lon="-1.35589">
        <ele>55</ele>
        <time>2021-03-27T09:42:33.000Z</time>
      </trkpt>
      <trkpt lat="47.29788" lon="-1.35577">
        <ele>56</ele>
        <time>2021-03-27T09:42:35.000Z</time>
      </trkpt>
      <trkpt lat="47.29796" lon="-1.35562">
        <ele>56</ele>
        <time>2021-03-27T09:42:37.000Z</time>
      </trkpt>
      <trkpt lat="47.29804" lon="-1.35547">
        <ele>56</ele>
        <time>2021-03-27T09:42:39.000Z</time>
      </trkpt>
      <trkpt lat="47.29816" lon="-1.35524">
        <ele>56</ele>
        <time>2021-03-27T09:42:42.000Z</time>
      </trkpt>
      <trkpt lat="47.29824" lon="-1.35508">
        <ele>56</ele>
        <time>2021-03-27T09:42:44.000Z</time>
      </trkpt>
      <trkpt lat="47.29832" lon="-1.35492">
        <ele>56</ele>
        <time>2021-03-27T09:42:46.000Z</time>
      </trkpt>
      <trkpt lat="47.2984" lon="-1.35477">
        <ele>56</ele>
        <time>2021-03-27T09:42:48.000Z</time>
      </trkpt>
      <trkpt lat="47.29849" lon="-1.35462">
        <ele>56</ele>
        <time>2021-03-27T09:42:50.000Z</time>
      </trkpt>
      <trkpt lat="47.29857" lon="-1.35446">
        <ele>56</ele>
        <time>2021-03-27T09:42:52.000Z</time>
      </trkpt>
      <trkpt lat="47.29865" lon="-1.3543">
        <ele>55</ele>
        <time>2021-03-27T09:42:54.000Z</time>
      </trkpt>
      <trkpt lat="47.29874" lon="-1.35413">
        <ele>55</ele>
        <time>2021-03-27T09:42:56.000Z</time>
      </trkpt>
      <trkpt lat="47.29886" lon="-1.3539">
        <ele>55</ele>
        <time>2021-03-27T09:42:59.000Z</time>
      </trkpt>
      <trkpt lat="47.29895" lon="-1.35374">
        <ele>55</ele>
        <time>2021-03-27T09:43:01.000Z</time>
      </trkpt>
      <trkpt lat="47.29903" lon="-1.35358">
        <ele>55</ele>
        <time>2021-03-27T09:43:03.000Z</time>
      </trkpt>
      <trkpt lat="47.29911" lon="-1.35341">
        <ele>56</ele>
        <time>2021-03-27T09:43:05.000Z</time>
      </trkpt>
      <trkpt lat="47.29919" lon="-1.35326">
        <ele>56</ele>
        <time>2021-03-27T09:43:07.000Z</time>
      </trkpt>
      <trkpt lat="47.29932" lon="-1.35301">
        <ele>55</ele>
        <time>2021-03-27T09:43:10.000Z</time>
      </trkpt>
      <trkpt lat="47.2994" lon="-1.35284">
        <ele>56</ele>
        <time>2021-03-27T09:43:12.000Z</time>
      </trkpt>
      <trkpt lat="47.29948" lon="-1.35269">
        <ele>56</ele>
        <time>2021-03-27T09:43:14.000Z</time>
      </trkpt>
      <trkpt lat="47.29956" lon="-1.35253">
        <ele>56</ele>
        <time>2021-03-27T09:43:16.000Z</time>
      </trkpt>
      <trkpt lat="47.29965" lon="-1.35237">
        <ele>56</ele>
        <time>2021-03-27T09:43:18.000Z</time>
      </trkpt>
      <trkpt lat="47.29973" lon="-1.3522">
        <ele>56</ele>
        <time>2021-03-27T09:43:20.000Z</time>
      </trkpt>
      <trkpt lat="47.29981" lon="-1.35204">
        <ele>56</ele>
        <time>2021-03-27T09:43:22.000Z</time>
      </trkpt>
      <trkpt lat="47.29989" lon="-1.35188">
        <ele>56</ele>
        <time>2021-03-27T09:43:24.000Z</time>
      </trkpt>
      <trkpt lat="47.29998" lon="-1.35173">
        <ele>56</ele>
        <time>2021-03-27T09:43:26.000Z</time>
      </trkpt>
      <trkpt lat="47.30007" lon="-1.35157">
        <ele>56</ele>
        <time>2021-03-27T09:43:28.000Z</time>
      </trkpt>
      <trkpt lat="47.30015" lon="-1.35142">
        <ele>57</ele>
        <time>2021-03-27T09:43:30.000Z</time>
      </trkpt>
      <trkpt lat="47.30022" lon="-1.35126">
        <ele>57</ele>
        <time>2021-03-27T09:43:32.000Z</time>
      </trkpt>
      <trkpt lat="47.3003" lon="-1.3511">
        <ele>56</ele>
        <time>2021-03-27T09:43:34.000Z</time>
      </trkpt>
      <trkpt lat="47.30038" lon="-1.35093">
        <ele>56</ele>
        <time>2021-03-27T09:43:36.000Z</time>
      </trkpt>
      <trkpt lat="47.30044" lon="-1.35075">
        <ele>57</ele>
        <time>2021-03-27T09:43:38.000Z</time>
      </trkpt>
      <trkpt lat="47.30051" lon="-1.35059">
        <ele>57</ele>
        <time>2021-03-27T09:43:40.000Z</time>
      </trkpt>
      <trkpt lat="47.30058" lon="-1.35043">
        <ele>56</ele>
        <time>2021-03-27T09:43:42.000Z</time>
      </trkpt>
      <trkpt lat="47.30064" lon="-1.35026">
        <ele>56</ele>
        <time>2021-03-27T09:43:44.000Z</time>
      </trkpt>
      <trkpt lat="47.3007" lon="-1.35009">
        <ele>56</ele>
        <time>2021-03-27T09:43:46.000Z</time>
      </trkpt>
      <trkpt lat="47.30076" lon="-1.34992">
        <ele>56</ele>
        <time>2021-03-27T09:43:48.000Z</time>
      </trkpt>
      <trkpt lat="47.30083" lon="-1.34975">
        <ele>56</ele>
        <time>2021-03-27T09:43:50.000Z</time>
      </trkpt>
      <trkpt lat="47.30089" lon="-1.34948">
        <ele>58</ele>
        <time>2021-03-27T09:43:53.000Z</time>
      </trkpt>
      <trkpt lat="47.30092" lon="-1.34929">
        <ele>57</ele>
        <time>2021-03-27T09:43:55.000Z</time>
      </trkpt>
      <trkpt lat="47.30094" lon="-1.34911">
        <ele>57</ele>
        <time>2021-03-27T09:43:57.000Z</time>
      </trkpt>
      <trkpt lat="47.30098" lon="-1.34892">
        <ele>57</ele>
        <time>2021-03-27T09:43:59.000Z</time>
      </trkpt>
      <trkpt lat="47.301" lon="-1.34873">
        <ele>57</ele>
        <time>2021-03-27T09:44:01.000Z</time>
      </trkpt>
      <trkpt lat="47.30103" lon="-1.34854">
        <ele>56</ele>
        <time>2021-03-27T09:44:03.000Z</time>
      </trkpt>
      <trkpt lat="47.30107" lon="-1.34834">
        <ele>56</ele>
        <time>2021-03-27T09:44:05.000Z</time>
      </trkpt>
      <trkpt lat="47.3011" lon="-1.34816">
        <ele>56</ele>
        <time>2021-03-27T09:44:07.000Z</time>
      </trkpt>
      <trkpt lat="47.30109" lon="-1.34798">
        <ele>57</ele>
        <time>2021-03-27T09:44:09.000Z</time>
      </trkpt>
      <trkpt lat="47.30108" lon="-1.34782">
        <ele>58</ele>
        <time>2021-03-27T09:44:11.000Z</time>
      </trkpt>
      <trkpt lat="47.30106" lon="-1.34765">
        <ele>57</ele>
        <time>2021-03-27T09:44:13.000Z</time>
      </trkpt>
      <trkpt lat="47.30103" lon="-1.34751">
        <ele>57</ele>
        <time>2021-03-27T09:44:15.000Z</time>
      </trkpt>
      <trkpt lat="47.30103" lon="-1.34734">
        <ele>58</ele>
        <time>2021-03-27T09:44:17.000Z</time>
      </trkpt>
      <trkpt lat="47.30102" lon="-1.34717">
        <ele>58</ele>
        <time>2021-03-27T09:44:19.000Z</time>
      </trkpt>
      <trkpt lat="47.30101" lon="-1.34699">
        <ele>58</ele>
        <time>2021-03-27T09:44:21.000Z</time>
      </trkpt>
      <trkpt lat="47.301" lon="-1.34681">
        <ele>58</ele>
        <time>2021-03-27T09:44:23.000Z</time>
      </trkpt>
      <trkpt lat="47.30098" lon="-1.34654">
        <ele>58</ele>
        <time>2021-03-27T09:44:26.000Z</time>
      </trkpt>
      <trkpt lat="47.30097" lon="-1.34636">
        <ele>58</ele>
        <time>2021-03-27T09:44:28.000Z</time>
      </trkpt>
      <trkpt lat="47.30095" lon="-1.3462">
        <ele>58</ele>
        <time>2021-03-27T09:44:30.000Z</time>
      </trkpt>
      <trkpt lat="47.30092" lon="-1.34605">
        <ele>58</ele>
        <time>2021-03-27T09:44:32.000Z</time>
      </trkpt>
      <trkpt lat="47.30098" lon="-1.3459">
        <ele>57</ele>
        <time>2021-03-27T09:44:35.000Z</time>
      </trkpt>
      <trkpt lat="47.30101" lon="-1.34573">
        <ele>57</ele>
        <time>2021-03-27T09:44:37.000Z</time>
      </trkpt>
      <trkpt lat="47.30104" lon="-1.34556">
        <ele>56</ele>
        <time>2021-03-27T09:44:39.000Z</time>
      </trkpt>
      <trkpt lat="47.30104" lon="-1.3454">
        <ele>56</ele>
        <time>2021-03-27T09:44:41.000Z</time>
      </trkpt>
      <trkpt lat="47.30098" lon="-1.34527">
        <ele>56</ele>
        <time>2021-03-27T09:44:43.000Z</time>
      </trkpt>
      <trkpt lat="47.3009" lon="-1.34514">
        <ele>55</ele>
        <time>2021-03-27T09:44:45.000Z</time>
      </trkpt>
      <trkpt lat="47.30083" lon="-1.34501">
        <ele>55</ele>
        <time>2021-03-27T09:44:47.000Z</time>
      </trkpt>
      <trkpt lat="47.3008" lon="-1.34485">
        <ele>55</ele>
        <time>2021-03-27T09:44:49.000Z</time>
      </trkpt>
      <trkpt lat="47.30076" lon="-1.3446">
        <ele>55</ele>
        <time>2021-03-27T09:44:52.000Z</time>
      </trkpt>
      <trkpt lat="47.30078" lon="-1.3444">
        <ele>53</ele>
        <time>2021-03-27T09:44:54.000Z</time>
      </trkpt>
      <trkpt lat="47.30078" lon="-1.34419">
        <ele>53</ele>
        <time>2021-03-27T09:44:56.000Z</time>
      </trkpt>
      <trkpt lat="47.3007" lon="-1.34404">
        <ele>53</ele>
        <time>2021-03-27T09:44:58.000Z</time>
      </trkpt>
      <trkpt lat="47.30066" lon="-1.34386">
        <ele>53</ele>
        <time>2021-03-27T09:45:00.000Z</time>
      </trkpt>
      <trkpt lat="47.30062" lon="-1.34368">
        <ele>54</ele>
        <time>2021-03-27T09:45:02.000Z</time>
      </trkpt>
      <trkpt lat="47.30058" lon="-1.3435">
        <ele>53</ele>
        <time>2021-03-27T09:45:04.000Z</time>
      </trkpt>
      <trkpt lat="47.30054" lon="-1.34331">
        <ele>53</ele>
        <time>2021-03-27T09:45:06.000Z</time>
      </trkpt>
      <trkpt lat="47.3005" lon="-1.34313">
        <ele>53</ele>
        <time>2021-03-27T09:45:08.000Z</time>
      </trkpt>
      <trkpt lat="47.30043" lon="-1.34283">
        <ele>49</ele>
        <time>2021-03-27T09:45:11.000Z</time>
      </trkpt>
      <trkpt lat="47.30041" lon="-1.34263">
        <ele>51</ele>
        <time>2021-03-27T09:45:13.000Z</time>
      </trkpt>
      <trkpt lat="47.30037" lon="-1.34245">
        <ele>51</ele>
        <time>2021-03-27T09:45:15.000Z</time>
      </trkpt>
      <trkpt lat="47.30033" lon="-1.34226">
        <ele>52</ele>
        <time>2021-03-27T09:45:17.000Z</time>
      </trkpt>
      <trkpt lat="47.30029" lon="-1.34206">
        <ele>51</ele>
        <time>2021-03-27T09:45:19.000Z</time>
      </trkpt>
      <trkpt lat="47.30024" lon="-1.34186">
        <ele>52</ele>
        <time>2021-03-27T09:45:21.000Z</time>
      </trkpt>
      <trkpt lat="47.30021" lon="-1.34169">
        <ele>53</ele>
        <time>2021-03-27T09:45:23.000Z</time>
      </trkpt>
      <trkpt lat="47.30018" lon="-1.34152">
        <ele>54</ele>
        <time>2021-03-27T09:45:25.000Z</time>
      </trkpt>
      <trkpt lat="47.30017" lon="-1.34126">
        <ele>54</ele>
        <time>2021-03-27T09:45:28.000Z</time>
      </trkpt>
      <trkpt lat="47.30024" lon="-1.34113">
        <ele>54</ele>
        <time>2021-03-27T09:45:30.000Z</time>
      </trkpt>
      <trkpt lat="47.30036" lon="-1.34107">
        <ele>54</ele>
        <time>2021-03-27T09:45:32.000Z</time>
      </trkpt>
      <trkpt lat="47.30049" lon="-1.34103">
        <ele>54</ele>
        <time>2021-03-27T09:45:34.000Z</time>
      </trkpt>
      <trkpt lat="47.30066" lon="-1.34101">
        <ele>54</ele>
        <time>2021-03-27T09:45:37.000Z</time>
      </trkpt>
      <trkpt lat="47.30075" lon="-1.34114">
        <ele>54</ele>
        <time>2021-03-27T09:45:39.000Z</time>
      </trkpt>
      <trkpt lat="47.30088" lon="-1.34127">
        <ele>54</ele>
        <time>2021-03-27T09:45:42.000Z</time>
      </trkpt>
      <trkpt lat="47.30095" lon="-1.34135">
        <ele>56</ele>
        <time>2021-03-27T09:45:44.000Z</time>
      </trkpt>
      <trkpt lat="47.30105" lon="-1.34137">
        <ele>57</ele>
        <time>2021-03-27T09:45:48.000Z</time>
      </trkpt>
      <trkpt lat="47.30108" lon="-1.3412">
        <ele>58</ele>
        <time>2021-03-27T09:45:51.000Z</time>
      </trkpt>
      <trkpt lat="47.30113" lon="-1.34101">
        <ele>58</ele>
        <time>2021-03-27T09:45:54.000Z</time>
      </trkpt>
      <trkpt lat="47.3012" lon="-1.34084">
        <ele>59</ele>
        <time>2021-03-27T09:45:57.000Z</time>
      </trkpt>
      <trkpt lat="47.30128" lon="-1.34073">
        <ele>60</ele>
        <time>2021-03-27T09:45:59.000Z</time>
      </trkpt>
      <trkpt lat="47.3014" lon="-1.34062">
        <ele>58</ele>
        <time>2021-03-27T09:46:02.000Z</time>
      </trkpt>
      <trkpt lat="47.30153" lon="-1.34049">
        <ele>57</ele>
        <time>2021-03-27T09:46:05.000Z</time>
      </trkpt>
      <trkpt lat="47.30162" lon="-1.34039">
        <ele>57</ele>
        <time>2021-03-27T09:46:07.000Z</time>
      </trkpt>
      <trkpt lat="47.3017" lon="-1.34029">
        <ele>57</ele>
        <time>2021-03-27T09:46:09.000Z</time>
      </trkpt>
      <trkpt lat="47.30179" lon="-1.34019">
        <ele>57</ele>
        <time>2021-03-27T09:46:11.000Z</time>
      </trkpt>
      <trkpt lat="47.3019" lon="-1.3401">
        <ele>57</ele>
        <time>2021-03-27T09:46:13.000Z</time>
      </trkpt>
      <trkpt lat="47.30198" lon="-1.34002">
        <ele>56</ele>
        <time>2021-03-27T09:46:15.000Z</time>
      </trkpt>
      <trkpt lat="47.30209" lon="-1.3399">
        <ele>55</ele>
        <time>2021-03-27T09:46:18.000Z</time>
      </trkpt>
      <trkpt lat="47.3022" lon="-1.33993">
        <ele>58</ele>
        <time>2021-03-27T09:46:22.001Z</time>
      </trkpt>
      <trkpt lat="47.30225" lon="-1.34004">
        <ele>64</ele>
        <time>2021-03-27T09:46:23.999Z</time>
      </trkpt>
      <trkpt lat="47.30229" lon="-1.34017">
        <ele>66</ele>
        <time>2021-03-27T09:46:26.000Z</time>
      </trkpt>
      <trkpt lat="47.30233" lon="-1.3403">
        <ele>65</ele>
        <time>2021-03-27T09:46:28.000Z</time>
      </trkpt>
      <trkpt lat="47.30239" lon="-1.34056">
        <ele>64</ele>
        <time>2021-03-27T09:46:31.999Z</time>
      </trkpt>
      <trkpt lat="47.30245" lon="-1.34067">
        <ele>65</ele>
        <time>2021-03-27T09:46:34.000Z</time>
      </trkpt>
      <trkpt lat="47.3025" lon="-1.34081">
        <ele>63</ele>
        <time>2021-03-27T09:46:36.000Z</time>
      </trkpt>
      <trkpt lat="47.30255" lon="-1.34094">
        <ele>62</ele>
        <time>2021-03-27T09:46:38.000Z</time>
      </trkpt>
      <trkpt lat="47.30263" lon="-1.34099">
        <ele>61</ele>
        <time>2021-03-27T09:46:40.000Z</time>
      </trkpt>
      <trkpt lat="47.30271" lon="-1.34092">
        <ele>59</ele>
        <time>2021-03-27T09:46:43.000Z</time>
      </trkpt>
      <trkpt lat="47.3028" lon="-1.34081">
        <ele>59</ele>
        <time>2021-03-27T09:46:46.000Z</time>
      </trkpt>
      <trkpt lat="47.30289" lon="-1.34071">
        <ele>59</ele>
        <time>2021-03-27T09:46:48.000Z</time>
      </trkpt>
      <trkpt lat="47.30303" lon="-1.34057">
        <ele>58</ele>
        <time>2021-03-27T09:46:51.000Z</time>
      </trkpt>
      <trkpt lat="47.3031" lon="-1.34047">
        <ele>58</ele>
        <time>2021-03-27T09:46:53.000Z</time>
      </trkpt>
      <trkpt lat="47.30316" lon="-1.34035">
        <ele>58</ele>
        <time>2021-03-27T09:46:55.000Z</time>
      </trkpt>
      <trkpt lat="47.30325" lon="-1.34024">
        <ele>57</ele>
        <time>2021-03-27T09:46:58.000Z</time>
      </trkpt>
      <trkpt lat="47.30332" lon="-1.34013">
        <ele>58</ele>
        <time>2021-03-27T09:47:01.000Z</time>
      </trkpt>
      <trkpt lat="47.30339" lon="-1.34004">
        <ele>58</ele>
        <time>2021-03-27T09:47:04.000Z</time>
      </trkpt>
      <trkpt lat="47.30348" lon="-1.33991">
        <ele>58</ele>
        <time>2021-03-27T09:47:08.000Z</time>
      </trkpt>
      <trkpt lat="47.30353" lon="-1.33973">
        <ele>55</ele>
        <time>2021-03-27T09:47:11.000Z</time>
      </trkpt>
      <trkpt lat="47.30358" lon="-1.3396">
        <ele>56</ele>
        <time>2021-03-27T09:47:14.000Z</time>
      </trkpt>
      <trkpt lat="47.30368" lon="-1.33953">
        <ele>57</ele>
        <time>2021-03-27T09:47:17.000Z</time>
      </trkpt>
      <trkpt lat="47.30377" lon="-1.33956">
        <ele>57</ele>
        <time>2021-03-27T09:47:19.000Z</time>
      </trkpt>
      <trkpt lat="47.30388" lon="-1.33943">
        <ele>58</ele>
        <time>2021-03-27T09:47:22.000Z</time>
      </trkpt>
      <trkpt lat="47.30396" lon="-1.33935">
        <ele>58</ele>
        <time>2021-03-27T09:47:24.000Z</time>
      </trkpt>
      <trkpt lat="47.30402" lon="-1.33925">
        <ele>58</ele>
        <time>2021-03-27T09:47:26.000Z</time>
      </trkpt>
      <trkpt lat="47.30409" lon="-1.33915">
        <ele>58</ele>
        <time>2021-03-27T09:47:28.000Z</time>
      </trkpt>
      <trkpt lat="47.30417" lon="-1.33904">
        <ele>58</ele>
        <time>2021-03-27T09:47:30.000Z</time>
      </trkpt>
      <trkpt lat="47.30424" lon="-1.33893">
        <ele>57</ele>
        <time>2021-03-27T09:47:32.000Z</time>
      </trkpt>
      <trkpt lat="47.30435" lon="-1.33884">
        <ele>59</ele>
        <time>2021-03-27T09:47:34.000Z</time>
      </trkpt>
      <trkpt lat="47.30447" lon="-1.3387">
        <ele>61</ele>
        <time>2021-03-27T09:47:37.000Z</time>
      </trkpt>
      <trkpt lat="47.30457" lon="-1.3386">
        <ele>61</ele>
        <time>2021-03-27T09:47:39.000Z</time>
      </trkpt>
      <trkpt lat="47.30466" lon="-1.33849">
        <ele>60</ele>
        <time>2021-03-27T09:47:41.000Z</time>
      </trkpt>
      <trkpt lat="47.30477" lon="-1.33838">
        <ele>60</ele>
        <time>2021-03-27T09:47:43.000Z</time>
      </trkpt>
      <trkpt lat="47.30488" lon="-1.3383">
        <ele>60</ele>
        <time>2021-03-27T09:47:45.000Z</time>
      </trkpt>
      <trkpt lat="47.30505" lon="-1.33819">
        <ele>58</ele>
        <time>2021-03-27T09:47:48.000Z</time>
      </trkpt>
      <trkpt lat="47.30517" lon="-1.33813">
        <ele>57</ele>
        <time>2021-03-27T09:47:50.000Z</time>
      </trkpt>
      <trkpt lat="47.30528" lon="-1.33806">
        <ele>57</ele>
        <time>2021-03-27T09:47:52.000Z</time>
      </trkpt>
      <trkpt lat="47.3054" lon="-1.33799">
        <ele>57</ele>
        <time>2021-03-27T09:47:54.000Z</time>
      </trkpt>
      <trkpt lat="47.30558" lon="-1.33787">
        <ele>56</ele>
        <time>2021-03-27T09:47:57.000Z</time>
      </trkpt>
      <trkpt lat="47.30571" lon="-1.3378">
        <ele>55</ele>
        <time>2021-03-27T09:47:59.000Z</time>
      </trkpt>
      <trkpt lat="47.30583" lon="-1.33775">
        <ele>56</ele>
        <time>2021-03-27T09:48:01.000Z</time>
      </trkpt>
      <trkpt lat="47.30595" lon="-1.33771">
        <ele>56</ele>
        <time>2021-03-27T09:48:03.000Z</time>
      </trkpt>
      <trkpt lat="47.30608" lon="-1.33766">
        <ele>56</ele>
        <time>2021-03-27T09:48:05.000Z</time>
      </trkpt>
      <trkpt lat="47.30626" lon="-1.33759">
        <ele>56</ele>
        <time>2021-03-27T09:48:08.000Z</time>
      </trkpt>
      <trkpt lat="47.30639" lon="-1.33753">
        <ele>56</ele>
        <time>2021-03-27T09:48:10.000Z</time>
      </trkpt>
      <trkpt lat="47.30653" lon="-1.33749">
        <ele>55</ele>
        <time>2021-03-27T09:48:12.000Z</time>
      </trkpt>
      <trkpt lat="47.30666" lon="-1.33744">
        <ele>52</ele>
        <time>2021-03-27T09:48:14.000Z</time>
      </trkpt>
      <trkpt lat="47.30679" lon="-1.33735">
        <ele>51</ele>
        <time>2021-03-27T09:48:16.000Z</time>
      </trkpt>
      <trkpt lat="47.30697" lon="-1.33716">
        <ele>53</ele>
        <time>2021-03-27T09:48:19.000Z</time>
      </trkpt>
      <trkpt lat="47.30705" lon="-1.33702">
        <ele>53</ele>
        <time>2021-03-27T09:48:21.000Z</time>
      </trkpt>
      <trkpt lat="47.30713" lon="-1.33683">
        <ele>54</ele>
        <time>2021-03-27T09:48:23.000Z</time>
      </trkpt>
      <trkpt lat="47.30719" lon="-1.33667">
        <ele>55</ele>
        <time>2021-03-27T09:48:25.000Z</time>
      </trkpt>
      <trkpt lat="47.30723" lon="-1.33651">
        <ele>56</ele>
        <time>2021-03-27T09:48:27.000Z</time>
      </trkpt>
      <trkpt lat="47.30725" lon="-1.33635">
        <ele>56</ele>
        <time>2021-03-27T09:48:29.000Z</time>
      </trkpt>
      <trkpt lat="47.30723" lon="-1.3362">
        <ele>56</ele>
        <time>2021-03-27T09:48:31.000Z</time>
      </trkpt>
      <trkpt lat="47.30718" lon="-1.33604">
        <ele>56</ele>
        <time>2021-03-27T09:48:33.000Z</time>
      </trkpt>
      <trkpt lat="47.30707" lon="-1.33572">
        <ele>53</ele>
        <time>2021-03-27T09:48:37.000Z</time>
      </trkpt>
      <trkpt lat="47.30701" lon="-1.33555">
        <ele>53</ele>
        <time>2021-03-27T09:48:39.001Z</time>
      </trkpt>
      <trkpt lat="47.30696" lon="-1.33539">
        <ele>54</ele>
        <time>2021-03-27T09:48:41.000Z</time>
      </trkpt>
      <trkpt lat="47.3069" lon="-1.33522">
        <ele>55</ele>
        <time>2021-03-27T09:48:43.000Z</time>
      </trkpt>
      <trkpt lat="47.30685" lon="-1.33507">
        <ele>55</ele>
        <time>2021-03-27T09:48:45.000Z</time>
      </trkpt>
      <trkpt lat="47.3068" lon="-1.33491">
        <ele>54</ele>
        <time>2021-03-27T09:48:47.000Z</time>
      </trkpt>
      <trkpt lat="47.30674" lon="-1.33475">
        <ele>53</ele>
        <time>2021-03-27T09:48:49.000Z</time>
      </trkpt>
      <trkpt lat="47.30668" lon="-1.33457">
        <ele>54</ele>
        <time>2021-03-27T09:48:51.000Z</time>
      </trkpt>
      <trkpt lat="47.30663" lon="-1.33441">
        <ele>54</ele>
        <time>2021-03-27T09:48:53.000Z</time>
      </trkpt>
      <trkpt lat="47.30657" lon="-1.33424">
        <ele>54</ele>
        <time>2021-03-27T09:48:55.000Z</time>
      </trkpt>
      <trkpt lat="47.30651" lon="-1.33407">
        <ele>54</ele>
        <time>2021-03-27T09:48:57.000Z</time>
      </trkpt>
      <trkpt lat="47.30643" lon="-1.33381">
        <ele>55</ele>
        <time>2021-03-27T09:49:00.000Z</time>
      </trkpt>
      <trkpt lat="47.30637" lon="-1.33365">
        <ele>55</ele>
        <time>2021-03-27T09:49:02.000Z</time>
      </trkpt>
      <trkpt lat="47.30631" lon="-1.3335">
        <ele>55</ele>
        <time>2021-03-27T09:49:04.000Z</time>
      </trkpt>
      <trkpt lat="47.30623" lon="-1.33333">
        <ele>55</ele>
        <time>2021-03-27T09:49:06.000Z</time>
      </trkpt>
      <trkpt lat="47.30617" lon="-1.33316">
        <ele>55</ele>
        <time>2021-03-27T09:49:08.000Z</time>
      </trkpt>
      <trkpt lat="47.30613" lon="-1.33298">
        <ele>56</ele>
        <time>2021-03-27T09:49:10.001Z</time>
      </trkpt>
      <trkpt lat="47.30613" lon="-1.33278">
        <ele>56</ele>
        <time>2021-03-27T09:49:12.000Z</time>
      </trkpt>
      <trkpt lat="47.30616" lon="-1.33258">
        <ele>57</ele>
        <time>2021-03-27T09:49:14.000Z</time>
      </trkpt>
      <trkpt lat="47.30623" lon="-1.33242">
        <ele>57</ele>
        <time>2021-03-27T09:49:16.000Z</time>
      </trkpt>
      <trkpt lat="47.30633" lon="-1.3323">
        <ele>57</ele>
        <time>2021-03-27T09:49:18.000Z</time>
      </trkpt>
      <trkpt lat="47.30646" lon="-1.33224">
        <ele>56</ele>
        <time>2021-03-27T09:49:20.000Z</time>
      </trkpt>
      <trkpt lat="47.30659" lon="-1.3322">
        <ele>56</ele>
        <time>2021-03-27T09:49:22.000Z</time>
      </trkpt>
      <trkpt lat="47.30673" lon="-1.33215">
        <ele>56</ele>
        <time>2021-03-27T09:49:24.000Z</time>
      </trkpt>
      <trkpt lat="47.30687" lon="-1.33212">
        <ele>58</ele>
        <time>2021-03-27T09:49:26.000Z</time>
      </trkpt>
      <trkpt lat="47.30702" lon="-1.33208">
        <ele>59</ele>
        <time>2021-03-27T09:49:27.999Z</time>
      </trkpt>
      <trkpt lat="47.30714" lon="-1.33202">
        <ele>58</ele>
        <time>2021-03-27T09:49:30.000Z</time>
      </trkpt>
      <trkpt lat="47.30733" lon="-1.33195">
        <ele>55</ele>
        <time>2021-03-27T09:49:33.000Z</time>
      </trkpt>
      <trkpt lat="47.30751" lon="-1.33187">
        <ele>56</ele>
        <time>2021-03-27T09:49:36.000Z</time>
      </trkpt>
      <trkpt lat="47.3077" lon="-1.33179">
        <ele>56</ele>
        <time>2021-03-27T09:49:39.000Z</time>
      </trkpt>
      <trkpt lat="47.30783" lon="-1.33172">
        <ele>55</ele>
        <time>2021-03-27T09:49:41.000Z</time>
      </trkpt>
      <trkpt lat="47.30795" lon="-1.33166">
        <ele>55</ele>
        <time>2021-03-27T09:49:43.000Z</time>
      </trkpt>
      <trkpt lat="47.30808" lon="-1.3316">
        <ele>56</ele>
        <time>2021-03-27T09:49:45.000Z</time>
      </trkpt>
      <trkpt lat="47.30821" lon="-1.33156">
        <ele>57</ele>
        <time>2021-03-27T09:49:47.000Z</time>
      </trkpt>
      <trkpt lat="47.30833" lon="-1.3315">
        <ele>56</ele>
        <time>2021-03-27T09:49:49.000Z</time>
      </trkpt>
      <trkpt lat="47.30852" lon="-1.33142">
        <ele>56</ele>
        <time>2021-03-27T09:49:52.000Z</time>
      </trkpt>
      <trkpt lat="47.30865" lon="-1.33138">
        <ele>57</ele>
        <time>2021-03-27T09:49:54.000Z</time>
      </trkpt>
      <trkpt lat="47.30878" lon="-1.33133">
        <ele>57</ele>
        <time>2021-03-27T09:49:56.000Z</time>
      </trkpt>
      <trkpt lat="47.30891" lon="-1.33127">
        <ele>56</ele>
        <time>2021-03-27T09:49:58.000Z</time>
      </trkpt>
      <trkpt lat="47.3091" lon="-1.33117">
        <ele>56</ele>
        <time>2021-03-27T09:50:01.000Z</time>
      </trkpt>
      <trkpt lat="47.30924" lon="-1.33112">
        <ele>56</ele>
        <time>2021-03-27T09:50:03.000Z</time>
      </trkpt>
      <trkpt lat="47.30937" lon="-1.33107">
        <ele>55</ele>
        <time>2021-03-27T09:50:05.000Z</time>
      </trkpt>
      <trkpt lat="47.3095" lon="-1.331">
        <ele>55</ele>
        <time>2021-03-27T09:50:07.000Z</time>
      </trkpt>
      <trkpt lat="47.30969" lon="-1.33092">
        <ele>56</ele>
        <time>2021-03-27T09:50:10.000Z</time>
      </trkpt>
      <trkpt lat="47.30982" lon="-1.33088">
        <ele>55</ele>
        <time>2021-03-27T09:50:12.000Z</time>
      </trkpt>
      <trkpt lat="47.31002" lon="-1.3308">
        <ele>55</ele>
        <time>2021-03-27T09:50:15.000Z</time>
      </trkpt>
      <trkpt lat="47.31022" lon="-1.33071">
        <ele>55</ele>
        <time>2021-03-27T09:50:18.000Z</time>
      </trkpt>
      <trkpt lat="47.31034" lon="-1.33066">
        <ele>56</ele>
        <time>2021-03-27T09:50:20.000Z</time>
      </trkpt>
      <trkpt lat="47.31047" lon="-1.3306">
        <ele>56</ele>
        <time>2021-03-27T09:50:22.000Z</time>
      </trkpt>
      <trkpt lat="47.31059" lon="-1.33053">
        <ele>57</ele>
        <time>2021-03-27T09:50:24.000Z</time>
      </trkpt>
      <trkpt lat="47.31071" lon="-1.33047">
        <ele>58</ele>
        <time>2021-03-27T09:50:26.000Z</time>
      </trkpt>
      <trkpt lat="47.31091" lon="-1.33038">
        <ele>56</ele>
        <time>2021-03-27T09:50:29.000Z</time>
      </trkpt>
      <trkpt lat="47.31104" lon="-1.33033">
        <ele>54</ele>
        <time>2021-03-27T09:50:31.000Z</time>
      </trkpt>
      <trkpt lat="47.31117" lon="-1.33029">
        <ele>55</ele>
        <time>2021-03-27T09:50:33.000Z</time>
      </trkpt>
      <trkpt lat="47.31129" lon="-1.33026">
        <ele>55</ele>
        <time>2021-03-27T09:50:35.000Z</time>
      </trkpt>
      <trkpt lat="47.31142" lon="-1.33021">
        <ele>56</ele>
        <time>2021-03-27T09:50:37.000Z</time>
      </trkpt>
      <trkpt lat="47.31155" lon="-1.33017">
        <ele>56</ele>
        <time>2021-03-27T09:50:39.000Z</time>
      </trkpt>
      <trkpt lat="47.31174" lon="-1.33011">
        <ele>55</ele>
        <time>2021-03-27T09:50:42.000Z</time>
      </trkpt>
      <trkpt lat="47.31186" lon="-1.33005">
        <ele>52</ele>
        <time>2021-03-27T09:50:44.000Z</time>
      </trkpt>
      <trkpt lat="47.31198" lon="-1.32998">
        <ele>52</ele>
        <time>2021-03-27T09:50:46.000Z</time>
      </trkpt>
      <trkpt lat="47.31211" lon="-1.32994">
        <ele>54</ele>
        <time>2021-03-27T09:50:48.000Z</time>
      </trkpt>
      <trkpt lat="47.31224" lon="-1.32988">
        <ele>55</ele>
        <time>2021-03-27T09:50:50.000Z</time>
      </trkpt>
      <trkpt lat="47.31236" lon="-1.32981">
        <ele>55</ele>
        <time>2021-03-27T09:50:52.000Z</time>
      </trkpt>
      <trkpt lat="47.31249" lon="-1.32973">
        <ele>55</ele>
        <time>2021-03-27T09:50:54.000Z</time>
      </trkpt>
      <trkpt lat="47.31267" lon="-1.3296">
        <ele>55</ele>
        <time>2021-03-27T09:50:57.000Z</time>
      </trkpt>
      <trkpt lat="47.31279" lon="-1.32952">
        <ele>55</ele>
        <time>2021-03-27T09:50:59.000Z</time>
      </trkpt>
      <trkpt lat="47.3129" lon="-1.32942">
        <ele>55</ele>
        <time>2021-03-27T09:51:01.000Z</time>
      </trkpt>
      <trkpt lat="47.31302" lon="-1.32932">
        <ele>55</ele>
        <time>2021-03-27T09:51:03.000Z</time>
      </trkpt>
      <trkpt lat="47.31318" lon="-1.32917">
        <ele>56</ele>
        <time>2021-03-27T09:51:06.000Z</time>
      </trkpt>
      <trkpt lat="47.31328" lon="-1.32907">
        <ele>56</ele>
        <time>2021-03-27T09:51:08.000Z</time>
      </trkpt>
      <trkpt lat="47.31339" lon="-1.32897">
        <ele>56</ele>
        <time>2021-03-27T09:51:10.000Z</time>
      </trkpt>
      <trkpt lat="47.31351" lon="-1.32888">
        <ele>57</ele>
        <time>2021-03-27T09:51:12.000Z</time>
      </trkpt>
      <trkpt lat="47.31368" lon="-1.32873">
        <ele>57</ele>
        <time>2021-03-27T09:51:15.000Z</time>
      </trkpt>
      <trkpt lat="47.31379" lon="-1.32864">
        <ele>56</ele>
        <time>2021-03-27T09:51:17.000Z</time>
      </trkpt>
      <trkpt lat="47.3139" lon="-1.32854">
        <ele>56</ele>
        <time>2021-03-27T09:51:19.000Z</time>
      </trkpt>
      <trkpt lat="47.31401" lon="-1.32845">
        <ele>56</ele>
        <time>2021-03-27T09:51:21.000Z</time>
      </trkpt>
      <trkpt lat="47.31413" lon="-1.32837">
        <ele>56</ele>
        <time>2021-03-27T09:51:23.000Z</time>
      </trkpt>
      <trkpt lat="47.31425" lon="-1.32827">
        <ele>56</ele>
        <time>2021-03-27T09:51:25.000Z</time>
      </trkpt>
      <trkpt lat="47.31441" lon="-1.32813">
        <ele>55</ele>
        <time>2021-03-27T09:51:28.000Z</time>
      </trkpt>
      <trkpt lat="47.31459" lon="-1.32798">
        <ele>55</ele>
        <time>2021-03-27T09:51:31.000Z</time>
      </trkpt>
      <trkpt lat="47.31471" lon="-1.32791">
        <ele>54</ele>
        <time>2021-03-27T09:51:33.000Z</time>
      </trkpt>
      <trkpt lat="47.31481" lon="-1.32781">
        <ele>56</ele>
        <time>2021-03-27T09:51:35.000Z</time>
      </trkpt>
      <trkpt lat="47.31492" lon="-1.32768">
        <ele>56</ele>
        <time>2021-03-27T09:51:37.000Z</time>
      </trkpt>
      <trkpt lat="47.31502" lon="-1.32756">
        <ele>58</ele>
        <time>2021-03-27T09:51:39.000Z</time>
      </trkpt>
      <trkpt lat="47.31511" lon="-1.32745">
        <ele>58</ele>
        <time>2021-03-27T09:51:41.000Z</time>
      </trkpt>
      <trkpt lat="47.3152" lon="-1.32729">
        <ele>56</ele>
        <time>2021-03-27T09:51:43.000Z</time>
      </trkpt>
      <trkpt lat="47.31531" lon="-1.3272">
        <ele>57</ele>
        <time>2021-03-27T09:51:45.000Z</time>
      </trkpt>
      <trkpt lat="47.3154" lon="-1.32709">
        <ele>57</ele>
        <time>2021-03-27T09:51:47.000Z</time>
      </trkpt>
      <trkpt lat="47.3155" lon="-1.32697">
        <ele>57</ele>
        <time>2021-03-27T09:51:49.000Z</time>
      </trkpt>
      <trkpt lat="47.3156" lon="-1.32685">
        <ele>57</ele>
        <time>2021-03-27T09:51:51.000Z</time>
      </trkpt>
      <trkpt lat="47.3157" lon="-1.32673">
        <ele>57</ele>
        <time>2021-03-27T09:51:53.000Z</time>
      </trkpt>
      <trkpt lat="47.3158" lon="-1.32661">
        <ele>57</ele>
        <time>2021-03-27T09:51:55.000Z</time>
      </trkpt>
      <trkpt lat="47.31595" lon="-1.32641">
        <ele>55</ele>
        <time>2021-03-27T09:51:58.000Z</time>
      </trkpt>
      <trkpt lat="47.31606" lon="-1.32622">
        <ele>56</ele>
        <time>2021-03-27T09:52:00.000Z</time>
      </trkpt>
      <trkpt lat="47.31615" lon="-1.32608">
        <ele>57</ele>
        <time>2021-03-27T09:52:02.000Z</time>
      </trkpt>
      <trkpt lat="47.31623" lon="-1.32593">
        <ele>58</ele>
        <time>2021-03-27T09:52:04.000Z</time>
      </trkpt>
      <trkpt lat="47.3163" lon="-1.32578">
        <ele>58</ele>
        <time>2021-03-27T09:52:06.000Z</time>
      </trkpt>
      <trkpt lat="47.31639" lon="-1.32563">
        <ele>57</ele>
        <time>2021-03-27T09:52:08.000Z</time>
      </trkpt>
      <trkpt lat="47.31647" lon="-1.32546">
        <ele>58</ele>
        <time>2021-03-27T09:52:10.000Z</time>
      </trkpt>
      <trkpt lat="47.31656" lon="-1.3253">
        <ele>58</ele>
        <time>2021-03-27T09:52:12.000Z</time>
      </trkpt>
      <trkpt lat="47.31664" lon="-1.32514">
        <ele>58</ele>
        <time>2021-03-27T09:52:14.001Z</time>
      </trkpt>
      <trkpt lat="47.31671" lon="-1.32497">
        <ele>58</ele>
        <time>2021-03-27T09:52:16.000Z</time>
      </trkpt>
      <trkpt lat="47.31678" lon="-1.32478">
        <ele>57</ele>
        <time>2021-03-27T09:52:18.000Z</time>
      </trkpt>
      <trkpt lat="47.31683" lon="-1.3246">
        <ele>58</ele>
        <time>2021-03-27T09:52:20.000Z</time>
      </trkpt>
      <trkpt lat="47.31684" lon="-1.3244">
        <ele>60</ele>
        <time>2021-03-27T09:52:22.000Z</time>
      </trkpt>
      <trkpt lat="47.31687" lon="-1.32421">
        <ele>62</ele>
        <time>2021-03-27T09:52:24.000Z</time>
      </trkpt>
      <trkpt lat="47.31687" lon="-1.32401">
        <ele>62</ele>
        <time>2021-03-27T09:52:26.000Z</time>
      </trkpt>
      <trkpt lat="47.3169" lon="-1.32371">
        <ele>61</ele>
        <time>2021-03-27T09:52:29.000Z</time>
      </trkpt>
      <trkpt lat="47.31694" lon="-1.32353">
        <ele>57</ele>
        <time>2021-03-27T09:52:31.000Z</time>
      </trkpt>
      <trkpt lat="47.31698" lon="-1.32332">
        <ele>57</ele>
        <time>2021-03-27T09:52:33.000Z</time>
      </trkpt>
      <trkpt lat="47.31703" lon="-1.32312">
        <ele>57</ele>
        <time>2021-03-27T09:52:35.000Z</time>
      </trkpt>
      <trkpt lat="47.31707" lon="-1.32291">
        <ele>57</ele>
        <time>2021-03-27T09:52:37.000Z</time>
      </trkpt>
      <trkpt lat="47.3171" lon="-1.32271">
        <ele>57</ele>
        <time>2021-03-27T09:52:39.000Z</time>
      </trkpt>
      <trkpt lat="47.31714" lon="-1.32251">
        <ele>57</ele>
        <time>2021-03-27T09:52:41.000Z</time>
      </trkpt>
      <trkpt lat="47.31717" lon="-1.32232">
        <ele>57</ele>
        <time>2021-03-27T09:52:43.000Z</time>
      </trkpt>
      <trkpt lat="47.31721" lon="-1.32213">
        <ele>57</ele>
        <time>2021-03-27T09:52:45.000Z</time>
      </trkpt>
      <trkpt lat="47.31722" lon="-1.32182">
        <ele>56</ele>
        <time>2021-03-27T09:52:48.000Z</time>
      </trkpt>
      <trkpt lat="47.31725" lon="-1.32163">
        <ele>57</ele>
        <time>2021-03-27T09:52:50.000Z</time>
      </trkpt>
      <trkpt lat="47.31731" lon="-1.32134">
        <ele>58</ele>
        <time>2021-03-27T09:52:53.001Z</time>
      </trkpt>
      <trkpt lat="47.31738" lon="-1.32116">
        <ele>63</ele>
        <time>2021-03-27T09:52:55.000Z</time>
      </trkpt>
      <trkpt lat="47.31744" lon="-1.32102">
        <ele>64</ele>
        <time>2021-03-27T09:52:57.000Z</time>
      </trkpt>
      <trkpt lat="47.3175" lon="-1.32088">
        <ele>63</ele>
        <time>2021-03-27T09:52:59.000Z</time>
      </trkpt>
      <trkpt lat="47.31756" lon="-1.32072">
        <ele>62</ele>
        <time>2021-03-27T09:53:01.000Z</time>
      </trkpt>
      <trkpt lat="47.31762" lon="-1.32059">
        <ele>60</ele>
        <time>2021-03-27T09:53:03.000Z</time>
      </trkpt>
      <trkpt lat="47.31768" lon="-1.32044">
        <ele>60</ele>
        <time>2021-03-27T09:53:05.000Z</time>
      </trkpt>
      <trkpt lat="47.31774" lon="-1.32028">
        <ele>60</ele>
        <time>2021-03-27T09:53:06.999Z</time>
      </trkpt>
      <trkpt lat="47.31779" lon="-1.32011">
        <ele>59</ele>
        <time>2021-03-27T09:53:09.000Z</time>
      </trkpt>
      <trkpt lat="47.31784" lon="-1.31994">
        <ele>59</ele>
        <time>2021-03-27T09:53:11.000Z</time>
      </trkpt>
      <trkpt lat="47.31789" lon="-1.31979">
        <ele>60</ele>
        <time>2021-03-27T09:53:13.000Z</time>
      </trkpt>
      <trkpt lat="47.31793" lon="-1.31965">
        <ele>60</ele>
        <time>2021-03-27T09:53:15.000Z</time>
      </trkpt>
      <trkpt lat="47.31798" lon="-1.31954">
        <ele>59</ele>
        <time>2021-03-27T09:53:17.000Z</time>
      </trkpt>
      <trkpt lat="47.3181" lon="-1.31947">
        <ele>59</ele>
        <time>2021-03-27T09:53:20.000Z</time>
      </trkpt>
      <trkpt lat="47.31819" lon="-1.31952">
        <ele>59</ele>
        <time>2021-03-27T09:53:22.000Z</time>
      </trkpt>
      <trkpt lat="47.31831" lon="-1.31959">
        <ele>58</ele>
        <time>2021-03-27T09:53:24.000Z</time>
      </trkpt>
      <trkpt lat="47.31842" lon="-1.31967">
        <ele>58</ele>
        <time>2021-03-27T09:53:26.000Z</time>
      </trkpt>
      <trkpt lat="47.31855" lon="-1.31975">
        <ele>57</ele>
        <time>2021-03-27T09:53:28.000Z</time>
      </trkpt>
      <trkpt lat="47.31873" lon="-1.31986">
        <ele>55</ele>
        <time>2021-03-27T09:53:31.000Z</time>
      </trkpt>
      <trkpt lat="47.31882" lon="-1.3199">
        <ele>56</ele>
        <time>2021-03-27T09:53:33.000Z</time>
      </trkpt>
      <trkpt lat="47.31893" lon="-1.31994">
        <ele>57</ele>
        <time>2021-03-27T09:53:35.000Z</time>
      </trkpt>
      <trkpt lat="47.31906" lon="-1.31999">
        <ele>57</ele>
        <time>2021-03-27T09:53:37.000Z</time>
      </trkpt>
      <trkpt lat="47.31918" lon="-1.32002">
        <ele>57</ele>
        <time>2021-03-27T09:53:39.000Z</time>
      </trkpt>
      <trkpt lat="47.31929" lon="-1.32003">
        <ele>57</ele>
        <time>2021-03-27T09:53:41.001Z</time>
      </trkpt>
      <trkpt lat="47.31943" lon="-1.32">
        <ele>62</ele>
        <time>2021-03-27T09:53:44.000Z</time>
      </trkpt>
      <trkpt lat="47.31955" lon="-1.31993">
        <ele>64</ele>
        <time>2021-03-27T09:53:46.000Z</time>
      </trkpt>
      <trkpt lat="47.31967" lon="-1.31981">
        <ele>65</ele>
        <time>2021-03-27T09:53:47.999Z</time>
      </trkpt>
      <trkpt lat="47.31982" lon="-1.31956">
        <ele>66</ele>
        <time>2021-03-27T09:53:51.000Z</time>
      </trkpt>
      <trkpt lat="47.31993" lon="-1.31927">
        <ele>64</ele>
        <time>2021-03-27T09:53:54.000Z</time>
      </trkpt>
      <trkpt lat="47.32003" lon="-1.31899">
        <ele>62</ele>
        <time>2021-03-27T09:53:57.000Z</time>
      </trkpt>
      <trkpt lat="47.3201" lon="-1.31881">
        <ele>61</ele>
        <time>2021-03-27T09:53:58.999Z</time>
      </trkpt>
      <trkpt lat="47.32019" lon="-1.31852">
        <ele>60</ele>
        <time>2021-03-27T09:54:02.000Z</time>
      </trkpt>
      <trkpt lat="47.32026" lon="-1.31832">
        <ele>60</ele>
        <time>2021-03-27T09:54:04.000Z</time>
      </trkpt>
      <trkpt lat="47.32033" lon="-1.31814">
        <ele>60</ele>
        <time>2021-03-27T09:54:06.000Z</time>
      </trkpt>
      <trkpt lat="47.32039" lon="-1.31795">
        <ele>59</ele>
        <time>2021-03-27T09:54:08.000Z</time>
      </trkpt>
      <trkpt lat="47.32046" lon="-1.31777">
        <ele>59</ele>
        <time>2021-03-27T09:54:10.000Z</time>
      </trkpt>
      <trkpt lat="47.32057" lon="-1.31749">
        <ele>57</ele>
        <time>2021-03-27T09:54:13.000Z</time>
      </trkpt>
      <trkpt lat="47.32066" lon="-1.31732">
        <ele>56</ele>
        <time>2021-03-27T09:54:15.000Z</time>
      </trkpt>
      <trkpt lat="47.32074" lon="-1.31717">
        <ele>55</ele>
        <time>2021-03-27T09:54:17.000Z</time>
      </trkpt>
      <trkpt lat="47.32082" lon="-1.31699">
        <ele>55</ele>
        <time>2021-03-27T09:54:19.000Z</time>
      </trkpt>
      <trkpt lat="47.32091" lon="-1.31684">
        <ele>55</ele>
        <time>2021-03-27T09:54:21.000Z</time>
      </trkpt>
      <trkpt lat="47.321" lon="-1.31669">
        <ele>55</ele>
        <time>2021-03-27T09:54:23.000Z</time>
      </trkpt>
      <trkpt lat="47.32115" lon="-1.31648">
        <ele>59</ele>
        <time>2021-03-27T09:54:25.999Z</time>
      </trkpt>
      <trkpt lat="47.32125" lon="-1.31631">
        <ele>59</ele>
        <time>2021-03-27T09:54:28.000Z</time>
      </trkpt>
      <trkpt lat="47.32133" lon="-1.31612">
        <ele>56</ele>
        <time>2021-03-27T09:54:30.000Z</time>
      </trkpt>
      <trkpt lat="47.32141" lon="-1.316">
        <ele>56</ele>
        <time>2021-03-27T09:54:32.000Z</time>
      </trkpt>
      <trkpt lat="47.32153" lon="-1.31586">
        <ele>56</ele>
        <time>2021-03-27T09:54:34.000Z</time>
      </trkpt>
      <trkpt lat="47.32162" lon="-1.3157">
        <ele>57</ele>
        <time>2021-03-27T09:54:36.000Z</time>
      </trkpt>
      <trkpt lat="47.32171" lon="-1.31555">
        <ele>57</ele>
        <time>2021-03-27T09:54:38.001Z</time>
      </trkpt>
      <trkpt lat="47.32179" lon="-1.3154">
        <ele>56</ele>
        <time>2021-03-27T09:54:40.000Z</time>
      </trkpt>
      <trkpt lat="47.32188" lon="-1.31523">
        <ele>57</ele>
        <time>2021-03-27T09:54:42.000Z</time>
      </trkpt>
      <trkpt lat="47.32199" lon="-1.31508">
        <ele>57</ele>
        <time>2021-03-27T09:54:44.000Z</time>
      </trkpt>
      <trkpt lat="47.32208" lon="-1.31493">
        <ele>57</ele>
        <time>2021-03-27T09:54:46.000Z</time>
      </trkpt>
      <trkpt lat="47.32218" lon="-1.31478">
        <ele>57</ele>
        <time>2021-03-27T09:54:48.000Z</time>
      </trkpt>
      <trkpt lat="47.32226" lon="-1.31464">
        <ele>58</ele>
        <time>2021-03-27T09:54:50.000Z</time>
      </trkpt>
      <trkpt lat="47.32236" lon="-1.3145">
        <ele>58</ele>
        <time>2021-03-27T09:54:52.000Z</time>
      </trkpt>
      <trkpt lat="47.32245" lon="-1.31436">
        <ele>58</ele>
        <time>2021-03-27T09:54:54.000Z</time>
      </trkpt>
      <trkpt lat="47.32259" lon="-1.31415">
        <ele>58</ele>
        <time>2021-03-27T09:54:57.000Z</time>
      </trkpt>
      <trkpt lat="47.32272" lon="-1.31393">
        <ele>58</ele>
        <time>2021-03-27T09:55:00.000Z</time>
      </trkpt>
      <trkpt lat="47.32282" lon="-1.31378">
        <ele>58</ele>
        <time>2021-03-27T09:55:02.000Z</time>
      </trkpt>
      <trkpt lat="47.32292" lon="-1.31364">
        <ele>58</ele>
        <time>2021-03-27T09:55:04.000Z</time>
      </trkpt>
      <trkpt lat="47.32307" lon="-1.31343">
        <ele>57</ele>
        <time>2021-03-27T09:55:07.000Z</time>
      </trkpt>
      <trkpt lat="47.32315" lon="-1.31328">
        <ele>57</ele>
        <time>2021-03-27T09:55:09.000Z</time>
      </trkpt>
      <trkpt lat="47.32325" lon="-1.31315">
        <ele>57</ele>
        <time>2021-03-27T09:55:11.000Z</time>
      </trkpt>
      <trkpt lat="47.32333" lon="-1.31301">
        <ele>57</ele>
        <time>2021-03-27T09:55:13.000Z</time>
      </trkpt>
      <trkpt lat="47.32345" lon="-1.31278">
        <ele>55</ele>
        <time>2021-03-27T09:55:16.000Z</time>
      </trkpt>
      <trkpt lat="47.32355" lon="-1.31263">
        <ele>53</ele>
        <time>2021-03-27T09:55:18.000Z</time>
      </trkpt>
      <trkpt lat="47.32367" lon="-1.31249">
        <ele>51</ele>
        <time>2021-03-27T09:55:20.000Z</time>
      </trkpt>
      <trkpt lat="47.32376" lon="-1.31232">
        <ele>51</ele>
        <time>2021-03-27T09:55:22.000Z</time>
      </trkpt>
      <trkpt lat="47.32382" lon="-1.31214">
        <ele>52</ele>
        <time>2021-03-27T09:55:24.000Z</time>
      </trkpt>
      <trkpt lat="47.32386" lon="-1.31196">
        <ele>51</ele>
        <time>2021-03-27T09:55:26.000Z</time>
      </trkpt>
      <trkpt lat="47.3239" lon="-1.31179">
        <ele>49</ele>
        <time>2021-03-27T09:55:28.000Z</time>
      </trkpt>
      <trkpt lat="47.32395" lon="-1.31162">
        <ele>50</ele>
        <time>2021-03-27T09:55:30.000Z</time>
      </trkpt>
      <trkpt lat="47.32402" lon="-1.31145">
        <ele>52</ele>
        <time>2021-03-27T09:55:32.000Z</time>
      </trkpt>
      <trkpt lat="47.32407" lon="-1.31129">
        <ele>51</ele>
        <time>2021-03-27T09:55:34.000Z</time>
      </trkpt>
      <trkpt lat="47.32411" lon="-1.31112">
        <ele>49</ele>
        <time>2021-03-27T09:55:36.000Z</time>
      </trkpt>
      <trkpt lat="47.3242" lon="-1.31092">
        <ele>51</ele>
        <time>2021-03-27T09:55:38.000Z</time>
      </trkpt>
      <trkpt lat="47.32427" lon="-1.31073">
        <ele>52</ele>
        <time>2021-03-27T09:55:40.000Z</time>
      </trkpt>
      <trkpt lat="47.32433" lon="-1.31055">
        <ele>51</ele>
        <time>2021-03-27T09:55:42.000Z</time>
      </trkpt>
      <trkpt lat="47.32439" lon="-1.31038">
        <ele>50</ele>
        <time>2021-03-27T09:55:44.000Z</time>
      </trkpt>
      <trkpt lat="47.32444" lon="-1.31017">
        <ele>51</ele>
        <time>2021-03-27T09:55:46.000Z</time>
      </trkpt>
      <trkpt lat="47.32448" lon="-1.30999">
        <ele>53</ele>
        <time>2021-03-27T09:55:48.000Z</time>
      </trkpt>
      <trkpt lat="47.32451" lon="-1.30981">
        <ele>51</ele>
        <time>2021-03-27T09:55:50.000Z</time>
      </trkpt>
      <trkpt lat="47.32457" lon="-1.30963">
        <ele>54</ele>
        <time>2021-03-27T09:55:52.000Z</time>
      </trkpt>
      <trkpt lat="47.32462" lon="-1.30946">
        <ele>59</ele>
        <time>2021-03-27T09:55:54.000Z</time>
      </trkpt>
      <trkpt lat="47.32468" lon="-1.30925">
        <ele>58</ele>
        <time>2021-03-27T09:55:56.000Z</time>
      </trkpt>
      <trkpt lat="47.32475" lon="-1.30907">
        <ele>58</ele>
        <time>2021-03-27T09:55:58.000Z</time>
      </trkpt>
      <trkpt lat="47.32481" lon="-1.30889">
        <ele>57</ele>
        <time>2021-03-27T09:56:00.000Z</time>
      </trkpt>
      <trkpt lat="47.32488" lon="-1.30871">
        <ele>57</ele>
        <time>2021-03-27T09:56:02.000Z</time>
      </trkpt>
      <trkpt lat="47.32497" lon="-1.30844">
        <ele>57</ele>
        <time>2021-03-27T09:56:05.000Z</time>
      </trkpt>
      <trkpt lat="47.32502" lon="-1.30826">
        <ele>57</ele>
        <time>2021-03-27T09:56:07.000Z</time>
      </trkpt>
      <trkpt lat="47.32509" lon="-1.30809">
        <ele>57</ele>
        <time>2021-03-27T09:56:09.000Z</time>
      </trkpt>
      <trkpt lat="47.32519" lon="-1.30784">
        <ele>57</ele>
        <time>2021-03-27T09:56:12.000Z</time>
      </trkpt>
      <trkpt lat="47.32526" lon="-1.30766">
        <ele>57</ele>
        <time>2021-03-27T09:56:14.000Z</time>
      </trkpt>
      <trkpt lat="47.32532" lon="-1.30747">
        <ele>55</ele>
        <time>2021-03-27T09:56:16.000Z</time>
      </trkpt>
      <trkpt lat="47.32543" lon="-1.30721">
        <ele>54</ele>
        <time>2021-03-27T09:56:19.000Z</time>
      </trkpt>
      <trkpt lat="47.32557" lon="-1.30693">
        <ele>55</ele>
        <time>2021-03-27T09:56:22.000Z</time>
      </trkpt>
      <trkpt lat="47.32569" lon="-1.30668">
        <ele>54</ele>
        <time>2021-03-27T09:56:25.000Z</time>
      </trkpt>
      <trkpt lat="47.32576" lon="-1.30655">
        <ele>51</ele>
        <time>2021-03-27T09:56:27.000Z</time>
      </trkpt>
      <trkpt lat="47.32584" lon="-1.30638">
        <ele>51</ele>
        <time>2021-03-27T09:56:29.000Z</time>
      </trkpt>
      <trkpt lat="47.32589" lon="-1.30621">
        <ele>51</ele>
        <time>2021-03-27T09:56:31.000Z</time>
      </trkpt>
      <trkpt lat="47.32602" lon="-1.30594">
        <ele>53</ele>
        <time>2021-03-27T09:56:34.000Z</time>
      </trkpt>
      <trkpt lat="47.32611" lon="-1.30575">
        <ele>53</ele>
        <time>2021-03-27T09:56:36.000Z</time>
      </trkpt>
      <trkpt lat="47.32618" lon="-1.30558">
        <ele>55</ele>
        <time>2021-03-27T09:56:38.000Z</time>
      </trkpt>
      <trkpt lat="47.32626" lon="-1.30541">
        <ele>55</ele>
        <time>2021-03-27T09:56:40.000Z</time>
      </trkpt>
      <trkpt lat="47.32637" lon="-1.30515">
        <ele>55</ele>
        <time>2021-03-27T09:56:43.000Z</time>
      </trkpt>
      <trkpt lat="47.32644" lon="-1.30498">
        <ele>56</ele>
        <time>2021-03-27T09:56:45.000Z</time>
      </trkpt>
      <trkpt lat="47.32655" lon="-1.30473">
        <ele>55</ele>
        <time>2021-03-27T09:56:48.000Z</time>
      </trkpt>
      <trkpt lat="47.32668" lon="-1.30448">
        <ele>54</ele>
        <time>2021-03-27T09:56:51.000Z</time>
      </trkpt>
      <trkpt lat="47.32675" lon="-1.3043">
        <ele>54</ele>
        <time>2021-03-27T09:56:53.000Z</time>
      </trkpt>
      <trkpt lat="47.32681" lon="-1.30411">
        <ele>55</ele>
        <time>2021-03-27T09:56:55.000Z</time>
      </trkpt>
      <trkpt lat="47.32687" lon="-1.30392">
        <ele>54</ele>
        <time>2021-03-27T09:56:57.000Z</time>
      </trkpt>
      <trkpt lat="47.32687" lon="-1.30373">
        <ele>54</ele>
        <time>2021-03-27T09:56:59.000Z</time>
      </trkpt>
      <trkpt lat="47.3268" lon="-1.30354">
        <ele>54</ele>
        <time>2021-03-27T09:57:01.000Z</time>
      </trkpt>
      <trkpt lat="47.3267" lon="-1.30329">
        <ele>54</ele>
        <time>2021-03-27T09:57:04.000Z</time>
      </trkpt>
      <trkpt lat="47.32663" lon="-1.30314">
        <ele>55</ele>
        <time>2021-03-27T09:57:06.000Z</time>
      </trkpt>
      <trkpt lat="47.32656" lon="-1.30299">
        <ele>54</ele>
        <time>2021-03-27T09:57:08.000Z</time>
      </trkpt>
      <trkpt lat="47.32649" lon="-1.30284">
        <ele>52</ele>
        <time>2021-03-27T09:57:10.000Z</time>
      </trkpt>
      <trkpt lat="47.3264" lon="-1.30261">
        <ele>53</ele>
        <time>2021-03-27T09:57:13.000Z</time>
      </trkpt>
      <trkpt lat="47.3264" lon="-1.30247">
        <ele>54</ele>
        <time>2021-03-27T09:57:15.000Z</time>
      </trkpt>
      <trkpt lat="47.32645" lon="-1.30236">
        <ele>53</ele>
        <time>2021-03-27T09:57:17.000Z</time>
      </trkpt>
      <trkpt lat="47.32652" lon="-1.30224">
        <ele>54</ele>
        <time>2021-03-27T09:57:19.000Z</time>
      </trkpt>
      <trkpt lat="47.32659" lon="-1.30212">
        <ele>53</ele>
        <time>2021-03-27T09:57:21.000Z</time>
      </trkpt>
      <trkpt lat="47.32667" lon="-1.30199">
        <ele>54</ele>
        <time>2021-03-27T09:57:23.000Z</time>
      </trkpt>
      <trkpt lat="47.32677" lon="-1.30178">
        <ele>54</ele>
        <time>2021-03-27T09:57:26.000Z</time>
      </trkpt>
      <trkpt lat="47.32684" lon="-1.30166">
        <ele>53</ele>
        <time>2021-03-27T09:57:28.000Z</time>
      </trkpt>
      <trkpt lat="47.32693" lon="-1.30154">
        <ele>55</ele>
        <time>2021-03-27T09:57:30.000Z</time>
      </trkpt>
      <trkpt lat="47.32703" lon="-1.3014">
        <ele>56</ele>
        <time>2021-03-27T09:57:32.000Z</time>
      </trkpt>
      <trkpt lat="47.32712" lon="-1.30127">
        <ele>57</ele>
        <time>2021-03-27T09:57:34.000Z</time>
      </trkpt>
      <trkpt lat="47.32725" lon="-1.30107">
        <ele>58</ele>
        <time>2021-03-27T09:57:37.000Z</time>
      </trkpt>
      <trkpt lat="47.32739" lon="-1.30083">
        <ele>57</ele>
        <time>2021-03-27T09:57:40.000Z</time>
      </trkpt>
      <trkpt lat="47.32747" lon="-1.30068">
        <ele>52</ele>
        <time>2021-03-27T09:57:42.000Z</time>
      </trkpt>
      <trkpt lat="47.32755" lon="-1.30053">
        <ele>52</ele>
        <time>2021-03-27T09:57:44.000Z</time>
      </trkpt>
      <trkpt lat="47.32763" lon="-1.30038">
        <ele>52</ele>
        <time>2021-03-27T09:57:46.000Z</time>
      </trkpt>
      <trkpt lat="47.32774" lon="-1.30014">
        <ele>52</ele>
        <time>2021-03-27T09:57:49.000Z</time>
      </trkpt>
      <trkpt lat="47.32781" lon="-1.29997">
        <ele>53</ele>
        <time>2021-03-27T09:57:51.000Z</time>
      </trkpt>
      <trkpt lat="47.32789" lon="-1.29981">
        <ele>55</ele>
        <time>2021-03-27T09:57:53.000Z</time>
      </trkpt>
      <trkpt lat="47.32796" lon="-1.29967">
        <ele>55</ele>
        <time>2021-03-27T09:57:55.000Z</time>
      </trkpt>
      <trkpt lat="47.32808" lon="-1.29944">
        <ele>56</ele>
        <time>2021-03-27T09:57:58.000Z</time>
      </trkpt>
      <trkpt lat="47.32815" lon="-1.2993">
        <ele>56</ele>
        <time>2021-03-27T09:58:00.000Z</time>
      </trkpt>
      <trkpt lat="47.32827" lon="-1.29908">
        <ele>56</ele>
        <time>2021-03-27T09:58:03.000Z</time>
      </trkpt>
      <trkpt lat="47.32835" lon="-1.29889">
        <ele>55</ele>
        <time>2021-03-27T09:58:06.000Z</time>
      </trkpt>
      <trkpt lat="47.32841" lon="-1.29874">
        <ele>55</ele>
        <time>2021-03-27T09:58:08.000Z</time>
      </trkpt>
      <trkpt lat="47.32852" lon="-1.29859">
        <ele>55</ele>
        <time>2021-03-27T09:58:10.000Z</time>
      </trkpt>
      <trkpt lat="47.32862" lon="-1.29843">
        <ele>54</ele>
        <time>2021-03-27T09:58:12.000Z</time>
      </trkpt>
      <trkpt lat="47.32873" lon="-1.29827">
        <ele>54</ele>
        <time>2021-03-27T09:58:14.000Z</time>
      </trkpt>
      <trkpt lat="47.32881" lon="-1.29812">
        <ele>54</ele>
        <time>2021-03-27T09:58:16.000Z</time>
      </trkpt>
      <trkpt lat="47.3289" lon="-1.29797">
        <ele>55</ele>
        <time>2021-03-27T09:58:18.000Z</time>
      </trkpt>
      <trkpt lat="47.32898" lon="-1.29782">
        <ele>55</ele>
        <time>2021-03-27T09:58:20.000Z</time>
      </trkpt>
      <trkpt lat="47.32906" lon="-1.29762">
        <ele>53</ele>
        <time>2021-03-27T09:58:23.000Z</time>
      </trkpt>
      <trkpt lat="47.32916" lon="-1.29746">
        <ele>55</ele>
        <time>2021-03-27T09:58:25.000Z</time>
      </trkpt>
      <trkpt lat="47.32925" lon="-1.2973">
        <ele>55</ele>
        <time>2021-03-27T09:58:27.000Z</time>
      </trkpt>
      <trkpt lat="47.32934" lon="-1.29714">
        <ele>56</ele>
        <time>2021-03-27T09:58:29.000Z</time>
      </trkpt>
      <trkpt lat="47.32948" lon="-1.29692">
        <ele>56</ele>
        <time>2021-03-27T09:58:32.000Z</time>
      </trkpt>
      <trkpt lat="47.32957" lon="-1.29678">
        <ele>55</ele>
        <time>2021-03-27T09:58:34.000Z</time>
      </trkpt>
      <trkpt lat="47.32966" lon="-1.29664">
        <ele>56</ele>
        <time>2021-03-27T09:58:36.000Z</time>
      </trkpt>
      <trkpt lat="47.32976" lon="-1.2965">
        <ele>57</ele>
        <time>2021-03-27T09:58:38.000Z</time>
      </trkpt>
      <trkpt lat="47.32984" lon="-1.29636">
        <ele>57</ele>
        <time>2021-03-27T09:58:40.000Z</time>
      </trkpt>
      <trkpt lat="47.32993" lon="-1.29622">
        <ele>54</ele>
        <time>2021-03-27T09:58:42.000Z</time>
      </trkpt>
      <trkpt lat="47.33001" lon="-1.29605">
        <ele>53</ele>
        <time>2021-03-27T09:58:44.000Z</time>
      </trkpt>
      <trkpt lat="47.3301" lon="-1.29588">
        <ele>53</ele>
        <time>2021-03-27T09:58:46.000Z</time>
      </trkpt>
      <trkpt lat="47.33023" lon="-1.29565">
        <ele>52</ele>
        <time>2021-03-27T09:58:49.000Z</time>
      </trkpt>
      <trkpt lat="47.33032" lon="-1.29549">
        <ele>51</ele>
        <time>2021-03-27T09:58:51.000Z</time>
      </trkpt>
      <trkpt lat="47.3304" lon="-1.29533">
        <ele>53</ele>
        <time>2021-03-27T09:58:53.000Z</time>
      </trkpt>
      <trkpt lat="47.33049" lon="-1.29517">
        <ele>55</ele>
        <time>2021-03-27T09:58:55.000Z</time>
      </trkpt>
      <trkpt lat="47.33059" lon="-1.29501">
        <ele>55</ele>
        <time>2021-03-27T09:58:57.000Z</time>
      </trkpt>
      <trkpt lat="47.33068" lon="-1.29487">
        <ele>55</ele>
        <time>2021-03-27T09:58:59.000Z</time>
      </trkpt>
      <trkpt lat="47.33081" lon="-1.29466">
        <ele>56</ele>
        <time>2021-03-27T09:59:02.000Z</time>
      </trkpt>
      <trkpt lat="47.3309" lon="-1.29452">
        <ele>56</ele>
        <time>2021-03-27T09:59:04.000Z</time>
      </trkpt>
      <trkpt lat="47.33097" lon="-1.29439">
        <ele>53</ele>
        <time>2021-03-27T09:59:06.000Z</time>
      </trkpt>
      <trkpt lat="47.33108" lon="-1.29425">
        <ele>54</ele>
        <time>2021-03-27T09:59:08.000Z</time>
      </trkpt>
      <trkpt lat="47.33122" lon="-1.29405">
        <ele>54</ele>
        <time>2021-03-27T09:59:11.000Z</time>
      </trkpt>
      <trkpt lat="47.33131" lon="-1.29395">
        <ele>51</ele>
        <time>2021-03-27T09:59:13.000Z</time>
      </trkpt>
      <trkpt lat="47.3314" lon="-1.29386">
        <ele>52</ele>
        <time>2021-03-27T09:59:15.000Z</time>
      </trkpt>
      <trkpt lat="47.33148" lon="-1.29369">
        <ele>55</ele>
        <time>2021-03-27T09:59:17.000Z</time>
      </trkpt>
      <trkpt lat="47.33153" lon="-1.2935">
        <ele>58</ele>
        <time>2021-03-27T09:59:20.000Z</time>
      </trkpt>
      <trkpt lat="47.33145" lon="-1.29339">
        <ele>63</ele>
        <time>2021-03-27T09:59:22.000Z</time>
      </trkpt>
      <trkpt lat="47.33134" lon="-1.29333">
        <ele>61</ele>
        <time>2021-03-27T09:59:24.000Z</time>
      </trkpt>
      <trkpt lat="47.33128" lon="-1.29322">
        <ele>62</ele>
        <time>2021-03-27T09:59:26.000Z</time>
      </trkpt>
      <trkpt lat="47.33126" lon="-1.29304">
        <ele>61</ele>
        <time>2021-03-27T09:59:29.000Z</time>
      </trkpt>
      <trkpt lat="47.33127" lon="-1.29285">
        <ele>62</ele>
        <time>2021-03-27T09:59:32.000Z</time>
      </trkpt>
      <trkpt lat="47.33132" lon="-1.29271">
        <ele>63</ele>
        <time>2021-03-27T09:59:34.001Z</time>
      </trkpt>
      <trkpt lat="47.33138" lon="-1.29257">
        <ele>62</ele>
        <time>2021-03-27T09:59:37.000Z</time>
      </trkpt>
      <trkpt lat="47.33144" lon="-1.29246">
        <ele>62</ele>
        <time>2021-03-27T09:59:40.000Z</time>
      </trkpt>
      <trkpt lat="47.3315" lon="-1.29234">
        <ele>61</ele>
        <time>2021-03-27T09:59:43.000Z</time>
      </trkpt>
      <trkpt lat="47.33152" lon="-1.2922">
        <ele>61</ele>
        <time>2021-03-27T09:59:45.000Z</time>
      </trkpt>
      <trkpt lat="47.33165" lon="-1.29216">
        <ele>62</ele>
        <time>2021-03-27T09:59:48.000Z</time>
      </trkpt>
      <trkpt lat="47.33168" lon="-1.292">
        <ele>62</ele>
        <time>2021-03-27T09:59:51.000Z</time>
      </trkpt>
      <trkpt lat="47.33169" lon="-1.29186">
        <ele>61</ele>
        <time>2021-03-27T09:59:53.001Z</time>
      </trkpt>
      <trkpt lat="47.33171" lon="-1.29168">
        <ele>65</ele>
        <time>2021-03-27T09:59:56.000Z</time>
      </trkpt>
      <trkpt lat="47.33181" lon="-1.29155">
        <ele>64</ele>
        <time>2021-03-27T09:59:58.999Z</time>
      </trkpt>
      <trkpt lat="47.33192" lon="-1.29147">
        <ele>61</ele>
        <time>2021-03-27T10:00:01.000Z</time>
      </trkpt>
      <trkpt lat="47.33201" lon="-1.29143">
        <ele>61</ele>
        <time>2021-03-27T10:00:03.000Z</time>
      </trkpt>
      <trkpt lat="47.33213" lon="-1.29144">
        <ele>61</ele>
        <time>2021-03-27T10:00:05.000Z</time>
      </trkpt>
      <trkpt lat="47.33226" lon="-1.29151">
        <ele>59</ele>
        <time>2021-03-27T10:00:07.000Z</time>
      </trkpt>
      <trkpt lat="47.33238" lon="-1.2916">
        <ele>58</ele>
        <time>2021-03-27T10:00:09.000Z</time>
      </trkpt>
      <trkpt lat="47.33251" lon="-1.29167">
        <ele>56</ele>
        <time>2021-03-27T10:00:11.000Z</time>
      </trkpt>
      <trkpt lat="47.33264" lon="-1.29175">
        <ele>55</ele>
        <time>2021-03-27T10:00:13.000Z</time>
      </trkpt>
      <trkpt lat="47.33277" lon="-1.29183">
        <ele>56</ele>
        <time>2021-03-27T10:00:15.000Z</time>
      </trkpt>
      <trkpt lat="47.33287" lon="-1.29192">
        <ele>56</ele>
        <time>2021-03-27T10:00:17.000Z</time>
      </trkpt>
      <trkpt lat="47.333" lon="-1.29197">
        <ele>56</ele>
        <time>2021-03-27T10:00:19.000Z</time>
      </trkpt>
      <trkpt lat="47.33311" lon="-1.29211">
        <ele>56</ele>
        <time>2021-03-27T10:00:21.000Z</time>
      </trkpt>
      <trkpt lat="47.33323" lon="-1.29218">
        <ele>55</ele>
        <time>2021-03-27T10:00:23.001Z</time>
      </trkpt>
      <trkpt lat="47.33335" lon="-1.29225">
        <ele>59</ele>
        <time>2021-03-27T10:00:25.000Z</time>
      </trkpt>
      <trkpt lat="47.33343" lon="-1.29234">
        <ele>59</ele>
        <time>2021-03-27T10:00:27.000Z</time>
      </trkpt>
      <trkpt lat="47.33355" lon="-1.29245">
        <ele>57</ele>
        <time>2021-03-27T10:00:29.000Z</time>
      </trkpt>
      <trkpt lat="47.33363" lon="-1.29258">
        <ele>57</ele>
        <time>2021-03-27T10:00:31.000Z</time>
      </trkpt>
      <trkpt lat="47.33372" lon="-1.29271">
        <ele>57</ele>
        <time>2021-03-27T10:00:33.000Z</time>
      </trkpt>
      <trkpt lat="47.33379" lon="-1.29285">
        <ele>56</ele>
        <time>2021-03-27T10:00:35.000Z</time>
      </trkpt>
      <trkpt lat="47.33385" lon="-1.29298">
        <ele>56</ele>
        <time>2021-03-27T10:00:37.000Z</time>
      </trkpt>
      <trkpt lat="47.33391" lon="-1.29309">
        <ele>56</ele>
        <time>2021-03-27T10:00:39.000Z</time>
      </trkpt>
      <trkpt lat="47.33397" lon="-1.29321">
        <ele>56</ele>
        <time>2021-03-27T10:00:41.000Z</time>
      </trkpt>
      <trkpt lat="47.33403" lon="-1.29335">
        <ele>56</ele>
        <time>2021-03-27T10:00:43.000Z</time>
      </trkpt>
      <trkpt lat="47.33408" lon="-1.29348">
        <ele>56</ele>
        <time>2021-03-27T10:00:45.000Z</time>
      </trkpt>
      <trkpt lat="47.3341" lon="-1.29363">
        <ele>57</ele>
        <time>2021-03-27T10:00:47.000Z</time>
      </trkpt>
      <trkpt lat="47.33416" lon="-1.29375">
        <ele>55</ele>
        <time>2021-03-27T10:00:51.000Z</time>
      </trkpt>
      <trkpt lat="47.3343" lon="-1.29385">
        <ele>55</ele>
        <time>2021-03-27T10:00:54.000Z</time>
      </trkpt>
      <trkpt lat="47.33447" lon="-1.29398">
        <ele>55</ele>
        <time>2021-03-27T10:00:58.000Z</time>
      </trkpt>
      <trkpt lat="47.33455" lon="-1.29408">
        <ele>55</ele>
        <time>2021-03-27T10:01:00.000Z</time>
      </trkpt>
      <trkpt lat="47.3347" lon="-1.29419">
        <ele>52</ele>
        <time>2021-03-27T10:01:02.999Z</time>
      </trkpt>
      <trkpt lat="47.33484" lon="-1.29431">
        <ele>57</ele>
        <time>2021-03-27T10:01:06.000Z</time>
      </trkpt>
      <trkpt lat="47.33493" lon="-1.29437">
        <ele>58</ele>
        <time>2021-03-27T10:01:08.000Z</time>
      </trkpt>
      <trkpt lat="47.33503" lon="-1.29446">
        <ele>55</ele>
        <time>2021-03-27T10:01:10.000Z</time>
      </trkpt>
      <trkpt lat="47.33512" lon="-1.29454">
        <ele>52</ele>
        <time>2021-03-27T10:01:12.000Z</time>
      </trkpt>
      <trkpt lat="47.33524" lon="-1.29463">
        <ele>54</ele>
        <time>2021-03-27T10:01:14.000Z</time>
      </trkpt>
      <trkpt lat="47.33535" lon="-1.29472">
        <ele>55</ele>
        <time>2021-03-27T10:01:16.000Z</time>
      </trkpt>
      <trkpt lat="47.3355" lon="-1.29483">
        <ele>54</ele>
        <time>2021-03-27T10:01:19.000Z</time>
      </trkpt>
      <trkpt lat="47.33568" lon="-1.29498">
        <ele>52</ele>
        <time>2021-03-27T10:01:23.000Z</time>
      </trkpt>
      <trkpt lat="47.33578" lon="-1.29508">
        <ele>56</ele>
        <time>2021-03-27T10:01:25.000Z</time>
      </trkpt>
      <trkpt lat="47.33586" lon="-1.29513">
        <ele>57</ele>
        <time>2021-03-27T10:01:27.000Z</time>
      </trkpt>
      <trkpt lat="47.33597" lon="-1.29519">
        <ele>56</ele>
        <time>2021-03-27T10:01:29.000Z</time>
      </trkpt>
      <trkpt lat="47.33607" lon="-1.29527">
        <ele>56</ele>
        <time>2021-03-27T10:01:31.000Z</time>
      </trkpt>
      <trkpt lat="47.33615" lon="-1.29535">
        <ele>55</ele>
        <time>2021-03-27T10:01:33.000Z</time>
      </trkpt>
      <trkpt lat="47.33624" lon="-1.29541">
        <ele>56</ele>
        <time>2021-03-27T10:01:35.000Z</time>
      </trkpt>
      <trkpt lat="47.33636" lon="-1.29539">
        <ele>53</ele>
        <time>2021-03-27T10:01:37.000Z</time>
      </trkpt>
      <trkpt lat="47.33645" lon="-1.29537">
        <ele>54</ele>
        <time>2021-03-27T10:01:39.000Z</time>
      </trkpt>
      <trkpt lat="47.3365" lon="-1.29518">
        <ele>55</ele>
        <time>2021-03-27T10:01:42.000Z</time>
      </trkpt>
      <trkpt lat="47.33653" lon="-1.29502">
        <ele>56</ele>
        <time>2021-03-27T10:01:44.000Z</time>
      </trkpt>
      <trkpt lat="47.33657" lon="-1.29486">
        <ele>52</ele>
        <time>2021-03-27T10:01:46.000Z</time>
      </trkpt>
      <trkpt lat="47.33662" lon="-1.29464">
        <ele>51</ele>
        <time>2021-03-27T10:01:49.000Z</time>
      </trkpt>
      <trkpt lat="47.33666" lon="-1.29447">
        <ele>55</ele>
        <time>2021-03-27T10:01:51.000Z</time>
      </trkpt>
      <trkpt lat="47.33673" lon="-1.29432">
        <ele>55</ele>
        <time>2021-03-27T10:01:53.000Z</time>
      </trkpt>
      <trkpt lat="47.33679" lon="-1.29416">
        <ele>55</ele>
        <time>2021-03-27T10:01:55.000Z</time>
      </trkpt>
      <trkpt lat="47.33685" lon="-1.29399">
        <ele>56</ele>
        <time>2021-03-27T10:01:57.000Z</time>
      </trkpt>
      <trkpt lat="47.33691" lon="-1.29383">
        <ele>58</ele>
        <time>2021-03-27T10:01:59.000Z</time>
      </trkpt>
      <trkpt lat="47.33696" lon="-1.29366">
        <ele>58</ele>
        <time>2021-03-27T10:02:01.000Z</time>
      </trkpt>
      <trkpt lat="47.33701" lon="-1.2935">
        <ele>58</ele>
        <time>2021-03-27T10:02:03.000Z</time>
      </trkpt>
      <trkpt lat="47.33706" lon="-1.29335">
        <ele>57</ele>
        <time>2021-03-27T10:02:05.000Z</time>
      </trkpt>
      <trkpt lat="47.33709" lon="-1.2932">
        <ele>58</ele>
        <time>2021-03-27T10:02:07.000Z</time>
      </trkpt>
      <trkpt lat="47.33712" lon="-1.29294">
        <ele>57</ele>
        <time>2021-03-27T10:02:10.000Z</time>
      </trkpt>
      <trkpt lat="47.33718" lon="-1.29277">
        <ele>58</ele>
        <time>2021-03-27T10:02:12.000Z</time>
      </trkpt>
      <trkpt lat="47.33724" lon="-1.2926">
        <ele>58</ele>
        <time>2021-03-27T10:02:14.000Z</time>
      </trkpt>
      <trkpt lat="47.33726" lon="-1.29241">
        <ele>56</ele>
        <time>2021-03-27T10:02:16.000Z</time>
      </trkpt>
      <trkpt lat="47.33729" lon="-1.29223">
        <ele>56</ele>
        <time>2021-03-27T10:02:18.000Z</time>
      </trkpt>
      <trkpt lat="47.33734" lon="-1.29206">
        <ele>59</ele>
        <time>2021-03-27T10:02:20.000Z</time>
      </trkpt>
      <trkpt lat="47.33742" lon="-1.29182">
        <ele>58</ele>
        <time>2021-03-27T10:02:23.000Z</time>
      </trkpt>
      <trkpt lat="47.33743" lon="-1.29165">
        <ele>58</ele>
        <time>2021-03-27T10:02:25.000Z</time>
      </trkpt>
      <trkpt lat="47.33748" lon="-1.29152">
        <ele>59</ele>
        <time>2021-03-27T10:02:27.000Z</time>
      </trkpt>
      <trkpt lat="47.3375" lon="-1.29137">
        <ele>59</ele>
        <time>2021-03-27T10:02:29.000Z</time>
      </trkpt>
      <trkpt lat="47.33749" lon="-1.29121">
        <ele>58</ele>
        <time>2021-03-27T10:02:31.000Z</time>
      </trkpt>
      <trkpt lat="47.3375" lon="-1.29105">
        <ele>59</ele>
        <time>2021-03-27T10:02:33.000Z</time>
      </trkpt>
      <trkpt lat="47.33752" lon="-1.2908">
        <ele>59</ele>
        <time>2021-03-27T10:02:36.000Z</time>
      </trkpt>
      <trkpt lat="47.33752" lon="-1.29064">
        <ele>58</ele>
        <time>2021-03-27T10:02:38.000Z</time>
      </trkpt>
      <trkpt lat="47.33752" lon="-1.29048">
        <ele>58</ele>
        <time>2021-03-27T10:02:40.000Z</time>
      </trkpt>
      <trkpt lat="47.33753" lon="-1.29023">
        <ele>60</ele>
        <time>2021-03-27T10:02:43.000Z</time>
      </trkpt>
      <trkpt lat="47.33752" lon="-1.29006">
        <ele>60</ele>
        <time>2021-03-27T10:02:45.000Z</time>
      </trkpt>
      <trkpt lat="47.33746" lon="-1.28993">
        <ele>63</ele>
        <time>2021-03-27T10:02:47.000Z</time>
      </trkpt>
      <trkpt lat="47.33745" lon="-1.28972">
        <ele>63</ele>
        <time>2021-03-27T10:02:50.000Z</time>
      </trkpt>
      <trkpt lat="47.33745" lon="-1.28955">
        <ele>65</ele>
        <time>2021-03-27T10:02:52.000Z</time>
      </trkpt>
      <trkpt lat="47.33746" lon="-1.28942">
        <ele>67</ele>
        <time>2021-03-27T10:02:54.000Z</time>
      </trkpt>
      <trkpt lat="47.33747" lon="-1.28929">
        <ele>66</ele>
        <time>2021-03-27T10:02:56.000Z</time>
      </trkpt>
      <trkpt lat="47.33751" lon="-1.28913">
        <ele>67</ele>
        <time>2021-03-27T10:02:58.000Z</time>
      </trkpt>
      <trkpt lat="47.33762" lon="-1.28897">
        <ele>66</ele>
        <time>2021-03-27T10:03:00.000Z</time>
      </trkpt>
      <trkpt lat="47.33767" lon="-1.28879">
        <ele>66</ele>
        <time>2021-03-27T10:03:02.000Z</time>
      </trkpt>
      <trkpt lat="47.33767" lon="-1.28854">
        <ele>65</ele>
        <time>2021-03-27T10:03:05.000Z</time>
      </trkpt>
      <trkpt lat="47.33765" lon="-1.28836">
        <ele>64</ele>
        <time>2021-03-27T10:03:07.000Z</time>
      </trkpt>
      <trkpt lat="47.33765" lon="-1.28817">
        <ele>64</ele>
        <time>2021-03-27T10:03:09.000Z</time>
      </trkpt>
      <trkpt lat="47.33766" lon="-1.28799">
        <ele>64</ele>
        <time>2021-03-27T10:03:11.000Z</time>
      </trkpt>
      <trkpt lat="47.33767" lon="-1.28783">
        <ele>62</ele>
        <time>2021-03-27T10:03:13.000Z</time>
      </trkpt>
      <trkpt lat="47.33771" lon="-1.28765">
        <ele>64</ele>
        <time>2021-03-27T10:03:15.000Z</time>
      </trkpt>
      <trkpt lat="47.33772" lon="-1.28745">
        <ele>63</ele>
        <time>2021-03-27T10:03:17.000Z</time>
      </trkpt>
      <trkpt lat="47.33773" lon="-1.28727">
        <ele>63</ele>
        <time>2021-03-27T10:03:19.000Z</time>
      </trkpt>
      <trkpt lat="47.33772" lon="-1.28705">
        <ele>63</ele>
        <time>2021-03-27T10:03:21.000Z</time>
      </trkpt>
      <trkpt lat="47.33778" lon="-1.28687">
        <ele>62</ele>
        <time>2021-03-27T10:03:23.000Z</time>
      </trkpt>
      <trkpt lat="47.33785" lon="-1.28672">
        <ele>62</ele>
        <time>2021-03-27T10:03:25.000Z</time>
      </trkpt>
      <trkpt lat="47.33787" lon="-1.28657">
        <ele>61</ele>
        <time>2021-03-27T10:03:27.000Z</time>
      </trkpt>
      <trkpt lat="47.33789" lon="-1.28639">
        <ele>59</ele>
        <time>2021-03-27T10:03:29.000Z</time>
      </trkpt>
      <trkpt lat="47.3379" lon="-1.28624">
        <ele>59</ele>
        <time>2021-03-27T10:03:31.000Z</time>
      </trkpt>
      <trkpt lat="47.33797" lon="-1.28599">
        <ele>60</ele>
        <time>2021-03-27T10:03:34.000Z</time>
      </trkpt>
      <trkpt lat="47.33802" lon="-1.28586">
        <ele>60</ele>
        <time>2021-03-27T10:03:36.000Z</time>
      </trkpt>
      <trkpt lat="47.33811" lon="-1.28577">
        <ele>57</ele>
        <time>2021-03-27T10:03:39.000Z</time>
      </trkpt>
      <trkpt lat="47.33806" lon="-1.28559">
        <ele>62</ele>
        <time>2021-03-27T10:03:43.000Z</time>
      </trkpt>
      <trkpt lat="47.33799" lon="-1.28542">
        <ele>63</ele>
        <time>2021-03-27T10:03:45.000Z</time>
      </trkpt>
      <trkpt lat="47.33801" lon="-1.28522">
        <ele>64</ele>
        <time>2021-03-27T10:03:47.000Z</time>
      </trkpt>
      <trkpt lat="47.33803" lon="-1.28502">
        <ele>62</ele>
        <time>2021-03-27T10:03:49.000Z</time>
      </trkpt>
      <trkpt lat="47.33803" lon="-1.28479">
        <ele>58</ele>
        <time>2021-03-27T10:03:52.000Z</time>
      </trkpt>
      <trkpt lat="47.33806" lon="-1.28461">
        <ele>58</ele>
        <time>2021-03-27T10:03:54.000Z</time>
      </trkpt>
      <trkpt lat="47.3381" lon="-1.28432">
        <ele>57</ele>
        <time>2021-03-27T10:03:57.000Z</time>
      </trkpt>
      <trkpt lat="47.33814" lon="-1.28395">
        <ele>56</ele>
        <time>2021-03-27T10:04:01.000Z</time>
      </trkpt>
      <trkpt lat="47.33817" lon="-1.28381">
        <ele>57</ele>
        <time>2021-03-27T10:04:03.000Z</time>
      </trkpt>
      <trkpt lat="47.33819" lon="-1.28365">
        <ele>56</ele>
        <time>2021-03-27T10:04:05.000Z</time>
      </trkpt>
      <trkpt lat="47.33822" lon="-1.28349">
        <ele>56</ele>
        <time>2021-03-27T10:04:07.000Z</time>
      </trkpt>
      <trkpt lat="47.33826" lon="-1.28323">
        <ele>56</ele>
        <time>2021-03-27T10:04:10.000Z</time>
      </trkpt>
      <trkpt lat="47.33831" lon="-1.28297">
        <ele>56</ele>
        <time>2021-03-27T10:04:13.000Z</time>
      </trkpt>
      <trkpt lat="47.33835" lon="-1.2828">
        <ele>53</ele>
        <time>2021-03-27T10:04:15.000Z</time>
      </trkpt>
      <trkpt lat="47.33839" lon="-1.2826">
        <ele>55</ele>
        <time>2021-03-27T10:04:17.000Z</time>
      </trkpt>
      <trkpt lat="47.33842" lon="-1.28242">
        <ele>55</ele>
        <time>2021-03-27T10:04:19.000Z</time>
      </trkpt>
      <trkpt lat="47.33844" lon="-1.28223">
        <ele>55</ele>
        <time>2021-03-27T10:04:21.000Z</time>
      </trkpt>
      <trkpt lat="47.33847" lon="-1.28204">
        <ele>55</ele>
        <time>2021-03-27T10:04:23.000Z</time>
      </trkpt>
      <trkpt lat="47.3385" lon="-1.28186">
        <ele>54</ele>
        <time>2021-03-27T10:04:25.000Z</time>
      </trkpt>
      <trkpt lat="47.33853" lon="-1.2817">
        <ele>56</ele>
        <time>2021-03-27T10:04:27.000Z</time>
      </trkpt>
      <trkpt lat="47.33853" lon="-1.28153">
        <ele>57</ele>
        <time>2021-03-27T10:04:29.000Z</time>
      </trkpt>
      <trkpt lat="47.33854" lon="-1.28134">
        <ele>57</ele>
        <time>2021-03-27T10:04:31.000Z</time>
      </trkpt>
      <trkpt lat="47.33857" lon="-1.28115">
        <ele>56</ele>
        <time>2021-03-27T10:04:33.000Z</time>
      </trkpt>
      <trkpt lat="47.33859" lon="-1.28096">
        <ele>56</ele>
        <time>2021-03-27T10:04:35.000Z</time>
      </trkpt>
      <trkpt lat="47.33861" lon="-1.28078">
        <ele>55</ele>
        <time>2021-03-27T10:04:37.000Z</time>
      </trkpt>
      <trkpt lat="47.33864" lon="-1.28058">
        <ele>55</ele>
        <time>2021-03-27T10:04:39.000Z</time>
      </trkpt>
      <trkpt lat="47.33868" lon="-1.2804">
        <ele>55</ele>
        <time>2021-03-27T10:04:41.000Z</time>
      </trkpt>
      <trkpt lat="47.33872" lon="-1.28022">
        <ele>55</ele>
        <time>2021-03-27T10:04:43.000Z</time>
      </trkpt>
      <trkpt lat="47.33881" lon="-1.28005">
        <ele>54</ele>
        <time>2021-03-27T10:04:45.000Z</time>
      </trkpt>
      <trkpt lat="47.33881" lon="-1.27988">
        <ele>54</ele>
        <time>2021-03-27T10:04:47.000Z</time>
      </trkpt>
      <trkpt lat="47.33877" lon="-1.27968">
        <ele>54</ele>
        <time>2021-03-27T10:04:49.000Z</time>
      </trkpt>
      <trkpt lat="47.33876" lon="-1.27952">
        <ele>53</ele>
        <time>2021-03-27T10:04:51.000Z</time>
      </trkpt>
      <trkpt lat="47.33874" lon="-1.27934">
        <ele>52</ele>
        <time>2021-03-27T10:04:53.000Z</time>
      </trkpt>
      <trkpt lat="47.33874" lon="-1.27908">
        <ele>53</ele>
        <time>2021-03-27T10:04:56.000Z</time>
      </trkpt>
      <trkpt lat="47.33875" lon="-1.2789">
        <ele>54</ele>
        <time>2021-03-27T10:04:58.000Z</time>
      </trkpt>
      <trkpt lat="47.33874" lon="-1.27872">
        <ele>54</ele>
        <time>2021-03-27T10:05:00.000Z</time>
      </trkpt>
      <trkpt lat="47.33875" lon="-1.27854">
        <ele>54</ele>
        <time>2021-03-27T10:05:02.000Z</time>
      </trkpt>
      <trkpt lat="47.33876" lon="-1.27838">
        <ele>54</ele>
        <time>2021-03-27T10:05:04.000Z</time>
      </trkpt>
      <trkpt lat="47.33877" lon="-1.27821">
        <ele>53</ele>
        <time>2021-03-27T10:05:06.000Z</time>
      </trkpt>
      <trkpt lat="47.33878" lon="-1.27807">
        <ele>54</ele>
        <time>2021-03-27T10:05:08.000Z</time>
      </trkpt>
      <trkpt lat="47.33874" lon="-1.27791">
        <ele>54</ele>
        <time>2021-03-27T10:05:11.000Z</time>
      </trkpt>
      <trkpt lat="47.3386" lon="-1.27791">
        <ele>55</ele>
        <time>2021-03-27T10:05:14.000Z</time>
      </trkpt>
      <trkpt lat="47.33848" lon="-1.27785">
        <ele>55</ele>
        <time>2021-03-27T10:05:17.000Z</time>
      </trkpt>
      <trkpt lat="47.33839" lon="-1.27781">
        <ele>55</ele>
        <time>2021-03-27T10:05:19.000Z</time>
      </trkpt>
      <trkpt lat="47.33823" lon="-1.27776">
        <ele>53</ele>
        <time>2021-03-27T10:05:22.000Z</time>
      </trkpt>
      <trkpt lat="47.33813" lon="-1.27773">
        <ele>52</ele>
        <time>2021-03-27T10:05:24.000Z</time>
      </trkpt>
      <trkpt lat="47.33801" lon="-1.27768">
        <ele>53</ele>
        <time>2021-03-27T10:05:26.000Z</time>
      </trkpt>
      <trkpt lat="47.3379" lon="-1.27764">
        <ele>53</ele>
        <time>2021-03-27T10:05:28.000Z</time>
      </trkpt>
      <trkpt lat="47.33779" lon="-1.2776">
        <ele>52</ele>
        <time>2021-03-27T10:05:30.000Z</time>
      </trkpt>
      <trkpt lat="47.33769" lon="-1.27756">
        <ele>52</ele>
        <time>2021-03-27T10:05:32.000Z</time>
      </trkpt>
      <trkpt lat="47.33755" lon="-1.27753">
        <ele>54</ele>
        <time>2021-03-27T10:05:35.000Z</time>
      </trkpt>
      <trkpt lat="47.33742" lon="-1.27748">
        <ele>56</ele>
        <time>2021-03-27T10:05:38.000Z</time>
      </trkpt>
      <trkpt lat="47.33735" lon="-1.27738">
        <ele>58</ele>
        <time>2021-03-27T10:05:42.000Z</time>
      </trkpt>
      <trkpt lat="47.33747" lon="-1.27722">
        <ele>59</ele>
        <time>2021-03-27T10:05:46.000Z</time>
      </trkpt>
      <trkpt lat="47.33757" lon="-1.27719">
        <ele>59</ele>
        <time>2021-03-27T10:05:48.000Z</time>
      </trkpt>
      <trkpt lat="47.33767" lon="-1.27725">
        <ele>59</ele>
        <time>2021-03-27T10:05:50.000Z</time>
      </trkpt>
      <trkpt lat="47.33773" lon="-1.27735">
        <ele>59</ele>
        <time>2021-03-27T10:05:52.000Z</time>
      </trkpt>
      <trkpt lat="47.33783" lon="-1.27741">
        <ele>59</ele>
        <time>2021-03-27T10:05:54.000Z</time>
      </trkpt>
      <trkpt lat="47.33793" lon="-1.27743">
        <ele>59</ele>
        <time>2021-03-27T10:05:56.000Z</time>
      </trkpt>
      <trkpt lat="47.33804" lon="-1.27747">
        <ele>59</ele>
        <time>2021-03-27T10:05:58.000Z</time>
      </trkpt>
      <trkpt lat="47.33814" lon="-1.2775">
        <ele>60</ele>
        <time>2021-03-27T10:06:00.000Z</time>
      </trkpt>
      <trkpt lat="47.33825" lon="-1.27754">
        <ele>60</ele>
        <time>2021-03-27T10:06:02.000Z</time>
      </trkpt>
      <trkpt lat="47.33835" lon="-1.27758">
        <ele>60</ele>
        <time>2021-03-27T10:06:04.000Z</time>
      </trkpt>
      <trkpt lat="47.33845" lon="-1.27761">
        <ele>60</ele>
        <time>2021-03-27T10:06:06.000Z</time>
      </trkpt>
      <trkpt lat="47.33857" lon="-1.27764">
        <ele>61</ele>
        <time>2021-03-27T10:06:08.000Z</time>
      </trkpt>
      <trkpt lat="47.33867" lon="-1.27768">
        <ele>61</ele>
        <time>2021-03-27T10:06:10.000Z</time>
      </trkpt>
      <trkpt lat="47.3388" lon="-1.2777">
        <ele>61</ele>
        <time>2021-03-27T10:06:12.000Z</time>
      </trkpt>
      <trkpt lat="47.33891" lon="-1.27774">
        <ele>60</ele>
        <time>2021-03-27T10:06:14.000Z</time>
      </trkpt>
      <trkpt lat="47.33901" lon="-1.27777">
        <ele>59</ele>
        <time>2021-03-27T10:06:16.000Z</time>
      </trkpt>
      <trkpt lat="47.33912" lon="-1.27781">
        <ele>60</ele>
        <time>2021-03-27T10:06:18.000Z</time>
      </trkpt>
      <trkpt lat="47.33923" lon="-1.27785">
        <ele>61</ele>
        <time>2021-03-27T10:06:20.000Z</time>
      </trkpt>
      <trkpt lat="47.33935" lon="-1.27789">
        <ele>62</ele>
        <time>2021-03-27T10:06:22.000Z</time>
      </trkpt>
      <trkpt lat="47.33947" lon="-1.27793">
        <ele>61</ele>
        <time>2021-03-27T10:06:24.000Z</time>
      </trkpt>
      <trkpt lat="47.33966" lon="-1.27799">
        <ele>62</ele>
        <time>2021-03-27T10:06:27.000Z</time>
      </trkpt>
      <trkpt lat="47.33977" lon="-1.27801">
        <ele>62</ele>
        <time>2021-03-27T10:06:29.000Z</time>
      </trkpt>
      <trkpt lat="47.33988" lon="-1.27807">
        <ele>63</ele>
        <time>2021-03-27T10:06:31.000Z</time>
      </trkpt>
      <trkpt lat="47.34" lon="-1.27811">
        <ele>64</ele>
        <time>2021-03-27T10:06:33.000Z</time>
      </trkpt>
      <trkpt lat="47.3402" lon="-1.27817">
        <ele>64</ele>
        <time>2021-03-27T10:06:36.000Z</time>
      </trkpt>
      <trkpt lat="47.34033" lon="-1.27822">
        <ele>65</ele>
        <time>2021-03-27T10:06:38.000Z</time>
      </trkpt>
      <trkpt lat="47.34047" lon="-1.27825">
        <ele>65</ele>
        <time>2021-03-27T10:06:40.000Z</time>
      </trkpt>
      <trkpt lat="47.34059" lon="-1.27829">
        <ele>64</ele>
        <time>2021-03-27T10:06:42.000Z</time>
      </trkpt>
      <trkpt lat="47.34072" lon="-1.27834">
        <ele>62</ele>
        <time>2021-03-27T10:06:44.000Z</time>
      </trkpt>
      <trkpt lat="47.34084" lon="-1.27839">
        <ele>63</ele>
        <time>2021-03-27T10:06:46.000Z</time>
      </trkpt>
      <trkpt lat="47.34097" lon="-1.27843">
        <ele>64</ele>
        <time>2021-03-27T10:06:48.000Z</time>
      </trkpt>
      <trkpt lat="47.3411" lon="-1.27847">
        <ele>64</ele>
        <time>2021-03-27T10:06:50.000Z</time>
      </trkpt>
      <trkpt lat="47.34122" lon="-1.27851">
        <ele>64</ele>
        <time>2021-03-27T10:06:52.000Z</time>
      </trkpt>
      <trkpt lat="47.34139" lon="-1.27855">
        <ele>63</ele>
        <time>2021-03-27T10:06:55.000Z</time>
      </trkpt>
      <trkpt lat="47.34151" lon="-1.27858">
        <ele>65</ele>
        <time>2021-03-27T10:06:57.000Z</time>
      </trkpt>
      <trkpt lat="47.34162" lon="-1.27862">
        <ele>65</ele>
        <time>2021-03-27T10:06:59.000Z</time>
      </trkpt>
      <trkpt lat="47.34174" lon="-1.27865">
        <ele>65</ele>
        <time>2021-03-27T10:07:01.000Z</time>
      </trkpt>
      <trkpt lat="47.34186" lon="-1.2787">
        <ele>65</ele>
        <time>2021-03-27T10:07:03.000Z</time>
      </trkpt>
      <trkpt lat="47.34199" lon="-1.27872">
        <ele>65</ele>
        <time>2021-03-27T10:07:05.000Z</time>
      </trkpt>
      <trkpt lat="47.3421" lon="-1.27877">
        <ele>65</ele>
        <time>2021-03-27T10:07:07.000Z</time>
      </trkpt>
      <trkpt lat="47.34222" lon="-1.27881">
        <ele>64</ele>
        <time>2021-03-27T10:07:09.000Z</time>
      </trkpt>
      <trkpt lat="47.34234" lon="-1.27884">
        <ele>64</ele>
        <time>2021-03-27T10:07:11.000Z</time>
      </trkpt>
      <trkpt lat="47.34252" lon="-1.27891">
        <ele>64</ele>
        <time>2021-03-27T10:07:14.000Z</time>
      </trkpt>
      <trkpt lat="47.34265" lon="-1.27895">
        <ele>64</ele>
        <time>2021-03-27T10:07:16.000Z</time>
      </trkpt>
      <trkpt lat="47.34277" lon="-1.27899">
        <ele>65</ele>
        <time>2021-03-27T10:07:18.000Z</time>
      </trkpt>
      <trkpt lat="47.34289" lon="-1.27903">
        <ele>65</ele>
        <time>2021-03-27T10:07:20.000Z</time>
      </trkpt>
      <trkpt lat="47.34302" lon="-1.27907">
        <ele>65</ele>
        <time>2021-03-27T10:07:22.000Z</time>
      </trkpt>
      <trkpt lat="47.34316" lon="-1.2791">
        <ele>65</ele>
        <time>2021-03-27T10:07:24.000Z</time>
      </trkpt>
      <trkpt lat="47.34329" lon="-1.27914">
        <ele>65</ele>
        <time>2021-03-27T10:07:26.000Z</time>
      </trkpt>
      <trkpt lat="47.34342" lon="-1.27919">
        <ele>65</ele>
        <time>2021-03-27T10:07:28.000Z</time>
      </trkpt>
      <trkpt lat="47.34356" lon="-1.27922">
        <ele>65</ele>
        <time>2021-03-27T10:07:30.000Z</time>
      </trkpt>
      <trkpt lat="47.34369" lon="-1.27926">
        <ele>66</ele>
        <time>2021-03-27T10:07:32.000Z</time>
      </trkpt>
      <trkpt lat="47.34381" lon="-1.27928">
        <ele>65</ele>
        <time>2021-03-27T10:07:34.000Z</time>
      </trkpt>
      <trkpt lat="47.344" lon="-1.27937">
        <ele>67</ele>
        <time>2021-03-27T10:07:37.000Z</time>
      </trkpt>
      <trkpt lat="47.34412" lon="-1.27942">
        <ele>66</ele>
        <time>2021-03-27T10:07:39.000Z</time>
      </trkpt>
      <trkpt lat="47.34432" lon="-1.27953">
        <ele>66</ele>
        <time>2021-03-27T10:07:42.000Z</time>
      </trkpt>
      <trkpt lat="47.34444" lon="-1.27959">
        <ele>66</ele>
        <time>2021-03-27T10:07:44.000Z</time>
      </trkpt>
      <trkpt lat="47.34453" lon="-1.2797">
        <ele>66</ele>
        <time>2021-03-27T10:07:46.000Z</time>
      </trkpt>
      <trkpt lat="47.34471" lon="-1.27985">
        <ele>65</ele>
        <time>2021-03-27T10:07:49.000Z</time>
      </trkpt>
      <trkpt lat="47.34482" lon="-1.27998">
        <ele>64</ele>
        <time>2021-03-27T10:07:51.000Z</time>
      </trkpt>
      <trkpt lat="47.34491" lon="-1.28016">
        <ele>64</ele>
        <time>2021-03-27T10:07:53.000Z</time>
      </trkpt>
      <trkpt lat="47.345" lon="-1.28033">
        <ele>65</ele>
        <time>2021-03-27T10:07:55.000Z</time>
      </trkpt>
      <trkpt lat="47.34508" lon="-1.28053">
        <ele>65</ele>
        <time>2021-03-27T10:07:57.000Z</time>
      </trkpt>
      <trkpt lat="47.34514" lon="-1.28074">
        <ele>66</ele>
        <time>2021-03-27T10:07:59.000Z</time>
      </trkpt>
      <trkpt lat="47.3452" lon="-1.28095">
        <ele>64</ele>
        <time>2021-03-27T10:08:01.000Z</time>
      </trkpt>
      <trkpt lat="47.34526" lon="-1.28119">
        <ele>63</ele>
        <time>2021-03-27T10:08:03.000Z</time>
      </trkpt>
      <trkpt lat="47.34527" lon="-1.28144">
        <ele>61</ele>
        <time>2021-03-27T10:08:05.000Z</time>
      </trkpt>
      <trkpt lat="47.34528" lon="-1.28167">
        <ele>61</ele>
        <time>2021-03-27T10:08:07.000Z</time>
      </trkpt>
      <trkpt lat="47.34529" lon="-1.28191">
        <ele>60</ele>
        <time>2021-03-27T10:08:09.000Z</time>
      </trkpt>
      <trkpt lat="47.34527" lon="-1.28213">
        <ele>60</ele>
        <time>2021-03-27T10:08:11.000Z</time>
      </trkpt>
      <trkpt lat="47.34526" lon="-1.28231">
        <ele>61</ele>
        <time>2021-03-27T10:08:13.000Z</time>
      </trkpt>
      <trkpt lat="47.34532" lon="-1.28243">
        <ele>60</ele>
        <time>2021-03-27T10:08:15.000Z</time>
      </trkpt>
      <trkpt lat="47.34541" lon="-1.28246">
        <ele>60</ele>
        <time>2021-03-27T10:08:17.000Z</time>
      </trkpt>
      <trkpt lat="47.3455" lon="-1.28244">
        <ele>60</ele>
        <time>2021-03-27T10:08:19.000Z</time>
      </trkpt>
      <trkpt lat="47.34559" lon="-1.28241">
        <ele>60</ele>
        <time>2021-03-27T10:08:21.000Z</time>
      </trkpt>
      <trkpt lat="47.34569" lon="-1.28235">
        <ele>59</ele>
        <time>2021-03-27T10:08:23.000Z</time>
      </trkpt>
      <trkpt lat="47.34578" lon="-1.2823">
        <ele>59</ele>
        <time>2021-03-27T10:08:25.000Z</time>
      </trkpt>
      <trkpt lat="47.34588" lon="-1.28223">
        <ele>61</ele>
        <time>2021-03-27T10:08:28.000Z</time>
      </trkpt>
      <trkpt lat="47.34597" lon="-1.28216">
        <ele>60</ele>
        <time>2021-03-27T10:08:31.000Z</time>
      </trkpt>
      <trkpt lat="47.34602" lon="-1.28232">
        <ele>60</ele>
        <time>2021-03-27T10:08:34.000Z</time>
      </trkpt>
      <trkpt lat="47.34601" lon="-1.28245">
        <ele>63</ele>
        <time>2021-03-27T10:08:36.000Z</time>
      </trkpt>
      <trkpt lat="47.34602" lon="-1.28263">
        <ele>64</ele>
        <time>2021-03-27T10:08:39.000Z</time>
      </trkpt>
      <trkpt lat="47.34606" lon="-1.28278">
        <ele>63</ele>
        <time>2021-03-27T10:08:41.000Z</time>
      </trkpt>
      <trkpt lat="47.3461" lon="-1.28293">
        <ele>62</ele>
        <time>2021-03-27T10:08:43.000Z</time>
      </trkpt>
      <trkpt lat="47.34614" lon="-1.28308">
        <ele>61</ele>
        <time>2021-03-27T10:08:45.000Z</time>
      </trkpt>
      <trkpt lat="47.34618" lon="-1.28322">
        <ele>60</ele>
        <time>2021-03-27T10:08:47.000Z</time>
      </trkpt>
      <trkpt lat="47.34623" lon="-1.28343">
        <ele>58</ele>
        <time>2021-03-27T10:08:50.000Z</time>
      </trkpt>
      <trkpt lat="47.3463" lon="-1.28358">
        <ele>60</ele>
        <time>2021-03-27T10:08:53.000Z</time>
      </trkpt>
      <trkpt lat="47.34641" lon="-1.2836">
        <ele>65</ele>
        <time>2021-03-27T10:08:56.000Z</time>
      </trkpt>
      <trkpt lat="47.34652" lon="-1.28361">
        <ele>64</ele>
        <time>2021-03-27T10:08:59.000Z</time>
      </trkpt>
      <trkpt lat="47.3466" lon="-1.28352">
        <ele>63</ele>
        <time>2021-03-27T10:09:02.000Z</time>
      </trkpt>
      <trkpt lat="47.34664" lon="-1.28334">
        <ele>63</ele>
        <time>2021-03-27T10:09:05.000Z</time>
      </trkpt>
      <trkpt lat="47.34672" lon="-1.28311">
        <ele>63</ele>
        <time>2021-03-27T10:09:08.000Z</time>
      </trkpt>
      <trkpt lat="47.34676" lon="-1.28296">
        <ele>63</ele>
        <time>2021-03-27T10:09:10.000Z</time>
      </trkpt>
      <trkpt lat="47.3468" lon="-1.28279">
        <ele>63</ele>
        <time>2021-03-27T10:09:12.000Z</time>
      </trkpt>
      <trkpt lat="47.34684" lon="-1.28264">
        <ele>62</ele>
        <time>2021-03-27T10:09:14.000Z</time>
      </trkpt>
      <trkpt lat="47.34688" lon="-1.28247">
        <ele>62</ele>
        <time>2021-03-27T10:09:16.000Z</time>
      </trkpt>
      <trkpt lat="47.34692" lon="-1.28231">
        <ele>62</ele>
        <time>2021-03-27T10:09:18.000Z</time>
      </trkpt>
      <trkpt lat="47.34696" lon="-1.28214">
        <ele>61</ele>
        <time>2021-03-27T10:09:20.000Z</time>
      </trkpt>
      <trkpt lat="47.34701" lon="-1.28196">
        <ele>61</ele>
        <time>2021-03-27T10:09:22.000Z</time>
      </trkpt>
      <trkpt lat="47.34706" lon="-1.2818">
        <ele>60</ele>
        <time>2021-03-27T10:09:24.000Z</time>
      </trkpt>
      <trkpt lat="47.34711" lon="-1.28164">
        <ele>59</ele>
        <time>2021-03-27T10:09:26.000Z</time>
      </trkpt>
      <trkpt lat="47.34715" lon="-1.28146">
        <ele>60</ele>
        <time>2021-03-27T10:09:28.000Z</time>
      </trkpt>
      <trkpt lat="47.34718" lon="-1.28132">
        <ele>60</ele>
        <time>2021-03-27T10:09:30.000Z</time>
      </trkpt>
      <trkpt lat="47.34722" lon="-1.28106">
        <ele>61</ele>
        <time>2021-03-27T10:09:33.000Z</time>
      </trkpt>
      <trkpt lat="47.34721" lon="-1.28082">
        <ele>60</ele>
        <time>2021-03-27T10:09:36.000Z</time>
      </trkpt>
      <trkpt lat="47.34707" lon="-1.28072">
        <ele>58</ele>
        <time>2021-03-27T10:09:39.000Z</time>
      </trkpt>
      <trkpt lat="47.34696" lon="-1.2807">
        <ele>59</ele>
        <time>2021-03-27T10:09:41.000Z</time>
      </trkpt>
      <trkpt lat="47.34686" lon="-1.28065">
        <ele>61</ele>
        <time>2021-03-27T10:09:43.000Z</time>
      </trkpt>
      <trkpt lat="47.34679" lon="-1.2805">
        <ele>60</ele>
        <time>2021-03-27T10:09:45.000Z</time>
      </trkpt>
      <trkpt lat="47.34678" lon="-1.28029">
        <ele>59</ele>
        <time>2021-03-27T10:09:47.000Z</time>
      </trkpt>
      <trkpt lat="47.34681" lon="-1.28009">
        <ele>58</ele>
        <time>2021-03-27T10:09:49.000Z</time>
      </trkpt>
      <trkpt lat="47.3468" lon="-1.27991">
        <ele>59</ele>
        <time>2021-03-27T10:09:51.000Z</time>
      </trkpt>
      <trkpt lat="47.34684" lon="-1.27973">
        <ele>59</ele>
        <time>2021-03-27T10:09:53.000Z</time>
      </trkpt>
      <trkpt lat="47.34686" lon="-1.27953">
        <ele>59</ele>
        <time>2021-03-27T10:09:55.000Z</time>
      </trkpt>
      <trkpt lat="47.34689" lon="-1.27933">
        <ele>59</ele>
        <time>2021-03-27T10:09:57.000Z</time>
      </trkpt>
      <trkpt lat="47.34692" lon="-1.27913">
        <ele>58</ele>
        <time>2021-03-27T10:09:59.000Z</time>
      </trkpt>
      <trkpt lat="47.34695" lon="-1.27893">
        <ele>58</ele>
        <time>2021-03-27T10:10:01.000Z</time>
      </trkpt>
      <trkpt lat="47.34697" lon="-1.27878">
        <ele>58</ele>
        <time>2021-03-27T10:10:03.000Z</time>
      </trkpt>
      <trkpt lat="47.34697" lon="-1.2786">
        <ele>59</ele>
        <time>2021-03-27T10:10:05.000Z</time>
      </trkpt>
      <trkpt lat="47.34699" lon="-1.27841">
        <ele>60</ele>
        <time>2021-03-27T10:10:07.000Z</time>
      </trkpt>
      <trkpt lat="47.34702" lon="-1.27821">
        <ele>60</ele>
        <time>2021-03-27T10:10:09.000Z</time>
      </trkpt>
      <trkpt lat="47.34705" lon="-1.27802">
        <ele>60</ele>
        <time>2021-03-27T10:10:11.000Z</time>
      </trkpt>
      <trkpt lat="47.34707" lon="-1.27783">
        <ele>59</ele>
        <time>2021-03-27T10:10:13.000Z</time>
      </trkpt>
      <trkpt lat="47.3471" lon="-1.27764">
        <ele>58</ele>
        <time>2021-03-27T10:10:15.000Z</time>
      </trkpt>
      <trkpt lat="47.34716" lon="-1.27745">
        <ele>59</ele>
        <time>2021-03-27T10:10:17.000Z</time>
      </trkpt>
      <trkpt lat="47.34721" lon="-1.27725">
        <ele>59</ele>
        <time>2021-03-27T10:10:19.000Z</time>
      </trkpt>
      <trkpt lat="47.34725" lon="-1.27707">
        <ele>60</ele>
        <time>2021-03-27T10:10:21.000Z</time>
      </trkpt>
      <trkpt lat="47.34726" lon="-1.27689">
        <ele>61</ele>
        <time>2021-03-27T10:10:23.000Z</time>
      </trkpt>
      <trkpt lat="47.34727" lon="-1.27668">
        <ele>61</ele>
        <time>2021-03-27T10:10:25.000Z</time>
      </trkpt>
      <trkpt lat="47.34728" lon="-1.27648">
        <ele>61</ele>
        <time>2021-03-27T10:10:27.000Z</time>
      </trkpt>
      <trkpt lat="47.34728" lon="-1.27629">
        <ele>61</ele>
        <time>2021-03-27T10:10:29.000Z</time>
      </trkpt>
      <trkpt lat="47.34728" lon="-1.27608">
        <ele>60</ele>
        <time>2021-03-27T10:10:31.000Z</time>
      </trkpt>
      <trkpt lat="47.3473" lon="-1.27588">
        <ele>60</ele>
        <time>2021-03-27T10:10:33.000Z</time>
      </trkpt>
      <trkpt lat="47.34731" lon="-1.27568">
        <ele>61</ele>
        <time>2021-03-27T10:10:35.000Z</time>
      </trkpt>
      <trkpt lat="47.34732" lon="-1.27546">
        <ele>61</ele>
        <time>2021-03-27T10:10:37.000Z</time>
      </trkpt>
      <trkpt lat="47.34734" lon="-1.27526">
        <ele>60</ele>
        <time>2021-03-27T10:10:39.000Z</time>
      </trkpt>
      <trkpt lat="47.34737" lon="-1.27507">
        <ele>60</ele>
        <time>2021-03-27T10:10:41.000Z</time>
      </trkpt>
      <trkpt lat="47.34739" lon="-1.2749">
        <ele>60</ele>
        <time>2021-03-27T10:10:43.000Z</time>
      </trkpt>
      <trkpt lat="47.3474" lon="-1.27474">
        <ele>60</ele>
        <time>2021-03-27T10:10:45.000Z</time>
      </trkpt>
      <trkpt lat="47.34743" lon="-1.27454">
        <ele>60</ele>
        <time>2021-03-27T10:10:47.000Z</time>
      </trkpt>
      <trkpt lat="47.34741" lon="-1.27429">
        <ele>57</ele>
        <time>2021-03-27T10:10:50.000Z</time>
      </trkpt>
      <trkpt lat="47.34741" lon="-1.27407">
        <ele>58</ele>
        <time>2021-03-27T10:10:52.000Z</time>
      </trkpt>
      <trkpt lat="47.34745" lon="-1.27384">
        <ele>58</ele>
        <time>2021-03-27T10:10:54.000Z</time>
      </trkpt>
      <trkpt lat="47.34748" lon="-1.27364">
        <ele>58</ele>
        <time>2021-03-27T10:10:56.000Z</time>
      </trkpt>
      <trkpt lat="47.34752" lon="-1.27346">
        <ele>59</ele>
        <time>2021-03-27T10:10:58.000Z</time>
      </trkpt>
      <trkpt lat="47.34753" lon="-1.27327">
        <ele>60</ele>
        <time>2021-03-27T10:11:00.000Z</time>
      </trkpt>
      <trkpt lat="47.34754" lon="-1.27307">
        <ele>61</ele>
        <time>2021-03-27T10:11:02.000Z</time>
      </trkpt>
      <trkpt lat="47.34757" lon="-1.27288">
        <ele>61</ele>
        <time>2021-03-27T10:11:04.000Z</time>
      </trkpt>
      <trkpt lat="47.34759" lon="-1.27269">
        <ele>61</ele>
        <time>2021-03-27T10:11:06.000Z</time>
      </trkpt>
      <trkpt lat="47.34761" lon="-1.2725">
        <ele>60</ele>
        <time>2021-03-27T10:11:08.000Z</time>
      </trkpt>
      <trkpt lat="47.34763" lon="-1.27233">
        <ele>58</ele>
        <time>2021-03-27T10:11:10.000Z</time>
      </trkpt>
      <trkpt lat="47.34764" lon="-1.27213">
        <ele>58</ele>
        <time>2021-03-27T10:11:12.000Z</time>
      </trkpt>
      <trkpt lat="47.34765" lon="-1.27194">
        <ele>58</ele>
        <time>2021-03-27T10:11:14.000Z</time>
      </trkpt>
      <trkpt lat="47.34767" lon="-1.27174">
        <ele>58</ele>
        <time>2021-03-27T10:11:16.000Z</time>
      </trkpt>
      <trkpt lat="47.34768" lon="-1.27158">
        <ele>57</ele>
        <time>2021-03-27T10:11:18.000Z</time>
      </trkpt>
      <trkpt lat="47.34769" lon="-1.27139">
        <ele>58</ele>
        <time>2021-03-27T10:11:20.000Z</time>
      </trkpt>
      <trkpt lat="47.34771" lon="-1.2712">
        <ele>58</ele>
        <time>2021-03-27T10:11:22.000Z</time>
      </trkpt>
      <trkpt lat="47.34773" lon="-1.271">
        <ele>58</ele>
        <time>2021-03-27T10:11:24.000Z</time>
      </trkpt>
      <trkpt lat="47.34775" lon="-1.27081">
        <ele>57</ele>
        <time>2021-03-27T10:11:26.000Z</time>
      </trkpt>
      <trkpt lat="47.34778" lon="-1.27059">
        <ele>57</ele>
        <time>2021-03-27T10:11:28.000Z</time>
      </trkpt>
      <trkpt lat="47.34783" lon="-1.27037">
        <ele>58</ele>
        <time>2021-03-27T10:11:30.000Z</time>
      </trkpt>
      <trkpt lat="47.34786" lon="-1.27016">
        <ele>60</ele>
        <time>2021-03-27T10:11:32.000Z</time>
      </trkpt>
      <trkpt lat="47.3479" lon="-1.26996">
        <ele>60</ele>
        <time>2021-03-27T10:11:34.000Z</time>
      </trkpt>
      <trkpt lat="47.34793" lon="-1.26976">
        <ele>60</ele>
        <time>2021-03-27T10:11:36.000Z</time>
      </trkpt>
      <trkpt lat="47.34796" lon="-1.26958">
        <ele>60</ele>
        <time>2021-03-27T10:11:38.000Z</time>
      </trkpt>
      <trkpt lat="47.34799" lon="-1.26939">
        <ele>60</ele>
        <time>2021-03-27T10:11:40.000Z</time>
      </trkpt>
      <trkpt lat="47.34802" lon="-1.26921">
        <ele>60</ele>
        <time>2021-03-27T10:11:42.000Z</time>
      </trkpt>
      <trkpt lat="47.34806" lon="-1.26903">
        <ele>61</ele>
        <time>2021-03-27T10:11:44.000Z</time>
      </trkpt>
      <trkpt lat="47.34808" lon="-1.26875">
        <ele>63</ele>
        <time>2021-03-27T10:11:47.000Z</time>
      </trkpt>
      <trkpt lat="47.34812" lon="-1.26858">
        <ele>61</ele>
        <time>2021-03-27T10:11:49.000Z</time>
      </trkpt>
      <trkpt lat="47.34816" lon="-1.26844">
        <ele>59</ele>
        <time>2021-03-27T10:11:51.000Z</time>
      </trkpt>
      <trkpt lat="47.34819" lon="-1.26826">
        <ele>60</ele>
        <time>2021-03-27T10:11:53.000Z</time>
      </trkpt>
      <trkpt lat="47.3482" lon="-1.26805">
        <ele>60</ele>
        <time>2021-03-27T10:11:55.000Z</time>
      </trkpt>
      <trkpt lat="47.34823" lon="-1.26786">
        <ele>61</ele>
        <time>2021-03-27T10:11:57.000Z</time>
      </trkpt>
      <trkpt lat="47.34827" lon="-1.26771">
        <ele>58</ele>
        <time>2021-03-27T10:11:59.000Z</time>
      </trkpt>
      <trkpt lat="47.34837" lon="-1.26756">
        <ele>58</ele>
        <time>2021-03-27T10:12:01.000Z</time>
      </trkpt>
      <trkpt lat="47.3485" lon="-1.26744">
        <ele>58</ele>
        <time>2021-03-27T10:12:03.000Z</time>
      </trkpt>
      <trkpt lat="47.34861" lon="-1.26734">
        <ele>59</ele>
        <time>2021-03-27T10:12:05.000Z</time>
      </trkpt>
      <trkpt lat="47.34871" lon="-1.26721">
        <ele>58</ele>
        <time>2021-03-27T10:12:07.000Z</time>
      </trkpt>
      <trkpt lat="47.34882" lon="-1.2671">
        <ele>59</ele>
        <time>2021-03-27T10:12:09.000Z</time>
      </trkpt>
      <trkpt lat="47.34892" lon="-1.26701">
        <ele>60</ele>
        <time>2021-03-27T10:12:11.000Z</time>
      </trkpt>
      <trkpt lat="47.34907" lon="-1.26687">
        <ele>59</ele>
        <time>2021-03-27T10:12:14.000Z</time>
      </trkpt>
      <trkpt lat="47.34917" lon="-1.26679">
        <ele>60</ele>
        <time>2021-03-27T10:12:16.000Z</time>
      </trkpt>
      <trkpt lat="47.34925" lon="-1.2667">
        <ele>61</ele>
        <time>2021-03-27T10:12:18.000Z</time>
      </trkpt>
      <trkpt lat="47.3494" lon="-1.26657">
        <ele>62</ele>
        <time>2021-03-27T10:12:21.000Z</time>
      </trkpt>
      <trkpt lat="47.34951" lon="-1.26644">
        <ele>64</ele>
        <time>2021-03-27T10:12:24.000Z</time>
      </trkpt>
      <trkpt lat="47.34952" lon="-1.26625">
        <ele>63</ele>
        <time>2021-03-27T10:12:27.000Z</time>
      </trkpt>
      <trkpt lat="47.3495" lon="-1.26608">
        <ele>63</ele>
        <time>2021-03-27T10:12:29.000Z</time>
      </trkpt>
      <trkpt lat="47.34948" lon="-1.26594">
        <ele>63</ele>
        <time>2021-03-27T10:12:31.000Z</time>
      </trkpt>
      <trkpt lat="47.34945" lon="-1.2658">
        <ele>63</ele>
        <time>2021-03-27T10:12:33.000Z</time>
      </trkpt>
      <trkpt lat="47.34942" lon="-1.26565">
        <ele>64</ele>
        <time>2021-03-27T10:12:35.000Z</time>
      </trkpt>
      <trkpt lat="47.34939" lon="-1.26549">
        <ele>62</ele>
        <time>2021-03-27T10:12:37.000Z</time>
      </trkpt>
      <trkpt lat="47.34936" lon="-1.26532">
        <ele>61</ele>
        <time>2021-03-27T10:12:39.000Z</time>
      </trkpt>
      <trkpt lat="47.34935" lon="-1.26516">
        <ele>62</ele>
        <time>2021-03-27T10:12:41.000Z</time>
      </trkpt>
      <trkpt lat="47.34933" lon="-1.26499">
        <ele>62</ele>
        <time>2021-03-27T10:12:43.000Z</time>
      </trkpt>
      <trkpt lat="47.34931" lon="-1.26483">
        <ele>62</ele>
        <time>2021-03-27T10:12:45.000Z</time>
      </trkpt>
      <trkpt lat="47.34929" lon="-1.26466">
        <ele>62</ele>
        <time>2021-03-27T10:12:47.000Z</time>
      </trkpt>
      <trkpt lat="47.34928" lon="-1.26449">
        <ele>62</ele>
        <time>2021-03-27T10:12:49.000Z</time>
      </trkpt>
      <trkpt lat="47.34927" lon="-1.26422">
        <ele>62</ele>
        <time>2021-03-27T10:12:52.000Z</time>
      </trkpt>
      <trkpt lat="47.34925" lon="-1.26404">
        <ele>61</ele>
        <time>2021-03-27T10:12:54.000Z</time>
      </trkpt>
      <trkpt lat="47.34924" lon="-1.26385">
        <ele>62</ele>
        <time>2021-03-27T10:12:56.000Z</time>
      </trkpt>
      <trkpt lat="47.34923" lon="-1.26356">
        <ele>61</ele>
        <time>2021-03-27T10:12:59.000Z</time>
      </trkpt>
      <trkpt lat="47.34921" lon="-1.26337">
        <ele>61</ele>
        <time>2021-03-27T10:13:01.000Z</time>
      </trkpt>
      <trkpt lat="47.34919" lon="-1.26317">
        <ele>61</ele>
        <time>2021-03-27T10:13:03.000Z</time>
      </trkpt>
      <trkpt lat="47.34918" lon="-1.26299">
        <ele>61</ele>
        <time>2021-03-27T10:13:05.000Z</time>
      </trkpt>
      <trkpt lat="47.34915" lon="-1.26279">
        <ele>60</ele>
        <time>2021-03-27T10:13:07.000Z</time>
      </trkpt>
      <trkpt lat="47.34909" lon="-1.26261">
        <ele>60</ele>
        <time>2021-03-27T10:13:09.000Z</time>
      </trkpt>
      <trkpt lat="47.34904" lon="-1.26243">
        <ele>59</ele>
        <time>2021-03-27T10:13:11.000Z</time>
      </trkpt>
      <trkpt lat="47.34897" lon="-1.26223">
        <ele>59</ele>
        <time>2021-03-27T10:13:13.000Z</time>
      </trkpt>
      <trkpt lat="47.3489" lon="-1.262">
        <ele>58</ele>
        <time>2021-03-27T10:13:15.000Z</time>
      </trkpt>
      <trkpt lat="47.34883" lon="-1.2618">
        <ele>58</ele>
        <time>2021-03-27T10:13:17.000Z</time>
      </trkpt>
      <trkpt lat="47.34877" lon="-1.2616">
        <ele>58</ele>
        <time>2021-03-27T10:13:19.000Z</time>
      </trkpt>
      <trkpt lat="47.3487" lon="-1.26146">
        <ele>57</ele>
        <time>2021-03-27T10:13:21.000Z</time>
      </trkpt>
      <trkpt lat="47.34865" lon="-1.26128">
        <ele>58</ele>
        <time>2021-03-27T10:13:23.000Z</time>
      </trkpt>
      <trkpt lat="47.34857" lon="-1.26108">
        <ele>59</ele>
        <time>2021-03-27T10:13:25.000Z</time>
      </trkpt>
      <trkpt lat="47.34846" lon="-1.26085">
        <ele>60</ele>
        <time>2021-03-27T10:13:28.000Z</time>
      </trkpt>
      <trkpt lat="47.34841" lon="-1.26065">
        <ele>61</ele>
        <time>2021-03-27T10:13:30.000Z</time>
      </trkpt>
      <trkpt lat="47.34835" lon="-1.26046">
        <ele>62</ele>
        <time>2021-03-27T10:13:32.000Z</time>
      </trkpt>
      <trkpt lat="47.34827" lon="-1.26018">
        <ele>61</ele>
        <time>2021-03-27T10:13:35.000Z</time>
      </trkpt>
      <trkpt lat="47.34823" lon="-1.26">
        <ele>61</ele>
        <time>2021-03-27T10:13:37.000Z</time>
      </trkpt>
      <trkpt lat="47.34821" lon="-1.25979">
        <ele>61</ele>
        <time>2021-03-27T10:13:39.000Z</time>
      </trkpt>
      <trkpt lat="47.34817" lon="-1.25958">
        <ele>62</ele>
        <time>2021-03-27T10:13:41.000Z</time>
      </trkpt>
      <trkpt lat="47.34814" lon="-1.25937">
        <ele>62</ele>
        <time>2021-03-27T10:13:43.000Z</time>
      </trkpt>
      <trkpt lat="47.3481" lon="-1.25918">
        <ele>61</ele>
        <time>2021-03-27T10:13:45.000Z</time>
      </trkpt>
      <trkpt lat="47.34806" lon="-1.25902">
        <ele>61</ele>
        <time>2021-03-27T10:13:47.000Z</time>
      </trkpt>
      <trkpt lat="47.34805" lon="-1.25884">
        <ele>61</ele>
        <time>2021-03-27T10:13:49.000Z</time>
      </trkpt>
      <trkpt lat="47.348" lon="-1.25856">
        <ele>59</ele>
        <time>2021-03-27T10:13:52.000Z</time>
      </trkpt>
      <trkpt lat="47.34796" lon="-1.25839">
        <ele>60</ele>
        <time>2021-03-27T10:13:54.000Z</time>
      </trkpt>
      <trkpt lat="47.34794" lon="-1.25817">
        <ele>60</ele>
        <time>2021-03-27T10:13:56.000Z</time>
      </trkpt>
      <trkpt lat="47.3479" lon="-1.25798">
        <ele>58</ele>
        <time>2021-03-27T10:13:58.000Z</time>
      </trkpt>
      <trkpt lat="47.34785" lon="-1.25781">
        <ele>58</ele>
        <time>2021-03-27T10:14:00.000Z</time>
      </trkpt>
      <trkpt lat="47.34782" lon="-1.25763">
        <ele>58</ele>
        <time>2021-03-27T10:14:02.000Z</time>
      </trkpt>
      <trkpt lat="47.34777" lon="-1.25744">
        <ele>59</ele>
        <time>2021-03-27T10:14:04.000Z</time>
      </trkpt>
      <trkpt lat="47.34773" lon="-1.25725">
        <ele>58</ele>
        <time>2021-03-27T10:14:06.000Z</time>
      </trkpt>
      <trkpt lat="47.3477" lon="-1.25705">
        <ele>58</ele>
        <time>2021-03-27T10:14:08.000Z</time>
      </trkpt>
      <trkpt lat="47.34769" lon="-1.25683">
        <ele>58</ele>
        <time>2021-03-27T10:14:10.000Z</time>
      </trkpt>
      <trkpt lat="47.34768" lon="-1.25651">
        <ele>57</ele>
        <time>2021-03-27T10:14:13.000Z</time>
      </trkpt>
      <trkpt lat="47.34767" lon="-1.25631">
        <ele>56</ele>
        <time>2021-03-27T10:14:15.000Z</time>
      </trkpt>
      <trkpt lat="47.34769" lon="-1.25611">
        <ele>57</ele>
        <time>2021-03-27T10:14:17.000Z</time>
      </trkpt>
      <trkpt lat="47.34774" lon="-1.25589">
        <ele>59</ele>
        <time>2021-03-27T10:14:19.000Z</time>
      </trkpt>
      <trkpt lat="47.34778" lon="-1.2557">
        <ele>59</ele>
        <time>2021-03-27T10:14:21.000Z</time>
      </trkpt>
      <trkpt lat="47.34781" lon="-1.25553">
        <ele>58</ele>
        <time>2021-03-27T10:14:23.000Z</time>
      </trkpt>
      <trkpt lat="47.34785" lon="-1.25533">
        <ele>58</ele>
        <time>2021-03-27T10:14:25.000Z</time>
      </trkpt>
      <trkpt lat="47.34788" lon="-1.25513">
        <ele>59</ele>
        <time>2021-03-27T10:14:27.000Z</time>
      </trkpt>
      <trkpt lat="47.34791" lon="-1.25493">
        <ele>59</ele>
        <time>2021-03-27T10:14:29.000Z</time>
      </trkpt>
      <trkpt lat="47.34789" lon="-1.25473">
        <ele>57</ele>
        <time>2021-03-27T10:14:31.000Z</time>
      </trkpt>
      <trkpt lat="47.3479" lon="-1.25454">
        <ele>58</ele>
        <time>2021-03-27T10:14:33.000Z</time>
      </trkpt>
      <trkpt lat="47.34794" lon="-1.25422">
        <ele>59</ele>
        <time>2021-03-27T10:14:36.000Z</time>
      </trkpt>
      <trkpt lat="47.34795" lon="-1.25405">
        <ele>57</ele>
        <time>2021-03-27T10:14:38.000Z</time>
      </trkpt>
      <trkpt lat="47.34795" lon="-1.25386">
        <ele>59</ele>
        <time>2021-03-27T10:14:41.000Z</time>
      </trkpt>
      <trkpt lat="47.34793" lon="-1.25361">
        <ele>61</ele>
        <time>2021-03-27T10:14:44.000Z</time>
      </trkpt>
      <trkpt lat="47.34785" lon="-1.25353">
        <ele>58</ele>
        <time>2021-03-27T10:14:46.000Z</time>
      </trkpt>
      <trkpt lat="47.34775" lon="-1.25355">
        <ele>58</ele>
        <time>2021-03-27T10:14:48.000Z</time>
      </trkpt>
      <trkpt lat="47.34766" lon="-1.25358">
        <ele>60</ele>
        <time>2021-03-27T10:14:50.000Z</time>
      </trkpt>
      <trkpt lat="47.34754" lon="-1.2536">
        <ele>60</ele>
        <time>2021-03-27T10:14:52.000Z</time>
      </trkpt>
      <trkpt lat="47.34743" lon="-1.25358">
        <ele>58</ele>
        <time>2021-03-27T10:14:54.000Z</time>
      </trkpt>
      <trkpt lat="47.34717" lon="-1.25349">
        <ele>64</ele>
        <time>2021-03-27T10:14:58.000Z</time>
      </trkpt>
      <trkpt lat="47.34716" lon="-1.25322">
        <ele>61</ele>
        <time>2021-03-27T10:15:02.000Z</time>
      </trkpt>
      <trkpt lat="47.3472" lon="-1.25303">
        <ele>64</ele>
        <time>2021-03-27T10:15:05.000Z</time>
      </trkpt>
      <trkpt lat="47.34722" lon="-1.25288">
        <ele>63</ele>
        <time>2021-03-27T10:15:07.000Z</time>
      </trkpt>
      <trkpt lat="47.34725" lon="-1.25273">
        <ele>62</ele>
        <time>2021-03-27T10:15:09.000Z</time>
      </trkpt>
      <trkpt lat="47.34726" lon="-1.25258">
        <ele>61</ele>
        <time>2021-03-27T10:15:11.000Z</time>
      </trkpt>
      <trkpt lat="47.34727" lon="-1.25244">
        <ele>63</ele>
        <time>2021-03-27T10:15:13.000Z</time>
      </trkpt>
      <trkpt lat="47.3473" lon="-1.25229">
        <ele>62</ele>
        <time>2021-03-27T10:15:15.000Z</time>
      </trkpt>
      <trkpt lat="47.34733" lon="-1.25213">
        <ele>61</ele>
        <time>2021-03-27T10:15:17.000Z</time>
      </trkpt>
      <trkpt lat="47.34734" lon="-1.25199">
        <ele>60</ele>
        <time>2021-03-27T10:15:19.000Z</time>
      </trkpt>
      <trkpt lat="47.34736" lon="-1.25184">
        <ele>60</ele>
        <time>2021-03-27T10:15:21.000Z</time>
      </trkpt>
      <trkpt lat="47.3474" lon="-1.25168">
        <ele>60</ele>
        <time>2021-03-27T10:15:23.000Z</time>
      </trkpt>
      <trkpt lat="47.34743" lon="-1.25151">
        <ele>60</ele>
        <time>2021-03-27T10:15:25.000Z</time>
      </trkpt>
      <trkpt lat="47.34745" lon="-1.2513">
        <ele>58</ele>
        <time>2021-03-27T10:15:28.000Z</time>
      </trkpt>
      <trkpt lat="47.3475" lon="-1.25109">
        <ele>60</ele>
        <time>2021-03-27T10:15:30.000Z</time>
      </trkpt>
      <trkpt lat="47.34755" lon="-1.25092">
        <ele>59</ele>
        <time>2021-03-27T10:15:32.000Z</time>
      </trkpt>
      <trkpt lat="47.34758" lon="-1.25076">
        <ele>59</ele>
        <time>2021-03-27T10:15:34.000Z</time>
      </trkpt>
      <trkpt lat="47.34763" lon="-1.2506">
        <ele>59</ele>
        <time>2021-03-27T10:15:36.000Z</time>
      </trkpt>
      <trkpt lat="47.34767" lon="-1.25044">
        <ele>60</ele>
        <time>2021-03-27T10:15:38.000Z</time>
      </trkpt>
      <trkpt lat="47.3477" lon="-1.25031">
        <ele>61</ele>
        <time>2021-03-27T10:15:40.000Z</time>
      </trkpt>
      <trkpt lat="47.34774" lon="-1.25019">
        <ele>61</ele>
        <time>2021-03-27T10:15:42.000Z</time>
      </trkpt>
      <trkpt lat="47.34778" lon="-1.25006">
        <ele>61</ele>
        <time>2021-03-27T10:15:44.000Z</time>
      </trkpt>
      <trkpt lat="47.34783" lon="-1.2499">
        <ele>61</ele>
        <time>2021-03-27T10:15:46.000Z</time>
      </trkpt>
      <trkpt lat="47.34786" lon="-1.24974">
        <ele>60</ele>
        <time>2021-03-27T10:15:48.000Z</time>
      </trkpt>
      <trkpt lat="47.3479" lon="-1.24958">
        <ele>60</ele>
        <time>2021-03-27T10:15:50.000Z</time>
      </trkpt>
      <trkpt lat="47.34796" lon="-1.24942">
        <ele>60</ele>
        <time>2021-03-27T10:15:52.000Z</time>
      </trkpt>
      <trkpt lat="47.34802" lon="-1.24917">
        <ele>61</ele>
        <time>2021-03-27T10:15:55.000Z</time>
      </trkpt>
      <trkpt lat="47.34806" lon="-1.24902">
        <ele>62</ele>
        <time>2021-03-27T10:15:57.000Z</time>
      </trkpt>
      <trkpt lat="47.34811" lon="-1.24887">
        <ele>62</ele>
        <time>2021-03-27T10:15:59.000Z</time>
      </trkpt>
      <trkpt lat="47.34817" lon="-1.24872">
        <ele>62</ele>
        <time>2021-03-27T10:16:01.000Z</time>
      </trkpt>
      <trkpt lat="47.34824" lon="-1.24849">
        <ele>64</ele>
        <time>2021-03-27T10:16:04.000Z</time>
      </trkpt>
      <trkpt lat="47.34834" lon="-1.24832">
        <ele>63</ele>
        <time>2021-03-27T10:16:07.000Z</time>
      </trkpt>
      <trkpt lat="47.3484" lon="-1.24809">
        <ele>63</ele>
        <time>2021-03-27T10:16:09.000Z</time>
      </trkpt>
      <trkpt lat="47.34848" lon="-1.24791">
        <ele>62</ele>
        <time>2021-03-27T10:16:11.000Z</time>
      </trkpt>
      <trkpt lat="47.34854" lon="-1.24773">
        <ele>62</ele>
        <time>2021-03-27T10:16:13.000Z</time>
      </trkpt>
      <trkpt lat="47.34862" lon="-1.24756">
        <ele>62</ele>
        <time>2021-03-27T10:16:15.000Z</time>
      </trkpt>
      <trkpt lat="47.34874" lon="-1.24732">
        <ele>62</ele>
        <time>2021-03-27T10:16:18.000Z</time>
      </trkpt>
      <trkpt lat="47.34881" lon="-1.24716">
        <ele>63</ele>
        <time>2021-03-27T10:16:20.000Z</time>
      </trkpt>
      <trkpt lat="47.34889" lon="-1.247">
        <ele>62</ele>
        <time>2021-03-27T10:16:22.000Z</time>
      </trkpt>
      <trkpt lat="47.34896" lon="-1.24684">
        <ele>62</ele>
        <time>2021-03-27T10:16:24.000Z</time>
      </trkpt>
      <trkpt lat="47.34903" lon="-1.24669">
        <ele>62</ele>
        <time>2021-03-27T10:16:26.000Z</time>
      </trkpt>
      <trkpt lat="47.3491" lon="-1.24651">
        <ele>62</ele>
        <time>2021-03-27T10:16:28.000Z</time>
      </trkpt>
      <trkpt lat="47.34917" lon="-1.24635">
        <ele>62</ele>
        <time>2021-03-27T10:16:30.000Z</time>
      </trkpt>
      <trkpt lat="47.34923" lon="-1.24624">
        <ele>61</ele>
        <time>2021-03-27T10:16:32.000Z</time>
      </trkpt>
      <trkpt lat="47.34928" lon="-1.24608">
        <ele>60</ele>
        <time>2021-03-27T10:16:34.000Z</time>
      </trkpt>
      <trkpt lat="47.34936" lon="-1.24592">
        <ele>62</ele>
        <time>2021-03-27T10:16:36.000Z</time>
      </trkpt>
      <trkpt lat="47.34944" lon="-1.24573">
        <ele>59</ele>
        <time>2021-03-27T10:16:39.000Z</time>
      </trkpt>
      <trkpt lat="47.34953" lon="-1.24553">
        <ele>63</ele>
        <time>2021-03-27T10:16:41.000Z</time>
      </trkpt>
      <trkpt lat="47.3496" lon="-1.24536">
        <ele>63</ele>
        <time>2021-03-27T10:16:43.000Z</time>
      </trkpt>
      <trkpt lat="47.34967" lon="-1.24519">
        <ele>62</ele>
        <time>2021-03-27T10:16:45.000Z</time>
      </trkpt>
      <trkpt lat="47.34977" lon="-1.24494">
        <ele>61</ele>
        <time>2021-03-27T10:16:48.000Z</time>
      </trkpt>
      <trkpt lat="47.34984" lon="-1.2448">
        <ele>62</ele>
        <time>2021-03-27T10:16:50.000Z</time>
      </trkpt>
      <trkpt lat="47.34991" lon="-1.24463">
        <ele>61</ele>
        <time>2021-03-27T10:16:52.000Z</time>
      </trkpt>
      <trkpt lat="47.34998" lon="-1.24448">
        <ele>59</ele>
        <time>2021-03-27T10:16:54.000Z</time>
      </trkpt>
      <trkpt lat="47.35004" lon="-1.24432">
        <ele>58</ele>
        <time>2021-03-27T10:16:56.000Z</time>
      </trkpt>
      <trkpt lat="47.35009" lon="-1.24415">
        <ele>59</ele>
        <time>2021-03-27T10:16:58.000Z</time>
      </trkpt>
      <trkpt lat="47.35016" lon="-1.24398">
        <ele>59</ele>
        <time>2021-03-27T10:17:00.000Z</time>
      </trkpt>
      <trkpt lat="47.35024" lon="-1.24372">
        <ele>58</ele>
        <time>2021-03-27T10:17:03.000Z</time>
      </trkpt>
      <trkpt lat="47.3503" lon="-1.24353">
        <ele>58</ele>
        <time>2021-03-27T10:17:05.000Z</time>
      </trkpt>
      <trkpt lat="47.35034" lon="-1.24337">
        <ele>59</ele>
        <time>2021-03-27T10:17:07.000Z</time>
      </trkpt>
      <trkpt lat="47.35039" lon="-1.2432">
        <ele>59</ele>
        <time>2021-03-27T10:17:09.000Z</time>
      </trkpt>
      <trkpt lat="47.35043" lon="-1.24304">
        <ele>58</ele>
        <time>2021-03-27T10:17:11.000Z</time>
      </trkpt>
      <trkpt lat="47.35048" lon="-1.24289">
        <ele>57</ele>
        <time>2021-03-27T10:17:13.000Z</time>
      </trkpt>
      <trkpt lat="47.35053" lon="-1.2427">
        <ele>59</ele>
        <time>2021-03-27T10:17:15.000Z</time>
      </trkpt>
      <trkpt lat="47.35058" lon="-1.24251">
        <ele>59</ele>
        <time>2021-03-27T10:17:17.000Z</time>
      </trkpt>
      <trkpt lat="47.35062" lon="-1.24235">
        <ele>58</ele>
        <time>2021-03-27T10:17:19.000Z</time>
      </trkpt>
      <trkpt lat="47.35067" lon="-1.24216">
        <ele>58</ele>
        <time>2021-03-27T10:17:21.000Z</time>
      </trkpt>
      <trkpt lat="47.35072" lon="-1.24198">
        <ele>59</ele>
        <time>2021-03-27T10:17:23.000Z</time>
      </trkpt>
      <trkpt lat="47.35078" lon="-1.24181">
        <ele>59</ele>
        <time>2021-03-27T10:17:25.000Z</time>
      </trkpt>
      <trkpt lat="47.35083" lon="-1.24165">
        <ele>60</ele>
        <time>2021-03-27T10:17:27.000Z</time>
      </trkpt>
      <trkpt lat="47.35087" lon="-1.24147">
        <ele>60</ele>
        <time>2021-03-27T10:17:29.000Z</time>
      </trkpt>
      <trkpt lat="47.35094" lon="-1.24121">
        <ele>61</ele>
        <time>2021-03-27T10:17:32.000Z</time>
      </trkpt>
      <trkpt lat="47.35097" lon="-1.24104">
        <ele>60</ele>
        <time>2021-03-27T10:17:34.000Z</time>
      </trkpt>
      <trkpt lat="47.351" lon="-1.24088">
        <ele>60</ele>
        <time>2021-03-27T10:17:36.000Z</time>
      </trkpt>
      <trkpt lat="47.35105" lon="-1.24071">
        <ele>61</ele>
        <time>2021-03-27T10:17:38.000Z</time>
      </trkpt>
      <trkpt lat="47.3511" lon="-1.24054">
        <ele>61</ele>
        <time>2021-03-27T10:17:40.000Z</time>
      </trkpt>
      <trkpt lat="47.35113" lon="-1.2404">
        <ele>62</ele>
        <time>2021-03-27T10:17:42.000Z</time>
      </trkpt>
      <trkpt lat="47.35116" lon="-1.24024">
        <ele>64</ele>
        <time>2021-03-27T10:17:44.000Z</time>
      </trkpt>
      <trkpt lat="47.35126" lon="-1.24">
        <ele>62</ele>
        <time>2021-03-27T10:17:47.000Z</time>
      </trkpt>
      <trkpt lat="47.35132" lon="-1.23982">
        <ele>62</ele>
        <time>2021-03-27T10:17:49.000Z</time>
      </trkpt>
      <trkpt lat="47.35138" lon="-1.23963">
        <ele>63</ele>
        <time>2021-03-27T10:17:51.000Z</time>
      </trkpt>
      <trkpt lat="47.35143" lon="-1.23944">
        <ele>59</ele>
        <time>2021-03-27T10:17:53.000Z</time>
      </trkpt>
      <trkpt lat="47.35149" lon="-1.23924">
        <ele>59</ele>
        <time>2021-03-27T10:17:55.000Z</time>
      </trkpt>
      <trkpt lat="47.35153" lon="-1.23906">
        <ele>58</ele>
        <time>2021-03-27T10:17:57.000Z</time>
      </trkpt>
      <trkpt lat="47.35158" lon="-1.23891">
        <ele>56</ele>
        <time>2021-03-27T10:17:59.000Z</time>
      </trkpt>
      <trkpt lat="47.35162" lon="-1.23871">
        <ele>57</ele>
        <time>2021-03-27T10:18:01.000Z</time>
      </trkpt>
      <trkpt lat="47.35168" lon="-1.23855">
        <ele>59</ele>
        <time>2021-03-27T10:18:03.000Z</time>
      </trkpt>
      <trkpt lat="47.35172" lon="-1.2384">
        <ele>59</ele>
        <time>2021-03-27T10:18:05.000Z</time>
      </trkpt>
      <trkpt lat="47.35174" lon="-1.23826">
        <ele>57</ele>
        <time>2021-03-27T10:18:08.000Z</time>
      </trkpt>
      <trkpt lat="47.35173" lon="-1.23812">
        <ele>57</ele>
        <time>2021-03-27T10:18:12.000Z</time>
      </trkpt>
      <trkpt lat="47.35178" lon="-1.23801">
        <ele>58</ele>
        <time>2021-03-27T10:18:15.000Z</time>
      </trkpt>
      <trkpt lat="47.3519" lon="-1.23787">
        <ele>57</ele>
        <time>2021-03-27T10:18:19.000Z</time>
      </trkpt>
      <trkpt lat="47.35193" lon="-1.23773">
        <ele>55</ele>
        <time>2021-03-27T10:18:21.000Z</time>
      </trkpt>
      <trkpt lat="47.35197" lon="-1.23755">
        <ele>58</ele>
        <time>2021-03-27T10:18:24.000Z</time>
      </trkpt>
      <trkpt lat="47.352" lon="-1.23743">
        <ele>57</ele>
        <time>2021-03-27T10:18:26.000Z</time>
      </trkpt>
      <trkpt lat="47.35205" lon="-1.23725">
        <ele>56</ele>
        <time>2021-03-27T10:18:29.000Z</time>
      </trkpt>
      <trkpt lat="47.35209" lon="-1.2371">
        <ele>55</ele>
        <time>2021-03-27T10:18:31.000Z</time>
      </trkpt>
      <trkpt lat="47.35214" lon="-1.23694">
        <ele>56</ele>
        <time>2021-03-27T10:18:33.000Z</time>
      </trkpt>
      <trkpt lat="47.35218" lon="-1.2368">
        <ele>59</ele>
        <time>2021-03-27T10:18:35.000Z</time>
      </trkpt>
      <trkpt lat="47.35221" lon="-1.23666">
        <ele>59</ele>
        <time>2021-03-27T10:18:37.000Z</time>
      </trkpt>
      <trkpt lat="47.35225" lon="-1.2365">
        <ele>59</ele>
        <time>2021-03-27T10:18:39.000Z</time>
      </trkpt>
      <trkpt lat="47.35229" lon="-1.23629">
        <ele>60</ele>
        <time>2021-03-27T10:18:42.000Z</time>
      </trkpt>
      <trkpt lat="47.35234" lon="-1.23614">
        <ele>60</ele>
        <time>2021-03-27T10:18:44.000Z</time>
      </trkpt>
      <trkpt lat="47.35238" lon="-1.23597">
        <ele>58</ele>
        <time>2021-03-27T10:18:47.000Z</time>
      </trkpt>
      <trkpt lat="47.35243" lon="-1.23581">
        <ele>59</ele>
        <time>2021-03-27T10:18:49.000Z</time>
      </trkpt>
      <trkpt lat="47.35248" lon="-1.23564">
        <ele>60</ele>
        <time>2021-03-27T10:18:51.000Z</time>
      </trkpt>
      <trkpt lat="47.35252" lon="-1.23547">
        <ele>61</ele>
        <time>2021-03-27T10:18:53.000Z</time>
      </trkpt>
      <trkpt lat="47.35258" lon="-1.23529">
        <ele>61</ele>
        <time>2021-03-27T10:18:55.000Z</time>
      </trkpt>
      <trkpt lat="47.35263" lon="-1.23512">
        <ele>62</ele>
        <time>2021-03-27T10:18:57.000Z</time>
      </trkpt>
      <trkpt lat="47.35266" lon="-1.23498">
        <ele>62</ele>
        <time>2021-03-27T10:18:59.000Z</time>
      </trkpt>
      <trkpt lat="47.35271" lon="-1.23482">
        <ele>62</ele>
        <time>2021-03-27T10:19:01.000Z</time>
      </trkpt>
      <trkpt lat="47.35276" lon="-1.23466">
        <ele>61</ele>
        <time>2021-03-27T10:19:03.000Z</time>
      </trkpt>
      <trkpt lat="47.35278" lon="-1.2345">
        <ele>63</ele>
        <time>2021-03-27T10:19:05.000Z</time>
      </trkpt>
      <trkpt lat="47.35283" lon="-1.23435">
        <ele>63</ele>
        <time>2021-03-27T10:19:07.000Z</time>
      </trkpt>
      <trkpt lat="47.35288" lon="-1.23418">
        <ele>63</ele>
        <time>2021-03-27T10:19:09.000Z</time>
      </trkpt>
      <trkpt lat="47.35293" lon="-1.23401">
        <ele>63</ele>
        <time>2021-03-27T10:19:11.000Z</time>
      </trkpt>
      <trkpt lat="47.35298" lon="-1.23383">
        <ele>62</ele>
        <time>2021-03-27T10:19:13.000Z</time>
      </trkpt>
      <trkpt lat="47.35303" lon="-1.23367">
        <ele>62</ele>
        <time>2021-03-27T10:19:15.000Z</time>
      </trkpt>
      <trkpt lat="47.35309" lon="-1.23351">
        <ele>62</ele>
        <time>2021-03-27T10:19:17.000Z</time>
      </trkpt>
      <trkpt lat="47.35317" lon="-1.23328">
        <ele>60</ele>
        <time>2021-03-27T10:19:20.000Z</time>
      </trkpt>
      <trkpt lat="47.35322" lon="-1.23316">
        <ele>61</ele>
        <time>2021-03-27T10:19:22.000Z</time>
      </trkpt>
      <trkpt lat="47.35326" lon="-1.23303">
        <ele>61</ele>
        <time>2021-03-27T10:19:24.000Z</time>
      </trkpt>
      <trkpt lat="47.3533" lon="-1.2329">
        <ele>62</ele>
        <time>2021-03-27T10:19:26.000Z</time>
      </trkpt>
      <trkpt lat="47.35335" lon="-1.23275">
        <ele>63</ele>
        <time>2021-03-27T10:19:28.000Z</time>
      </trkpt>
      <trkpt lat="47.35341" lon="-1.2326">
        <ele>63</ele>
        <time>2021-03-27T10:19:30.000Z</time>
      </trkpt>
      <trkpt lat="47.35346" lon="-1.23245">
        <ele>62</ele>
        <time>2021-03-27T10:19:32.000Z</time>
      </trkpt>
      <trkpt lat="47.35351" lon="-1.23227">
        <ele>57</ele>
        <time>2021-03-27T10:19:34.000Z</time>
      </trkpt>
      <trkpt lat="47.35358" lon="-1.23211">
        <ele>57</ele>
        <time>2021-03-27T10:19:36.000Z</time>
      </trkpt>
      <trkpt lat="47.35366" lon="-1.23195">
        <ele>58</ele>
        <time>2021-03-27T10:19:38.000Z</time>
      </trkpt>
      <trkpt lat="47.35377" lon="-1.23171">
        <ele>60</ele>
        <time>2021-03-27T10:19:41.000Z</time>
      </trkpt>
      <trkpt lat="47.35383" lon="-1.23155">
        <ele>61</ele>
        <time>2021-03-27T10:19:43.000Z</time>
      </trkpt>
      <trkpt lat="47.35389" lon="-1.23141">
        <ele>62</ele>
        <time>2021-03-27T10:19:45.000Z</time>
      </trkpt>
      <trkpt lat="47.35398" lon="-1.23126">
        <ele>61</ele>
        <time>2021-03-27T10:19:47.000Z</time>
      </trkpt>
      <trkpt lat="47.35405" lon="-1.23111">
        <ele>60</ele>
        <time>2021-03-27T10:19:49.000Z</time>
      </trkpt>
      <trkpt lat="47.35413" lon="-1.23098">
        <ele>57</ele>
        <time>2021-03-27T10:19:51.000Z</time>
      </trkpt>
      <trkpt lat="47.35423" lon="-1.23083">
        <ele>58</ele>
        <time>2021-03-27T10:19:53.000Z</time>
      </trkpt>
      <trkpt lat="47.35428" lon="-1.23068">
        <ele>58</ele>
        <time>2021-03-27T10:19:55.000Z</time>
      </trkpt>
      <trkpt lat="47.35435" lon="-1.23055">
        <ele>59</ele>
        <time>2021-03-27T10:19:57.000Z</time>
      </trkpt>
      <trkpt lat="47.35441" lon="-1.23041">
        <ele>60</ele>
        <time>2021-03-27T10:19:59.000Z</time>
      </trkpt>
      <trkpt lat="47.35447" lon="-1.23025">
        <ele>60</ele>
        <time>2021-03-27T10:20:01.000Z</time>
      </trkpt>
      <trkpt lat="47.35454" lon="-1.23012">
        <ele>60</ele>
        <time>2021-03-27T10:20:03.000Z</time>
      </trkpt>
      <trkpt lat="47.35462" lon="-1.22998">
        <ele>60</ele>
        <time>2021-03-27T10:20:05.000Z</time>
      </trkpt>
      <trkpt lat="47.3547" lon="-1.22984">
        <ele>60</ele>
        <time>2021-03-27T10:20:07.000Z</time>
      </trkpt>
      <trkpt lat="47.35476" lon="-1.2297">
        <ele>60</ele>
        <time>2021-03-27T10:20:09.000Z</time>
      </trkpt>
      <trkpt lat="47.35484" lon="-1.22956">
        <ele>61</ele>
        <time>2021-03-27T10:20:11.000Z</time>
      </trkpt>
      <trkpt lat="47.3549" lon="-1.22941">
        <ele>62</ele>
        <time>2021-03-27T10:20:13.000Z</time>
      </trkpt>
      <trkpt lat="47.35497" lon="-1.22928">
        <ele>62</ele>
        <time>2021-03-27T10:20:15.000Z</time>
      </trkpt>
      <trkpt lat="47.35504" lon="-1.22913">
        <ele>62</ele>
        <time>2021-03-27T10:20:17.000Z</time>
      </trkpt>
      <trkpt lat="47.3551" lon="-1.22899">
        <ele>62</ele>
        <time>2021-03-27T10:20:19.000Z</time>
      </trkpt>
      <trkpt lat="47.35517" lon="-1.22885">
        <ele>62</ele>
        <time>2021-03-27T10:20:21.000Z</time>
      </trkpt>
      <trkpt lat="47.35523" lon="-1.22872">
        <ele>63</ele>
        <time>2021-03-27T10:20:23.000Z</time>
      </trkpt>
      <trkpt lat="47.35531" lon="-1.22856">
        <ele>64</ele>
        <time>2021-03-27T10:20:25.000Z</time>
      </trkpt>
      <trkpt lat="47.35539" lon="-1.22842">
        <ele>64</ele>
        <time>2021-03-27T10:20:27.000Z</time>
      </trkpt>
      <trkpt lat="47.35544" lon="-1.22829">
        <ele>64</ele>
        <time>2021-03-27T10:20:29.000Z</time>
      </trkpt>
      <trkpt lat="47.35549" lon="-1.22817">
        <ele>61</ele>
        <time>2021-03-27T10:20:31.000Z</time>
      </trkpt>
      <trkpt lat="47.35559" lon="-1.22798">
        <ele>62</ele>
        <time>2021-03-27T10:20:34.000Z</time>
      </trkpt>
      <trkpt lat="47.35565" lon="-1.22785">
        <ele>62</ele>
        <time>2021-03-27T10:20:36.000Z</time>
      </trkpt>
      <trkpt lat="47.35569" lon="-1.22773">
        <ele>62</ele>
        <time>2021-03-27T10:20:38.000Z</time>
      </trkpt>
      <trkpt lat="47.35573" lon="-1.2276">
        <ele>60</ele>
        <time>2021-03-27T10:20:41.000Z</time>
      </trkpt>
      <trkpt lat="47.35582" lon="-1.22746">
        <ele>58</ele>
        <time>2021-03-27T10:20:44.000Z</time>
      </trkpt>
      <trkpt lat="47.3559" lon="-1.22735">
        <ele>59</ele>
        <time>2021-03-27T10:20:46.000Z</time>
      </trkpt>
      <trkpt lat="47.35597" lon="-1.22722">
        <ele>60</ele>
        <time>2021-03-27T10:20:48.000Z</time>
      </trkpt>
      <trkpt lat="47.35604" lon="-1.22708">
        <ele>61</ele>
        <time>2021-03-27T10:20:50.000Z</time>
      </trkpt>
      <trkpt lat="47.3561" lon="-1.22694">
        <ele>62</ele>
        <time>2021-03-27T10:20:52.000Z</time>
      </trkpt>
      <trkpt lat="47.35617" lon="-1.22681">
        <ele>62</ele>
        <time>2021-03-27T10:20:54.000Z</time>
      </trkpt>
      <trkpt lat="47.35624" lon="-1.22667">
        <ele>62</ele>
        <time>2021-03-27T10:20:56.000Z</time>
      </trkpt>
      <trkpt lat="47.35628" lon="-1.22654">
        <ele>62</ele>
        <time>2021-03-27T10:20:58.000Z</time>
      </trkpt>
      <trkpt lat="47.35634" lon="-1.22642">
        <ele>63</ele>
        <time>2021-03-27T10:21:00.000Z</time>
      </trkpt>
      <trkpt lat="47.35643" lon="-1.22626">
        <ele>64</ele>
        <time>2021-03-27T10:21:02.000Z</time>
      </trkpt>
      <trkpt lat="47.3565" lon="-1.2261">
        <ele>62</ele>
        <time>2021-03-27T10:21:04.000Z</time>
      </trkpt>
      <trkpt lat="47.35659" lon="-1.22595">
        <ele>61</ele>
        <time>2021-03-27T10:21:06.000Z</time>
      </trkpt>
      <trkpt lat="47.35666" lon="-1.2258">
        <ele>61</ele>
        <time>2021-03-27T10:21:08.000Z</time>
      </trkpt>
      <trkpt lat="47.35674" lon="-1.22565">
        <ele>61</ele>
        <time>2021-03-27T10:21:10.000Z</time>
      </trkpt>
      <trkpt lat="47.35681" lon="-1.22551">
        <ele>61</ele>
        <time>2021-03-27T10:21:12.000Z</time>
      </trkpt>
      <trkpt lat="47.35691" lon="-1.2253">
        <ele>61</ele>
        <time>2021-03-27T10:21:15.000Z</time>
      </trkpt>
      <trkpt lat="47.35699" lon="-1.22516">
        <ele>61</ele>
        <time>2021-03-27T10:21:17.000Z</time>
      </trkpt>
      <trkpt lat="47.35705" lon="-1.22501">
        <ele>61</ele>
        <time>2021-03-27T10:21:19.000Z</time>
      </trkpt>
      <trkpt lat="47.35712" lon="-1.22487">
        <ele>62</ele>
        <time>2021-03-27T10:21:21.000Z</time>
      </trkpt>
      <trkpt lat="47.35719" lon="-1.22472">
        <ele>62</ele>
        <time>2021-03-27T10:21:23.000Z</time>
      </trkpt>
      <trkpt lat="47.35726" lon="-1.22458">
        <ele>61</ele>
        <time>2021-03-27T10:21:25.000Z</time>
      </trkpt>
      <trkpt lat="47.35734" lon="-1.22443">
        <ele>61</ele>
        <time>2021-03-27T10:21:27.000Z</time>
      </trkpt>
      <trkpt lat="47.35739" lon="-1.22428">
        <ele>62</ele>
        <time>2021-03-27T10:21:29.000Z</time>
      </trkpt>
      <trkpt lat="47.35739" lon="-1.22414">
        <ele>61</ele>
        <time>2021-03-27T10:21:31.000Z</time>
      </trkpt>
      <trkpt lat="47.35732" lon="-1.22405">
        <ele>61</ele>
        <time>2021-03-27T10:21:34.000Z</time>
      </trkpt>
      <trkpt lat="47.35719" lon="-1.22388">
        <ele>62</ele>
        <time>2021-03-27T10:21:38.000Z</time>
      </trkpt>
      <trkpt lat="47.35711" lon="-1.22375">
        <ele>62</ele>
        <time>2021-03-27T10:21:40.000Z</time>
      </trkpt>
      <trkpt lat="47.35708" lon="-1.2236">
        <ele>62</ele>
        <time>2021-03-27T10:21:42.000Z</time>
      </trkpt>
      <trkpt lat="47.35704" lon="-1.22345">
        <ele>62</ele>
        <time>2021-03-27T10:21:44.000Z</time>
      </trkpt>
      <trkpt lat="47.35705" lon="-1.22331">
        <ele>63</ele>
        <time>2021-03-27T10:21:46.000Z</time>
      </trkpt>
      <trkpt lat="47.3571" lon="-1.22313">
        <ele>63</ele>
        <time>2021-03-27T10:21:48.000Z</time>
      </trkpt>
      <trkpt lat="47.35712" lon="-1.22295">
        <ele>62</ele>
        <time>2021-03-27T10:21:50.000Z</time>
      </trkpt>
      <trkpt lat="47.35714" lon="-1.22278">
        <ele>60</ele>
        <time>2021-03-27T10:21:52.000Z</time>
      </trkpt>
      <trkpt lat="47.35717" lon="-1.22262">
        <ele>59</ele>
        <time>2021-03-27T10:21:54.000Z</time>
      </trkpt>
      <trkpt lat="47.3572" lon="-1.22245">
        <ele>59</ele>
        <time>2021-03-27T10:21:56.000Z</time>
      </trkpt>
      <trkpt lat="47.35722" lon="-1.22225">
        <ele>56</ele>
        <time>2021-03-27T10:21:58.000Z</time>
      </trkpt>
      <trkpt lat="47.35725" lon="-1.22209">
        <ele>55</ele>
        <time>2021-03-27T10:22:00.000Z</time>
      </trkpt>
      <trkpt lat="47.35727" lon="-1.22192">
        <ele>55</ele>
        <time>2021-03-27T10:22:02.000Z</time>
      </trkpt>
      <trkpt lat="47.3573" lon="-1.22175">
        <ele>55</ele>
        <time>2021-03-27T10:22:04.000Z</time>
      </trkpt>
      <trkpt lat="47.35732" lon="-1.22158">
        <ele>55</ele>
        <time>2021-03-27T10:22:06.000Z</time>
      </trkpt>
      <trkpt lat="47.35734" lon="-1.22141">
        <ele>55</ele>
        <time>2021-03-27T10:22:08.000Z</time>
      </trkpt>
      <trkpt lat="47.35736" lon="-1.22124">
        <ele>55</ele>
        <time>2021-03-27T10:22:10.000Z</time>
      </trkpt>
      <trkpt lat="47.35739" lon="-1.22106">
        <ele>55</ele>
        <time>2021-03-27T10:22:12.000Z</time>
      </trkpt>
      <trkpt lat="47.35741" lon="-1.22085">
        <ele>52</ele>
        <time>2021-03-27T10:22:14.000Z</time>
      </trkpt>
      <trkpt lat="47.35745" lon="-1.22068">
        <ele>53</ele>
        <time>2021-03-27T10:22:16.000Z</time>
      </trkpt>
      <trkpt lat="47.35747" lon="-1.2205">
        <ele>53</ele>
        <time>2021-03-27T10:22:18.000Z</time>
      </trkpt>
      <trkpt lat="47.35749" lon="-1.22033">
        <ele>53</ele>
        <time>2021-03-27T10:22:20.000Z</time>
      </trkpt>
      <trkpt lat="47.3575" lon="-1.22013">
        <ele>52</ele>
        <time>2021-03-27T10:22:22.000Z</time>
      </trkpt>
      <trkpt lat="47.35751" lon="-1.21993">
        <ele>51</ele>
        <time>2021-03-27T10:22:24.000Z</time>
      </trkpt>
      <trkpt lat="47.35755" lon="-1.21976">
        <ele>52</ele>
        <time>2021-03-27T10:22:26.000Z</time>
      </trkpt>
      <trkpt lat="47.35757" lon="-1.21958">
        <ele>52</ele>
        <time>2021-03-27T10:22:28.000Z</time>
      </trkpt>
      <trkpt lat="47.35762" lon="-1.2193">
        <ele>51</ele>
        <time>2021-03-27T10:22:31.000Z</time>
      </trkpt>
      <trkpt lat="47.35763" lon="-1.21912">
        <ele>52</ele>
        <time>2021-03-27T10:22:33.000Z</time>
      </trkpt>
      <trkpt lat="47.35765" lon="-1.21894">
        <ele>52</ele>
        <time>2021-03-27T10:22:35.000Z</time>
      </trkpt>
      <trkpt lat="47.35767" lon="-1.21875">
        <ele>52</ele>
        <time>2021-03-27T10:22:37.000Z</time>
      </trkpt>
      <trkpt lat="47.35769" lon="-1.21858">
        <ele>53</ele>
        <time>2021-03-27T10:22:39.000Z</time>
      </trkpt>
      <trkpt lat="47.35772" lon="-1.21839">
        <ele>52</ele>
        <time>2021-03-27T10:22:41.000Z</time>
      </trkpt>
      <trkpt lat="47.35775" lon="-1.21822">
        <ele>52</ele>
        <time>2021-03-27T10:22:43.000Z</time>
      </trkpt>
      <trkpt lat="47.35778" lon="-1.21804">
        <ele>53</ele>
        <time>2021-03-27T10:22:45.000Z</time>
      </trkpt>
      <trkpt lat="47.3578" lon="-1.21786">
        <ele>53</ele>
        <time>2021-03-27T10:22:47.000Z</time>
      </trkpt>
      <trkpt lat="47.35787" lon="-1.21749">
        <ele>54</ele>
        <time>2021-03-27T10:22:51.000Z</time>
      </trkpt>
      <trkpt lat="47.35791" lon="-1.21731">
        <ele>54</ele>
        <time>2021-03-27T10:22:53.000Z</time>
      </trkpt>
      <trkpt lat="47.35795" lon="-1.21712">
        <ele>55</ele>
        <time>2021-03-27T10:22:55.000Z</time>
      </trkpt>
      <trkpt lat="47.35799" lon="-1.21693">
        <ele>55</ele>
        <time>2021-03-27T10:22:57.000Z</time>
      </trkpt>
      <trkpt lat="47.35804" lon="-1.21665">
        <ele>55</ele>
        <time>2021-03-27T10:23:00.000Z</time>
      </trkpt>
      <trkpt lat="47.35807" lon="-1.21646">
        <ele>55</ele>
        <time>2021-03-27T10:23:02.000Z</time>
      </trkpt>
      <trkpt lat="47.35811" lon="-1.21627">
        <ele>55</ele>
        <time>2021-03-27T10:23:04.000Z</time>
      </trkpt>
      <trkpt lat="47.35814" lon="-1.21612">
        <ele>55</ele>
        <time>2021-03-27T10:23:06.000Z</time>
      </trkpt>
      <trkpt lat="47.35818" lon="-1.21594">
        <ele>56</ele>
        <time>2021-03-27T10:23:08.000Z</time>
      </trkpt>
      <trkpt lat="47.35821" lon="-1.21577">
        <ele>56</ele>
        <time>2021-03-27T10:23:10.000Z</time>
      </trkpt>
      <trkpt lat="47.35825" lon="-1.21558">
        <ele>57</ele>
        <time>2021-03-27T10:23:12.000Z</time>
      </trkpt>
      <trkpt lat="47.35829" lon="-1.21538">
        <ele>56</ele>
        <time>2021-03-27T10:23:14.000Z</time>
      </trkpt>
      <trkpt lat="47.35832" lon="-1.21519">
        <ele>55</ele>
        <time>2021-03-27T10:23:16.000Z</time>
      </trkpt>
      <trkpt lat="47.35836" lon="-1.215">
        <ele>55</ele>
        <time>2021-03-27T10:23:18.000Z</time>
      </trkpt>
      <trkpt lat="47.3584" lon="-1.21481">
        <ele>55</ele>
        <time>2021-03-27T10:23:20.000Z</time>
      </trkpt>
      <trkpt lat="47.35844" lon="-1.21461">
        <ele>55</ele>
        <time>2021-03-27T10:23:22.000Z</time>
      </trkpt>
      <trkpt lat="47.35848" lon="-1.21442">
        <ele>55</ele>
        <time>2021-03-27T10:23:24.000Z</time>
      </trkpt>
      <trkpt lat="47.35851" lon="-1.21422">
        <ele>55</ele>
        <time>2021-03-27T10:23:26.000Z</time>
      </trkpt>
      <trkpt lat="47.35855" lon="-1.21403">
        <ele>55</ele>
        <time>2021-03-27T10:23:28.000Z</time>
      </trkpt>
      <trkpt lat="47.35859" lon="-1.21383">
        <ele>55</ele>
        <time>2021-03-27T10:23:30.000Z</time>
      </trkpt>
      <trkpt lat="47.35862" lon="-1.21363">
        <ele>55</ele>
        <time>2021-03-27T10:23:32.000Z</time>
      </trkpt>
      <trkpt lat="47.35866" lon="-1.21344">
        <ele>55</ele>
        <time>2021-03-27T10:23:34.000Z</time>
      </trkpt>
      <trkpt lat="47.3587" lon="-1.21324">
        <ele>55</ele>
        <time>2021-03-27T10:23:36.000Z</time>
      </trkpt>
      <trkpt lat="47.35874" lon="-1.21304">
        <ele>55</ele>
        <time>2021-03-27T10:23:38.000Z</time>
      </trkpt>
      <trkpt lat="47.35878" lon="-1.21285">
        <ele>55</ele>
        <time>2021-03-27T10:23:40.000Z</time>
      </trkpt>
      <trkpt lat="47.35882" lon="-1.21265">
        <ele>55</ele>
        <time>2021-03-27T10:23:42.000Z</time>
      </trkpt>
      <trkpt lat="47.35886" lon="-1.21246">
        <ele>56</ele>
        <time>2021-03-27T10:23:44.000Z</time>
      </trkpt>
      <trkpt lat="47.35893" lon="-1.21228">
        <ele>57</ele>
        <time>2021-03-27T10:23:46.000Z</time>
      </trkpt>
      <trkpt lat="47.35899" lon="-1.2121">
        <ele>57</ele>
        <time>2021-03-27T10:23:48.000Z</time>
      </trkpt>
      <trkpt lat="47.3591" lon="-1.21185">
        <ele>57</ele>
        <time>2021-03-27T10:23:51.000Z</time>
      </trkpt>
      <trkpt lat="47.35915" lon="-1.21166">
        <ele>59</ele>
        <time>2021-03-27T10:23:53.000Z</time>
      </trkpt>
      <trkpt lat="47.35923" lon="-1.2115">
        <ele>60</ele>
        <time>2021-03-27T10:23:55.000Z</time>
      </trkpt>
      <trkpt lat="47.3593" lon="-1.21133">
        <ele>60</ele>
        <time>2021-03-27T10:23:57.000Z</time>
      </trkpt>
      <trkpt lat="47.35938" lon="-1.21115">
        <ele>59</ele>
        <time>2021-03-27T10:23:59.000Z</time>
      </trkpt>
      <trkpt lat="47.35944" lon="-1.21099">
        <ele>60</ele>
        <time>2021-03-27T10:24:01.000Z</time>
      </trkpt>
      <trkpt lat="47.3595" lon="-1.21082">
        <ele>60</ele>
        <time>2021-03-27T10:24:03.000Z</time>
      </trkpt>
      <trkpt lat="47.35961" lon="-1.21056">
        <ele>56</ele>
        <time>2021-03-27T10:24:06.000Z</time>
      </trkpt>
      <trkpt lat="47.35971" lon="-1.21038">
        <ele>56</ele>
        <time>2021-03-27T10:24:08.000Z</time>
      </trkpt>
      <trkpt lat="47.35977" lon="-1.2102">
        <ele>56</ele>
        <time>2021-03-27T10:24:10.000Z</time>
      </trkpt>
      <trkpt lat="47.35982" lon="-1.21004">
        <ele>57</ele>
        <time>2021-03-27T10:24:12.000Z</time>
      </trkpt>
      <trkpt lat="47.35989" lon="-1.20986">
        <ele>57</ele>
        <time>2021-03-27T10:24:14.000Z</time>
      </trkpt>
      <trkpt lat="47.35994" lon="-1.20969">
        <ele>58</ele>
        <time>2021-03-27T10:24:16.000Z</time>
      </trkpt>
      <trkpt lat="47.36" lon="-1.20953">
        <ele>58</ele>
        <time>2021-03-27T10:24:18.000Z</time>
      </trkpt>
      <trkpt lat="47.36006" lon="-1.20937">
        <ele>58</ele>
        <time>2021-03-27T10:24:20.000Z</time>
      </trkpt>
      <trkpt lat="47.36014" lon="-1.2092">
        <ele>56</ele>
        <time>2021-03-27T10:24:22.000Z</time>
      </trkpt>
      <trkpt lat="47.36018" lon="-1.20904">
        <ele>57</ele>
        <time>2021-03-27T10:24:24.000Z</time>
      </trkpt>
      <trkpt lat="47.36024" lon="-1.20887">
        <ele>58</ele>
        <time>2021-03-27T10:24:26.000Z</time>
      </trkpt>
      <trkpt lat="47.3603" lon="-1.20868">
        <ele>59</ele>
        <time>2021-03-27T10:24:28.000Z</time>
      </trkpt>
      <trkpt lat="47.36034" lon="-1.2085">
        <ele>58</ele>
        <time>2021-03-27T10:24:30.000Z</time>
      </trkpt>
      <trkpt lat="47.36038" lon="-1.20831">
        <ele>57</ele>
        <time>2021-03-27T10:24:32.000Z</time>
      </trkpt>
      <trkpt lat="47.36042" lon="-1.20813">
        <ele>57</ele>
        <time>2021-03-27T10:24:34.000Z</time>
      </trkpt>
      <trkpt lat="47.36047" lon="-1.20795">
        <ele>57</ele>
        <time>2021-03-27T10:24:36.000Z</time>
      </trkpt>
      <trkpt lat="47.36051" lon="-1.20776">
        <ele>57</ele>
        <time>2021-03-27T10:24:38.000Z</time>
      </trkpt>
      <trkpt lat="47.36054" lon="-1.20758">
        <ele>57</ele>
        <time>2021-03-27T10:24:40.000Z</time>
      </trkpt>
      <trkpt lat="47.36057" lon="-1.20739">
        <ele>57</ele>
        <time>2021-03-27T10:24:42.000Z</time>
      </trkpt>
      <trkpt lat="47.3606" lon="-1.2072">
        <ele>56</ele>
        <time>2021-03-27T10:24:44.000Z</time>
      </trkpt>
      <trkpt lat="47.36062" lon="-1.20702">
        <ele>57</ele>
        <time>2021-03-27T10:24:46.000Z</time>
      </trkpt>
      <trkpt lat="47.36064" lon="-1.20683">
        <ele>57</ele>
        <time>2021-03-27T10:24:48.000Z</time>
      </trkpt>
      <trkpt lat="47.36066" lon="-1.20663">
        <ele>58</ele>
        <time>2021-03-27T10:24:50.000Z</time>
      </trkpt>
      <trkpt lat="47.36067" lon="-1.20644">
        <ele>58</ele>
        <time>2021-03-27T10:24:52.000Z</time>
      </trkpt>
      <trkpt lat="47.36066" lon="-1.20625">
        <ele>57</ele>
        <time>2021-03-27T10:24:54.000Z</time>
      </trkpt>
      <trkpt lat="47.36068" lon="-1.20605">
        <ele>58</ele>
        <time>2021-03-27T10:24:56.000Z</time>
      </trkpt>
      <trkpt lat="47.36069" lon="-1.20586">
        <ele>58</ele>
        <time>2021-03-27T10:24:58.000Z</time>
      </trkpt>
      <trkpt lat="47.36069" lon="-1.20567">
        <ele>59</ele>
        <time>2021-03-27T10:25:00.000Z</time>
      </trkpt>
      <trkpt lat="47.3607" lon="-1.2055">
        <ele>59</ele>
        <time>2021-03-27T10:25:02.000Z</time>
      </trkpt>
      <trkpt lat="47.36068" lon="-1.20535">
        <ele>59</ele>
        <time>2021-03-27T10:25:04.000Z</time>
      </trkpt>
      <trkpt lat="47.3607" lon="-1.20514">
        <ele>59</ele>
        <time>2021-03-27T10:25:06.000Z</time>
      </trkpt>
      <trkpt lat="47.36073" lon="-1.20493">
        <ele>60</ele>
        <time>2021-03-27T10:25:08.000Z</time>
      </trkpt>
      <trkpt lat="47.36073" lon="-1.20464">
        <ele>58</ele>
        <time>2021-03-27T10:25:11.000Z</time>
      </trkpt>
      <trkpt lat="47.36075" lon="-1.20445">
        <ele>60</ele>
        <time>2021-03-27T10:25:13.000Z</time>
      </trkpt>
      <trkpt lat="47.36075" lon="-1.20425">
        <ele>60</ele>
        <time>2021-03-27T10:25:15.000Z</time>
      </trkpt>
      <trkpt lat="47.36076" lon="-1.20404">
        <ele>61</ele>
        <time>2021-03-27T10:25:17.000Z</time>
      </trkpt>
      <trkpt lat="47.36077" lon="-1.20385">
        <ele>61</ele>
        <time>2021-03-27T10:25:19.000Z</time>
      </trkpt>
      <trkpt lat="47.36078" lon="-1.20366">
        <ele>62</ele>
        <time>2021-03-27T10:25:21.000Z</time>
      </trkpt>
      <trkpt lat="47.3608" lon="-1.20347">
        <ele>63</ele>
        <time>2021-03-27T10:25:23.000Z</time>
      </trkpt>
      <trkpt lat="47.3608" lon="-1.20327">
        <ele>64</ele>
        <time>2021-03-27T10:25:25.000Z</time>
      </trkpt>
      <trkpt lat="47.36081" lon="-1.20308">
        <ele>64</ele>
        <time>2021-03-27T10:25:27.000Z</time>
      </trkpt>
      <trkpt lat="47.36082" lon="-1.2028">
        <ele>63</ele>
        <time>2021-03-27T10:25:30.000Z</time>
      </trkpt>
      <trkpt lat="47.36083" lon="-1.20262">
        <ele>63</ele>
        <time>2021-03-27T10:25:32.000Z</time>
      </trkpt>
      <trkpt lat="47.36085" lon="-1.20243">
        <ele>62</ele>
        <time>2021-03-27T10:25:34.000Z</time>
      </trkpt>
      <trkpt lat="47.36087" lon="-1.20227">
        <ele>61</ele>
        <time>2021-03-27T10:25:36.000Z</time>
      </trkpt>
      <trkpt lat="47.3609" lon="-1.20214">
        <ele>61</ele>
        <time>2021-03-27T10:25:38.000Z</time>
      </trkpt>
      <trkpt lat="47.36098" lon="-1.20207">
        <ele>61</ele>
        <time>2021-03-27T10:25:40.000Z</time>
      </trkpt>
      <trkpt lat="47.36106" lon="-1.20202">
        <ele>59</ele>
        <time>2021-03-27T10:25:42.000Z</time>
      </trkpt>
      <trkpt lat="47.36116" lon="-1.20201">
        <ele>60</ele>
        <time>2021-03-27T10:25:44.000Z</time>
      </trkpt>
      <trkpt lat="47.36125" lon="-1.20198">
        <ele>61</ele>
        <time>2021-03-27T10:25:46.000Z</time>
      </trkpt>
      <trkpt lat="47.36137" lon="-1.20191">
        <ele>62</ele>
        <time>2021-03-27T10:25:48.000Z</time>
      </trkpt>
      <trkpt lat="47.36147" lon="-1.20182">
        <ele>60</ele>
        <time>2021-03-27T10:25:50.000Z</time>
      </trkpt>
      <trkpt lat="47.36155" lon="-1.2017">
        <ele>61</ele>
        <time>2021-03-27T10:25:52.000Z</time>
      </trkpt>
      <trkpt lat="47.36161" lon="-1.20155">
        <ele>62</ele>
        <time>2021-03-27T10:25:54.000Z</time>
      </trkpt>
      <trkpt lat="47.36173" lon="-1.20132">
        <ele>61</ele>
        <time>2021-03-27T10:25:57.000Z</time>
      </trkpt>
      <trkpt lat="47.36178" lon="-1.20105">
        <ele>62</ele>
        <time>2021-03-27T10:26:00.000Z</time>
      </trkpt>
      <trkpt lat="47.3618" lon="-1.20085">
        <ele>63</ele>
        <time>2021-03-27T10:26:02.000Z</time>
      </trkpt>
      <trkpt lat="47.36183" lon="-1.20068">
        <ele>63</ele>
        <time>2021-03-27T10:26:04.000Z</time>
      </trkpt>
      <trkpt lat="47.36185" lon="-1.2005">
        <ele>60</ele>
        <time>2021-03-27T10:26:06.000Z</time>
      </trkpt>
      <trkpt lat="47.36188" lon="-1.20031">
        <ele>60</ele>
        <time>2021-03-27T10:26:08.000Z</time>
      </trkpt>
      <trkpt lat="47.36193" lon="-1.20016">
        <ele>60</ele>
        <time>2021-03-27T10:26:10.000Z</time>
      </trkpt>
      <trkpt lat="47.36198" lon="-1.2">
        <ele>61</ele>
        <time>2021-03-27T10:26:12.000Z</time>
      </trkpt>
      <trkpt lat="47.36202" lon="-1.19985">
        <ele>60</ele>
        <time>2021-03-27T10:26:14.000Z</time>
      </trkpt>
      <trkpt lat="47.36208" lon="-1.19969">
        <ele>61</ele>
        <time>2021-03-27T10:26:16.000Z</time>
      </trkpt>
      <trkpt lat="47.36213" lon="-1.19953">
        <ele>61</ele>
        <time>2021-03-27T10:26:18.000Z</time>
      </trkpt>
      <trkpt lat="47.36219" lon="-1.19937">
        <ele>61</ele>
        <time>2021-03-27T10:26:20.000Z</time>
      </trkpt>
      <trkpt lat="47.36226" lon="-1.19911">
        <ele>60</ele>
        <time>2021-03-27T10:26:23.000Z</time>
      </trkpt>
      <trkpt lat="47.36233" lon="-1.19887">
        <ele>61</ele>
        <time>2021-03-27T10:26:26.000Z</time>
      </trkpt>
      <trkpt lat="47.36242" lon="-1.19872">
        <ele>61</ele>
        <time>2021-03-27T10:26:28.000Z</time>
      </trkpt>
      <trkpt lat="47.36248" lon="-1.19856">
        <ele>60</ele>
        <time>2021-03-27T10:26:30.000Z</time>
      </trkpt>
      <trkpt lat="47.36255" lon="-1.19841">
        <ele>60</ele>
        <time>2021-03-27T10:26:32.000Z</time>
      </trkpt>
      <trkpt lat="47.36261" lon="-1.19824">
        <ele>60</ele>
        <time>2021-03-27T10:26:34.000Z</time>
      </trkpt>
      <trkpt lat="47.36267" lon="-1.19809">
        <ele>61</ele>
        <time>2021-03-27T10:26:36.000Z</time>
      </trkpt>
      <trkpt lat="47.36272" lon="-1.19794">
        <ele>61</ele>
        <time>2021-03-27T10:26:38.000Z</time>
      </trkpt>
      <trkpt lat="47.36276" lon="-1.19779">
        <ele>61</ele>
        <time>2021-03-27T10:26:40.000Z</time>
      </trkpt>
      <trkpt lat="47.36284" lon="-1.1976">
        <ele>62</ele>
        <time>2021-03-27T10:26:43.000Z</time>
      </trkpt>
      <trkpt lat="47.36289" lon="-1.19744">
        <ele>62</ele>
        <time>2021-03-27T10:26:46.000Z</time>
      </trkpt>
      <trkpt lat="47.36294" lon="-1.19729">
        <ele>62</ele>
        <time>2021-03-27T10:26:48.000Z</time>
      </trkpt>
      <trkpt lat="47.36298" lon="-1.19714">
        <ele>61</ele>
        <time>2021-03-27T10:26:50.000Z</time>
      </trkpt>
      <trkpt lat="47.36301" lon="-1.19698">
        <ele>61</ele>
        <time>2021-03-27T10:26:52.000Z</time>
      </trkpt>
      <trkpt lat="47.36304" lon="-1.19683">
        <ele>60</ele>
        <time>2021-03-27T10:26:54.000Z</time>
      </trkpt>
      <trkpt lat="47.36306" lon="-1.19668">
        <ele>61</ele>
        <time>2021-03-27T10:26:56.000Z</time>
      </trkpt>
      <trkpt lat="47.36309" lon="-1.19651">
        <ele>61</ele>
        <time>2021-03-27T10:26:58.000Z</time>
      </trkpt>
      <trkpt lat="47.36312" lon="-1.19634">
        <ele>61</ele>
        <time>2021-03-27T10:27:00.000Z</time>
      </trkpt>
      <trkpt lat="47.3631" lon="-1.19618">
        <ele>59</ele>
        <time>2021-03-27T10:27:02.000Z</time>
      </trkpt>
      <trkpt lat="47.36316" lon="-1.196">
        <ele>60</ele>
        <time>2021-03-27T10:27:04.000Z</time>
      </trkpt>
      <trkpt lat="47.36319" lon="-1.19582">
        <ele>59</ele>
        <time>2021-03-27T10:27:06.000Z</time>
      </trkpt>
      <trkpt lat="47.36321" lon="-1.19565">
        <ele>60</ele>
        <time>2021-03-27T10:27:08.000Z</time>
      </trkpt>
      <trkpt lat="47.36324" lon="-1.19547">
        <ele>59</ele>
        <time>2021-03-27T10:27:10.000Z</time>
      </trkpt>
      <trkpt lat="47.3633" lon="-1.19516">
        <ele>58</ele>
        <time>2021-03-27T10:27:14.000Z</time>
      </trkpt>
      <trkpt lat="47.36331" lon="-1.19497">
        <ele>60</ele>
        <time>2021-03-27T10:27:16.000Z</time>
      </trkpt>
      <trkpt lat="47.36334" lon="-1.1948">
        <ele>59</ele>
        <time>2021-03-27T10:27:18.000Z</time>
      </trkpt>
      <trkpt lat="47.36338" lon="-1.19463">
        <ele>59</ele>
        <time>2021-03-27T10:27:20.000Z</time>
      </trkpt>
      <trkpt lat="47.3634" lon="-1.19446">
        <ele>58</ele>
        <time>2021-03-27T10:27:22.000Z</time>
      </trkpt>
      <trkpt lat="47.36346" lon="-1.1943">
        <ele>57</ele>
        <time>2021-03-27T10:27:24.000Z</time>
      </trkpt>
      <trkpt lat="47.36348" lon="-1.19412">
        <ele>57</ele>
        <time>2021-03-27T10:27:26.000Z</time>
      </trkpt>
      <trkpt lat="47.36347" lon="-1.19394">
        <ele>58</ele>
        <time>2021-03-27T10:27:28.000Z</time>
      </trkpt>
      <trkpt lat="47.36348" lon="-1.19375">
        <ele>59</ele>
        <time>2021-03-27T10:27:30.000Z</time>
      </trkpt>
      <trkpt lat="47.36348" lon="-1.19349">
        <ele>60</ele>
        <time>2021-03-27T10:27:33.000Z</time>
      </trkpt>
      <trkpt lat="47.36349" lon="-1.19331">
        <ele>60</ele>
        <time>2021-03-27T10:27:35.000Z</time>
      </trkpt>
      <trkpt lat="47.36348" lon="-1.19314">
        <ele>60</ele>
        <time>2021-03-27T10:27:37.000Z</time>
      </trkpt>
      <trkpt lat="47.36347" lon="-1.19293">
        <ele>60</ele>
        <time>2021-03-27T10:27:39.000Z</time>
      </trkpt>
      <trkpt lat="47.36346" lon="-1.19276">
        <ele>60</ele>
        <time>2021-03-27T10:27:41.000Z</time>
      </trkpt>
      <trkpt lat="47.36346" lon="-1.19257">
        <ele>60</ele>
        <time>2021-03-27T10:27:43.000Z</time>
      </trkpt>
      <trkpt lat="47.36345" lon="-1.19239">
        <ele>61</ele>
        <time>2021-03-27T10:27:45.000Z</time>
      </trkpt>
      <trkpt lat="47.36343" lon="-1.19222">
        <ele>62</ele>
        <time>2021-03-27T10:27:47.000Z</time>
      </trkpt>
      <trkpt lat="47.36341" lon="-1.19204">
        <ele>62</ele>
        <time>2021-03-27T10:27:49.000Z</time>
      </trkpt>
      <trkpt lat="47.36341" lon="-1.19186">
        <ele>62</ele>
        <time>2021-03-27T10:27:51.000Z</time>
      </trkpt>
      <trkpt lat="47.3634" lon="-1.19167">
        <ele>63</ele>
        <time>2021-03-27T10:27:53.000Z</time>
      </trkpt>
      <trkpt lat="47.36339" lon="-1.19151">
        <ele>63</ele>
        <time>2021-03-27T10:27:55.000Z</time>
      </trkpt>
      <trkpt lat="47.36339" lon="-1.19132">
        <ele>63</ele>
        <time>2021-03-27T10:27:57.000Z</time>
      </trkpt>
      <trkpt lat="47.36339" lon="-1.19114">
        <ele>63</ele>
        <time>2021-03-27T10:27:59.000Z</time>
      </trkpt>
      <trkpt lat="47.36338" lon="-1.19096">
        <ele>63</ele>
        <time>2021-03-27T10:28:01.000Z</time>
      </trkpt>
      <trkpt lat="47.36337" lon="-1.19079">
        <ele>63</ele>
        <time>2021-03-27T10:28:03.000Z</time>
      </trkpt>
      <trkpt lat="47.36338" lon="-1.1906">
        <ele>63</ele>
        <time>2021-03-27T10:28:05.000Z</time>
      </trkpt>
      <trkpt lat="47.36337" lon="-1.19042">
        <ele>64</ele>
        <time>2021-03-27T10:28:07.000Z</time>
      </trkpt>
      <trkpt lat="47.36338" lon="-1.19023">
        <ele>64</ele>
        <time>2021-03-27T10:28:09.000Z</time>
      </trkpt>
      <trkpt lat="47.36338" lon="-1.19006">
        <ele>64</ele>
        <time>2021-03-27T10:28:11.000Z</time>
      </trkpt>
      <trkpt lat="47.36338" lon="-1.18989">
        <ele>65</ele>
        <time>2021-03-27T10:28:13.000Z</time>
      </trkpt>
      <trkpt lat="47.36339" lon="-1.18975">
        <ele>65</ele>
        <time>2021-03-27T10:28:15.000Z</time>
      </trkpt>
      <trkpt lat="47.36338" lon="-1.18958">
        <ele>66</ele>
        <time>2021-03-27T10:28:17.000Z</time>
      </trkpt>
      <trkpt lat="47.3634" lon="-1.18939">
        <ele>66</ele>
        <time>2021-03-27T10:28:19.000Z</time>
      </trkpt>
      <trkpt lat="47.36341" lon="-1.18923">
        <ele>65</ele>
        <time>2021-03-27T10:28:21.000Z</time>
      </trkpt>
      <trkpt lat="47.36341" lon="-1.18906">
        <ele>64</ele>
        <time>2021-03-27T10:28:23.000Z</time>
      </trkpt>
      <trkpt lat="47.36342" lon="-1.18889">
        <ele>64</ele>
        <time>2021-03-27T10:28:25.000Z</time>
      </trkpt>
      <trkpt lat="47.36343" lon="-1.18873">
        <ele>63</ele>
        <time>2021-03-27T10:28:27.000Z</time>
      </trkpt>
      <trkpt lat="47.36344" lon="-1.18856">
        <ele>64</ele>
        <time>2021-03-27T10:28:29.000Z</time>
      </trkpt>
      <trkpt lat="47.36344" lon="-1.18839">
        <ele>64</ele>
        <time>2021-03-27T10:28:31.000Z</time>
      </trkpt>
      <trkpt lat="47.36345" lon="-1.18821">
        <ele>62</ele>
        <time>2021-03-27T10:28:33.000Z</time>
      </trkpt>
      <trkpt lat="47.36343" lon="-1.18805">
        <ele>63</ele>
        <time>2021-03-27T10:28:35.000Z</time>
      </trkpt>
      <trkpt lat="47.36343" lon="-1.18788">
        <ele>63</ele>
        <time>2021-03-27T10:28:37.000Z</time>
      </trkpt>
      <trkpt lat="47.36342" lon="-1.18771">
        <ele>63</ele>
        <time>2021-03-27T10:28:39.000Z</time>
      </trkpt>
      <trkpt lat="47.36338" lon="-1.18755">
        <ele>62</ele>
        <time>2021-03-27T10:28:41.000Z</time>
      </trkpt>
      <trkpt lat="47.36334" lon="-1.18742">
        <ele>62</ele>
        <time>2021-03-27T10:28:43.000Z</time>
      </trkpt>
      <trkpt lat="47.36328" lon="-1.18728">
        <ele>62</ele>
        <time>2021-03-27T10:28:45.000Z</time>
      </trkpt>
      <trkpt lat="47.36323" lon="-1.18715">
        <ele>59</ele>
        <time>2021-03-27T10:28:47.000Z</time>
      </trkpt>
      <trkpt lat="47.36326" lon="-1.18701">
        <ele>61</ele>
        <time>2021-03-27T10:28:50.000Z</time>
      </trkpt>
      <trkpt lat="47.36335" lon="-1.18701">
        <ele>61</ele>
        <time>2021-03-27T10:29:36.000Z</time>
      </trkpt>
      <trkpt lat="47.36336" lon="-1.18686">
        <ele>60</ele>
        <time>2021-03-27T10:37:24.000Z</time>
      </trkpt>
      <trkpt lat="47.36336" lon="-1.18664">
        <ele>62</ele>
        <time>2021-03-27T10:37:28.000Z</time>
      </trkpt>
      <trkpt lat="47.36337" lon="-1.18648">
        <ele>61</ele>
        <time>2021-03-27T10:37:31.000Z</time>
      </trkpt>
      <trkpt lat="47.36341" lon="-1.18633">
        <ele>61</ele>
        <time>2021-03-27T10:37:34.000Z</time>
      </trkpt>
      <trkpt lat="47.36342" lon="-1.18608">
        <ele>63</ele>
        <time>2021-03-27T10:37:38.000Z</time>
      </trkpt>
      <trkpt lat="47.36342" lon="-1.18581">
        <ele>60</ele>
        <time>2021-03-27T10:37:42.000Z</time>
      </trkpt>
      <trkpt lat="47.36342" lon="-1.18567">
        <ele>61</ele>
        <time>2021-03-27T10:37:44.000Z</time>
      </trkpt>
      <trkpt lat="47.36342" lon="-1.18551">
        <ele>61</ele>
        <time>2021-03-27T10:37:46.000Z</time>
      </trkpt>
      <trkpt lat="47.36342" lon="-1.18535">
        <ele>61</ele>
        <time>2021-03-27T10:37:48.000Z</time>
      </trkpt>
      <trkpt lat="47.36342" lon="-1.18513">
        <ele>59</ele>
        <time>2021-03-27T10:37:51.000Z</time>
      </trkpt>
      <trkpt lat="47.36343" lon="-1.18493">
        <ele>61</ele>
        <time>2021-03-27T10:37:54.000Z</time>
      </trkpt>
      <trkpt lat="47.36343" lon="-1.18476">
        <ele>61</ele>
        <time>2021-03-27T10:37:56.000Z</time>
      </trkpt>
      <trkpt lat="47.36344" lon="-1.18461">
        <ele>59</ele>
        <time>2021-03-27T10:37:58.000Z</time>
      </trkpt>
      <trkpt lat="47.36342" lon="-1.18448">
        <ele>58</ele>
        <time>2021-03-27T10:38:00.000Z</time>
      </trkpt>
      <trkpt lat="47.36343" lon="-1.18429">
        <ele>59</ele>
        <time>2021-03-27T10:38:03.000Z</time>
      </trkpt>
      <trkpt lat="47.36343" lon="-1.18413">
        <ele>59</ele>
        <time>2021-03-27T10:38:05.000Z</time>
      </trkpt>
      <trkpt lat="47.36347" lon="-1.18398">
        <ele>58</ele>
        <time>2021-03-27T10:38:07.000Z</time>
      </trkpt>
      <trkpt lat="47.36346" lon="-1.18383">
        <ele>59</ele>
        <time>2021-03-27T10:38:09.000Z</time>
      </trkpt>
      <trkpt lat="47.36346" lon="-1.18368">
        <ele>60</ele>
        <time>2021-03-27T10:38:11.000Z</time>
      </trkpt>
      <trkpt lat="47.36346" lon="-1.18346">
        <ele>60</ele>
        <time>2021-03-27T10:38:14.000Z</time>
      </trkpt>
      <trkpt lat="47.36344" lon="-1.18327">
        <ele>61</ele>
        <time>2021-03-27T10:38:17.000Z</time>
      </trkpt>
      <trkpt lat="47.36338" lon="-1.1831">
        <ele>60</ele>
        <time>2021-03-27T10:38:19.000Z</time>
      </trkpt>
      <trkpt lat="47.36333" lon="-1.18298">
        <ele>60</ele>
        <time>2021-03-27T10:38:21.000Z</time>
      </trkpt>
      <trkpt lat="47.36329" lon="-1.18285">
        <ele>57</ele>
        <time>2021-03-27T10:38:23.000Z</time>
      </trkpt>
      <trkpt lat="47.36328" lon="-1.1827">
        <ele>58</ele>
        <time>2021-03-27T10:38:25.000Z</time>
      </trkpt>
      <trkpt lat="47.36336" lon="-1.18259">
        <ele>59</ele>
        <time>2021-03-27T10:38:27.000Z</time>
      </trkpt>
      <trkpt lat="47.36337" lon="-1.18241">
        <ele>57</ele>
        <time>2021-03-27T10:38:30.000Z</time>
      </trkpt>
      <trkpt lat="47.36332" lon="-1.18224">
        <ele>56</ele>
        <time>2021-03-27T10:38:33.000Z</time>
      </trkpt>
      <trkpt lat="47.36331" lon="-1.18211">
        <ele>58</ele>
        <time>2021-03-27T10:38:35.000Z</time>
      </trkpt>
      <trkpt lat="47.36331" lon="-1.18197">
        <ele>59</ele>
        <time>2021-03-27T10:38:37.000Z</time>
      </trkpt>
      <trkpt lat="47.36331" lon="-1.18178">
        <ele>61</ele>
        <time>2021-03-27T10:38:40.000Z</time>
      </trkpt>
      <trkpt lat="47.3633" lon="-1.18163">
        <ele>62</ele>
        <time>2021-03-27T10:38:42.000Z</time>
      </trkpt>
      <trkpt lat="47.3633" lon="-1.18147">
        <ele>61</ele>
        <time>2021-03-27T10:38:44.000Z</time>
      </trkpt>
      <trkpt lat="47.3633" lon="-1.1813">
        <ele>60</ele>
        <time>2021-03-27T10:38:46.000Z</time>
      </trkpt>
      <trkpt lat="47.36333" lon="-1.18112">
        <ele>59</ele>
        <time>2021-03-27T10:38:48.000Z</time>
      </trkpt>
      <trkpt lat="47.36333" lon="-1.18097">
        <ele>60</ele>
        <time>2021-03-27T10:38:50.000Z</time>
      </trkpt>
      <trkpt lat="47.36333" lon="-1.1808">
        <ele>60</ele>
        <time>2021-03-27T10:38:52.000Z</time>
      </trkpt>
      <trkpt lat="47.3633" lon="-1.18063">
        <ele>59</ele>
        <time>2021-03-27T10:38:54.000Z</time>
      </trkpt>
      <trkpt lat="47.3633" lon="-1.18046">
        <ele>59</ele>
        <time>2021-03-27T10:38:56.000Z</time>
      </trkpt>
      <trkpt lat="47.36329" lon="-1.18032">
        <ele>60</ele>
        <time>2021-03-27T10:38:58.000Z</time>
      </trkpt>
      <trkpt lat="47.36326" lon="-1.18004">
        <ele>60</ele>
        <time>2021-03-27T10:39:01.000Z</time>
      </trkpt>
      <trkpt lat="47.36325" lon="-1.17983">
        <ele>59</ele>
        <time>2021-03-27T10:39:03.000Z</time>
      </trkpt>
      <trkpt lat="47.36324" lon="-1.17968">
        <ele>61</ele>
        <time>2021-03-27T10:39:05.000Z</time>
      </trkpt>
      <trkpt lat="47.36322" lon="-1.17951">
        <ele>62</ele>
        <time>2021-03-27T10:39:07.000Z</time>
      </trkpt>
      <trkpt lat="47.36318" lon="-1.17926">
        <ele>61</ele>
        <time>2021-03-27T10:39:10.000Z</time>
      </trkpt>
      <trkpt lat="47.36316" lon="-1.17909">
        <ele>60</ele>
        <time>2021-03-27T10:39:12.000Z</time>
      </trkpt>
      <trkpt lat="47.36317" lon="-1.17894">
        <ele>60</ele>
        <time>2021-03-27T10:39:14.000Z</time>
      </trkpt>
      <trkpt lat="47.36319" lon="-1.17878">
        <ele>59</ele>
        <time>2021-03-27T10:39:16.000Z</time>
      </trkpt>
      <trkpt lat="47.36323" lon="-1.17864">
        <ele>59</ele>
        <time>2021-03-27T10:39:18.000Z</time>
      </trkpt>
      <trkpt lat="47.36329" lon="-1.17841">
        <ele>59</ele>
        <time>2021-03-27T10:39:21.000Z</time>
      </trkpt>
      <trkpt lat="47.36332" lon="-1.17827">
        <ele>60</ele>
        <time>2021-03-27T10:39:23.000Z</time>
      </trkpt>
      <trkpt lat="47.36337" lon="-1.17813">
        <ele>60</ele>
        <time>2021-03-27T10:39:25.000Z</time>
      </trkpt>
      <trkpt lat="47.36341" lon="-1.17798">
        <ele>60</ele>
        <time>2021-03-27T10:39:27.000Z</time>
      </trkpt>
      <trkpt lat="47.36346" lon="-1.17778">
        <ele>59</ele>
        <time>2021-03-27T10:39:30.000Z</time>
      </trkpt>
      <trkpt lat="47.3635" lon="-1.17761">
        <ele>58</ele>
        <time>2021-03-27T10:39:33.000Z</time>
      </trkpt>
      <trkpt lat="47.36352" lon="-1.17747">
        <ele>55</ele>
        <time>2021-03-27T10:39:36.000Z</time>
      </trkpt>
      <trkpt lat="47.36353" lon="-1.17734">
        <ele>58</ele>
        <time>2021-03-27T10:39:41.000Z</time>
      </trkpt>
      <trkpt lat="47.36343" lon="-1.17723">
        <ele>59</ele>
        <time>2021-03-27T10:39:46.000Z</time>
      </trkpt>
      <trkpt lat="47.3633" lon="-1.17721">
        <ele>62</ele>
        <time>2021-03-27T10:39:49.000Z</time>
      </trkpt>
      <trkpt lat="47.3632" lon="-1.17719">
        <ele>63</ele>
        <time>2021-03-27T10:39:51.000Z</time>
      </trkpt>
      <trkpt lat="47.3631" lon="-1.17716">
        <ele>63</ele>
        <time>2021-03-27T10:39:53.000Z</time>
      </trkpt>
      <trkpt lat="47.36302" lon="-1.1771">
        <ele>64</ele>
        <time>2021-03-27T10:39:55.000Z</time>
      </trkpt>
      <trkpt lat="47.36292" lon="-1.17704">
        <ele>64</ele>
        <time>2021-03-27T10:39:57.000Z</time>
      </trkpt>
      <trkpt lat="47.36282" lon="-1.17699">
        <ele>64</ele>
        <time>2021-03-27T10:39:59.000Z</time>
      </trkpt>
      <trkpt lat="47.36272" lon="-1.17694">
        <ele>65</ele>
        <time>2021-03-27T10:40:01.000Z</time>
      </trkpt>
      <trkpt lat="47.36262" lon="-1.17689">
        <ele>66</ele>
        <time>2021-03-27T10:40:03.000Z</time>
      </trkpt>
      <trkpt lat="47.36241" lon="-1.17673">
        <ele>67</ele>
        <time>2021-03-27T10:40:07.000Z</time>
      </trkpt>
      <trkpt lat="47.36232" lon="-1.17666">
        <ele>68</ele>
        <time>2021-03-27T10:40:09.000Z</time>
      </trkpt>
      <trkpt lat="47.36221" lon="-1.17661">
        <ele>68</ele>
        <time>2021-03-27T10:40:11.000Z</time>
      </trkpt>
      <trkpt lat="47.36209" lon="-1.17656">
        <ele>68</ele>
        <time>2021-03-27T10:40:13.000Z</time>
      </trkpt>
      <trkpt lat="47.36198" lon="-1.17652">
        <ele>67</ele>
        <time>2021-03-27T10:40:15.000Z</time>
      </trkpt>
      <trkpt lat="47.36188" lon="-1.17648">
        <ele>67</ele>
        <time>2021-03-27T10:40:17.000Z</time>
      </trkpt>
      <trkpt lat="47.36178" lon="-1.17642">
        <ele>69</ele>
        <time>2021-03-27T10:40:19.000Z</time>
      </trkpt>
      <trkpt lat="47.36165" lon="-1.17633">
        <ele>68</ele>
        <time>2021-03-27T10:40:21.000Z</time>
      </trkpt>
      <trkpt lat="47.36152" lon="-1.17625">
        <ele>67</ele>
        <time>2021-03-27T10:40:23.000Z</time>
      </trkpt>
      <trkpt lat="47.36139" lon="-1.1762">
        <ele>68</ele>
        <time>2021-03-27T10:40:25.000Z</time>
      </trkpt>
      <trkpt lat="47.36126" lon="-1.17615">
        <ele>70</ele>
        <time>2021-03-27T10:40:27.000Z</time>
      </trkpt>
      <trkpt lat="47.36115" lon="-1.17609">
        <ele>70</ele>
        <time>2021-03-27T10:40:29.000Z</time>
      </trkpt>
      <trkpt lat="47.36103" lon="-1.17602">
        <ele>69</ele>
        <time>2021-03-27T10:40:31.000Z</time>
      </trkpt>
      <trkpt lat="47.3609" lon="-1.17595">
        <ele>69</ele>
        <time>2021-03-27T10:40:33.000Z</time>
      </trkpt>
      <trkpt lat="47.36078" lon="-1.17589">
        <ele>69</ele>
        <time>2021-03-27T10:40:35.000Z</time>
      </trkpt>
      <trkpt lat="47.36066" lon="-1.17582">
        <ele>69</ele>
        <time>2021-03-27T10:40:37.000Z</time>
      </trkpt>
      <trkpt lat="47.36054" lon="-1.17576">
        <ele>69</ele>
        <time>2021-03-27T10:40:39.000Z</time>
      </trkpt>
      <trkpt lat="47.36041" lon="-1.17569">
        <ele>69</ele>
        <time>2021-03-27T10:40:41.000Z</time>
      </trkpt>
      <trkpt lat="47.36027" lon="-1.17563">
        <ele>69</ele>
        <time>2021-03-27T10:40:43.000Z</time>
      </trkpt>
      <trkpt lat="47.36014" lon="-1.17558">
        <ele>68</ele>
        <time>2021-03-27T10:40:45.000Z</time>
      </trkpt>
      <trkpt lat="47.36001" lon="-1.17552">
        <ele>65</ele>
        <time>2021-03-27T10:40:47.000Z</time>
      </trkpt>
      <trkpt lat="47.35987" lon="-1.17544">
        <ele>65</ele>
        <time>2021-03-27T10:40:49.000Z</time>
      </trkpt>
      <trkpt lat="47.35974" lon="-1.17536">
        <ele>66</ele>
        <time>2021-03-27T10:40:51.000Z</time>
      </trkpt>
      <trkpt lat="47.35961" lon="-1.17527">
        <ele>66</ele>
        <time>2021-03-27T10:40:53.000Z</time>
      </trkpt>
      <trkpt lat="47.35947" lon="-1.17519">
        <ele>64</ele>
        <time>2021-03-27T10:40:55.000Z</time>
      </trkpt>
      <trkpt lat="47.35933" lon="-1.17513">
        <ele>63</ele>
        <time>2021-03-27T10:40:57.000Z</time>
      </trkpt>
      <trkpt lat="47.35919" lon="-1.17507">
        <ele>63</ele>
        <time>2021-03-27T10:40:59.000Z</time>
      </trkpt>
      <trkpt lat="47.35898" lon="-1.17495">
        <ele>63</ele>
        <time>2021-03-27T10:41:02.000Z</time>
      </trkpt>
      <trkpt lat="47.35884" lon="-1.17485">
        <ele>63</ele>
        <time>2021-03-27T10:41:04.000Z</time>
      </trkpt>
      <trkpt lat="47.35871" lon="-1.17478">
        <ele>63</ele>
        <time>2021-03-27T10:41:06.000Z</time>
      </trkpt>
      <trkpt lat="47.35857" lon="-1.17472">
        <ele>63</ele>
        <time>2021-03-27T10:41:08.000Z</time>
      </trkpt>
      <trkpt lat="47.35844" lon="-1.17464">
        <ele>64</ele>
        <time>2021-03-27T10:41:10.000Z</time>
      </trkpt>
      <trkpt lat="47.35831" lon="-1.17458">
        <ele>63</ele>
        <time>2021-03-27T10:41:12.000Z</time>
      </trkpt>
      <trkpt lat="47.35817" lon="-1.17452">
        <ele>63</ele>
        <time>2021-03-27T10:41:14.000Z</time>
      </trkpt>
      <trkpt lat="47.35805" lon="-1.17444">
        <ele>63</ele>
        <time>2021-03-27T10:41:16.000Z</time>
      </trkpt>
      <trkpt lat="47.35792" lon="-1.17437">
        <ele>63</ele>
        <time>2021-03-27T10:41:18.000Z</time>
      </trkpt>
      <trkpt lat="47.3578" lon="-1.17431">
        <ele>64</ele>
        <time>2021-03-27T10:41:20.000Z</time>
      </trkpt>
      <trkpt lat="47.35767" lon="-1.17425">
        <ele>63</ele>
        <time>2021-03-27T10:41:22.000Z</time>
      </trkpt>
      <trkpt lat="47.35757" lon="-1.1742">
        <ele>63</ele>
        <time>2021-03-27T10:41:24.000Z</time>
      </trkpt>
      <trkpt lat="47.35747" lon="-1.17406">
        <ele>61</ele>
        <time>2021-03-27T10:41:26.000Z</time>
      </trkpt>
      <trkpt lat="47.35747" lon="-1.17389">
        <ele>63</ele>
        <time>2021-03-27T10:41:28.000Z</time>
      </trkpt>
      <trkpt lat="47.35755" lon="-1.17377">
        <ele>64</ele>
        <time>2021-03-27T10:41:30.000Z</time>
      </trkpt>
      <trkpt lat="47.3576" lon="-1.17364">
        <ele>63</ele>
        <time>2021-03-27T10:41:34.000Z</time>
      </trkpt>
      <trkpt lat="47.35759" lon="-1.17382">
        <ele>60</ele>
        <time>2021-03-27T10:44:16.000Z</time>
      </trkpt>
      <trkpt lat="47.35753" lon="-1.17395">
        <ele>61</ele>
        <time>2021-03-27T10:44:18.000Z</time>
      </trkpt>
      <trkpt lat="47.3575" lon="-1.17407">
        <ele>58</ele>
        <time>2021-03-27T10:44:23.000Z</time>
      </trkpt>
      <trkpt lat="47.35748" lon="-1.17421">
        <ele>54</ele>
        <time>2021-03-27T10:45:06.000Z</time>
      </trkpt>
      <trkpt lat="47.3574" lon="-1.17438">
        <ele>56</ele>
        <time>2021-03-27T10:45:08.000Z</time>
      </trkpt>
      <trkpt lat="47.35734" lon="-1.17456">
        <ele>54</ele>
        <time>2021-03-27T10:45:10.000Z</time>
      </trkpt>
      <trkpt lat="47.35728" lon="-1.17477">
        <ele>54</ele>
        <time>2021-03-27T10:45:12.000Z</time>
      </trkpt>
      <trkpt lat="47.35721" lon="-1.17489">
        <ele>55</ele>
        <time>2021-03-27T10:45:13.000Z</time>
      </trkpt>
      <trkpt lat="47.3571" lon="-1.17523">
        <ele>57</ele>
        <time>2021-03-27T10:45:16.000Z</time>
      </trkpt>
      <trkpt lat="47.35705" lon="-1.17544">
        <ele>55</ele>
        <time>2021-03-27T10:45:18.000Z</time>
      </trkpt>
      <trkpt lat="47.357" lon="-1.17567">
        <ele>53</ele>
        <time>2021-03-27T10:45:20.000Z</time>
      </trkpt>
      <trkpt lat="47.35695" lon="-1.1759">
        <ele>54</ele>
        <time>2021-03-27T10:45:22.000Z</time>
      </trkpt>
      <trkpt lat="47.35689" lon="-1.17612">
        <ele>54</ele>
        <time>2021-03-27T10:45:24.000Z</time>
      </trkpt>
      <trkpt lat="47.35681" lon="-1.17634">
        <ele>51</ele>
        <time>2021-03-27T10:45:26.000Z</time>
      </trkpt>
      <trkpt lat="47.35678" lon="-1.17655">
        <ele>49</ele>
        <time>2021-03-27T10:45:28.000Z</time>
      </trkpt>
      <trkpt lat="47.3567" lon="-1.17678">
        <ele>51</ele>
        <time>2021-03-27T10:45:30.000Z</time>
      </trkpt>
      <trkpt lat="47.35663" lon="-1.17698">
        <ele>51</ele>
        <time>2021-03-27T10:45:32.000Z</time>
      </trkpt>
      <trkpt lat="47.35658" lon="-1.17717">
        <ele>50</ele>
        <time>2021-03-27T10:45:34.000Z</time>
      </trkpt>
      <trkpt lat="47.35654" lon="-1.17745">
        <ele>50</ele>
        <time>2021-03-27T10:45:37.000Z</time>
      </trkpt>
      <trkpt lat="47.35647" lon="-1.17765">
        <ele>51</ele>
        <time>2021-03-27T10:45:39.000Z</time>
      </trkpt>
      <trkpt lat="47.35641" lon="-1.17784">
        <ele>50</ele>
        <time>2021-03-27T10:45:41.000Z</time>
      </trkpt>
      <trkpt lat="47.35633" lon="-1.17802">
        <ele>48</ele>
        <time>2021-03-27T10:45:43.000Z</time>
      </trkpt>
      <trkpt lat="47.35625" lon="-1.1782">
        <ele>50</ele>
        <time>2021-03-27T10:45:45.000Z</time>
      </trkpt>
      <trkpt lat="47.35616" lon="-1.17838">
        <ele>53</ele>
        <time>2021-03-27T10:45:47.000Z</time>
      </trkpt>
      <trkpt lat="47.35609" lon="-1.17853">
        <ele>56</ele>
        <time>2021-03-27T10:45:49.000Z</time>
      </trkpt>
      <trkpt lat="47.35602" lon="-1.17869">
        <ele>53</ele>
        <time>2021-03-27T10:45:51.000Z</time>
      </trkpt>
      <trkpt lat="47.35593" lon="-1.17887">
        <ele>55</ele>
        <time>2021-03-27T10:45:53.000Z</time>
      </trkpt>
      <trkpt lat="47.35584" lon="-1.17903">
        <ele>57</ele>
        <time>2021-03-27T10:45:55.000Z</time>
      </trkpt>
      <trkpt lat="47.35577" lon="-1.17921">
        <ele>55</ele>
        <time>2021-03-27T10:45:57.000Z</time>
      </trkpt>
      <trkpt lat="47.35569" lon="-1.17938">
        <ele>54</ele>
        <time>2021-03-27T10:45:59.000Z</time>
      </trkpt>
      <trkpt lat="47.35559" lon="-1.17957">
        <ele>54</ele>
        <time>2021-03-27T10:46:01.000Z</time>
      </trkpt>
      <trkpt lat="47.35551" lon="-1.17976">
        <ele>54</ele>
        <time>2021-03-27T10:46:03.000Z</time>
      </trkpt>
      <trkpt lat="47.35543" lon="-1.17994">
        <ele>54</ele>
        <time>2021-03-27T10:46:05.000Z</time>
      </trkpt>
      <trkpt lat="47.35536" lon="-1.18012">
        <ele>55</ele>
        <time>2021-03-27T10:46:07.000Z</time>
      </trkpt>
      <trkpt lat="47.35528" lon="-1.1803">
        <ele>55</ele>
        <time>2021-03-27T10:46:09.000Z</time>
      </trkpt>
      <trkpt lat="47.35521" lon="-1.18048">
        <ele>56</ele>
        <time>2021-03-27T10:46:11.000Z</time>
      </trkpt>
      <trkpt lat="47.35514" lon="-1.18066">
        <ele>54</ele>
        <time>2021-03-27T10:46:13.000Z</time>
      </trkpt>
      <trkpt lat="47.35508" lon="-1.18082">
        <ele>55</ele>
        <time>2021-03-27T10:46:15.000Z</time>
      </trkpt>
      <trkpt lat="47.35502" lon="-1.18099">
        <ele>55</ele>
        <time>2021-03-27T10:46:17.000Z</time>
      </trkpt>
      <trkpt lat="47.35495" lon="-1.18116">
        <ele>55</ele>
        <time>2021-03-27T10:46:19.000Z</time>
      </trkpt>
      <trkpt lat="47.35488" lon="-1.18132">
        <ele>52</ele>
        <time>2021-03-27T10:46:21.000Z</time>
      </trkpt>
      <trkpt lat="47.35484" lon="-1.18147">
        <ele>52</ele>
        <time>2021-03-27T10:46:23.000Z</time>
      </trkpt>
      <trkpt lat="47.35477" lon="-1.18166">
        <ele>53</ele>
        <time>2021-03-27T10:46:25.000Z</time>
      </trkpt>
      <trkpt lat="47.3547" lon="-1.18183">
        <ele>53</ele>
        <time>2021-03-27T10:46:27.000Z</time>
      </trkpt>
      <trkpt lat="47.35461" lon="-1.18202">
        <ele>52</ele>
        <time>2021-03-27T10:46:29.000Z</time>
      </trkpt>
      <trkpt lat="47.35451" lon="-1.18227">
        <ele>51</ele>
        <time>2021-03-27T10:46:32.000Z</time>
      </trkpt>
      <trkpt lat="47.35441" lon="-1.18244">
        <ele>52</ele>
        <time>2021-03-27T10:46:34.000Z</time>
      </trkpt>
      <trkpt lat="47.35431" lon="-1.1826">
        <ele>52</ele>
        <time>2021-03-27T10:46:36.000Z</time>
      </trkpt>
      <trkpt lat="47.35421" lon="-1.18276">
        <ele>53</ele>
        <time>2021-03-27T10:46:38.000Z</time>
      </trkpt>
      <trkpt lat="47.35412" lon="-1.18291">
        <ele>54</ele>
        <time>2021-03-27T10:46:40.000Z</time>
      </trkpt>
      <trkpt lat="47.35402" lon="-1.18306">
        <ele>54</ele>
        <time>2021-03-27T10:46:42.000Z</time>
      </trkpt>
      <trkpt lat="47.35394" lon="-1.18321">
        <ele>55</ele>
        <time>2021-03-27T10:46:44.000Z</time>
      </trkpt>
      <trkpt lat="47.35387" lon="-1.18336">
        <ele>55</ele>
        <time>2021-03-27T10:46:46.000Z</time>
      </trkpt>
      <trkpt lat="47.35382" lon="-1.18353">
        <ele>55</ele>
        <time>2021-03-27T10:46:48.000Z</time>
      </trkpt>
      <trkpt lat="47.35376" lon="-1.18372">
        <ele>54</ele>
        <time>2021-03-27T10:46:50.000Z</time>
      </trkpt>
      <trkpt lat="47.35371" lon="-1.18389">
        <ele>54</ele>
        <time>2021-03-27T10:46:52.000Z</time>
      </trkpt>
      <trkpt lat="47.35363" lon="-1.18406">
        <ele>53</ele>
        <time>2021-03-27T10:46:54.000Z</time>
      </trkpt>
      <trkpt lat="47.35358" lon="-1.18421">
        <ele>52</ele>
        <time>2021-03-27T10:46:56.000Z</time>
      </trkpt>
      <trkpt lat="47.35346" lon="-1.18436">
        <ele>54</ele>
        <time>2021-03-27T10:46:58.000Z</time>
      </trkpt>
      <trkpt lat="47.35335" lon="-1.18447">
        <ele>55</ele>
        <time>2021-03-27T10:47:00.000Z</time>
      </trkpt>
      <trkpt lat="47.35328" lon="-1.18457">
        <ele>55</ele>
        <time>2021-03-27T10:47:02.000Z</time>
      </trkpt>
      <trkpt lat="47.35319" lon="-1.18465">
        <ele>54</ele>
        <time>2021-03-27T10:47:04.000Z</time>
      </trkpt>
      <trkpt lat="47.35309" lon="-1.18473">
        <ele>57</ele>
        <time>2021-03-27T10:47:06.000Z</time>
      </trkpt>
      <trkpt lat="47.35296" lon="-1.1848">
        <ele>58</ele>
        <time>2021-03-27T10:47:09.000Z</time>
      </trkpt>
      <trkpt lat="47.35285" lon="-1.18486">
        <ele>56</ele>
        <time>2021-03-27T10:47:12.000Z</time>
      </trkpt>
      <trkpt lat="47.35276" lon="-1.18485">
        <ele>55</ele>
        <time>2021-03-27T10:47:29.000Z</time>
      </trkpt>
      <trkpt lat="47.35283" lon="-1.18494">
        <ele>55</ele>
        <time>2021-03-27T10:48:33.000Z</time>
      </trkpt>
      <trkpt lat="47.35279" lon="-1.18508">
        <ele>59</ele>
        <time>2021-03-27T10:48:35.000Z</time>
      </trkpt>
      <trkpt lat="47.35273" lon="-1.18524">
        <ele>60</ele>
        <time>2021-03-27T10:48:37.000Z</time>
      </trkpt>
      <trkpt lat="47.35268" lon="-1.18538">
        <ele>60</ele>
        <time>2021-03-27T10:48:39.000Z</time>
      </trkpt>
      <trkpt lat="47.35262" lon="-1.18554">
        <ele>59</ele>
        <time>2021-03-27T10:48:41.000Z</time>
      </trkpt>
      <trkpt lat="47.35255" lon="-1.18571">
        <ele>59</ele>
        <time>2021-03-27T10:48:43.000Z</time>
      </trkpt>
      <trkpt lat="47.35248" lon="-1.18588">
        <ele>59</ele>
        <time>2021-03-27T10:48:45.000Z</time>
      </trkpt>
      <trkpt lat="47.35242" lon="-1.18605">
        <ele>58</ele>
        <time>2021-03-27T10:48:47.000Z</time>
      </trkpt>
      <trkpt lat="47.35237" lon="-1.18622">
        <ele>58</ele>
        <time>2021-03-27T10:48:49.000Z</time>
      </trkpt>
      <trkpt lat="47.35231" lon="-1.1864">
        <ele>58</ele>
        <time>2021-03-27T10:48:51.000Z</time>
      </trkpt>
      <trkpt lat="47.35225" lon="-1.18658">
        <ele>58</ele>
        <time>2021-03-27T10:48:53.000Z</time>
      </trkpt>
      <trkpt lat="47.3522" lon="-1.18677">
        <ele>58</ele>
        <time>2021-03-27T10:48:55.000Z</time>
      </trkpt>
      <trkpt lat="47.35215" lon="-1.18696">
        <ele>58</ele>
        <time>2021-03-27T10:48:57.000Z</time>
      </trkpt>
      <trkpt lat="47.35211" lon="-1.18715">
        <ele>58</ele>
        <time>2021-03-27T10:48:59.000Z</time>
      </trkpt>
      <trkpt lat="47.35207" lon="-1.18735">
        <ele>57</ele>
        <time>2021-03-27T10:49:01.000Z</time>
      </trkpt>
      <trkpt lat="47.35203" lon="-1.18754">
        <ele>57</ele>
        <time>2021-03-27T10:49:03.000Z</time>
      </trkpt>
      <trkpt lat="47.35199" lon="-1.18773">
        <ele>57</ele>
        <time>2021-03-27T10:49:05.000Z</time>
      </trkpt>
      <trkpt lat="47.35195" lon="-1.18793">
        <ele>56</ele>
        <time>2021-03-27T10:49:07.000Z</time>
      </trkpt>
      <trkpt lat="47.35191" lon="-1.18812">
        <ele>56</ele>
        <time>2021-03-27T10:49:09.000Z</time>
      </trkpt>
      <trkpt lat="47.35186" lon="-1.18833">
        <ele>56</ele>
        <time>2021-03-27T10:49:11.000Z</time>
      </trkpt>
      <trkpt lat="47.35182" lon="-1.18852">
        <ele>57</ele>
        <time>2021-03-27T10:49:13.000Z</time>
      </trkpt>
      <trkpt lat="47.35179" lon="-1.18872">
        <ele>57</ele>
        <time>2021-03-27T10:49:15.000Z</time>
      </trkpt>
      <trkpt lat="47.35176" lon="-1.18891">
        <ele>57</ele>
        <time>2021-03-27T10:49:17.000Z</time>
      </trkpt>
      <trkpt lat="47.35173" lon="-1.1891">
        <ele>58</ele>
        <time>2021-03-27T10:49:19.000Z</time>
      </trkpt>
      <trkpt lat="47.35171" lon="-1.18931">
        <ele>57</ele>
        <time>2021-03-27T10:49:21.000Z</time>
      </trkpt>
      <trkpt lat="47.35169" lon="-1.18951">
        <ele>58</ele>
        <time>2021-03-27T10:49:23.000Z</time>
      </trkpt>
      <trkpt lat="47.35168" lon="-1.18972">
        <ele>58</ele>
        <time>2021-03-27T10:49:25.000Z</time>
      </trkpt>
      <trkpt lat="47.35167" lon="-1.18994">
        <ele>58</ele>
        <time>2021-03-27T10:49:27.000Z</time>
      </trkpt>
      <trkpt lat="47.35167" lon="-1.19014">
        <ele>58</ele>
        <time>2021-03-27T10:49:29.000Z</time>
      </trkpt>
      <trkpt lat="47.35167" lon="-1.19034">
        <ele>58</ele>
        <time>2021-03-27T10:49:31.000Z</time>
      </trkpt>
      <trkpt lat="47.35165" lon="-1.19055">
        <ele>58</ele>
        <time>2021-03-27T10:49:33.000Z</time>
      </trkpt>
      <trkpt lat="47.35163" lon="-1.19076">
        <ele>58</ele>
        <time>2021-03-27T10:49:35.000Z</time>
      </trkpt>
      <trkpt lat="47.35159" lon="-1.19097">
        <ele>59</ele>
        <time>2021-03-27T10:49:37.000Z</time>
      </trkpt>
      <trkpt lat="47.35157" lon="-1.19115">
        <ele>59</ele>
        <time>2021-03-27T10:49:39.000Z</time>
      </trkpt>
      <trkpt lat="47.35153" lon="-1.19133">
        <ele>59</ele>
        <time>2021-03-27T10:49:41.000Z</time>
      </trkpt>
      <trkpt lat="47.3515" lon="-1.19152">
        <ele>59</ele>
        <time>2021-03-27T10:49:43.000Z</time>
      </trkpt>
      <trkpt lat="47.35146" lon="-1.19171">
        <ele>59</ele>
        <time>2021-03-27T10:49:45.000Z</time>
      </trkpt>
      <trkpt lat="47.35142" lon="-1.1919">
        <ele>59</ele>
        <time>2021-03-27T10:49:47.000Z</time>
      </trkpt>
      <trkpt lat="47.35137" lon="-1.19208">
        <ele>59</ele>
        <time>2021-03-27T10:49:49.000Z</time>
      </trkpt>
      <trkpt lat="47.35131" lon="-1.19227">
        <ele>59</ele>
        <time>2021-03-27T10:49:51.000Z</time>
      </trkpt>
      <trkpt lat="47.35126" lon="-1.19244">
        <ele>59</ele>
        <time>2021-03-27T10:49:53.000Z</time>
      </trkpt>
      <trkpt lat="47.35121" lon="-1.19262">
        <ele>59</ele>
        <time>2021-03-27T10:49:55.000Z</time>
      </trkpt>
      <trkpt lat="47.35116" lon="-1.19279">
        <ele>59</ele>
        <time>2021-03-27T10:49:57.000Z</time>
      </trkpt>
      <trkpt lat="47.3511" lon="-1.19297">
        <ele>59</ele>
        <time>2021-03-27T10:49:59.000Z</time>
      </trkpt>
      <trkpt lat="47.35105" lon="-1.19315">
        <ele>58</ele>
        <time>2021-03-27T10:50:01.000Z</time>
      </trkpt>
      <trkpt lat="47.35098" lon="-1.19332">
        <ele>58</ele>
        <time>2021-03-27T10:50:03.000Z</time>
      </trkpt>
      <trkpt lat="47.35093" lon="-1.1935">
        <ele>58</ele>
        <time>2021-03-27T10:50:05.000Z</time>
      </trkpt>
      <trkpt lat="47.35088" lon="-1.19368">
        <ele>58</ele>
        <time>2021-03-27T10:50:07.000Z</time>
      </trkpt>
      <trkpt lat="47.35082" lon="-1.19387">
        <ele>58</ele>
        <time>2021-03-27T10:50:09.000Z</time>
      </trkpt>
      <trkpt lat="47.35077" lon="-1.19405">
        <ele>57</ele>
        <time>2021-03-27T10:50:11.000Z</time>
      </trkpt>
      <trkpt lat="47.35071" lon="-1.19424">
        <ele>58</ele>
        <time>2021-03-27T10:50:13.000Z</time>
      </trkpt>
      <trkpt lat="47.35065" lon="-1.19442">
        <ele>59</ele>
        <time>2021-03-27T10:50:15.000Z</time>
      </trkpt>
      <trkpt lat="47.3506" lon="-1.1946">
        <ele>59</ele>
        <time>2021-03-27T10:50:17.000Z</time>
      </trkpt>
      <trkpt lat="47.35055" lon="-1.19478">
        <ele>60</ele>
        <time>2021-03-27T10:50:19.000Z</time>
      </trkpt>
      <trkpt lat="47.35051" lon="-1.19497">
        <ele>60</ele>
        <time>2021-03-27T10:50:21.000Z</time>
      </trkpt>
      <trkpt lat="47.35048" lon="-1.19515">
        <ele>60</ele>
        <time>2021-03-27T10:50:23.000Z</time>
      </trkpt>
      <trkpt lat="47.35045" lon="-1.19535">
        <ele>60</ele>
        <time>2021-03-27T10:50:25.000Z</time>
      </trkpt>
      <trkpt lat="47.35043" lon="-1.19555">
        <ele>59</ele>
        <time>2021-03-27T10:50:27.000Z</time>
      </trkpt>
      <trkpt lat="47.35041" lon="-1.19574">
        <ele>59</ele>
        <time>2021-03-27T10:50:29.000Z</time>
      </trkpt>
      <trkpt lat="47.35039" lon="-1.19594">
        <ele>60</ele>
        <time>2021-03-27T10:50:31.000Z</time>
      </trkpt>
      <trkpt lat="47.35037" lon="-1.19613">
        <ele>60</ele>
        <time>2021-03-27T10:50:33.000Z</time>
      </trkpt>
      <trkpt lat="47.35035" lon="-1.19632">
        <ele>59</ele>
        <time>2021-03-27T10:50:35.000Z</time>
      </trkpt>
      <trkpt lat="47.35033" lon="-1.1965">
        <ele>59</ele>
        <time>2021-03-27T10:50:37.000Z</time>
      </trkpt>
      <trkpt lat="47.35032" lon="-1.1967">
        <ele>59</ele>
        <time>2021-03-27T10:50:39.000Z</time>
      </trkpt>
      <trkpt lat="47.35031" lon="-1.19689">
        <ele>59</ele>
        <time>2021-03-27T10:50:41.000Z</time>
      </trkpt>
      <trkpt lat="47.3503" lon="-1.19707">
        <ele>59</ele>
        <time>2021-03-27T10:50:43.000Z</time>
      </trkpt>
      <trkpt lat="47.35032" lon="-1.19729">
        <ele>59</ele>
        <time>2021-03-27T10:50:45.000Z</time>
      </trkpt>
      <trkpt lat="47.35033" lon="-1.19749">
        <ele>59</ele>
        <time>2021-03-27T10:50:47.000Z</time>
      </trkpt>
      <trkpt lat="47.35033" lon="-1.19768">
        <ele>60</ele>
        <time>2021-03-27T10:50:49.000Z</time>
      </trkpt>
      <trkpt lat="47.35031" lon="-1.19786">
        <ele>60</ele>
        <time>2021-03-27T10:50:51.000Z</time>
      </trkpt>
      <trkpt lat="47.35029" lon="-1.19803">
        <ele>60</ele>
        <time>2021-03-27T10:50:53.000Z</time>
      </trkpt>
      <trkpt lat="47.35026" lon="-1.19822">
        <ele>59</ele>
        <time>2021-03-27T10:50:55.000Z</time>
      </trkpt>
      <trkpt lat="47.35023" lon="-1.19841">
        <ele>59</ele>
        <time>2021-03-27T10:50:57.000Z</time>
      </trkpt>
      <trkpt lat="47.3502" lon="-1.1986">
        <ele>59</ele>
        <time>2021-03-27T10:50:59.000Z</time>
      </trkpt>
      <trkpt lat="47.35017" lon="-1.19879">
        <ele>59</ele>
        <time>2021-03-27T10:51:01.000Z</time>
      </trkpt>
      <trkpt lat="47.35014" lon="-1.19898">
        <ele>59</ele>
        <time>2021-03-27T10:51:03.000Z</time>
      </trkpt>
      <trkpt lat="47.35012" lon="-1.19917">
        <ele>59</ele>
        <time>2021-03-27T10:51:05.000Z</time>
      </trkpt>
      <trkpt lat="47.35009" lon="-1.19935">
        <ele>59</ele>
        <time>2021-03-27T10:51:07.000Z</time>
      </trkpt>
      <trkpt lat="47.35006" lon="-1.19954">
        <ele>59</ele>
        <time>2021-03-27T10:51:09.000Z</time>
      </trkpt>
      <trkpt lat="47.35002" lon="-1.19972">
        <ele>58</ele>
        <time>2021-03-27T10:51:11.000Z</time>
      </trkpt>
      <trkpt lat="47.34996" lon="-1.19988">
        <ele>58</ele>
        <time>2021-03-27T10:51:13.000Z</time>
      </trkpt>
      <trkpt lat="47.34989" lon="-1.20003">
        <ele>58</ele>
        <time>2021-03-27T10:51:15.000Z</time>
      </trkpt>
      <trkpt lat="47.3498" lon="-1.20018">
        <ele>57</ele>
        <time>2021-03-27T10:51:17.000Z</time>
      </trkpt>
      <trkpt lat="47.34971" lon="-1.20031">
        <ele>57</ele>
        <time>2021-03-27T10:51:19.000Z</time>
      </trkpt>
      <trkpt lat="47.34963" lon="-1.20044">
        <ele>57</ele>
        <time>2021-03-27T10:51:21.000Z</time>
      </trkpt>
      <trkpt lat="47.34953" lon="-1.20059">
        <ele>57</ele>
        <time>2021-03-27T10:51:23.000Z</time>
      </trkpt>
      <trkpt lat="47.34945" lon="-1.20075">
        <ele>57</ele>
        <time>2021-03-27T10:51:25.000Z</time>
      </trkpt>
      <trkpt lat="47.34937" lon="-1.20091">
        <ele>57</ele>
        <time>2021-03-27T10:51:27.000Z</time>
      </trkpt>
      <trkpt lat="47.3493" lon="-1.20108">
        <ele>58</ele>
        <time>2021-03-27T10:51:29.000Z</time>
      </trkpt>
      <trkpt lat="47.34923" lon="-1.20125">
        <ele>58</ele>
        <time>2021-03-27T10:51:31.000Z</time>
      </trkpt>
      <trkpt lat="47.34918" lon="-1.20142">
        <ele>58</ele>
        <time>2021-03-27T10:51:33.000Z</time>
      </trkpt>
      <trkpt lat="47.34913" lon="-1.20158">
        <ele>58</ele>
        <time>2021-03-27T10:51:35.000Z</time>
      </trkpt>
      <trkpt lat="47.34908" lon="-1.20175">
        <ele>59</ele>
        <time>2021-03-27T10:51:37.000Z</time>
      </trkpt>
      <trkpt lat="47.34902" lon="-1.20191">
        <ele>59</ele>
        <time>2021-03-27T10:51:39.000Z</time>
      </trkpt>
      <trkpt lat="47.34896" lon="-1.20208">
        <ele>59</ele>
        <time>2021-03-27T10:51:41.000Z</time>
      </trkpt>
      <trkpt lat="47.34891" lon="-1.20225">
        <ele>59</ele>
        <time>2021-03-27T10:51:43.000Z</time>
      </trkpt>
      <trkpt lat="47.34885" lon="-1.20241">
        <ele>59</ele>
        <time>2021-03-27T10:51:45.000Z</time>
      </trkpt>
      <trkpt lat="47.34878" lon="-1.20257">
        <ele>58</ele>
        <time>2021-03-27T10:51:47.000Z</time>
      </trkpt>
      <trkpt lat="47.34868" lon="-1.20269">
        <ele>59</ele>
        <time>2021-03-27T10:51:49.000Z</time>
      </trkpt>
      <trkpt lat="47.34858" lon="-1.20278">
        <ele>58</ele>
        <time>2021-03-27T10:51:51.000Z</time>
      </trkpt>
      <trkpt lat="47.34845" lon="-1.20284">
        <ele>58</ele>
        <time>2021-03-27T10:51:53.000Z</time>
      </trkpt>
      <trkpt lat="47.34834" lon="-1.20286">
        <ele>58</ele>
        <time>2021-03-27T10:51:55.000Z</time>
      </trkpt>
      <trkpt lat="47.34821" lon="-1.20286">
        <ele>58</ele>
        <time>2021-03-27T10:51:57.000Z</time>
      </trkpt>
      <trkpt lat="47.34809" lon="-1.20285">
        <ele>59</ele>
        <time>2021-03-27T10:51:59.000Z</time>
      </trkpt>
      <trkpt lat="47.34795" lon="-1.20283">
        <ele>59</ele>
        <time>2021-03-27T10:52:01.000Z</time>
      </trkpt>
      <trkpt lat="47.34781" lon="-1.2028">
        <ele>59</ele>
        <time>2021-03-27T10:52:03.000Z</time>
      </trkpt>
      <trkpt lat="47.34768" lon="-1.20278">
        <ele>59</ele>
        <time>2021-03-27T10:52:05.000Z</time>
      </trkpt>
      <trkpt lat="47.34755" lon="-1.20276">
        <ele>58</ele>
        <time>2021-03-27T10:52:07.000Z</time>
      </trkpt>
      <trkpt lat="47.34742" lon="-1.20276">
        <ele>58</ele>
        <time>2021-03-27T10:52:09.000Z</time>
      </trkpt>
      <trkpt lat="47.34729" lon="-1.20278">
        <ele>58</ele>
        <time>2021-03-27T10:52:11.000Z</time>
      </trkpt>
      <trkpt lat="47.34716" lon="-1.20283">
        <ele>57</ele>
        <time>2021-03-27T10:52:13.000Z</time>
      </trkpt>
      <trkpt lat="47.34705" lon="-1.20291">
        <ele>57</ele>
        <time>2021-03-27T10:52:15.000Z</time>
      </trkpt>
      <trkpt lat="47.34693" lon="-1.20302">
        <ele>56</ele>
        <time>2021-03-27T10:52:17.000Z</time>
      </trkpt>
      <trkpt lat="47.34683" lon="-1.20313">
        <ele>57</ele>
        <time>2021-03-27T10:52:19.000Z</time>
      </trkpt>
      <trkpt lat="47.34672" lon="-1.20325">
        <ele>57</ele>
        <time>2021-03-27T10:52:21.000Z</time>
      </trkpt>
      <trkpt lat="47.34662" lon="-1.20336">
        <ele>57</ele>
        <time>2021-03-27T10:52:23.000Z</time>
      </trkpt>
      <trkpt lat="47.34652" lon="-1.20347">
        <ele>56</ele>
        <time>2021-03-27T10:52:25.000Z</time>
      </trkpt>
      <trkpt lat="47.34642" lon="-1.20359">
        <ele>56</ele>
        <time>2021-03-27T10:52:27.000Z</time>
      </trkpt>
      <trkpt lat="47.34632" lon="-1.2037">
        <ele>56</ele>
        <time>2021-03-27T10:52:29.000Z</time>
      </trkpt>
      <trkpt lat="47.34621" lon="-1.20382">
        <ele>55</ele>
        <time>2021-03-27T10:52:31.000Z</time>
      </trkpt>
      <trkpt lat="47.34611" lon="-1.20395">
        <ele>56</ele>
        <time>2021-03-27T10:52:33.000Z</time>
      </trkpt>
      <trkpt lat="47.34601" lon="-1.20407">
        <ele>57</ele>
        <time>2021-03-27T10:52:35.000Z</time>
      </trkpt>
      <trkpt lat="47.34592" lon="-1.20419">
        <ele>58</ele>
        <time>2021-03-27T10:52:37.000Z</time>
      </trkpt>
      <trkpt lat="47.3458" lon="-1.20431">
        <ele>58</ele>
        <time>2021-03-27T10:52:39.000Z</time>
      </trkpt>
      <trkpt lat="47.34568" lon="-1.2044">
        <ele>58</ele>
        <time>2021-03-27T10:52:41.000Z</time>
      </trkpt>
      <trkpt lat="47.34556" lon="-1.20444">
        <ele>57</ele>
        <time>2021-03-27T10:52:43.000Z</time>
      </trkpt>
      <trkpt lat="47.34544" lon="-1.20446">
        <ele>57</ele>
        <time>2021-03-27T10:52:45.000Z</time>
      </trkpt>
      <trkpt lat="47.34531" lon="-1.20444">
        <ele>58</ele>
        <time>2021-03-27T10:52:47.000Z</time>
      </trkpt>
      <trkpt lat="47.34519" lon="-1.2044">
        <ele>57</ele>
        <time>2021-03-27T10:52:49.000Z</time>
      </trkpt>
      <trkpt lat="47.34506" lon="-1.20435">
        <ele>57</ele>
        <time>2021-03-27T10:52:51.000Z</time>
      </trkpt>
      <trkpt lat="47.34494" lon="-1.20431">
        <ele>57</ele>
        <time>2021-03-27T10:52:53.000Z</time>
      </trkpt>
      <trkpt lat="47.34481" lon="-1.20427">
        <ele>57</ele>
        <time>2021-03-27T10:52:55.000Z</time>
      </trkpt>
      <trkpt lat="47.3447" lon="-1.20422">
        <ele>57</ele>
        <time>2021-03-27T10:52:57.000Z</time>
      </trkpt>
      <trkpt lat="47.34458" lon="-1.20424">
        <ele>57</ele>
        <time>2021-03-27T10:52:59.000Z</time>
      </trkpt>
      <trkpt lat="47.34452" lon="-1.2044">
        <ele>57</ele>
        <time>2021-03-27T10:53:01.000Z</time>
      </trkpt>
      <trkpt lat="47.34448" lon="-1.20459">
        <ele>58</ele>
        <time>2021-03-27T10:53:03.000Z</time>
      </trkpt>
      <trkpt lat="47.34446" lon="-1.20477">
        <ele>57</ele>
        <time>2021-03-27T10:53:05.000Z</time>
      </trkpt>
      <trkpt lat="47.34446" lon="-1.20496">
        <ele>57</ele>
        <time>2021-03-27T10:53:07.000Z</time>
      </trkpt>
      <trkpt lat="47.34444" lon="-1.20514">
        <ele>57</ele>
        <time>2021-03-27T10:53:09.000Z</time>
      </trkpt>
      <trkpt lat="47.34442" lon="-1.20532">
        <ele>57</ele>
        <time>2021-03-27T10:53:11.000Z</time>
      </trkpt>
      <trkpt lat="47.3444" lon="-1.2055">
        <ele>58</ele>
        <time>2021-03-27T10:53:13.000Z</time>
      </trkpt>
      <trkpt lat="47.34437" lon="-1.20568">
        <ele>59</ele>
        <time>2021-03-27T10:53:15.000Z</time>
      </trkpt>
      <trkpt lat="47.34435" lon="-1.20584">
        <ele>59</ele>
        <time>2021-03-27T10:53:17.000Z</time>
      </trkpt>
      <trkpt lat="47.34433" lon="-1.20601">
        <ele>59</ele>
        <time>2021-03-27T10:53:19.000Z</time>
      </trkpt>
      <trkpt lat="47.34431" lon="-1.20618">
        <ele>59</ele>
        <time>2021-03-27T10:53:21.000Z</time>
      </trkpt>
      <trkpt lat="47.34428" lon="-1.20635">
        <ele>60</ele>
        <time>2021-03-27T10:53:23.000Z</time>
      </trkpt>
      <trkpt lat="47.34426" lon="-1.2065">
        <ele>60</ele>
        <time>2021-03-27T10:53:25.000Z</time>
      </trkpt>
      <trkpt lat="47.34422" lon="-1.20665">
        <ele>60</ele>
        <time>2021-03-27T10:53:27.000Z</time>
      </trkpt>
      <trkpt lat="47.3442" lon="-1.20679">
        <ele>61</ele>
        <time>2021-03-27T10:53:29.000Z</time>
      </trkpt>
      <trkpt lat="47.34423" lon="-1.20694">
        <ele>61</ele>
        <time>2021-03-27T10:53:31.000Z</time>
      </trkpt>
      <trkpt lat="47.34425" lon="-1.20711">
        <ele>61</ele>
        <time>2021-03-27T10:53:33.000Z</time>
      </trkpt>
      <trkpt lat="47.34422" lon="-1.2073">
        <ele>61</ele>
        <time>2021-03-27T10:53:35.000Z</time>
      </trkpt>
      <trkpt lat="47.34419" lon="-1.20749">
        <ele>61</ele>
        <time>2021-03-27T10:53:37.000Z</time>
      </trkpt>
      <trkpt lat="47.34417" lon="-1.20768">
        <ele>60</ele>
        <time>2021-03-27T10:53:39.000Z</time>
      </trkpt>
      <trkpt lat="47.34413" lon="-1.20789">
        <ele>60</ele>
        <time>2021-03-27T10:53:41.000Z</time>
      </trkpt>
      <trkpt lat="47.34409" lon="-1.20809">
        <ele>60</ele>
        <time>2021-03-27T10:53:43.000Z</time>
      </trkpt>
      <trkpt lat="47.34407" lon="-1.20829">
        <ele>59</ele>
        <time>2021-03-27T10:53:45.000Z</time>
      </trkpt>
      <trkpt lat="47.34407" lon="-1.20849">
        <ele>60</ele>
        <time>2021-03-27T10:53:47.000Z</time>
      </trkpt>
      <trkpt lat="47.34408" lon="-1.20869">
        <ele>61</ele>
        <time>2021-03-27T10:53:49.000Z</time>
      </trkpt>
      <trkpt lat="47.34409" lon="-1.20889">
        <ele>61</ele>
        <time>2021-03-27T10:53:51.000Z</time>
      </trkpt>
      <trkpt lat="47.34409" lon="-1.20912">
        <ele>60</ele>
        <time>2021-03-27T10:53:53.000Z</time>
      </trkpt>
      <trkpt lat="47.34408" lon="-1.20935">
        <ele>59</ele>
        <time>2021-03-27T10:53:55.000Z</time>
      </trkpt>
      <trkpt lat="47.34408" lon="-1.20956">
        <ele>60</ele>
        <time>2021-03-27T10:53:57.000Z</time>
      </trkpt>
      <trkpt lat="47.34406" lon="-1.20977">
        <ele>59</ele>
        <time>2021-03-27T10:53:59.000Z</time>
      </trkpt>
      <trkpt lat="47.34403" lon="-1.20997">
        <ele>59</ele>
        <time>2021-03-27T10:54:01.000Z</time>
      </trkpt>
      <trkpt lat="47.344" lon="-1.21017">
        <ele>58</ele>
        <time>2021-03-27T10:54:03.000Z</time>
      </trkpt>
      <trkpt lat="47.34397" lon="-1.21037">
        <ele>58</ele>
        <time>2021-03-27T10:54:05.000Z</time>
      </trkpt>
      <trkpt lat="47.34395" lon="-1.21056">
        <ele>58</ele>
        <time>2021-03-27T10:54:07.000Z</time>
      </trkpt>
      <trkpt lat="47.34392" lon="-1.21075">
        <ele>59</ele>
        <time>2021-03-27T10:54:09.000Z</time>
      </trkpt>
      <trkpt lat="47.34389" lon="-1.21093">
        <ele>58</ele>
        <time>2021-03-27T10:54:11.000Z</time>
      </trkpt>
      <trkpt lat="47.34387" lon="-1.21111">
        <ele>58</ele>
        <time>2021-03-27T10:54:13.000Z</time>
      </trkpt>
      <trkpt lat="47.34385" lon="-1.21129">
        <ele>57</ele>
        <time>2021-03-27T10:54:15.000Z</time>
      </trkpt>
      <trkpt lat="47.34382" lon="-1.21148">
        <ele>57</ele>
        <time>2021-03-27T10:54:17.000Z</time>
      </trkpt>
      <trkpt lat="47.34381" lon="-1.21167">
        <ele>57</ele>
        <time>2021-03-27T10:54:19.000Z</time>
      </trkpt>
      <trkpt lat="47.3438" lon="-1.21186">
        <ele>56</ele>
        <time>2021-03-27T10:54:21.000Z</time>
      </trkpt>
      <trkpt lat="47.34378" lon="-1.21205">
        <ele>56</ele>
        <time>2021-03-27T10:54:23.000Z</time>
      </trkpt>
      <trkpt lat="47.34378" lon="-1.21224">
        <ele>56</ele>
        <time>2021-03-27T10:54:25.000Z</time>
      </trkpt>
      <trkpt lat="47.34377" lon="-1.21243">
        <ele>56</ele>
        <time>2021-03-27T10:54:27.000Z</time>
      </trkpt>
      <trkpt lat="47.34374" lon="-1.21262">
        <ele>56</ele>
        <time>2021-03-27T10:54:29.000Z</time>
      </trkpt>
      <trkpt lat="47.34371" lon="-1.2128">
        <ele>55</ele>
        <time>2021-03-27T10:54:31.000Z</time>
      </trkpt>
      <trkpt lat="47.34369" lon="-1.21299">
        <ele>55</ele>
        <time>2021-03-27T10:54:33.000Z</time>
      </trkpt>
      <trkpt lat="47.34365" lon="-1.21318">
        <ele>55</ele>
        <time>2021-03-27T10:54:35.000Z</time>
      </trkpt>
      <trkpt lat="47.34362" lon="-1.21337">
        <ele>55</ele>
        <time>2021-03-27T10:54:37.000Z</time>
      </trkpt>
      <trkpt lat="47.34359" lon="-1.21356">
        <ele>56</ele>
        <time>2021-03-27T10:54:39.000Z</time>
      </trkpt>
      <trkpt lat="47.34356" lon="-1.21373">
        <ele>55</ele>
        <time>2021-03-27T10:54:41.000Z</time>
      </trkpt>
      <trkpt lat="47.34354" lon="-1.21392">
        <ele>55</ele>
        <time>2021-03-27T10:54:43.000Z</time>
      </trkpt>
      <trkpt lat="47.34351" lon="-1.21411">
        <ele>54</ele>
        <time>2021-03-27T10:54:45.000Z</time>
      </trkpt>
      <trkpt lat="47.34348" lon="-1.2143">
        <ele>55</ele>
        <time>2021-03-27T10:54:47.000Z</time>
      </trkpt>
      <trkpt lat="47.34346" lon="-1.21449">
        <ele>55</ele>
        <time>2021-03-27T10:54:49.000Z</time>
      </trkpt>
      <trkpt lat="47.34343" lon="-1.21468">
        <ele>55</ele>
        <time>2021-03-27T10:54:51.000Z</time>
      </trkpt>
      <trkpt lat="47.3434" lon="-1.21487">
        <ele>56</ele>
        <time>2021-03-27T10:54:53.000Z</time>
      </trkpt>
      <trkpt lat="47.34338" lon="-1.21506">
        <ele>56</ele>
        <time>2021-03-27T10:54:55.000Z</time>
      </trkpt>
      <trkpt lat="47.34336" lon="-1.21524">
        <ele>56</ele>
        <time>2021-03-27T10:54:57.000Z</time>
      </trkpt>
      <trkpt lat="47.34334" lon="-1.21542">
        <ele>56</ele>
        <time>2021-03-27T10:54:59.000Z</time>
      </trkpt>
      <trkpt lat="47.34332" lon="-1.2156">
        <ele>55</ele>
        <time>2021-03-27T10:55:01.000Z</time>
      </trkpt>
      <trkpt lat="47.3433" lon="-1.21579">
        <ele>56</ele>
        <time>2021-03-27T10:55:03.000Z</time>
      </trkpt>
      <trkpt lat="47.34328" lon="-1.21598">
        <ele>56</ele>
        <time>2021-03-27T10:55:05.000Z</time>
      </trkpt>
      <trkpt lat="47.34325" lon="-1.21617">
        <ele>57</ele>
        <time>2021-03-27T10:55:07.000Z</time>
      </trkpt>
      <trkpt lat="47.34324" lon="-1.21634">
        <ele>57</ele>
        <time>2021-03-27T10:55:09.000Z</time>
      </trkpt>
      <trkpt lat="47.34322" lon="-1.21652">
        <ele>57</ele>
        <time>2021-03-27T10:55:11.000Z</time>
      </trkpt>
      <trkpt lat="47.3432" lon="-1.2167">
        <ele>57</ele>
        <time>2021-03-27T10:55:13.000Z</time>
      </trkpt>
      <trkpt lat="47.34318" lon="-1.21687">
        <ele>57</ele>
        <time>2021-03-27T10:55:15.000Z</time>
      </trkpt>
      <trkpt lat="47.34316" lon="-1.21704">
        <ele>56</ele>
        <time>2021-03-27T10:55:17.000Z</time>
      </trkpt>
      <trkpt lat="47.34314" lon="-1.21721">
        <ele>56</ele>
        <time>2021-03-27T10:55:19.000Z</time>
      </trkpt>
      <trkpt lat="47.34312" lon="-1.2174">
        <ele>57</ele>
        <time>2021-03-27T10:55:21.000Z</time>
      </trkpt>
      <trkpt lat="47.3431" lon="-1.21758">
        <ele>57</ele>
        <time>2021-03-27T10:55:23.000Z</time>
      </trkpt>
      <trkpt lat="47.34309" lon="-1.21776">
        <ele>58</ele>
        <time>2021-03-27T10:55:25.000Z</time>
      </trkpt>
      <trkpt lat="47.34308" lon="-1.21792">
        <ele>58</ele>
        <time>2021-03-27T10:55:27.000Z</time>
      </trkpt>
      <trkpt lat="47.34307" lon="-1.21809">
        <ele>58</ele>
        <time>2021-03-27T10:55:29.000Z</time>
      </trkpt>
      <trkpt lat="47.34307" lon="-1.21826">
        <ele>58</ele>
        <time>2021-03-27T10:55:31.000Z</time>
      </trkpt>
      <trkpt lat="47.34308" lon="-1.21844">
        <ele>58</ele>
        <time>2021-03-27T10:55:33.000Z</time>
      </trkpt>
      <trkpt lat="47.34307" lon="-1.21861">
        <ele>58</ele>
        <time>2021-03-27T10:55:35.000Z</time>
      </trkpt>
      <trkpt lat="47.34306" lon="-1.21879">
        <ele>58</ele>
        <time>2021-03-27T10:55:37.000Z</time>
      </trkpt>
      <trkpt lat="47.34304" lon="-1.21898">
        <ele>58</ele>
        <time>2021-03-27T10:55:39.000Z</time>
      </trkpt>
      <trkpt lat="47.34302" lon="-1.21916">
        <ele>59</ele>
        <time>2021-03-27T10:55:41.000Z</time>
      </trkpt>
      <trkpt lat="47.34301" lon="-1.21933">
        <ele>59</ele>
        <time>2021-03-27T10:55:43.000Z</time>
      </trkpt>
      <trkpt lat="47.34299" lon="-1.2195">
        <ele>59</ele>
        <time>2021-03-27T10:55:45.000Z</time>
      </trkpt>
      <trkpt lat="47.34297" lon="-1.21967">
        <ele>60</ele>
        <time>2021-03-27T10:55:47.000Z</time>
      </trkpt>
      <trkpt lat="47.34296" lon="-1.21983">
        <ele>60</ele>
        <time>2021-03-27T10:55:49.000Z</time>
      </trkpt>
      <trkpt lat="47.34295" lon="-1.21999">
        <ele>60</ele>
        <time>2021-03-27T10:55:51.000Z</time>
      </trkpt>
      <trkpt lat="47.34293" lon="-1.22017">
        <ele>60</ele>
        <time>2021-03-27T10:55:53.000Z</time>
      </trkpt>
      <trkpt lat="47.34289" lon="-1.22034">
        <ele>60</ele>
        <time>2021-03-27T10:55:55.000Z</time>
      </trkpt>
      <trkpt lat="47.34282" lon="-1.22048">
        <ele>60</ele>
        <time>2021-03-27T10:55:57.000Z</time>
      </trkpt>
      <trkpt lat="47.34274" lon="-1.22059">
        <ele>60</ele>
        <time>2021-03-27T10:55:59.000Z</time>
      </trkpt>
      <trkpt lat="47.34269" lon="-1.22075">
        <ele>60</ele>
        <time>2021-03-27T10:56:01.000Z</time>
      </trkpt>
      <trkpt lat="47.34267" lon="-1.22091">
        <ele>58</ele>
        <time>2021-03-27T10:56:03.000Z</time>
      </trkpt>
      <trkpt lat="47.34265" lon="-1.22107">
        <ele>57</ele>
        <time>2021-03-27T10:56:05.000Z</time>
      </trkpt>
      <trkpt lat="47.34262" lon="-1.22125">
        <ele>57</ele>
        <time>2021-03-27T10:56:07.000Z</time>
      </trkpt>
      <trkpt lat="47.34261" lon="-1.22142">
        <ele>57</ele>
        <time>2021-03-27T10:56:09.000Z</time>
      </trkpt>
      <trkpt lat="47.3426" lon="-1.22161">
        <ele>57</ele>
        <time>2021-03-27T10:56:11.000Z</time>
      </trkpt>
      <trkpt lat="47.34258" lon="-1.22178">
        <ele>57</ele>
        <time>2021-03-27T10:56:13.000Z</time>
      </trkpt>
      <trkpt lat="47.34257" lon="-1.22197">
        <ele>57</ele>
        <time>2021-03-27T10:56:15.000Z</time>
      </trkpt>
      <trkpt lat="47.34254" lon="-1.22216">
        <ele>57</ele>
        <time>2021-03-27T10:56:17.000Z</time>
      </trkpt>
      <trkpt lat="47.34252" lon="-1.22234">
        <ele>57</ele>
        <time>2021-03-27T10:56:19.000Z</time>
      </trkpt>
      <trkpt lat="47.3425" lon="-1.22251">
        <ele>57</ele>
        <time>2021-03-27T10:56:21.000Z</time>
      </trkpt>
      <trkpt lat="47.34247" lon="-1.22269">
        <ele>57</ele>
        <time>2021-03-27T10:56:23.000Z</time>
      </trkpt>
      <trkpt lat="47.34245" lon="-1.22287">
        <ele>56</ele>
        <time>2021-03-27T10:56:25.000Z</time>
      </trkpt>
      <trkpt lat="47.34242" lon="-1.22306">
        <ele>56</ele>
        <time>2021-03-27T10:56:27.000Z</time>
      </trkpt>
      <trkpt lat="47.34239" lon="-1.22323">
        <ele>57</ele>
        <time>2021-03-27T10:56:29.000Z</time>
      </trkpt>
      <trkpt lat="47.34237" lon="-1.22341">
        <ele>57</ele>
        <time>2021-03-27T10:56:31.000Z</time>
      </trkpt>
      <trkpt lat="47.34235" lon="-1.2236">
        <ele>58</ele>
        <time>2021-03-27T10:56:33.000Z</time>
      </trkpt>
      <trkpt lat="47.34234" lon="-1.22378">
        <ele>57</ele>
        <time>2021-03-27T10:56:35.000Z</time>
      </trkpt>
      <trkpt lat="47.34232" lon="-1.22397">
        <ele>58</ele>
        <time>2021-03-27T10:56:37.000Z</time>
      </trkpt>
      <trkpt lat="47.3423" lon="-1.22414">
        <ele>57</ele>
        <time>2021-03-27T10:56:39.000Z</time>
      </trkpt>
      <trkpt lat="47.34227" lon="-1.22432">
        <ele>57</ele>
        <time>2021-03-27T10:56:41.000Z</time>
      </trkpt>
      <trkpt lat="47.34225" lon="-1.22452">
        <ele>58</ele>
        <time>2021-03-27T10:56:43.000Z</time>
      </trkpt>
      <trkpt lat="47.34224" lon="-1.2247">
        <ele>57</ele>
        <time>2021-03-27T10:56:45.000Z</time>
      </trkpt>
      <trkpt lat="47.34223" lon="-1.22488">
        <ele>57</ele>
        <time>2021-03-27T10:56:47.000Z</time>
      </trkpt>
      <trkpt lat="47.34223" lon="-1.22506">
        <ele>57</ele>
        <time>2021-03-27T10:56:49.000Z</time>
      </trkpt>
      <trkpt lat="47.34221" lon="-1.22525">
        <ele>57</ele>
        <time>2021-03-27T10:56:51.000Z</time>
      </trkpt>
      <trkpt lat="47.3422" lon="-1.22544">
        <ele>57</ele>
        <time>2021-03-27T10:56:53.000Z</time>
      </trkpt>
      <trkpt lat="47.34219" lon="-1.22562">
        <ele>57</ele>
        <time>2021-03-27T10:56:55.000Z</time>
      </trkpt>
      <trkpt lat="47.34218" lon="-1.2258">
        <ele>57</ele>
        <time>2021-03-27T10:56:57.000Z</time>
      </trkpt>
      <trkpt lat="47.34217" lon="-1.22597">
        <ele>56</ele>
        <time>2021-03-27T10:56:59.000Z</time>
      </trkpt>
      <trkpt lat="47.34215" lon="-1.22615">
        <ele>57</ele>
        <time>2021-03-27T10:57:01.000Z</time>
      </trkpt>
      <trkpt lat="47.34213" lon="-1.22632">
        <ele>57</ele>
        <time>2021-03-27T10:57:03.000Z</time>
      </trkpt>
      <trkpt lat="47.34215" lon="-1.22648">
        <ele>57</ele>
        <time>2021-03-27T10:57:05.000Z</time>
      </trkpt>
      <trkpt lat="47.34219" lon="-1.2266">
        <ele>58</ele>
        <time>2021-03-27T10:57:07.000Z</time>
      </trkpt>
      <trkpt lat="47.3422" lon="-1.22675">
        <ele>57</ele>
        <time>2021-03-27T10:57:09.000Z</time>
      </trkpt>
      <trkpt lat="47.34213" lon="-1.22687">
        <ele>58</ele>
        <time>2021-03-27T10:57:11.000Z</time>
      </trkpt>
      <trkpt lat="47.34205" lon="-1.22694">
        <ele>57</ele>
        <time>2021-03-27T10:57:13.000Z</time>
      </trkpt>
      <trkpt lat="47.34196" lon="-1.22701">
        <ele>56</ele>
        <time>2021-03-27T10:57:15.000Z</time>
      </trkpt>
      <trkpt lat="47.34185" lon="-1.22711">
        <ele>57</ele>
        <time>2021-03-27T10:57:17.000Z</time>
      </trkpt>
      <trkpt lat="47.34175" lon="-1.22722">
        <ele>58</ele>
        <time>2021-03-27T10:57:19.000Z</time>
      </trkpt>
      <trkpt lat="47.34164" lon="-1.22733">
        <ele>58</ele>
        <time>2021-03-27T10:57:21.000Z</time>
      </trkpt>
      <trkpt lat="47.34155" lon="-1.22741">
        <ele>58</ele>
        <time>2021-03-27T10:57:23.000Z</time>
      </trkpt>
      <trkpt lat="47.34144" lon="-1.22744">
        <ele>57</ele>
        <time>2021-03-27T10:57:25.000Z</time>
      </trkpt>
      <trkpt lat="47.34132" lon="-1.22744">
        <ele>56</ele>
        <time>2021-03-27T10:57:27.000Z</time>
      </trkpt>
      <trkpt lat="47.34122" lon="-1.22741">
        <ele>56</ele>
        <time>2021-03-27T10:57:29.000Z</time>
      </trkpt>
      <trkpt lat="47.34113" lon="-1.22735">
        <ele>58</ele>
        <time>2021-03-27T10:57:31.000Z</time>
      </trkpt>
      <trkpt lat="47.34105" lon="-1.22728">
        <ele>59</ele>
        <time>2021-03-27T10:57:33.000Z</time>
      </trkpt>
      <trkpt lat="47.34097" lon="-1.22721">
        <ele>60</ele>
        <time>2021-03-27T10:57:35.000Z</time>
      </trkpt>
      <trkpt lat="47.34086" lon="-1.22712">
        <ele>62</ele>
        <time>2021-03-27T10:57:38.000Z</time>
      </trkpt>
      <trkpt lat="47.34076" lon="-1.22706">
        <ele>63</ele>
        <time>2021-03-27T10:57:41.000Z</time>
      </trkpt>
      <trkpt lat="47.34067" lon="-1.22716">
        <ele>63</ele>
        <time>2021-03-27T10:57:45.000Z</time>
      </trkpt>
      <trkpt lat="47.34064" lon="-1.22731">
        <ele>63</ele>
        <time>2021-03-27T10:57:47.000Z</time>
      </trkpt>
      <trkpt lat="47.3406" lon="-1.22747">
        <ele>64</ele>
        <time>2021-03-27T10:57:49.000Z</time>
      </trkpt>
      <trkpt lat="47.34056" lon="-1.22762">
        <ele>64</ele>
        <time>2021-03-27T10:57:51.000Z</time>
      </trkpt>
      <trkpt lat="47.3405" lon="-1.22777">
        <ele>64</ele>
        <time>2021-03-27T10:57:53.000Z</time>
      </trkpt>
      <trkpt lat="47.34044" lon="-1.22792">
        <ele>65</ele>
        <time>2021-03-27T10:57:55.000Z</time>
      </trkpt>
      <trkpt lat="47.34039" lon="-1.22807">
        <ele>64</ele>
        <time>2021-03-27T10:57:57.000Z</time>
      </trkpt>
      <trkpt lat="47.34036" lon="-1.22823">
        <ele>64</ele>
        <time>2021-03-27T10:57:59.000Z</time>
      </trkpt>
      <trkpt lat="47.34032" lon="-1.22841">
        <ele>63</ele>
        <time>2021-03-27T10:58:01.000Z</time>
      </trkpt>
      <trkpt lat="47.34029" lon="-1.22859">
        <ele>63</ele>
        <time>2021-03-27T10:58:03.000Z</time>
      </trkpt>
      <trkpt lat="47.34026" lon="-1.22877">
        <ele>63</ele>
        <time>2021-03-27T10:58:05.000Z</time>
      </trkpt>
      <trkpt lat="47.34024" lon="-1.22895">
        <ele>63</ele>
        <time>2021-03-27T10:58:07.000Z</time>
      </trkpt>
      <trkpt lat="47.34022" lon="-1.22912">
        <ele>63</ele>
        <time>2021-03-27T10:58:09.000Z</time>
      </trkpt>
      <trkpt lat="47.3402" lon="-1.22929">
        <ele>63</ele>
        <time>2021-03-27T10:58:11.000Z</time>
      </trkpt>
      <trkpt lat="47.34018" lon="-1.22948">
        <ele>62</ele>
        <time>2021-03-27T10:58:13.000Z</time>
      </trkpt>
      <trkpt lat="47.34016" lon="-1.22966">
        <ele>63</ele>
        <time>2021-03-27T10:58:15.000Z</time>
      </trkpt>
      <trkpt lat="47.34013" lon="-1.22984">
        <ele>63</ele>
        <time>2021-03-27T10:58:17.000Z</time>
      </trkpt>
      <trkpt lat="47.34011" lon="-1.23004">
        <ele>63</ele>
        <time>2021-03-27T10:58:19.000Z</time>
      </trkpt>
      <trkpt lat="47.34008" lon="-1.23023">
        <ele>63</ele>
        <time>2021-03-27T10:58:21.000Z</time>
      </trkpt>
      <trkpt lat="47.34006" lon="-1.23041">
        <ele>63</ele>
        <time>2021-03-27T10:58:23.000Z</time>
      </trkpt>
      <trkpt lat="47.34004" lon="-1.2306">
        <ele>62</ele>
        <time>2021-03-27T10:58:25.000Z</time>
      </trkpt>
      <trkpt lat="47.34002" lon="-1.2308">
        <ele>61</ele>
        <time>2021-03-27T10:58:27.000Z</time>
      </trkpt>
      <trkpt lat="47.34001" lon="-1.231">
        <ele>61</ele>
        <time>2021-03-27T10:58:29.000Z</time>
      </trkpt>
      <trkpt lat="47.33999" lon="-1.2312">
        <ele>62</ele>
        <time>2021-03-27T10:58:31.000Z</time>
      </trkpt>
      <trkpt lat="47.33998" lon="-1.2314">
        <ele>63</ele>
        <time>2021-03-27T10:58:33.000Z</time>
      </trkpt>
      <trkpt lat="47.33998" lon="-1.23159">
        <ele>63</ele>
        <time>2021-03-27T10:58:35.000Z</time>
      </trkpt>
      <trkpt lat="47.33997" lon="-1.23177">
        <ele>64</ele>
        <time>2021-03-27T10:58:37.000Z</time>
      </trkpt>
      <trkpt lat="47.33997" lon="-1.23194">
        <ele>64</ele>
        <time>2021-03-27T10:58:39.000Z</time>
      </trkpt>
      <trkpt lat="47.33997" lon="-1.23212">
        <ele>64</ele>
        <time>2021-03-27T10:58:41.000Z</time>
      </trkpt>
      <trkpt lat="47.33997" lon="-1.23229">
        <ele>64</ele>
        <time>2021-03-27T10:58:43.000Z</time>
      </trkpt>
      <trkpt lat="47.33997" lon="-1.23247">
        <ele>65</ele>
        <time>2021-03-27T10:58:45.000Z</time>
      </trkpt>
      <trkpt lat="47.33998" lon="-1.23265">
        <ele>64</ele>
        <time>2021-03-27T10:58:47.000Z</time>
      </trkpt>
      <trkpt lat="47.33997" lon="-1.23284">
        <ele>64</ele>
        <time>2021-03-27T10:58:49.000Z</time>
      </trkpt>
      <trkpt lat="47.33996" lon="-1.23303">
        <ele>64</ele>
        <time>2021-03-27T10:58:51.000Z</time>
      </trkpt>
      <trkpt lat="47.33994" lon="-1.23322">
        <ele>64</ele>
        <time>2021-03-27T10:58:53.000Z</time>
      </trkpt>
      <trkpt lat="47.33991" lon="-1.2334">
        <ele>64</ele>
        <time>2021-03-27T10:58:55.000Z</time>
      </trkpt>
      <trkpt lat="47.33988" lon="-1.23359">
        <ele>64</ele>
        <time>2021-03-27T10:58:57.000Z</time>
      </trkpt>
      <trkpt lat="47.33985" lon="-1.23377">
        <ele>63</ele>
        <time>2021-03-27T10:58:59.000Z</time>
      </trkpt>
      <trkpt lat="47.33983" lon="-1.23395">
        <ele>62</ele>
        <time>2021-03-27T10:59:01.000Z</time>
      </trkpt>
      <trkpt lat="47.33981" lon="-1.23414">
        <ele>62</ele>
        <time>2021-03-27T10:59:03.000Z</time>
      </trkpt>
      <trkpt lat="47.33978" lon="-1.23433">
        <ele>62</ele>
        <time>2021-03-27T10:59:05.000Z</time>
      </trkpt>
      <trkpt lat="47.33975" lon="-1.23451">
        <ele>61</ele>
        <time>2021-03-27T10:59:07.000Z</time>
      </trkpt>
      <trkpt lat="47.33972" lon="-1.2347">
        <ele>61</ele>
        <time>2021-03-27T10:59:09.000Z</time>
      </trkpt>
      <trkpt lat="47.33968" lon="-1.23489">
        <ele>62</ele>
        <time>2021-03-27T10:59:11.000Z</time>
      </trkpt>
      <trkpt lat="47.33965" lon="-1.23508">
        <ele>61</ele>
        <time>2021-03-27T10:59:13.000Z</time>
      </trkpt>
      <trkpt lat="47.33963" lon="-1.23526">
        <ele>61</ele>
        <time>2021-03-27T10:59:15.000Z</time>
      </trkpt>
      <trkpt lat="47.3396" lon="-1.23544">
        <ele>61</ele>
        <time>2021-03-27T10:59:17.000Z</time>
      </trkpt>
      <trkpt lat="47.33958" lon="-1.23562">
        <ele>61</ele>
        <time>2021-03-27T10:59:19.000Z</time>
      </trkpt>
      <trkpt lat="47.33956" lon="-1.23581">
        <ele>61</ele>
        <time>2021-03-27T10:59:21.000Z</time>
      </trkpt>
      <trkpt lat="47.33952" lon="-1.23599">
        <ele>61</ele>
        <time>2021-03-27T10:59:23.000Z</time>
      </trkpt>
      <trkpt lat="47.33948" lon="-1.23616">
        <ele>61</ele>
        <time>2021-03-27T10:59:25.000Z</time>
      </trkpt>
      <trkpt lat="47.33943" lon="-1.23633">
        <ele>61</ele>
        <time>2021-03-27T10:59:27.000Z</time>
      </trkpt>
      <trkpt lat="47.33938" lon="-1.2365">
        <ele>62</ele>
        <time>2021-03-27T10:59:29.000Z</time>
      </trkpt>
      <trkpt lat="47.33932" lon="-1.23665">
        <ele>62</ele>
        <time>2021-03-27T10:59:31.000Z</time>
      </trkpt>
      <trkpt lat="47.33927" lon="-1.23681">
        <ele>62</ele>
        <time>2021-03-27T10:59:33.000Z</time>
      </trkpt>
      <trkpt lat="47.33921" lon="-1.23696">
        <ele>62</ele>
        <time>2021-03-27T10:59:35.000Z</time>
      </trkpt>
      <trkpt lat="47.33915" lon="-1.23712">
        <ele>62</ele>
        <time>2021-03-27T10:59:37.000Z</time>
      </trkpt>
      <trkpt lat="47.3391" lon="-1.23727">
        <ele>62</ele>
        <time>2021-03-27T10:59:39.000Z</time>
      </trkpt>
      <trkpt lat="47.33904" lon="-1.23743">
        <ele>62</ele>
        <time>2021-03-27T10:59:41.000Z</time>
      </trkpt>
      <trkpt lat="47.33898" lon="-1.2376">
        <ele>62</ele>
        <time>2021-03-27T10:59:43.000Z</time>
      </trkpt>
      <trkpt lat="47.33893" lon="-1.23776">
        <ele>62</ele>
        <time>2021-03-27T10:59:45.000Z</time>
      </trkpt>
      <trkpt lat="47.33887" lon="-1.23793">
        <ele>63</ele>
        <time>2021-03-27T10:59:47.000Z</time>
      </trkpt>
      <trkpt lat="47.33882" lon="-1.23809">
        <ele>63</ele>
        <time>2021-03-27T10:59:49.000Z</time>
      </trkpt>
      <trkpt lat="47.33878" lon="-1.23826">
        <ele>63</ele>
        <time>2021-03-27T10:59:51.000Z</time>
      </trkpt>
      <trkpt lat="47.33872" lon="-1.23843">
        <ele>62</ele>
        <time>2021-03-27T10:59:53.000Z</time>
      </trkpt>
      <trkpt lat="47.33867" lon="-1.2386">
        <ele>62</ele>
        <time>2021-03-27T10:59:55.000Z</time>
      </trkpt>
      <trkpt lat="47.33863" lon="-1.23878">
        <ele>63</ele>
        <time>2021-03-27T10:59:57.000Z</time>
      </trkpt>
      <trkpt lat="47.3386" lon="-1.23895">
        <ele>62</ele>
        <time>2021-03-27T10:59:59.000Z</time>
      </trkpt>
      <trkpt lat="47.33857" lon="-1.23912">
        <ele>62</ele>
        <time>2021-03-27T11:00:01.000Z</time>
      </trkpt>
      <trkpt lat="47.33854" lon="-1.23929">
        <ele>62</ele>
        <time>2021-03-27T11:00:03.000Z</time>
      </trkpt>
      <trkpt lat="47.33851" lon="-1.23946">
        <ele>62</ele>
        <time>2021-03-27T11:00:05.000Z</time>
      </trkpt>
      <trkpt lat="47.33848" lon="-1.23964">
        <ele>62</ele>
        <time>2021-03-27T11:00:07.000Z</time>
      </trkpt>
      <trkpt lat="47.33844" lon="-1.23983">
        <ele>62</ele>
        <time>2021-03-27T11:00:09.000Z</time>
      </trkpt>
      <trkpt lat="47.33839" lon="-1.24001">
        <ele>62</ele>
        <time>2021-03-27T11:00:11.000Z</time>
      </trkpt>
      <trkpt lat="47.33835" lon="-1.24019">
        <ele>61</ele>
        <time>2021-03-27T11:00:13.000Z</time>
      </trkpt>
      <trkpt lat="47.33831" lon="-1.24037">
        <ele>61</ele>
        <time>2021-03-27T11:00:15.000Z</time>
      </trkpt>
      <trkpt lat="47.33828" lon="-1.24055">
        <ele>61</ele>
        <time>2021-03-27T11:00:17.000Z</time>
      </trkpt>
      <trkpt lat="47.33825" lon="-1.24072">
        <ele>60</ele>
        <time>2021-03-27T11:00:19.000Z</time>
      </trkpt>
      <trkpt lat="47.33822" lon="-1.2409">
        <ele>60</ele>
        <time>2021-03-27T11:00:21.000Z</time>
      </trkpt>
      <trkpt lat="47.33819" lon="-1.24107">
        <ele>59</ele>
        <time>2021-03-27T11:00:23.000Z</time>
      </trkpt>
      <trkpt lat="47.33815" lon="-1.24126">
        <ele>60</ele>
        <time>2021-03-27T11:00:25.000Z</time>
      </trkpt>
      <trkpt lat="47.33813" lon="-1.24144">
        <ele>60</ele>
        <time>2021-03-27T11:00:27.000Z</time>
      </trkpt>
      <trkpt lat="47.33811" lon="-1.24164">
        <ele>61</ele>
        <time>2021-03-27T11:00:29.000Z</time>
      </trkpt>
      <trkpt lat="47.33809" lon="-1.24183">
        <ele>61</ele>
        <time>2021-03-27T11:00:31.000Z</time>
      </trkpt>
      <trkpt lat="47.33809" lon="-1.24202">
        <ele>61</ele>
        <time>2021-03-27T11:00:33.000Z</time>
      </trkpt>
      <trkpt lat="47.33808" lon="-1.24221">
        <ele>61</ele>
        <time>2021-03-27T11:00:35.000Z</time>
      </trkpt>
      <trkpt lat="47.33808" lon="-1.24239">
        <ele>61</ele>
        <time>2021-03-27T11:00:37.000Z</time>
      </trkpt>
      <trkpt lat="47.33808" lon="-1.24257">
        <ele>62</ele>
        <time>2021-03-27T11:00:39.000Z</time>
      </trkpt>
      <trkpt lat="47.33807" lon="-1.24275">
        <ele>62</ele>
        <time>2021-03-27T11:00:41.000Z</time>
      </trkpt>
      <trkpt lat="47.33805" lon="-1.24293">
        <ele>62</ele>
        <time>2021-03-27T11:00:43.000Z</time>
      </trkpt>
      <trkpt lat="47.33803" lon="-1.2431">
        <ele>62</ele>
        <time>2021-03-27T11:00:45.000Z</time>
      </trkpt>
      <trkpt lat="47.33801" lon="-1.24328">
        <ele>62</ele>
        <time>2021-03-27T11:00:47.000Z</time>
      </trkpt>
      <trkpt lat="47.33797" lon="-1.24345">
        <ele>62</ele>
        <time>2021-03-27T11:00:49.000Z</time>
      </trkpt>
      <trkpt lat="47.33794" lon="-1.24363">
        <ele>62</ele>
        <time>2021-03-27T11:00:51.000Z</time>
      </trkpt>
      <trkpt lat="47.33791" lon="-1.2438">
        <ele>61</ele>
        <time>2021-03-27T11:00:53.000Z</time>
      </trkpt>
      <trkpt lat="47.33788" lon="-1.24398">
        <ele>61</ele>
        <time>2021-03-27T11:00:55.000Z</time>
      </trkpt>
      <trkpt lat="47.33785" lon="-1.24416">
        <ele>61</ele>
        <time>2021-03-27T11:00:57.000Z</time>
      </trkpt>
      <trkpt lat="47.33782" lon="-1.24432">
        <ele>61</ele>
        <time>2021-03-27T11:00:59.000Z</time>
      </trkpt>
      <trkpt lat="47.33779" lon="-1.2445">
        <ele>61</ele>
        <time>2021-03-27T11:01:01.000Z</time>
      </trkpt>
      <trkpt lat="47.33777" lon="-1.24467">
        <ele>61</ele>
        <time>2021-03-27T11:01:03.000Z</time>
      </trkpt>
      <trkpt lat="47.33774" lon="-1.24485">
        <ele>61</ele>
        <time>2021-03-27T11:01:05.000Z</time>
      </trkpt>
      <trkpt lat="47.33771" lon="-1.24503">
        <ele>61</ele>
        <time>2021-03-27T11:01:07.000Z</time>
      </trkpt>
      <trkpt lat="47.33769" lon="-1.24522">
        <ele>61</ele>
        <time>2021-03-27T11:01:09.000Z</time>
      </trkpt>
      <trkpt lat="47.33771" lon="-1.24541">
        <ele>62</ele>
        <time>2021-03-27T11:01:11.000Z</time>
      </trkpt>
      <trkpt lat="47.33774" lon="-1.24558">
        <ele>62</ele>
        <time>2021-03-27T11:01:13.000Z</time>
      </trkpt>
      <trkpt lat="47.33779" lon="-1.24575">
        <ele>62</ele>
        <time>2021-03-27T11:01:15.000Z</time>
      </trkpt>
      <trkpt lat="47.33786" lon="-1.2459">
        <ele>62</ele>
        <time>2021-03-27T11:01:17.000Z</time>
      </trkpt>
      <trkpt lat="47.33795" lon="-1.24604">
        <ele>62</ele>
        <time>2021-03-27T11:01:19.000Z</time>
      </trkpt>
      <trkpt lat="47.33803" lon="-1.24618">
        <ele>62</ele>
        <time>2021-03-27T11:01:21.000Z</time>
      </trkpt>
      <trkpt lat="47.3381" lon="-1.24633">
        <ele>62</ele>
        <time>2021-03-27T11:01:23.000Z</time>
      </trkpt>
      <trkpt lat="47.33818" lon="-1.24649">
        <ele>63</ele>
        <time>2021-03-27T11:01:25.000Z</time>
      </trkpt>
      <trkpt lat="47.33824" lon="-1.24665">
        <ele>62</ele>
        <time>2021-03-27T11:01:27.000Z</time>
      </trkpt>
      <trkpt lat="47.3383" lon="-1.24682">
        <ele>62</ele>
        <time>2021-03-27T11:01:29.000Z</time>
      </trkpt>
      <trkpt lat="47.33837" lon="-1.247">
        <ele>62</ele>
        <time>2021-03-27T11:01:31.000Z</time>
      </trkpt>
      <trkpt lat="47.33842" lon="-1.24717">
        <ele>62</ele>
        <time>2021-03-27T11:01:33.000Z</time>
      </trkpt>
      <trkpt lat="47.33848" lon="-1.24735">
        <ele>62</ele>
        <time>2021-03-27T11:01:35.000Z</time>
      </trkpt>
      <trkpt lat="47.33853" lon="-1.24751">
        <ele>62</ele>
        <time>2021-03-27T11:01:37.000Z</time>
      </trkpt>
      <trkpt lat="47.33859" lon="-1.24767">
        <ele>62</ele>
        <time>2021-03-27T11:01:39.000Z</time>
      </trkpt>
      <trkpt lat="47.33863" lon="-1.24783">
        <ele>62</ele>
        <time>2021-03-27T11:01:41.000Z</time>
      </trkpt>
      <trkpt lat="47.33866" lon="-1.24801">
        <ele>62</ele>
        <time>2021-03-27T11:01:43.000Z</time>
      </trkpt>
      <trkpt lat="47.33865" lon="-1.24819">
        <ele>62</ele>
        <time>2021-03-27T11:01:45.000Z</time>
      </trkpt>
      <trkpt lat="47.33858" lon="-1.24835">
        <ele>63</ele>
        <time>2021-03-27T11:01:47.000Z</time>
      </trkpt>
      <trkpt lat="47.33849" lon="-1.24847">
        <ele>64</ele>
        <time>2021-03-27T11:01:49.000Z</time>
      </trkpt>
      <trkpt lat="47.33839" lon="-1.24857">
        <ele>66</ele>
        <time>2021-03-27T11:01:51.000Z</time>
      </trkpt>
      <trkpt lat="47.3383" lon="-1.24867">
        <ele>67</ele>
        <time>2021-03-27T11:01:53.000Z</time>
      </trkpt>
      <trkpt lat="47.33822" lon="-1.24875">
        <ele>67</ele>
        <time>2021-03-27T11:01:55.000Z</time>
      </trkpt>
      <trkpt lat="47.33813" lon="-1.24883">
        <ele>67</ele>
        <time>2021-03-27T11:01:57.000Z</time>
      </trkpt>
      <trkpt lat="47.33805" lon="-1.24891">
        <ele>66</ele>
        <time>2021-03-27T11:01:59.000Z</time>
      </trkpt>
      <trkpt lat="47.33797" lon="-1.24902">
        <ele>66</ele>
        <time>2021-03-27T11:02:01.000Z</time>
      </trkpt>
      <trkpt lat="47.33793" lon="-1.24918">
        <ele>67</ele>
        <time>2021-03-27T11:02:03.000Z</time>
      </trkpt>
      <trkpt lat="47.33792" lon="-1.24933">
        <ele>67</ele>
        <time>2021-03-27T11:02:05.000Z</time>
      </trkpt>
      <trkpt lat="47.33798" lon="-1.24949">
        <ele>67</ele>
        <time>2021-03-27T11:02:08.000Z</time>
      </trkpt>
      <trkpt lat="47.33809" lon="-1.24956">
        <ele>69</ele>
        <time>2021-03-27T11:02:11.000Z</time>
      </trkpt>
      <trkpt lat="47.33821" lon="-1.24961">
        <ele>70</ele>
        <time>2021-03-27T11:02:14.000Z</time>
      </trkpt>
      <trkpt lat="47.33833" lon="-1.24967">
        <ele>71</ele>
        <time>2021-03-27T11:02:17.000Z</time>
      </trkpt>
      <trkpt lat="47.33846" lon="-1.24974">
        <ele>73</ele>
        <time>2021-03-27T11:02:20.000Z</time>
      </trkpt>
      <trkpt lat="47.33853" lon="-1.24982">
        <ele>74</ele>
        <time>2021-03-27T11:02:22.000Z</time>
      </trkpt>
      <trkpt lat="47.3386" lon="-1.24991">
        <ele>74</ele>
        <time>2021-03-27T11:02:24.000Z</time>
      </trkpt>
      <trkpt lat="47.33867" lon="-1.25001">
        <ele>74</ele>
        <time>2021-03-27T11:02:26.000Z</time>
      </trkpt>
      <trkpt lat="47.33872" lon="-1.25013">
        <ele>74</ele>
        <time>2021-03-27T11:02:28.000Z</time>
      </trkpt>
      <trkpt lat="47.33878" lon="-1.25024">
        <ele>74</ele>
        <time>2021-03-27T11:02:30.000Z</time>
      </trkpt>
      <trkpt lat="47.33886" lon="-1.25041">
        <ele>74</ele>
        <time>2021-03-27T11:02:33.000Z</time>
      </trkpt>
      <trkpt lat="47.33892" lon="-1.25053">
        <ele>74</ele>
        <time>2021-03-27T11:02:35.000Z</time>
      </trkpt>
      <trkpt lat="47.33899" lon="-1.2507">
        <ele>74</ele>
        <time>2021-03-27T11:02:38.000Z</time>
      </trkpt>
      <trkpt lat="47.33903" lon="-1.25081">
        <ele>75</ele>
        <time>2021-03-27T11:02:40.000Z</time>
      </trkpt>
      <trkpt lat="47.33908" lon="-1.25093">
        <ele>75</ele>
        <time>2021-03-27T11:02:42.000Z</time>
      </trkpt>
      <trkpt lat="47.33915" lon="-1.25109">
        <ele>75</ele>
        <time>2021-03-27T11:02:45.000Z</time>
      </trkpt>
      <trkpt lat="47.33921" lon="-1.25126">
        <ele>76</ele>
        <time>2021-03-27T11:02:48.000Z</time>
      </trkpt>
      <trkpt lat="47.33927" lon="-1.25144">
        <ele>77</ele>
        <time>2021-03-27T11:02:51.000Z</time>
      </trkpt>
      <trkpt lat="47.33931" lon="-1.25163">
        <ele>78</ele>
        <time>2021-03-27T11:02:54.000Z</time>
      </trkpt>
      <trkpt lat="47.33934" lon="-1.25176">
        <ele>78</ele>
        <time>2021-03-27T11:02:56.000Z</time>
      </trkpt>
      <trkpt lat="47.33935" lon="-1.2519">
        <ele>79</ele>
        <time>2021-03-27T11:02:58.000Z</time>
      </trkpt>
      <trkpt lat="47.33937" lon="-1.25204">
        <ele>79</ele>
        <time>2021-03-27T11:03:00.000Z</time>
      </trkpt>
      <trkpt lat="47.33937" lon="-1.25217">
        <ele>79</ele>
        <time>2021-03-27T11:03:02.000Z</time>
      </trkpt>
      <trkpt lat="47.33937" lon="-1.2523">
        <ele>80</ele>
        <time>2021-03-27T11:03:04.000Z</time>
      </trkpt>
      <trkpt lat="47.33934" lon="-1.25249">
        <ele>80</ele>
        <time>2021-03-27T11:03:07.000Z</time>
      </trkpt>
      <trkpt lat="47.33932" lon="-1.25269">
        <ele>80</ele>
        <time>2021-03-27T11:03:10.000Z</time>
      </trkpt>
      <trkpt lat="47.33931" lon="-1.25282">
        <ele>79</ele>
        <time>2021-03-27T11:03:12.000Z</time>
      </trkpt>
      <trkpt lat="47.33928" lon="-1.25301">
        <ele>79</ele>
        <time>2021-03-27T11:03:15.000Z</time>
      </trkpt>
      <trkpt lat="47.33926" lon="-1.2532">
        <ele>79</ele>
        <time>2021-03-27T11:03:18.000Z</time>
      </trkpt>
      <trkpt lat="47.33923" lon="-1.25339">
        <ele>78</ele>
        <time>2021-03-27T11:03:21.000Z</time>
      </trkpt>
      <trkpt lat="47.33921" lon="-1.25353">
        <ele>79</ele>
        <time>2021-03-27T11:03:23.000Z</time>
      </trkpt>
      <trkpt lat="47.33918" lon="-1.25371">
        <ele>79</ele>
        <time>2021-03-27T11:03:26.000Z</time>
      </trkpt>
      <trkpt lat="47.33916" lon="-1.25385">
        <ele>79</ele>
        <time>2021-03-27T11:03:28.000Z</time>
      </trkpt>
      <trkpt lat="47.33914" lon="-1.25399">
        <ele>79</ele>
        <time>2021-03-27T11:03:30.000Z</time>
      </trkpt>
      <trkpt lat="47.33912" lon="-1.25413">
        <ele>78</ele>
        <time>2021-03-27T11:03:32.000Z</time>
      </trkpt>
      <trkpt lat="47.33909" lon="-1.25427">
        <ele>79</ele>
        <time>2021-03-27T11:03:34.000Z</time>
      </trkpt>
      <trkpt lat="47.33906" lon="-1.25441">
        <ele>80</ele>
        <time>2021-03-27T11:03:36.000Z</time>
      </trkpt>
      <trkpt lat="47.33904" lon="-1.25454">
        <ele>80</ele>
        <time>2021-03-27T11:03:38.000Z</time>
      </trkpt>
      <trkpt lat="47.339" lon="-1.25472">
        <ele>80</ele>
        <time>2021-03-27T11:03:41.000Z</time>
      </trkpt>
      <trkpt lat="47.33898" lon="-1.25491">
        <ele>81</ele>
        <time>2021-03-27T11:03:44.000Z</time>
      </trkpt>
      <trkpt lat="47.33896" lon="-1.25504">
        <ele>81</ele>
        <time>2021-03-27T11:03:46.000Z</time>
      </trkpt>
      <trkpt lat="47.33895" lon="-1.25517">
        <ele>81</ele>
        <time>2021-03-27T11:03:48.000Z</time>
      </trkpt>
      <trkpt lat="47.33892" lon="-1.25531">
        <ele>82</ele>
        <time>2021-03-27T11:03:50.000Z</time>
      </trkpt>
      <trkpt lat="47.33888" lon="-1.2555">
        <ele>83</ele>
        <time>2021-03-27T11:03:53.000Z</time>
      </trkpt>
      <trkpt lat="47.33884" lon="-1.25568">
        <ele>83</ele>
        <time>2021-03-27T11:03:56.000Z</time>
      </trkpt>
      <trkpt lat="47.3388" lon="-1.2558">
        <ele>83</ele>
        <time>2021-03-27T11:03:58.000Z</time>
      </trkpt>
      <trkpt lat="47.33875" lon="-1.25591">
        <ele>84</ele>
        <time>2021-03-27T11:04:00.000Z</time>
      </trkpt>
      <trkpt lat="47.33868" lon="-1.256">
        <ele>84</ele>
        <time>2021-03-27T11:04:02.000Z</time>
      </trkpt>
      <trkpt lat="47.33861" lon="-1.25609">
        <ele>85</ele>
        <time>2021-03-27T11:04:04.000Z</time>
      </trkpt>
      <trkpt lat="47.33853" lon="-1.25616">
        <ele>86</ele>
        <time>2021-03-27T11:04:06.000Z</time>
      </trkpt>
      <trkpt lat="47.33842" lon="-1.25624">
        <ele>87</ele>
        <time>2021-03-27T11:04:09.000Z</time>
      </trkpt>
      <trkpt lat="47.33831" lon="-1.25629">
        <ele>88</ele>
        <time>2021-03-27T11:04:12.000Z</time>
      </trkpt>
      <trkpt lat="47.3382" lon="-1.25629">
        <ele>90</ele>
        <time>2021-03-27T11:04:15.000Z</time>
      </trkpt>
      <trkpt lat="47.33811" lon="-1.25624">
        <ele>91</ele>
        <time>2021-03-27T11:04:17.000Z</time>
      </trkpt>
      <trkpt lat="47.33801" lon="-1.25613">
        <ele>92</ele>
        <time>2021-03-27T11:04:20.000Z</time>
      </trkpt>
      <trkpt lat="47.3379" lon="-1.25602">
        <ele>91</ele>
        <time>2021-03-27T11:04:23.000Z</time>
      </trkpt>
      <trkpt lat="47.33777" lon="-1.256">
        <ele>90</ele>
        <time>2021-03-27T11:04:26.000Z</time>
      </trkpt>
      <trkpt lat="47.33768" lon="-1.25609">
        <ele>90</ele>
        <time>2021-03-27T11:04:29.000Z</time>
      </trkpt>
      <trkpt lat="47.33764" lon="-1.25624">
        <ele>91</ele>
        <time>2021-03-27T11:04:32.000Z</time>
      </trkpt>
      <trkpt lat="47.33763" lon="-1.25641">
        <ele>93</ele>
        <time>2021-03-27T11:04:35.000Z</time>
      </trkpt>
      <trkpt lat="47.33763" lon="-1.25659">
        <ele>94</ele>
        <time>2021-03-27T11:04:38.000Z</time>
      </trkpt>
      <trkpt lat="47.33762" lon="-1.25677">
        <ele>95</ele>
        <time>2021-03-27T11:04:41.000Z</time>
      </trkpt>
      <trkpt lat="47.33758" lon="-1.25694">
        <ele>95</ele>
        <time>2021-03-27T11:04:44.000Z</time>
      </trkpt>
      <trkpt lat="47.33751" lon="-1.25708">
        <ele>97</ele>
        <time>2021-03-27T11:04:47.000Z</time>
      </trkpt>
      <trkpt lat="47.33744" lon="-1.25721">
        <ele>98</ele>
        <time>2021-03-27T11:04:50.000Z</time>
      </trkpt>
      <trkpt lat="47.33739" lon="-1.25735">
        <ele>99</ele>
        <time>2021-03-27T11:04:53.000Z</time>
      </trkpt>
      <trkpt lat="47.33738" lon="-1.25753">
        <ele>100</ele>
        <time>2021-03-27T11:04:56.000Z</time>
      </trkpt>
      <trkpt lat="47.33741" lon="-1.2577">
        <ele>102</ele>
        <time>2021-03-27T11:04:59.000Z</time>
      </trkpt>
      <trkpt lat="47.33749" lon="-1.25785">
        <ele>102</ele>
        <time>2021-03-27T11:05:02.000Z</time>
      </trkpt>
      <trkpt lat="47.33758" lon="-1.25792">
        <ele>102</ele>
        <time>2021-03-27T11:05:05.000Z</time>
      </trkpt>
      <trkpt lat="47.3377" lon="-1.25798">
        <ele>102</ele>
        <time>2021-03-27T11:05:08.000Z</time>
      </trkpt>
      <trkpt lat="47.3378" lon="-1.25806">
        <ele>102</ele>
        <time>2021-03-27T11:05:11.000Z</time>
      </trkpt>
      <trkpt lat="47.33788" lon="-1.25818">
        <ele>102</ele>
        <time>2021-03-27T11:05:14.000Z</time>
      </trkpt>
      <trkpt lat="47.33791" lon="-1.25835">
        <ele>103</ele>
        <time>2021-03-27T11:05:17.000Z</time>
      </trkpt>
      <trkpt lat="47.33791" lon="-1.25853">
        <ele>104</ele>
        <time>2021-03-27T11:05:20.000Z</time>
      </trkpt>
      <trkpt lat="47.3379" lon="-1.2587">
        <ele>104</ele>
        <time>2021-03-27T11:05:23.000Z</time>
      </trkpt>
      <trkpt lat="47.3379" lon="-1.25886">
        <ele>104</ele>
        <time>2021-03-27T11:05:26.000Z</time>
      </trkpt>
      <trkpt lat="47.33788" lon="-1.25903">
        <ele>105</ele>
        <time>2021-03-27T11:05:29.000Z</time>
      </trkpt>
      <trkpt lat="47.33787" lon="-1.25918">
        <ele>105</ele>
        <time>2021-03-27T11:05:32.000Z</time>
      </trkpt>
      <trkpt lat="47.33786" lon="-1.25934">
        <ele>105</ele>
        <time>2021-03-27T11:05:35.000Z</time>
      </trkpt>
      <trkpt lat="47.33785" lon="-1.2595">
        <ele>106</ele>
        <time>2021-03-27T11:05:38.000Z</time>
      </trkpt>
      <trkpt lat="47.33785" lon="-1.25966">
        <ele>107</ele>
        <time>2021-03-27T11:05:41.000Z</time>
      </trkpt>
      <trkpt lat="47.33784" lon="-1.25983">
        <ele>108</ele>
        <time>2021-03-27T11:05:44.000Z</time>
      </trkpt>
      <trkpt lat="47.33783" lon="-1.25998">
        <ele>109</ele>
        <time>2021-03-27T11:05:47.000Z</time>
      </trkpt>
      <trkpt lat="47.33781" lon="-1.26014">
        <ele>110</ele>
        <time>2021-03-27T11:05:50.000Z</time>
      </trkpt>
      <trkpt lat="47.33781" lon="-1.26031">
        <ele>110</ele>
        <time>2021-03-27T11:05:53.000Z</time>
      </trkpt>
      <trkpt lat="47.33781" lon="-1.26048">
        <ele>111</ele>
        <time>2021-03-27T11:05:56.000Z</time>
      </trkpt>
      <trkpt lat="47.33779" lon="-1.26065">
        <ele>111</ele>
        <time>2021-03-27T11:05:59.000Z</time>
      </trkpt>
      <trkpt lat="47.33779" lon="-1.26082">
        <ele>112</ele>
        <time>2021-03-27T11:06:02.000Z</time>
      </trkpt>
      <trkpt lat="47.33778" lon="-1.26098">
        <ele>112</ele>
        <time>2021-03-27T11:06:05.000Z</time>
      </trkpt>
      <trkpt lat="47.33777" lon="-1.26113">
        <ele>112</ele>
        <time>2021-03-27T11:06:08.000Z</time>
      </trkpt>
      <trkpt lat="47.33775" lon="-1.26128">
        <ele>113</ele>
        <time>2021-03-27T11:06:11.000Z</time>
      </trkpt>
      <trkpt lat="47.33773" lon="-1.26146">
        <ele>115</ele>
        <time>2021-03-27T11:06:14.000Z</time>
      </trkpt>
      <trkpt lat="47.3377" lon="-1.26163">
        <ele>116</ele>
        <time>2021-03-27T11:06:17.000Z</time>
      </trkpt>
      <trkpt lat="47.33766" lon="-1.26178">
        <ele>117</ele>
        <time>2021-03-27T11:06:20.000Z</time>
      </trkpt>
      <trkpt lat="47.3376" lon="-1.26192">
        <ele>117</ele>
        <time>2021-03-27T11:06:23.000Z</time>
      </trkpt>
      <trkpt lat="47.33754" lon="-1.26205">
        <ele>117</ele>
        <time>2021-03-27T11:06:26.000Z</time>
      </trkpt>
      <trkpt lat="47.33747" lon="-1.26217">
        <ele>117</ele>
        <time>2021-03-27T11:06:29.000Z</time>
      </trkpt>
      <trkpt lat="47.33741" lon="-1.26231">
        <ele>117</ele>
        <time>2021-03-27T11:06:32.000Z</time>
      </trkpt>
      <trkpt lat="47.33736" lon="-1.26245">
        <ele>117</ele>
        <time>2021-03-27T11:06:35.000Z</time>
      </trkpt>
      <trkpt lat="47.33738" lon="-1.26262">
        <ele>117</ele>
        <time>2021-03-27T11:06:38.000Z</time>
      </trkpt>
      <trkpt lat="47.3374" lon="-1.26279">
        <ele>117</ele>
        <time>2021-03-27T11:06:41.000Z</time>
      </trkpt>
      <trkpt lat="47.33741" lon="-1.26296">
        <ele>116</ele>
        <time>2021-03-27T11:06:44.000Z</time>
      </trkpt>
      <trkpt lat="47.33743" lon="-1.26312">
        <ele>116</ele>
        <time>2021-03-27T11:06:47.000Z</time>
      </trkpt>
      <trkpt lat="47.33744" lon="-1.26329">
        <ele>116</ele>
        <time>2021-03-27T11:06:50.000Z</time>
      </trkpt>
      <trkpt lat="47.33746" lon="-1.26345">
        <ele>116</ele>
        <time>2021-03-27T11:06:53.000Z</time>
      </trkpt>
      <trkpt lat="47.33755" lon="-1.2635">
        <ele>116</ele>
        <time>2021-03-27T11:06:56.000Z</time>
      </trkpt>
      <trkpt lat="47.33767" lon="-1.26347">
        <ele>116</ele>
        <time>2021-03-27T11:06:58.000Z</time>
      </trkpt>
      <trkpt lat="47.33782" lon="-1.26346">
        <ele>114</ele>
        <time>2021-03-27T11:07:00.000Z</time>
      </trkpt>
      <trkpt lat="47.33797" lon="-1.26346">
        <ele>114</ele>
        <time>2021-03-27T11:07:02.000Z</time>
      </trkpt>
      <trkpt lat="47.33812" lon="-1.26345">
        <ele>114</ele>
        <time>2021-03-27T11:07:04.000Z</time>
      </trkpt>
      <trkpt lat="47.33827" lon="-1.26346">
        <ele>113</ele>
        <time>2021-03-27T11:07:06.000Z</time>
      </trkpt>
      <trkpt lat="47.33843" lon="-1.26347">
        <ele>113</ele>
        <time>2021-03-27T11:07:08.000Z</time>
      </trkpt>
      <trkpt lat="47.33858" lon="-1.26348">
        <ele>113</ele>
        <time>2021-03-27T11:07:10.000Z</time>
      </trkpt>
      <trkpt lat="47.33871" lon="-1.26358">
        <ele>114</ele>
        <time>2021-03-27T11:07:12.000Z</time>
      </trkpt>
      <trkpt lat="47.33882" lon="-1.26372">
        <ele>116</ele>
        <time>2021-03-27T11:07:14.000Z</time>
      </trkpt>
      <trkpt lat="47.33887" lon="-1.26393">
        <ele>118</ele>
        <time>2021-03-27T11:07:16.000Z</time>
      </trkpt>
      <trkpt lat="47.33894" lon="-1.26413">
        <ele>117</ele>
        <time>2021-03-27T11:07:18.000Z</time>
      </trkpt>
      <trkpt lat="47.33901" lon="-1.26436">
        <ele>117</ele>
        <time>2021-03-27T11:07:20.000Z</time>
      </trkpt>
      <trkpt lat="47.33905" lon="-1.26448">
        <ele>116</ele>
        <time>2021-03-27T11:07:21.000Z</time>
      </trkpt>
      <trkpt lat="47.33909" lon="-1.26461">
        <ele>115</ele>
        <time>2021-03-27T11:07:22.000Z</time>
      </trkpt>
      <trkpt lat="47.33913" lon="-1.26473">
        <ele>114</ele>
        <time>2021-03-27T11:07:23.000Z</time>
      </trkpt>
      <trkpt lat="47.33918" lon="-1.26486">
        <ele>113</ele>
        <time>2021-03-27T11:07:24.000Z</time>
      </trkpt>
      <trkpt lat="47.33922" lon="-1.26499">
        <ele>112</ele>
        <time>2021-03-27T11:07:25.000Z</time>
      </trkpt>
      <trkpt lat="47.33927" lon="-1.26513">
        <ele>111</ele>
        <time>2021-03-27T11:07:26.000Z</time>
      </trkpt>
      <trkpt lat="47.33932" lon="-1.26526">
        <ele>110</ele>
        <time>2021-03-27T11:07:27.000Z</time>
      </trkpt>
      <trkpt lat="47.33936" lon="-1.26541">
        <ele>110</ele>
        <time>2021-03-27T11:07:28.000Z</time>
      </trkpt>
      <trkpt lat="47.33939" lon="-1.26555">
        <ele>108</ele>
        <time>2021-03-27T11:07:29.000Z</time>
      </trkpt>
      <trkpt lat="47.33941" lon="-1.26569">
        <ele>108</ele>
        <time>2021-03-27T11:07:30.000Z</time>
      </trkpt>
      <trkpt lat="47.33942" lon="-1.26584">
        <ele>107</ele>
        <time>2021-03-27T11:07:31.000Z</time>
      </trkpt>
      <trkpt lat="47.33942" lon="-1.26599">
        <ele>106</ele>
        <time>2021-03-27T11:07:32.000Z</time>
      </trkpt>
      <trkpt lat="47.3394" lon="-1.26614">
        <ele>105</ele>
        <time>2021-03-27T11:07:33.000Z</time>
      </trkpt>
      <trkpt lat="47.33938" lon="-1.26629">
        <ele>105</ele>
        <time>2021-03-27T11:07:34.000Z</time>
      </trkpt>
      <trkpt lat="47.33936" lon="-1.26642">
        <ele>104</ele>
        <time>2021-03-27T11:07:35.000Z</time>
      </trkpt>
      <trkpt lat="47.33934" lon="-1.26656">
        <ele>103</ele>
        <time>2021-03-27T11:07:36.000Z</time>
      </trkpt>
      <trkpt lat="47.33931" lon="-1.26669">
        <ele>102</ele>
        <time>2021-03-27T11:07:37.000Z</time>
      </trkpt>
      <trkpt lat="47.33927" lon="-1.26683">
        <ele>101</ele>
        <time>2021-03-27T11:07:38.000Z</time>
      </trkpt>
      <trkpt lat="47.33923" lon="-1.26696">
        <ele>100</ele>
        <time>2021-03-27T11:07:39.000Z</time>
      </trkpt>
      <trkpt lat="47.33917" lon="-1.26708">
        <ele>99</ele>
        <time>2021-03-27T11:07:40.000Z</time>
      </trkpt>
      <trkpt lat="47.33909" lon="-1.26717">
        <ele>99</ele>
        <time>2021-03-27T11:07:41.000Z</time>
      </trkpt>
      <trkpt lat="47.33901" lon="-1.26723">
        <ele>98</ele>
        <time>2021-03-27T11:07:42.000Z</time>
      </trkpt>
      <trkpt lat="47.3389" lon="-1.26731">
        <ele>98</ele>
        <time>2021-03-27T11:07:43.000Z</time>
      </trkpt>
      <trkpt lat="47.3388" lon="-1.26739">
        <ele>97</ele>
        <time>2021-03-27T11:07:44.000Z</time>
      </trkpt>
      <trkpt lat="47.33886" lon="-1.26767">
        <ele>96</ele>
        <time>2021-03-27T11:07:46.000Z</time>
      </trkpt>
      <trkpt lat="47.33894" lon="-1.26781">
        <ele>95</ele>
        <time>2021-03-27T11:07:47.000Z</time>
      </trkpt>
      <trkpt lat="47.33901" lon="-1.26794">
        <ele>94</ele>
        <time>2021-03-27T11:07:48.000Z</time>
      </trkpt>
      <trkpt lat="47.33907" lon="-1.26808">
        <ele>93</ele>
        <time>2021-03-27T11:07:49.000Z</time>
      </trkpt>
      <trkpt lat="47.3391" lon="-1.26822">
        <ele>92</ele>
        <time>2021-03-27T11:07:50.000Z</time>
      </trkpt>
      <trkpt lat="47.33911" lon="-1.26836">
        <ele>92</ele>
        <time>2021-03-27T11:07:51.000Z</time>
      </trkpt>
      <trkpt lat="47.33908" lon="-1.26851">
        <ele>91</ele>
        <time>2021-03-27T11:07:52.000Z</time>
      </trkpt>
      <trkpt lat="47.33904" lon="-1.26865">
        <ele>90</ele>
        <time>2021-03-27T11:07:53.000Z</time>
      </trkpt>
      <trkpt lat="47.33898" lon="-1.26877">
        <ele>89</ele>
        <time>2021-03-27T11:07:54.000Z</time>
      </trkpt>
      <trkpt lat="47.33891" lon="-1.2689">
        <ele>88</ele>
        <time>2021-03-27T11:07:55.000Z</time>
      </trkpt>
      <trkpt lat="47.33887" lon="-1.26903">
        <ele>87</ele>
        <time>2021-03-27T11:07:56.000Z</time>
      </trkpt>
      <trkpt lat="47.33893" lon="-1.26928">
        <ele>86</ele>
        <time>2021-03-27T11:07:58.000Z</time>
      </trkpt>
      <trkpt lat="47.33901" lon="-1.26938">
        <ele>86</ele>
        <time>2021-03-27T11:07:59.000Z</time>
      </trkpt>
      <trkpt lat="47.33907" lon="-1.26951">
        <ele>85</ele>
        <time>2021-03-27T11:08:00.000Z</time>
      </trkpt>
      <trkpt lat="47.3391" lon="-1.26966">
        <ele>85</ele>
        <time>2021-03-27T11:08:01.000Z</time>
      </trkpt>
      <trkpt lat="47.33911" lon="-1.26981">
        <ele>84</ele>
        <time>2021-03-27T11:08:02.000Z</time>
      </trkpt>
      <trkpt lat="47.33911" lon="-1.26996">
        <ele>83</ele>
        <time>2021-03-27T11:08:03.000Z</time>
      </trkpt>
      <trkpt lat="47.33913" lon="-1.27011">
        <ele>83</ele>
        <time>2021-03-27T11:08:04.000Z</time>
      </trkpt>
      <trkpt lat="47.33914" lon="-1.27027">
        <ele>82</ele>
        <time>2021-03-27T11:08:05.000Z</time>
      </trkpt>
      <trkpt lat="47.33914" lon="-1.27043">
        <ele>81</ele>
        <time>2021-03-27T11:08:06.000Z</time>
      </trkpt>
      <trkpt lat="47.33915" lon="-1.27058">
        <ele>80</ele>
        <time>2021-03-27T11:08:07.000Z</time>
      </trkpt>
      <trkpt lat="47.33915" lon="-1.27073">
        <ele>80</ele>
        <time>2021-03-27T11:08:08.000Z</time>
      </trkpt>
      <trkpt lat="47.33916" lon="-1.27089">
        <ele>79</ele>
        <time>2021-03-27T11:08:09.000Z</time>
      </trkpt>
      <trkpt lat="47.33916" lon="-1.27105">
        <ele>78</ele>
        <time>2021-03-27T11:08:10.000Z</time>
      </trkpt>
      <trkpt lat="47.33916" lon="-1.27121">
        <ele>77</ele>
        <time>2021-03-27T11:08:11.000Z</time>
      </trkpt>
      <trkpt lat="47.33917" lon="-1.27137">
        <ele>77</ele>
        <time>2021-03-27T11:08:12.000Z</time>
      </trkpt>
      <trkpt lat="47.33919" lon="-1.27152">
        <ele>76</ele>
        <time>2021-03-27T11:08:13.000Z</time>
      </trkpt>
      <trkpt lat="47.33921" lon="-1.27168">
        <ele>75</ele>
        <time>2021-03-27T11:08:14.000Z</time>
      </trkpt>
      <trkpt lat="47.33923" lon="-1.27183">
        <ele>74</ele>
        <time>2021-03-27T11:08:15.000Z</time>
      </trkpt>
      <trkpt lat="47.33926" lon="-1.27198">
        <ele>73</ele>
        <time>2021-03-27T11:08:16.000Z</time>
      </trkpt>
      <trkpt lat="47.33929" lon="-1.27214">
        <ele>73</ele>
        <time>2021-03-27T11:08:17.000Z</time>
      </trkpt>
      <trkpt lat="47.33931" lon="-1.27229">
        <ele>72</ele>
        <time>2021-03-27T11:08:18.000Z</time>
      </trkpt>
      <trkpt lat="47.33932" lon="-1.27245">
        <ele>71</ele>
        <time>2021-03-27T11:08:19.000Z</time>
      </trkpt>
      <trkpt lat="47.33932" lon="-1.27261">
        <ele>71</ele>
        <time>2021-03-27T11:08:20.000Z</time>
      </trkpt>
      <trkpt lat="47.33931" lon="-1.27276">
        <ele>70</ele>
        <time>2021-03-27T11:08:21.000Z</time>
      </trkpt>
      <trkpt lat="47.33929" lon="-1.27292">
        <ele>70</ele>
        <time>2021-03-27T11:08:22.000Z</time>
      </trkpt>
      <trkpt lat="47.33928" lon="-1.27307">
        <ele>69</ele>
        <time>2021-03-27T11:08:23.000Z</time>
      </trkpt>
      <trkpt lat="47.33926" lon="-1.27322">
        <ele>69</ele>
        <time>2021-03-27T11:08:24.000Z</time>
      </trkpt>
      <trkpt lat="47.33924" lon="-1.27337">
        <ele>68</ele>
        <time>2021-03-27T11:08:25.000Z</time>
      </trkpt>
      <trkpt lat="47.33923" lon="-1.27352">
        <ele>67</ele>
        <time>2021-03-27T11:08:26.000Z</time>
      </trkpt>
      <trkpt lat="47.33921" lon="-1.27366">
        <ele>67</ele>
        <time>2021-03-27T11:08:27.000Z</time>
      </trkpt>
      <trkpt lat="47.33918" lon="-1.2738">
        <ele>66</ele>
        <time>2021-03-27T11:08:28.000Z</time>
      </trkpt>
      <trkpt lat="47.33914" lon="-1.27394">
        <ele>66</ele>
        <time>2021-03-27T11:08:29.000Z</time>
      </trkpt>
      <trkpt lat="47.3391" lon="-1.27408">
        <ele>65</ele>
        <time>2021-03-27T11:08:30.000Z</time>
      </trkpt>
      <trkpt lat="47.33906" lon="-1.27421">
        <ele>65</ele>
        <time>2021-03-27T11:08:31.000Z</time>
      </trkpt>
      <trkpt lat="47.33902" lon="-1.27433">
        <ele>64</ele>
        <time>2021-03-27T11:08:32.000Z</time>
      </trkpt>
      <trkpt lat="47.33897" lon="-1.27445">
        <ele>64</ele>
        <time>2021-03-27T11:08:33.000Z</time>
      </trkpt>
      <trkpt lat="47.33892" lon="-1.27457">
        <ele>63</ele>
        <time>2021-03-27T11:08:34.000Z</time>
      </trkpt>
      <trkpt lat="47.33887" lon="-1.27469">
        <ele>63</ele>
        <time>2021-03-27T11:08:35.000Z</time>
      </trkpt>
      <trkpt lat="47.33882" lon="-1.27481">
        <ele>62</ele>
        <time>2021-03-27T11:08:36.000Z</time>
      </trkpt>
      <trkpt lat="47.33873" lon="-1.27501">
        <ele>63</ele>
        <time>2021-03-27T11:08:38.000Z</time>
      </trkpt>
      <trkpt lat="47.33865" lon="-1.27521">
        <ele>62</ele>
        <time>2021-03-27T11:08:40.000Z</time>
      </trkpt>
      <trkpt lat="47.33858" lon="-1.2754">
        <ele>62</ele>
        <time>2021-03-27T11:08:42.000Z</time>
      </trkpt>
      <trkpt lat="47.3385" lon="-1.27558">
        <ele>62</ele>
        <time>2021-03-27T11:08:44.000Z</time>
      </trkpt>
      <trkpt lat="47.33843" lon="-1.27576">
        <ele>61</ele>
        <time>2021-03-27T11:08:46.000Z</time>
      </trkpt>
      <trkpt lat="47.33836" lon="-1.27594">
        <ele>62</ele>
        <time>2021-03-27T11:08:48.000Z</time>
      </trkpt>
      <trkpt lat="47.33829" lon="-1.27611">
        <ele>62</ele>
        <time>2021-03-27T11:08:50.000Z</time>
      </trkpt>
      <trkpt lat="47.33821" lon="-1.27628">
        <ele>62</ele>
        <time>2021-03-27T11:08:52.000Z</time>
      </trkpt>
      <trkpt lat="47.33814" lon="-1.27644">
        <ele>62</ele>
        <time>2021-03-27T11:08:54.000Z</time>
      </trkpt>
      <trkpt lat="47.33807" lon="-1.27659">
        <ele>62</ele>
        <time>2021-03-27T11:08:56.000Z</time>
      </trkpt>
      <trkpt lat="47.33798" lon="-1.27673">
        <ele>62</ele>
        <time>2021-03-27T11:08:58.000Z</time>
      </trkpt>
      <trkpt lat="47.33789" lon="-1.27687">
        <ele>62</ele>
        <time>2021-03-27T11:09:00.000Z</time>
      </trkpt>
      <trkpt lat="47.33779" lon="-1.27699">
        <ele>62</ele>
        <time>2021-03-27T11:09:02.000Z</time>
      </trkpt>
      <trkpt lat="47.33769" lon="-1.27711">
        <ele>63</ele>
        <time>2021-03-27T11:09:04.000Z</time>
      </trkpt>
      <trkpt lat="47.33758" lon="-1.27722">
        <ele>63</ele>
        <time>2021-03-27T11:09:06.000Z</time>
      </trkpt>
      <trkpt lat="47.33746" lon="-1.2773">
        <ele>63</ele>
        <time>2021-03-27T11:09:08.000Z</time>
      </trkpt>
      <trkpt lat="47.33735" lon="-1.27739">
        <ele>62</ele>
        <time>2021-03-27T11:09:10.000Z</time>
      </trkpt>
      <trkpt lat="47.33724" lon="-1.27748">
        <ele>62</ele>
        <time>2021-03-27T11:09:12.000Z</time>
      </trkpt>
      <trkpt lat="47.33713" lon="-1.27756">
        <ele>62</ele>
        <time>2021-03-27T11:09:14.000Z</time>
      </trkpt>
      <trkpt lat="47.33701" lon="-1.27763">
        <ele>62</ele>
        <time>2021-03-27T11:09:16.000Z</time>
      </trkpt>
      <trkpt lat="47.33688" lon="-1.27767">
        <ele>62</ele>
        <time>2021-03-27T11:09:18.000Z</time>
      </trkpt>
      <trkpt lat="47.33676" lon="-1.27768">
        <ele>62</ele>
        <time>2021-03-27T11:09:20.000Z</time>
      </trkpt>
      <trkpt lat="47.33663" lon="-1.27764">
        <ele>62</ele>
        <time>2021-03-27T11:09:22.000Z</time>
      </trkpt>
      <trkpt lat="47.33649" lon="-1.27752">
        <ele>62</ele>
        <time>2021-03-27T11:09:25.000Z</time>
      </trkpt>
      <trkpt lat="47.33636" lon="-1.27738">
        <ele>62</ele>
        <time>2021-03-27T11:09:28.000Z</time>
      </trkpt>
      <trkpt lat="47.33628" lon="-1.27729">
        <ele>62</ele>
        <time>2021-03-27T11:09:30.000Z</time>
      </trkpt>
      <trkpt lat="47.33615" lon="-1.27716">
        <ele>62</ele>
        <time>2021-03-27T11:09:33.000Z</time>
      </trkpt>
      <trkpt lat="47.33606" lon="-1.27709">
        <ele>63</ele>
        <time>2021-03-27T11:09:35.000Z</time>
      </trkpt>
      <trkpt lat="47.33596" lon="-1.27705">
        <ele>63</ele>
        <time>2021-03-27T11:09:37.000Z</time>
      </trkpt>
      <trkpt lat="47.33586" lon="-1.27707">
        <ele>63</ele>
        <time>2021-03-27T11:09:39.000Z</time>
      </trkpt>
      <trkpt lat="47.33577" lon="-1.27714">
        <ele>63</ele>
        <time>2021-03-27T11:09:41.000Z</time>
      </trkpt>
      <trkpt lat="47.3357" lon="-1.27724">
        <ele>64</ele>
        <time>2021-03-27T11:09:43.000Z</time>
      </trkpt>
      <trkpt lat="47.33566" lon="-1.27738">
        <ele>64</ele>
        <time>2021-03-27T11:09:45.000Z</time>
      </trkpt>
      <trkpt lat="47.33564" lon="-1.27752">
        <ele>65</ele>
        <time>2021-03-27T11:09:47.000Z</time>
      </trkpt>
      <trkpt lat="47.33564" lon="-1.27767">
        <ele>65</ele>
        <time>2021-03-27T11:09:49.000Z</time>
      </trkpt>
      <trkpt lat="47.33563" lon="-1.27789">
        <ele>66</ele>
        <time>2021-03-27T11:09:52.000Z</time>
      </trkpt>
      <trkpt lat="47.33562" lon="-1.27812">
        <ele>68</ele>
        <time>2021-03-27T11:09:55.000Z</time>
      </trkpt>
      <trkpt lat="47.33561" lon="-1.27827">
        <ele>69</ele>
        <time>2021-03-27T11:09:57.000Z</time>
      </trkpt>
      <trkpt lat="47.33561" lon="-1.27841">
        <ele>70</ele>
        <time>2021-03-27T11:09:59.000Z</time>
      </trkpt>
      <trkpt lat="47.33561" lon="-1.27856">
        <ele>71</ele>
        <time>2021-03-27T11:10:01.000Z</time>
      </trkpt>
      <trkpt lat="47.33561" lon="-1.2787">
        <ele>72</ele>
        <time>2021-03-27T11:10:03.000Z</time>
      </trkpt>
      <trkpt lat="47.3356" lon="-1.27891">
        <ele>73</ele>
        <time>2021-03-27T11:10:06.000Z</time>
      </trkpt>
      <trkpt lat="47.33559" lon="-1.27905">
        <ele>74</ele>
        <time>2021-03-27T11:10:08.000Z</time>
      </trkpt>
      <trkpt lat="47.33557" lon="-1.27919">
        <ele>74</ele>
        <time>2021-03-27T11:10:10.000Z</time>
      </trkpt>
      <trkpt lat="47.33552" lon="-1.27932">
        <ele>75</ele>
        <time>2021-03-27T11:10:12.000Z</time>
      </trkpt>
      <trkpt lat="47.33546" lon="-1.27944">
        <ele>75</ele>
        <time>2021-03-27T11:10:14.000Z</time>
      </trkpt>
      <trkpt lat="47.33538" lon="-1.27953">
        <ele>76</ele>
        <time>2021-03-27T11:10:16.000Z</time>
      </trkpt>
      <trkpt lat="47.33528" lon="-1.2796">
        <ele>77</ele>
        <time>2021-03-27T11:10:18.000Z</time>
      </trkpt>
      <trkpt lat="47.33515" lon="-1.27967">
        <ele>78</ele>
        <time>2021-03-27T11:10:21.000Z</time>
      </trkpt>
      <trkpt lat="47.33506" lon="-1.2798">
        <ele>80</ele>
        <time>2021-03-27T11:10:24.000Z</time>
      </trkpt>
      <trkpt lat="47.33502" lon="-1.27997">
        <ele>82</ele>
        <time>2021-03-27T11:10:27.000Z</time>
      </trkpt>
      <trkpt lat="47.33502" lon="-1.28015">
        <ele>84</ele>
        <time>2021-03-27T11:10:30.000Z</time>
      </trkpt>
      <trkpt lat="47.33503" lon="-1.28029">
        <ele>84</ele>
        <time>2021-03-27T11:10:32.000Z</time>
      </trkpt>
      <trkpt lat="47.33502" lon="-1.28049">
        <ele>86</ele>
        <time>2021-03-27T11:10:35.000Z</time>
      </trkpt>
      <trkpt lat="47.33499" lon="-1.28062">
        <ele>86</ele>
        <time>2021-03-27T11:10:37.000Z</time>
      </trkpt>
      <trkpt lat="47.33494" lon="-1.28073">
        <ele>88</ele>
        <time>2021-03-27T11:10:39.000Z</time>
      </trkpt>
      <trkpt lat="47.33482" lon="-1.2808">
        <ele>88</ele>
        <time>2021-03-27T11:10:42.000Z</time>
      </trkpt>
      <trkpt lat="47.3347" lon="-1.28083">
        <ele>89</ele>
        <time>2021-03-27T11:10:45.000Z</time>
      </trkpt>
      <trkpt lat="47.33459" lon="-1.28086">
        <ele>89</ele>
        <time>2021-03-27T11:10:48.000Z</time>
      </trkpt>
      <trkpt lat="47.33448" lon="-1.2809">
        <ele>90</ele>
        <time>2021-03-27T11:10:51.000Z</time>
      </trkpt>
      <trkpt lat="47.33436" lon="-1.28095">
        <ele>90</ele>
        <time>2021-03-27T11:10:54.000Z</time>
      </trkpt>
      <trkpt lat="47.33426" lon="-1.28106">
        <ele>89</ele>
        <time>2021-03-27T11:10:58.000Z</time>
      </trkpt>
      <trkpt lat="47.33418" lon="-1.28119">
        <ele>90</ele>
        <time>2021-03-27T11:11:01.000Z</time>
      </trkpt>
      <trkpt lat="47.33413" lon="-1.28131">
        <ele>90</ele>
        <time>2021-03-27T11:11:03.000Z</time>
      </trkpt>
      <trkpt lat="47.33408" lon="-1.28143">
        <ele>90</ele>
        <time>2021-03-27T11:11:05.000Z</time>
      </trkpt>
      <trkpt lat="47.33409" lon="-1.28161">
        <ele>91</ele>
        <time>2021-03-27T11:11:08.000Z</time>
      </trkpt>
      <trkpt lat="47.33414" lon="-1.28175">
        <ele>92</ele>
        <time>2021-03-27T11:11:11.000Z</time>
      </trkpt>
      <trkpt lat="47.3342" lon="-1.28192">
        <ele>94</ele>
        <time>2021-03-27T11:11:14.000Z</time>
      </trkpt>
      <trkpt lat="47.33423" lon="-1.28209">
        <ele>95</ele>
        <time>2021-03-27T11:11:17.000Z</time>
      </trkpt>
      <trkpt lat="47.33425" lon="-1.28234">
        <ele>97</ele>
        <time>2021-03-27T11:11:21.000Z</time>
      </trkpt>
      <trkpt lat="47.33423" lon="-1.28248">
        <ele>98</ele>
        <time>2021-03-27T11:11:23.000Z</time>
      </trkpt>
      <trkpt lat="47.33419" lon="-1.28265">
        <ele>98</ele>
        <time>2021-03-27T11:11:26.000Z</time>
      </trkpt>
      <trkpt lat="47.33411" lon="-1.28278">
        <ele>98</ele>
        <time>2021-03-27T11:11:29.000Z</time>
      </trkpt>
      <trkpt lat="47.33399" lon="-1.28286">
        <ele>97</ele>
        <time>2021-03-27T11:11:32.000Z</time>
      </trkpt>
      <trkpt lat="47.33387" lon="-1.28291">
        <ele>96</ele>
        <time>2021-03-27T11:11:35.000Z</time>
      </trkpt>
      <trkpt lat="47.33375" lon="-1.28295">
        <ele>96</ele>
        <time>2021-03-27T11:11:38.000Z</time>
      </trkpt>
      <trkpt lat="47.33362" lon="-1.28299">
        <ele>97</ele>
        <time>2021-03-27T11:11:41.000Z</time>
      </trkpt>
      <trkpt lat="47.33351" lon="-1.28304">
        <ele>97</ele>
        <time>2021-03-27T11:11:44.000Z</time>
      </trkpt>
      <trkpt lat="47.33339" lon="-1.28311">
        <ele>97</ele>
        <time>2021-03-27T11:11:47.000Z</time>
      </trkpt>
      <trkpt lat="47.33327" lon="-1.2832">
        <ele>98</ele>
        <time>2021-03-27T11:11:50.000Z</time>
      </trkpt>
      <trkpt lat="47.33319" lon="-1.28327">
        <ele>98</ele>
        <time>2021-03-27T11:11:52.000Z</time>
      </trkpt>
      <trkpt lat="47.33311" lon="-1.28335">
        <ele>99</ele>
        <time>2021-03-27T11:11:54.000Z</time>
      </trkpt>
      <trkpt lat="47.33304" lon="-1.28342">
        <ele>99</ele>
        <time>2021-03-27T11:11:56.000Z</time>
      </trkpt>
      <trkpt lat="47.33296" lon="-1.2835">
        <ele>100</ele>
        <time>2021-03-27T11:11:58.000Z</time>
      </trkpt>
      <trkpt lat="47.33289" lon="-1.28358">
        <ele>101</ele>
        <time>2021-03-27T11:12:00.000Z</time>
      </trkpt>
      <trkpt lat="47.33281" lon="-1.28366">
        <ele>102</ele>
        <time>2021-03-27T11:12:02.000Z</time>
      </trkpt>
      <trkpt lat="47.33271" lon="-1.28377">
        <ele>103</ele>
        <time>2021-03-27T11:12:05.000Z</time>
      </trkpt>
      <trkpt lat="47.3326" lon="-1.28389">
        <ele>104</ele>
        <time>2021-03-27T11:12:08.000Z</time>
      </trkpt>
      <trkpt lat="47.33249" lon="-1.284">
        <ele>104</ele>
        <time>2021-03-27T11:12:11.000Z</time>
      </trkpt>
      <trkpt lat="47.33242" lon="-1.28408">
        <ele>105</ele>
        <time>2021-03-27T11:12:13.000Z</time>
      </trkpt>
      <trkpt lat="47.33232" lon="-1.28419">
        <ele>105</ele>
        <time>2021-03-27T11:12:16.000Z</time>
      </trkpt>
      <trkpt lat="47.33222" lon="-1.2843">
        <ele>107</ele>
        <time>2021-03-27T11:12:19.000Z</time>
      </trkpt>
      <trkpt lat="47.33212" lon="-1.28442">
        <ele>107</ele>
        <time>2021-03-27T11:12:22.000Z</time>
      </trkpt>
      <trkpt lat="47.33201" lon="-1.28454">
        <ele>108</ele>
        <time>2021-03-27T11:12:25.000Z</time>
      </trkpt>
      <trkpt lat="47.33191" lon="-1.28464">
        <ele>108</ele>
        <time>2021-03-27T11:12:28.000Z</time>
      </trkpt>
      <trkpt lat="47.33182" lon="-1.28475">
        <ele>108</ele>
        <time>2021-03-27T11:12:31.000Z</time>
      </trkpt>
      <trkpt lat="47.33172" lon="-1.28487">
        <ele>108</ele>
        <time>2021-03-27T11:12:34.000Z</time>
      </trkpt>
      <trkpt lat="47.33164" lon="-1.28495">
        <ele>109</ele>
        <time>2021-03-27T11:12:36.000Z</time>
      </trkpt>
      <trkpt lat="47.33153" lon="-1.28507">
        <ele>110</ele>
        <time>2021-03-27T11:12:39.000Z</time>
      </trkpt>
      <trkpt lat="47.33146" lon="-1.28516">
        <ele>110</ele>
        <time>2021-03-27T11:12:41.000Z</time>
      </trkpt>
      <trkpt lat="47.33139" lon="-1.28524">
        <ele>111</ele>
        <time>2021-03-27T11:12:43.000Z</time>
      </trkpt>
      <trkpt lat="47.33131" lon="-1.28531">
        <ele>111</ele>
        <time>2021-03-27T11:12:45.000Z</time>
      </trkpt>
      <trkpt lat="47.33124" lon="-1.28539">
        <ele>111</ele>
        <time>2021-03-27T11:12:47.000Z</time>
      </trkpt>
      <trkpt lat="47.33116" lon="-1.28547">
        <ele>111</ele>
        <time>2021-03-27T11:12:49.000Z</time>
      </trkpt>
      <trkpt lat="47.33109" lon="-1.28555">
        <ele>111</ele>
        <time>2021-03-27T11:12:51.000Z</time>
      </trkpt>
      <trkpt lat="47.33101" lon="-1.28564">
        <ele>111</ele>
        <time>2021-03-27T11:12:53.000Z</time>
      </trkpt>
      <trkpt lat="47.33093" lon="-1.28573">
        <ele>111</ele>
        <time>2021-03-27T11:12:55.000Z</time>
      </trkpt>
      <trkpt lat="47.33085" lon="-1.28582">
        <ele>111</ele>
        <time>2021-03-27T11:12:57.000Z</time>
      </trkpt>
      <trkpt lat="47.33077" lon="-1.28592">
        <ele>111</ele>
        <time>2021-03-27T11:12:59.000Z</time>
      </trkpt>
      <trkpt lat="47.33068" lon="-1.28601">
        <ele>111</ele>
        <time>2021-03-27T11:13:01.000Z</time>
      </trkpt>
      <trkpt lat="47.33059" lon="-1.28611">
        <ele>111</ele>
        <time>2021-03-27T11:13:03.000Z</time>
      </trkpt>
      <trkpt lat="47.33049" lon="-1.28621">
        <ele>112</ele>
        <time>2021-03-27T11:13:05.000Z</time>
      </trkpt>
      <trkpt lat="47.33039" lon="-1.28631">
        <ele>112</ele>
        <time>2021-03-27T11:13:07.000Z</time>
      </trkpt>
      <trkpt lat="47.33024" lon="-1.28648">
        <ele>112</ele>
        <time>2021-03-27T11:13:10.000Z</time>
      </trkpt>
      <trkpt lat="47.33014" lon="-1.28658">
        <ele>112</ele>
        <time>2021-03-27T11:13:12.000Z</time>
      </trkpt>
      <trkpt lat="47.33003" lon="-1.28669">
        <ele>112</ele>
        <time>2021-03-27T11:13:14.000Z</time>
      </trkpt>
      <trkpt lat="47.32992" lon="-1.28681">
        <ele>113</ele>
        <time>2021-03-27T11:13:16.000Z</time>
      </trkpt>
      <trkpt lat="47.32981" lon="-1.28692">
        <ele>113</ele>
        <time>2021-03-27T11:13:18.000Z</time>
      </trkpt>
      <trkpt lat="47.32971" lon="-1.28704">
        <ele>114</ele>
        <time>2021-03-27T11:13:20.000Z</time>
      </trkpt>
      <trkpt lat="47.32961" lon="-1.28717">
        <ele>114</ele>
        <time>2021-03-27T11:13:22.000Z</time>
      </trkpt>
      <trkpt lat="47.32952" lon="-1.28731">
        <ele>114</ele>
        <time>2021-03-27T11:13:24.000Z</time>
      </trkpt>
      <trkpt lat="47.32944" lon="-1.28745">
        <ele>113</ele>
        <time>2021-03-27T11:13:26.000Z</time>
      </trkpt>
      <trkpt lat="47.32937" lon="-1.28759">
        <ele>112</ele>
        <time>2021-03-27T11:13:28.000Z</time>
      </trkpt>
      <trkpt lat="47.32929" lon="-1.28774">
        <ele>112</ele>
        <time>2021-03-27T11:13:30.000Z</time>
      </trkpt>
      <trkpt lat="47.32922" lon="-1.28789">
        <ele>112</ele>
        <time>2021-03-27T11:13:32.000Z</time>
      </trkpt>
      <trkpt lat="47.32914" lon="-1.28803">
        <ele>112</ele>
        <time>2021-03-27T11:13:34.000Z</time>
      </trkpt>
      <trkpt lat="47.32906" lon="-1.28817">
        <ele>112</ele>
        <time>2021-03-27T11:13:36.000Z</time>
      </trkpt>
      <trkpt lat="47.32899" lon="-1.2883">
        <ele>112</ele>
        <time>2021-03-27T11:13:38.000Z</time>
      </trkpt>
      <trkpt lat="47.32892" lon="-1.28844">
        <ele>113</ele>
        <time>2021-03-27T11:13:40.000Z</time>
      </trkpt>
      <trkpt lat="47.32885" lon="-1.28857">
        <ele>113</ele>
        <time>2021-03-27T11:13:42.000Z</time>
      </trkpt>
      <trkpt lat="47.32878" lon="-1.28871">
        <ele>114</ele>
        <time>2021-03-27T11:13:44.000Z</time>
      </trkpt>
      <trkpt lat="47.32871" lon="-1.28884">
        <ele>113</ele>
        <time>2021-03-27T11:13:46.000Z</time>
      </trkpt>
      <trkpt lat="47.32864" lon="-1.28897">
        <ele>113</ele>
        <time>2021-03-27T11:13:48.000Z</time>
      </trkpt>
      <trkpt lat="47.32857" lon="-1.28911">
        <ele>114</ele>
        <time>2021-03-27T11:13:50.000Z</time>
      </trkpt>
      <trkpt lat="47.32849" lon="-1.28925">
        <ele>114</ele>
        <time>2021-03-27T11:13:52.000Z</time>
      </trkpt>
      <trkpt lat="47.32842" lon="-1.28938">
        <ele>114</ele>
        <time>2021-03-27T11:13:54.000Z</time>
      </trkpt>
      <trkpt lat="47.32834" lon="-1.28949">
        <ele>114</ele>
        <time>2021-03-27T11:13:56.000Z</time>
      </trkpt>
      <trkpt lat="47.32826" lon="-1.28962">
        <ele>115</ele>
        <time>2021-03-27T11:13:58.000Z</time>
      </trkpt>
      <trkpt lat="47.32817" lon="-1.28974">
        <ele>115</ele>
        <time>2021-03-27T11:14:00.000Z</time>
      </trkpt>
      <trkpt lat="47.32806" lon="-1.28984">
        <ele>116</ele>
        <time>2021-03-27T11:14:02.000Z</time>
      </trkpt>
      <trkpt lat="47.32796" lon="-1.28995">
        <ele>115</ele>
        <time>2021-03-27T11:14:04.000Z</time>
      </trkpt>
      <trkpt lat="47.32786" lon="-1.29006">
        <ele>115</ele>
        <time>2021-03-27T11:14:06.000Z</time>
      </trkpt>
      <trkpt lat="47.32775" lon="-1.29016">
        <ele>114</ele>
        <time>2021-03-27T11:14:08.000Z</time>
      </trkpt>
      <trkpt lat="47.32764" lon="-1.29027">
        <ele>113</ele>
        <time>2021-03-27T11:14:10.000Z</time>
      </trkpt>
      <trkpt lat="47.32753" lon="-1.29039">
        <ele>112</ele>
        <time>2021-03-27T11:14:12.000Z</time>
      </trkpt>
      <trkpt lat="47.32742" lon="-1.29049">
        <ele>112</ele>
        <time>2021-03-27T11:14:14.000Z</time>
      </trkpt>
      <trkpt lat="47.3273" lon="-1.29061">
        <ele>111</ele>
        <time>2021-03-27T11:14:16.000Z</time>
      </trkpt>
      <trkpt lat="47.32717" lon="-1.29072">
        <ele>111</ele>
        <time>2021-03-27T11:14:18.000Z</time>
      </trkpt>
      <trkpt lat="47.32705" lon="-1.29084">
        <ele>111</ele>
        <time>2021-03-27T11:14:20.000Z</time>
      </trkpt>
      <trkpt lat="47.32692" lon="-1.29094">
        <ele>111</ele>
        <time>2021-03-27T11:14:22.000Z</time>
      </trkpt>
      <trkpt lat="47.32679" lon="-1.29104">
        <ele>111</ele>
        <time>2021-03-27T11:14:24.000Z</time>
      </trkpt>
      <trkpt lat="47.32666" lon="-1.29113">
        <ele>111</ele>
        <time>2021-03-27T11:14:26.000Z</time>
      </trkpt>
      <trkpt lat="47.32653" lon="-1.29121">
        <ele>111</ele>
        <time>2021-03-27T11:14:28.000Z</time>
      </trkpt>
      <trkpt lat="47.32641" lon="-1.29129">
        <ele>110</ele>
        <time>2021-03-27T11:14:30.000Z</time>
      </trkpt>
      <trkpt lat="47.32628" lon="-1.29137">
        <ele>110</ele>
        <time>2021-03-27T11:14:32.000Z</time>
      </trkpt>
      <trkpt lat="47.32615" lon="-1.29146">
        <ele>109</ele>
        <time>2021-03-27T11:14:34.000Z</time>
      </trkpt>
      <trkpt lat="47.32602" lon="-1.29154">
        <ele>107</ele>
        <time>2021-03-27T11:14:36.000Z</time>
      </trkpt>
      <trkpt lat="47.32588" lon="-1.29162">
        <ele>106</ele>
        <time>2021-03-27T11:14:38.000Z</time>
      </trkpt>
      <trkpt lat="47.32576" lon="-1.29171">
        <ele>105</ele>
        <time>2021-03-27T11:14:40.000Z</time>
      </trkpt>
      <trkpt lat="47.32563" lon="-1.29179">
        <ele>104</ele>
        <time>2021-03-27T11:14:42.000Z</time>
      </trkpt>
      <trkpt lat="47.32549" lon="-1.29187">
        <ele>103</ele>
        <time>2021-03-27T11:14:44.000Z</time>
      </trkpt>
      <trkpt lat="47.32535" lon="-1.29196">
        <ele>103</ele>
        <time>2021-03-27T11:14:46.000Z</time>
      </trkpt>
      <trkpt lat="47.32522" lon="-1.29205">
        <ele>102</ele>
        <time>2021-03-27T11:14:48.000Z</time>
      </trkpt>
      <trkpt lat="47.32508" lon="-1.29215">
        <ele>101</ele>
        <time>2021-03-27T11:14:50.000Z</time>
      </trkpt>
      <trkpt lat="47.32494" lon="-1.29224">
        <ele>101</ele>
        <time>2021-03-27T11:14:52.000Z</time>
      </trkpt>
      <trkpt lat="47.32479" lon="-1.29233">
        <ele>100</ele>
        <time>2021-03-27T11:14:54.000Z</time>
      </trkpt>
      <trkpt lat="47.32464" lon="-1.29242">
        <ele>99</ele>
        <time>2021-03-27T11:14:56.000Z</time>
      </trkpt>
      <trkpt lat="47.32449" lon="-1.29252">
        <ele>99</ele>
        <time>2021-03-27T11:14:58.000Z</time>
      </trkpt>
      <trkpt lat="47.32435" lon="-1.29261">
        <ele>98</ele>
        <time>2021-03-27T11:15:00.000Z</time>
      </trkpt>
      <trkpt lat="47.32421" lon="-1.2927">
        <ele>98</ele>
        <time>2021-03-27T11:15:02.000Z</time>
      </trkpt>
      <trkpt lat="47.32407" lon="-1.2928">
        <ele>98</ele>
        <time>2021-03-27T11:15:04.000Z</time>
      </trkpt>
      <trkpt lat="47.32393" lon="-1.29291">
        <ele>97</ele>
        <time>2021-03-27T11:15:06.000Z</time>
      </trkpt>
      <trkpt lat="47.32379" lon="-1.29303">
        <ele>96</ele>
        <time>2021-03-27T11:15:08.000Z</time>
      </trkpt>
      <trkpt lat="47.32366" lon="-1.29317">
        <ele>96</ele>
        <time>2021-03-27T11:15:10.000Z</time>
      </trkpt>
      <trkpt lat="47.32353" lon="-1.29331">
        <ele>96</ele>
        <time>2021-03-27T11:15:12.000Z</time>
      </trkpt>
      <trkpt lat="47.32341" lon="-1.29345">
        <ele>96</ele>
        <time>2021-03-27T11:15:14.000Z</time>
      </trkpt>
      <trkpt lat="47.32328" lon="-1.29359">
        <ele>96</ele>
        <time>2021-03-27T11:15:16.000Z</time>
      </trkpt>
      <trkpt lat="47.32315" lon="-1.29374">
        <ele>96</ele>
        <time>2021-03-27T11:15:18.000Z</time>
      </trkpt>
      <trkpt lat="47.32302" lon="-1.29388">
        <ele>96</ele>
        <time>2021-03-27T11:15:20.000Z</time>
      </trkpt>
      <trkpt lat="47.32289" lon="-1.29403">
        <ele>96</ele>
        <time>2021-03-27T11:15:22.000Z</time>
      </trkpt>
      <trkpt lat="47.32277" lon="-1.29416">
        <ele>95</ele>
        <time>2021-03-27T11:15:24.000Z</time>
      </trkpt>
      <trkpt lat="47.32265" lon="-1.2943">
        <ele>95</ele>
        <time>2021-03-27T11:15:26.000Z</time>
      </trkpt>
      <trkpt lat="47.32253" lon="-1.29443">
        <ele>94</ele>
        <time>2021-03-27T11:15:28.000Z</time>
      </trkpt>
      <trkpt lat="47.3224" lon="-1.29458">
        <ele>94</ele>
        <time>2021-03-27T11:15:30.000Z</time>
      </trkpt>
      <trkpt lat="47.32227" lon="-1.29471">
        <ele>93</ele>
        <time>2021-03-27T11:15:32.000Z</time>
      </trkpt>
      <trkpt lat="47.32215" lon="-1.29486">
        <ele>93</ele>
        <time>2021-03-27T11:15:34.000Z</time>
      </trkpt>
      <trkpt lat="47.32202" lon="-1.29501">
        <ele>92</ele>
        <time>2021-03-27T11:15:36.000Z</time>
      </trkpt>
      <trkpt lat="47.32189" lon="-1.29516">
        <ele>92</ele>
        <time>2021-03-27T11:15:38.000Z</time>
      </trkpt>
      <trkpt lat="47.32175" lon="-1.29531">
        <ele>93</ele>
        <time>2021-03-27T11:15:40.000Z</time>
      </trkpt>
      <trkpt lat="47.32163" lon="-1.29544">
        <ele>94</ele>
        <time>2021-03-27T11:15:42.000Z</time>
      </trkpt>
      <trkpt lat="47.32153" lon="-1.29556">
        <ele>94</ele>
        <time>2021-03-27T11:15:44.000Z</time>
      </trkpt>
      <trkpt lat="47.32143" lon="-1.29567">
        <ele>95</ele>
        <time>2021-03-27T11:15:46.000Z</time>
      </trkpt>
      <trkpt lat="47.32133" lon="-1.29578">
        <ele>96</ele>
        <time>2021-03-27T11:15:48.000Z</time>
      </trkpt>
      <trkpt lat="47.32124" lon="-1.29588">
        <ele>96</ele>
        <time>2021-03-27T11:15:50.000Z</time>
      </trkpt>
      <trkpt lat="47.32115" lon="-1.29598">
        <ele>97</ele>
        <time>2021-03-27T11:15:52.000Z</time>
      </trkpt>
      <trkpt lat="47.32105" lon="-1.29609">
        <ele>97</ele>
        <time>2021-03-27T11:15:54.000Z</time>
      </trkpt>
      <trkpt lat="47.32096" lon="-1.29619">
        <ele>98</ele>
        <time>2021-03-27T11:15:56.000Z</time>
      </trkpt>
      <trkpt lat="47.32086" lon="-1.2963">
        <ele>98</ele>
        <time>2021-03-27T11:15:58.000Z</time>
      </trkpt>
      <trkpt lat="47.32077" lon="-1.2964">
        <ele>98</ele>
        <time>2021-03-27T11:16:00.000Z</time>
      </trkpt>
      <trkpt lat="47.32068" lon="-1.2965">
        <ele>99</ele>
        <time>2021-03-27T11:16:02.000Z</time>
      </trkpt>
      <trkpt lat="47.32059" lon="-1.29661">
        <ele>99</ele>
        <time>2021-03-27T11:16:04.000Z</time>
      </trkpt>
      <trkpt lat="47.3205" lon="-1.29671">
        <ele>99</ele>
        <time>2021-03-27T11:16:06.000Z</time>
      </trkpt>
      <trkpt lat="47.32041" lon="-1.29681">
        <ele>99</ele>
        <time>2021-03-27T11:16:08.000Z</time>
      </trkpt>
      <trkpt lat="47.32032" lon="-1.29692">
        <ele>99</ele>
        <time>2021-03-27T11:16:10.000Z</time>
      </trkpt>
      <trkpt lat="47.32023" lon="-1.29702">
        <ele>99</ele>
        <time>2021-03-27T11:16:12.000Z</time>
      </trkpt>
      <trkpt lat="47.32013" lon="-1.29712">
        <ele>100</ele>
        <time>2021-03-27T11:16:14.000Z</time>
      </trkpt>
      <trkpt lat="47.32003" lon="-1.29724">
        <ele>100</ele>
        <time>2021-03-27T11:16:16.000Z</time>
      </trkpt>
      <trkpt lat="47.31994" lon="-1.29734">
        <ele>100</ele>
        <time>2021-03-27T11:16:18.000Z</time>
      </trkpt>
      <trkpt lat="47.31985" lon="-1.29745">
        <ele>100</ele>
        <time>2021-03-27T11:16:20.000Z</time>
      </trkpt>
      <trkpt lat="47.31975" lon="-1.29756">
        <ele>100</ele>
        <time>2021-03-27T11:16:22.000Z</time>
      </trkpt>
      <trkpt lat="47.31966" lon="-1.29766">
        <ele>100</ele>
        <time>2021-03-27T11:16:24.000Z</time>
      </trkpt>
      <trkpt lat="47.31957" lon="-1.29776">
        <ele>100</ele>
        <time>2021-03-27T11:16:26.000Z</time>
      </trkpt>
      <trkpt lat="47.31948" lon="-1.29786">
        <ele>100</ele>
        <time>2021-03-27T11:16:28.000Z</time>
      </trkpt>
      <trkpt lat="47.31939" lon="-1.29796">
        <ele>100</ele>
        <time>2021-03-27T11:16:30.000Z</time>
      </trkpt>
      <trkpt lat="47.3193" lon="-1.29806">
        <ele>100</ele>
        <time>2021-03-27T11:16:32.000Z</time>
      </trkpt>
      <trkpt lat="47.3192" lon="-1.29817">
        <ele>100</ele>
        <time>2021-03-27T11:16:34.000Z</time>
      </trkpt>
      <trkpt lat="47.31911" lon="-1.29827">
        <ele>100</ele>
        <time>2021-03-27T11:16:36.000Z</time>
      </trkpt>
      <trkpt lat="47.31902" lon="-1.29838">
        <ele>100</ele>
        <time>2021-03-27T11:16:38.000Z</time>
      </trkpt>
      <trkpt lat="47.31893" lon="-1.29848">
        <ele>100</ele>
        <time>2021-03-27T11:16:40.000Z</time>
      </trkpt>
      <trkpt lat="47.31883" lon="-1.29858">
        <ele>100</ele>
        <time>2021-03-27T11:16:42.000Z</time>
      </trkpt>
      <trkpt lat="47.31874" lon="-1.2987">
        <ele>100</ele>
        <time>2021-03-27T11:16:44.000Z</time>
      </trkpt>
      <trkpt lat="47.31864" lon="-1.2988">
        <ele>100</ele>
        <time>2021-03-27T11:16:46.000Z</time>
      </trkpt>
      <trkpt lat="47.31855" lon="-1.29891">
        <ele>100</ele>
        <time>2021-03-27T11:16:48.000Z</time>
      </trkpt>
      <trkpt lat="47.31846" lon="-1.29902">
        <ele>101</ele>
        <time>2021-03-27T11:16:50.000Z</time>
      </trkpt>
      <trkpt lat="47.31836" lon="-1.29913">
        <ele>101</ele>
        <time>2021-03-27T11:16:52.000Z</time>
      </trkpt>
      <trkpt lat="47.31826" lon="-1.29923">
        <ele>101</ele>
        <time>2021-03-27T11:16:54.000Z</time>
      </trkpt>
      <trkpt lat="47.31817" lon="-1.29934">
        <ele>100</ele>
        <time>2021-03-27T11:16:56.000Z</time>
      </trkpt>
      <trkpt lat="47.31807" lon="-1.29944">
        <ele>100</ele>
        <time>2021-03-27T11:16:58.000Z</time>
      </trkpt>
      <trkpt lat="47.31798" lon="-1.29955">
        <ele>100</ele>
        <time>2021-03-27T11:17:00.000Z</time>
      </trkpt>
      <trkpt lat="47.31788" lon="-1.29966">
        <ele>100</ele>
        <time>2021-03-27T11:17:02.000Z</time>
      </trkpt>
      <trkpt lat="47.31779" lon="-1.29976">
        <ele>101</ele>
        <time>2021-03-27T11:17:04.000Z</time>
      </trkpt>
      <trkpt lat="47.3177" lon="-1.29986">
        <ele>101</ele>
        <time>2021-03-27T11:17:06.000Z</time>
      </trkpt>
      <trkpt lat="47.31761" lon="-1.29997">
        <ele>101</ele>
        <time>2021-03-27T11:17:08.000Z</time>
      </trkpt>
      <trkpt lat="47.31752" lon="-1.30006">
        <ele>101</ele>
        <time>2021-03-27T11:17:10.000Z</time>
      </trkpt>
      <trkpt lat="47.31744" lon="-1.30016">
        <ele>102</ele>
        <time>2021-03-27T11:17:12.000Z</time>
      </trkpt>
      <trkpt lat="47.31735" lon="-1.30024">
        <ele>102</ele>
        <time>2021-03-27T11:17:14.000Z</time>
      </trkpt>
      <trkpt lat="47.31728" lon="-1.30033">
        <ele>103</ele>
        <time>2021-03-27T11:17:16.000Z</time>
      </trkpt>
      <trkpt lat="47.31721" lon="-1.30042">
        <ele>104</ele>
        <time>2021-03-27T11:17:18.000Z</time>
      </trkpt>
      <trkpt lat="47.31713" lon="-1.30051">
        <ele>105</ele>
        <time>2021-03-27T11:17:20.000Z</time>
      </trkpt>
      <trkpt lat="47.31704" lon="-1.30061">
        <ele>105</ele>
        <time>2021-03-27T11:17:22.000Z</time>
      </trkpt>
      <trkpt lat="47.31696" lon="-1.3007">
        <ele>105</ele>
        <time>2021-03-27T11:17:24.000Z</time>
      </trkpt>
      <trkpt lat="47.31688" lon="-1.3008">
        <ele>105</ele>
        <time>2021-03-27T11:17:26.000Z</time>
      </trkpt>
      <trkpt lat="47.31681" lon="-1.3009">
        <ele>105</ele>
        <time>2021-03-27T11:17:28.000Z</time>
      </trkpt>
      <trkpt lat="47.31673" lon="-1.301">
        <ele>106</ele>
        <time>2021-03-27T11:17:30.000Z</time>
      </trkpt>
      <trkpt lat="47.31667" lon="-1.30111">
        <ele>106</ele>
        <time>2021-03-27T11:17:32.000Z</time>
      </trkpt>
      <trkpt lat="47.3166" lon="-1.30123">
        <ele>106</ele>
        <time>2021-03-27T11:17:34.000Z</time>
      </trkpt>
      <trkpt lat="47.31654" lon="-1.30135">
        <ele>106</ele>
        <time>2021-03-27T11:17:36.000Z</time>
      </trkpt>
      <trkpt lat="47.31648" lon="-1.30147">
        <ele>107</ele>
        <time>2021-03-27T11:17:38.000Z</time>
      </trkpt>
      <trkpt lat="47.31643" lon="-1.30159">
        <ele>107</ele>
        <time>2021-03-27T11:17:40.000Z</time>
      </trkpt>
      <trkpt lat="47.31637" lon="-1.30172">
        <ele>108</ele>
        <time>2021-03-27T11:17:42.000Z</time>
      </trkpt>
      <trkpt lat="47.31632" lon="-1.30184">
        <ele>108</ele>
        <time>2021-03-27T11:17:44.000Z</time>
      </trkpt>
      <trkpt lat="47.31629" lon="-1.30196">
        <ele>109</ele>
        <time>2021-03-27T11:17:46.000Z</time>
      </trkpt>
      <trkpt lat="47.31625" lon="-1.30209">
        <ele>109</ele>
        <time>2021-03-27T11:17:48.000Z</time>
      </trkpt>
      <trkpt lat="47.3162" lon="-1.30222">
        <ele>108</ele>
        <time>2021-03-27T11:17:50.000Z</time>
      </trkpt>
      <trkpt lat="47.31616" lon="-1.30235">
        <ele>109</ele>
        <time>2021-03-27T11:17:52.000Z</time>
      </trkpt>
      <trkpt lat="47.31611" lon="-1.30248">
        <ele>110</ele>
        <time>2021-03-27T11:17:54.000Z</time>
      </trkpt>
      <trkpt lat="47.31606" lon="-1.30262">
        <ele>110</ele>
        <time>2021-03-27T11:17:56.000Z</time>
      </trkpt>
      <trkpt lat="47.31602" lon="-1.30274">
        <ele>110</ele>
        <time>2021-03-27T11:17:58.000Z</time>
      </trkpt>
      <trkpt lat="47.31598" lon="-1.30287">
        <ele>110</ele>
        <time>2021-03-27T11:18:00.000Z</time>
      </trkpt>
      <trkpt lat="47.31593" lon="-1.30301">
        <ele>109</ele>
        <time>2021-03-27T11:18:02.000Z</time>
      </trkpt>
      <trkpt lat="47.31587" lon="-1.30315">
        <ele>109</ele>
        <time>2021-03-27T11:18:04.000Z</time>
      </trkpt>
      <trkpt lat="47.31583" lon="-1.30328">
        <ele>109</ele>
        <time>2021-03-27T11:18:06.000Z</time>
      </trkpt>
      <trkpt lat="47.31578" lon="-1.30342">
        <ele>109</ele>
        <time>2021-03-27T11:18:08.000Z</time>
      </trkpt>
      <trkpt lat="47.31573" lon="-1.30357">
        <ele>109</ele>
        <time>2021-03-27T11:18:10.000Z</time>
      </trkpt>
      <trkpt lat="47.31568" lon="-1.3037">
        <ele>108</ele>
        <time>2021-03-27T11:18:12.000Z</time>
      </trkpt>
      <trkpt lat="47.31563" lon="-1.30385">
        <ele>108</ele>
        <time>2021-03-27T11:18:14.000Z</time>
      </trkpt>
      <trkpt lat="47.31557" lon="-1.304">
        <ele>108</ele>
        <time>2021-03-27T11:18:16.000Z</time>
      </trkpt>
      <trkpt lat="47.31551" lon="-1.30415">
        <ele>108</ele>
        <time>2021-03-27T11:18:18.000Z</time>
      </trkpt>
      <trkpt lat="47.31546" lon="-1.30431">
        <ele>108</ele>
        <time>2021-03-27T11:18:20.000Z</time>
      </trkpt>
      <trkpt lat="47.31539" lon="-1.30447">
        <ele>109</ele>
        <time>2021-03-27T11:18:22.000Z</time>
      </trkpt>
      <trkpt lat="47.31533" lon="-1.30462">
        <ele>109</ele>
        <time>2021-03-27T11:18:24.000Z</time>
      </trkpt>
      <trkpt lat="47.31528" lon="-1.30478">
        <ele>108</ele>
        <time>2021-03-27T11:18:26.000Z</time>
      </trkpt>
      <trkpt lat="47.31522" lon="-1.30495">
        <ele>108</ele>
        <time>2021-03-27T11:18:28.000Z</time>
      </trkpt>
      <trkpt lat="47.31516" lon="-1.30511">
        <ele>107</ele>
        <time>2021-03-27T11:18:30.000Z</time>
      </trkpt>
      <trkpt lat="47.31509" lon="-1.30528">
        <ele>107</ele>
        <time>2021-03-27T11:18:32.000Z</time>
      </trkpt>
      <trkpt lat="47.31503" lon="-1.30545">
        <ele>107</ele>
        <time>2021-03-27T11:18:34.000Z</time>
      </trkpt>
      <trkpt lat="47.31498" lon="-1.30562">
        <ele>106</ele>
        <time>2021-03-27T11:18:36.000Z</time>
      </trkpt>
      <trkpt lat="47.31491" lon="-1.3058">
        <ele>105</ele>
        <time>2021-03-27T11:18:38.000Z</time>
      </trkpt>
      <trkpt lat="47.31485" lon="-1.30598">
        <ele>105</ele>
        <time>2021-03-27T11:18:40.000Z</time>
      </trkpt>
      <trkpt lat="47.31478" lon="-1.30616">
        <ele>104</ele>
        <time>2021-03-27T11:18:42.000Z</time>
      </trkpt>
      <trkpt lat="47.31471" lon="-1.30635">
        <ele>104</ele>
        <time>2021-03-27T11:18:44.000Z</time>
      </trkpt>
      <trkpt lat="47.31465" lon="-1.30653">
        <ele>103</ele>
        <time>2021-03-27T11:18:46.000Z</time>
      </trkpt>
      <trkpt lat="47.31458" lon="-1.30672">
        <ele>102</ele>
        <time>2021-03-27T11:18:48.000Z</time>
      </trkpt>
      <trkpt lat="47.31451" lon="-1.3069">
        <ele>102</ele>
        <time>2021-03-27T11:18:50.000Z</time>
      </trkpt>
      <trkpt lat="47.31441" lon="-1.30719">
        <ele>101</ele>
        <time>2021-03-27T11:18:53.000Z</time>
      </trkpt>
      <trkpt lat="47.31433" lon="-1.30738">
        <ele>101</ele>
        <time>2021-03-27T11:18:55.000Z</time>
      </trkpt>
      <trkpt lat="47.31426" lon="-1.30756">
        <ele>101</ele>
        <time>2021-03-27T11:18:57.000Z</time>
      </trkpt>
      <trkpt lat="47.31419" lon="-1.30775">
        <ele>100</ele>
        <time>2021-03-27T11:18:59.000Z</time>
      </trkpt>
      <trkpt lat="47.31412" lon="-1.30792">
        <ele>100</ele>
        <time>2021-03-27T11:19:01.000Z</time>
      </trkpt>
      <trkpt lat="47.31404" lon="-1.30809">
        <ele>100</ele>
        <time>2021-03-27T11:19:03.000Z</time>
      </trkpt>
      <trkpt lat="47.31394" lon="-1.30825">
        <ele>99</ele>
        <time>2021-03-27T11:19:05.000Z</time>
      </trkpt>
      <trkpt lat="47.31383" lon="-1.30837">
        <ele>99</ele>
        <time>2021-03-27T11:19:07.000Z</time>
      </trkpt>
      <trkpt lat="47.3137" lon="-1.30848">
        <ele>99</ele>
        <time>2021-03-27T11:19:09.000Z</time>
      </trkpt>
      <trkpt lat="47.31356" lon="-1.30855">
        <ele>98</ele>
        <time>2021-03-27T11:19:11.000Z</time>
      </trkpt>
      <trkpt lat="47.31342" lon="-1.30858">
        <ele>97</ele>
        <time>2021-03-27T11:19:13.000Z</time>
      </trkpt>
      <trkpt lat="47.31327" lon="-1.3086">
        <ele>97</ele>
        <time>2021-03-27T11:19:15.000Z</time>
      </trkpt>
      <trkpt lat="47.31313" lon="-1.30859">
        <ele>96</ele>
        <time>2021-03-27T11:19:17.000Z</time>
      </trkpt>
      <trkpt lat="47.31297" lon="-1.30855">
        <ele>95</ele>
        <time>2021-03-27T11:19:19.000Z</time>
      </trkpt>
      <trkpt lat="47.31281" lon="-1.30852">
        <ele>94</ele>
        <time>2021-03-27T11:19:21.000Z</time>
      </trkpt>
      <trkpt lat="47.31265" lon="-1.30849">
        <ele>93</ele>
        <time>2021-03-27T11:19:23.000Z</time>
      </trkpt>
      <trkpt lat="47.31248" lon="-1.3085">
        <ele>93</ele>
        <time>2021-03-27T11:19:25.000Z</time>
      </trkpt>
      <trkpt lat="47.31231" lon="-1.30856">
        <ele>92</ele>
        <time>2021-03-27T11:19:27.000Z</time>
      </trkpt>
      <trkpt lat="47.31217" lon="-1.30869">
        <ele>91</ele>
        <time>2021-03-27T11:19:29.000Z</time>
      </trkpt>
      <trkpt lat="47.3121" lon="-1.30877">
        <ele>91</ele>
        <time>2021-03-27T11:19:30.000Z</time>
      </trkpt>
      <trkpt lat="47.31198" lon="-1.30897">
        <ele>91</ele>
        <time>2021-03-27T11:19:32.000Z</time>
      </trkpt>
      <trkpt lat="47.31192" lon="-1.3092">
        <ele>90</ele>
        <time>2021-03-27T11:19:34.000Z</time>
      </trkpt>
      <trkpt lat="47.31192" lon="-1.30945">
        <ele>89</ele>
        <time>2021-03-27T11:19:36.000Z</time>
      </trkpt>
      <trkpt lat="47.31195" lon="-1.3097">
        <ele>89</ele>
        <time>2021-03-27T11:19:38.000Z</time>
      </trkpt>
      <trkpt lat="47.31202" lon="-1.30993">
        <ele>89</ele>
        <time>2021-03-27T11:19:40.000Z</time>
      </trkpt>
      <trkpt lat="47.31211" lon="-1.31011">
        <ele>90</ele>
        <time>2021-03-27T11:19:42.000Z</time>
      </trkpt>
      <trkpt lat="47.31221" lon="-1.31025">
        <ele>91</ele>
        <time>2021-03-27T11:19:44.000Z</time>
      </trkpt>
      <trkpt lat="47.31231" lon="-1.31037">
        <ele>92</ele>
        <time>2021-03-27T11:19:46.000Z</time>
      </trkpt>
      <trkpt lat="47.3124" lon="-1.31049">
        <ele>92</ele>
        <time>2021-03-27T11:19:48.000Z</time>
      </trkpt>
      <trkpt lat="47.31249" lon="-1.31061">
        <ele>93</ele>
        <time>2021-03-27T11:19:50.000Z</time>
      </trkpt>
      <trkpt lat="47.31257" lon="-1.31073">
        <ele>94</ele>
        <time>2021-03-27T11:19:52.000Z</time>
      </trkpt>
      <trkpt lat="47.31264" lon="-1.31087">
        <ele>94</ele>
        <time>2021-03-27T11:19:54.000Z</time>
      </trkpt>
      <trkpt lat="47.31269" lon="-1.31102">
        <ele>94</ele>
        <time>2021-03-27T11:19:56.000Z</time>
      </trkpt>
      <trkpt lat="47.31273" lon="-1.31118">
        <ele>94</ele>
        <time>2021-03-27T11:19:58.000Z</time>
      </trkpt>
      <trkpt lat="47.31275" lon="-1.31133">
        <ele>94</ele>
        <time>2021-03-27T11:20:00.000Z</time>
      </trkpt>
      <trkpt lat="47.31277" lon="-1.3115">
        <ele>93</ele>
        <time>2021-03-27T11:20:02.000Z</time>
      </trkpt>
      <trkpt lat="47.31278" lon="-1.31166">
        <ele>93</ele>
        <time>2021-03-27T11:20:04.000Z</time>
      </trkpt>
      <trkpt lat="47.31278" lon="-1.31182">
        <ele>94</ele>
        <time>2021-03-27T11:20:06.000Z</time>
      </trkpt>
      <trkpt lat="47.31278" lon="-1.31198">
        <ele>94</ele>
        <time>2021-03-27T11:20:08.000Z</time>
      </trkpt>
      <trkpt lat="47.31278" lon="-1.31215">
        <ele>95</ele>
        <time>2021-03-27T11:20:10.000Z</time>
      </trkpt>
      <trkpt lat="47.31278" lon="-1.3123">
        <ele>96</ele>
        <time>2021-03-27T11:20:12.000Z</time>
      </trkpt>
      <trkpt lat="47.31278" lon="-1.31245">
        <ele>96</ele>
        <time>2021-03-27T11:20:14.000Z</time>
      </trkpt>
      <trkpt lat="47.31279" lon="-1.3126">
        <ele>96</ele>
        <time>2021-03-27T11:20:16.000Z</time>
      </trkpt>
      <trkpt lat="47.31279" lon="-1.31275">
        <ele>97</ele>
        <time>2021-03-27T11:20:18.000Z</time>
      </trkpt>
      <trkpt lat="47.31279" lon="-1.31289">
        <ele>97</ele>
        <time>2021-03-27T11:20:20.000Z</time>
      </trkpt>
      <trkpt lat="47.3128" lon="-1.31304">
        <ele>97</ele>
        <time>2021-03-27T11:20:22.000Z</time>
      </trkpt>
      <trkpt lat="47.31281" lon="-1.31319">
        <ele>98</ele>
        <time>2021-03-27T11:20:24.000Z</time>
      </trkpt>
      <trkpt lat="47.31282" lon="-1.31334">
        <ele>98</ele>
        <time>2021-03-27T11:20:26.000Z</time>
      </trkpt>
      <trkpt lat="47.31282" lon="-1.3135">
        <ele>97</ele>
        <time>2021-03-27T11:20:28.000Z</time>
      </trkpt>
      <trkpt lat="47.31283" lon="-1.31365">
        <ele>97</ele>
        <time>2021-03-27T11:20:30.000Z</time>
      </trkpt>
      <trkpt lat="47.31283" lon="-1.31381">
        <ele>98</ele>
        <time>2021-03-27T11:20:32.000Z</time>
      </trkpt>
      <trkpt lat="47.31284" lon="-1.31396">
        <ele>98</ele>
        <time>2021-03-27T11:20:34.000Z</time>
      </trkpt>
      <trkpt lat="47.31285" lon="-1.31411">
        <ele>98</ele>
        <time>2021-03-27T11:20:36.000Z</time>
      </trkpt>
      <trkpt lat="47.31285" lon="-1.31426">
        <ele>98</ele>
        <time>2021-03-27T11:20:38.000Z</time>
      </trkpt>
      <trkpt lat="47.31285" lon="-1.31441">
        <ele>98</ele>
        <time>2021-03-27T11:20:40.000Z</time>
      </trkpt>
      <trkpt lat="47.31285" lon="-1.31455">
        <ele>99</ele>
        <time>2021-03-27T11:20:42.000Z</time>
      </trkpt>
      <trkpt lat="47.31285" lon="-1.3147">
        <ele>100</ele>
        <time>2021-03-27T11:20:44.000Z</time>
      </trkpt>
      <trkpt lat="47.31284" lon="-1.31484">
        <ele>101</ele>
        <time>2021-03-27T11:20:46.000Z</time>
      </trkpt>
      <trkpt lat="47.31284" lon="-1.31498">
        <ele>102</ele>
        <time>2021-03-27T11:20:48.000Z</time>
      </trkpt>
      <trkpt lat="47.31284" lon="-1.31518">
        <ele>103</ele>
        <time>2021-03-27T11:20:51.000Z</time>
      </trkpt>
      <trkpt lat="47.31285" lon="-1.31532">
        <ele>103</ele>
        <time>2021-03-27T11:20:53.000Z</time>
      </trkpt>
      <trkpt lat="47.31286" lon="-1.31547">
        <ele>103</ele>
        <time>2021-03-27T11:20:55.000Z</time>
      </trkpt>
      <trkpt lat="47.31286" lon="-1.3156">
        <ele>104</ele>
        <time>2021-03-27T11:20:57.000Z</time>
      </trkpt>
      <trkpt lat="47.31287" lon="-1.31574">
        <ele>104</ele>
        <time>2021-03-27T11:20:59.000Z</time>
      </trkpt>
      <trkpt lat="47.31288" lon="-1.31588">
        <ele>104</ele>
        <time>2021-03-27T11:21:01.000Z</time>
      </trkpt>
      <trkpt lat="47.31288" lon="-1.31602">
        <ele>104</ele>
        <time>2021-03-27T11:21:03.000Z</time>
      </trkpt>
      <trkpt lat="47.31287" lon="-1.31616">
        <ele>105</ele>
        <time>2021-03-27T11:21:05.000Z</time>
      </trkpt>
      <trkpt lat="47.31288" lon="-1.31629">
        <ele>105</ele>
        <time>2021-03-27T11:21:07.000Z</time>
      </trkpt>
      <trkpt lat="47.31289" lon="-1.31643">
        <ele>104</ele>
        <time>2021-03-27T11:21:09.000Z</time>
      </trkpt>
      <trkpt lat="47.3129" lon="-1.31657">
        <ele>104</ele>
        <time>2021-03-27T11:21:11.000Z</time>
      </trkpt>
      <trkpt lat="47.3129" lon="-1.31671">
        <ele>104</ele>
        <time>2021-03-27T11:21:13.000Z</time>
      </trkpt>
      <trkpt lat="47.3129" lon="-1.3169">
        <ele>104</ele>
        <time>2021-03-27T11:21:16.000Z</time>
      </trkpt>
      <trkpt lat="47.3129" lon="-1.31703">
        <ele>106</ele>
        <time>2021-03-27T11:21:18.000Z</time>
      </trkpt>
      <trkpt lat="47.31291" lon="-1.31723">
        <ele>106</ele>
        <time>2021-03-27T11:21:21.000Z</time>
      </trkpt>
      <trkpt lat="47.31291" lon="-1.31736">
        <ele>106</ele>
        <time>2021-03-27T11:21:23.000Z</time>
      </trkpt>
      <trkpt lat="47.31292" lon="-1.3175">
        <ele>106</ele>
        <time>2021-03-27T11:21:25.000Z</time>
      </trkpt>
      <trkpt lat="47.31293" lon="-1.31763">
        <ele>106</ele>
        <time>2021-03-27T11:21:27.000Z</time>
      </trkpt>
      <trkpt lat="47.31291" lon="-1.31777">
        <ele>108</ele>
        <time>2021-03-27T11:21:29.000Z</time>
      </trkpt>
      <trkpt lat="47.31292" lon="-1.31791">
        <ele>108</ele>
        <time>2021-03-27T11:21:31.000Z</time>
      </trkpt>
      <trkpt lat="47.31292" lon="-1.31805">
        <ele>108</ele>
        <time>2021-03-27T11:21:33.000Z</time>
      </trkpt>
      <trkpt lat="47.31292" lon="-1.31819">
        <ele>108</ele>
        <time>2021-03-27T11:21:35.000Z</time>
      </trkpt>
      <trkpt lat="47.31292" lon="-1.31839">
        <ele>108</ele>
        <time>2021-03-27T11:21:38.000Z</time>
      </trkpt>
      <trkpt lat="47.31292" lon="-1.31853">
        <ele>109</ele>
        <time>2021-03-27T11:21:40.000Z</time>
      </trkpt>
      <trkpt lat="47.31293" lon="-1.31867">
        <ele>109</ele>
        <time>2021-03-27T11:21:42.000Z</time>
      </trkpt>
      <trkpt lat="47.31293" lon="-1.31881">
        <ele>110</ele>
        <time>2021-03-27T11:21:44.000Z</time>
      </trkpt>
      <trkpt lat="47.31294" lon="-1.31895">
        <ele>110</ele>
        <time>2021-03-27T11:21:46.000Z</time>
      </trkpt>
      <trkpt lat="47.31295" lon="-1.31909">
        <ele>111</ele>
        <time>2021-03-27T11:21:48.000Z</time>
      </trkpt>
      <trkpt lat="47.31295" lon="-1.31922">
        <ele>111</ele>
        <time>2021-03-27T11:21:50.000Z</time>
      </trkpt>
      <trkpt lat="47.31295" lon="-1.31937">
        <ele>111</ele>
        <time>2021-03-27T11:21:52.000Z</time>
      </trkpt>
      <trkpt lat="47.31296" lon="-1.31956">
        <ele>111</ele>
        <time>2021-03-27T11:21:55.000Z</time>
      </trkpt>
      <trkpt lat="47.31297" lon="-1.31977">
        <ele>111</ele>
        <time>2021-03-27T11:21:58.000Z</time>
      </trkpt>
      <trkpt lat="47.31298" lon="-1.3199">
        <ele>111</ele>
        <time>2021-03-27T11:22:00.000Z</time>
      </trkpt>
      <trkpt lat="47.31299" lon="-1.32004">
        <ele>111</ele>
        <time>2021-03-27T11:22:02.000Z</time>
      </trkpt>
      <trkpt lat="47.313" lon="-1.32017">
        <ele>112</ele>
        <time>2021-03-27T11:22:04.000Z</time>
      </trkpt>
      <trkpt lat="47.313" lon="-1.32031">
        <ele>112</ele>
        <time>2021-03-27T11:22:06.000Z</time>
      </trkpt>
      <trkpt lat="47.313" lon="-1.32045">
        <ele>112</ele>
        <time>2021-03-27T11:22:08.000Z</time>
      </trkpt>
      <trkpt lat="47.31302" lon="-1.32059">
        <ele>113</ele>
        <time>2021-03-27T11:22:10.000Z</time>
      </trkpt>
      <trkpt lat="47.31303" lon="-1.32079">
        <ele>113</ele>
        <time>2021-03-27T11:22:13.000Z</time>
      </trkpt>
      <trkpt lat="47.31303" lon="-1.32093">
        <ele>114</ele>
        <time>2021-03-27T11:22:15.000Z</time>
      </trkpt>
      <trkpt lat="47.31302" lon="-1.32108">
        <ele>113</ele>
        <time>2021-03-27T11:22:17.000Z</time>
      </trkpt>
      <trkpt lat="47.31302" lon="-1.32123">
        <ele>112</ele>
        <time>2021-03-27T11:22:19.000Z</time>
      </trkpt>
      <trkpt lat="47.31302" lon="-1.32137">
        <ele>112</ele>
        <time>2021-03-27T11:22:21.000Z</time>
      </trkpt>
      <trkpt lat="47.31302" lon="-1.32154">
        <ele>113</ele>
        <time>2021-03-27T11:22:23.000Z</time>
      </trkpt>
      <trkpt lat="47.31302" lon="-1.32171">
        <ele>112</ele>
        <time>2021-03-27T11:22:25.000Z</time>
      </trkpt>
      <trkpt lat="47.31302" lon="-1.32189">
        <ele>113</ele>
        <time>2021-03-27T11:22:27.000Z</time>
      </trkpt>
      <trkpt lat="47.31303" lon="-1.32207">
        <ele>113</ele>
        <time>2021-03-27T11:22:29.000Z</time>
      </trkpt>
      <trkpt lat="47.31301" lon="-1.32226">
        <ele>112</ele>
        <time>2021-03-27T11:22:31.000Z</time>
      </trkpt>
      <trkpt lat="47.31298" lon="-1.32246">
        <ele>111</ele>
        <time>2021-03-27T11:22:33.000Z</time>
      </trkpt>
      <trkpt lat="47.31295" lon="-1.32265">
        <ele>109</ele>
        <time>2021-03-27T11:22:35.000Z</time>
      </trkpt>
      <trkpt lat="47.31289" lon="-1.32284">
        <ele>108</ele>
        <time>2021-03-27T11:22:37.000Z</time>
      </trkpt>
      <trkpt lat="47.3128" lon="-1.32301">
        <ele>107</ele>
        <time>2021-03-27T11:22:39.000Z</time>
      </trkpt>
      <trkpt lat="47.31271" lon="-1.32318">
        <ele>106</ele>
        <time>2021-03-27T11:22:41.000Z</time>
      </trkpt>
      <trkpt lat="47.3126" lon="-1.32332">
        <ele>105</ele>
        <time>2021-03-27T11:22:43.000Z</time>
      </trkpt>
      <trkpt lat="47.31245" lon="-1.32344">
        <ele>105</ele>
        <time>2021-03-27T11:22:45.000Z</time>
      </trkpt>
      <trkpt lat="47.31231" lon="-1.32354">
        <ele>105</ele>
        <time>2021-03-27T11:22:47.000Z</time>
      </trkpt>
      <trkpt lat="47.31216" lon="-1.32358">
        <ele>104</ele>
        <time>2021-03-27T11:22:49.000Z</time>
      </trkpt>
      <trkpt lat="47.31201" lon="-1.32361">
        <ele>102</ele>
        <time>2021-03-27T11:22:51.000Z</time>
      </trkpt>
      <trkpt lat="47.31184" lon="-1.32364">
        <ele>101</ele>
        <time>2021-03-27T11:22:53.000Z</time>
      </trkpt>
      <trkpt lat="47.31167" lon="-1.32363">
        <ele>101</ele>
        <time>2021-03-27T11:22:55.000Z</time>
      </trkpt>
      <trkpt lat="47.3115" lon="-1.32361">
        <ele>100</ele>
        <time>2021-03-27T11:22:57.000Z</time>
      </trkpt>
      <trkpt lat="47.31135" lon="-1.32358">
        <ele>99</ele>
        <time>2021-03-27T11:22:59.000Z</time>
      </trkpt>
      <trkpt lat="47.31119" lon="-1.32354">
        <ele>97</ele>
        <time>2021-03-27T11:23:01.000Z</time>
      </trkpt>
      <trkpt lat="47.31102" lon="-1.3235">
        <ele>96</ele>
        <time>2021-03-27T11:23:03.000Z</time>
      </trkpt>
      <trkpt lat="47.31085" lon="-1.32345">
        <ele>96</ele>
        <time>2021-03-27T11:23:05.000Z</time>
      </trkpt>
      <trkpt lat="47.31069" lon="-1.32339">
        <ele>95</ele>
        <time>2021-03-27T11:23:07.000Z</time>
      </trkpt>
      <trkpt lat="47.31052" lon="-1.32334">
        <ele>94</ele>
        <time>2021-03-27T11:23:09.000Z</time>
      </trkpt>
      <trkpt lat="47.31036" lon="-1.32329">
        <ele>93</ele>
        <time>2021-03-27T11:23:11.000Z</time>
      </trkpt>
      <trkpt lat="47.31019" lon="-1.32329">
        <ele>92</ele>
        <time>2021-03-27T11:23:13.000Z</time>
      </trkpt>
      <trkpt lat="47.31003" lon="-1.32335">
        <ele>91</ele>
        <time>2021-03-27T11:23:15.000Z</time>
      </trkpt>
      <trkpt lat="47.30987" lon="-1.32348">
        <ele>89</ele>
        <time>2021-03-27T11:23:17.000Z</time>
      </trkpt>
      <trkpt lat="47.3098" lon="-1.32357">
        <ele>89</ele>
        <time>2021-03-27T11:23:18.000Z</time>
      </trkpt>
      <trkpt lat="47.30969" lon="-1.32376">
        <ele>89</ele>
        <time>2021-03-27T11:23:20.000Z</time>
      </trkpt>
      <trkpt lat="47.3096" lon="-1.32397">
        <ele>88</ele>
        <time>2021-03-27T11:23:22.000Z</time>
      </trkpt>
      <trkpt lat="47.30951" lon="-1.32418">
        <ele>87</ele>
        <time>2021-03-27T11:23:24.000Z</time>
      </trkpt>
      <trkpt lat="47.30943" lon="-1.32439">
        <ele>87</ele>
        <time>2021-03-27T11:23:26.000Z</time>
      </trkpt>
      <trkpt lat="47.30934" lon="-1.3246">
        <ele>86</ele>
        <time>2021-03-27T11:23:28.000Z</time>
      </trkpt>
      <trkpt lat="47.30926" lon="-1.32481">
        <ele>85</ele>
        <time>2021-03-27T11:23:30.000Z</time>
      </trkpt>
      <trkpt lat="47.30918" lon="-1.32502">
        <ele>84</ele>
        <time>2021-03-27T11:23:32.000Z</time>
      </trkpt>
      <trkpt lat="47.30909" lon="-1.32525">
        <ele>82</ele>
        <time>2021-03-27T11:23:34.000Z</time>
      </trkpt>
      <trkpt lat="47.309" lon="-1.32547">
        <ele>82</ele>
        <time>2021-03-27T11:23:36.000Z</time>
      </trkpt>
      <trkpt lat="47.30891" lon="-1.32569">
        <ele>81</ele>
        <time>2021-03-27T11:23:38.000Z</time>
      </trkpt>
      <trkpt lat="47.30882" lon="-1.32591">
        <ele>81</ele>
        <time>2021-03-27T11:23:40.000Z</time>
      </trkpt>
      <trkpt lat="47.30872" lon="-1.32611">
        <ele>81</ele>
        <time>2021-03-27T11:23:42.000Z</time>
      </trkpt>
      <trkpt lat="47.30862" lon="-1.32631">
        <ele>80</ele>
        <time>2021-03-27T11:23:44.000Z</time>
      </trkpt>
      <trkpt lat="47.30853" lon="-1.3265">
        <ele>80</ele>
        <time>2021-03-27T11:23:46.000Z</time>
      </trkpt>
      <trkpt lat="47.30843" lon="-1.32668">
        <ele>79</ele>
        <time>2021-03-27T11:23:48.000Z</time>
      </trkpt>
      <trkpt lat="47.30832" lon="-1.32686">
        <ele>79</ele>
        <time>2021-03-27T11:23:50.000Z</time>
      </trkpt>
      <trkpt lat="47.30822" lon="-1.32703">
        <ele>78</ele>
        <time>2021-03-27T11:23:52.000Z</time>
      </trkpt>
      <trkpt lat="47.30812" lon="-1.32718">
        <ele>78</ele>
        <time>2021-03-27T11:23:54.000Z</time>
      </trkpt>
      <trkpt lat="47.30801" lon="-1.32734">
        <ele>77</ele>
        <time>2021-03-27T11:23:56.000Z</time>
      </trkpt>
      <trkpt lat="47.3079" lon="-1.32748">
        <ele>77</ele>
        <time>2021-03-27T11:23:58.000Z</time>
      </trkpt>
      <trkpt lat="47.30778" lon="-1.32763">
        <ele>76</ele>
        <time>2021-03-27T11:24:00.000Z</time>
      </trkpt>
      <trkpt lat="47.30767" lon="-1.32778">
        <ele>75</ele>
        <time>2021-03-27T11:24:02.000Z</time>
      </trkpt>
      <trkpt lat="47.30754" lon="-1.32792">
        <ele>75</ele>
        <time>2021-03-27T11:24:04.000Z</time>
      </trkpt>
      <trkpt lat="47.30742" lon="-1.32805">
        <ele>74</ele>
        <time>2021-03-27T11:24:06.000Z</time>
      </trkpt>
      <trkpt lat="47.30729" lon="-1.32819">
        <ele>73</ele>
        <time>2021-03-27T11:24:08.000Z</time>
      </trkpt>
      <trkpt lat="47.30716" lon="-1.32833">
        <ele>73</ele>
        <time>2021-03-27T11:24:10.000Z</time>
      </trkpt>
      <trkpt lat="47.30703" lon="-1.32847">
        <ele>72</ele>
        <time>2021-03-27T11:24:12.000Z</time>
      </trkpt>
      <trkpt lat="47.3069" lon="-1.32861">
        <ele>71</ele>
        <time>2021-03-27T11:24:14.000Z</time>
      </trkpt>
      <trkpt lat="47.30678" lon="-1.32875">
        <ele>71</ele>
        <time>2021-03-27T11:24:16.000Z</time>
      </trkpt>
      <trkpt lat="47.30665" lon="-1.3289">
        <ele>70</ele>
        <time>2021-03-27T11:24:18.000Z</time>
      </trkpt>
      <trkpt lat="47.30653" lon="-1.32903">
        <ele>70</ele>
        <time>2021-03-27T11:24:20.000Z</time>
      </trkpt>
      <trkpt lat="47.3064" lon="-1.32916">
        <ele>69</ele>
        <time>2021-03-27T11:24:22.000Z</time>
      </trkpt>
      <trkpt lat="47.30628" lon="-1.3293">
        <ele>68</ele>
        <time>2021-03-27T11:24:24.000Z</time>
      </trkpt>
      <trkpt lat="47.30615" lon="-1.32941">
        <ele>68</ele>
        <time>2021-03-27T11:24:26.000Z</time>
      </trkpt>
      <trkpt lat="47.30601" lon="-1.3295">
        <ele>67</ele>
        <time>2021-03-27T11:24:28.000Z</time>
      </trkpt>
      <trkpt lat="47.30587" lon="-1.32958">
        <ele>67</ele>
        <time>2021-03-27T11:24:30.000Z</time>
      </trkpt>
      <trkpt lat="47.30573" lon="-1.32966">
        <ele>67</ele>
        <time>2021-03-27T11:24:32.000Z</time>
      </trkpt>
      <trkpt lat="47.30559" lon="-1.32974">
        <ele>67</ele>
        <time>2021-03-27T11:24:34.000Z</time>
      </trkpt>
      <trkpt lat="47.30545" lon="-1.32981">
        <ele>66</ele>
        <time>2021-03-27T11:24:36.000Z</time>
      </trkpt>
      <trkpt lat="47.30531" lon="-1.32985">
        <ele>65</ele>
        <time>2021-03-27T11:24:38.000Z</time>
      </trkpt>
      <trkpt lat="47.30515" lon="-1.32984">
        <ele>64</ele>
        <time>2021-03-27T11:24:40.000Z</time>
      </trkpt>
      <trkpt lat="47.30499" lon="-1.3298">
        <ele>63</ele>
        <time>2021-03-27T11:24:42.000Z</time>
      </trkpt>
      <trkpt lat="47.30484" lon="-1.32975">
        <ele>62</ele>
        <time>2021-03-27T11:24:44.000Z</time>
      </trkpt>
      <trkpt lat="47.30468" lon="-1.32969">
        <ele>61</ele>
        <time>2021-03-27T11:24:46.000Z</time>
      </trkpt>
      <trkpt lat="47.30453" lon="-1.32962">
        <ele>60</ele>
        <time>2021-03-27T11:24:48.000Z</time>
      </trkpt>
      <trkpt lat="47.30437" lon="-1.32956">
        <ele>59</ele>
        <time>2021-03-27T11:24:50.000Z</time>
      </trkpt>
      <trkpt lat="47.30421" lon="-1.3295">
        <ele>58</ele>
        <time>2021-03-27T11:24:52.000Z</time>
      </trkpt>
      <trkpt lat="47.30405" lon="-1.32947">
        <ele>57</ele>
        <time>2021-03-27T11:24:54.000Z</time>
      </trkpt>
      <trkpt lat="47.30389" lon="-1.32949">
        <ele>56</ele>
        <time>2021-03-27T11:24:56.000Z</time>
      </trkpt>
      <trkpt lat="47.30374" lon="-1.32957">
        <ele>55</ele>
        <time>2021-03-27T11:24:58.000Z</time>
      </trkpt>
      <trkpt lat="47.30359" lon="-1.32967">
        <ele>55</ele>
        <time>2021-03-27T11:25:00.000Z</time>
      </trkpt>
      <trkpt lat="47.30344" lon="-1.32978">
        <ele>55</ele>
        <time>2021-03-27T11:25:02.000Z</time>
      </trkpt>
      <trkpt lat="47.3033" lon="-1.32988">
        <ele>55</ele>
        <time>2021-03-27T11:25:04.000Z</time>
      </trkpt>
      <trkpt lat="47.30316" lon="-1.32998">
        <ele>55</ele>
        <time>2021-03-27T11:25:06.000Z</time>
      </trkpt>
      <trkpt lat="47.30302" lon="-1.33008">
        <ele>55</ele>
        <time>2021-03-27T11:25:08.000Z</time>
      </trkpt>
      <trkpt lat="47.3029" lon="-1.33018">
        <ele>55</ele>
        <time>2021-03-27T11:25:10.000Z</time>
      </trkpt>
      <trkpt lat="47.30278" lon="-1.33027">
        <ele>55</ele>
        <time>2021-03-27T11:25:12.000Z</time>
      </trkpt>
      <trkpt lat="47.30266" lon="-1.33034">
        <ele>56</ele>
        <time>2021-03-27T11:25:14.000Z</time>
      </trkpt>
      <trkpt lat="47.30255" lon="-1.33042">
        <ele>56</ele>
        <time>2021-03-27T11:25:16.000Z</time>
      </trkpt>
      <trkpt lat="47.30245" lon="-1.33049">
        <ele>56</ele>
        <time>2021-03-27T11:25:18.000Z</time>
      </trkpt>
      <trkpt lat="47.30235" lon="-1.33057">
        <ele>57</ele>
        <time>2021-03-27T11:25:20.000Z</time>
      </trkpt>
      <trkpt lat="47.30225" lon="-1.33064">
        <ele>57</ele>
        <time>2021-03-27T11:25:22.000Z</time>
      </trkpt>
      <trkpt lat="47.30216" lon="-1.3307">
        <ele>57</ele>
        <time>2021-03-27T11:25:24.000Z</time>
      </trkpt>
      <trkpt lat="47.30207" lon="-1.33077">
        <ele>58</ele>
        <time>2021-03-27T11:25:26.000Z</time>
      </trkpt>
      <trkpt lat="47.30197" lon="-1.33083">
        <ele>58</ele>
        <time>2021-03-27T11:25:28.000Z</time>
      </trkpt>
      <trkpt lat="47.30188" lon="-1.33089">
        <ele>59</ele>
        <time>2021-03-27T11:25:30.000Z</time>
      </trkpt>
      <trkpt lat="47.30179" lon="-1.33096">
        <ele>59</ele>
        <time>2021-03-27T11:25:32.000Z</time>
      </trkpt>
      <trkpt lat="47.3017" lon="-1.33102">
        <ele>59</ele>
        <time>2021-03-27T11:25:34.000Z</time>
      </trkpt>
      <trkpt lat="47.30161" lon="-1.33109">
        <ele>59</ele>
        <time>2021-03-27T11:25:36.000Z</time>
      </trkpt>
      <trkpt lat="47.30152" lon="-1.33116">
        <ele>60</ele>
        <time>2021-03-27T11:25:38.000Z</time>
      </trkpt>
      <trkpt lat="47.30144" lon="-1.33122">
        <ele>61</ele>
        <time>2021-03-27T11:25:40.000Z</time>
      </trkpt>
      <trkpt lat="47.30135" lon="-1.33128">
        <ele>61</ele>
        <time>2021-03-27T11:25:42.000Z</time>
      </trkpt>
      <trkpt lat="47.30126" lon="-1.33134">
        <ele>62</ele>
        <time>2021-03-27T11:25:44.000Z</time>
      </trkpt>
      <trkpt lat="47.30117" lon="-1.3314">
        <ele>62</ele>
        <time>2021-03-27T11:25:46.000Z</time>
      </trkpt>
      <trkpt lat="47.30109" lon="-1.33147">
        <ele>63</ele>
        <time>2021-03-27T11:25:48.000Z</time>
      </trkpt>
      <trkpt lat="47.30101" lon="-1.33154">
        <ele>63</ele>
        <time>2021-03-27T11:25:50.000Z</time>
      </trkpt>
      <trkpt lat="47.30093" lon="-1.3316">
        <ele>64</ele>
        <time>2021-03-27T11:25:52.000Z</time>
      </trkpt>
      <trkpt lat="47.30085" lon="-1.33166">
        <ele>64</ele>
        <time>2021-03-27T11:25:54.000Z</time>
      </trkpt>
      <trkpt lat="47.30073" lon="-1.33176">
        <ele>65</ele>
        <time>2021-03-27T11:25:57.000Z</time>
      </trkpt>
      <trkpt lat="47.30065" lon="-1.33184">
        <ele>66</ele>
        <time>2021-03-27T11:25:59.000Z</time>
      </trkpt>
      <trkpt lat="47.30058" lon="-1.33193">
        <ele>67</ele>
        <time>2021-03-27T11:26:01.000Z</time>
      </trkpt>
      <trkpt lat="47.3005" lon="-1.33202">
        <ele>68</ele>
        <time>2021-03-27T11:26:03.000Z</time>
      </trkpt>
      <trkpt lat="47.30042" lon="-1.33216">
        <ele>68</ele>
        <time>2021-03-27T11:26:06.000Z</time>
      </trkpt>
      <trkpt lat="47.30035" lon="-1.33226">
        <ele>68</ele>
        <time>2021-03-27T11:26:08.000Z</time>
      </trkpt>
      <trkpt lat="47.30029" lon="-1.33237">
        <ele>69</ele>
        <time>2021-03-27T11:26:10.000Z</time>
      </trkpt>
      <trkpt lat="47.30023" lon="-1.33249">
        <ele>69</ele>
        <time>2021-03-27T11:26:12.000Z</time>
      </trkpt>
      <trkpt lat="47.30017" lon="-1.33262">
        <ele>69</ele>
        <time>2021-03-27T11:26:14.000Z</time>
      </trkpt>
      <trkpt lat="47.30012" lon="-1.33276">
        <ele>69</ele>
        <time>2021-03-27T11:26:16.000Z</time>
      </trkpt>
      <trkpt lat="47.30007" lon="-1.3329">
        <ele>69</ele>
        <time>2021-03-27T11:26:18.000Z</time>
      </trkpt>
      <trkpt lat="47.30004" lon="-1.33304">
        <ele>69</ele>
        <time>2021-03-27T11:26:20.000Z</time>
      </trkpt>
      <trkpt lat="47.3" lon="-1.3332">
        <ele>69</ele>
        <time>2021-03-27T11:26:22.000Z</time>
      </trkpt>
      <trkpt lat="47.29997" lon="-1.33337">
        <ele>68</ele>
        <time>2021-03-27T11:26:24.000Z</time>
      </trkpt>
      <trkpt lat="47.29995" lon="-1.33354">
        <ele>68</ele>
        <time>2021-03-27T11:26:26.000Z</time>
      </trkpt>
      <trkpt lat="47.29993" lon="-1.33374">
        <ele>67</ele>
        <time>2021-03-27T11:26:28.000Z</time>
      </trkpt>
      <trkpt lat="47.29992" lon="-1.33394">
        <ele>67</ele>
        <time>2021-03-27T11:26:30.000Z</time>
      </trkpt>
      <trkpt lat="47.2999" lon="-1.33415">
        <ele>66</ele>
        <time>2021-03-27T11:26:32.000Z</time>
      </trkpt>
      <trkpt lat="47.29986" lon="-1.33436">
        <ele>65</ele>
        <time>2021-03-27T11:26:34.000Z</time>
      </trkpt>
      <trkpt lat="47.29979" lon="-1.33457">
        <ele>64</ele>
        <time>2021-03-27T11:26:36.000Z</time>
      </trkpt>
      <trkpt lat="47.29969" lon="-1.33476">
        <ele>64</ele>
        <time>2021-03-27T11:26:38.000Z</time>
      </trkpt>
      <trkpt lat="47.29958" lon="-1.33493">
        <ele>63</ele>
        <time>2021-03-27T11:26:40.000Z</time>
      </trkpt>
      <trkpt lat="47.29947" lon="-1.3351">
        <ele>62</ele>
        <time>2021-03-27T11:26:42.000Z</time>
      </trkpt>
      <trkpt lat="47.29936" lon="-1.33528">
        <ele>61</ele>
        <time>2021-03-27T11:26:44.000Z</time>
      </trkpt>
      <trkpt lat="47.29924" lon="-1.33547">
        <ele>60</ele>
        <time>2021-03-27T11:26:46.000Z</time>
      </trkpt>
      <trkpt lat="47.29913" lon="-1.33567">
        <ele>58</ele>
        <time>2021-03-27T11:26:48.000Z</time>
      </trkpt>
      <trkpt lat="47.29906" lon="-1.33589">
        <ele>58</ele>
        <time>2021-03-27T11:26:50.000Z</time>
      </trkpt>
      <trkpt lat="47.29905" lon="-1.33612">
        <ele>59</ele>
        <time>2021-03-27T11:26:52.000Z</time>
      </trkpt>
      <trkpt lat="47.29908" lon="-1.33634">
        <ele>59</ele>
        <time>2021-03-27T11:26:54.000Z</time>
      </trkpt>
      <trkpt lat="47.29912" lon="-1.33655">
        <ele>60</ele>
        <time>2021-03-27T11:26:56.000Z</time>
      </trkpt>
      <trkpt lat="47.29916" lon="-1.33675">
        <ele>59</ele>
        <time>2021-03-27T11:26:58.000Z</time>
      </trkpt>
      <trkpt lat="47.2992" lon="-1.33695">
        <ele>59</ele>
        <time>2021-03-27T11:27:00.000Z</time>
      </trkpt>
      <trkpt lat="47.29923" lon="-1.33715">
        <ele>60</ele>
        <time>2021-03-27T11:27:02.000Z</time>
      </trkpt>
      <trkpt lat="47.29927" lon="-1.33734">
        <ele>60</ele>
        <time>2021-03-27T11:27:04.000Z</time>
      </trkpt>
      <trkpt lat="47.29931" lon="-1.33754">
        <ele>60</ele>
        <time>2021-03-27T11:27:06.000Z</time>
      </trkpt>
      <trkpt lat="47.29936" lon="-1.33773">
        <ele>60</ele>
        <time>2021-03-27T11:27:08.000Z</time>
      </trkpt>
      <trkpt lat="47.2994" lon="-1.33793">
        <ele>60</ele>
        <time>2021-03-27T11:27:10.000Z</time>
      </trkpt>
      <trkpt lat="47.29943" lon="-1.33813">
        <ele>60</ele>
        <time>2021-03-27T11:27:12.000Z</time>
      </trkpt>
      <trkpt lat="47.29947" lon="-1.33833">
        <ele>60</ele>
        <time>2021-03-27T11:27:14.000Z</time>
      </trkpt>
      <trkpt lat="47.2995" lon="-1.33851">
        <ele>61</ele>
        <time>2021-03-27T11:27:16.000Z</time>
      </trkpt>
      <trkpt lat="47.29953" lon="-1.3387">
        <ele>61</ele>
        <time>2021-03-27T11:27:18.000Z</time>
      </trkpt>
      <trkpt lat="47.29957" lon="-1.33888">
        <ele>61</ele>
        <time>2021-03-27T11:27:20.000Z</time>
      </trkpt>
      <trkpt lat="47.2996" lon="-1.33905">
        <ele>61</ele>
        <time>2021-03-27T11:27:22.000Z</time>
      </trkpt>
      <trkpt lat="47.29963" lon="-1.33922">
        <ele>61</ele>
        <time>2021-03-27T11:27:24.000Z</time>
      </trkpt>
      <trkpt lat="47.29966" lon="-1.33938">
        <ele>60</ele>
        <time>2021-03-27T11:27:26.000Z</time>
      </trkpt>
      <trkpt lat="47.29968" lon="-1.33954">
        <ele>60</ele>
        <time>2021-03-27T11:27:28.000Z</time>
      </trkpt>
      <trkpt lat="47.29968" lon="-1.33971">
        <ele>60</ele>
        <time>2021-03-27T11:27:30.000Z</time>
      </trkpt>
      <trkpt lat="47.29968" lon="-1.33984">
        <ele>60</ele>
        <time>2021-03-27T11:27:32.000Z</time>
      </trkpt>
      <trkpt lat="47.29974" lon="-1.33996">
        <ele>60</ele>
        <time>2021-03-27T11:28:06.000Z</time>
      </trkpt>
      <trkpt lat="47.29981" lon="-1.34004">
        <ele>60</ele>
        <time>2021-03-27T11:28:10.000Z</time>
      </trkpt>
      <trkpt lat="47.29983" lon="-1.3402">
        <ele>61</ele>
        <time>2021-03-27T11:28:13.000Z</time>
      </trkpt>
      <trkpt lat="47.29985" lon="-1.34033">
        <ele>61</ele>
        <time>2021-03-27T11:28:15.000Z</time>
      </trkpt>
      <trkpt lat="47.29988" lon="-1.34048">
        <ele>61</ele>
        <time>2021-03-27T11:28:17.000Z</time>
      </trkpt>
      <trkpt lat="47.29991" lon="-1.34064">
        <ele>61</ele>
        <time>2021-03-27T11:28:19.000Z</time>
      </trkpt>
      <trkpt lat="47.29994" lon="-1.34081">
        <ele>61</ele>
        <time>2021-03-27T11:28:21.000Z</time>
      </trkpt>
      <trkpt lat="47.29998" lon="-1.34099">
        <ele>60</ele>
        <time>2021-03-27T11:28:23.000Z</time>
      </trkpt>
      <trkpt lat="47.30002" lon="-1.34117">
        <ele>60</ele>
        <time>2021-03-27T11:28:25.000Z</time>
      </trkpt>
      <trkpt lat="47.30006" lon="-1.34136">
        <ele>59</ele>
        <time>2021-03-27T11:28:27.000Z</time>
      </trkpt>
      <trkpt lat="47.3001" lon="-1.34156">
        <ele>60</ele>
        <time>2021-03-27T11:28:29.000Z</time>
      </trkpt>
      <trkpt lat="47.30013" lon="-1.34175">
        <ele>59</ele>
        <time>2021-03-27T11:28:31.000Z</time>
      </trkpt>
      <trkpt lat="47.30017" lon="-1.34194">
        <ele>59</ele>
        <time>2021-03-27T11:28:33.000Z</time>
      </trkpt>
      <trkpt lat="47.30021" lon="-1.34213">
        <ele>59</ele>
        <time>2021-03-27T11:28:35.000Z</time>
      </trkpt>
      <trkpt lat="47.30024" lon="-1.34231">
        <ele>59</ele>
        <time>2021-03-27T11:28:37.000Z</time>
      </trkpt>
      <trkpt lat="47.30028" lon="-1.34249">
        <ele>59</ele>
        <time>2021-03-27T11:28:39.000Z</time>
      </trkpt>
      <trkpt lat="47.30031" lon="-1.34266">
        <ele>59</ele>
        <time>2021-03-27T11:28:41.000Z</time>
      </trkpt>
      <trkpt lat="47.30034" lon="-1.34283">
        <ele>60</ele>
        <time>2021-03-27T11:28:43.000Z</time>
      </trkpt>
      <trkpt lat="47.30037" lon="-1.343">
        <ele>60</ele>
        <time>2021-03-27T11:28:45.000Z</time>
      </trkpt>
      <trkpt lat="47.30041" lon="-1.34317">
        <ele>60</ele>
        <time>2021-03-27T11:28:47.000Z</time>
      </trkpt>
      <trkpt lat="47.30045" lon="-1.34334">
        <ele>59</ele>
        <time>2021-03-27T11:28:49.000Z</time>
      </trkpt>
      <trkpt lat="47.30048" lon="-1.34351">
        <ele>59</ele>
        <time>2021-03-27T11:28:51.000Z</time>
      </trkpt>
      <trkpt lat="47.30052" lon="-1.34367">
        <ele>59</ele>
        <time>2021-03-27T11:28:53.000Z</time>
      </trkpt>
      <trkpt lat="47.30055" lon="-1.34384">
        <ele>58</ele>
        <time>2021-03-27T11:28:55.000Z</time>
      </trkpt>
      <trkpt lat="47.30058" lon="-1.34401">
        <ele>58</ele>
        <time>2021-03-27T11:28:57.000Z</time>
      </trkpt>
      <trkpt lat="47.30062" lon="-1.34418">
        <ele>58</ele>
        <time>2021-03-27T11:28:59.000Z</time>
      </trkpt>
      <trkpt lat="47.30065" lon="-1.34435">
        <ele>57</ele>
        <time>2021-03-27T11:29:01.000Z</time>
      </trkpt>
      <trkpt lat="47.30069" lon="-1.34453">
        <ele>58</ele>
        <time>2021-03-27T11:29:03.000Z</time>
      </trkpt>
      <trkpt lat="47.30072" lon="-1.3447">
        <ele>58</ele>
        <time>2021-03-27T11:29:05.000Z</time>
      </trkpt>
      <trkpt lat="47.30075" lon="-1.34488">
        <ele>57</ele>
        <time>2021-03-27T11:29:07.000Z</time>
      </trkpt>
      <trkpt lat="47.30079" lon="-1.34506">
        <ele>57</ele>
        <time>2021-03-27T11:29:09.000Z</time>
      </trkpt>
      <trkpt lat="47.30083" lon="-1.34524">
        <ele>57</ele>
        <time>2021-03-27T11:29:11.000Z</time>
      </trkpt>
      <trkpt lat="47.30085" lon="-1.34541">
        <ele>56</ele>
        <time>2021-03-27T11:29:13.000Z</time>
      </trkpt>
      <trkpt lat="47.30089" lon="-1.34559">
        <ele>56</ele>
        <time>2021-03-27T11:29:15.000Z</time>
      </trkpt>
      <trkpt lat="47.30092" lon="-1.34577">
        <ele>56</ele>
        <time>2021-03-27T11:29:17.000Z</time>
      </trkpt>
      <trkpt lat="47.30095" lon="-1.34595">
        <ele>56</ele>
        <time>2021-03-27T11:29:19.000Z</time>
      </trkpt>
      <trkpt lat="47.30097" lon="-1.34613">
        <ele>57</ele>
        <time>2021-03-27T11:29:21.000Z</time>
      </trkpt>
      <trkpt lat="47.301" lon="-1.34631">
        <ele>57</ele>
        <time>2021-03-27T11:29:23.000Z</time>
      </trkpt>
      <trkpt lat="47.30103" lon="-1.34649">
        <ele>57</ele>
        <time>2021-03-27T11:29:25.000Z</time>
      </trkpt>
      <trkpt lat="47.30105" lon="-1.34668">
        <ele>57</ele>
        <time>2021-03-27T11:29:27.000Z</time>
      </trkpt>
      <trkpt lat="47.30106" lon="-1.34687">
        <ele>56</ele>
        <time>2021-03-27T11:29:29.000Z</time>
      </trkpt>
      <trkpt lat="47.30107" lon="-1.34706">
        <ele>56</ele>
        <time>2021-03-27T11:29:31.000Z</time>
      </trkpt>
      <trkpt lat="47.30107" lon="-1.34725">
        <ele>57</ele>
        <time>2021-03-27T11:29:33.000Z</time>
      </trkpt>
      <trkpt lat="47.30106" lon="-1.34744">
        <ele>57</ele>
        <time>2021-03-27T11:29:35.000Z</time>
      </trkpt>
      <trkpt lat="47.30106" lon="-1.34763">
        <ele>57</ele>
        <time>2021-03-27T11:29:37.000Z</time>
      </trkpt>
      <trkpt lat="47.30108" lon="-1.34781">
        <ele>57</ele>
        <time>2021-03-27T11:29:39.000Z</time>
      </trkpt>
      <trkpt lat="47.3011" lon="-1.348">
        <ele>56</ele>
        <time>2021-03-27T11:29:41.000Z</time>
      </trkpt>
      <trkpt lat="47.3011" lon="-1.3482">
        <ele>54</ele>
        <time>2021-03-27T11:29:43.000Z</time>
      </trkpt>
      <trkpt lat="47.30108" lon="-1.3484">
        <ele>55</ele>
        <time>2021-03-27T11:29:45.000Z</time>
      </trkpt>
      <trkpt lat="47.30107" lon="-1.34858">
        <ele>55</ele>
        <time>2021-03-27T11:29:47.000Z</time>
      </trkpt>
      <trkpt lat="47.30105" lon="-1.34875">
        <ele>55</ele>
        <time>2021-03-27T11:29:49.000Z</time>
      </trkpt>
      <trkpt lat="47.30103" lon="-1.34892">
        <ele>55</ele>
        <time>2021-03-27T11:29:51.000Z</time>
      </trkpt>
      <trkpt lat="47.301" lon="-1.3491">
        <ele>55</ele>
        <time>2021-03-27T11:29:53.000Z</time>
      </trkpt>
      <trkpt lat="47.30098" lon="-1.34926">
        <ele>55</ele>
        <time>2021-03-27T11:29:55.000Z</time>
      </trkpt>
      <trkpt lat="47.30095" lon="-1.34942">
        <ele>55</ele>
        <time>2021-03-27T11:29:57.000Z</time>
      </trkpt>
      <trkpt lat="47.30092" lon="-1.34957">
        <ele>55</ele>
        <time>2021-03-27T11:29:59.000Z</time>
      </trkpt>
      <trkpt lat="47.30086" lon="-1.34971">
        <ele>54</ele>
        <time>2021-03-27T11:30:01.000Z</time>
      </trkpt>
      <trkpt lat="47.30079" lon="-1.34988">
        <ele>54</ele>
        <time>2021-03-27T11:30:03.000Z</time>
      </trkpt>
      <trkpt lat="47.30074" lon="-1.35006">
        <ele>54</ele>
        <time>2021-03-27T11:30:05.000Z</time>
      </trkpt>
      <trkpt lat="47.30068" lon="-1.35023">
        <ele>54</ele>
        <time>2021-03-27T11:30:07.000Z</time>
      </trkpt>
      <trkpt lat="47.30063" lon="-1.3504">
        <ele>55</ele>
        <time>2021-03-27T11:30:09.000Z</time>
      </trkpt>
      <trkpt lat="47.30057" lon="-1.35055">
        <ele>54</ele>
        <time>2021-03-27T11:30:11.000Z</time>
      </trkpt>
      <trkpt lat="47.30052" lon="-1.3507">
        <ele>54</ele>
        <time>2021-03-27T11:30:13.000Z</time>
      </trkpt>
      <trkpt lat="47.30046" lon="-1.35085">
        <ele>54</ele>
        <time>2021-03-27T11:30:15.000Z</time>
      </trkpt>
      <trkpt lat="47.30039" lon="-1.351">
        <ele>54</ele>
        <time>2021-03-27T11:30:17.000Z</time>
      </trkpt>
      <trkpt lat="47.30032" lon="-1.35113">
        <ele>54</ele>
        <time>2021-03-27T11:30:19.000Z</time>
      </trkpt>
      <trkpt lat="47.30026" lon="-1.35126">
        <ele>54</ele>
        <time>2021-03-27T11:30:21.000Z</time>
      </trkpt>
      <trkpt lat="47.30019" lon="-1.35139">
        <ele>54</ele>
        <time>2021-03-27T11:30:23.000Z</time>
      </trkpt>
      <trkpt lat="47.30013" lon="-1.35151">
        <ele>53</ele>
        <time>2021-03-27T11:30:25.000Z</time>
      </trkpt>
      <trkpt lat="47.30006" lon="-1.35165">
        <ele>53</ele>
        <time>2021-03-27T11:30:27.000Z</time>
      </trkpt>
      <trkpt lat="47.29999" lon="-1.35178">
        <ele>53</ele>
        <time>2021-03-27T11:30:29.000Z</time>
      </trkpt>
      <trkpt lat="47.29992" lon="-1.35191">
        <ele>53</ele>
        <time>2021-03-27T11:30:31.000Z</time>
      </trkpt>
      <trkpt lat="47.29986" lon="-1.35205">
        <ele>53</ele>
        <time>2021-03-27T11:30:33.000Z</time>
      </trkpt>
      <trkpt lat="47.29979" lon="-1.35219">
        <ele>53</ele>
        <time>2021-03-27T11:30:35.000Z</time>
      </trkpt>
      <trkpt lat="47.29972" lon="-1.35232">
        <ele>53</ele>
        <time>2021-03-27T11:30:37.000Z</time>
      </trkpt>
      <trkpt lat="47.29965" lon="-1.35246">
        <ele>53</ele>
        <time>2021-03-27T11:30:39.000Z</time>
      </trkpt>
      <trkpt lat="47.29958" lon="-1.3526">
        <ele>53</ele>
        <time>2021-03-27T11:30:41.000Z</time>
      </trkpt>
      <trkpt lat="47.29951" lon="-1.35273">
        <ele>53</ele>
        <time>2021-03-27T11:30:43.000Z</time>
      </trkpt>
      <trkpt lat="47.29944" lon="-1.35286">
        <ele>53</ele>
        <time>2021-03-27T11:30:45.000Z</time>
      </trkpt>
      <trkpt lat="47.29938" lon="-1.353">
        <ele>53</ele>
        <time>2021-03-27T11:30:47.000Z</time>
      </trkpt>
      <trkpt lat="47.29931" lon="-1.35313">
        <ele>53</ele>
        <time>2021-03-27T11:30:49.000Z</time>
      </trkpt>
      <trkpt lat="47.29924" lon="-1.35327">
        <ele>53</ele>
        <time>2021-03-27T11:30:51.000Z</time>
      </trkpt>
      <trkpt lat="47.29917" lon="-1.3534">
        <ele>53</ele>
        <time>2021-03-27T11:30:53.000Z</time>
      </trkpt>
      <trkpt lat="47.2991" lon="-1.35354">
        <ele>53</ele>
        <time>2021-03-27T11:30:55.000Z</time>
      </trkpt>
      <trkpt lat="47.29903" lon="-1.35367">
        <ele>53</ele>
        <time>2021-03-27T11:30:57.000Z</time>
      </trkpt>
      <trkpt lat="47.29896" lon="-1.3538">
        <ele>53</ele>
        <time>2021-03-27T11:30:59.000Z</time>
      </trkpt>
      <trkpt lat="47.29889" lon="-1.35394">
        <ele>53</ele>
        <time>2021-03-27T11:31:01.000Z</time>
      </trkpt>
      <trkpt lat="47.29881" lon="-1.35407">
        <ele>53</ele>
        <time>2021-03-27T11:31:03.000Z</time>
      </trkpt>
      <trkpt lat="47.29873" lon="-1.3542">
        <ele>54</ele>
        <time>2021-03-27T11:31:05.000Z</time>
      </trkpt>
      <trkpt lat="47.29866" lon="-1.35434">
        <ele>54</ele>
        <time>2021-03-27T11:31:07.000Z</time>
      </trkpt>
      <trkpt lat="47.29859" lon="-1.35447">
        <ele>55</ele>
        <time>2021-03-27T11:31:09.000Z</time>
      </trkpt>
      <trkpt lat="47.29852" lon="-1.3546">
        <ele>55</ele>
        <time>2021-03-27T11:31:11.000Z</time>
      </trkpt>
      <trkpt lat="47.29845" lon="-1.35473">
        <ele>56</ele>
        <time>2021-03-27T11:31:13.000Z</time>
      </trkpt>
      <trkpt lat="47.29839" lon="-1.35486">
        <ele>56</ele>
        <time>2021-03-27T11:31:15.000Z</time>
      </trkpt>
      <trkpt lat="47.29832" lon="-1.35499">
        <ele>57</ele>
        <time>2021-03-27T11:31:17.000Z</time>
      </trkpt>
      <trkpt lat="47.29825" lon="-1.35512">
        <ele>57</ele>
        <time>2021-03-27T11:31:19.000Z</time>
      </trkpt>
      <trkpt lat="47.29818" lon="-1.35525">
        <ele>57</ele>
        <time>2021-03-27T11:31:21.000Z</time>
      </trkpt>
      <trkpt lat="47.29812" lon="-1.35537">
        <ele>57</ele>
        <time>2021-03-27T11:31:23.000Z</time>
      </trkpt>
      <trkpt lat="47.29805" lon="-1.35549">
        <ele>56</ele>
        <time>2021-03-27T11:31:25.000Z</time>
      </trkpt>
      <trkpt lat="47.29799" lon="-1.35562">
        <ele>56</ele>
        <time>2021-03-27T11:31:27.000Z</time>
      </trkpt>
      <trkpt lat="47.29793" lon="-1.35575">
        <ele>56</ele>
        <time>2021-03-27T11:31:29.000Z</time>
      </trkpt>
      <trkpt lat="47.29786" lon="-1.35588">
        <ele>56</ele>
        <time>2021-03-27T11:31:31.000Z</time>
      </trkpt>
      <trkpt lat="47.29779" lon="-1.35601">
        <ele>55</ele>
        <time>2021-03-27T11:31:33.000Z</time>
      </trkpt>
      <trkpt lat="47.29774" lon="-1.35615">
        <ele>56</ele>
        <time>2021-03-27T11:31:35.000Z</time>
      </trkpt>
      <trkpt lat="47.2977" lon="-1.3563">
        <ele>55</ele>
        <time>2021-03-27T11:31:37.000Z</time>
      </trkpt>
      <trkpt lat="47.29765" lon="-1.35644">
        <ele>55</ele>
        <time>2021-03-27T11:31:39.000Z</time>
      </trkpt>
      <trkpt lat="47.29759" lon="-1.35657">
        <ele>55</ele>
        <time>2021-03-27T11:31:41.000Z</time>
      </trkpt>
      <trkpt lat="47.29752" lon="-1.35669">
        <ele>55</ele>
        <time>2021-03-27T11:31:43.000Z</time>
      </trkpt>
      <trkpt lat="47.29745" lon="-1.3568">
        <ele>55</ele>
        <time>2021-03-27T11:31:45.000Z</time>
      </trkpt>
      <trkpt lat="47.29737" lon="-1.35687">
        <ele>55</ele>
        <time>2021-03-27T11:31:47.000Z</time>
      </trkpt>
      <trkpt lat="47.29729" lon="-1.35698">
        <ele>55</ele>
        <time>2021-03-27T11:31:49.000Z</time>
      </trkpt>
      <trkpt lat="47.29723" lon="-1.3571">
        <ele>55</ele>
        <time>2021-03-27T11:31:51.000Z</time>
      </trkpt>
      <trkpt lat="47.29717" lon="-1.35723">
        <ele>55</ele>
        <time>2021-03-27T11:31:53.000Z</time>
      </trkpt>
      <trkpt lat="47.2971" lon="-1.35736">
        <ele>55</ele>
        <time>2021-03-27T11:31:55.000Z</time>
      </trkpt>
      <trkpt lat="47.29704" lon="-1.35749">
        <ele>55</ele>
        <time>2021-03-27T11:31:57.000Z</time>
      </trkpt>
      <trkpt lat="47.297" lon="-1.35764">
        <ele>55</ele>
        <time>2021-03-27T11:31:59.000Z</time>
      </trkpt>
      <trkpt lat="47.29697" lon="-1.35779">
        <ele>55</ele>
        <time>2021-03-27T11:32:01.000Z</time>
      </trkpt>
      <trkpt lat="47.29693" lon="-1.35794">
        <ele>55</ele>
        <time>2021-03-27T11:32:03.000Z</time>
      </trkpt>
      <trkpt lat="47.29686" lon="-1.35805">
        <ele>55</ele>
        <time>2021-03-27T11:32:05.000Z</time>
      </trkpt>
      <trkpt lat="47.29677" lon="-1.35812">
        <ele>55</ele>
        <time>2021-03-27T11:32:07.000Z</time>
      </trkpt>
      <trkpt lat="47.29668" lon="-1.35821">
        <ele>55</ele>
        <time>2021-03-27T11:32:09.000Z</time>
      </trkpt>
      <trkpt lat="47.2966" lon="-1.35833">
        <ele>54</ele>
        <time>2021-03-27T11:32:11.000Z</time>
      </trkpt>
      <trkpt lat="47.29653" lon="-1.35846">
        <ele>54</ele>
        <time>2021-03-27T11:32:13.000Z</time>
      </trkpt>
      <trkpt lat="47.29646" lon="-1.3586">
        <ele>54</ele>
        <time>2021-03-27T11:32:15.000Z</time>
      </trkpt>
      <trkpt lat="47.2964" lon="-1.35872">
        <ele>54</ele>
        <time>2021-03-27T11:32:17.000Z</time>
      </trkpt>
      <trkpt lat="47.29633" lon="-1.35885">
        <ele>54</ele>
        <time>2021-03-27T11:32:19.000Z</time>
      </trkpt>
      <trkpt lat="47.29626" lon="-1.35899">
        <ele>54</ele>
        <time>2021-03-27T11:32:21.000Z</time>
      </trkpt>
      <trkpt lat="47.29619" lon="-1.35912">
        <ele>55</ele>
        <time>2021-03-27T11:32:23.000Z</time>
      </trkpt>
      <trkpt lat="47.29612" lon="-1.35925">
        <ele>55</ele>
        <time>2021-03-27T11:32:25.000Z</time>
      </trkpt>
      <trkpt lat="47.29605" lon="-1.35938">
        <ele>55</ele>
        <time>2021-03-27T11:32:27.000Z</time>
      </trkpt>
      <trkpt lat="47.29598" lon="-1.35952">
        <ele>55</ele>
        <time>2021-03-27T11:32:29.000Z</time>
      </trkpt>
      <trkpt lat="47.29591" lon="-1.35966">
        <ele>55</ele>
        <time>2021-03-27T11:32:31.000Z</time>
      </trkpt>
      <trkpt lat="47.29584" lon="-1.35979">
        <ele>55</ele>
        <time>2021-03-27T11:32:33.000Z</time>
      </trkpt>
      <trkpt lat="47.29577" lon="-1.35993">
        <ele>55</ele>
        <time>2021-03-27T11:32:35.000Z</time>
      </trkpt>
      <trkpt lat="47.2957" lon="-1.36007">
        <ele>55</ele>
        <time>2021-03-27T11:32:37.000Z</time>
      </trkpt>
      <trkpt lat="47.29563" lon="-1.3602">
        <ele>54</ele>
        <time>2021-03-27T11:32:39.000Z</time>
      </trkpt>
      <trkpt lat="47.29557" lon="-1.36034">
        <ele>54</ele>
        <time>2021-03-27T11:32:41.000Z</time>
      </trkpt>
      <trkpt lat="47.29549" lon="-1.36048">
        <ele>55</ele>
        <time>2021-03-27T11:32:43.000Z</time>
      </trkpt>
      <trkpt lat="47.29542" lon="-1.36061">
        <ele>55</ele>
        <time>2021-03-27T11:32:45.000Z</time>
      </trkpt>
      <trkpt lat="47.29535" lon="-1.36075">
        <ele>55</ele>
        <time>2021-03-27T11:32:47.000Z</time>
      </trkpt>
      <trkpt lat="47.29528" lon="-1.3609">
        <ele>55</ele>
        <time>2021-03-27T11:32:49.000Z</time>
      </trkpt>
      <trkpt lat="47.29521" lon="-1.36103">
        <ele>55</ele>
        <time>2021-03-27T11:32:51.000Z</time>
      </trkpt>
      <trkpt lat="47.29514" lon="-1.36117">
        <ele>55</ele>
        <time>2021-03-27T11:32:53.000Z</time>
      </trkpt>
      <trkpt lat="47.29507" lon="-1.36131">
        <ele>55</ele>
        <time>2021-03-27T11:32:55.000Z</time>
      </trkpt>
      <trkpt lat="47.295" lon="-1.36145">
        <ele>55</ele>
        <time>2021-03-27T11:32:57.000Z</time>
      </trkpt>
      <trkpt lat="47.29492" lon="-1.36159">
        <ele>54</ele>
        <time>2021-03-27T11:32:59.000Z</time>
      </trkpt>
      <trkpt lat="47.29485" lon="-1.36173">
        <ele>54</ele>
        <time>2021-03-27T11:33:01.000Z</time>
      </trkpt>
      <trkpt lat="47.29477" lon="-1.36188">
        <ele>54</ele>
        <time>2021-03-27T11:33:03.000Z</time>
      </trkpt>
      <trkpt lat="47.2947" lon="-1.36203">
        <ele>55</ele>
        <time>2021-03-27T11:33:05.000Z</time>
      </trkpt>
      <trkpt lat="47.29463" lon="-1.36217">
        <ele>54</ele>
        <time>2021-03-27T11:33:07.000Z</time>
      </trkpt>
      <trkpt lat="47.29455" lon="-1.36232">
        <ele>54</ele>
        <time>2021-03-27T11:33:09.000Z</time>
      </trkpt>
      <trkpt lat="47.29448" lon="-1.36246">
        <ele>55</ele>
        <time>2021-03-27T11:33:11.000Z</time>
      </trkpt>
      <trkpt lat="47.29441" lon="-1.3626">
        <ele>55</ele>
        <time>2021-03-27T11:33:13.000Z</time>
      </trkpt>
      <trkpt lat="47.29433" lon="-1.36274">
        <ele>55</ele>
        <time>2021-03-27T11:33:15.000Z</time>
      </trkpt>
      <trkpt lat="47.29426" lon="-1.36289">
        <ele>55</ele>
        <time>2021-03-27T11:33:17.000Z</time>
      </trkpt>
      <trkpt lat="47.29418" lon="-1.36303">
        <ele>55</ele>
        <time>2021-03-27T11:33:19.000Z</time>
      </trkpt>
      <trkpt lat="47.29411" lon="-1.36317">
        <ele>54</ele>
        <time>2021-03-27T11:33:21.000Z</time>
      </trkpt>
      <trkpt lat="47.29403" lon="-1.36331">
        <ele>54</ele>
        <time>2021-03-27T11:33:23.000Z</time>
      </trkpt>
      <trkpt lat="47.29396" lon="-1.36345">
        <ele>54</ele>
        <time>2021-03-27T11:33:25.000Z</time>
      </trkpt>
      <trkpt lat="47.29389" lon="-1.36358">
        <ele>54</ele>
        <time>2021-03-27T11:33:27.000Z</time>
      </trkpt>
      <trkpt lat="47.29382" lon="-1.36373">
        <ele>54</ele>
        <time>2021-03-27T11:33:29.000Z</time>
      </trkpt>
      <trkpt lat="47.29375" lon="-1.36387">
        <ele>54</ele>
        <time>2021-03-27T11:33:31.000Z</time>
      </trkpt>
      <trkpt lat="47.29369" lon="-1.364">
        <ele>54</ele>
        <time>2021-03-27T11:33:33.000Z</time>
      </trkpt>
      <trkpt lat="47.29362" lon="-1.36415">
        <ele>54</ele>
        <time>2021-03-27T11:33:35.000Z</time>
      </trkpt>
      <trkpt lat="47.29355" lon="-1.3643">
        <ele>54</ele>
        <time>2021-03-27T11:33:37.000Z</time>
      </trkpt>
      <trkpt lat="47.29349" lon="-1.36445">
        <ele>54</ele>
        <time>2021-03-27T11:33:39.000Z</time>
      </trkpt>
      <trkpt lat="47.29341" lon="-1.36459">
        <ele>54</ele>
        <time>2021-03-27T11:33:41.000Z</time>
      </trkpt>
      <trkpt lat="47.29332" lon="-1.36472">
        <ele>54</ele>
        <time>2021-03-27T11:33:43.000Z</time>
      </trkpt>
      <trkpt lat="47.29324" lon="-1.36485">
        <ele>54</ele>
        <time>2021-03-27T11:33:45.000Z</time>
      </trkpt>
      <trkpt lat="47.29318" lon="-1.36499">
        <ele>54</ele>
        <time>2021-03-27T11:33:47.000Z</time>
      </trkpt>
      <trkpt lat="47.2931" lon="-1.36513">
        <ele>54</ele>
        <time>2021-03-27T11:33:49.000Z</time>
      </trkpt>
      <trkpt lat="47.29303" lon="-1.36527">
        <ele>53</ele>
        <time>2021-03-27T11:33:51.000Z</time>
      </trkpt>
      <trkpt lat="47.29296" lon="-1.36542">
        <ele>53</ele>
        <time>2021-03-27T11:33:53.000Z</time>
      </trkpt>
      <trkpt lat="47.29288" lon="-1.36555">
        <ele>53</ele>
        <time>2021-03-27T11:33:55.000Z</time>
      </trkpt>
      <trkpt lat="47.29281" lon="-1.3657">
        <ele>53</ele>
        <time>2021-03-27T11:33:57.000Z</time>
      </trkpt>
      <trkpt lat="47.29274" lon="-1.36584">
        <ele>53</ele>
        <time>2021-03-27T11:33:59.000Z</time>
      </trkpt>
      <trkpt lat="47.29267" lon="-1.36597">
        <ele>53</ele>
        <time>2021-03-27T11:34:01.000Z</time>
      </trkpt>
      <trkpt lat="47.2926" lon="-1.36612">
        <ele>53</ele>
        <time>2021-03-27T11:34:03.000Z</time>
      </trkpt>
      <trkpt lat="47.29252" lon="-1.36626">
        <ele>53</ele>
        <time>2021-03-27T11:34:05.000Z</time>
      </trkpt>
      <trkpt lat="47.29245" lon="-1.36639">
        <ele>54</ele>
        <time>2021-03-27T11:34:07.000Z</time>
      </trkpt>
      <trkpt lat="47.29238" lon="-1.36652">
        <ele>54</ele>
        <time>2021-03-27T11:34:09.000Z</time>
      </trkpt>
      <trkpt lat="47.29231" lon="-1.36665">
        <ele>54</ele>
        <time>2021-03-27T11:34:11.000Z</time>
      </trkpt>
      <trkpt lat="47.29224" lon="-1.36679">
        <ele>54</ele>
        <time>2021-03-27T11:34:13.000Z</time>
      </trkpt>
      <trkpt lat="47.29217" lon="-1.36692">
        <ele>54</ele>
        <time>2021-03-27T11:34:15.000Z</time>
      </trkpt>
      <trkpt lat="47.2921" lon="-1.36705">
        <ele>54</ele>
        <time>2021-03-27T11:34:17.000Z</time>
      </trkpt>
      <trkpt lat="47.29203" lon="-1.36719">
        <ele>54</ele>
        <time>2021-03-27T11:34:19.000Z</time>
      </trkpt>
      <trkpt lat="47.29196" lon="-1.36732">
        <ele>54</ele>
        <time>2021-03-27T11:34:21.000Z</time>
      </trkpt>
      <trkpt lat="47.29189" lon="-1.36746">
        <ele>54</ele>
        <time>2021-03-27T11:34:23.000Z</time>
      </trkpt>
      <trkpt lat="47.29182" lon="-1.3676">
        <ele>54</ele>
        <time>2021-03-27T11:34:25.000Z</time>
      </trkpt>
      <trkpt lat="47.29175" lon="-1.36773">
        <ele>54</ele>
        <time>2021-03-27T11:34:27.000Z</time>
      </trkpt>
      <trkpt lat="47.29168" lon="-1.36787">
        <ele>54</ele>
        <time>2021-03-27T11:34:29.000Z</time>
      </trkpt>
      <trkpt lat="47.29161" lon="-1.36801">
        <ele>54</ele>
        <time>2021-03-27T11:34:31.000Z</time>
      </trkpt>
      <trkpt lat="47.29154" lon="-1.36815">
        <ele>54</ele>
        <time>2021-03-27T11:34:33.000Z</time>
      </trkpt>
      <trkpt lat="47.29147" lon="-1.36829">
        <ele>54</ele>
        <time>2021-03-27T11:34:35.000Z</time>
      </trkpt>
      <trkpt lat="47.2914" lon="-1.36842">
        <ele>54</ele>
        <time>2021-03-27T11:34:37.000Z</time>
      </trkpt>
      <trkpt lat="47.29134" lon="-1.36856">
        <ele>54</ele>
        <time>2021-03-27T11:34:39.000Z</time>
      </trkpt>
      <trkpt lat="47.29127" lon="-1.36868">
        <ele>53</ele>
        <time>2021-03-27T11:34:41.000Z</time>
      </trkpt>
      <trkpt lat="47.2912" lon="-1.36882">
        <ele>53</ele>
        <time>2021-03-27T11:34:43.000Z</time>
      </trkpt>
      <trkpt lat="47.29113" lon="-1.36895">
        <ele>54</ele>
        <time>2021-03-27T11:34:45.000Z</time>
      </trkpt>
      <trkpt lat="47.29106" lon="-1.36908">
        <ele>54</ele>
        <time>2021-03-27T11:34:47.000Z</time>
      </trkpt>
      <trkpt lat="47.29099" lon="-1.36921">
        <ele>54</ele>
        <time>2021-03-27T11:34:49.000Z</time>
      </trkpt>
      <trkpt lat="47.29093" lon="-1.36935">
        <ele>54</ele>
        <time>2021-03-27T11:34:51.000Z</time>
      </trkpt>
      <trkpt lat="47.29089" lon="-1.36951">
        <ele>54</ele>
        <time>2021-03-27T11:34:53.000Z</time>
      </trkpt>
      <trkpt lat="47.29085" lon="-1.36965">
        <ele>54</ele>
        <time>2021-03-27T11:34:55.000Z</time>
      </trkpt>
      <trkpt lat="47.29079" lon="-1.36978">
        <ele>55</ele>
        <time>2021-03-27T11:34:57.000Z</time>
      </trkpt>
      <trkpt lat="47.29071" lon="-1.36986">
        <ele>56</ele>
        <time>2021-03-27T11:34:59.000Z</time>
      </trkpt>
      <trkpt lat="47.29062" lon="-1.36993">
        <ele>56</ele>
        <time>2021-03-27T11:35:01.000Z</time>
      </trkpt>
      <trkpt lat="47.29056" lon="-1.37005">
        <ele>55</ele>
        <time>2021-03-27T11:35:03.000Z</time>
      </trkpt>
      <trkpt lat="47.29048" lon="-1.37022">
        <ele>54</ele>
        <time>2021-03-27T11:35:05.000Z</time>
      </trkpt>
      <trkpt lat="47.2904" lon="-1.37038">
        <ele>54</ele>
        <time>2021-03-27T11:35:07.000Z</time>
      </trkpt>
      <trkpt lat="47.29033" lon="-1.37053">
        <ele>54</ele>
        <time>2021-03-27T11:35:09.000Z</time>
      </trkpt>
      <trkpt lat="47.29025" lon="-1.3707">
        <ele>54</ele>
        <time>2021-03-27T11:35:11.000Z</time>
      </trkpt>
      <trkpt lat="47.29017" lon="-1.37085">
        <ele>54</ele>
        <time>2021-03-27T11:35:13.000Z</time>
      </trkpt>
      <trkpt lat="47.2901" lon="-1.37101">
        <ele>53</ele>
        <time>2021-03-27T11:35:15.000Z</time>
      </trkpt>
      <trkpt lat="47.29003" lon="-1.37117">
        <ele>53</ele>
        <time>2021-03-27T11:35:17.000Z</time>
      </trkpt>
      <trkpt lat="47.28995" lon="-1.37133">
        <ele>52</ele>
        <time>2021-03-27T11:35:19.000Z</time>
      </trkpt>
      <trkpt lat="47.28989" lon="-1.37149">
        <ele>52</ele>
        <time>2021-03-27T11:35:21.000Z</time>
      </trkpt>
      <trkpt lat="47.28982" lon="-1.37164">
        <ele>52</ele>
        <time>2021-03-27T11:35:23.000Z</time>
      </trkpt>
      <trkpt lat="47.28976" lon="-1.3718">
        <ele>52</ele>
        <time>2021-03-27T11:35:25.000Z</time>
      </trkpt>
      <trkpt lat="47.2897" lon="-1.37195">
        <ele>52</ele>
        <time>2021-03-27T11:35:27.000Z</time>
      </trkpt>
      <trkpt lat="47.28964" lon="-1.37209">
        <ele>52</ele>
        <time>2021-03-27T11:35:29.000Z</time>
      </trkpt>
      <trkpt lat="47.28959" lon="-1.37224">
        <ele>52</ele>
        <time>2021-03-27T11:35:31.000Z</time>
      </trkpt>
      <trkpt lat="47.28954" lon="-1.37239">
        <ele>52</ele>
        <time>2021-03-27T11:35:33.000Z</time>
      </trkpt>
      <trkpt lat="47.28949" lon="-1.37254">
        <ele>52</ele>
        <time>2021-03-27T11:35:35.000Z</time>
      </trkpt>
      <trkpt lat="47.28944" lon="-1.37269">
        <ele>52</ele>
        <time>2021-03-27T11:35:37.000Z</time>
      </trkpt>
      <trkpt lat="47.28939" lon="-1.37285">
        <ele>52</ele>
        <time>2021-03-27T11:35:39.000Z</time>
      </trkpt>
      <trkpt lat="47.28936" lon="-1.37301">
        <ele>52</ele>
        <time>2021-03-27T11:35:41.000Z</time>
      </trkpt>
      <trkpt lat="47.28931" lon="-1.37316">
        <ele>52</ele>
        <time>2021-03-27T11:35:43.000Z</time>
      </trkpt>
      <trkpt lat="47.28925" lon="-1.37331">
        <ele>52</ele>
        <time>2021-03-27T11:35:45.000Z</time>
      </trkpt>
      <trkpt lat="47.2892" lon="-1.37346">
        <ele>52</ele>
        <time>2021-03-27T11:35:47.000Z</time>
      </trkpt>
      <trkpt lat="47.28915" lon="-1.37361">
        <ele>52</ele>
        <time>2021-03-27T11:35:49.000Z</time>
      </trkpt>
      <trkpt lat="47.28911" lon="-1.37376">
        <ele>52</ele>
        <time>2021-03-27T11:35:51.000Z</time>
      </trkpt>
      <trkpt lat="47.28906" lon="-1.3739">
        <ele>52</ele>
        <time>2021-03-27T11:35:53.000Z</time>
      </trkpt>
      <trkpt lat="47.28901" lon="-1.37405">
        <ele>52</ele>
        <time>2021-03-27T11:35:55.000Z</time>
      </trkpt>
      <trkpt lat="47.28897" lon="-1.37421">
        <ele>52</ele>
        <time>2021-03-27T11:35:57.000Z</time>
      </trkpt>
      <trkpt lat="47.28892" lon="-1.37436">
        <ele>52</ele>
        <time>2021-03-27T11:35:59.000Z</time>
      </trkpt>
      <trkpt lat="47.28887" lon="-1.37451">
        <ele>52</ele>
        <time>2021-03-27T11:36:01.000Z</time>
      </trkpt>
      <trkpt lat="47.28883" lon="-1.37466">
        <ele>52</ele>
        <time>2021-03-27T11:36:03.000Z</time>
      </trkpt>
      <trkpt lat="47.28879" lon="-1.37481">
        <ele>52</ele>
        <time>2021-03-27T11:36:05.000Z</time>
      </trkpt>
      <trkpt lat="47.28875" lon="-1.37496">
        <ele>52</ele>
        <time>2021-03-27T11:36:07.000Z</time>
      </trkpt>
      <trkpt lat="47.28872" lon="-1.37512">
        <ele>52</ele>
        <time>2021-03-27T11:36:09.000Z</time>
      </trkpt>
      <trkpt lat="47.28867" lon="-1.37527">
        <ele>52</ele>
        <time>2021-03-27T11:36:11.000Z</time>
      </trkpt>
      <trkpt lat="47.28862" lon="-1.37541">
        <ele>52</ele>
        <time>2021-03-27T11:36:13.000Z</time>
      </trkpt>
      <trkpt lat="47.28857" lon="-1.37554">
        <ele>52</ele>
        <time>2021-03-27T11:36:15.000Z</time>
      </trkpt>
      <trkpt lat="47.28852" lon="-1.37567">
        <ele>52</ele>
        <time>2021-03-27T11:36:17.000Z</time>
      </trkpt>
      <trkpt lat="47.28852" lon="-1.37586">
        <ele>52</ele>
        <time>2021-03-27T11:36:20.000Z</time>
      </trkpt>
      <trkpt lat="47.28847" lon="-1.37605">
        <ele>53</ele>
        <time>2021-03-27T11:36:23.000Z</time>
      </trkpt>
      <trkpt lat="47.28838" lon="-1.3761">
        <ele>54</ele>
        <time>2021-03-27T11:36:25.000Z</time>
      </trkpt>
      <trkpt lat="47.28828" lon="-1.37616">
        <ele>54</ele>
        <time>2021-03-27T11:36:27.000Z</time>
      </trkpt>
      <trkpt lat="47.28818" lon="-1.37627">
        <ele>54</ele>
        <time>2021-03-27T11:36:29.000Z</time>
      </trkpt>
      <trkpt lat="47.28808" lon="-1.37638">
        <ele>54</ele>
        <time>2021-03-27T11:36:31.000Z</time>
      </trkpt>
      <trkpt lat="47.28798" lon="-1.37647">
        <ele>53</ele>
        <time>2021-03-27T11:36:33.000Z</time>
      </trkpt>
      <trkpt lat="47.28787" lon="-1.37654">
        <ele>53</ele>
        <time>2021-03-27T11:36:35.000Z</time>
      </trkpt>
      <trkpt lat="47.28777" lon="-1.37664">
        <ele>53</ele>
        <time>2021-03-27T11:36:37.000Z</time>
      </trkpt>
      <trkpt lat="47.28768" lon="-1.37674">
        <ele>53</ele>
        <time>2021-03-27T11:36:39.000Z</time>
      </trkpt>
      <trkpt lat="47.28759" lon="-1.37685">
        <ele>53</ele>
        <time>2021-03-27T11:36:41.000Z</time>
      </trkpt>
      <trkpt lat="47.2875" lon="-1.37696">
        <ele>53</ele>
        <time>2021-03-27T11:36:43.000Z</time>
      </trkpt>
      <trkpt lat="47.28741" lon="-1.37707">
        <ele>53</ele>
        <time>2021-03-27T11:36:45.000Z</time>
      </trkpt>
      <trkpt lat="47.28733" lon="-1.37719">
        <ele>53</ele>
        <time>2021-03-27T11:36:47.000Z</time>
      </trkpt>
      <trkpt lat="47.28724" lon="-1.37731">
        <ele>53</ele>
        <time>2021-03-27T11:36:49.000Z</time>
      </trkpt>
      <trkpt lat="47.28715" lon="-1.37741">
        <ele>53</ele>
        <time>2021-03-27T11:36:51.000Z</time>
      </trkpt>
      <trkpt lat="47.28705" lon="-1.3775">
        <ele>53</ele>
        <time>2021-03-27T11:36:53.000Z</time>
      </trkpt>
      <trkpt lat="47.28695" lon="-1.37759">
        <ele>53</ele>
        <time>2021-03-27T11:36:55.000Z</time>
      </trkpt>
      <trkpt lat="47.28686" lon="-1.37769">
        <ele>53</ele>
        <time>2021-03-27T11:36:57.000Z</time>
      </trkpt>
      <trkpt lat="47.28677" lon="-1.3778">
        <ele>53</ele>
        <time>2021-03-27T11:36:59.000Z</time>
      </trkpt>
      <trkpt lat="47.28667" lon="-1.37791">
        <ele>53</ele>
        <time>2021-03-27T11:37:01.000Z</time>
      </trkpt>
      <trkpt lat="47.28657" lon="-1.37801">
        <ele>53</ele>
        <time>2021-03-27T11:37:03.000Z</time>
      </trkpt>
      <trkpt lat="47.28648" lon="-1.37812">
        <ele>53</ele>
        <time>2021-03-27T11:37:05.000Z</time>
      </trkpt>
      <trkpt lat="47.28637" lon="-1.37824">
        <ele>53</ele>
        <time>2021-03-27T11:37:07.000Z</time>
      </trkpt>
      <trkpt lat="47.28628" lon="-1.37837">
        <ele>53</ele>
        <time>2021-03-27T11:37:09.000Z</time>
      </trkpt>
      <trkpt lat="47.28618" lon="-1.37849">
        <ele>53</ele>
        <time>2021-03-27T11:37:11.000Z</time>
      </trkpt>
      <trkpt lat="47.28608" lon="-1.37861">
        <ele>53</ele>
        <time>2021-03-27T11:37:13.000Z</time>
      </trkpt>
      <trkpt lat="47.28598" lon="-1.37872">
        <ele>53</ele>
        <time>2021-03-27T11:37:15.000Z</time>
      </trkpt>
      <trkpt lat="47.28588" lon="-1.37884">
        <ele>53</ele>
        <time>2021-03-27T11:37:17.000Z</time>
      </trkpt>
      <trkpt lat="47.28578" lon="-1.37896">
        <ele>53</ele>
        <time>2021-03-27T11:37:19.000Z</time>
      </trkpt>
      <trkpt lat="47.28568" lon="-1.37907">
        <ele>53</ele>
        <time>2021-03-27T11:37:21.000Z</time>
      </trkpt>
      <trkpt lat="47.28558" lon="-1.37918">
        <ele>53</ele>
        <time>2021-03-27T11:37:23.000Z</time>
      </trkpt>
      <trkpt lat="47.28548" lon="-1.3793">
        <ele>53</ele>
        <time>2021-03-27T11:37:25.000Z</time>
      </trkpt>
      <trkpt lat="47.28538" lon="-1.37942">
        <ele>53</ele>
        <time>2021-03-27T11:37:27.000Z</time>
      </trkpt>
      <trkpt lat="47.2853" lon="-1.37954">
        <ele>52</ele>
        <time>2021-03-27T11:37:29.000Z</time>
      </trkpt>
      <trkpt lat="47.28526" lon="-1.37969">
        <ele>52</ele>
        <time>2021-03-27T11:37:31.000Z</time>
      </trkpt>
      <trkpt lat="47.28527" lon="-1.37984">
        <ele>51</ele>
        <time>2021-03-27T11:37:33.000Z</time>
      </trkpt>
      <trkpt lat="47.28521" lon="-1.37996">
        <ele>52</ele>
        <time>2021-03-27T11:37:35.000Z</time>
      </trkpt>
      <trkpt lat="47.28513" lon="-1.38007">
        <ele>53</ele>
        <time>2021-03-27T11:37:37.000Z</time>
      </trkpt>
      <trkpt lat="47.28504" lon="-1.38018">
        <ele>52</ele>
        <time>2021-03-27T11:37:39.000Z</time>
      </trkpt>
      <trkpt lat="47.28492" lon="-1.38026">
        <ele>52</ele>
        <time>2021-03-27T11:37:41.000Z</time>
      </trkpt>
      <trkpt lat="47.28478" lon="-1.38028">
        <ele>52</ele>
        <time>2021-03-27T11:37:43.000Z</time>
      </trkpt>
      <trkpt lat="47.28467" lon="-1.38028">
        <ele>53</ele>
        <time>2021-03-27T11:37:45.000Z</time>
      </trkpt>
      <trkpt lat="47.28457" lon="-1.38036">
        <ele>53</ele>
        <time>2021-03-27T11:37:47.000Z</time>
      </trkpt>
      <trkpt lat="47.28448" lon="-1.38049">
        <ele>53</ele>
        <time>2021-03-27T11:37:49.000Z</time>
      </trkpt>
      <trkpt lat="47.28439" lon="-1.3806">
        <ele>53</ele>
        <time>2021-03-27T11:37:51.000Z</time>
      </trkpt>
      <trkpt lat="47.28428" lon="-1.38071">
        <ele>53</ele>
        <time>2021-03-27T11:37:53.000Z</time>
      </trkpt>
      <trkpt lat="47.28419" lon="-1.38082">
        <ele>53</ele>
        <time>2021-03-27T11:37:55.000Z</time>
      </trkpt>
      <trkpt lat="47.2841" lon="-1.38094">
        <ele>53</ele>
        <time>2021-03-27T11:37:57.000Z</time>
      </trkpt>
      <trkpt lat="47.284" lon="-1.38105">
        <ele>53</ele>
        <time>2021-03-27T11:37:59.000Z</time>
      </trkpt>
      <trkpt lat="47.28391" lon="-1.38116">
        <ele>53</ele>
        <time>2021-03-27T11:38:01.000Z</time>
      </trkpt>
      <trkpt lat="47.28384" lon="-1.38129">
        <ele>53</ele>
        <time>2021-03-27T11:38:03.000Z</time>
      </trkpt>
      <trkpt lat="47.28376" lon="-1.38142">
        <ele>53</ele>
        <time>2021-03-27T11:38:05.000Z</time>
      </trkpt>
      <trkpt lat="47.2837" lon="-1.38157">
        <ele>53</ele>
        <time>2021-03-27T11:38:07.000Z</time>
      </trkpt>
      <trkpt lat="47.28364" lon="-1.38173">
        <ele>53</ele>
        <time>2021-03-27T11:38:09.000Z</time>
      </trkpt>
      <trkpt lat="47.28359" lon="-1.38189">
        <ele>53</ele>
        <time>2021-03-27T11:38:11.000Z</time>
      </trkpt>
      <trkpt lat="47.28355" lon="-1.38204">
        <ele>53</ele>
        <time>2021-03-27T11:38:13.000Z</time>
      </trkpt>
      <trkpt lat="47.28352" lon="-1.38221">
        <ele>53</ele>
        <time>2021-03-27T11:38:15.000Z</time>
      </trkpt>
      <trkpt lat="47.28348" lon="-1.38238">
        <ele>52</ele>
        <time>2021-03-27T11:38:17.000Z</time>
      </trkpt>
      <trkpt lat="47.28341" lon="-1.38252">
        <ele>52</ele>
        <time>2021-03-27T11:38:19.000Z</time>
      </trkpt>
      <trkpt lat="47.28334" lon="-1.38265">
        <ele>52</ele>
        <time>2021-03-27T11:38:21.000Z</time>
      </trkpt>
      <trkpt lat="47.28326" lon="-1.38276">
        <ele>52</ele>
        <time>2021-03-27T11:38:23.000Z</time>
      </trkpt>
      <trkpt lat="47.28319" lon="-1.38287">
        <ele>51</ele>
        <time>2021-03-27T11:38:25.000Z</time>
      </trkpt>
      <trkpt lat="47.2831" lon="-1.38299">
        <ele>51</ele>
        <time>2021-03-27T11:38:27.000Z</time>
      </trkpt>
      <trkpt lat="47.28303" lon="-1.38313">
        <ele>51</ele>
        <time>2021-03-27T11:38:29.000Z</time>
      </trkpt>
      <trkpt lat="47.28296" lon="-1.38327">
        <ele>51</ele>
        <time>2021-03-27T11:38:31.000Z</time>
      </trkpt>
      <trkpt lat="47.28289" lon="-1.38341">
        <ele>51</ele>
        <time>2021-03-27T11:38:33.000Z</time>
      </trkpt>
      <trkpt lat="47.28282" lon="-1.38355">
        <ele>51</ele>
        <time>2021-03-27T11:38:35.000Z</time>
      </trkpt>
      <trkpt lat="47.28276" lon="-1.38369">
        <ele>52</ele>
        <time>2021-03-27T11:38:37.000Z</time>
      </trkpt>
      <trkpt lat="47.28269" lon="-1.38383">
        <ele>52</ele>
        <time>2021-03-27T11:38:39.000Z</time>
      </trkpt>
      <trkpt lat="47.28263" lon="-1.38397">
        <ele>52</ele>
        <time>2021-03-27T11:38:41.000Z</time>
      </trkpt>
      <trkpt lat="47.28256" lon="-1.38411">
        <ele>52</ele>
        <time>2021-03-27T11:38:43.000Z</time>
      </trkpt>
      <trkpt lat="47.28249" lon="-1.38424">
        <ele>52</ele>
        <time>2021-03-27T11:38:45.000Z</time>
      </trkpt>
      <trkpt lat="47.28243" lon="-1.38436">
        <ele>53</ele>
        <time>2021-03-27T11:38:47.000Z</time>
      </trkpt>
      <trkpt lat="47.28238" lon="-1.38448">
        <ele>53</ele>
        <time>2021-03-27T11:38:49.000Z</time>
      </trkpt>
      <trkpt lat="47.28232" lon="-1.38463">
        <ele>52</ele>
        <time>2021-03-27T11:38:51.000Z</time>
      </trkpt>
      <trkpt lat="47.28226" lon="-1.38478">
        <ele>52</ele>
        <time>2021-03-27T11:38:53.000Z</time>
      </trkpt>
      <trkpt lat="47.28219" lon="-1.38492">
        <ele>52</ele>
        <time>2021-03-27T11:38:55.000Z</time>
      </trkpt>
      <trkpt lat="47.28213" lon="-1.38505">
        <ele>52</ele>
        <time>2021-03-27T11:38:57.000Z</time>
      </trkpt>
      <trkpt lat="47.28209" lon="-1.38521">
        <ele>52</ele>
        <time>2021-03-27T11:38:59.000Z</time>
      </trkpt>
      <trkpt lat="47.28206" lon="-1.38537">
        <ele>52</ele>
        <time>2021-03-27T11:39:01.000Z</time>
      </trkpt>
      <trkpt lat="47.28204" lon="-1.38554">
        <ele>52</ele>
        <time>2021-03-27T11:39:03.000Z</time>
      </trkpt>
      <trkpt lat="47.28203" lon="-1.38571">
        <ele>52</ele>
        <time>2021-03-27T11:39:05.000Z</time>
      </trkpt>
      <trkpt lat="47.28202" lon="-1.38588">
        <ele>52</ele>
        <time>2021-03-27T11:39:07.000Z</time>
      </trkpt>
      <trkpt lat="47.28201" lon="-1.38604">
        <ele>52</ele>
        <time>2021-03-27T11:39:09.000Z</time>
      </trkpt>
      <trkpt lat="47.28199" lon="-1.3862">
        <ele>52</ele>
        <time>2021-03-27T11:39:11.000Z</time>
      </trkpt>
      <trkpt lat="47.28196" lon="-1.38636">
        <ele>52</ele>
        <time>2021-03-27T11:39:13.000Z</time>
      </trkpt>
      <trkpt lat="47.28192" lon="-1.38651">
        <ele>52</ele>
        <time>2021-03-27T11:39:15.000Z</time>
      </trkpt>
      <trkpt lat="47.28187" lon="-1.38665">
        <ele>52</ele>
        <time>2021-03-27T11:39:17.000Z</time>
      </trkpt>
      <trkpt lat="47.28182" lon="-1.3868">
        <ele>52</ele>
        <time>2021-03-27T11:39:19.000Z</time>
      </trkpt>
      <trkpt lat="47.28179" lon="-1.38693">
        <ele>52</ele>
        <time>2021-03-27T11:39:21.000Z</time>
      </trkpt>
      <trkpt lat="47.28175" lon="-1.38708">
        <ele>52</ele>
        <time>2021-03-27T11:39:23.000Z</time>
      </trkpt>
      <trkpt lat="47.28169" lon="-1.38719">
        <ele>52</ele>
        <time>2021-03-27T11:39:25.000Z</time>
      </trkpt>
      <trkpt lat="47.28161" lon="-1.38729">
        <ele>52</ele>
        <time>2021-03-27T11:39:27.000Z</time>
      </trkpt>
      <trkpt lat="47.28152" lon="-1.38738">
        <ele>52</ele>
        <time>2021-03-27T11:39:29.000Z</time>
      </trkpt>
      <trkpt lat="47.28142" lon="-1.38747">
        <ele>52</ele>
        <time>2021-03-27T11:39:31.000Z</time>
      </trkpt>
      <trkpt lat="47.28133" lon="-1.38756">
        <ele>52</ele>
        <time>2021-03-27T11:39:33.000Z</time>
      </trkpt>
      <trkpt lat="47.28123" lon="-1.38763">
        <ele>52</ele>
        <time>2021-03-27T11:39:35.000Z</time>
      </trkpt>
      <trkpt lat="47.28114" lon="-1.38769">
        <ele>52</ele>
        <time>2021-03-27T11:39:37.000Z</time>
      </trkpt>
      <trkpt lat="47.28104" lon="-1.38776">
        <ele>52</ele>
        <time>2021-03-27T11:39:39.000Z</time>
      </trkpt>
      <trkpt lat="47.28094" lon="-1.38781">
        <ele>52</ele>
        <time>2021-03-27T11:39:41.000Z</time>
      </trkpt>
      <trkpt lat="47.28083" lon="-1.38784">
        <ele>52</ele>
        <time>2021-03-27T11:39:43.000Z</time>
      </trkpt>
      <trkpt lat="47.28074" lon="-1.38789">
        <ele>52</ele>
        <time>2021-03-27T11:39:45.000Z</time>
      </trkpt>
      <trkpt lat="47.28065" lon="-1.38798">
        <ele>52</ele>
        <time>2021-03-27T11:39:47.000Z</time>
      </trkpt>
      <trkpt lat="47.28054" lon="-1.38805">
        <ele>52</ele>
        <time>2021-03-27T11:39:49.000Z</time>
      </trkpt>
      <trkpt lat="47.28043" lon="-1.3881">
        <ele>53</ele>
        <time>2021-03-27T11:39:51.000Z</time>
      </trkpt>
      <trkpt lat="47.28033" lon="-1.38819">
        <ele>53</ele>
        <time>2021-03-27T11:39:53.000Z</time>
      </trkpt>
      <trkpt lat="47.28023" lon="-1.38829">
        <ele>53</ele>
        <time>2021-03-27T11:39:55.000Z</time>
      </trkpt>
      <trkpt lat="47.28013" lon="-1.38839">
        <ele>54</ele>
        <time>2021-03-27T11:39:57.000Z</time>
      </trkpt>
      <trkpt lat="47.28003" lon="-1.38849">
        <ele>54</ele>
        <time>2021-03-27T11:39:59.000Z</time>
      </trkpt>
      <trkpt lat="47.27994" lon="-1.3886">
        <ele>54</ele>
        <time>2021-03-27T11:40:01.000Z</time>
      </trkpt>
      <trkpt lat="47.27985" lon="-1.38873">
        <ele>54</ele>
        <time>2021-03-27T11:40:03.000Z</time>
      </trkpt>
      <trkpt lat="47.27976" lon="-1.38885">
        <ele>54</ele>
        <time>2021-03-27T11:40:05.000Z</time>
      </trkpt>
      <trkpt lat="47.27967" lon="-1.38897">
        <ele>54</ele>
        <time>2021-03-27T11:40:07.000Z</time>
      </trkpt>
      <trkpt lat="47.27959" lon="-1.3891">
        <ele>54</ele>
        <time>2021-03-27T11:40:09.000Z</time>
      </trkpt>
      <trkpt lat="47.2795" lon="-1.38923">
        <ele>53</ele>
        <time>2021-03-27T11:40:11.000Z</time>
      </trkpt>
      <trkpt lat="47.27942" lon="-1.38936">
        <ele>54</ele>
        <time>2021-03-27T11:40:13.000Z</time>
      </trkpt>
      <trkpt lat="47.27934" lon="-1.38948">
        <ele>54</ele>
        <time>2021-03-27T11:40:15.000Z</time>
      </trkpt>
      <trkpt lat="47.27926" lon="-1.3896">
        <ele>54</ele>
        <time>2021-03-27T11:40:17.000Z</time>
      </trkpt>
      <trkpt lat="47.27919" lon="-1.38973">
        <ele>54</ele>
        <time>2021-03-27T11:40:19.000Z</time>
      </trkpt>
      <trkpt lat="47.27912" lon="-1.38986">
        <ele>53</ele>
        <time>2021-03-27T11:40:21.000Z</time>
      </trkpt>
      <trkpt lat="47.27904" lon="-1.38998">
        <ele>53</ele>
        <time>2021-03-27T11:40:23.000Z</time>
      </trkpt>
      <trkpt lat="47.27896" lon="-1.39009">
        <ele>53</ele>
        <time>2021-03-27T11:40:25.000Z</time>
      </trkpt>
      <trkpt lat="47.27888" lon="-1.39021">
        <ele>53</ele>
        <time>2021-03-27T11:40:27.000Z</time>
      </trkpt>
      <trkpt lat="47.2788" lon="-1.39034">
        <ele>53</ele>
        <time>2021-03-27T11:40:29.000Z</time>
      </trkpt>
      <trkpt lat="47.27873" lon="-1.39047">
        <ele>53</ele>
        <time>2021-03-27T11:40:31.000Z</time>
      </trkpt>
      <trkpt lat="47.27865" lon="-1.3906">
        <ele>53</ele>
        <time>2021-03-27T11:40:33.000Z</time>
      </trkpt>
      <trkpt lat="47.27857" lon="-1.39073">
        <ele>53</ele>
        <time>2021-03-27T11:40:35.000Z</time>
      </trkpt>
      <trkpt lat="47.27849" lon="-1.39086">
        <ele>53</ele>
        <time>2021-03-27T11:40:37.000Z</time>
      </trkpt>
      <trkpt lat="47.27841" lon="-1.39099">
        <ele>53</ele>
        <time>2021-03-27T11:40:39.000Z</time>
      </trkpt>
      <trkpt lat="47.27834" lon="-1.39112">
        <ele>53</ele>
        <time>2021-03-27T11:40:41.000Z</time>
      </trkpt>
      <trkpt lat="47.27825" lon="-1.39125">
        <ele>53</ele>
        <time>2021-03-27T11:40:43.000Z</time>
      </trkpt>
      <trkpt lat="47.27818" lon="-1.39138">
        <ele>53</ele>
        <time>2021-03-27T11:40:45.000Z</time>
      </trkpt>
      <trkpt lat="47.2781" lon="-1.3915">
        <ele>53</ele>
        <time>2021-03-27T11:40:47.000Z</time>
      </trkpt>
      <trkpt lat="47.27802" lon="-1.39164">
        <ele>53</ele>
        <time>2021-03-27T11:40:49.000Z</time>
      </trkpt>
      <trkpt lat="47.27794" lon="-1.39177">
        <ele>53</ele>
        <time>2021-03-27T11:40:51.000Z</time>
      </trkpt>
      <trkpt lat="47.27787" lon="-1.3919">
        <ele>53</ele>
        <time>2021-03-27T11:40:53.000Z</time>
      </trkpt>
      <trkpt lat="47.27779" lon="-1.39205">
        <ele>53</ele>
        <time>2021-03-27T11:40:55.000Z</time>
      </trkpt>
      <trkpt lat="47.27772" lon="-1.3922">
        <ele>53</ele>
        <time>2021-03-27T11:40:57.000Z</time>
      </trkpt>
      <trkpt lat="47.27765" lon="-1.39234">
        <ele>53</ele>
        <time>2021-03-27T11:40:59.000Z</time>
      </trkpt>
      <trkpt lat="47.27758" lon="-1.39249">
        <ele>53</ele>
        <time>2021-03-27T11:41:01.000Z</time>
      </trkpt>
      <trkpt lat="47.27751" lon="-1.39264">
        <ele>53</ele>
        <time>2021-03-27T11:41:03.000Z</time>
      </trkpt>
      <trkpt lat="47.27744" lon="-1.39278">
        <ele>53</ele>
        <time>2021-03-27T11:41:05.000Z</time>
      </trkpt>
      <trkpt lat="47.27738" lon="-1.39293">
        <ele>53</ele>
        <time>2021-03-27T11:41:07.000Z</time>
      </trkpt>
      <trkpt lat="47.27732" lon="-1.39308">
        <ele>53</ele>
        <time>2021-03-27T11:41:09.000Z</time>
      </trkpt>
      <trkpt lat="47.27725" lon="-1.39323">
        <ele>53</ele>
        <time>2021-03-27T11:41:11.000Z</time>
      </trkpt>
      <trkpt lat="47.27718" lon="-1.39338">
        <ele>53</ele>
        <time>2021-03-27T11:41:13.000Z</time>
      </trkpt>
      <trkpt lat="47.2771" lon="-1.39353">
        <ele>53</ele>
        <time>2021-03-27T11:41:15.000Z</time>
      </trkpt>
      <trkpt lat="47.27703" lon="-1.39366">
        <ele>53</ele>
        <time>2021-03-27T11:41:17.000Z</time>
      </trkpt>
      <trkpt lat="47.27696" lon="-1.39381">
        <ele>53</ele>
        <time>2021-03-27T11:41:19.000Z</time>
      </trkpt>
      <trkpt lat="47.2769" lon="-1.39395">
        <ele>53</ele>
        <time>2021-03-27T11:41:21.000Z</time>
      </trkpt>
      <trkpt lat="47.27683" lon="-1.39409">
        <ele>53</ele>
        <time>2021-03-27T11:41:23.000Z</time>
      </trkpt>
      <trkpt lat="47.27676" lon="-1.39422">
        <ele>53</ele>
        <time>2021-03-27T11:41:25.000Z</time>
      </trkpt>
      <trkpt lat="47.27669" lon="-1.39435">
        <ele>54</ele>
        <time>2021-03-27T11:41:27.000Z</time>
      </trkpt>
      <trkpt lat="47.27662" lon="-1.39448">
        <ele>53</ele>
        <time>2021-03-27T11:41:29.000Z</time>
      </trkpt>
      <trkpt lat="47.27654" lon="-1.3946">
        <ele>53</ele>
        <time>2021-03-27T11:41:31.000Z</time>
      </trkpt>
      <trkpt lat="47.27647" lon="-1.39473">
        <ele>53</ele>
        <time>2021-03-27T11:41:33.000Z</time>
      </trkpt>
      <trkpt lat="47.27641" lon="-1.39486">
        <ele>53</ele>
        <time>2021-03-27T11:41:35.000Z</time>
      </trkpt>
      <trkpt lat="47.27634" lon="-1.395">
        <ele>53</ele>
        <time>2021-03-27T11:41:37.000Z</time>
      </trkpt>
      <trkpt lat="47.27627" lon="-1.39514">
        <ele>52</ele>
        <time>2021-03-27T11:41:39.000Z</time>
      </trkpt>
      <trkpt lat="47.27618" lon="-1.39523">
        <ele>52</ele>
        <time>2021-03-27T11:41:41.000Z</time>
      </trkpt>
      <trkpt lat="47.27609" lon="-1.39531">
        <ele>52</ele>
        <time>2021-03-27T11:41:43.000Z</time>
      </trkpt>
      <trkpt lat="47.27601" lon="-1.39543">
        <ele>52</ele>
        <time>2021-03-27T11:41:45.000Z</time>
      </trkpt>
      <trkpt lat="47.27594" lon="-1.39556">
        <ele>52</ele>
        <time>2021-03-27T11:41:47.000Z</time>
      </trkpt>
      <trkpt lat="47.27585" lon="-1.39569">
        <ele>52</ele>
        <time>2021-03-27T11:41:49.000Z</time>
      </trkpt>
      <trkpt lat="47.27577" lon="-1.39582">
        <ele>52</ele>
        <time>2021-03-27T11:41:51.000Z</time>
      </trkpt>
      <trkpt lat="47.27569" lon="-1.39595">
        <ele>53</ele>
        <time>2021-03-27T11:41:53.000Z</time>
      </trkpt>
      <trkpt lat="47.27561" lon="-1.39608">
        <ele>53</ele>
        <time>2021-03-27T11:41:55.000Z</time>
      </trkpt>
      <trkpt lat="47.27553" lon="-1.39621">
        <ele>53</ele>
        <time>2021-03-27T11:41:57.000Z</time>
      </trkpt>
      <trkpt lat="47.27545" lon="-1.39634">
        <ele>53</ele>
        <time>2021-03-27T11:41:59.000Z</time>
      </trkpt>
      <trkpt lat="47.27537" lon="-1.39647">
        <ele>53</ele>
        <time>2021-03-27T11:42:01.000Z</time>
      </trkpt>
      <trkpt lat="47.27529" lon="-1.3966">
        <ele>53</ele>
        <time>2021-03-27T11:42:03.000Z</time>
      </trkpt>
      <trkpt lat="47.2752" lon="-1.39672">
        <ele>53</ele>
        <time>2021-03-27T11:42:05.000Z</time>
      </trkpt>
      <trkpt lat="47.27512" lon="-1.39685">
        <ele>53</ele>
        <time>2021-03-27T11:42:07.000Z</time>
      </trkpt>
      <trkpt lat="47.27504" lon="-1.39698">
        <ele>53</ele>
        <time>2021-03-27T11:42:09.000Z</time>
      </trkpt>
      <trkpt lat="47.27496" lon="-1.39711">
        <ele>53</ele>
        <time>2021-03-27T11:42:11.000Z</time>
      </trkpt>
      <trkpt lat="47.27488" lon="-1.39725">
        <ele>53</ele>
        <time>2021-03-27T11:42:13.000Z</time>
      </trkpt>
      <trkpt lat="47.27482" lon="-1.39739">
        <ele>53</ele>
        <time>2021-03-27T11:42:15.000Z</time>
      </trkpt>
      <trkpt lat="47.27475" lon="-1.39753">
        <ele>52</ele>
        <time>2021-03-27T11:42:17.000Z</time>
      </trkpt>
      <trkpt lat="47.27467" lon="-1.39768">
        <ele>52</ele>
        <time>2021-03-27T11:42:19.000Z</time>
      </trkpt>
      <trkpt lat="47.2746" lon="-1.39784">
        <ele>52</ele>
        <time>2021-03-27T11:42:21.000Z</time>
      </trkpt>
      <trkpt lat="47.27452" lon="-1.39799">
        <ele>52</ele>
        <time>2021-03-27T11:42:23.000Z</time>
      </trkpt>
      <trkpt lat="47.27444" lon="-1.39813">
        <ele>53</ele>
        <time>2021-03-27T11:42:25.000Z</time>
      </trkpt>
      <trkpt lat="47.27439" lon="-1.3983">
        <ele>53</ele>
        <time>2021-03-27T11:42:27.000Z</time>
      </trkpt>
      <trkpt lat="47.27435" lon="-1.39847">
        <ele>53</ele>
        <time>2021-03-27T11:42:29.000Z</time>
      </trkpt>
      <trkpt lat="47.27431" lon="-1.39864">
        <ele>53</ele>
        <time>2021-03-27T11:42:31.000Z</time>
      </trkpt>
      <trkpt lat="47.27426" lon="-1.3988">
        <ele>53</ele>
        <time>2021-03-27T11:42:33.000Z</time>
      </trkpt>
      <trkpt lat="47.27416" lon="-1.3989">
        <ele>53</ele>
        <time>2021-03-27T11:42:35.000Z</time>
      </trkpt>
      <trkpt lat="47.27403" lon="-1.39891">
        <ele>52</ele>
        <time>2021-03-27T11:42:37.000Z</time>
      </trkpt>
      <trkpt lat="47.2739" lon="-1.39887">
        <ele>52</ele>
        <time>2021-03-27T11:42:39.000Z</time>
      </trkpt>
      <trkpt lat="47.27378" lon="-1.39893">
        <ele>53</ele>
        <time>2021-03-27T11:42:41.000Z</time>
      </trkpt>
      <trkpt lat="47.2737" lon="-1.39906">
        <ele>53</ele>
        <time>2021-03-27T11:42:43.000Z</time>
      </trkpt>
      <trkpt lat="47.27361" lon="-1.39921">
        <ele>53</ele>
        <time>2021-03-27T11:42:45.000Z</time>
      </trkpt>
      <trkpt lat="47.27353" lon="-1.39934">
        <ele>53</ele>
        <time>2021-03-27T11:42:47.000Z</time>
      </trkpt>
      <trkpt lat="47.27344" lon="-1.39948">
        <ele>52</ele>
        <time>2021-03-27T11:42:49.000Z</time>
      </trkpt>
      <trkpt lat="47.27335" lon="-1.39962">
        <ele>52</ele>
        <time>2021-03-27T11:42:51.000Z</time>
      </trkpt>
      <trkpt lat="47.27326" lon="-1.39976">
        <ele>52</ele>
        <time>2021-03-27T11:42:53.000Z</time>
      </trkpt>
      <trkpt lat="47.27317" lon="-1.3999">
        <ele>52</ele>
        <time>2021-03-27T11:42:55.000Z</time>
      </trkpt>
      <trkpt lat="47.27308" lon="-1.40003">
        <ele>52</ele>
        <time>2021-03-27T11:42:57.000Z</time>
      </trkpt>
      <trkpt lat="47.27299" lon="-1.40017">
        <ele>52</ele>
        <time>2021-03-27T11:42:59.000Z</time>
      </trkpt>
      <trkpt lat="47.27291" lon="-1.40031">
        <ele>52</ele>
        <time>2021-03-27T11:43:01.000Z</time>
      </trkpt>
      <trkpt lat="47.27282" lon="-1.40044">
        <ele>52</ele>
        <time>2021-03-27T11:43:03.000Z</time>
      </trkpt>
      <trkpt lat="47.27274" lon="-1.40058">
        <ele>53</ele>
        <time>2021-03-27T11:43:05.000Z</time>
      </trkpt>
      <trkpt lat="47.27266" lon="-1.40071">
        <ele>53</ele>
        <time>2021-03-27T11:43:07.000Z</time>
      </trkpt>
      <trkpt lat="47.27257" lon="-1.40085">
        <ele>52</ele>
        <time>2021-03-27T11:43:09.000Z</time>
      </trkpt>
      <trkpt lat="47.27249" lon="-1.40099">
        <ele>52</ele>
        <time>2021-03-27T11:43:11.000Z</time>
      </trkpt>
      <trkpt lat="47.2724" lon="-1.40113">
        <ele>53</ele>
        <time>2021-03-27T11:43:13.000Z</time>
      </trkpt>
      <trkpt lat="47.27232" lon="-1.40126">
        <ele>53</ele>
        <time>2021-03-27T11:43:15.000Z</time>
      </trkpt>
      <trkpt lat="47.27223" lon="-1.40139">
        <ele>53</ele>
        <time>2021-03-27T11:43:17.000Z</time>
      </trkpt>
      <trkpt lat="47.27215" lon="-1.40153">
        <ele>53</ele>
        <time>2021-03-27T11:43:19.000Z</time>
      </trkpt>
      <trkpt lat="47.27208" lon="-1.40169">
        <ele>52</ele>
        <time>2021-03-27T11:43:21.000Z</time>
      </trkpt>
      <trkpt lat="47.272" lon="-1.40182">
        <ele>52</ele>
        <time>2021-03-27T11:43:23.000Z</time>
      </trkpt>
      <trkpt lat="47.2719" lon="-1.40194">
        <ele>52</ele>
        <time>2021-03-27T11:43:25.000Z</time>
      </trkpt>
      <trkpt lat="47.2718" lon="-1.40206">
        <ele>52</ele>
        <time>2021-03-27T11:43:27.000Z</time>
      </trkpt>
      <trkpt lat="47.27171" lon="-1.40219">
        <ele>52</ele>
        <time>2021-03-27T11:43:29.000Z</time>
      </trkpt>
      <trkpt lat="47.27163" lon="-1.40234">
        <ele>52</ele>
        <time>2021-03-27T11:43:31.000Z</time>
      </trkpt>
      <trkpt lat="47.27154" lon="-1.40248">
        <ele>52</ele>
        <time>2021-03-27T11:43:33.000Z</time>
      </trkpt>
      <trkpt lat="47.27146" lon="-1.40262">
        <ele>52</ele>
        <time>2021-03-27T11:43:35.000Z</time>
      </trkpt>
      <trkpt lat="47.27137" lon="-1.40275">
        <ele>52</ele>
        <time>2021-03-27T11:43:37.000Z</time>
      </trkpt>
      <trkpt lat="47.27128" lon="-1.40289">
        <ele>52</ele>
        <time>2021-03-27T11:43:39.000Z</time>
      </trkpt>
      <trkpt lat="47.27119" lon="-1.40302">
        <ele>53</ele>
        <time>2021-03-27T11:43:41.000Z</time>
      </trkpt>
      <trkpt lat="47.27111" lon="-1.40316">
        <ele>53</ele>
        <time>2021-03-27T11:43:43.000Z</time>
      </trkpt>
      <trkpt lat="47.27102" lon="-1.40329">
        <ele>53</ele>
        <time>2021-03-27T11:43:45.000Z</time>
      </trkpt>
      <trkpt lat="47.27093" lon="-1.40342">
        <ele>53</ele>
        <time>2021-03-27T11:43:47.000Z</time>
      </trkpt>
      <trkpt lat="47.27085" lon="-1.40357">
        <ele>53</ele>
        <time>2021-03-27T11:43:49.000Z</time>
      </trkpt>
      <trkpt lat="47.27076" lon="-1.4037">
        <ele>53</ele>
        <time>2021-03-27T11:43:51.000Z</time>
      </trkpt>
      <trkpt lat="47.27067" lon="-1.40382">
        <ele>53</ele>
        <time>2021-03-27T11:43:53.000Z</time>
      </trkpt>
      <trkpt lat="47.27059" lon="-1.40395">
        <ele>53</ele>
        <time>2021-03-27T11:43:55.000Z</time>
      </trkpt>
      <trkpt lat="47.27051" lon="-1.40409">
        <ele>53</ele>
        <time>2021-03-27T11:43:57.000Z</time>
      </trkpt>
      <trkpt lat="47.27043" lon="-1.40422">
        <ele>53</ele>
        <time>2021-03-27T11:43:59.000Z</time>
      </trkpt>
      <trkpt lat="47.27035" lon="-1.40434">
        <ele>53</ele>
        <time>2021-03-27T11:44:01.000Z</time>
      </trkpt>
      <trkpt lat="47.27027" lon="-1.40447">
        <ele>53</ele>
        <time>2021-03-27T11:44:03.000Z</time>
      </trkpt>
      <trkpt lat="47.27018" lon="-1.4046">
        <ele>53</ele>
        <time>2021-03-27T11:44:05.000Z</time>
      </trkpt>
      <trkpt lat="47.2701" lon="-1.40473">
        <ele>53</ele>
        <time>2021-03-27T11:44:07.000Z</time>
      </trkpt>
      <trkpt lat="47.27001" lon="-1.40486">
        <ele>53</ele>
        <time>2021-03-27T11:44:09.000Z</time>
      </trkpt>
      <trkpt lat="47.26993" lon="-1.40499">
        <ele>53</ele>
        <time>2021-03-27T11:44:11.000Z</time>
      </trkpt>
      <trkpt lat="47.26985" lon="-1.40513">
        <ele>53</ele>
        <time>2021-03-27T11:44:13.000Z</time>
      </trkpt>
      <trkpt lat="47.26977" lon="-1.40525">
        <ele>53</ele>
        <time>2021-03-27T11:44:15.000Z</time>
      </trkpt>
      <trkpt lat="47.26969" lon="-1.40539">
        <ele>53</ele>
        <time>2021-03-27T11:44:17.000Z</time>
      </trkpt>
      <trkpt lat="47.26962" lon="-1.40553">
        <ele>53</ele>
        <time>2021-03-27T11:44:19.000Z</time>
      </trkpt>
      <trkpt lat="47.26955" lon="-1.40568">
        <ele>53</ele>
        <time>2021-03-27T11:44:21.000Z</time>
      </trkpt>
      <trkpt lat="47.26949" lon="-1.40583">
        <ele>53</ele>
        <time>2021-03-27T11:44:23.000Z</time>
      </trkpt>
      <trkpt lat="47.26945" lon="-1.406">
        <ele>53</ele>
        <time>2021-03-27T11:44:25.000Z</time>
      </trkpt>
      <trkpt lat="47.26943" lon="-1.40618">
        <ele>53</ele>
        <time>2021-03-27T11:44:27.000Z</time>
      </trkpt>
      <trkpt lat="47.2694" lon="-1.40635">
        <ele>53</ele>
        <time>2021-03-27T11:44:29.000Z</time>
      </trkpt>
      <trkpt lat="47.26939" lon="-1.40654">
        <ele>52</ele>
        <time>2021-03-27T11:44:31.000Z</time>
      </trkpt>
      <trkpt lat="47.26937" lon="-1.40674">
        <ele>52</ele>
        <time>2021-03-27T11:44:33.000Z</time>
      </trkpt>
      <trkpt lat="47.26934" lon="-1.40694">
        <ele>51</ele>
        <time>2021-03-27T11:44:35.000Z</time>
      </trkpt>
      <trkpt lat="47.26934" lon="-1.40714">
        <ele>51</ele>
        <time>2021-03-27T11:44:37.000Z</time>
      </trkpt>
      <trkpt lat="47.26934" lon="-1.40733">
        <ele>51</ele>
        <time>2021-03-27T11:44:39.000Z</time>
      </trkpt>
      <trkpt lat="47.26933" lon="-1.40751">
        <ele>52</ele>
        <time>2021-03-27T11:44:41.000Z</time>
      </trkpt>
      <trkpt lat="47.26932" lon="-1.40768">
        <ele>52</ele>
        <time>2021-03-27T11:44:43.000Z</time>
      </trkpt>
      <trkpt lat="47.2693" lon="-1.40784">
        <ele>53</ele>
        <time>2021-03-27T11:44:45.000Z</time>
      </trkpt>
      <trkpt lat="47.26925" lon="-1.40799">
        <ele>53</ele>
        <time>2021-03-27T11:44:47.000Z</time>
      </trkpt>
      <trkpt lat="47.26918" lon="-1.40814">
        <ele>53</ele>
        <time>2021-03-27T11:44:49.000Z</time>
      </trkpt>
      <trkpt lat="47.26911" lon="-1.40829">
        <ele>52</ele>
        <time>2021-03-27T11:44:51.000Z</time>
      </trkpt>
      <trkpt lat="47.26904" lon="-1.40843">
        <ele>52</ele>
        <time>2021-03-27T11:44:53.000Z</time>
      </trkpt>
      <trkpt lat="47.26895" lon="-1.40857">
        <ele>51</ele>
        <time>2021-03-27T11:44:55.000Z</time>
      </trkpt>
      <trkpt lat="47.26885" lon="-1.40871">
        <ele>51</ele>
        <time>2021-03-27T11:44:57.000Z</time>
      </trkpt>
      <trkpt lat="47.26877" lon="-1.40886">
        <ele>51</ele>
        <time>2021-03-27T11:44:59.000Z</time>
      </trkpt>
      <trkpt lat="47.26874" lon="-1.40901">
        <ele>51</ele>
        <time>2021-03-27T11:45:01.000Z</time>
      </trkpt>
      <trkpt lat="47.26868" lon="-1.40916">
        <ele>52</ele>
        <time>2021-03-27T11:45:03.000Z</time>
      </trkpt>
      <trkpt lat="47.26859" lon="-1.40927">
        <ele>52</ele>
        <time>2021-03-27T11:45:05.000Z</time>
      </trkpt>
      <trkpt lat="47.26851" lon="-1.40938">
        <ele>53</ele>
        <time>2021-03-27T11:45:07.000Z</time>
      </trkpt>
      <trkpt lat="47.26844" lon="-1.4095">
        <ele>53</ele>
        <time>2021-03-27T11:45:09.000Z</time>
      </trkpt>
      <trkpt lat="47.26837" lon="-1.40967">
        <ele>53</ele>
        <time>2021-03-27T11:45:11.000Z</time>
      </trkpt>
      <trkpt lat="47.2683" lon="-1.40984">
        <ele>52</ele>
        <time>2021-03-27T11:45:13.000Z</time>
      </trkpt>
      <trkpt lat="47.26821" lon="-1.41001">
        <ele>52</ele>
        <time>2021-03-27T11:45:15.000Z</time>
      </trkpt>
      <trkpt lat="47.26809" lon="-1.41015">
        <ele>52</ele>
        <time>2021-03-27T11:45:17.000Z</time>
      </trkpt>
      <trkpt lat="47.26799" lon="-1.41029">
        <ele>52</ele>
        <time>2021-03-27T11:45:19.000Z</time>
      </trkpt>
      <trkpt lat="47.26793" lon="-1.41045">
        <ele>53</ele>
        <time>2021-03-27T11:45:21.000Z</time>
      </trkpt>
      <trkpt lat="47.26787" lon="-1.41061">
        <ele>52</ele>
        <time>2021-03-27T11:45:23.000Z</time>
      </trkpt>
      <trkpt lat="47.26781" lon="-1.41078">
        <ele>52</ele>
        <time>2021-03-27T11:45:25.000Z</time>
      </trkpt>
      <trkpt lat="47.26776" lon="-1.41095">
        <ele>52</ele>
        <time>2021-03-27T11:45:27.000Z</time>
      </trkpt>
      <trkpt lat="47.26771" lon="-1.41112">
        <ele>52</ele>
        <time>2021-03-27T11:45:29.000Z</time>
      </trkpt>
      <trkpt lat="47.26763" lon="-1.41126">
        <ele>52</ele>
        <time>2021-03-27T11:45:31.000Z</time>
      </trkpt>
      <trkpt lat="47.26755" lon="-1.41138">
        <ele>52</ele>
        <time>2021-03-27T11:45:33.000Z</time>
      </trkpt>
      <trkpt lat="47.26745" lon="-1.41149">
        <ele>52</ele>
        <time>2021-03-27T11:45:35.000Z</time>
      </trkpt>
      <trkpt lat="47.26735" lon="-1.41159">
        <ele>52</ele>
        <time>2021-03-27T11:45:37.000Z</time>
      </trkpt>
      <trkpt lat="47.26726" lon="-1.4117">
        <ele>51</ele>
        <time>2021-03-27T11:45:39.000Z</time>
      </trkpt>
      <trkpt lat="47.26717" lon="-1.41182">
        <ele>52</ele>
        <time>2021-03-27T11:45:41.000Z</time>
      </trkpt>
      <trkpt lat="47.26709" lon="-1.41193">
        <ele>52</ele>
        <time>2021-03-27T11:45:43.000Z</time>
      </trkpt>
      <trkpt lat="47.267" lon="-1.41203">
        <ele>52</ele>
        <time>2021-03-27T11:45:45.000Z</time>
      </trkpt>
      <trkpt lat="47.2669" lon="-1.41214">
        <ele>52</ele>
        <time>2021-03-27T11:45:47.000Z</time>
      </trkpt>
      <trkpt lat="47.26681" lon="-1.41225">
        <ele>51</ele>
        <time>2021-03-27T11:45:49.000Z</time>
      </trkpt>
      <trkpt lat="47.26672" lon="-1.41236">
        <ele>51</ele>
        <time>2021-03-27T11:45:51.000Z</time>
      </trkpt>
      <trkpt lat="47.26664" lon="-1.41249">
        <ele>51</ele>
        <time>2021-03-27T11:45:53.000Z</time>
      </trkpt>
      <trkpt lat="47.26657" lon="-1.41263">
        <ele>51</ele>
        <time>2021-03-27T11:45:55.000Z</time>
      </trkpt>
      <trkpt lat="47.26649" lon="-1.41275">
        <ele>52</ele>
        <time>2021-03-27T11:45:57.000Z</time>
      </trkpt>
      <trkpt lat="47.26641" lon="-1.41288">
        <ele>52</ele>
        <time>2021-03-27T11:45:59.000Z</time>
      </trkpt>
      <trkpt lat="47.26631" lon="-1.41299">
        <ele>52</ele>
        <time>2021-03-27T11:46:01.000Z</time>
      </trkpt>
      <trkpt lat="47.26623" lon="-1.41313">
        <ele>52</ele>
        <time>2021-03-27T11:46:03.000Z</time>
      </trkpt>
      <trkpt lat="47.26616" lon="-1.41326">
        <ele>52</ele>
        <time>2021-03-27T11:46:05.000Z</time>
      </trkpt>
      <trkpt lat="47.26606" lon="-1.41348">
        <ele>52</ele>
        <time>2021-03-27T11:46:08.000Z</time>
      </trkpt>
      <trkpt lat="47.26599" lon="-1.41363">
        <ele>52</ele>
        <time>2021-03-27T11:46:10.000Z</time>
      </trkpt>
      <trkpt lat="47.26591" lon="-1.41386">
        <ele>52</ele>
        <time>2021-03-27T11:46:13.000Z</time>
      </trkpt>
      <trkpt lat="47.26582" lon="-1.41408">
        <ele>52</ele>
        <time>2021-03-27T11:46:16.000Z</time>
      </trkpt>
      <trkpt lat="47.26575" lon="-1.41422">
        <ele>52</ele>
        <time>2021-03-27T11:46:18.000Z</time>
      </trkpt>
      <trkpt lat="47.26568" lon="-1.41436">
        <ele>52</ele>
        <time>2021-03-27T11:46:20.000Z</time>
      </trkpt>
      <trkpt lat="47.26562" lon="-1.41451">
        <ele>52</ele>
        <time>2021-03-27T11:46:22.000Z</time>
      </trkpt>
      <trkpt lat="47.26551" lon="-1.41471">
        <ele>52</ele>
        <time>2021-03-27T11:46:25.000Z</time>
      </trkpt>
      <trkpt lat="47.26543" lon="-1.41483">
        <ele>52</ele>
        <time>2021-03-27T11:46:27.000Z</time>
      </trkpt>
      <trkpt lat="47.26534" lon="-1.41495">
        <ele>52</ele>
        <time>2021-03-27T11:46:29.000Z</time>
      </trkpt>
      <trkpt lat="47.26526" lon="-1.41509">
        <ele>51</ele>
        <time>2021-03-27T11:46:31.000Z</time>
      </trkpt>
      <trkpt lat="47.26518" lon="-1.41523">
        <ele>51</ele>
        <time>2021-03-27T11:46:33.000Z</time>
      </trkpt>
      <trkpt lat="47.2651" lon="-1.41536">
        <ele>51</ele>
        <time>2021-03-27T11:46:35.000Z</time>
      </trkpt>
      <trkpt lat="47.26498" lon="-1.41556">
        <ele>52</ele>
        <time>2021-03-27T11:46:38.000Z</time>
      </trkpt>
      <trkpt lat="47.2649" lon="-1.41569">
        <ele>51</ele>
        <time>2021-03-27T11:46:40.000Z</time>
      </trkpt>
      <trkpt lat="47.26482" lon="-1.41582">
        <ele>51</ele>
        <time>2021-03-27T11:46:42.000Z</time>
      </trkpt>
      <trkpt lat="47.26475" lon="-1.41595">
        <ele>51</ele>
        <time>2021-03-27T11:46:44.000Z</time>
      </trkpt>
      <trkpt lat="47.26467" lon="-1.41609">
        <ele>51</ele>
        <time>2021-03-27T11:46:46.000Z</time>
      </trkpt>
      <trkpt lat="47.2646" lon="-1.41622">
        <ele>51</ele>
        <time>2021-03-27T11:46:48.000Z</time>
      </trkpt>
      <trkpt lat="47.26452" lon="-1.41636">
        <ele>51</ele>
        <time>2021-03-27T11:46:50.000Z</time>
      </trkpt>
      <trkpt lat="47.2644" lon="-1.41656">
        <ele>51</ele>
        <time>2021-03-27T11:46:53.000Z</time>
      </trkpt>
      <trkpt lat="47.26433" lon="-1.41669">
        <ele>51</ele>
        <time>2021-03-27T11:46:55.000Z</time>
      </trkpt>
      <trkpt lat="47.26425" lon="-1.41682">
        <ele>51</ele>
        <time>2021-03-27T11:46:57.000Z</time>
      </trkpt>
      <trkpt lat="47.26414" lon="-1.41701">
        <ele>51</ele>
        <time>2021-03-27T11:47:00.000Z</time>
      </trkpt>
      <trkpt lat="47.26406" lon="-1.41714">
        <ele>51</ele>
        <time>2021-03-27T11:47:02.000Z</time>
      </trkpt>
      <trkpt lat="47.26399" lon="-1.41727">
        <ele>51</ele>
        <time>2021-03-27T11:47:04.000Z</time>
      </trkpt>
      <trkpt lat="47.26392" lon="-1.4174">
        <ele>51</ele>
        <time>2021-03-27T11:47:06.000Z</time>
      </trkpt>
      <trkpt lat="47.26384" lon="-1.41753">
        <ele>51</ele>
        <time>2021-03-27T11:47:08.000Z</time>
      </trkpt>
      <trkpt lat="47.26377" lon="-1.41766">
        <ele>51</ele>
        <time>2021-03-27T11:47:10.000Z</time>
      </trkpt>
      <trkpt lat="47.26369" lon="-1.41778">
        <ele>51</ele>
        <time>2021-03-27T11:47:12.000Z</time>
      </trkpt>
      <trkpt lat="47.26362" lon="-1.41791">
        <ele>51</ele>
        <time>2021-03-27T11:47:14.000Z</time>
      </trkpt>
      <trkpt lat="47.26354" lon="-1.41804">
        <ele>51</ele>
        <time>2021-03-27T11:47:16.000Z</time>
      </trkpt>
      <trkpt lat="47.26346" lon="-1.41817">
        <ele>51</ele>
        <time>2021-03-27T11:47:18.000Z</time>
      </trkpt>
      <trkpt lat="47.26339" lon="-1.4183">
        <ele>52</ele>
        <time>2021-03-27T11:47:20.000Z</time>
      </trkpt>
      <trkpt lat="47.26332" lon="-1.41843">
        <ele>51</ele>
        <time>2021-03-27T11:47:22.000Z</time>
      </trkpt>
      <trkpt lat="47.26324" lon="-1.41856">
        <ele>51</ele>
        <time>2021-03-27T11:47:24.000Z</time>
      </trkpt>
      <trkpt lat="47.26316" lon="-1.41869">
        <ele>51</ele>
        <time>2021-03-27T11:47:26.000Z</time>
      </trkpt>
      <trkpt lat="47.26309" lon="-1.41882">
        <ele>51</ele>
        <time>2021-03-27T11:47:28.000Z</time>
      </trkpt>
      <trkpt lat="47.26301" lon="-1.41895">
        <ele>51</ele>
        <time>2021-03-27T11:47:30.000Z</time>
      </trkpt>
      <trkpt lat="47.2629" lon="-1.41914">
        <ele>51</ele>
        <time>2021-03-27T11:47:33.000Z</time>
      </trkpt>
      <trkpt lat="47.26283" lon="-1.41928">
        <ele>51</ele>
        <time>2021-03-27T11:47:35.000Z</time>
      </trkpt>
      <trkpt lat="47.26275" lon="-1.41941">
        <ele>51</ele>
        <time>2021-03-27T11:47:37.000Z</time>
      </trkpt>
      <trkpt lat="47.26267" lon="-1.41954">
        <ele>51</ele>
        <time>2021-03-27T11:47:39.000Z</time>
      </trkpt>
      <trkpt lat="47.2626" lon="-1.41967">
        <ele>52</ele>
        <time>2021-03-27T11:47:41.000Z</time>
      </trkpt>
      <trkpt lat="47.26252" lon="-1.4198">
        <ele>51</ele>
        <time>2021-03-27T11:47:43.000Z</time>
      </trkpt>
      <trkpt lat="47.26244" lon="-1.41992">
        <ele>52</ele>
        <time>2021-03-27T11:47:45.000Z</time>
      </trkpt>
      <trkpt lat="47.26237" lon="-1.42005">
        <ele>51</ele>
        <time>2021-03-27T11:47:47.000Z</time>
      </trkpt>
      <trkpt lat="47.26229" lon="-1.42019">
        <ele>51</ele>
        <time>2021-03-27T11:47:49.000Z</time>
      </trkpt>
      <trkpt lat="47.26223" lon="-1.42033">
        <ele>51</ele>
        <time>2021-03-27T11:47:51.000Z</time>
      </trkpt>
      <trkpt lat="47.26218" lon="-1.42048">
        <ele>51</ele>
        <time>2021-03-27T11:47:53.000Z</time>
      </trkpt>
      <trkpt lat="47.26212" lon="-1.42062">
        <ele>51</ele>
        <time>2021-03-27T11:47:55.000Z</time>
      </trkpt>
      <trkpt lat="47.26205" lon="-1.42073">
        <ele>53</ele>
        <time>2021-03-27T11:47:57.000Z</time>
      </trkpt>
      <trkpt lat="47.26192" lon="-1.42078">
        <ele>53</ele>
        <time>2021-03-27T11:48:00.000Z</time>
      </trkpt>
      <trkpt lat="47.26185" lon="-1.42091">
        <ele>53</ele>
        <time>2021-03-27T11:48:02.000Z</time>
      </trkpt>
      <trkpt lat="47.26177" lon="-1.42105">
        <ele>54</ele>
        <time>2021-03-27T11:48:04.000Z</time>
      </trkpt>
      <trkpt lat="47.26165" lon="-1.42124">
        <ele>55</ele>
        <time>2021-03-27T11:48:07.000Z</time>
      </trkpt>
      <trkpt lat="47.26158" lon="-1.42136">
        <ele>54</ele>
        <time>2021-03-27T11:48:09.000Z</time>
      </trkpt>
      <trkpt lat="47.26151" lon="-1.42151">
        <ele>52</ele>
        <time>2021-03-27T11:48:11.000Z</time>
      </trkpt>
      <trkpt lat="47.26142" lon="-1.42167">
        <ele>52</ele>
        <time>2021-03-27T11:48:13.000Z</time>
      </trkpt>
      <trkpt lat="47.26134" lon="-1.42181">
        <ele>52</ele>
        <time>2021-03-27T11:48:15.000Z</time>
      </trkpt>
      <trkpt lat="47.26125" lon="-1.42193">
        <ele>52</ele>
        <time>2021-03-27T11:48:17.000Z</time>
      </trkpt>
      <trkpt lat="47.26115" lon="-1.42204">
        <ele>52</ele>
        <time>2021-03-27T11:48:19.000Z</time>
      </trkpt>
      <trkpt lat="47.26107" lon="-1.42216">
        <ele>52</ele>
        <time>2021-03-27T11:48:21.000Z</time>
      </trkpt>
      <trkpt lat="47.26098" lon="-1.42227">
        <ele>52</ele>
        <time>2021-03-27T11:48:23.000Z</time>
      </trkpt>
      <trkpt lat="47.2609" lon="-1.42239">
        <ele>52</ele>
        <time>2021-03-27T11:48:25.000Z</time>
      </trkpt>
      <trkpt lat="47.26081" lon="-1.4225">
        <ele>52</ele>
        <time>2021-03-27T11:48:27.000Z</time>
      </trkpt>
      <trkpt lat="47.26072" lon="-1.42262">
        <ele>52</ele>
        <time>2021-03-27T11:48:29.000Z</time>
      </trkpt>
      <trkpt lat="47.26063" lon="-1.42272">
        <ele>52</ele>
        <time>2021-03-27T11:48:31.000Z</time>
      </trkpt>
      <trkpt lat="47.26054" lon="-1.42284">
        <ele>52</ele>
        <time>2021-03-27T11:48:33.000Z</time>
      </trkpt>
      <trkpt lat="47.26045" lon="-1.42295">
        <ele>52</ele>
        <time>2021-03-27T11:48:35.000Z</time>
      </trkpt>
      <trkpt lat="47.26037" lon="-1.42306">
        <ele>52</ele>
        <time>2021-03-27T11:48:37.000Z</time>
      </trkpt>
      <trkpt lat="47.26028" lon="-1.42317">
        <ele>52</ele>
        <time>2021-03-27T11:48:39.000Z</time>
      </trkpt>
      <trkpt lat="47.26019" lon="-1.42329">
        <ele>52</ele>
        <time>2021-03-27T11:48:41.000Z</time>
      </trkpt>
      <trkpt lat="47.26011" lon="-1.42342">
        <ele>52</ele>
        <time>2021-03-27T11:48:43.000Z</time>
      </trkpt>
      <trkpt lat="47.26003" lon="-1.42355">
        <ele>52</ele>
        <time>2021-03-27T11:48:45.000Z</time>
      </trkpt>
      <trkpt lat="47.25995" lon="-1.42366">
        <ele>52</ele>
        <time>2021-03-27T11:48:47.000Z</time>
      </trkpt>
      <trkpt lat="47.25984" lon="-1.42376">
        <ele>52</ele>
        <time>2021-03-27T11:48:49.000Z</time>
      </trkpt>
      <trkpt lat="47.25975" lon="-1.42387">
        <ele>52</ele>
        <time>2021-03-27T11:48:51.000Z</time>
      </trkpt>
      <trkpt lat="47.25966" lon="-1.42397">
        <ele>52</ele>
        <time>2021-03-27T11:48:53.000Z</time>
      </trkpt>
      <trkpt lat="47.25958" lon="-1.42408">
        <ele>52</ele>
        <time>2021-03-27T11:48:55.000Z</time>
      </trkpt>
      <trkpt lat="47.25949" lon="-1.4242">
        <ele>52</ele>
        <time>2021-03-27T11:48:57.000Z</time>
      </trkpt>
      <trkpt lat="47.2594" lon="-1.42431">
        <ele>52</ele>
        <time>2021-03-27T11:48:59.000Z</time>
      </trkpt>
      <trkpt lat="47.25931" lon="-1.42443">
        <ele>52</ele>
        <time>2021-03-27T11:49:01.000Z</time>
      </trkpt>
      <trkpt lat="47.25922" lon="-1.42454">
        <ele>51</ele>
        <time>2021-03-27T11:49:03.000Z</time>
      </trkpt>
      <trkpt lat="47.25914" lon="-1.42465">
        <ele>51</ele>
        <time>2021-03-27T11:49:05.000Z</time>
      </trkpt>
      <trkpt lat="47.25906" lon="-1.42476">
        <ele>51</ele>
        <time>2021-03-27T11:49:07.000Z</time>
      </trkpt>
      <trkpt lat="47.25892" lon="-1.42492">
        <ele>51</ele>
        <time>2021-03-27T11:49:10.000Z</time>
      </trkpt>
      <trkpt lat="47.25881" lon="-1.425">
        <ele>51</ele>
        <time>2021-03-27T11:49:12.000Z</time>
      </trkpt>
      <trkpt lat="47.2587" lon="-1.42507">
        <ele>51</ele>
        <time>2021-03-27T11:49:14.000Z</time>
      </trkpt>
      <trkpt lat="47.2586" lon="-1.42515">
        <ele>51</ele>
        <time>2021-03-27T11:49:16.000Z</time>
      </trkpt>
      <trkpt lat="47.2585" lon="-1.42522">
        <ele>51</ele>
        <time>2021-03-27T11:49:18.000Z</time>
      </trkpt>
      <trkpt lat="47.25839" lon="-1.4253">
        <ele>51</ele>
        <time>2021-03-27T11:49:20.000Z</time>
      </trkpt>
      <trkpt lat="47.25829" lon="-1.42539">
        <ele>51</ele>
        <time>2021-03-27T11:49:22.000Z</time>
      </trkpt>
      <trkpt lat="47.25819" lon="-1.42547">
        <ele>51</ele>
        <time>2021-03-27T11:49:24.000Z</time>
      </trkpt>
      <trkpt lat="47.25809" lon="-1.42555">
        <ele>51</ele>
        <time>2021-03-27T11:49:26.000Z</time>
      </trkpt>
      <trkpt lat="47.25799" lon="-1.42563">
        <ele>51</ele>
        <time>2021-03-27T11:49:28.000Z</time>
      </trkpt>
      <trkpt lat="47.2579" lon="-1.42571">
        <ele>51</ele>
        <time>2021-03-27T11:49:30.000Z</time>
      </trkpt>
      <trkpt lat="47.2578" lon="-1.4258">
        <ele>51</ele>
        <time>2021-03-27T11:49:32.000Z</time>
      </trkpt>
      <trkpt lat="47.25771" lon="-1.42589">
        <ele>52</ele>
        <time>2021-03-27T11:49:34.000Z</time>
      </trkpt>
      <trkpt lat="47.25764" lon="-1.426">
        <ele>53</ele>
        <time>2021-03-27T11:49:36.000Z</time>
      </trkpt>
      <trkpt lat="47.25754" lon="-1.42613">
        <ele>53</ele>
        <time>2021-03-27T11:49:39.000Z</time>
      </trkpt>
      <trkpt lat="47.25748" lon="-1.42626">
        <ele>52</ele>
        <time>2021-03-27T11:49:41.000Z</time>
      </trkpt>
      <trkpt lat="47.25742" lon="-1.42639">
        <ele>52</ele>
        <time>2021-03-27T11:49:43.000Z</time>
      </trkpt>
      <trkpt lat="47.25732" lon="-1.42646">
        <ele>53</ele>
        <time>2021-03-27T11:49:45.000Z</time>
      </trkpt>
      <trkpt lat="47.25721" lon="-1.42646">
        <ele>53</ele>
        <time>2021-03-27T11:49:47.000Z</time>
      </trkpt>
      <trkpt lat="47.2571" lon="-1.42645">
        <ele>53</ele>
        <time>2021-03-27T11:49:49.000Z</time>
      </trkpt>
      <trkpt lat="47.25699" lon="-1.42645">
        <ele>54</ele>
        <time>2021-03-27T11:49:51.000Z</time>
      </trkpt>
      <trkpt lat="47.2569" lon="-1.42647">
        <ele>55</ele>
        <time>2021-03-27T11:49:53.000Z</time>
      </trkpt>
      <trkpt lat="47.25681" lon="-1.42655">
        <ele>56</ele>
        <time>2021-03-27T11:49:55.000Z</time>
      </trkpt>
      <trkpt lat="47.25671" lon="-1.42664">
        <ele>55</ele>
        <time>2021-03-27T11:49:57.000Z</time>
      </trkpt>
      <trkpt lat="47.25661" lon="-1.42676">
        <ele>53</ele>
        <time>2021-03-27T11:49:59.000Z</time>
      </trkpt>
      <trkpt lat="47.25648" lon="-1.42687">
        <ele>53</ele>
        <time>2021-03-27T11:50:01.000Z</time>
      </trkpt>
      <trkpt lat="47.25636" lon="-1.42697">
        <ele>53</ele>
        <time>2021-03-27T11:50:03.000Z</time>
      </trkpt>
      <trkpt lat="47.25624" lon="-1.42705">
        <ele>53</ele>
        <time>2021-03-27T11:50:05.000Z</time>
      </trkpt>
      <trkpt lat="47.25614" lon="-1.42713">
        <ele>53</ele>
        <time>2021-03-27T11:50:07.000Z</time>
      </trkpt>
      <trkpt lat="47.25603" lon="-1.42722">
        <ele>53</ele>
        <time>2021-03-27T11:50:09.000Z</time>
      </trkpt>
      <trkpt lat="47.25592" lon="-1.42732">
        <ele>53</ele>
        <time>2021-03-27T11:50:11.000Z</time>
      </trkpt>
      <trkpt lat="47.25581" lon="-1.42741">
        <ele>53</ele>
        <time>2021-03-27T11:50:13.000Z</time>
      </trkpt>
      <trkpt lat="47.2557" lon="-1.4275">
        <ele>53</ele>
        <time>2021-03-27T11:50:15.000Z</time>
      </trkpt>
      <trkpt lat="47.25558" lon="-1.42759">
        <ele>52</ele>
        <time>2021-03-27T11:50:17.000Z</time>
      </trkpt>
      <trkpt lat="47.25548" lon="-1.42768">
        <ele>52</ele>
        <time>2021-03-27T11:50:19.000Z</time>
      </trkpt>
      <trkpt lat="47.25537" lon="-1.42777">
        <ele>52</ele>
        <time>2021-03-27T11:50:21.000Z</time>
      </trkpt>
      <trkpt lat="47.25526" lon="-1.42786">
        <ele>52</ele>
        <time>2021-03-27T11:50:23.000Z</time>
      </trkpt>
      <trkpt lat="47.25515" lon="-1.42795">
        <ele>52</ele>
        <time>2021-03-27T11:50:25.000Z</time>
      </trkpt>
      <trkpt lat="47.25505" lon="-1.42804">
        <ele>52</ele>
        <time>2021-03-27T11:50:27.000Z</time>
      </trkpt>
      <trkpt lat="47.25494" lon="-1.42813">
        <ele>52</ele>
        <time>2021-03-27T11:50:29.000Z</time>
      </trkpt>
      <trkpt lat="47.25483" lon="-1.42821">
        <ele>52</ele>
        <time>2021-03-27T11:50:31.000Z</time>
      </trkpt>
      <trkpt lat="47.25472" lon="-1.42829">
        <ele>52</ele>
        <time>2021-03-27T11:50:33.000Z</time>
      </trkpt>
      <trkpt lat="47.25461" lon="-1.42837">
        <ele>52</ele>
        <time>2021-03-27T11:50:35.000Z</time>
      </trkpt>
      <trkpt lat="47.25451" lon="-1.42845">
        <ele>52</ele>
        <time>2021-03-27T11:50:37.000Z</time>
      </trkpt>
      <trkpt lat="47.2544" lon="-1.42853">
        <ele>52</ele>
        <time>2021-03-27T11:50:39.000Z</time>
      </trkpt>
      <trkpt lat="47.25429" lon="-1.4286">
        <ele>52</ele>
        <time>2021-03-27T11:50:41.000Z</time>
      </trkpt>
      <trkpt lat="47.25418" lon="-1.42867">
        <ele>52</ele>
        <time>2021-03-27T11:50:43.000Z</time>
      </trkpt>
      <trkpt lat="47.25407" lon="-1.42875">
        <ele>52</ele>
        <time>2021-03-27T11:50:45.000Z</time>
      </trkpt>
      <trkpt lat="47.25396" lon="-1.42882">
        <ele>52</ele>
        <time>2021-03-27T11:50:47.000Z</time>
      </trkpt>
      <trkpt lat="47.25385" lon="-1.4289">
        <ele>51</ele>
        <time>2021-03-27T11:50:49.000Z</time>
      </trkpt>
      <trkpt lat="47.25373" lon="-1.42898">
        <ele>51</ele>
        <time>2021-03-27T11:50:51.000Z</time>
      </trkpt>
      <trkpt lat="47.25362" lon="-1.42905">
        <ele>51</ele>
        <time>2021-03-27T11:50:53.000Z</time>
      </trkpt>
      <trkpt lat="47.25351" lon="-1.42911">
        <ele>51</ele>
        <time>2021-03-27T11:50:55.000Z</time>
      </trkpt>
      <trkpt lat="47.2534" lon="-1.42917">
        <ele>51</ele>
        <time>2021-03-27T11:50:57.000Z</time>
      </trkpt>
      <trkpt lat="47.25329" lon="-1.42922">
        <ele>51</ele>
        <time>2021-03-27T11:50:59.000Z</time>
      </trkpt>
      <trkpt lat="47.25317" lon="-1.42931">
        <ele>51</ele>
        <time>2021-03-27T11:51:01.000Z</time>
      </trkpt>
      <trkpt lat="47.25305" lon="-1.42938">
        <ele>51</ele>
        <time>2021-03-27T11:51:03.000Z</time>
      </trkpt>
      <trkpt lat="47.25293" lon="-1.42945">
        <ele>51</ele>
        <time>2021-03-27T11:51:05.000Z</time>
      </trkpt>
      <trkpt lat="47.25282" lon="-1.42952">
        <ele>51</ele>
        <time>2021-03-27T11:51:07.000Z</time>
      </trkpt>
      <trkpt lat="47.2527" lon="-1.42958">
        <ele>51</ele>
        <time>2021-03-27T11:51:09.000Z</time>
      </trkpt>
      <trkpt lat="47.25259" lon="-1.42965">
        <ele>50</ele>
        <time>2021-03-27T11:51:11.000Z</time>
      </trkpt>
      <trkpt lat="47.25247" lon="-1.42973">
        <ele>50</ele>
        <time>2021-03-27T11:51:13.000Z</time>
      </trkpt>
      <trkpt lat="47.25236" lon="-1.4298">
        <ele>50</ele>
        <time>2021-03-27T11:51:15.000Z</time>
      </trkpt>
      <trkpt lat="47.25225" lon="-1.42987">
        <ele>50</ele>
        <time>2021-03-27T11:51:17.000Z</time>
      </trkpt>
      <trkpt lat="47.25215" lon="-1.42995">
        <ele>50</ele>
        <time>2021-03-27T11:51:19.000Z</time>
      </trkpt>
      <trkpt lat="47.25205" lon="-1.43005">
        <ele>49</ele>
        <time>2021-03-27T11:51:21.000Z</time>
      </trkpt>
      <trkpt lat="47.25195" lon="-1.43015">
        <ele>49</ele>
        <time>2021-03-27T11:51:23.000Z</time>
      </trkpt>
      <trkpt lat="47.25186" lon="-1.43027">
        <ele>49</ele>
        <time>2021-03-27T11:51:25.000Z</time>
      </trkpt>
      <trkpt lat="47.25177" lon="-1.43039">
        <ele>50</ele>
        <time>2021-03-27T11:51:27.000Z</time>
      </trkpt>
      <trkpt lat="47.25168" lon="-1.4305">
        <ele>50</ele>
        <time>2021-03-27T11:51:29.000Z</time>
      </trkpt>
      <trkpt lat="47.25159" lon="-1.43058">
        <ele>51</ele>
        <time>2021-03-27T11:51:31.000Z</time>
      </trkpt>
      <trkpt lat="47.25151" lon="-1.43067">
        <ele>51</ele>
        <time>2021-03-27T11:51:33.000Z</time>
      </trkpt>
      <trkpt lat="47.25142" lon="-1.43079">
        <ele>51</ele>
        <time>2021-03-27T11:51:35.000Z</time>
      </trkpt>
      <trkpt lat="47.25133" lon="-1.4309">
        <ele>51</ele>
        <time>2021-03-27T11:51:37.000Z</time>
      </trkpt>
      <trkpt lat="47.25124" lon="-1.43101">
        <ele>51</ele>
        <time>2021-03-27T11:51:39.000Z</time>
      </trkpt>
      <trkpt lat="47.25115" lon="-1.43112">
        <ele>52</ele>
        <time>2021-03-27T11:51:41.000Z</time>
      </trkpt>
      <trkpt lat="47.25106" lon="-1.43123">
        <ele>52</ele>
        <time>2021-03-27T11:51:43.000Z</time>
      </trkpt>
      <trkpt lat="47.25098" lon="-1.43134">
        <ele>52</ele>
        <time>2021-03-27T11:51:45.000Z</time>
      </trkpt>
      <trkpt lat="47.25089" lon="-1.43145">
        <ele>52</ele>
        <time>2021-03-27T11:51:47.000Z</time>
      </trkpt>
      <trkpt lat="47.2508" lon="-1.43156">
        <ele>52</ele>
        <time>2021-03-27T11:51:49.000Z</time>
      </trkpt>
      <trkpt lat="47.25072" lon="-1.43168">
        <ele>52</ele>
        <time>2021-03-27T11:51:51.000Z</time>
      </trkpt>
      <trkpt lat="47.25062" lon="-1.43178">
        <ele>51</ele>
        <time>2021-03-27T11:51:53.000Z</time>
      </trkpt>
      <trkpt lat="47.25053" lon="-1.43188">
        <ele>51</ele>
        <time>2021-03-27T11:51:55.000Z</time>
      </trkpt>
      <trkpt lat="47.25043" lon="-1.43197">
        <ele>51</ele>
        <time>2021-03-27T11:51:57.000Z</time>
      </trkpt>
      <trkpt lat="47.25033" lon="-1.43205">
        <ele>51</ele>
        <time>2021-03-27T11:51:59.000Z</time>
      </trkpt>
      <trkpt lat="47.25022" lon="-1.43214">
        <ele>51</ele>
        <time>2021-03-27T11:52:01.000Z</time>
      </trkpt>
      <trkpt lat="47.25012" lon="-1.43223">
        <ele>51</ele>
        <time>2021-03-27T11:52:03.000Z</time>
      </trkpt>
      <trkpt lat="47.25001" lon="-1.43231">
        <ele>51</ele>
        <time>2021-03-27T11:52:05.000Z</time>
      </trkpt>
      <trkpt lat="47.24991" lon="-1.43239">
        <ele>51</ele>
        <time>2021-03-27T11:52:07.000Z</time>
      </trkpt>
      <trkpt lat="47.2498" lon="-1.43246">
        <ele>51</ele>
        <time>2021-03-27T11:52:09.000Z</time>
      </trkpt>
      <trkpt lat="47.24969" lon="-1.43251">
        <ele>51</ele>
        <time>2021-03-27T11:52:11.000Z</time>
      </trkpt>
      <trkpt lat="47.24958" lon="-1.43257">
        <ele>51</ele>
        <time>2021-03-27T11:52:13.000Z</time>
      </trkpt>
      <trkpt lat="47.24947" lon="-1.43264">
        <ele>51</ele>
        <time>2021-03-27T11:52:15.000Z</time>
      </trkpt>
      <trkpt lat="47.24937" lon="-1.43271">
        <ele>52</ele>
        <time>2021-03-27T11:52:17.000Z</time>
      </trkpt>
      <trkpt lat="47.24927" lon="-1.43277">
        <ele>52</ele>
        <time>2021-03-27T11:52:19.000Z</time>
      </trkpt>
      <trkpt lat="47.24917" lon="-1.43284">
        <ele>53</ele>
        <time>2021-03-27T11:52:21.000Z</time>
      </trkpt>
      <trkpt lat="47.24907" lon="-1.4329">
        <ele>53</ele>
        <time>2021-03-27T11:52:23.000Z</time>
      </trkpt>
      <trkpt lat="47.24897" lon="-1.43297">
        <ele>53</ele>
        <time>2021-03-27T11:52:25.000Z</time>
      </trkpt>
      <trkpt lat="47.24887" lon="-1.43305">
        <ele>54</ele>
        <time>2021-03-27T11:52:27.000Z</time>
      </trkpt>
      <trkpt lat="47.24877" lon="-1.43313">
        <ele>54</ele>
        <time>2021-03-27T11:52:29.000Z</time>
      </trkpt>
      <trkpt lat="47.24866" lon="-1.4332">
        <ele>54</ele>
        <time>2021-03-27T11:52:31.000Z</time>
      </trkpt>
      <trkpt lat="47.24856" lon="-1.43327">
        <ele>54</ele>
        <time>2021-03-27T11:52:33.000Z</time>
      </trkpt>
      <trkpt lat="47.24846" lon="-1.43334">
        <ele>54</ele>
        <time>2021-03-27T11:52:35.000Z</time>
      </trkpt>
      <trkpt lat="47.24836" lon="-1.4334">
        <ele>54</ele>
        <time>2021-03-27T11:52:37.000Z</time>
      </trkpt>
      <trkpt lat="47.24826" lon="-1.43347">
        <ele>53</ele>
        <time>2021-03-27T11:52:39.000Z</time>
      </trkpt>
      <trkpt lat="47.24816" lon="-1.43354">
        <ele>53</ele>
        <time>2021-03-27T11:52:41.000Z</time>
      </trkpt>
      <trkpt lat="47.24806" lon="-1.43361">
        <ele>53</ele>
        <time>2021-03-27T11:52:43.000Z</time>
      </trkpt>
      <trkpt lat="47.24796" lon="-1.43369">
        <ele>53</ele>
        <time>2021-03-27T11:52:45.000Z</time>
      </trkpt>
      <trkpt lat="47.24785" lon="-1.4338">
        <ele>52</ele>
        <time>2021-03-27T11:52:47.000Z</time>
      </trkpt>
      <trkpt lat="47.24774" lon="-1.43394">
        <ele>51</ele>
        <time>2021-03-27T11:52:49.000Z</time>
      </trkpt>
      <trkpt lat="47.24763" lon="-1.43407">
        <ele>51</ele>
        <time>2021-03-27T11:52:51.000Z</time>
      </trkpt>
      <trkpt lat="47.24754" lon="-1.4342">
        <ele>51</ele>
        <time>2021-03-27T11:52:53.000Z</time>
      </trkpt>
      <trkpt lat="47.24745" lon="-1.43433">
        <ele>50</ele>
        <time>2021-03-27T11:52:55.000Z</time>
      </trkpt>
      <trkpt lat="47.24736" lon="-1.43447">
        <ele>50</ele>
        <time>2021-03-27T11:52:57.000Z</time>
      </trkpt>
      <trkpt lat="47.24729" lon="-1.4346">
        <ele>50</ele>
        <time>2021-03-27T11:52:59.000Z</time>
      </trkpt>
      <trkpt lat="47.24721" lon="-1.43474">
        <ele>50</ele>
        <time>2021-03-27T11:53:01.000Z</time>
      </trkpt>
      <trkpt lat="47.24714" lon="-1.43488">
        <ele>50</ele>
        <time>2021-03-27T11:53:03.000Z</time>
      </trkpt>
      <trkpt lat="47.24709" lon="-1.43503">
        <ele>50</ele>
        <time>2021-03-27T11:53:05.000Z</time>
      </trkpt>
      <trkpt lat="47.24704" lon="-1.43518">
        <ele>50</ele>
        <time>2021-03-27T11:53:07.000Z</time>
      </trkpt>
      <trkpt lat="47.247" lon="-1.43533">
        <ele>50</ele>
        <time>2021-03-27T11:53:09.000Z</time>
      </trkpt>
      <trkpt lat="47.24695" lon="-1.43548">
        <ele>50</ele>
        <time>2021-03-27T11:53:11.000Z</time>
      </trkpt>
      <trkpt lat="47.2469" lon="-1.43561">
        <ele>50</ele>
        <time>2021-03-27T11:53:13.000Z</time>
      </trkpt>
      <trkpt lat="47.24683" lon="-1.43572">
        <ele>50</ele>
        <time>2021-03-27T11:53:15.000Z</time>
      </trkpt>
      <trkpt lat="47.24672" lon="-1.43582">
        <ele>51</ele>
        <time>2021-03-27T11:53:18.000Z</time>
      </trkpt>
      <trkpt lat="47.24663" lon="-1.4359">
        <ele>51</ele>
        <time>2021-03-27T11:53:20.000Z</time>
      </trkpt>
      <trkpt lat="47.24654" lon="-1.436">
        <ele>51</ele>
        <time>2021-03-27T11:53:22.000Z</time>
      </trkpt>
      <trkpt lat="47.24645" lon="-1.43609">
        <ele>51</ele>
        <time>2021-03-27T11:53:24.000Z</time>
      </trkpt>
      <trkpt lat="47.24636" lon="-1.43618">
        <ele>51</ele>
        <time>2021-03-27T11:53:26.000Z</time>
      </trkpt>
      <trkpt lat="47.24627" lon="-1.43626">
        <ele>51</ele>
        <time>2021-03-27T11:53:28.000Z</time>
      </trkpt>
      <trkpt lat="47.24617" lon="-1.43632">
        <ele>51</ele>
        <time>2021-03-27T11:53:30.000Z</time>
      </trkpt>
      <trkpt lat="47.24607" lon="-1.4364">
        <ele>51</ele>
        <time>2021-03-27T11:53:32.000Z</time>
      </trkpt>
      <trkpt lat="47.24598" lon="-1.4365">
        <ele>51</ele>
        <time>2021-03-27T11:53:34.000Z</time>
      </trkpt>
      <trkpt lat="47.2459" lon="-1.43662">
        <ele>51</ele>
        <time>2021-03-27T11:53:36.000Z</time>
      </trkpt>
      <trkpt lat="47.24583" lon="-1.43674">
        <ele>51</ele>
        <time>2021-03-27T11:53:38.000Z</time>
      </trkpt>
      <trkpt lat="47.24574" lon="-1.43684">
        <ele>50</ele>
        <time>2021-03-27T11:53:40.000Z</time>
      </trkpt>
      <trkpt lat="47.24565" lon="-1.43693">
        <ele>50</ele>
        <time>2021-03-27T11:53:42.000Z</time>
      </trkpt>
      <trkpt lat="47.24556" lon="-1.43702">
        <ele>50</ele>
        <time>2021-03-27T11:53:44.000Z</time>
      </trkpt>
      <trkpt lat="47.24546" lon="-1.43711">
        <ele>51</ele>
        <time>2021-03-27T11:53:46.000Z</time>
      </trkpt>
      <trkpt lat="47.24539" lon="-1.43725">
        <ele>50</ele>
        <time>2021-03-27T11:53:48.000Z</time>
      </trkpt>
      <trkpt lat="47.24533" lon="-1.43739">
        <ele>50</ele>
        <time>2021-03-27T11:53:50.000Z</time>
      </trkpt>
      <trkpt lat="47.24528" lon="-1.43754">
        <ele>50</ele>
        <time>2021-03-27T11:53:52.000Z</time>
      </trkpt>
      <trkpt lat="47.24524" lon="-1.43769">
        <ele>50</ele>
        <time>2021-03-27T11:53:54.000Z</time>
      </trkpt>
      <trkpt lat="47.24519" lon="-1.43784">
        <ele>50</ele>
        <time>2021-03-27T11:53:56.000Z</time>
      </trkpt>
      <trkpt lat="47.24514" lon="-1.438">
        <ele>50</ele>
        <time>2021-03-27T11:53:58.000Z</time>
      </trkpt>
      <trkpt lat="47.24509" lon="-1.43816">
        <ele>50</ele>
        <time>2021-03-27T11:54:00.000Z</time>
      </trkpt>
      <trkpt lat="47.24505" lon="-1.43831">
        <ele>50</ele>
        <time>2021-03-27T11:54:02.000Z</time>
      </trkpt>
      <trkpt lat="47.245" lon="-1.43846">
        <ele>50</ele>
        <time>2021-03-27T11:54:04.000Z</time>
      </trkpt>
      <trkpt lat="47.24495" lon="-1.43861">
        <ele>50</ele>
        <time>2021-03-27T11:54:06.000Z</time>
      </trkpt>
      <trkpt lat="47.2449" lon="-1.43876">
        <ele>50</ele>
        <time>2021-03-27T11:54:08.000Z</time>
      </trkpt>
      <trkpt lat="47.24485" lon="-1.43891">
        <ele>50</ele>
        <time>2021-03-27T11:54:10.000Z</time>
      </trkpt>
      <trkpt lat="47.2448" lon="-1.43906">
        <ele>50</ele>
        <time>2021-03-27T11:54:12.000Z</time>
      </trkpt>
      <trkpt lat="47.24474" lon="-1.4392">
        <ele>51</ele>
        <time>2021-03-27T11:54:14.000Z</time>
      </trkpt>
      <trkpt lat="47.24469" lon="-1.43933">
        <ele>51</ele>
        <time>2021-03-27T11:54:16.000Z</time>
      </trkpt>
      <trkpt lat="47.24463" lon="-1.43947">
        <ele>51</ele>
        <time>2021-03-27T11:54:18.000Z</time>
      </trkpt>
      <trkpt lat="47.24459" lon="-1.4396">
        <ele>51</ele>
        <time>2021-03-27T11:54:20.000Z</time>
      </trkpt>
      <trkpt lat="47.24454" lon="-1.43974">
        <ele>51</ele>
        <time>2021-03-27T11:54:22.000Z</time>
      </trkpt>
      <trkpt lat="47.24448" lon="-1.43988">
        <ele>51</ele>
        <time>2021-03-27T11:54:24.000Z</time>
      </trkpt>
      <trkpt lat="47.2444" lon="-1.44">
        <ele>50</ele>
        <time>2021-03-27T11:54:26.000Z</time>
      </trkpt>
      <trkpt lat="47.24432" lon="-1.44011">
        <ele>50</ele>
        <time>2021-03-27T11:54:28.000Z</time>
      </trkpt>
      <trkpt lat="47.24424" lon="-1.44023">
        <ele>50</ele>
        <time>2021-03-27T11:54:30.000Z</time>
      </trkpt>
      <trkpt lat="47.24418" lon="-1.44037">
        <ele>50</ele>
        <time>2021-03-27T11:54:32.000Z</time>
      </trkpt>
      <trkpt lat="47.24412" lon="-1.44051">
        <ele>50</ele>
        <time>2021-03-27T11:54:34.000Z</time>
      </trkpt>
      <trkpt lat="47.24405" lon="-1.44065">
        <ele>50</ele>
        <time>2021-03-27T11:54:36.000Z</time>
      </trkpt>
      <trkpt lat="47.24399" lon="-1.44078">
        <ele>50</ele>
        <time>2021-03-27T11:54:38.000Z</time>
      </trkpt>
      <trkpt lat="47.24392" lon="-1.44092">
        <ele>50</ele>
        <time>2021-03-27T11:54:40.000Z</time>
      </trkpt>
      <trkpt lat="47.24385" lon="-1.44105">
        <ele>50</ele>
        <time>2021-03-27T11:54:42.000Z</time>
      </trkpt>
      <trkpt lat="47.24378" lon="-1.44117">
        <ele>50</ele>
        <time>2021-03-27T11:54:44.000Z</time>
      </trkpt>
      <trkpt lat="47.24372" lon="-1.4413">
        <ele>51</ele>
        <time>2021-03-27T11:54:46.000Z</time>
      </trkpt>
      <trkpt lat="47.24365" lon="-1.44143">
        <ele>50</ele>
        <time>2021-03-27T11:54:48.000Z</time>
      </trkpt>
      <trkpt lat="47.24359" lon="-1.44156">
        <ele>50</ele>
        <time>2021-03-27T11:54:50.000Z</time>
      </trkpt>
      <trkpt lat="47.24354" lon="-1.4417">
        <ele>50</ele>
        <time>2021-03-27T11:54:52.000Z</time>
      </trkpt>
      <trkpt lat="47.2435" lon="-1.44185">
        <ele>51</ele>
        <time>2021-03-27T11:54:54.000Z</time>
      </trkpt>
      <trkpt lat="47.24346" lon="-1.442">
        <ele>51</ele>
        <time>2021-03-27T11:54:56.000Z</time>
      </trkpt>
      <trkpt lat="47.24343" lon="-1.44215">
        <ele>51</ele>
        <time>2021-03-27T11:54:58.000Z</time>
      </trkpt>
      <trkpt lat="47.24342" lon="-1.44231">
        <ele>51</ele>
        <time>2021-03-27T11:55:00.000Z</time>
      </trkpt>
      <trkpt lat="47.24341" lon="-1.44246">
        <ele>51</ele>
        <time>2021-03-27T11:55:02.000Z</time>
      </trkpt>
      <trkpt lat="47.24342" lon="-1.44262">
        <ele>50</ele>
        <time>2021-03-27T11:55:04.000Z</time>
      </trkpt>
      <trkpt lat="47.24342" lon="-1.44277">
        <ele>50</ele>
        <time>2021-03-27T11:55:06.000Z</time>
      </trkpt>
      <trkpt lat="47.24342" lon="-1.44292">
        <ele>50</ele>
        <time>2021-03-27T11:55:08.000Z</time>
      </trkpt>
      <trkpt lat="47.24338" lon="-1.44306">
        <ele>50</ele>
        <time>2021-03-27T11:55:10.000Z</time>
      </trkpt>
      <trkpt lat="47.24335" lon="-1.44319">
        <ele>51</ele>
        <time>2021-03-27T11:55:12.000Z</time>
      </trkpt>
      <trkpt lat="47.24333" lon="-1.44334">
        <ele>50</ele>
        <time>2021-03-27T11:55:14.000Z</time>
      </trkpt>
      <trkpt lat="47.24332" lon="-1.4435">
        <ele>51</ele>
        <time>2021-03-27T11:55:16.000Z</time>
      </trkpt>
      <trkpt lat="47.24331" lon="-1.44366">
        <ele>50</ele>
        <time>2021-03-27T11:55:18.000Z</time>
      </trkpt>
      <trkpt lat="47.2433" lon="-1.44381">
        <ele>50</ele>
        <time>2021-03-27T11:55:20.000Z</time>
      </trkpt>
      <trkpt lat="47.24329" lon="-1.44397">
        <ele>50</ele>
        <time>2021-03-27T11:55:22.000Z</time>
      </trkpt>
      <trkpt lat="47.24327" lon="-1.44413">
        <ele>50</ele>
        <time>2021-03-27T11:55:24.000Z</time>
      </trkpt>
      <trkpt lat="47.24326" lon="-1.44428">
        <ele>51</ele>
        <time>2021-03-27T11:55:26.000Z</time>
      </trkpt>
      <trkpt lat="47.24325" lon="-1.44443">
        <ele>51</ele>
        <time>2021-03-27T11:55:28.000Z</time>
      </trkpt>
      <trkpt lat="47.24324" lon="-1.44459">
        <ele>51</ele>
        <time>2021-03-27T11:55:30.000Z</time>
      </trkpt>
      <trkpt lat="47.24323" lon="-1.44475">
        <ele>51</ele>
        <time>2021-03-27T11:55:32.000Z</time>
      </trkpt>
      <trkpt lat="47.24321" lon="-1.44491">
        <ele>51</ele>
        <time>2021-03-27T11:55:34.000Z</time>
      </trkpt>
      <trkpt lat="47.2432" lon="-1.44507">
        <ele>51</ele>
        <time>2021-03-27T11:55:36.000Z</time>
      </trkpt>
      <trkpt lat="47.24319" lon="-1.44522">
        <ele>51</ele>
        <time>2021-03-27T11:55:38.000Z</time>
      </trkpt>
      <trkpt lat="47.24318" lon="-1.44538">
        <ele>51</ele>
        <time>2021-03-27T11:55:40.000Z</time>
      </trkpt>
      <trkpt lat="47.24317" lon="-1.44553">
        <ele>51</ele>
        <time>2021-03-27T11:55:42.000Z</time>
      </trkpt>
      <trkpt lat="47.24316" lon="-1.44569">
        <ele>51</ele>
        <time>2021-03-27T11:55:44.000Z</time>
      </trkpt>
      <trkpt lat="47.24316" lon="-1.44585">
        <ele>51</ele>
        <time>2021-03-27T11:55:46.000Z</time>
      </trkpt>
      <trkpt lat="47.24317" lon="-1.44601">
        <ele>52</ele>
        <time>2021-03-27T11:55:48.000Z</time>
      </trkpt>
      <trkpt lat="47.24316" lon="-1.44616">
        <ele>52</ele>
        <time>2021-03-27T11:55:50.000Z</time>
      </trkpt>
      <trkpt lat="47.24313" lon="-1.44631">
        <ele>52</ele>
        <time>2021-03-27T11:55:52.000Z</time>
      </trkpt>
      <trkpt lat="47.24311" lon="-1.44645">
        <ele>52</ele>
        <time>2021-03-27T11:55:54.000Z</time>
      </trkpt>
      <trkpt lat="47.24309" lon="-1.4466">
        <ele>51</ele>
        <time>2021-03-27T11:55:56.000Z</time>
      </trkpt>
      <trkpt lat="47.24308" lon="-1.44675">
        <ele>51</ele>
        <time>2021-03-27T11:55:58.000Z</time>
      </trkpt>
      <trkpt lat="47.24306" lon="-1.4469">
        <ele>51</ele>
        <time>2021-03-27T11:56:00.000Z</time>
      </trkpt>
      <trkpt lat="47.24306" lon="-1.44705">
        <ele>51</ele>
        <time>2021-03-27T11:56:02.000Z</time>
      </trkpt>
      <trkpt lat="47.24304" lon="-1.44721">
        <ele>51</ele>
        <time>2021-03-27T11:56:04.000Z</time>
      </trkpt>
      <trkpt lat="47.24303" lon="-1.44736">
        <ele>51</ele>
        <time>2021-03-27T11:56:06.000Z</time>
      </trkpt>
      <trkpt lat="47.24301" lon="-1.44752">
        <ele>51</ele>
        <time>2021-03-27T11:56:08.000Z</time>
      </trkpt>
      <trkpt lat="47.243" lon="-1.44767">
        <ele>51</ele>
        <time>2021-03-27T11:56:10.000Z</time>
      </trkpt>
      <trkpt lat="47.24299" lon="-1.44782">
        <ele>51</ele>
        <time>2021-03-27T11:56:12.000Z</time>
      </trkpt>
      <trkpt lat="47.24298" lon="-1.44797">
        <ele>51</ele>
        <time>2021-03-27T11:56:14.000Z</time>
      </trkpt>
      <trkpt lat="47.24296" lon="-1.44813">
        <ele>51</ele>
        <time>2021-03-27T11:56:16.000Z</time>
      </trkpt>
      <trkpt lat="47.24295" lon="-1.44828">
        <ele>50</ele>
        <time>2021-03-27T11:56:18.000Z</time>
      </trkpt>
      <trkpt lat="47.24294" lon="-1.44842">
        <ele>50</ele>
        <time>2021-03-27T11:56:20.000Z</time>
      </trkpt>
      <trkpt lat="47.24293" lon="-1.44857">
        <ele>50</ele>
        <time>2021-03-27T11:56:22.000Z</time>
      </trkpt>
      <trkpt lat="47.24291" lon="-1.44871">
        <ele>51</ele>
        <time>2021-03-27T11:56:24.000Z</time>
      </trkpt>
      <trkpt lat="47.2429" lon="-1.44885">
        <ele>51</ele>
        <time>2021-03-27T11:56:26.000Z</time>
      </trkpt>
      <trkpt lat="47.24289" lon="-1.449">
        <ele>51</ele>
        <time>2021-03-27T11:56:28.000Z</time>
      </trkpt>
      <trkpt lat="47.24288" lon="-1.44916">
        <ele>51</ele>
        <time>2021-03-27T11:56:30.000Z</time>
      </trkpt>
      <trkpt lat="47.24287" lon="-1.44932">
        <ele>51</ele>
        <time>2021-03-27T11:56:32.000Z</time>
      </trkpt>
      <trkpt lat="47.24286" lon="-1.44947">
        <ele>51</ele>
        <time>2021-03-27T11:56:34.000Z</time>
      </trkpt>
      <trkpt lat="47.24285" lon="-1.44962">
        <ele>51</ele>
        <time>2021-03-27T11:56:36.000Z</time>
      </trkpt>
      <trkpt lat="47.24284" lon="-1.44976">
        <ele>51</ele>
        <time>2021-03-27T11:56:38.000Z</time>
      </trkpt>
      <trkpt lat="47.24282" lon="-1.44992">
        <ele>51</ele>
        <time>2021-03-27T11:56:40.000Z</time>
      </trkpt>
      <trkpt lat="47.24281" lon="-1.45007">
        <ele>51</ele>
        <time>2021-03-27T11:56:42.000Z</time>
      </trkpt>
      <trkpt lat="47.24279" lon="-1.45022">
        <ele>51</ele>
        <time>2021-03-27T11:56:44.000Z</time>
      </trkpt>
      <trkpt lat="47.24278" lon="-1.45037">
        <ele>51</ele>
        <time>2021-03-27T11:56:46.000Z</time>
      </trkpt>
      <trkpt lat="47.24277" lon="-1.45052">
        <ele>51</ele>
        <time>2021-03-27T11:56:48.000Z</time>
      </trkpt>
      <trkpt lat="47.24275" lon="-1.45068">
        <ele>52</ele>
        <time>2021-03-27T11:56:50.000Z</time>
      </trkpt>
      <trkpt lat="47.24274" lon="-1.45084">
        <ele>52</ele>
        <time>2021-03-27T11:56:52.000Z</time>
      </trkpt>
      <trkpt lat="47.24273" lon="-1.45101">
        <ele>52</ele>
        <time>2021-03-27T11:56:54.000Z</time>
      </trkpt>
      <trkpt lat="47.24272" lon="-1.45118">
        <ele>52</ele>
        <time>2021-03-27T11:56:56.000Z</time>
      </trkpt>
      <trkpt lat="47.24271" lon="-1.45134">
        <ele>52</ele>
        <time>2021-03-27T11:56:58.000Z</time>
      </trkpt>
      <trkpt lat="47.24269" lon="-1.4515">
        <ele>52</ele>
        <time>2021-03-27T11:57:00.000Z</time>
      </trkpt>
      <trkpt lat="47.24268" lon="-1.45166">
        <ele>51</ele>
        <time>2021-03-27T11:57:02.000Z</time>
      </trkpt>
      <trkpt lat="47.24266" lon="-1.45181">
        <ele>52</ele>
        <time>2021-03-27T11:57:04.000Z</time>
      </trkpt>
      <trkpt lat="47.24265" lon="-1.45196">
        <ele>52</ele>
        <time>2021-03-27T11:57:06.000Z</time>
      </trkpt>
      <trkpt lat="47.24264" lon="-1.45212">
        <ele>52</ele>
        <time>2021-03-27T11:57:08.000Z</time>
      </trkpt>
      <trkpt lat="47.24263" lon="-1.45227">
        <ele>51</ele>
        <time>2021-03-27T11:57:10.000Z</time>
      </trkpt>
      <trkpt lat="47.24261" lon="-1.45242">
        <ele>51</ele>
        <time>2021-03-27T11:57:12.000Z</time>
      </trkpt>
      <trkpt lat="47.24257" lon="-1.45256">
        <ele>52</ele>
        <time>2021-03-27T11:57:14.000Z</time>
      </trkpt>
      <trkpt lat="47.24247" lon="-1.4527">
        <ele>52</ele>
        <time>2021-03-27T11:57:17.000Z</time>
      </trkpt>
      <trkpt lat="47.24242" lon="-1.45282">
        <ele>52</ele>
        <time>2021-03-27T11:57:19.000Z</time>
      </trkpt>
      <trkpt lat="47.24238" lon="-1.45296">
        <ele>52</ele>
        <time>2021-03-27T11:57:21.000Z</time>
      </trkpt>
      <trkpt lat="47.24233" lon="-1.4531">
        <ele>52</ele>
        <time>2021-03-27T11:57:23.000Z</time>
      </trkpt>
      <trkpt lat="47.24229" lon="-1.45324">
        <ele>52</ele>
        <time>2021-03-27T11:57:25.000Z</time>
      </trkpt>
      <trkpt lat="47.24225" lon="-1.45338">
        <ele>51</ele>
        <time>2021-03-27T11:57:27.000Z</time>
      </trkpt>
      <trkpt lat="47.2422" lon="-1.45352">
        <ele>52</ele>
        <time>2021-03-27T11:57:29.000Z</time>
      </trkpt>
      <trkpt lat="47.24216" lon="-1.45366">
        <ele>52</ele>
        <time>2021-03-27T11:57:31.000Z</time>
      </trkpt>
      <trkpt lat="47.24212" lon="-1.4538">
        <ele>52</ele>
        <time>2021-03-27T11:57:33.000Z</time>
      </trkpt>
      <trkpt lat="47.24207" lon="-1.45395">
        <ele>52</ele>
        <time>2021-03-27T11:57:35.000Z</time>
      </trkpt>
      <trkpt lat="47.24202" lon="-1.45409">
        <ele>52</ele>
        <time>2021-03-27T11:57:37.000Z</time>
      </trkpt>
      <trkpt lat="47.24197" lon="-1.45422">
        <ele>52</ele>
        <time>2021-03-27T11:57:39.000Z</time>
      </trkpt>
      <trkpt lat="47.24193" lon="-1.45436">
        <ele>52</ele>
        <time>2021-03-27T11:57:41.000Z</time>
      </trkpt>
      <trkpt lat="47.24188" lon="-1.45448">
        <ele>53</ele>
        <time>2021-03-27T11:57:43.000Z</time>
      </trkpt>
      <trkpt lat="47.24184" lon="-1.45462">
        <ele>53</ele>
        <time>2021-03-27T11:57:45.000Z</time>
      </trkpt>
      <trkpt lat="47.2418" lon="-1.45477">
        <ele>52</ele>
        <time>2021-03-27T11:57:47.000Z</time>
      </trkpt>
      <trkpt lat="47.24175" lon="-1.45495">
        <ele>51</ele>
        <time>2021-03-27T11:57:49.000Z</time>
      </trkpt>
      <trkpt lat="47.24169" lon="-1.45516">
        <ele>50</ele>
        <time>2021-03-27T11:57:51.000Z</time>
      </trkpt>
      <trkpt lat="47.24163" lon="-1.45533">
        <ele>50</ele>
        <time>2021-03-27T11:57:53.000Z</time>
      </trkpt>
      <trkpt lat="47.24158" lon="-1.4555">
        <ele>50</ele>
        <time>2021-03-27T11:57:55.000Z</time>
      </trkpt>
      <trkpt lat="47.24152" lon="-1.45567">
        <ele>51</ele>
        <time>2021-03-27T11:57:57.000Z</time>
      </trkpt>
      <trkpt lat="47.24147" lon="-1.45583">
        <ele>50</ele>
        <time>2021-03-27T11:57:59.000Z</time>
      </trkpt>
      <trkpt lat="47.24142" lon="-1.45599">
        <ele>50</ele>
        <time>2021-03-27T11:58:01.000Z</time>
      </trkpt>
      <trkpt lat="47.24136" lon="-1.45613">
        <ele>51</ele>
        <time>2021-03-27T11:58:03.000Z</time>
      </trkpt>
      <trkpt lat="47.24131" lon="-1.45628">
        <ele>51</ele>
        <time>2021-03-27T11:58:05.000Z</time>
      </trkpt>
      <trkpt lat="47.24125" lon="-1.45642">
        <ele>51</ele>
        <time>2021-03-27T11:58:07.000Z</time>
      </trkpt>
      <trkpt lat="47.24119" lon="-1.45656">
        <ele>51</ele>
        <time>2021-03-27T11:58:09.000Z</time>
      </trkpt>
      <trkpt lat="47.24113" lon="-1.45668">
        <ele>50</ele>
        <time>2021-03-27T11:58:11.000Z</time>
      </trkpt>
      <trkpt lat="47.24107" lon="-1.4568">
        <ele>50</ele>
        <time>2021-03-27T11:58:13.000Z</time>
      </trkpt>
      <trkpt lat="47.24101" lon="-1.45692">
        <ele>51</ele>
        <time>2021-03-27T11:58:15.000Z</time>
      </trkpt>
      <trkpt lat="47.24094" lon="-1.45704">
        <ele>51</ele>
        <time>2021-03-27T11:58:17.000Z</time>
      </trkpt>
      <trkpt lat="47.24086" lon="-1.45716">
        <ele>51</ele>
        <time>2021-03-27T11:58:19.000Z</time>
      </trkpt>
      <trkpt lat="47.24079" lon="-1.45728">
        <ele>51</ele>
        <time>2021-03-27T11:58:21.000Z</time>
      </trkpt>
      <trkpt lat="47.24071" lon="-1.4574">
        <ele>51</ele>
        <time>2021-03-27T11:58:23.000Z</time>
      </trkpt>
      <trkpt lat="47.24064" lon="-1.45752">
        <ele>51</ele>
        <time>2021-03-27T11:58:25.000Z</time>
      </trkpt>
      <trkpt lat="47.24057" lon="-1.45763">
        <ele>51</ele>
        <time>2021-03-27T11:58:27.000Z</time>
      </trkpt>
      <trkpt lat="47.2405" lon="-1.45776">
        <ele>50</ele>
        <time>2021-03-27T11:58:29.000Z</time>
      </trkpt>
      <trkpt lat="47.24042" lon="-1.45788">
        <ele>50</ele>
        <time>2021-03-27T11:58:31.000Z</time>
      </trkpt>
      <trkpt lat="47.24034" lon="-1.458">
        <ele>50</ele>
        <time>2021-03-27T11:58:33.000Z</time>
      </trkpt>
      <trkpt lat="47.24026" lon="-1.45812">
        <ele>51</ele>
        <time>2021-03-27T11:58:35.000Z</time>
      </trkpt>
      <trkpt lat="47.24019" lon="-1.45824">
        <ele>51</ele>
        <time>2021-03-27T11:58:37.000Z</time>
      </trkpt>
      <trkpt lat="47.24011" lon="-1.45836">
        <ele>51</ele>
        <time>2021-03-27T11:58:39.000Z</time>
      </trkpt>
      <trkpt lat="47.24003" lon="-1.45848">
        <ele>51</ele>
        <time>2021-03-27T11:58:41.000Z</time>
      </trkpt>
      <trkpt lat="47.23996" lon="-1.4586">
        <ele>51</ele>
        <time>2021-03-27T11:58:43.000Z</time>
      </trkpt>
      <trkpt lat="47.23988" lon="-1.45872">
        <ele>51</ele>
        <time>2021-03-27T11:58:45.000Z</time>
      </trkpt>
      <trkpt lat="47.23981" lon="-1.45884">
        <ele>51</ele>
        <time>2021-03-27T11:58:47.000Z</time>
      </trkpt>
      <trkpt lat="47.23973" lon="-1.45896">
        <ele>52</ele>
        <time>2021-03-27T11:58:49.000Z</time>
      </trkpt>
      <trkpt lat="47.23965" lon="-1.45908">
        <ele>52</ele>
        <time>2021-03-27T11:58:51.000Z</time>
      </trkpt>
      <trkpt lat="47.23957" lon="-1.45919">
        <ele>52</ele>
        <time>2021-03-27T11:58:53.000Z</time>
      </trkpt>
      <trkpt lat="47.23948" lon="-1.45925">
        <ele>51</ele>
        <time>2021-03-27T11:58:55.000Z</time>
      </trkpt>
      <trkpt lat="47.23938" lon="-1.4593">
        <ele>51</ele>
        <time>2021-03-27T11:58:57.000Z</time>
      </trkpt>
      <trkpt lat="47.23927" lon="-1.45934">
        <ele>52</ele>
        <time>2021-03-27T11:58:59.000Z</time>
      </trkpt>
      <trkpt lat="47.23916" lon="-1.45937">
        <ele>52</ele>
        <time>2021-03-27T11:59:01.000Z</time>
      </trkpt>
      <trkpt lat="47.23905" lon="-1.4594">
        <ele>52</ele>
        <time>2021-03-27T11:59:03.000Z</time>
      </trkpt>
      <trkpt lat="47.23894" lon="-1.45942">
        <ele>52</ele>
        <time>2021-03-27T11:59:05.000Z</time>
      </trkpt>
      <trkpt lat="47.23883" lon="-1.45945">
        <ele>51</ele>
        <time>2021-03-27T11:59:07.000Z</time>
      </trkpt>
      <trkpt lat="47.23872" lon="-1.45949">
        <ele>51</ele>
        <time>2021-03-27T11:59:09.000Z</time>
      </trkpt>
      <trkpt lat="47.2386" lon="-1.45951">
        <ele>51</ele>
        <time>2021-03-27T11:59:11.000Z</time>
      </trkpt>
      <trkpt lat="47.23849" lon="-1.45954">
        <ele>51</ele>
        <time>2021-03-27T11:59:13.000Z</time>
      </trkpt>
      <trkpt lat="47.23838" lon="-1.45956">
        <ele>51</ele>
        <time>2021-03-27T11:59:15.000Z</time>
      </trkpt>
      <trkpt lat="47.23827" lon="-1.45959">
        <ele>51</ele>
        <time>2021-03-27T11:59:17.000Z</time>
      </trkpt>
      <trkpt lat="47.23816" lon="-1.45962">
        <ele>51</ele>
        <time>2021-03-27T11:59:19.000Z</time>
      </trkpt>
      <trkpt lat="47.23805" lon="-1.45966">
        <ele>52</ele>
        <time>2021-03-27T11:59:21.000Z</time>
      </trkpt>
      <trkpt lat="47.23794" lon="-1.45971">
        <ele>52</ele>
        <time>2021-03-27T11:59:23.000Z</time>
      </trkpt>
      <trkpt lat="47.23783" lon="-1.45975">
        <ele>52</ele>
        <time>2021-03-27T11:59:25.000Z</time>
      </trkpt>
      <trkpt lat="47.23772" lon="-1.45978">
        <ele>51</ele>
        <time>2021-03-27T11:59:27.000Z</time>
      </trkpt>
      <trkpt lat="47.2376" lon="-1.45983">
        <ele>51</ele>
        <time>2021-03-27T11:59:29.000Z</time>
      </trkpt>
      <trkpt lat="47.23747" lon="-1.45986">
        <ele>51</ele>
        <time>2021-03-27T11:59:31.000Z</time>
      </trkpt>
      <trkpt lat="47.23735" lon="-1.45989">
        <ele>51</ele>
        <time>2021-03-27T11:59:33.000Z</time>
      </trkpt>
      <trkpt lat="47.23724" lon="-1.45992">
        <ele>51</ele>
        <time>2021-03-27T11:59:35.000Z</time>
      </trkpt>
      <trkpt lat="47.23712" lon="-1.45995">
        <ele>51</ele>
        <time>2021-03-27T11:59:37.000Z</time>
      </trkpt>
      <trkpt lat="47.237" lon="-1.45998">
        <ele>51</ele>
        <time>2021-03-27T11:59:39.000Z</time>
      </trkpt>
      <trkpt lat="47.23688" lon="-1.46">
        <ele>51</ele>
        <time>2021-03-27T11:59:41.000Z</time>
      </trkpt>
      <trkpt lat="47.23676" lon="-1.46004">
        <ele>50</ele>
        <time>2021-03-27T11:59:43.000Z</time>
      </trkpt>
      <trkpt lat="47.23665" lon="-1.46007">
        <ele>50</ele>
        <time>2021-03-27T11:59:45.000Z</time>
      </trkpt>
      <trkpt lat="47.23653" lon="-1.4601">
        <ele>50</ele>
        <time>2021-03-27T11:59:47.000Z</time>
      </trkpt>
      <trkpt lat="47.23641" lon="-1.46013">
        <ele>50</ele>
        <time>2021-03-27T11:59:49.000Z</time>
      </trkpt>
      <trkpt lat="47.23629" lon="-1.46017">
        <ele>50</ele>
        <time>2021-03-27T11:59:51.000Z</time>
      </trkpt>
      <trkpt lat="47.23618" lon="-1.46023">
        <ele>50</ele>
        <time>2021-03-27T11:59:53.000Z</time>
      </trkpt>
      <trkpt lat="47.23606" lon="-1.46031">
        <ele>49</ele>
        <time>2021-03-27T11:59:55.000Z</time>
      </trkpt>
      <trkpt lat="47.23596" lon="-1.46039">
        <ele>49</ele>
        <time>2021-03-27T11:59:57.000Z</time>
      </trkpt>
      <trkpt lat="47.23585" lon="-1.46049">
        <ele>49</ele>
        <time>2021-03-27T11:59:59.000Z</time>
      </trkpt>
      <trkpt lat="47.23575" lon="-1.46057">
        <ele>49</ele>
        <time>2021-03-27T12:00:01.000Z</time>
      </trkpt>
      <trkpt lat="47.23566" lon="-1.46059">
        <ele>50</ele>
        <time>2021-03-27T12:00:03.000Z</time>
      </trkpt>
      <trkpt lat="47.23553" lon="-1.46066">
        <ele>51</ele>
        <time>2021-03-27T12:00:06.000Z</time>
      </trkpt>
      <trkpt lat="47.23543" lon="-1.46075">
        <ele>51</ele>
        <time>2021-03-27T12:00:08.000Z</time>
      </trkpt>
      <trkpt lat="47.23534" lon="-1.46084">
        <ele>50</ele>
        <time>2021-03-27T12:00:10.000Z</time>
      </trkpt>
      <trkpt lat="47.23524" lon="-1.46092">
        <ele>51</ele>
        <time>2021-03-27T12:00:12.000Z</time>
      </trkpt>
      <trkpt lat="47.23514" lon="-1.46101">
        <ele>51</ele>
        <time>2021-03-27T12:00:14.000Z</time>
      </trkpt>
      <trkpt lat="47.23505" lon="-1.4611">
        <ele>50</ele>
        <time>2021-03-27T12:00:16.000Z</time>
      </trkpt>
      <trkpt lat="47.23495" lon="-1.46122">
        <ele>50</ele>
        <time>2021-03-27T12:00:18.000Z</time>
      </trkpt>
      <trkpt lat="47.23485" lon="-1.46134">
        <ele>50</ele>
        <time>2021-03-27T12:00:20.000Z</time>
      </trkpt>
      <trkpt lat="47.23474" lon="-1.46144">
        <ele>50</ele>
        <time>2021-03-27T12:00:22.000Z</time>
      </trkpt>
      <trkpt lat="47.23464" lon="-1.46154">
        <ele>50</ele>
        <time>2021-03-27T12:00:24.000Z</time>
      </trkpt>
      <trkpt lat="47.23455" lon="-1.46164">
        <ele>51</ele>
        <time>2021-03-27T12:00:26.000Z</time>
      </trkpt>
      <trkpt lat="47.23445" lon="-1.46174">
        <ele>51</ele>
        <time>2021-03-27T12:00:28.000Z</time>
      </trkpt>
      <trkpt lat="47.23436" lon="-1.46184">
        <ele>51</ele>
        <time>2021-03-27T12:00:30.000Z</time>
      </trkpt>
      <trkpt lat="47.23426" lon="-1.46194">
        <ele>51</ele>
        <time>2021-03-27T12:00:32.000Z</time>
      </trkpt>
      <trkpt lat="47.23418" lon="-1.46204">
        <ele>52</ele>
        <time>2021-03-27T12:00:34.000Z</time>
      </trkpt>
      <trkpt lat="47.23409" lon="-1.46215">
        <ele>52</ele>
        <time>2021-03-27T12:00:36.000Z</time>
      </trkpt>
      <trkpt lat="47.234" lon="-1.46226">
        <ele>52</ele>
        <time>2021-03-27T12:00:38.000Z</time>
      </trkpt>
      <trkpt lat="47.23391" lon="-1.46237">
        <ele>52</ele>
        <time>2021-03-27T12:00:40.000Z</time>
      </trkpt>
      <trkpt lat="47.23382" lon="-1.46248">
        <ele>52</ele>
        <time>2021-03-27T12:00:42.000Z</time>
      </trkpt>
      <trkpt lat="47.23373" lon="-1.46259">
        <ele>52</ele>
        <time>2021-03-27T12:00:44.000Z</time>
      </trkpt>
      <trkpt lat="47.23365" lon="-1.4627">
        <ele>52</ele>
        <time>2021-03-27T12:00:46.000Z</time>
      </trkpt>
      <trkpt lat="47.23356" lon="-1.46281">
        <ele>53</ele>
        <time>2021-03-27T12:00:48.000Z</time>
      </trkpt>
      <trkpt lat="47.23348" lon="-1.46293">
        <ele>53</ele>
        <time>2021-03-27T12:00:50.000Z</time>
      </trkpt>
      <trkpt lat="47.23339" lon="-1.46304">
        <ele>53</ele>
        <time>2021-03-27T12:00:52.000Z</time>
      </trkpt>
      <trkpt lat="47.23331" lon="-1.46314">
        <ele>53</ele>
        <time>2021-03-27T12:00:54.000Z</time>
      </trkpt>
      <trkpt lat="47.23323" lon="-1.46326">
        <ele>53</ele>
        <time>2021-03-27T12:00:56.000Z</time>
      </trkpt>
      <trkpt lat="47.23315" lon="-1.46337">
        <ele>53</ele>
        <time>2021-03-27T12:00:58.000Z</time>
      </trkpt>
      <trkpt lat="47.23307" lon="-1.46349">
        <ele>53</ele>
        <time>2021-03-27T12:01:00.000Z</time>
      </trkpt>
      <trkpt lat="47.23299" lon="-1.46361">
        <ele>53</ele>
        <time>2021-03-27T12:01:02.000Z</time>
      </trkpt>
      <trkpt lat="47.23291" lon="-1.46371">
        <ele>53</ele>
        <time>2021-03-27T12:01:04.000Z</time>
      </trkpt>
      <trkpt lat="47.23281" lon="-1.46381">
        <ele>53</ele>
        <time>2021-03-27T12:01:06.000Z</time>
      </trkpt>
      <trkpt lat="47.23272" lon="-1.46391">
        <ele>53</ele>
        <time>2021-03-27T12:01:08.000Z</time>
      </trkpt>
      <trkpt lat="47.23263" lon="-1.46402">
        <ele>53</ele>
        <time>2021-03-27T12:01:10.000Z</time>
      </trkpt>
      <trkpt lat="47.23255" lon="-1.46413">
        <ele>53</ele>
        <time>2021-03-27T12:01:12.000Z</time>
      </trkpt>
      <trkpt lat="47.23247" lon="-1.46424">
        <ele>53</ele>
        <time>2021-03-27T12:01:14.000Z</time>
      </trkpt>
      <trkpt lat="47.23238" lon="-1.46435">
        <ele>54</ele>
        <time>2021-03-27T12:01:16.000Z</time>
      </trkpt>
      <trkpt lat="47.23229" lon="-1.46447">
        <ele>53</ele>
        <time>2021-03-27T12:01:18.000Z</time>
      </trkpt>
      <trkpt lat="47.23221" lon="-1.46456">
        <ele>53</ele>
        <time>2021-03-27T12:01:20.000Z</time>
      </trkpt>
      <trkpt lat="47.23212" lon="-1.46468">
        <ele>53</ele>
        <time>2021-03-27T12:01:22.000Z</time>
      </trkpt>
      <trkpt lat="47.23203" lon="-1.46479">
        <ele>53</ele>
        <time>2021-03-27T12:01:24.000Z</time>
      </trkpt>
      <trkpt lat="47.23194" lon="-1.4649">
        <ele>53</ele>
        <time>2021-03-27T12:01:26.000Z</time>
      </trkpt>
      <trkpt lat="47.23186" lon="-1.46501">
        <ele>53</ele>
        <time>2021-03-27T12:01:28.000Z</time>
      </trkpt>
      <trkpt lat="47.23178" lon="-1.46511">
        <ele>53</ele>
        <time>2021-03-27T12:01:30.000Z</time>
      </trkpt>
      <trkpt lat="47.23169" lon="-1.46522">
        <ele>53</ele>
        <time>2021-03-27T12:01:32.000Z</time>
      </trkpt>
      <trkpt lat="47.2316" lon="-1.46533">
        <ele>53</ele>
        <time>2021-03-27T12:01:34.000Z</time>
      </trkpt>
      <trkpt lat="47.23151" lon="-1.46544">
        <ele>53</ele>
        <time>2021-03-27T12:01:36.000Z</time>
      </trkpt>
      <trkpt lat="47.23142" lon="-1.46554">
        <ele>53</ele>
        <time>2021-03-27T12:01:38.000Z</time>
      </trkpt>
      <trkpt lat="47.23133" lon="-1.46564">
        <ele>54</ele>
        <time>2021-03-27T12:01:40.000Z</time>
      </trkpt>
      <trkpt lat="47.23125" lon="-1.46575">
        <ele>54</ele>
        <time>2021-03-27T12:01:42.000Z</time>
      </trkpt>
      <trkpt lat="47.23115" lon="-1.46585">
        <ele>54</ele>
        <time>2021-03-27T12:01:44.000Z</time>
      </trkpt>
      <trkpt lat="47.23106" lon="-1.46595">
        <ele>54</ele>
        <time>2021-03-27T12:01:46.000Z</time>
      </trkpt>
      <trkpt lat="47.23097" lon="-1.46605">
        <ele>54</ele>
        <time>2021-03-27T12:01:48.000Z</time>
      </trkpt>
      <trkpt lat="47.23087" lon="-1.46615">
        <ele>54</ele>
        <time>2021-03-27T12:01:50.000Z</time>
      </trkpt>
      <trkpt lat="47.23078" lon="-1.46625">
        <ele>53</ele>
        <time>2021-03-27T12:01:52.000Z</time>
      </trkpt>
      <trkpt lat="47.2307" lon="-1.46636">
        <ele>53</ele>
        <time>2021-03-27T12:01:54.000Z</time>
      </trkpt>
      <trkpt lat="47.23063" lon="-1.46651">
        <ele>52</ele>
        <time>2021-03-27T12:01:56.000Z</time>
      </trkpt>
      <trkpt lat="47.23057" lon="-1.46669">
        <ele>51</ele>
        <time>2021-03-27T12:01:58.000Z</time>
      </trkpt>
      <trkpt lat="47.23051" lon="-1.46687">
        <ele>51</ele>
        <time>2021-03-27T12:02:00.000Z</time>
      </trkpt>
      <trkpt lat="47.23047" lon="-1.46706">
        <ele>52</ele>
        <time>2021-03-27T12:02:02.000Z</time>
      </trkpt>
      <trkpt lat="47.23044" lon="-1.46725">
        <ele>52</ele>
        <time>2021-03-27T12:02:04.000Z</time>
      </trkpt>
      <trkpt lat="47.2304" lon="-1.4674">
        <ele>52</ele>
        <time>2021-03-27T12:02:06.000Z</time>
      </trkpt>
      <trkpt lat="47.2303" lon="-1.46748">
        <ele>53</ele>
        <time>2021-03-27T12:02:09.000Z</time>
      </trkpt>
      <trkpt lat="47.23018" lon="-1.46752">
        <ele>53</ele>
        <time>2021-03-27T12:02:12.000Z</time>
      </trkpt>
      <trkpt lat="47.2301" lon="-1.46758">
        <ele>53</ele>
        <time>2021-03-27T12:02:14.000Z</time>
      </trkpt>
      <trkpt lat="47.22999" lon="-1.46767">
        <ele>53</ele>
        <time>2021-03-27T12:02:16.000Z</time>
      </trkpt>
      <trkpt lat="47.22989" lon="-1.46778">
        <ele>53</ele>
        <time>2021-03-27T12:02:18.000Z</time>
      </trkpt>
      <trkpt lat="47.22981" lon="-1.4679">
        <ele>52</ele>
        <time>2021-03-27T12:02:20.000Z</time>
      </trkpt>
      <trkpt lat="47.22974" lon="-1.46807">
        <ele>51</ele>
        <time>2021-03-27T12:02:22.000Z</time>
      </trkpt>
      <trkpt lat="47.22966" lon="-1.46823">
        <ele>51</ele>
        <time>2021-03-27T12:02:24.000Z</time>
      </trkpt>
      <trkpt lat="47.22956" lon="-1.46833">
        <ele>51</ele>
        <time>2021-03-27T12:02:26.000Z</time>
      </trkpt>
      <trkpt lat="47.22949" lon="-1.46842">
        <ele>51</ele>
        <time>2021-03-27T12:02:28.000Z</time>
      </trkpt>
      <trkpt lat="47.22944" lon="-1.46859">
        <ele>50</ele>
        <time>2021-03-27T12:02:30.000Z</time>
      </trkpt>
      <trkpt lat="47.22939" lon="-1.46877">
        <ele>50</ele>
        <time>2021-03-27T12:02:32.000Z</time>
      </trkpt>
      <trkpt lat="47.22934" lon="-1.46895">
        <ele>50</ele>
        <time>2021-03-27T12:02:34.000Z</time>
      </trkpt>
      <trkpt lat="47.22931" lon="-1.46912">
        <ele>50</ele>
        <time>2021-03-27T12:02:36.000Z</time>
      </trkpt>
      <trkpt lat="47.22926" lon="-1.4693">
        <ele>51</ele>
        <time>2021-03-27T12:02:38.000Z</time>
      </trkpt>
      <trkpt lat="47.22922" lon="-1.46947">
        <ele>51</ele>
        <time>2021-03-27T12:02:40.000Z</time>
      </trkpt>
      <trkpt lat="47.22918" lon="-1.46964">
        <ele>51</ele>
        <time>2021-03-27T12:02:42.000Z</time>
      </trkpt>
      <trkpt lat="47.22914" lon="-1.46979">
        <ele>51</ele>
        <time>2021-03-27T12:02:44.000Z</time>
      </trkpt>
      <trkpt lat="47.22908" lon="-1.46995">
        <ele>51</ele>
        <time>2021-03-27T12:02:46.000Z</time>
      </trkpt>
      <trkpt lat="47.22898" lon="-1.47006">
        <ele>51</ele>
        <time>2021-03-27T12:02:48.000Z</time>
      </trkpt>
      <trkpt lat="47.22886" lon="-1.47007">
        <ele>52</ele>
        <time>2021-03-27T12:02:50.000Z</time>
      </trkpt>
      <trkpt lat="47.22875" lon="-1.47002">
        <ele>52</ele>
        <time>2021-03-27T12:02:52.000Z</time>
      </trkpt>
      <trkpt lat="47.22863" lon="-1.46995">
        <ele>53</ele>
        <time>2021-03-27T12:02:54.000Z</time>
      </trkpt>
      <trkpt lat="47.22851" lon="-1.46989">
        <ele>54</ele>
        <time>2021-03-27T12:02:56.000Z</time>
      </trkpt>
      <trkpt lat="47.22839" lon="-1.46984">
        <ele>53</ele>
        <time>2021-03-27T12:02:58.000Z</time>
      </trkpt>
      <trkpt lat="47.22828" lon="-1.46978">
        <ele>53</ele>
        <time>2021-03-27T12:03:00.000Z</time>
      </trkpt>
      <trkpt lat="47.22816" lon="-1.46972">
        <ele>53</ele>
        <time>2021-03-27T12:03:02.000Z</time>
      </trkpt>
      <trkpt lat="47.22804" lon="-1.46967">
        <ele>52</ele>
        <time>2021-03-27T12:03:04.000Z</time>
      </trkpt>
      <trkpt lat="47.22792" lon="-1.46963">
        <ele>52</ele>
        <time>2021-03-27T12:03:06.000Z</time>
      </trkpt>
      <trkpt lat="47.2278" lon="-1.4696">
        <ele>53</ele>
        <time>2021-03-27T12:03:08.000Z</time>
      </trkpt>
      <trkpt lat="47.22769" lon="-1.46959">
        <ele>52</ele>
        <time>2021-03-27T12:03:10.000Z</time>
      </trkpt>
      <trkpt lat="47.22756" lon="-1.46959">
        <ele>52</ele>
        <time>2021-03-27T12:03:12.000Z</time>
      </trkpt>
      <trkpt lat="47.22744" lon="-1.4696">
        <ele>52</ele>
        <time>2021-03-27T12:03:14.000Z</time>
      </trkpt>
      <trkpt lat="47.22732" lon="-1.46963">
        <ele>52</ele>
        <time>2021-03-27T12:03:16.000Z</time>
      </trkpt>
      <trkpt lat="47.2272" lon="-1.46967">
        <ele>52</ele>
        <time>2021-03-27T12:03:18.000Z</time>
      </trkpt>
      <trkpt lat="47.22708" lon="-1.46971">
        <ele>52</ele>
        <time>2021-03-27T12:03:20.000Z</time>
      </trkpt>
      <trkpt lat="47.22696" lon="-1.46977">
        <ele>52</ele>
        <time>2021-03-27T12:03:22.000Z</time>
      </trkpt>
      <trkpt lat="47.22685" lon="-1.46984">
        <ele>52</ele>
        <time>2021-03-27T12:03:24.000Z</time>
      </trkpt>
      <trkpt lat="47.22674" lon="-1.46992">
        <ele>52</ele>
        <time>2021-03-27T12:03:26.000Z</time>
      </trkpt>
      <trkpt lat="47.22663" lon="-1.47002">
        <ele>52</ele>
        <time>2021-03-27T12:03:28.000Z</time>
      </trkpt>
      <trkpt lat="47.22653" lon="-1.47012">
        <ele>52</ele>
        <time>2021-03-27T12:03:30.000Z</time>
      </trkpt>
      <trkpt lat="47.22643" lon="-1.47024">
        <ele>52</ele>
        <time>2021-03-27T12:03:32.000Z</time>
      </trkpt>
      <trkpt lat="47.22634" lon="-1.47037">
        <ele>52</ele>
        <time>2021-03-27T12:03:34.000Z</time>
      </trkpt>
      <trkpt lat="47.22626" lon="-1.4705">
        <ele>51</ele>
        <time>2021-03-27T12:03:36.000Z</time>
      </trkpt>
      <trkpt lat="47.22618" lon="-1.47063">
        <ele>51</ele>
        <time>2021-03-27T12:03:38.000Z</time>
      </trkpt>
      <trkpt lat="47.22611" lon="-1.47078">
        <ele>51</ele>
        <time>2021-03-27T12:03:40.000Z</time>
      </trkpt>
      <trkpt lat="47.22604" lon="-1.47092">
        <ele>52</ele>
        <time>2021-03-27T12:03:42.000Z</time>
      </trkpt>
      <trkpt lat="47.22595" lon="-1.47103">
        <ele>52</ele>
        <time>2021-03-27T12:03:44.000Z</time>
      </trkpt>
      <trkpt lat="47.22585" lon="-1.47112">
        <ele>52</ele>
        <time>2021-03-27T12:03:46.000Z</time>
      </trkpt>
      <trkpt lat="47.22574" lon="-1.47119">
        <ele>52</ele>
        <time>2021-03-27T12:03:48.000Z</time>
      </trkpt>
      <trkpt lat="47.22563" lon="-1.47124">
        <ele>53</ele>
        <time>2021-03-27T12:03:50.000Z</time>
      </trkpt>
      <trkpt lat="47.22551" lon="-1.47127">
        <ele>53</ele>
        <time>2021-03-27T12:03:52.000Z</time>
      </trkpt>
      <trkpt lat="47.2254" lon="-1.47129">
        <ele>53</ele>
        <time>2021-03-27T12:03:54.000Z</time>
      </trkpt>
      <trkpt lat="47.22528" lon="-1.47132">
        <ele>53</ele>
        <time>2021-03-27T12:03:56.000Z</time>
      </trkpt>
      <trkpt lat="47.22517" lon="-1.47135">
        <ele>54</ele>
        <time>2021-03-27T12:03:58.000Z</time>
      </trkpt>
      <trkpt lat="47.22506" lon="-1.47137">
        <ele>54</ele>
        <time>2021-03-27T12:04:00.000Z</time>
      </trkpt>
      <trkpt lat="47.22495" lon="-1.47142">
        <ele>54</ele>
        <time>2021-03-27T12:04:02.000Z</time>
      </trkpt>
      <trkpt lat="47.22483" lon="-1.47146">
        <ele>54</ele>
        <time>2021-03-27T12:04:04.000Z</time>
      </trkpt>
      <trkpt lat="47.22473" lon="-1.47153">
        <ele>54</ele>
        <time>2021-03-27T12:04:06.000Z</time>
      </trkpt>
      <trkpt lat="47.22462" lon="-1.47161">
        <ele>54</ele>
        <time>2021-03-27T12:04:08.000Z</time>
      </trkpt>
      <trkpt lat="47.22452" lon="-1.47169">
        <ele>54</ele>
        <time>2021-03-27T12:04:10.000Z</time>
      </trkpt>
      <trkpt lat="47.22442" lon="-1.47178">
        <ele>53</ele>
        <time>2021-03-27T12:04:12.000Z</time>
      </trkpt>
      <trkpt lat="47.22432" lon="-1.47187">
        <ele>53</ele>
        <time>2021-03-27T12:04:14.000Z</time>
      </trkpt>
      <trkpt lat="47.22422" lon="-1.47197">
        <ele>53</ele>
        <time>2021-03-27T12:04:16.000Z</time>
      </trkpt>
      <trkpt lat="47.22413" lon="-1.47208">
        <ele>52</ele>
        <time>2021-03-27T12:04:18.000Z</time>
      </trkpt>
      <trkpt lat="47.22403" lon="-1.47219">
        <ele>52</ele>
        <time>2021-03-27T12:04:20.000Z</time>
      </trkpt>
      <trkpt lat="47.22393" lon="-1.47231">
        <ele>51</ele>
        <time>2021-03-27T12:04:22.000Z</time>
      </trkpt>
      <trkpt lat="47.22382" lon="-1.47241">
        <ele>51</ele>
        <time>2021-03-27T12:04:24.000Z</time>
      </trkpt>
      <trkpt lat="47.22372" lon="-1.47252">
        <ele>50</ele>
        <time>2021-03-27T12:04:26.000Z</time>
      </trkpt>
      <trkpt lat="47.2236" lon="-1.47262">
        <ele>50</ele>
        <time>2021-03-27T12:04:28.000Z</time>
      </trkpt>
      <trkpt lat="47.22348" lon="-1.47271">
        <ele>50</ele>
        <time>2021-03-27T12:04:30.000Z</time>
      </trkpt>
      <trkpt lat="47.22337" lon="-1.47281">
        <ele>50</ele>
        <time>2021-03-27T12:04:32.000Z</time>
      </trkpt>
      <trkpt lat="47.22326" lon="-1.47291">
        <ele>50</ele>
        <time>2021-03-27T12:04:34.000Z</time>
      </trkpt>
      <trkpt lat="47.22315" lon="-1.473">
        <ele>50</ele>
        <time>2021-03-27T12:04:36.000Z</time>
      </trkpt>
      <trkpt lat="47.22303" lon="-1.47309">
        <ele>51</ele>
        <time>2021-03-27T12:04:38.000Z</time>
      </trkpt>
      <trkpt lat="47.22292" lon="-1.47319">
        <ele>51</ele>
        <time>2021-03-27T12:04:40.000Z</time>
      </trkpt>
      <trkpt lat="47.22281" lon="-1.47328">
        <ele>51</ele>
        <time>2021-03-27T12:04:42.000Z</time>
      </trkpt>
      <trkpt lat="47.2227" lon="-1.47338">
        <ele>50</ele>
        <time>2021-03-27T12:04:44.000Z</time>
      </trkpt>
      <trkpt lat="47.22259" lon="-1.47347">
        <ele>51</ele>
        <time>2021-03-27T12:04:46.000Z</time>
      </trkpt>
      <trkpt lat="47.22247" lon="-1.47354">
        <ele>50</ele>
        <time>2021-03-27T12:04:48.000Z</time>
      </trkpt>
      <trkpt lat="47.22236" lon="-1.4736">
        <ele>50</ele>
        <time>2021-03-27T12:04:50.000Z</time>
      </trkpt>
      <trkpt lat="47.22224" lon="-1.47368">
        <ele>50</ele>
        <time>2021-03-27T12:04:52.000Z</time>
      </trkpt>
      <trkpt lat="47.22213" lon="-1.47376">
        <ele>50</ele>
        <time>2021-03-27T12:04:54.000Z</time>
      </trkpt>
      <trkpt lat="47.22202" lon="-1.47385">
        <ele>51</ele>
        <time>2021-03-27T12:04:56.000Z</time>
      </trkpt>
      <trkpt lat="47.22191" lon="-1.47394">
        <ele>50</ele>
        <time>2021-03-27T12:04:58.000Z</time>
      </trkpt>
      <trkpt lat="47.2218" lon="-1.47403">
        <ele>50</ele>
        <time>2021-03-27T12:05:00.000Z</time>
      </trkpt>
      <trkpt lat="47.2217" lon="-1.47412">
        <ele>51</ele>
        <time>2021-03-27T12:05:02.000Z</time>
      </trkpt>
      <trkpt lat="47.2216" lon="-1.47422">
        <ele>51</ele>
        <time>2021-03-27T12:05:04.000Z</time>
      </trkpt>
      <trkpt lat="47.22149" lon="-1.47431">
        <ele>51</ele>
        <time>2021-03-27T12:05:06.000Z</time>
      </trkpt>
      <trkpt lat="47.22137" lon="-1.4744">
        <ele>51</ele>
        <time>2021-03-27T12:05:08.000Z</time>
      </trkpt>
      <trkpt lat="47.22127" lon="-1.47449">
        <ele>51</ele>
        <time>2021-03-27T12:05:10.000Z</time>
      </trkpt>
      <trkpt lat="47.22115" lon="-1.47458">
        <ele>51</ele>
        <time>2021-03-27T12:05:12.000Z</time>
      </trkpt>
      <trkpt lat="47.22105" lon="-1.47467">
        <ele>51</ele>
        <time>2021-03-27T12:05:14.000Z</time>
      </trkpt>
      <trkpt lat="47.22093" lon="-1.47476">
        <ele>51</ele>
        <time>2021-03-27T12:05:16.000Z</time>
      </trkpt>
      <trkpt lat="47.22082" lon="-1.47486">
        <ele>51</ele>
        <time>2021-03-27T12:05:18.000Z</time>
      </trkpt>
      <trkpt lat="47.22071" lon="-1.47496">
        <ele>51</ele>
        <time>2021-03-27T12:05:20.000Z</time>
      </trkpt>
      <trkpt lat="47.2206" lon="-1.47506">
        <ele>51</ele>
        <time>2021-03-27T12:05:22.000Z</time>
      </trkpt>
      <trkpt lat="47.22049" lon="-1.47516">
        <ele>51</ele>
        <time>2021-03-27T12:05:24.000Z</time>
      </trkpt>
      <trkpt lat="47.22039" lon="-1.47526">
        <ele>50</ele>
        <time>2021-03-27T12:05:26.000Z</time>
      </trkpt>
      <trkpt lat="47.22028" lon="-1.47536">
        <ele>51</ele>
        <time>2021-03-27T12:05:28.000Z</time>
      </trkpt>
      <trkpt lat="47.22018" lon="-1.47545">
        <ele>51</ele>
        <time>2021-03-27T12:05:30.000Z</time>
      </trkpt>
      <trkpt lat="47.22006" lon="-1.47554">
        <ele>51</ele>
        <time>2021-03-27T12:05:32.000Z</time>
      </trkpt>
      <trkpt lat="47.21996" lon="-1.47564">
        <ele>51</ele>
        <time>2021-03-27T12:05:34.000Z</time>
      </trkpt>
      <trkpt lat="47.21985" lon="-1.47574">
        <ele>52</ele>
        <time>2021-03-27T12:05:36.000Z</time>
      </trkpt>
      <trkpt lat="47.21974" lon="-1.47584">
        <ele>51</ele>
        <time>2021-03-27T12:05:38.000Z</time>
      </trkpt>
      <trkpt lat="47.21963" lon="-1.47594">
        <ele>52</ele>
        <time>2021-03-27T12:05:40.000Z</time>
      </trkpt>
      <trkpt lat="47.21952" lon="-1.47604">
        <ele>51</ele>
        <time>2021-03-27T12:05:42.000Z</time>
      </trkpt>
      <trkpt lat="47.21942" lon="-1.47613">
        <ele>51</ele>
        <time>2021-03-27T12:05:44.000Z</time>
      </trkpt>
      <trkpt lat="47.21931" lon="-1.47623">
        <ele>52</ele>
        <time>2021-03-27T12:05:46.000Z</time>
      </trkpt>
      <trkpt lat="47.21921" lon="-1.47633">
        <ele>51</ele>
        <time>2021-03-27T12:05:48.000Z</time>
      </trkpt>
      <trkpt lat="47.21911" lon="-1.47643">
        <ele>51</ele>
        <time>2021-03-27T12:05:50.000Z</time>
      </trkpt>
      <trkpt lat="47.219" lon="-1.47653">
        <ele>51</ele>
        <time>2021-03-27T12:05:52.000Z</time>
      </trkpt>
      <trkpt lat="47.2189" lon="-1.47662">
        <ele>51</ele>
        <time>2021-03-27T12:05:54.000Z</time>
      </trkpt>
      <trkpt lat="47.2188" lon="-1.47672">
        <ele>51</ele>
        <time>2021-03-27T12:05:56.000Z</time>
      </trkpt>
      <trkpt lat="47.21869" lon="-1.47681">
        <ele>51</ele>
        <time>2021-03-27T12:05:58.000Z</time>
      </trkpt>
      <trkpt lat="47.21859" lon="-1.4769">
        <ele>51</ele>
        <time>2021-03-27T12:06:00.000Z</time>
      </trkpt>
      <trkpt lat="47.21849" lon="-1.47699">
        <ele>52</ele>
        <time>2021-03-27T12:06:02.000Z</time>
      </trkpt>
      <trkpt lat="47.21839" lon="-1.47708">
        <ele>52</ele>
        <time>2021-03-27T12:06:04.000Z</time>
      </trkpt>
      <trkpt lat="47.21828" lon="-1.47718">
        <ele>52</ele>
        <time>2021-03-27T12:06:06.000Z</time>
      </trkpt>
      <trkpt lat="47.21817" lon="-1.47727">
        <ele>52</ele>
        <time>2021-03-27T12:06:08.000Z</time>
      </trkpt>
      <trkpt lat="47.21806" lon="-1.47735">
        <ele>53</ele>
        <time>2021-03-27T12:06:10.000Z</time>
      </trkpt>
      <trkpt lat="47.21795" lon="-1.47743">
        <ele>53</ele>
        <time>2021-03-27T12:06:12.000Z</time>
      </trkpt>
      <trkpt lat="47.21784" lon="-1.47751">
        <ele>53</ele>
        <time>2021-03-27T12:06:14.000Z</time>
      </trkpt>
      <trkpt lat="47.21773" lon="-1.4776">
        <ele>53</ele>
        <time>2021-03-27T12:06:16.000Z</time>
      </trkpt>
      <trkpt lat="47.21762" lon="-1.47769">
        <ele>53</ele>
        <time>2021-03-27T12:06:18.000Z</time>
      </trkpt>
      <trkpt lat="47.21752" lon="-1.47778">
        <ele>53</ele>
        <time>2021-03-27T12:06:20.000Z</time>
      </trkpt>
      <trkpt lat="47.21741" lon="-1.47787">
        <ele>53</ele>
        <time>2021-03-27T12:06:22.000Z</time>
      </trkpt>
      <trkpt lat="47.21731" lon="-1.47797">
        <ele>53</ele>
        <time>2021-03-27T12:06:24.000Z</time>
      </trkpt>
      <trkpt lat="47.21721" lon="-1.47807">
        <ele>53</ele>
        <time>2021-03-27T12:06:26.000Z</time>
      </trkpt>
      <trkpt lat="47.2171" lon="-1.47817">
        <ele>53</ele>
        <time>2021-03-27T12:06:28.000Z</time>
      </trkpt>
      <trkpt lat="47.217" lon="-1.47828">
        <ele>53</ele>
        <time>2021-03-27T12:06:30.000Z</time>
      </trkpt>
      <trkpt lat="47.21689" lon="-1.47838">
        <ele>53</ele>
        <time>2021-03-27T12:06:32.000Z</time>
      </trkpt>
      <trkpt lat="47.21679" lon="-1.47847">
        <ele>53</ele>
        <time>2021-03-27T12:06:34.000Z</time>
      </trkpt>
      <trkpt lat="47.21668" lon="-1.47856">
        <ele>52</ele>
        <time>2021-03-27T12:06:36.000Z</time>
      </trkpt>
      <trkpt lat="47.21658" lon="-1.47865">
        <ele>51</ele>
        <time>2021-03-27T12:06:38.000Z</time>
      </trkpt>
      <trkpt lat="47.21648" lon="-1.47875">
        <ele>52</ele>
        <time>2021-03-27T12:06:40.000Z</time>
      </trkpt>
      <trkpt lat="47.21638" lon="-1.47884">
        <ele>52</ele>
        <time>2021-03-27T12:06:42.000Z</time>
      </trkpt>
      <trkpt lat="47.21628" lon="-1.47893">
        <ele>53</ele>
        <time>2021-03-27T12:06:44.000Z</time>
      </trkpt>
      <trkpt lat="47.21618" lon="-1.47902">
        <ele>52</ele>
        <time>2021-03-27T12:06:46.000Z</time>
      </trkpt>
      <trkpt lat="47.21608" lon="-1.47912">
        <ele>52</ele>
        <time>2021-03-27T12:06:48.000Z</time>
      </trkpt>
      <trkpt lat="47.21597" lon="-1.47921">
        <ele>52</ele>
        <time>2021-03-27T12:06:50.000Z</time>
      </trkpt>
      <trkpt lat="47.21587" lon="-1.47931">
        <ele>52</ele>
        <time>2021-03-27T12:06:52.000Z</time>
      </trkpt>
      <trkpt lat="47.21577" lon="-1.47941">
        <ele>52</ele>
        <time>2021-03-27T12:06:54.000Z</time>
      </trkpt>
      <trkpt lat="47.21568" lon="-1.4795">
        <ele>52</ele>
        <time>2021-03-27T12:06:56.000Z</time>
      </trkpt>
      <trkpt lat="47.21558" lon="-1.4796">
        <ele>52</ele>
        <time>2021-03-27T12:06:58.000Z</time>
      </trkpt>
      <trkpt lat="47.21548" lon="-1.4797">
        <ele>52</ele>
        <time>2021-03-27T12:07:00.000Z</time>
      </trkpt>
      <trkpt lat="47.21538" lon="-1.4798">
        <ele>51</ele>
        <time>2021-03-27T12:07:02.000Z</time>
      </trkpt>
      <trkpt lat="47.21528" lon="-1.47991">
        <ele>51</ele>
        <time>2021-03-27T12:07:04.000Z</time>
      </trkpt>
      <trkpt lat="47.21518" lon="-1.48002">
        <ele>51</ele>
        <time>2021-03-27T12:07:06.000Z</time>
      </trkpt>
      <trkpt lat="47.21508" lon="-1.48013">
        <ele>50</ele>
        <time>2021-03-27T12:07:08.000Z</time>
      </trkpt>
      <trkpt lat="47.21498" lon="-1.48025">
        <ele>50</ele>
        <time>2021-03-27T12:07:10.000Z</time>
      </trkpt>
      <trkpt lat="47.21488" lon="-1.48038">
        <ele>50</ele>
        <time>2021-03-27T12:07:12.000Z</time>
      </trkpt>
      <trkpt lat="47.21478" lon="-1.4805">
        <ele>51</ele>
        <time>2021-03-27T12:07:14.000Z</time>
      </trkpt>
      <trkpt lat="47.21469" lon="-1.48062">
        <ele>51</ele>
        <time>2021-03-27T12:07:16.000Z</time>
      </trkpt>
      <trkpt lat="47.2146" lon="-1.48075">
        <ele>51</ele>
        <time>2021-03-27T12:07:18.000Z</time>
      </trkpt>
      <trkpt lat="47.21451" lon="-1.48089">
        <ele>51</ele>
        <time>2021-03-27T12:07:20.000Z</time>
      </trkpt>
      <trkpt lat="47.21442" lon="-1.48102">
        <ele>51</ele>
        <time>2021-03-27T12:07:22.000Z</time>
      </trkpt>
      <trkpt lat="47.21434" lon="-1.48115">
        <ele>51</ele>
        <time>2021-03-27T12:07:24.000Z</time>
      </trkpt>
      <trkpt lat="47.21427" lon="-1.48129">
        <ele>51</ele>
        <time>2021-03-27T12:07:26.000Z</time>
      </trkpt>
      <trkpt lat="47.21419" lon="-1.48143">
        <ele>51</ele>
        <time>2021-03-27T12:07:28.000Z</time>
      </trkpt>
      <trkpt lat="47.21412" lon="-1.48156">
        <ele>51</ele>
        <time>2021-03-27T12:07:30.000Z</time>
      </trkpt>
      <trkpt lat="47.21405" lon="-1.48171">
        <ele>51</ele>
        <time>2021-03-27T12:07:32.000Z</time>
      </trkpt>
      <trkpt lat="47.21398" lon="-1.48186">
        <ele>51</ele>
        <time>2021-03-27T12:07:34.000Z</time>
      </trkpt>
      <trkpt lat="47.21391" lon="-1.482">
        <ele>51</ele>
        <time>2021-03-27T12:07:36.000Z</time>
      </trkpt>
      <trkpt lat="47.21385" lon="-1.48216">
        <ele>50</ele>
        <time>2021-03-27T12:07:38.000Z</time>
      </trkpt>
      <trkpt lat="47.21379" lon="-1.48231">
        <ele>51</ele>
        <time>2021-03-27T12:07:40.000Z</time>
      </trkpt>
      <trkpt lat="47.21372" lon="-1.48247">
        <ele>50</ele>
        <time>2021-03-27T12:07:42.000Z</time>
      </trkpt>
      <trkpt lat="47.21366" lon="-1.48264">
        <ele>50</ele>
        <time>2021-03-27T12:07:44.000Z</time>
      </trkpt>
      <trkpt lat="47.21361" lon="-1.48281">
        <ele>50</ele>
        <time>2021-03-27T12:07:46.000Z</time>
      </trkpt>
      <trkpt lat="47.21356" lon="-1.48297">
        <ele>50</ele>
        <time>2021-03-27T12:07:48.000Z</time>
      </trkpt>
      <trkpt lat="47.21351" lon="-1.48313">
        <ele>50</ele>
        <time>2021-03-27T12:07:50.000Z</time>
      </trkpt>
      <trkpt lat="47.21346" lon="-1.48329">
        <ele>50</ele>
        <time>2021-03-27T12:07:52.000Z</time>
      </trkpt>
      <trkpt lat="47.2134" lon="-1.48345">
        <ele>50</ele>
        <time>2021-03-27T12:07:54.000Z</time>
      </trkpt>
      <trkpt lat="47.21335" lon="-1.48361">
        <ele>50</ele>
        <time>2021-03-27T12:07:56.000Z</time>
      </trkpt>
      <trkpt lat="47.2133" lon="-1.48376">
        <ele>50</ele>
        <time>2021-03-27T12:07:58.000Z</time>
      </trkpt>
      <trkpt lat="47.21325" lon="-1.48392">
        <ele>50</ele>
        <time>2021-03-27T12:08:00.000Z</time>
      </trkpt>
      <trkpt lat="47.2132" lon="-1.48408">
        <ele>50</ele>
        <time>2021-03-27T12:08:02.000Z</time>
      </trkpt>
      <trkpt lat="47.21315" lon="-1.48424">
        <ele>50</ele>
        <time>2021-03-27T12:08:04.000Z</time>
      </trkpt>
      <trkpt lat="47.21311" lon="-1.48439">
        <ele>50</ele>
        <time>2021-03-27T12:08:06.000Z</time>
      </trkpt>
      <trkpt lat="47.21307" lon="-1.48455">
        <ele>50</ele>
        <time>2021-03-27T12:08:08.000Z</time>
      </trkpt>
      <trkpt lat="47.21303" lon="-1.48471">
        <ele>51</ele>
        <time>2021-03-27T12:08:10.000Z</time>
      </trkpt>
      <trkpt lat="47.21301" lon="-1.48487">
        <ele>51</ele>
        <time>2021-03-27T12:08:12.000Z</time>
      </trkpt>
      <trkpt lat="47.21297" lon="-1.48504">
        <ele>51</ele>
        <time>2021-03-27T12:08:14.000Z</time>
      </trkpt>
      <trkpt lat="47.2129" lon="-1.48516">
        <ele>51</ele>
        <time>2021-03-27T12:08:16.000Z</time>
      </trkpt>
      <trkpt lat="47.21279" lon="-1.48522">
        <ele>51</ele>
        <time>2021-03-27T12:08:18.000Z</time>
      </trkpt>
      <trkpt lat="47.21271" lon="-1.48527">
        <ele>51</ele>
        <time>2021-03-27T12:08:20.000Z</time>
      </trkpt>
      <trkpt lat="47.21267" lon="-1.4854">
        <ele>50</ele>
        <time>2021-03-27T12:08:22.000Z</time>
      </trkpt>
      <trkpt lat="47.21263" lon="-1.48556">
        <ele>50</ele>
        <time>2021-03-27T12:08:24.000Z</time>
      </trkpt>
      <trkpt lat="47.21257" lon="-1.48575">
        <ele>50</ele>
        <time>2021-03-27T12:08:26.000Z</time>
      </trkpt>
      <trkpt lat="47.21253" lon="-1.48592">
        <ele>50</ele>
        <time>2021-03-27T12:08:28.000Z</time>
      </trkpt>
      <trkpt lat="47.21248" lon="-1.48608">
        <ele>50</ele>
        <time>2021-03-27T12:08:30.000Z</time>
      </trkpt>
      <trkpt lat="47.21243" lon="-1.48625">
        <ele>49</ele>
        <time>2021-03-27T12:08:32.000Z</time>
      </trkpt>
      <trkpt lat="47.21238" lon="-1.48642">
        <ele>50</ele>
        <time>2021-03-27T12:08:34.000Z</time>
      </trkpt>
      <trkpt lat="47.21234" lon="-1.48659">
        <ele>50</ele>
        <time>2021-03-27T12:08:36.000Z</time>
      </trkpt>
      <trkpt lat="47.21229" lon="-1.48675">
        <ele>50</ele>
        <time>2021-03-27T12:08:38.000Z</time>
      </trkpt>
      <trkpt lat="47.21224" lon="-1.48692">
        <ele>51</ele>
        <time>2021-03-27T12:08:40.000Z</time>
      </trkpt>
      <trkpt lat="47.2122" lon="-1.48708">
        <ele>51</ele>
        <time>2021-03-27T12:08:42.000Z</time>
      </trkpt>
      <trkpt lat="47.21216" lon="-1.48724">
        <ele>52</ele>
        <time>2021-03-27T12:08:44.000Z</time>
      </trkpt>
      <trkpt lat="47.21212" lon="-1.4874">
        <ele>52</ele>
        <time>2021-03-27T12:08:46.000Z</time>
      </trkpt>
      <trkpt lat="47.21208" lon="-1.48756">
        <ele>52</ele>
        <time>2021-03-27T12:08:48.000Z</time>
      </trkpt>
      <trkpt lat="47.21205" lon="-1.48773">
        <ele>52</ele>
        <time>2021-03-27T12:08:50.000Z</time>
      </trkpt>
      <trkpt lat="47.21201" lon="-1.4879">
        <ele>52</ele>
        <time>2021-03-27T12:08:52.000Z</time>
      </trkpt>
      <trkpt lat="47.21197" lon="-1.48806">
        <ele>52</ele>
        <time>2021-03-27T12:08:54.000Z</time>
      </trkpt>
      <trkpt lat="47.21194" lon="-1.48822">
        <ele>52</ele>
        <time>2021-03-27T12:08:56.000Z</time>
      </trkpt>
      <trkpt lat="47.2119" lon="-1.48839">
        <ele>52</ele>
        <time>2021-03-27T12:08:58.000Z</time>
      </trkpt>
      <trkpt lat="47.21189" lon="-1.48858">
        <ele>53</ele>
        <time>2021-03-27T12:09:00.000Z</time>
      </trkpt>
      <trkpt lat="47.21189" lon="-1.48878">
        <ele>52</ele>
        <time>2021-03-27T12:09:02.000Z</time>
      </trkpt>
      <trkpt lat="47.21184" lon="-1.48896">
        <ele>52</ele>
        <time>2021-03-27T12:09:04.000Z</time>
      </trkpt>
      <trkpt lat="47.21177" lon="-1.48912">
        <ele>51</ele>
        <time>2021-03-27T12:09:06.000Z</time>
      </trkpt>
      <trkpt lat="47.21172" lon="-1.48929">
        <ele>52</ele>
        <time>2021-03-27T12:09:08.000Z</time>
      </trkpt>
      <trkpt lat="47.21168" lon="-1.48947">
        <ele>52</ele>
        <time>2021-03-27T12:09:10.000Z</time>
      </trkpt>
      <trkpt lat="47.21166" lon="-1.48965">
        <ele>52</ele>
        <time>2021-03-27T12:09:12.000Z</time>
      </trkpt>
      <trkpt lat="47.21163" lon="-1.48983">
        <ele>52</ele>
        <time>2021-03-27T12:09:14.000Z</time>
      </trkpt>
      <trkpt lat="47.2116" lon="-1.49">
        <ele>52</ele>
        <time>2021-03-27T12:09:16.000Z</time>
      </trkpt>
      <trkpt lat="47.21158" lon="-1.49018">
        <ele>52</ele>
        <time>2021-03-27T12:09:18.000Z</time>
      </trkpt>
      <trkpt lat="47.21155" lon="-1.49036">
        <ele>52</ele>
        <time>2021-03-27T12:09:20.000Z</time>
      </trkpt>
      <trkpt lat="47.21155" lon="-1.49054">
        <ele>51</ele>
        <time>2021-03-27T12:09:22.000Z</time>
      </trkpt>
      <trkpt lat="47.21161" lon="-1.4907">
        <ele>51</ele>
        <time>2021-03-27T12:09:24.000Z</time>
      </trkpt>
      <trkpt lat="47.21162" lon="-1.4909">
        <ele>50</ele>
        <time>2021-03-27T12:09:26.000Z</time>
      </trkpt>
      <trkpt lat="47.21156" lon="-1.49106">
        <ele>51</ele>
        <time>2021-03-27T12:09:28.000Z</time>
      </trkpt>
      <trkpt lat="47.21151" lon="-1.49123">
        <ele>51</ele>
        <time>2021-03-27T12:09:30.000Z</time>
      </trkpt>
      <trkpt lat="47.21149" lon="-1.49141">
        <ele>51</ele>
        <time>2021-03-27T12:09:32.000Z</time>
      </trkpt>
      <trkpt lat="47.21146" lon="-1.49159">
        <ele>51</ele>
        <time>2021-03-27T12:09:34.000Z</time>
      </trkpt>
      <trkpt lat="47.21144" lon="-1.49176">
        <ele>51</ele>
        <time>2021-03-27T12:09:36.000Z</time>
      </trkpt>
      <trkpt lat="47.21142" lon="-1.49194">
        <ele>51</ele>
        <time>2021-03-27T12:09:38.000Z</time>
      </trkpt>
      <trkpt lat="47.21141" lon="-1.49211">
        <ele>52</ele>
        <time>2021-03-27T12:09:40.000Z</time>
      </trkpt>
      <trkpt lat="47.21139" lon="-1.49228">
        <ele>52</ele>
        <time>2021-03-27T12:09:42.000Z</time>
      </trkpt>
      <trkpt lat="47.21137" lon="-1.49245">
        <ele>52</ele>
        <time>2021-03-27T12:09:44.000Z</time>
      </trkpt>
      <trkpt lat="47.21136" lon="-1.49263">
        <ele>52</ele>
        <time>2021-03-27T12:09:46.000Z</time>
      </trkpt>
      <trkpt lat="47.21136" lon="-1.4928">
        <ele>52</ele>
        <time>2021-03-27T12:09:48.000Z</time>
      </trkpt>
      <trkpt lat="47.21135" lon="-1.49298">
        <ele>52</ele>
        <time>2021-03-27T12:09:50.000Z</time>
      </trkpt>
      <trkpt lat="47.21134" lon="-1.49316">
        <ele>52</ele>
        <time>2021-03-27T12:09:52.000Z</time>
      </trkpt>
      <trkpt lat="47.21133" lon="-1.49334">
        <ele>52</ele>
        <time>2021-03-27T12:09:54.000Z</time>
      </trkpt>
      <trkpt lat="47.21132" lon="-1.49352">
        <ele>52</ele>
        <time>2021-03-27T12:09:56.000Z</time>
      </trkpt>
      <trkpt lat="47.21131" lon="-1.49371">
        <ele>53</ele>
        <time>2021-03-27T12:09:58.000Z</time>
      </trkpt>
      <trkpt lat="47.21131" lon="-1.49389">
        <ele>52</ele>
        <time>2021-03-27T12:10:00.000Z</time>
      </trkpt>
      <trkpt lat="47.2113" lon="-1.49408">
        <ele>52</ele>
        <time>2021-03-27T12:10:02.000Z</time>
      </trkpt>
      <trkpt lat="47.21129" lon="-1.49426">
        <ele>52</ele>
        <time>2021-03-27T12:10:04.000Z</time>
      </trkpt>
      <trkpt lat="47.21129" lon="-1.49444">
        <ele>52</ele>
        <time>2021-03-27T12:10:06.000Z</time>
      </trkpt>
      <trkpt lat="47.21128" lon="-1.49462">
        <ele>52</ele>
        <time>2021-03-27T12:10:08.000Z</time>
      </trkpt>
      <trkpt lat="47.21128" lon="-1.4948">
        <ele>52</ele>
        <time>2021-03-27T12:10:10.000Z</time>
      </trkpt>
      <trkpt lat="47.21127" lon="-1.49498">
        <ele>52</ele>
        <time>2021-03-27T12:10:12.000Z</time>
      </trkpt>
      <trkpt lat="47.21127" lon="-1.49515">
        <ele>52</ele>
        <time>2021-03-27T12:10:14.000Z</time>
      </trkpt>
      <trkpt lat="47.21128" lon="-1.49533">
        <ele>51</ele>
        <time>2021-03-27T12:10:16.000Z</time>
      </trkpt>
      <trkpt lat="47.21132" lon="-1.4955">
        <ele>51</ele>
        <time>2021-03-27T12:10:18.000Z</time>
      </trkpt>
      <trkpt lat="47.21136" lon="-1.49566">
        <ele>51</ele>
        <time>2021-03-27T12:10:20.000Z</time>
      </trkpt>
      <trkpt lat="47.21138" lon="-1.49584">
        <ele>51</ele>
        <time>2021-03-27T12:10:22.000Z</time>
      </trkpt>
      <trkpt lat="47.21131" lon="-1.496">
        <ele>52</ele>
        <time>2021-03-27T12:10:24.000Z</time>
      </trkpt>
      <trkpt lat="47.21125" lon="-1.49614">
        <ele>52</ele>
        <time>2021-03-27T12:10:26.000Z</time>
      </trkpt>
      <trkpt lat="47.21123" lon="-1.49632">
        <ele>52</ele>
        <time>2021-03-27T12:10:28.000Z</time>
      </trkpt>
      <trkpt lat="47.21122" lon="-1.49649">
        <ele>52</ele>
        <time>2021-03-27T12:10:30.000Z</time>
      </trkpt>
      <trkpt lat="47.2112" lon="-1.49667">
        <ele>52</ele>
        <time>2021-03-27T12:10:32.000Z</time>
      </trkpt>
      <trkpt lat="47.21119" lon="-1.49686">
        <ele>52</ele>
        <time>2021-03-27T12:10:34.000Z</time>
      </trkpt>
      <trkpt lat="47.21118" lon="-1.49704">
        <ele>52</ele>
        <time>2021-03-27T12:10:36.000Z</time>
      </trkpt>
      <trkpt lat="47.21117" lon="-1.49722">
        <ele>53</ele>
        <time>2021-03-27T12:10:38.000Z</time>
      </trkpt>
      <trkpt lat="47.21116" lon="-1.49741">
        <ele>53</ele>
        <time>2021-03-27T12:10:40.000Z</time>
      </trkpt>
      <trkpt lat="47.21114" lon="-1.49759">
        <ele>52</ele>
        <time>2021-03-27T12:10:42.000Z</time>
      </trkpt>
      <trkpt lat="47.21112" lon="-1.49778">
        <ele>52</ele>
        <time>2021-03-27T12:10:44.000Z</time>
      </trkpt>
      <trkpt lat="47.2111" lon="-1.49796">
        <ele>52</ele>
        <time>2021-03-27T12:10:46.000Z</time>
      </trkpt>
      <trkpt lat="47.21108" lon="-1.49815">
        <ele>52</ele>
        <time>2021-03-27T12:10:48.000Z</time>
      </trkpt>
      <trkpt lat="47.21105" lon="-1.49833">
        <ele>52</ele>
        <time>2021-03-27T12:10:50.000Z</time>
      </trkpt>
      <trkpt lat="47.21101" lon="-1.4985">
        <ele>52</ele>
        <time>2021-03-27T12:10:52.000Z</time>
      </trkpt>
      <trkpt lat="47.21098" lon="-1.49869">
        <ele>52</ele>
        <time>2021-03-27T12:10:54.000Z</time>
      </trkpt>
      <trkpt lat="47.21095" lon="-1.49887">
        <ele>52</ele>
        <time>2021-03-27T12:10:56.000Z</time>
      </trkpt>
      <trkpt lat="47.21089" lon="-1.49903">
        <ele>52</ele>
        <time>2021-03-27T12:10:58.000Z</time>
      </trkpt>
      <trkpt lat="47.21084" lon="-1.4992">
        <ele>52</ele>
        <time>2021-03-27T12:11:00.000Z</time>
      </trkpt>
      <trkpt lat="47.21079" lon="-1.49938">
        <ele>51</ele>
        <time>2021-03-27T12:11:02.000Z</time>
      </trkpt>
      <trkpt lat="47.21074" lon="-1.49955">
        <ele>51</ele>
        <time>2021-03-27T12:11:04.000Z</time>
      </trkpt>
      <trkpt lat="47.2107" lon="-1.49971">
        <ele>51</ele>
        <time>2021-03-27T12:11:06.000Z</time>
      </trkpt>
      <trkpt lat="47.21066" lon="-1.49987">
        <ele>51</ele>
        <time>2021-03-27T12:11:08.000Z</time>
      </trkpt>
      <trkpt lat="47.21061" lon="-1.50004">
        <ele>51</ele>
        <time>2021-03-27T12:11:10.000Z</time>
      </trkpt>
      <trkpt lat="47.21058" lon="-1.5002">
        <ele>51</ele>
        <time>2021-03-27T12:11:12.000Z</time>
      </trkpt>
      <trkpt lat="47.21053" lon="-1.50036">
        <ele>52</ele>
        <time>2021-03-27T12:11:14.000Z</time>
      </trkpt>
      <trkpt lat="47.21049" lon="-1.50052">
        <ele>52</ele>
        <time>2021-03-27T12:11:16.000Z</time>
      </trkpt>
      <trkpt lat="47.21045" lon="-1.50068">
        <ele>52</ele>
        <time>2021-03-27T12:11:18.000Z</time>
      </trkpt>
      <trkpt lat="47.21041" lon="-1.50085">
        <ele>52</ele>
        <time>2021-03-27T12:11:20.000Z</time>
      </trkpt>
      <trkpt lat="47.21037" lon="-1.50102">
        <ele>52</ele>
        <time>2021-03-27T12:11:22.000Z</time>
      </trkpt>
      <trkpt lat="47.21033" lon="-1.50118">
        <ele>52</ele>
        <time>2021-03-27T12:11:24.000Z</time>
      </trkpt>
      <trkpt lat="47.21029" lon="-1.50134">
        <ele>52</ele>
        <time>2021-03-27T12:11:26.000Z</time>
      </trkpt>
      <trkpt lat="47.21025" lon="-1.50152">
        <ele>52</ele>
        <time>2021-03-27T12:11:28.000Z</time>
      </trkpt>
      <trkpt lat="47.21021" lon="-1.50168">
        <ele>52</ele>
        <time>2021-03-27T12:11:30.000Z</time>
      </trkpt>
      <trkpt lat="47.21018" lon="-1.50185">
        <ele>52</ele>
        <time>2021-03-27T12:11:32.000Z</time>
      </trkpt>
      <trkpt lat="47.21015" lon="-1.50201">
        <ele>51</ele>
        <time>2021-03-27T12:11:34.000Z</time>
      </trkpt>
      <trkpt lat="47.21018" lon="-1.50216">
        <ele>51</ele>
        <time>2021-03-27T12:11:36.000Z</time>
      </trkpt>
      <trkpt lat="47.2102" lon="-1.50231">
        <ele>51</ele>
        <time>2021-03-27T12:11:38.000Z</time>
      </trkpt>
      <trkpt lat="47.21015" lon="-1.50246">
        <ele>52</ele>
        <time>2021-03-27T12:11:40.000Z</time>
      </trkpt>
      <trkpt lat="47.21008" lon="-1.5026">
        <ele>52</ele>
        <time>2021-03-27T12:11:42.000Z</time>
      </trkpt>
      <trkpt lat="47.21004" lon="-1.50277">
        <ele>52</ele>
        <time>2021-03-27T12:11:44.000Z</time>
      </trkpt>
      <trkpt lat="47.21003" lon="-1.50296">
        <ele>52</ele>
        <time>2021-03-27T12:11:46.000Z</time>
      </trkpt>
      <trkpt lat="47.21002" lon="-1.50315">
        <ele>51</ele>
        <time>2021-03-27T12:11:48.000Z</time>
      </trkpt>
      <trkpt lat="47.21001" lon="-1.50334">
        <ele>51</ele>
        <time>2021-03-27T12:11:50.000Z</time>
      </trkpt>
      <trkpt lat="47.21001" lon="-1.50352">
        <ele>51</ele>
        <time>2021-03-27T12:11:52.000Z</time>
      </trkpt>
      <trkpt lat="47.21" lon="-1.50369">
        <ele>51</ele>
        <time>2021-03-27T12:11:54.000Z</time>
      </trkpt>
      <trkpt lat="47.21" lon="-1.50387">
        <ele>51</ele>
        <time>2021-03-27T12:11:56.000Z</time>
      </trkpt>
      <trkpt lat="47.21001" lon="-1.50405">
        <ele>52</ele>
        <time>2021-03-27T12:11:58.000Z</time>
      </trkpt>
      <trkpt lat="47.21001" lon="-1.50422">
        <ele>52</ele>
        <time>2021-03-27T12:12:00.000Z</time>
      </trkpt>
      <trkpt lat="47.21002" lon="-1.50439">
        <ele>52</ele>
        <time>2021-03-27T12:12:02.000Z</time>
      </trkpt>
      <trkpt lat="47.21002" lon="-1.50457">
        <ele>52</ele>
        <time>2021-03-27T12:12:04.000Z</time>
      </trkpt>
      <trkpt lat="47.21002" lon="-1.50474">
        <ele>52</ele>
        <time>2021-03-27T12:12:06.000Z</time>
      </trkpt>
      <trkpt lat="47.21003" lon="-1.50491">
        <ele>52</ele>
        <time>2021-03-27T12:12:08.000Z</time>
      </trkpt>
      <trkpt lat="47.21003" lon="-1.50508">
        <ele>52</ele>
        <time>2021-03-27T12:12:10.000Z</time>
      </trkpt>
      <trkpt lat="47.21003" lon="-1.50525">
        <ele>53</ele>
        <time>2021-03-27T12:12:12.000Z</time>
      </trkpt>
      <trkpt lat="47.21004" lon="-1.50543">
        <ele>53</ele>
        <time>2021-03-27T12:12:14.000Z</time>
      </trkpt>
      <trkpt lat="47.21004" lon="-1.5056">
        <ele>53</ele>
        <time>2021-03-27T12:12:16.000Z</time>
      </trkpt>
      <trkpt lat="47.21004" lon="-1.50578">
        <ele>53</ele>
        <time>2021-03-27T12:12:18.000Z</time>
      </trkpt>
      <trkpt lat="47.21004" lon="-1.50595">
        <ele>53</ele>
        <time>2021-03-27T12:12:20.000Z</time>
      </trkpt>
      <trkpt lat="47.21003" lon="-1.50613">
        <ele>53</ele>
        <time>2021-03-27T12:12:22.000Z</time>
      </trkpt>
      <trkpt lat="47.21003" lon="-1.50631">
        <ele>53</ele>
        <time>2021-03-27T12:12:24.000Z</time>
      </trkpt>
      <trkpt lat="47.21002" lon="-1.50648">
        <ele>53</ele>
        <time>2021-03-27T12:12:26.000Z</time>
      </trkpt>
      <trkpt lat="47.21001" lon="-1.50665">
        <ele>53</ele>
        <time>2021-03-27T12:12:28.000Z</time>
      </trkpt>
      <trkpt lat="47.21" lon="-1.50682">
        <ele>53</ele>
        <time>2021-03-27T12:12:30.000Z</time>
      </trkpt>
      <trkpt lat="47.20999" lon="-1.507">
        <ele>53</ele>
        <time>2021-03-27T12:12:32.000Z</time>
      </trkpt>
      <trkpt lat="47.20998" lon="-1.50717">
        <ele>53</ele>
        <time>2021-03-27T12:12:34.000Z</time>
      </trkpt>
      <trkpt lat="47.20996" lon="-1.50734">
        <ele>53</ele>
        <time>2021-03-27T12:12:36.000Z</time>
      </trkpt>
      <trkpt lat="47.20994" lon="-1.50752">
        <ele>52</ele>
        <time>2021-03-27T12:12:38.000Z</time>
      </trkpt>
      <trkpt lat="47.20992" lon="-1.5077">
        <ele>52</ele>
        <time>2021-03-27T12:12:40.000Z</time>
      </trkpt>
      <trkpt lat="47.2099" lon="-1.50788">
        <ele>52</ele>
        <time>2021-03-27T12:12:42.000Z</time>
      </trkpt>
      <trkpt lat="47.20988" lon="-1.50806">
        <ele>51</ele>
        <time>2021-03-27T12:12:44.000Z</time>
      </trkpt>
      <trkpt lat="47.20986" lon="-1.50824">
        <ele>51</ele>
        <time>2021-03-27T12:12:46.000Z</time>
      </trkpt>
      <trkpt lat="47.20984" lon="-1.50842">
        <ele>51</ele>
        <time>2021-03-27T12:12:48.000Z</time>
      </trkpt>
      <trkpt lat="47.20981" lon="-1.50861">
        <ele>51</ele>
        <time>2021-03-27T12:12:50.000Z</time>
      </trkpt>
      <trkpt lat="47.20979" lon="-1.50878">
        <ele>51</ele>
        <time>2021-03-27T12:12:52.000Z</time>
      </trkpt>
      <trkpt lat="47.20977" lon="-1.50896">
        <ele>52</ele>
        <time>2021-03-27T12:12:54.000Z</time>
      </trkpt>
      <trkpt lat="47.20975" lon="-1.50914">
        <ele>52</ele>
        <time>2021-03-27T12:12:56.000Z</time>
      </trkpt>
      <trkpt lat="47.20973" lon="-1.50931">
        <ele>52</ele>
        <time>2021-03-27T12:12:58.000Z</time>
      </trkpt>
      <trkpt lat="47.2097" lon="-1.50948">
        <ele>52</ele>
        <time>2021-03-27T12:13:00.000Z</time>
      </trkpt>
      <trkpt lat="47.20969" lon="-1.50965">
        <ele>53</ele>
        <time>2021-03-27T12:13:02.000Z</time>
      </trkpt>
      <trkpt lat="47.20967" lon="-1.50982">
        <ele>53</ele>
        <time>2021-03-27T12:13:04.000Z</time>
      </trkpt>
      <trkpt lat="47.20965" lon="-1.51">
        <ele>53</ele>
        <time>2021-03-27T12:13:06.000Z</time>
      </trkpt>
      <trkpt lat="47.20959" lon="-1.51016">
        <ele>52</ele>
        <time>2021-03-27T12:13:08.000Z</time>
      </trkpt>
      <trkpt lat="47.20954" lon="-1.51031">
        <ele>52</ele>
        <time>2021-03-27T12:13:10.000Z</time>
      </trkpt>
      <trkpt lat="47.20952" lon="-1.51049">
        <ele>52</ele>
        <time>2021-03-27T12:13:12.000Z</time>
      </trkpt>
      <trkpt lat="47.20949" lon="-1.51066">
        <ele>52</ele>
        <time>2021-03-27T12:13:14.000Z</time>
      </trkpt>
      <trkpt lat="47.20946" lon="-1.51084">
        <ele>52</ele>
        <time>2021-03-27T12:13:16.000Z</time>
      </trkpt>
      <trkpt lat="47.20941" lon="-1.51101">
        <ele>52</ele>
        <time>2021-03-27T12:13:18.000Z</time>
      </trkpt>
      <trkpt lat="47.20936" lon="-1.51119">
        <ele>52</ele>
        <time>2021-03-27T12:13:20.000Z</time>
      </trkpt>
      <trkpt lat="47.20931" lon="-1.51136">
        <ele>52</ele>
        <time>2021-03-27T12:13:22.000Z</time>
      </trkpt>
      <trkpt lat="47.20925" lon="-1.51153">
        <ele>52</ele>
        <time>2021-03-27T12:13:24.000Z</time>
      </trkpt>
      <trkpt lat="47.2092" lon="-1.5117">
        <ele>52</ele>
        <time>2021-03-27T12:13:26.000Z</time>
      </trkpt>
      <trkpt lat="47.20914" lon="-1.51186">
        <ele>52</ele>
        <time>2021-03-27T12:13:28.000Z</time>
      </trkpt>
      <trkpt lat="47.20908" lon="-1.51202">
        <ele>51</ele>
        <time>2021-03-27T12:13:30.000Z</time>
      </trkpt>
      <trkpt lat="47.20902" lon="-1.51218">
        <ele>51</ele>
        <time>2021-03-27T12:13:32.000Z</time>
      </trkpt>
      <trkpt lat="47.20896" lon="-1.51234">
        <ele>51</ele>
        <time>2021-03-27T12:13:34.000Z</time>
      </trkpt>
      <trkpt lat="47.2089" lon="-1.51251">
        <ele>52</ele>
        <time>2021-03-27T12:13:36.000Z</time>
      </trkpt>
      <trkpt lat="47.20884" lon="-1.51268">
        <ele>51</ele>
        <time>2021-03-27T12:13:38.000Z</time>
      </trkpt>
      <trkpt lat="47.20877" lon="-1.51283">
        <ele>51</ele>
        <time>2021-03-27T12:13:40.000Z</time>
      </trkpt>
      <trkpt lat="47.20871" lon="-1.51297">
        <ele>51</ele>
        <time>2021-03-27T12:13:42.000Z</time>
      </trkpt>
      <trkpt lat="47.20864" lon="-1.51313">
        <ele>50</ele>
        <time>2021-03-27T12:13:44.000Z</time>
      </trkpt>
      <trkpt lat="47.20857" lon="-1.51327">
        <ele>50</ele>
        <time>2021-03-27T12:13:46.000Z</time>
      </trkpt>
      <trkpt lat="47.20851" lon="-1.51344">
        <ele>50</ele>
        <time>2021-03-27T12:13:48.000Z</time>
      </trkpt>
      <trkpt lat="47.20847" lon="-1.5136">
        <ele>51</ele>
        <time>2021-03-27T12:13:50.000Z</time>
      </trkpt>
      <trkpt lat="47.20843" lon="-1.51377">
        <ele>51</ele>
        <time>2021-03-27T12:13:52.000Z</time>
      </trkpt>
      <trkpt lat="47.20839" lon="-1.51393">
        <ele>51</ele>
        <time>2021-03-27T12:13:54.000Z</time>
      </trkpt>
      <trkpt lat="47.20834" lon="-1.51409">
        <ele>51</ele>
        <time>2021-03-27T12:13:56.000Z</time>
      </trkpt>
      <trkpt lat="47.20831" lon="-1.51426">
        <ele>51</ele>
        <time>2021-03-27T12:13:58.000Z</time>
      </trkpt>
      <trkpt lat="47.20828" lon="-1.51444">
        <ele>51</ele>
        <time>2021-03-27T12:14:00.000Z</time>
      </trkpt>
      <trkpt lat="47.20826" lon="-1.51461">
        <ele>51</ele>
        <time>2021-03-27T12:14:02.000Z</time>
      </trkpt>
      <trkpt lat="47.20823" lon="-1.51479">
        <ele>51</ele>
        <time>2021-03-27T12:14:04.000Z</time>
      </trkpt>
      <trkpt lat="47.2082" lon="-1.51497">
        <ele>51</ele>
        <time>2021-03-27T12:14:06.000Z</time>
      </trkpt>
      <trkpt lat="47.20817" lon="-1.51515">
        <ele>50</ele>
        <time>2021-03-27T12:14:08.000Z</time>
      </trkpt>
      <trkpt lat="47.20814" lon="-1.51532">
        <ele>50</ele>
        <time>2021-03-27T12:14:10.000Z</time>
      </trkpt>
      <trkpt lat="47.20811" lon="-1.5155">
        <ele>51</ele>
        <time>2021-03-27T12:14:12.000Z</time>
      </trkpt>
      <trkpt lat="47.20809" lon="-1.51568">
        <ele>51</ele>
        <time>2021-03-27T12:14:14.000Z</time>
      </trkpt>
      <trkpt lat="47.20807" lon="-1.51586">
        <ele>52</ele>
        <time>2021-03-27T12:14:16.000Z</time>
      </trkpt>
      <trkpt lat="47.20805" lon="-1.51603">
        <ele>52</ele>
        <time>2021-03-27T12:14:18.000Z</time>
      </trkpt>
      <trkpt lat="47.20803" lon="-1.5162">
        <ele>51</ele>
        <time>2021-03-27T12:14:20.000Z</time>
      </trkpt>
      <trkpt lat="47.20801" lon="-1.51637">
        <ele>51</ele>
        <time>2021-03-27T12:14:22.000Z</time>
      </trkpt>
      <trkpt lat="47.20798" lon="-1.51654">
        <ele>51</ele>
        <time>2021-03-27T12:14:24.000Z</time>
      </trkpt>
      <trkpt lat="47.20795" lon="-1.51672">
        <ele>51</ele>
        <time>2021-03-27T12:14:26.000Z</time>
      </trkpt>
      <trkpt lat="47.20792" lon="-1.51689">
        <ele>52</ele>
        <time>2021-03-27T12:14:28.000Z</time>
      </trkpt>
      <trkpt lat="47.2079" lon="-1.51705">
        <ele>51</ele>
        <time>2021-03-27T12:14:30.000Z</time>
      </trkpt>
      <trkpt lat="47.20786" lon="-1.51723">
        <ele>51</ele>
        <time>2021-03-27T12:14:32.000Z</time>
      </trkpt>
      <trkpt lat="47.20781" lon="-1.51739">
        <ele>52</ele>
        <time>2021-03-27T12:14:34.000Z</time>
      </trkpt>
      <trkpt lat="47.20776" lon="-1.51756">
        <ele>51</ele>
        <time>2021-03-27T12:14:36.000Z</time>
      </trkpt>
      <trkpt lat="47.20772" lon="-1.51773">
        <ele>51</ele>
        <time>2021-03-27T12:14:38.000Z</time>
      </trkpt>
      <trkpt lat="47.20769" lon="-1.5179">
        <ele>52</ele>
        <time>2021-03-27T12:14:40.000Z</time>
      </trkpt>
      <trkpt lat="47.20766" lon="-1.51806">
        <ele>52</ele>
        <time>2021-03-27T12:14:42.000Z</time>
      </trkpt>
      <trkpt lat="47.20763" lon="-1.51823">
        <ele>52</ele>
        <time>2021-03-27T12:14:44.000Z</time>
      </trkpt>
      <trkpt lat="47.20758" lon="-1.51838">
        <ele>52</ele>
        <time>2021-03-27T12:14:46.000Z</time>
      </trkpt>
      <trkpt lat="47.20752" lon="-1.51852">
        <ele>52</ele>
        <time>2021-03-27T12:14:48.000Z</time>
      </trkpt>
      <trkpt lat="47.20745" lon="-1.51867">
        <ele>52</ele>
        <time>2021-03-27T12:14:50.000Z</time>
      </trkpt>
      <trkpt lat="47.20739" lon="-1.51882">
        <ele>52</ele>
        <time>2021-03-27T12:14:52.000Z</time>
      </trkpt>
      <trkpt lat="47.20733" lon="-1.51898">
        <ele>52</ele>
        <time>2021-03-27T12:14:54.000Z</time>
      </trkpt>
      <trkpt lat="47.20726" lon="-1.51914">
        <ele>52</ele>
        <time>2021-03-27T12:14:56.000Z</time>
      </trkpt>
      <trkpt lat="47.20719" lon="-1.51929">
        <ele>52</ele>
        <time>2021-03-27T12:14:58.000Z</time>
      </trkpt>
      <trkpt lat="47.20712" lon="-1.51944">
        <ele>51</ele>
        <time>2021-03-27T12:15:00.000Z</time>
      </trkpt>
      <trkpt lat="47.20704" lon="-1.51957">
        <ele>51</ele>
        <time>2021-03-27T12:15:02.000Z</time>
      </trkpt>
      <trkpt lat="47.20696" lon="-1.51971">
        <ele>51</ele>
        <time>2021-03-27T12:15:04.000Z</time>
      </trkpt>
      <trkpt lat="47.20688" lon="-1.51985">
        <ele>51</ele>
        <time>2021-03-27T12:15:06.000Z</time>
      </trkpt>
      <trkpt lat="47.2068" lon="-1.51998">
        <ele>51</ele>
        <time>2021-03-27T12:15:08.000Z</time>
      </trkpt>
      <trkpt lat="47.20673" lon="-1.52012">
        <ele>51</ele>
        <time>2021-03-27T12:15:10.000Z</time>
      </trkpt>
      <trkpt lat="47.20665" lon="-1.52026">
        <ele>51</ele>
        <time>2021-03-27T12:15:12.000Z</time>
      </trkpt>
      <trkpt lat="47.20657" lon="-1.5204">
        <ele>51</ele>
        <time>2021-03-27T12:15:14.000Z</time>
      </trkpt>
      <trkpt lat="47.20649" lon="-1.52052">
        <ele>51</ele>
        <time>2021-03-27T12:15:16.000Z</time>
      </trkpt>
      <trkpt lat="47.2064" lon="-1.52064">
        <ele>51</ele>
        <time>2021-03-27T12:15:18.000Z</time>
      </trkpt>
      <trkpt lat="47.20632" lon="-1.52077">
        <ele>51</ele>
        <time>2021-03-27T12:15:20.000Z</time>
      </trkpt>
      <trkpt lat="47.20624" lon="-1.52091">
        <ele>51</ele>
        <time>2021-03-27T12:15:22.000Z</time>
      </trkpt>
      <trkpt lat="47.20616" lon="-1.52105">
        <ele>51</ele>
        <time>2021-03-27T12:15:24.000Z</time>
      </trkpt>
      <trkpt lat="47.20608" lon="-1.52119">
        <ele>51</ele>
        <time>2021-03-27T12:15:26.000Z</time>
      </trkpt>
      <trkpt lat="47.20601" lon="-1.52132">
        <ele>51</ele>
        <time>2021-03-27T12:15:28.000Z</time>
      </trkpt>
      <trkpt lat="47.20594" lon="-1.52146">
        <ele>51</ele>
        <time>2021-03-27T12:15:30.000Z</time>
      </trkpt>
      <trkpt lat="47.20586" lon="-1.5216">
        <ele>51</ele>
        <time>2021-03-27T12:15:32.000Z</time>
      </trkpt>
      <trkpt lat="47.20578" lon="-1.52173">
        <ele>51</ele>
        <time>2021-03-27T12:15:34.000Z</time>
      </trkpt>
      <trkpt lat="47.20571" lon="-1.52187">
        <ele>51</ele>
        <time>2021-03-27T12:15:36.000Z</time>
      </trkpt>
      <trkpt lat="47.20563" lon="-1.522">
        <ele>52</ele>
        <time>2021-03-27T12:15:38.000Z</time>
      </trkpt>
      <trkpt lat="47.20556" lon="-1.52214">
        <ele>52</ele>
        <time>2021-03-27T12:15:40.000Z</time>
      </trkpt>
      <trkpt lat="47.20549" lon="-1.52228">
        <ele>52</ele>
        <time>2021-03-27T12:15:42.000Z</time>
      </trkpt>
      <trkpt lat="47.20541" lon="-1.52242">
        <ele>52</ele>
        <time>2021-03-27T12:15:44.000Z</time>
      </trkpt>
      <trkpt lat="47.20534" lon="-1.52257">
        <ele>51</ele>
        <time>2021-03-27T12:15:46.000Z</time>
      </trkpt>
      <trkpt lat="47.20528" lon="-1.52272">
        <ele>52</ele>
        <time>2021-03-27T12:15:48.000Z</time>
      </trkpt>
      <trkpt lat="47.20524" lon="-1.52288">
        <ele>51</ele>
        <time>2021-03-27T12:15:50.000Z</time>
      </trkpt>
      <trkpt lat="47.2052" lon="-1.52305">
        <ele>51</ele>
        <time>2021-03-27T12:15:52.000Z</time>
      </trkpt>
      <trkpt lat="47.20517" lon="-1.52323">
        <ele>51</ele>
        <time>2021-03-27T12:15:54.000Z</time>
      </trkpt>
      <trkpt lat="47.20511" lon="-1.52341">
        <ele>50</ele>
        <time>2021-03-27T12:15:56.000Z</time>
      </trkpt>
      <trkpt lat="47.20506" lon="-1.52359">
        <ele>49</ele>
        <time>2021-03-27T12:15:58.000Z</time>
      </trkpt>
      <trkpt lat="47.205" lon="-1.52376">
        <ele>49</ele>
        <time>2021-03-27T12:16:00.000Z</time>
      </trkpt>
      <trkpt lat="47.20497" lon="-1.52391">
        <ele>50</ele>
        <time>2021-03-27T12:16:02.000Z</time>
      </trkpt>
      <trkpt lat="47.20491" lon="-1.52408">
        <ele>52</ele>
        <time>2021-03-27T12:16:04.000Z</time>
      </trkpt>
      <trkpt lat="47.20485" lon="-1.52424">
        <ele>52</ele>
        <time>2021-03-27T12:16:06.000Z</time>
      </trkpt>
      <trkpt lat="47.20479" lon="-1.5244">
        <ele>52</ele>
        <time>2021-03-27T12:16:08.000Z</time>
      </trkpt>
      <trkpt lat="47.20472" lon="-1.52453">
        <ele>52</ele>
        <time>2021-03-27T12:16:10.000Z</time>
      </trkpt>
      <trkpt lat="47.20464" lon="-1.52467">
        <ele>51</ele>
        <time>2021-03-27T12:16:12.000Z</time>
      </trkpt>
      <trkpt lat="47.20459" lon="-1.52484">
        <ele>52</ele>
        <time>2021-03-27T12:16:14.000Z</time>
      </trkpt>
      <trkpt lat="47.20453" lon="-1.525">
        <ele>52</ele>
        <time>2021-03-27T12:16:16.000Z</time>
      </trkpt>
      <trkpt lat="47.20447" lon="-1.52517">
        <ele>52</ele>
        <time>2021-03-27T12:16:18.000Z</time>
      </trkpt>
      <trkpt lat="47.2044" lon="-1.52534">
        <ele>52</ele>
        <time>2021-03-27T12:16:20.000Z</time>
      </trkpt>
      <trkpt lat="47.20434" lon="-1.52551">
        <ele>52</ele>
        <time>2021-03-27T12:16:22.000Z</time>
      </trkpt>
      <trkpt lat="47.20429" lon="-1.52568">
        <ele>52</ele>
        <time>2021-03-27T12:16:24.000Z</time>
      </trkpt>
      <trkpt lat="47.20423" lon="-1.52586">
        <ele>52</ele>
        <time>2021-03-27T12:16:26.000Z</time>
      </trkpt>
      <trkpt lat="47.20419" lon="-1.52604">
        <ele>53</ele>
        <time>2021-03-27T12:16:28.000Z</time>
      </trkpt>
      <trkpt lat="47.20413" lon="-1.52621">
        <ele>52</ele>
        <time>2021-03-27T12:16:30.000Z</time>
      </trkpt>
      <trkpt lat="47.20407" lon="-1.52637">
        <ele>52</ele>
        <time>2021-03-27T12:16:32.000Z</time>
      </trkpt>
      <trkpt lat="47.20401" lon="-1.52653">
        <ele>53</ele>
        <time>2021-03-27T12:16:34.000Z</time>
      </trkpt>
      <trkpt lat="47.20394" lon="-1.52669">
        <ele>53</ele>
        <time>2021-03-27T12:16:36.000Z</time>
      </trkpt>
      <trkpt lat="47.20388" lon="-1.52684">
        <ele>53</ele>
        <time>2021-03-27T12:16:38.000Z</time>
      </trkpt>
      <trkpt lat="47.2038" lon="-1.52698">
        <ele>53</ele>
        <time>2021-03-27T12:16:40.000Z</time>
      </trkpt>
      <trkpt lat="47.20372" lon="-1.52711">
        <ele>52</ele>
        <time>2021-03-27T12:16:42.000Z</time>
      </trkpt>
      <trkpt lat="47.20365" lon="-1.52725">
        <ele>52</ele>
        <time>2021-03-27T12:16:44.000Z</time>
      </trkpt>
      <trkpt lat="47.20358" lon="-1.5274">
        <ele>52</ele>
        <time>2021-03-27T12:16:46.000Z</time>
      </trkpt>
      <trkpt lat="47.2035" lon="-1.52755">
        <ele>52</ele>
        <time>2021-03-27T12:16:48.000Z</time>
      </trkpt>
      <trkpt lat="47.20343" lon="-1.5277">
        <ele>52</ele>
        <time>2021-03-27T12:16:50.000Z</time>
      </trkpt>
      <trkpt lat="47.20337" lon="-1.52784">
        <ele>52</ele>
        <time>2021-03-27T12:16:52.000Z</time>
      </trkpt>
      <trkpt lat="47.20328" lon="-1.52799">
        <ele>53</ele>
        <time>2021-03-27T12:16:54.000Z</time>
      </trkpt>
      <trkpt lat="47.20321" lon="-1.52814">
        <ele>52</ele>
        <time>2021-03-27T12:16:56.000Z</time>
      </trkpt>
      <trkpt lat="47.20314" lon="-1.5283">
        <ele>52</ele>
        <time>2021-03-27T12:16:58.000Z</time>
      </trkpt>
      <trkpt lat="47.20306" lon="-1.52846">
        <ele>52</ele>
        <time>2021-03-27T12:17:00.000Z</time>
      </trkpt>
      <trkpt lat="47.20299" lon="-1.52862">
        <ele>52</ele>
        <time>2021-03-27T12:17:02.000Z</time>
      </trkpt>
      <trkpt lat="47.20293" lon="-1.52879">
        <ele>52</ele>
        <time>2021-03-27T12:17:04.000Z</time>
      </trkpt>
      <trkpt lat="47.20287" lon="-1.52896">
        <ele>52</ele>
        <time>2021-03-27T12:17:06.000Z</time>
      </trkpt>
      <trkpt lat="47.2028" lon="-1.52912">
        <ele>52</ele>
        <time>2021-03-27T12:17:08.000Z</time>
      </trkpt>
      <trkpt lat="47.20273" lon="-1.52926">
        <ele>52</ele>
        <time>2021-03-27T12:17:10.000Z</time>
      </trkpt>
      <trkpt lat="47.20266" lon="-1.52942">
        <ele>52</ele>
        <time>2021-03-27T12:17:12.000Z</time>
      </trkpt>
      <trkpt lat="47.20258" lon="-1.52956">
        <ele>53</ele>
        <time>2021-03-27T12:17:14.000Z</time>
      </trkpt>
      <trkpt lat="47.20249" lon="-1.52969">
        <ele>53</ele>
        <time>2021-03-27T12:17:16.000Z</time>
      </trkpt>
      <trkpt lat="47.20242" lon="-1.52984">
        <ele>52</ele>
        <time>2021-03-27T12:17:18.000Z</time>
      </trkpt>
      <trkpt lat="47.20233" lon="-1.52998">
        <ele>52</ele>
        <time>2021-03-27T12:17:20.000Z</time>
      </trkpt>
      <trkpt lat="47.20224" lon="-1.53012">
        <ele>53</ele>
        <time>2021-03-27T12:17:22.000Z</time>
      </trkpt>
      <trkpt lat="47.20215" lon="-1.53024">
        <ele>52</ele>
        <time>2021-03-27T12:17:24.000Z</time>
      </trkpt>
      <trkpt lat="47.20205" lon="-1.53035">
        <ele>52</ele>
        <time>2021-03-27T12:17:26.000Z</time>
      </trkpt>
      <trkpt lat="47.20195" lon="-1.53047">
        <ele>52</ele>
        <time>2021-03-27T12:17:28.000Z</time>
      </trkpt>
      <trkpt lat="47.20186" lon="-1.53059">
        <ele>52</ele>
        <time>2021-03-27T12:17:30.000Z</time>
      </trkpt>
      <trkpt lat="47.20177" lon="-1.53073">
        <ele>52</ele>
        <time>2021-03-27T12:17:32.000Z</time>
      </trkpt>
      <trkpt lat="47.2017" lon="-1.53087">
        <ele>52</ele>
        <time>2021-03-27T12:17:34.000Z</time>
      </trkpt>
      <trkpt lat="47.20162" lon="-1.53101">
        <ele>52</ele>
        <time>2021-03-27T12:17:36.000Z</time>
      </trkpt>
      <trkpt lat="47.20154" lon="-1.53116">
        <ele>52</ele>
        <time>2021-03-27T12:17:38.000Z</time>
      </trkpt>
      <trkpt lat="47.20148" lon="-1.53132">
        <ele>52</ele>
        <time>2021-03-27T12:17:40.000Z</time>
      </trkpt>
      <trkpt lat="47.20142" lon="-1.53148">
        <ele>52</ele>
        <time>2021-03-27T12:17:42.000Z</time>
      </trkpt>
      <trkpt lat="47.20136" lon="-1.53163">
        <ele>52</ele>
        <time>2021-03-27T12:17:44.000Z</time>
      </trkpt>
      <trkpt lat="47.20131" lon="-1.53179">
        <ele>52</ele>
        <time>2021-03-27T12:17:46.000Z</time>
      </trkpt>
      <trkpt lat="47.20127" lon="-1.53196">
        <ele>52</ele>
        <time>2021-03-27T12:17:48.000Z</time>
      </trkpt>
      <trkpt lat="47.20123" lon="-1.53212">
        <ele>52</ele>
        <time>2021-03-27T12:17:50.000Z</time>
      </trkpt>
      <trkpt lat="47.20119" lon="-1.53229">
        <ele>52</ele>
        <time>2021-03-27T12:17:52.000Z</time>
      </trkpt>
      <trkpt lat="47.20115" lon="-1.53246">
        <ele>52</ele>
        <time>2021-03-27T12:17:54.000Z</time>
      </trkpt>
      <trkpt lat="47.2011" lon="-1.53263">
        <ele>52</ele>
        <time>2021-03-27T12:17:56.000Z</time>
      </trkpt>
      <trkpt lat="47.20105" lon="-1.53279">
        <ele>53</ele>
        <time>2021-03-27T12:17:58.000Z</time>
      </trkpt>
      <trkpt lat="47.201" lon="-1.53294">
        <ele>53</ele>
        <time>2021-03-27T12:18:00.000Z</time>
      </trkpt>
      <trkpt lat="47.20094" lon="-1.53309">
        <ele>53</ele>
        <time>2021-03-27T12:18:02.000Z</time>
      </trkpt>
      <trkpt lat="47.20089" lon="-1.53323">
        <ele>53</ele>
        <time>2021-03-27T12:18:04.000Z</time>
      </trkpt>
      <trkpt lat="47.20082" lon="-1.53337">
        <ele>52</ele>
        <time>2021-03-27T12:18:06.000Z</time>
      </trkpt>
      <trkpt lat="47.20077" lon="-1.53351">
        <ele>52</ele>
        <time>2021-03-27T12:18:08.000Z</time>
      </trkpt>
      <trkpt lat="47.2007" lon="-1.53365">
        <ele>52</ele>
        <time>2021-03-27T12:18:10.000Z</time>
      </trkpt>
      <trkpt lat="47.20065" lon="-1.53381">
        <ele>52</ele>
        <time>2021-03-27T12:18:12.000Z</time>
      </trkpt>
      <trkpt lat="47.20058" lon="-1.53396">
        <ele>52</ele>
        <time>2021-03-27T12:18:14.000Z</time>
      </trkpt>
      <trkpt lat="47.20052" lon="-1.5341">
        <ele>52</ele>
        <time>2021-03-27T12:18:16.000Z</time>
      </trkpt>
      <trkpt lat="47.20046" lon="-1.53424">
        <ele>52</ele>
        <time>2021-03-27T12:18:18.000Z</time>
      </trkpt>
      <trkpt lat="47.20042" lon="-1.53439">
        <ele>52</ele>
        <time>2021-03-27T12:18:20.000Z</time>
      </trkpt>
      <trkpt lat="47.20036" lon="-1.53454">
        <ele>52</ele>
        <time>2021-03-27T12:18:22.000Z</time>
      </trkpt>
      <trkpt lat="47.2003" lon="-1.53469">
        <ele>51</ele>
        <time>2021-03-27T12:18:24.000Z</time>
      </trkpt>
      <trkpt lat="47.20023" lon="-1.53483">
        <ele>51</ele>
        <time>2021-03-27T12:18:26.000Z</time>
      </trkpt>
      <trkpt lat="47.20015" lon="-1.53497">
        <ele>51</ele>
        <time>2021-03-27T12:18:28.000Z</time>
      </trkpt>
      <trkpt lat="47.20006" lon="-1.53509">
        <ele>51</ele>
        <time>2021-03-27T12:18:30.000Z</time>
      </trkpt>
      <trkpt lat="47.19997" lon="-1.5352">
        <ele>51</ele>
        <time>2021-03-27T12:18:32.000Z</time>
      </trkpt>
      <trkpt lat="47.19989" lon="-1.53531">
        <ele>51</ele>
        <time>2021-03-27T12:18:34.000Z</time>
      </trkpt>
      <trkpt lat="47.19985" lon="-1.53547">
        <ele>51</ele>
        <time>2021-03-27T12:18:36.000Z</time>
      </trkpt>
      <trkpt lat="47.19981" lon="-1.53563">
        <ele>51</ele>
        <time>2021-03-27T12:18:38.000Z</time>
      </trkpt>
      <trkpt lat="47.19977" lon="-1.53578">
        <ele>51</ele>
        <time>2021-03-27T12:18:40.000Z</time>
      </trkpt>
      <trkpt lat="47.19974" lon="-1.53593">
        <ele>51</ele>
        <time>2021-03-27T12:18:42.000Z</time>
      </trkpt>
      <trkpt lat="47.1997" lon="-1.5361">
        <ele>51</ele>
        <time>2021-03-27T12:18:44.000Z</time>
      </trkpt>
      <trkpt lat="47.19968" lon="-1.53625">
        <ele>51</ele>
        <time>2021-03-27T12:18:46.000Z</time>
      </trkpt>
      <trkpt lat="47.19965" lon="-1.53641">
        <ele>51</ele>
        <time>2021-03-27T12:18:48.000Z</time>
      </trkpt>
      <trkpt lat="47.19962" lon="-1.53656">
        <ele>51</ele>
        <time>2021-03-27T12:18:50.000Z</time>
      </trkpt>
      <trkpt lat="47.19959" lon="-1.53673">
        <ele>51</ele>
        <time>2021-03-27T12:18:52.000Z</time>
      </trkpt>
      <trkpt lat="47.19954" lon="-1.5369">
        <ele>52</ele>
        <time>2021-03-27T12:18:54.000Z</time>
      </trkpt>
      <trkpt lat="47.1995" lon="-1.53708">
        <ele>52</ele>
        <time>2021-03-27T12:18:56.000Z</time>
      </trkpt>
      <trkpt lat="47.19945" lon="-1.53727">
        <ele>52</ele>
        <time>2021-03-27T12:18:58.000Z</time>
      </trkpt>
      <trkpt lat="47.19941" lon="-1.53746">
        <ele>52</ele>
        <time>2021-03-27T12:19:00.000Z</time>
      </trkpt>
      <trkpt lat="47.19937" lon="-1.53762">
        <ele>52</ele>
        <time>2021-03-27T12:19:02.000Z</time>
      </trkpt>
      <trkpt lat="47.19934" lon="-1.53778">
        <ele>52</ele>
        <time>2021-03-27T12:19:04.000Z</time>
      </trkpt>
      <trkpt lat="47.19931" lon="-1.53793">
        <ele>52</ele>
        <time>2021-03-27T12:19:06.000Z</time>
      </trkpt>
      <trkpt lat="47.19927" lon="-1.53812">
        <ele>52</ele>
        <time>2021-03-27T12:19:08.000Z</time>
      </trkpt>
      <trkpt lat="47.19924" lon="-1.5383">
        <ele>52</ele>
        <time>2021-03-27T12:19:10.000Z</time>
      </trkpt>
      <trkpt lat="47.1992" lon="-1.53844">
        <ele>52</ele>
        <time>2021-03-27T12:19:12.000Z</time>
      </trkpt>
      <trkpt lat="47.19917" lon="-1.5386">
        <ele>52</ele>
        <time>2021-03-27T12:19:14.000Z</time>
      </trkpt>
      <trkpt lat="47.19914" lon="-1.53876">
        <ele>52</ele>
        <time>2021-03-27T12:19:16.000Z</time>
      </trkpt>
      <trkpt lat="47.1991" lon="-1.53892">
        <ele>52</ele>
        <time>2021-03-27T12:19:18.000Z</time>
      </trkpt>
      <trkpt lat="47.19906" lon="-1.53908">
        <ele>52</ele>
        <time>2021-03-27T12:19:20.000Z</time>
      </trkpt>
      <trkpt lat="47.19902" lon="-1.53925">
        <ele>52</ele>
        <time>2021-03-27T12:19:22.000Z</time>
      </trkpt>
      <trkpt lat="47.19899" lon="-1.53941">
        <ele>52</ele>
        <time>2021-03-27T12:19:24.000Z</time>
      </trkpt>
      <trkpt lat="47.19895" lon="-1.53956">
        <ele>52</ele>
        <time>2021-03-27T12:19:26.000Z</time>
      </trkpt>
      <trkpt lat="47.19889" lon="-1.53972">
        <ele>52</ele>
        <time>2021-03-27T12:19:28.000Z</time>
      </trkpt>
      <trkpt lat="47.19885" lon="-1.53988">
        <ele>52</ele>
        <time>2021-03-27T12:19:30.000Z</time>
      </trkpt>
      <trkpt lat="47.19879" lon="-1.54004">
        <ele>52</ele>
        <time>2021-03-27T12:19:32.000Z</time>
      </trkpt>
      <trkpt lat="47.19874" lon="-1.54019">
        <ele>52</ele>
        <time>2021-03-27T12:19:34.000Z</time>
      </trkpt>
      <trkpt lat="47.19869" lon="-1.54035">
        <ele>52</ele>
        <time>2021-03-27T12:19:36.000Z</time>
      </trkpt>
      <trkpt lat="47.19863" lon="-1.54049">
        <ele>52</ele>
        <time>2021-03-27T12:19:38.000Z</time>
      </trkpt>
      <trkpt lat="47.19859" lon="-1.54064">
        <ele>52</ele>
        <time>2021-03-27T12:19:40.000Z</time>
      </trkpt>
      <trkpt lat="47.19853" lon="-1.54082">
        <ele>52</ele>
        <time>2021-03-27T12:19:42.000Z</time>
      </trkpt>
      <trkpt lat="47.19847" lon="-1.54098">
        <ele>52</ele>
        <time>2021-03-27T12:19:44.000Z</time>
      </trkpt>
      <trkpt lat="47.1984" lon="-1.54113">
        <ele>53</ele>
        <time>2021-03-27T12:19:46.000Z</time>
      </trkpt>
      <trkpt lat="47.19833" lon="-1.54127">
        <ele>53</ele>
        <time>2021-03-27T12:19:48.000Z</time>
      </trkpt>
      <trkpt lat="47.19827" lon="-1.54141">
        <ele>52</ele>
        <time>2021-03-27T12:19:50.000Z</time>
      </trkpt>
      <trkpt lat="47.19819" lon="-1.54154">
        <ele>53</ele>
        <time>2021-03-27T12:19:52.000Z</time>
      </trkpt>
      <trkpt lat="47.19811" lon="-1.54168">
        <ele>53</ele>
        <time>2021-03-27T12:19:54.000Z</time>
      </trkpt>
      <trkpt lat="47.19806" lon="-1.5418">
        <ele>54</ele>
        <time>2021-03-27T12:19:56.000Z</time>
      </trkpt>
      <trkpt lat="47.19802" lon="-1.54194">
        <ele>54</ele>
        <time>2021-03-27T12:19:59.000Z</time>
      </trkpt>
      <trkpt lat="47.19798" lon="-1.54206">
        <ele>55</ele>
        <time>2021-03-27T12:20:06.000Z</time>
      </trkpt>
      <trkpt lat="47.19794" lon="-1.54219">
        <ele>54</ele>
        <time>2021-03-27T12:20:14.000Z</time>
      </trkpt>
      <trkpt lat="47.19788" lon="-1.54232">
        <ele>54</ele>
        <time>2021-03-27T12:20:16.000Z</time>
      </trkpt>
      <trkpt lat="47.19782" lon="-1.54247">
        <ele>54</ele>
        <time>2021-03-27T12:20:18.000Z</time>
      </trkpt>
      <trkpt lat="47.19774" lon="-1.5426">
        <ele>54</ele>
        <time>2021-03-27T12:20:20.000Z</time>
      </trkpt>
      <trkpt lat="47.19764" lon="-1.54272">
        <ele>54</ele>
        <time>2021-03-27T12:20:22.000Z</time>
      </trkpt>
      <trkpt lat="47.19755" lon="-1.54287">
        <ele>54</ele>
        <time>2021-03-27T12:20:24.000Z</time>
      </trkpt>
      <trkpt lat="47.19744" lon="-1.54297">
        <ele>53</ele>
        <time>2021-03-27T12:20:26.000Z</time>
      </trkpt>
      <trkpt lat="47.19733" lon="-1.54306">
        <ele>53</ele>
        <time>2021-03-27T12:20:28.000Z</time>
      </trkpt>
      <trkpt lat="47.1972" lon="-1.54315">
        <ele>53</ele>
        <time>2021-03-27T12:20:30.000Z</time>
      </trkpt>
      <trkpt lat="47.19709" lon="-1.54323">
        <ele>52</ele>
        <time>2021-03-27T12:20:32.000Z</time>
      </trkpt>
      <trkpt lat="47.19698" lon="-1.54332">
        <ele>52</ele>
        <time>2021-03-27T12:20:34.000Z</time>
      </trkpt>
      <trkpt lat="47.19687" lon="-1.54341">
        <ele>52</ele>
        <time>2021-03-27T12:20:36.000Z</time>
      </trkpt>
      <trkpt lat="47.19677" lon="-1.54348">
        <ele>52</ele>
        <time>2021-03-27T12:20:38.000Z</time>
      </trkpt>
      <trkpt lat="47.19667" lon="-1.54356">
        <ele>52</ele>
        <time>2021-03-27T12:20:40.000Z</time>
      </trkpt>
      <trkpt lat="47.19657" lon="-1.54364">
        <ele>52</ele>
        <time>2021-03-27T12:20:42.000Z</time>
      </trkpt>
      <trkpt lat="47.19647" lon="-1.54372">
        <ele>52</ele>
        <time>2021-03-27T12:20:44.000Z</time>
      </trkpt>
      <trkpt lat="47.19637" lon="-1.54381">
        <ele>52</ele>
        <time>2021-03-27T12:20:46.000Z</time>
      </trkpt>
      <trkpt lat="47.19627" lon="-1.54391">
        <ele>52</ele>
        <time>2021-03-27T12:20:48.000Z</time>
      </trkpt>
      <trkpt lat="47.19618" lon="-1.544">
        <ele>52</ele>
        <time>2021-03-27T12:20:50.000Z</time>
      </trkpt>
      <trkpt lat="47.19609" lon="-1.54409">
        <ele>52</ele>
        <time>2021-03-27T12:20:52.000Z</time>
      </trkpt>
      <trkpt lat="47.19599" lon="-1.54418">
        <ele>52</ele>
        <time>2021-03-27T12:20:54.000Z</time>
      </trkpt>
      <trkpt lat="47.19589" lon="-1.54427">
        <ele>52</ele>
        <time>2021-03-27T12:20:56.000Z</time>
      </trkpt>
      <trkpt lat="47.1958" lon="-1.54437">
        <ele>52</ele>
        <time>2021-03-27T12:20:58.000Z</time>
      </trkpt>
      <trkpt lat="47.1957" lon="-1.54446">
        <ele>53</ele>
        <time>2021-03-27T12:21:00.000Z</time>
      </trkpt>
      <trkpt lat="47.19561" lon="-1.54456">
        <ele>53</ele>
        <time>2021-03-27T12:21:02.000Z</time>
      </trkpt>
      <trkpt lat="47.19552" lon="-1.54465">
        <ele>53</ele>
        <time>2021-03-27T12:21:04.000Z</time>
      </trkpt>
      <trkpt lat="47.19542" lon="-1.54474">
        <ele>53</ele>
        <time>2021-03-27T12:21:06.000Z</time>
      </trkpt>
      <trkpt lat="47.19533" lon="-1.54483">
        <ele>53</ele>
        <time>2021-03-27T12:21:08.000Z</time>
      </trkpt>
      <trkpt lat="47.19525" lon="-1.54491">
        <ele>53</ele>
        <time>2021-03-27T12:21:10.000Z</time>
      </trkpt>
      <trkpt lat="47.19515" lon="-1.54499">
        <ele>53</ele>
        <time>2021-03-27T12:21:12.000Z</time>
      </trkpt>
      <trkpt lat="47.19505" lon="-1.54507">
        <ele>53</ele>
        <time>2021-03-27T12:21:14.000Z</time>
      </trkpt>
      <trkpt lat="47.19494" lon="-1.54515">
        <ele>52</ele>
        <time>2021-03-27T12:21:16.000Z</time>
      </trkpt>
      <trkpt lat="47.19485" lon="-1.54524">
        <ele>52</ele>
        <time>2021-03-27T12:21:18.000Z</time>
      </trkpt>
      <trkpt lat="47.19477" lon="-1.54537">
        <ele>52</ele>
        <time>2021-03-27T12:21:20.000Z</time>
      </trkpt>
      <trkpt lat="47.19473" lon="-1.54552">
        <ele>52</ele>
        <time>2021-03-27T12:21:22.000Z</time>
      </trkpt>
      <trkpt lat="47.19469" lon="-1.54567">
        <ele>52</ele>
        <time>2021-03-27T12:21:24.000Z</time>
      </trkpt>
      <trkpt lat="47.19472" lon="-1.54582">
        <ele>52</ele>
        <time>2021-03-27T12:21:26.000Z</time>
      </trkpt>
      <trkpt lat="47.19474" lon="-1.54597">
        <ele>52</ele>
        <time>2021-03-27T12:21:28.000Z</time>
      </trkpt>
      <trkpt lat="47.19471" lon="-1.54612">
        <ele>52</ele>
        <time>2021-03-27T12:21:30.000Z</time>
      </trkpt>
      <trkpt lat="47.19464" lon="-1.54626">
        <ele>52</ele>
        <time>2021-03-27T12:21:32.000Z</time>
      </trkpt>
      <trkpt lat="47.19454" lon="-1.54635">
        <ele>53</ele>
        <time>2021-03-27T12:21:34.000Z</time>
      </trkpt>
      <trkpt lat="47.19445" lon="-1.54643">
        <ele>54</ele>
        <time>2021-03-27T12:21:36.000Z</time>
      </trkpt>
      <trkpt lat="47.19442" lon="-1.54659">
        <ele>54</ele>
        <time>2021-03-27T12:21:38.000Z</time>
      </trkpt>
      <trkpt lat="47.19439" lon="-1.54676">
        <ele>56</ele>
        <time>2021-03-27T12:21:40.000Z</time>
      </trkpt>
      <trkpt lat="47.19435" lon="-1.54693">
        <ele>57</ele>
        <time>2021-03-27T12:21:42.000Z</time>
      </trkpt>
      <trkpt lat="47.1943" lon="-1.54707">
        <ele>58</ele>
        <time>2021-03-27T12:21:44.000Z</time>
      </trkpt>
      <trkpt lat="47.19425" lon="-1.5472">
        <ele>58</ele>
        <time>2021-03-27T12:21:46.000Z</time>
      </trkpt>
      <trkpt lat="47.1942" lon="-1.54736">
        <ele>58</ele>
        <time>2021-03-27T12:21:48.000Z</time>
      </trkpt>
      <trkpt lat="47.19417" lon="-1.5475">
        <ele>58</ele>
        <time>2021-03-27T12:21:50.000Z</time>
      </trkpt>
      <trkpt lat="47.19413" lon="-1.54766">
        <ele>58</ele>
        <time>2021-03-27T12:21:52.000Z</time>
      </trkpt>
      <trkpt lat="47.19409" lon="-1.5478">
        <ele>58</ele>
        <time>2021-03-27T12:21:54.000Z</time>
      </trkpt>
      <trkpt lat="47.19406" lon="-1.54795">
        <ele>57</ele>
        <time>2021-03-27T12:21:56.000Z</time>
      </trkpt>
      <trkpt lat="47.19402" lon="-1.5481">
        <ele>57</ele>
        <time>2021-03-27T12:21:58.000Z</time>
      </trkpt>
      <trkpt lat="47.19398" lon="-1.54824">
        <ele>57</ele>
        <time>2021-03-27T12:22:00.000Z</time>
      </trkpt>
      <trkpt lat="47.19394" lon="-1.54838">
        <ele>58</ele>
        <time>2021-03-27T12:22:02.000Z</time>
      </trkpt>
      <trkpt lat="47.1939" lon="-1.54852">
        <ele>59</ele>
        <time>2021-03-27T12:22:04.000Z</time>
      </trkpt>
      <trkpt lat="47.19387" lon="-1.54867">
        <ele>60</ele>
        <time>2021-03-27T12:22:06.000Z</time>
      </trkpt>
      <trkpt lat="47.19383" lon="-1.54882">
        <ele>60</ele>
        <time>2021-03-27T12:22:08.000Z</time>
      </trkpt>
      <trkpt lat="47.19381" lon="-1.54896">
        <ele>61</ele>
        <time>2021-03-27T12:22:10.000Z</time>
      </trkpt>
      <trkpt lat="47.19377" lon="-1.54912">
        <ele>60</ele>
        <time>2021-03-27T12:22:12.000Z</time>
      </trkpt>
      <trkpt lat="47.19374" lon="-1.54926">
        <ele>61</ele>
        <time>2021-03-27T12:22:14.000Z</time>
      </trkpt>
      <trkpt lat="47.1937" lon="-1.5494">
        <ele>62</ele>
        <time>2021-03-27T12:22:16.000Z</time>
      </trkpt>
      <trkpt lat="47.19366" lon="-1.54953">
        <ele>61</ele>
        <time>2021-03-27T12:22:18.000Z</time>
      </trkpt>
      <trkpt lat="47.19363" lon="-1.54968">
        <ele>61</ele>
        <time>2021-03-27T12:22:20.000Z</time>
      </trkpt>
      <trkpt lat="47.19359" lon="-1.54983">
        <ele>60</ele>
        <time>2021-03-27T12:22:22.000Z</time>
      </trkpt>
      <trkpt lat="47.19355" lon="-1.54997">
        <ele>60</ele>
        <time>2021-03-27T12:22:24.000Z</time>
      </trkpt>
      <trkpt lat="47.19351" lon="-1.55011">
        <ele>59</ele>
        <time>2021-03-27T12:22:26.000Z</time>
      </trkpt>
      <trkpt lat="47.19347" lon="-1.55027">
        <ele>59</ele>
        <time>2021-03-27T12:22:28.000Z</time>
      </trkpt>
      <trkpt lat="47.19343" lon="-1.55043">
        <ele>58</ele>
        <time>2021-03-27T12:22:30.000Z</time>
      </trkpt>
      <trkpt lat="47.19339" lon="-1.55059">
        <ele>58</ele>
        <time>2021-03-27T12:22:32.000Z</time>
      </trkpt>
      <trkpt lat="47.19335" lon="-1.55074">
        <ele>57</ele>
        <time>2021-03-27T12:22:34.000Z</time>
      </trkpt>
      <trkpt lat="47.19331" lon="-1.55091">
        <ele>57</ele>
        <time>2021-03-27T12:22:36.000Z</time>
      </trkpt>
      <trkpt lat="47.19327" lon="-1.55108">
        <ele>56</ele>
        <time>2021-03-27T12:22:38.000Z</time>
      </trkpt>
      <trkpt lat="47.19322" lon="-1.55125">
        <ele>56</ele>
        <time>2021-03-27T12:22:40.000Z</time>
      </trkpt>
      <trkpt lat="47.19318" lon="-1.55142">
        <ele>55</ele>
        <time>2021-03-27T12:22:42.000Z</time>
      </trkpt>
      <trkpt lat="47.19314" lon="-1.55159">
        <ele>55</ele>
        <time>2021-03-27T12:22:44.000Z</time>
      </trkpt>
      <trkpt lat="47.1931" lon="-1.55177">
        <ele>55</ele>
        <time>2021-03-27T12:22:46.000Z</time>
      </trkpt>
      <trkpt lat="47.19306" lon="-1.55195">
        <ele>54</ele>
        <time>2021-03-27T12:22:48.000Z</time>
      </trkpt>
      <trkpt lat="47.19301" lon="-1.55213">
        <ele>54</ele>
        <time>2021-03-27T12:22:50.000Z</time>
      </trkpt>
      <trkpt lat="47.19296" lon="-1.55231">
        <ele>54</ele>
        <time>2021-03-27T12:22:52.000Z</time>
      </trkpt>
      <trkpt lat="47.19292" lon="-1.55249">
        <ele>54</ele>
        <time>2021-03-27T12:22:54.000Z</time>
      </trkpt>
      <trkpt lat="47.19288" lon="-1.55267">
        <ele>54</ele>
        <time>2021-03-27T12:22:56.000Z</time>
      </trkpt>
      <trkpt lat="47.19284" lon="-1.55286">
        <ele>54</ele>
        <time>2021-03-27T12:22:58.000Z</time>
      </trkpt>
      <trkpt lat="47.1928" lon="-1.55304">
        <ele>54</ele>
        <time>2021-03-27T12:23:00.000Z</time>
      </trkpt>
      <trkpt lat="47.19277" lon="-1.55322">
        <ele>54</ele>
        <time>2021-03-27T12:23:02.000Z</time>
      </trkpt>
      <trkpt lat="47.19271" lon="-1.55347">
        <ele>54</ele>
        <time>2021-03-27T12:23:05.000Z</time>
      </trkpt>
      <trkpt lat="47.19266" lon="-1.55364">
        <ele>53</ele>
        <time>2021-03-27T12:23:07.000Z</time>
      </trkpt>
      <trkpt lat="47.19261" lon="-1.55379">
        <ele>53</ele>
        <time>2021-03-27T12:23:09.000Z</time>
      </trkpt>
      <trkpt lat="47.19256" lon="-1.55394">
        <ele>54</ele>
        <time>2021-03-27T12:23:11.000Z</time>
      </trkpt>
      <trkpt lat="47.19253" lon="-1.55411">
        <ele>54</ele>
        <time>2021-03-27T12:23:13.000Z</time>
      </trkpt>
      <trkpt lat="47.19258" lon="-1.55427">
        <ele>53</ele>
        <time>2021-03-27T12:23:15.000Z</time>
      </trkpt>
      <trkpt lat="47.19257" lon="-1.55445">
        <ele>53</ele>
        <time>2021-03-27T12:23:17.000Z</time>
      </trkpt>
      <trkpt lat="47.19251" lon="-1.55461">
        <ele>53</ele>
        <time>2021-03-27T12:23:19.000Z</time>
      </trkpt>
      <trkpt lat="47.19247" lon="-1.55476">
        <ele>53</ele>
        <time>2021-03-27T12:23:21.000Z</time>
      </trkpt>
      <trkpt lat="47.19247" lon="-1.55495">
        <ele>53</ele>
        <time>2021-03-27T12:23:23.000Z</time>
      </trkpt>
      <trkpt lat="47.19247" lon="-1.55522">
        <ele>53</ele>
        <time>2021-03-27T12:23:26.000Z</time>
      </trkpt>
      <trkpt lat="47.19246" lon="-1.55539">
        <ele>53</ele>
        <time>2021-03-27T12:23:28.000Z</time>
      </trkpt>
      <trkpt lat="47.19245" lon="-1.55556">
        <ele>53</ele>
        <time>2021-03-27T12:23:30.000Z</time>
      </trkpt>
      <trkpt lat="47.19244" lon="-1.55573">
        <ele>53</ele>
        <time>2021-03-27T12:23:32.000Z</time>
      </trkpt>
      <trkpt lat="47.19243" lon="-1.55589">
        <ele>53</ele>
        <time>2021-03-27T12:23:34.000Z</time>
      </trkpt>
      <trkpt lat="47.19242" lon="-1.55605">
        <ele>53</ele>
        <time>2021-03-27T12:23:36.000Z</time>
      </trkpt>
      <trkpt lat="47.19241" lon="-1.55631">
        <ele>53</ele>
        <time>2021-03-27T12:23:39.000Z</time>
      </trkpt>
      <trkpt lat="47.1924" lon="-1.55648">
        <ele>54</ele>
        <time>2021-03-27T12:23:41.000Z</time>
      </trkpt>
      <trkpt lat="47.19239" lon="-1.55665">
        <ele>54</ele>
        <time>2021-03-27T12:23:43.000Z</time>
      </trkpt>
      <trkpt lat="47.19238" lon="-1.55692">
        <ele>55</ele>
        <time>2021-03-27T12:23:46.000Z</time>
      </trkpt>
      <trkpt lat="47.19238" lon="-1.55709">
        <ele>54</ele>
        <time>2021-03-27T12:23:48.000Z</time>
      </trkpt>
      <trkpt lat="47.19238" lon="-1.55726">
        <ele>54</ele>
        <time>2021-03-27T12:23:50.000Z</time>
      </trkpt>
      <trkpt lat="47.19238" lon="-1.55743">
        <ele>54</ele>
        <time>2021-03-27T12:23:52.000Z</time>
      </trkpt>
      <trkpt lat="47.19238" lon="-1.5576">
        <ele>54</ele>
        <time>2021-03-27T12:23:54.000Z</time>
      </trkpt>
      <trkpt lat="47.19238" lon="-1.55778">
        <ele>54</ele>
        <time>2021-03-27T12:23:56.000Z</time>
      </trkpt>
      <trkpt lat="47.19238" lon="-1.55795">
        <ele>54</ele>
        <time>2021-03-27T12:23:58.000Z</time>
      </trkpt>
      <trkpt lat="47.19239" lon="-1.55812">
        <ele>54</ele>
        <time>2021-03-27T12:24:00.000Z</time>
      </trkpt>
      <trkpt lat="47.19239" lon="-1.55829">
        <ele>54</ele>
        <time>2021-03-27T12:24:02.000Z</time>
      </trkpt>
      <trkpt lat="47.1924" lon="-1.55846">
        <ele>54</ele>
        <time>2021-03-27T12:24:04.000Z</time>
      </trkpt>
      <trkpt lat="47.19241" lon="-1.55863">
        <ele>54</ele>
        <time>2021-03-27T12:24:06.000Z</time>
      </trkpt>
      <trkpt lat="47.19241" lon="-1.5588">
        <ele>54</ele>
        <time>2021-03-27T12:24:08.000Z</time>
      </trkpt>
      <trkpt lat="47.19243" lon="-1.55898">
        <ele>54</ele>
        <time>2021-03-27T12:24:10.000Z</time>
      </trkpt>
      <trkpt lat="47.19244" lon="-1.55915">
        <ele>54</ele>
        <time>2021-03-27T12:24:12.000Z</time>
      </trkpt>
      <trkpt lat="47.19246" lon="-1.55931">
        <ele>54</ele>
        <time>2021-03-27T12:24:14.000Z</time>
      </trkpt>
      <trkpt lat="47.19247" lon="-1.55948">
        <ele>54</ele>
        <time>2021-03-27T12:24:16.000Z</time>
      </trkpt>
      <trkpt lat="47.19249" lon="-1.55974">
        <ele>54</ele>
        <time>2021-03-27T12:24:19.000Z</time>
      </trkpt>
      <trkpt lat="47.19251" lon="-1.55991">
        <ele>53</ele>
        <time>2021-03-27T12:24:21.000Z</time>
      </trkpt>
      <trkpt lat="47.19253" lon="-1.56009">
        <ele>54</ele>
        <time>2021-03-27T12:24:23.000Z</time>
      </trkpt>
      <trkpt lat="47.19255" lon="-1.56027">
        <ele>54</ele>
        <time>2021-03-27T12:24:25.000Z</time>
      </trkpt>
      <trkpt lat="47.19257" lon="-1.56045">
        <ele>54</ele>
        <time>2021-03-27T12:24:27.000Z</time>
      </trkpt>
      <trkpt lat="47.19258" lon="-1.56062">
        <ele>54</ele>
        <time>2021-03-27T12:24:29.000Z</time>
      </trkpt>
      <trkpt lat="47.19259" lon="-1.5608">
        <ele>54</ele>
        <time>2021-03-27T12:24:31.000Z</time>
      </trkpt>
      <trkpt lat="47.19261" lon="-1.56097">
        <ele>54</ele>
        <time>2021-03-27T12:24:33.000Z</time>
      </trkpt>
      <trkpt lat="47.19263" lon="-1.56123">
        <ele>53</ele>
        <time>2021-03-27T12:24:36.000Z</time>
      </trkpt>
      <trkpt lat="47.19264" lon="-1.56139">
        <ele>54</ele>
        <time>2021-03-27T12:24:38.000Z</time>
      </trkpt>
      <trkpt lat="47.19264" lon="-1.56156">
        <ele>54</ele>
        <time>2021-03-27T12:24:40.000Z</time>
      </trkpt>
      <trkpt lat="47.19265" lon="-1.56173">
        <ele>54</ele>
        <time>2021-03-27T12:24:42.000Z</time>
      </trkpt>
      <trkpt lat="47.19266" lon="-1.56189">
        <ele>54</ele>
        <time>2021-03-27T12:24:44.000Z</time>
      </trkpt>
      <trkpt lat="47.19267" lon="-1.56206">
        <ele>54</ele>
        <time>2021-03-27T12:24:46.000Z</time>
      </trkpt>
      <trkpt lat="47.19269" lon="-1.56222">
        <ele>54</ele>
        <time>2021-03-27T12:24:48.000Z</time>
      </trkpt>
      <trkpt lat="47.19272" lon="-1.56238">
        <ele>54</ele>
        <time>2021-03-27T12:24:50.000Z</time>
      </trkpt>
      <trkpt lat="47.19279" lon="-1.56252">
        <ele>53</ele>
        <time>2021-03-27T12:24:52.000Z</time>
      </trkpt>
      <trkpt lat="47.19287" lon="-1.56265">
        <ele>53</ele>
        <time>2021-03-27T12:24:54.000Z</time>
      </trkpt>
      <trkpt lat="47.19291" lon="-1.56283">
        <ele>53</ele>
        <time>2021-03-27T12:24:56.000Z</time>
      </trkpt>
      <trkpt lat="47.19289" lon="-1.56303">
        <ele>53</ele>
        <time>2021-03-27T12:24:58.000Z</time>
      </trkpt>
      <trkpt lat="47.19284" lon="-1.56319">
        <ele>53</ele>
        <time>2021-03-27T12:25:00.000Z</time>
      </trkpt>
      <trkpt lat="47.19279" lon="-1.56336">
        <ele>52</ele>
        <time>2021-03-27T12:25:02.000Z</time>
      </trkpt>
      <trkpt lat="47.19283" lon="-1.56356">
        <ele>52</ele>
        <time>2021-03-27T12:25:04.000Z</time>
      </trkpt>
      <trkpt lat="47.19285" lon="-1.56375">
        <ele>52</ele>
        <time>2021-03-27T12:25:06.000Z</time>
      </trkpt>
      <trkpt lat="47.19287" lon="-1.56394">
        <ele>52</ele>
        <time>2021-03-27T12:25:08.000Z</time>
      </trkpt>
      <trkpt lat="47.1929" lon="-1.56423">
        <ele>52</ele>
        <time>2021-03-27T12:25:11.000Z</time>
      </trkpt>
      <trkpt lat="47.19291" lon="-1.56441">
        <ele>52</ele>
        <time>2021-03-27T12:25:13.000Z</time>
      </trkpt>
      <trkpt lat="47.19293" lon="-1.56459">
        <ele>52</ele>
        <time>2021-03-27T12:25:15.000Z</time>
      </trkpt>
      <trkpt lat="47.19295" lon="-1.56477">
        <ele>52</ele>
        <time>2021-03-27T12:25:17.000Z</time>
      </trkpt>
      <trkpt lat="47.19296" lon="-1.56494">
        <ele>52</ele>
        <time>2021-03-27T12:25:19.000Z</time>
      </trkpt>
      <trkpt lat="47.19298" lon="-1.56512">
        <ele>52</ele>
        <time>2021-03-27T12:25:21.000Z</time>
      </trkpt>
      <trkpt lat="47.193" lon="-1.5653">
        <ele>52</ele>
        <time>2021-03-27T12:25:23.000Z</time>
      </trkpt>
      <trkpt lat="47.19301" lon="-1.56548">
        <ele>52</ele>
        <time>2021-03-27T12:25:25.000Z</time>
      </trkpt>
      <trkpt lat="47.19303" lon="-1.56565">
        <ele>52</ele>
        <time>2021-03-27T12:25:27.000Z</time>
      </trkpt>
      <trkpt lat="47.19305" lon="-1.56583">
        <ele>52</ele>
        <time>2021-03-27T12:25:29.000Z</time>
      </trkpt>
      <trkpt lat="47.19306" lon="-1.56601">
        <ele>52</ele>
        <time>2021-03-27T12:25:31.000Z</time>
      </trkpt>
      <trkpt lat="47.19308" lon="-1.56618">
        <ele>52</ele>
        <time>2021-03-27T12:25:33.000Z</time>
      </trkpt>
      <trkpt lat="47.19309" lon="-1.56636">
        <ele>52</ele>
        <time>2021-03-27T12:25:35.000Z</time>
      </trkpt>
      <trkpt lat="47.1931" lon="-1.56653">
        <ele>52</ele>
        <time>2021-03-27T12:25:37.000Z</time>
      </trkpt>
      <trkpt lat="47.19312" lon="-1.5667">
        <ele>52</ele>
        <time>2021-03-27T12:25:39.000Z</time>
      </trkpt>
      <trkpt lat="47.19314" lon="-1.56686">
        <ele>52</ele>
        <time>2021-03-27T12:25:41.000Z</time>
      </trkpt>
      <trkpt lat="47.19315" lon="-1.56702">
        <ele>52</ele>
        <time>2021-03-27T12:25:43.000Z</time>
      </trkpt>
      <trkpt lat="47.19317" lon="-1.56719">
        <ele>52</ele>
        <time>2021-03-27T12:25:45.000Z</time>
      </trkpt>
      <trkpt lat="47.19318" lon="-1.56735">
        <ele>52</ele>
        <time>2021-03-27T12:25:47.000Z</time>
      </trkpt>
      <trkpt lat="47.1932" lon="-1.56752">
        <ele>51</ele>
        <time>2021-03-27T12:25:49.000Z</time>
      </trkpt>
      <trkpt lat="47.19321" lon="-1.56768">
        <ele>52</ele>
        <time>2021-03-27T12:25:51.000Z</time>
      </trkpt>
      <trkpt lat="47.19322" lon="-1.56784">
        <ele>52</ele>
        <time>2021-03-27T12:25:53.000Z</time>
      </trkpt>
      <trkpt lat="47.19325" lon="-1.56808">
        <ele>52</ele>
        <time>2021-03-27T12:25:56.000Z</time>
      </trkpt>
      <trkpt lat="47.19326" lon="-1.56824">
        <ele>52</ele>
        <time>2021-03-27T12:25:58.000Z</time>
      </trkpt>
      <trkpt lat="47.19327" lon="-1.5684">
        <ele>51</ele>
        <time>2021-03-27T12:26:00.000Z</time>
      </trkpt>
      <trkpt lat="47.19328" lon="-1.56856">
        <ele>52</ele>
        <time>2021-03-27T12:26:02.000Z</time>
      </trkpt>
      <trkpt lat="47.19328" lon="-1.56873">
        <ele>52</ele>
        <time>2021-03-27T12:26:04.000Z</time>
      </trkpt>
      <trkpt lat="47.19329" lon="-1.56889">
        <ele>52</ele>
        <time>2021-03-27T12:26:06.000Z</time>
      </trkpt>
      <trkpt lat="47.19329" lon="-1.56905">
        <ele>52</ele>
        <time>2021-03-27T12:26:08.000Z</time>
      </trkpt>
      <trkpt lat="47.19329" lon="-1.56922">
        <ele>52</ele>
        <time>2021-03-27T12:26:10.000Z</time>
      </trkpt>
      <trkpt lat="47.19329" lon="-1.56938">
        <ele>52</ele>
        <time>2021-03-27T12:26:12.000Z</time>
      </trkpt>
      <trkpt lat="47.19329" lon="-1.56955">
        <ele>52</ele>
        <time>2021-03-27T12:26:14.000Z</time>
      </trkpt>
      <trkpt lat="47.19328" lon="-1.56971">
        <ele>52</ele>
        <time>2021-03-27T12:26:16.000Z</time>
      </trkpt>
      <trkpt lat="47.19326" lon="-1.56986">
        <ele>52</ele>
        <time>2021-03-27T12:26:18.000Z</time>
      </trkpt>
      <trkpt lat="47.19325" lon="-1.57002">
        <ele>52</ele>
        <time>2021-03-27T12:26:20.000Z</time>
      </trkpt>
      <trkpt lat="47.19323" lon="-1.57018">
        <ele>52</ele>
        <time>2021-03-27T12:26:22.000Z</time>
      </trkpt>
      <trkpt lat="47.19327" lon="-1.57037">
        <ele>52</ele>
        <time>2021-03-27T12:26:25.000Z</time>
      </trkpt>
      <trkpt lat="47.19335" lon="-1.57049">
        <ele>52</ele>
        <time>2021-03-27T12:26:27.000Z</time>
      </trkpt>
      <trkpt lat="47.1934" lon="-1.57064">
        <ele>52</ele>
        <time>2021-03-27T12:26:29.000Z</time>
      </trkpt>
      <trkpt lat="47.19334" lon="-1.5708">
        <ele>52</ele>
        <time>2021-03-27T12:26:31.000Z</time>
      </trkpt>
      <trkpt lat="47.19322" lon="-1.57088">
        <ele>52</ele>
        <time>2021-03-27T12:26:33.000Z</time>
      </trkpt>
      <trkpt lat="47.19313" lon="-1.57101">
        <ele>52</ele>
        <time>2021-03-27T12:26:35.000Z</time>
      </trkpt>
      <trkpt lat="47.19311" lon="-1.57118">
        <ele>52</ele>
        <time>2021-03-27T12:26:37.000Z</time>
      </trkpt>
      <trkpt lat="47.19309" lon="-1.57135">
        <ele>52</ele>
        <time>2021-03-27T12:26:39.000Z</time>
      </trkpt>
      <trkpt lat="47.19307" lon="-1.57152">
        <ele>52</ele>
        <time>2021-03-27T12:26:41.000Z</time>
      </trkpt>
      <trkpt lat="47.19305" lon="-1.57169">
        <ele>52</ele>
        <time>2021-03-27T12:26:43.000Z</time>
      </trkpt>
      <trkpt lat="47.19303" lon="-1.57187">
        <ele>52</ele>
        <time>2021-03-27T12:26:45.000Z</time>
      </trkpt>
      <trkpt lat="47.193" lon="-1.57203">
        <ele>52</ele>
        <time>2021-03-27T12:26:47.000Z</time>
      </trkpt>
      <trkpt lat="47.19297" lon="-1.5722">
        <ele>53</ele>
        <time>2021-03-27T12:26:49.000Z</time>
      </trkpt>
      <trkpt lat="47.19293" lon="-1.57237">
        <ele>54</ele>
        <time>2021-03-27T12:26:51.000Z</time>
      </trkpt>
      <trkpt lat="47.19289" lon="-1.57254">
        <ele>54</ele>
        <time>2021-03-27T12:26:53.000Z</time>
      </trkpt>
      <trkpt lat="47.19285" lon="-1.5727">
        <ele>55</ele>
        <time>2021-03-27T12:26:55.000Z</time>
      </trkpt>
      <trkpt lat="47.19281" lon="-1.57286">
        <ele>56</ele>
        <time>2021-03-27T12:26:57.000Z</time>
      </trkpt>
      <trkpt lat="47.19276" lon="-1.57302">
        <ele>56</ele>
        <time>2021-03-27T12:26:59.000Z</time>
      </trkpt>
      <trkpt lat="47.19271" lon="-1.57317">
        <ele>57</ele>
        <time>2021-03-27T12:27:01.000Z</time>
      </trkpt>
      <trkpt lat="47.19266" lon="-1.57333">
        <ele>57</ele>
        <time>2021-03-27T12:27:03.000Z</time>
      </trkpt>
      <trkpt lat="47.19261" lon="-1.57349">
        <ele>57</ele>
        <time>2021-03-27T12:27:05.000Z</time>
      </trkpt>
      <trkpt lat="47.19256" lon="-1.57365">
        <ele>57</ele>
        <time>2021-03-27T12:27:07.000Z</time>
      </trkpt>
      <trkpt lat="47.19251" lon="-1.5738">
        <ele>57</ele>
        <time>2021-03-27T12:27:09.000Z</time>
      </trkpt>
      <trkpt lat="47.19246" lon="-1.57396">
        <ele>57</ele>
        <time>2021-03-27T12:27:11.000Z</time>
      </trkpt>
      <trkpt lat="47.1924" lon="-1.57412">
        <ele>57</ele>
        <time>2021-03-27T12:27:13.000Z</time>
      </trkpt>
      <trkpt lat="47.19235" lon="-1.57428">
        <ele>57</ele>
        <time>2021-03-27T12:27:15.000Z</time>
      </trkpt>
      <trkpt lat="47.19229" lon="-1.57445">
        <ele>56</ele>
        <time>2021-03-27T12:27:17.000Z</time>
      </trkpt>
      <trkpt lat="47.19223" lon="-1.57462">
        <ele>56</ele>
        <time>2021-03-27T12:27:19.000Z</time>
      </trkpt>
      <trkpt lat="47.19217" lon="-1.57478">
        <ele>56</ele>
        <time>2021-03-27T12:27:21.000Z</time>
      </trkpt>
      <trkpt lat="47.1921" lon="-1.57493">
        <ele>56</ele>
        <time>2021-03-27T12:27:23.000Z</time>
      </trkpt>
      <trkpt lat="47.19204" lon="-1.57509">
        <ele>56</ele>
        <time>2021-03-27T12:27:25.000Z</time>
      </trkpt>
      <trkpt lat="47.19198" lon="-1.57525">
        <ele>56</ele>
        <time>2021-03-27T12:27:27.000Z</time>
      </trkpt>
      <trkpt lat="47.19192" lon="-1.57541">
        <ele>56</ele>
        <time>2021-03-27T12:27:29.000Z</time>
      </trkpt>
      <trkpt lat="47.19187" lon="-1.57556">
        <ele>56</ele>
        <time>2021-03-27T12:27:31.000Z</time>
      </trkpt>
      <trkpt lat="47.19181" lon="-1.57572">
        <ele>56</ele>
        <time>2021-03-27T12:27:33.000Z</time>
      </trkpt>
      <trkpt lat="47.19175" lon="-1.57588">
        <ele>55</ele>
        <time>2021-03-27T12:27:35.000Z</time>
      </trkpt>
      <trkpt lat="47.19169" lon="-1.57603">
        <ele>55</ele>
        <time>2021-03-27T12:27:37.000Z</time>
      </trkpt>
      <trkpt lat="47.19163" lon="-1.57618">
        <ele>55</ele>
        <time>2021-03-27T12:27:39.000Z</time>
      </trkpt>
      <trkpt lat="47.19158" lon="-1.57634">
        <ele>54</ele>
        <time>2021-03-27T12:27:41.000Z</time>
      </trkpt>
      <trkpt lat="47.19152" lon="-1.5765">
        <ele>54</ele>
        <time>2021-03-27T12:27:43.000Z</time>
      </trkpt>
      <trkpt lat="47.19147" lon="-1.57666">
        <ele>54</ele>
        <time>2021-03-27T12:27:45.000Z</time>
      </trkpt>
      <trkpt lat="47.19142" lon="-1.5768">
        <ele>54</ele>
        <time>2021-03-27T12:27:47.000Z</time>
      </trkpt>
      <trkpt lat="47.19137" lon="-1.57695">
        <ele>54</ele>
        <time>2021-03-27T12:27:49.000Z</time>
      </trkpt>
      <trkpt lat="47.19132" lon="-1.5771">
        <ele>53</ele>
        <time>2021-03-27T12:27:51.000Z</time>
      </trkpt>
      <trkpt lat="47.19126" lon="-1.57725">
        <ele>53</ele>
        <time>2021-03-27T12:27:53.000Z</time>
      </trkpt>
      <trkpt lat="47.19121" lon="-1.5774">
        <ele>53</ele>
        <time>2021-03-27T12:27:55.000Z</time>
      </trkpt>
      <trkpt lat="47.19115" lon="-1.57756">
        <ele>53</ele>
        <time>2021-03-27T12:27:57.000Z</time>
      </trkpt>
      <trkpt lat="47.1911" lon="-1.57772">
        <ele>53</ele>
        <time>2021-03-27T12:27:59.000Z</time>
      </trkpt>
      <trkpt lat="47.19104" lon="-1.57787">
        <ele>53</ele>
        <time>2021-03-27T12:28:01.000Z</time>
      </trkpt>
      <trkpt lat="47.19098" lon="-1.57803">
        <ele>53</ele>
        <time>2021-03-27T12:28:03.000Z</time>
      </trkpt>
      <trkpt lat="47.19092" lon="-1.57819">
        <ele>52</ele>
        <time>2021-03-27T12:28:05.000Z</time>
      </trkpt>
      <trkpt lat="47.19087" lon="-1.57834">
        <ele>52</ele>
        <time>2021-03-27T12:28:07.000Z</time>
      </trkpt>
      <trkpt lat="47.19081" lon="-1.5785">
        <ele>52</ele>
        <time>2021-03-27T12:28:09.000Z</time>
      </trkpt>
      <trkpt lat="47.19075" lon="-1.57866">
        <ele>52</ele>
        <time>2021-03-27T12:28:11.000Z</time>
      </trkpt>
      <trkpt lat="47.1907" lon="-1.57882">
        <ele>52</ele>
        <time>2021-03-27T12:28:13.000Z</time>
      </trkpt>
      <trkpt lat="47.19064" lon="-1.57898">
        <ele>52</ele>
        <time>2021-03-27T12:28:15.000Z</time>
      </trkpt>
      <trkpt lat="47.19058" lon="-1.57914">
        <ele>51</ele>
        <time>2021-03-27T12:28:17.000Z</time>
      </trkpt>
      <trkpt lat="47.19053" lon="-1.5793">
        <ele>51</ele>
        <time>2021-03-27T12:28:19.000Z</time>
      </trkpt>
      <trkpt lat="47.19047" lon="-1.57946">
        <ele>51</ele>
        <time>2021-03-27T12:28:21.000Z</time>
      </trkpt>
      <trkpt lat="47.19042" lon="-1.57962">
        <ele>51</ele>
        <time>2021-03-27T12:28:23.000Z</time>
      </trkpt>
      <trkpt lat="47.19036" lon="-1.57978">
        <ele>51</ele>
        <time>2021-03-27T12:28:25.000Z</time>
      </trkpt>
      <trkpt lat="47.1903" lon="-1.57994">
        <ele>51</ele>
        <time>2021-03-27T12:28:27.000Z</time>
      </trkpt>
      <trkpt lat="47.19024" lon="-1.5801">
        <ele>52</ele>
        <time>2021-03-27T12:28:29.000Z</time>
      </trkpt>
      <trkpt lat="47.19019" lon="-1.58026">
        <ele>52</ele>
        <time>2021-03-27T12:28:31.000Z</time>
      </trkpt>
      <trkpt lat="47.19014" lon="-1.5804">
        <ele>51</ele>
        <time>2021-03-27T12:28:33.000Z</time>
      </trkpt>
      <trkpt lat="47.19008" lon="-1.58055">
        <ele>51</ele>
        <time>2021-03-27T12:28:35.000Z</time>
      </trkpt>
      <trkpt lat="47.19003" lon="-1.58069">
        <ele>51</ele>
        <time>2021-03-27T12:28:37.000Z</time>
      </trkpt>
      <trkpt lat="47.18998" lon="-1.58084">
        <ele>51</ele>
        <time>2021-03-27T12:28:39.000Z</time>
      </trkpt>
      <trkpt lat="47.18993" lon="-1.58099">
        <ele>51</ele>
        <time>2021-03-27T12:28:41.000Z</time>
      </trkpt>
      <trkpt lat="47.18988" lon="-1.58113">
        <ele>51</ele>
        <time>2021-03-27T12:28:43.000Z</time>
      </trkpt>
      <trkpt lat="47.18982" lon="-1.58128">
        <ele>51</ele>
        <time>2021-03-27T12:28:45.000Z</time>
      </trkpt>
      <trkpt lat="47.18977" lon="-1.58143">
        <ele>51</ele>
        <time>2021-03-27T12:28:47.000Z</time>
      </trkpt>
      <trkpt lat="47.18972" lon="-1.58158">
        <ele>51</ele>
        <time>2021-03-27T12:28:49.000Z</time>
      </trkpt>
      <trkpt lat="47.18967" lon="-1.58172">
        <ele>51</ele>
        <time>2021-03-27T12:28:51.000Z</time>
      </trkpt>
      <trkpt lat="47.18962" lon="-1.58187">
        <ele>51</ele>
        <time>2021-03-27T12:28:53.000Z</time>
      </trkpt>
      <trkpt lat="47.18957" lon="-1.58202">
        <ele>51</ele>
        <time>2021-03-27T12:28:55.000Z</time>
      </trkpt>
      <trkpt lat="47.18951" lon="-1.58216">
        <ele>51</ele>
        <time>2021-03-27T12:28:57.000Z</time>
      </trkpt>
      <trkpt lat="47.18946" lon="-1.5823">
        <ele>52</ele>
        <time>2021-03-27T12:28:59.000Z</time>
      </trkpt>
      <trkpt lat="47.18941" lon="-1.58245">
        <ele>52</ele>
        <time>2021-03-27T12:29:01.000Z</time>
      </trkpt>
      <trkpt lat="47.18936" lon="-1.5826">
        <ele>52</ele>
        <time>2021-03-27T12:29:03.000Z</time>
      </trkpt>
      <trkpt lat="47.1893" lon="-1.58275">
        <ele>52</ele>
        <time>2021-03-27T12:29:05.000Z</time>
      </trkpt>
      <trkpt lat="47.18925" lon="-1.5829">
        <ele>52</ele>
        <time>2021-03-27T12:29:07.000Z</time>
      </trkpt>
      <trkpt lat="47.18921" lon="-1.58305">
        <ele>51</ele>
        <time>2021-03-27T12:29:09.000Z</time>
      </trkpt>
      <trkpt lat="47.18915" lon="-1.58319">
        <ele>51</ele>
        <time>2021-03-27T12:29:11.000Z</time>
      </trkpt>
      <trkpt lat="47.1891" lon="-1.58334">
        <ele>51</ele>
        <time>2021-03-27T12:29:13.000Z</time>
      </trkpt>
      <trkpt lat="47.18904" lon="-1.58349">
        <ele>51</ele>
        <time>2021-03-27T12:29:15.000Z</time>
      </trkpt>
      <trkpt lat="47.18899" lon="-1.58363">
        <ele>51</ele>
        <time>2021-03-27T12:29:17.000Z</time>
      </trkpt>
      <trkpt lat="47.18894" lon="-1.58378">
        <ele>51</ele>
        <time>2021-03-27T12:29:19.000Z</time>
      </trkpt>
      <trkpt lat="47.18889" lon="-1.58394">
        <ele>51</ele>
        <time>2021-03-27T12:29:21.000Z</time>
      </trkpt>
      <trkpt lat="47.18884" lon="-1.58409">
        <ele>51</ele>
        <time>2021-03-27T12:29:23.000Z</time>
      </trkpt>
      <trkpt lat="47.18879" lon="-1.58424">
        <ele>51</ele>
        <time>2021-03-27T12:29:25.000Z</time>
      </trkpt>
      <trkpt lat="47.18874" lon="-1.58439">
        <ele>51</ele>
        <time>2021-03-27T12:29:27.000Z</time>
      </trkpt>
      <trkpt lat="47.1887" lon="-1.58454">
        <ele>51</ele>
        <time>2021-03-27T12:29:29.000Z</time>
      </trkpt>
      <trkpt lat="47.18866" lon="-1.58469">
        <ele>51</ele>
        <time>2021-03-27T12:29:31.000Z</time>
      </trkpt>
      <trkpt lat="47.18861" lon="-1.58484">
        <ele>51</ele>
        <time>2021-03-27T12:29:33.000Z</time>
      </trkpt>
      <trkpt lat="47.18857" lon="-1.585">
        <ele>51</ele>
        <time>2021-03-27T12:29:35.000Z</time>
      </trkpt>
      <trkpt lat="47.18852" lon="-1.58515">
        <ele>51</ele>
        <time>2021-03-27T12:29:37.000Z</time>
      </trkpt>
      <trkpt lat="47.18847" lon="-1.5853">
        <ele>51</ele>
        <time>2021-03-27T12:29:39.000Z</time>
      </trkpt>
      <trkpt lat="47.18844" lon="-1.58545">
        <ele>51</ele>
        <time>2021-03-27T12:29:41.000Z</time>
      </trkpt>
      <trkpt lat="47.1884" lon="-1.58561">
        <ele>51</ele>
        <time>2021-03-27T12:29:43.000Z</time>
      </trkpt>
      <trkpt lat="47.18836" lon="-1.58576">
        <ele>51</ele>
        <time>2021-03-27T12:29:45.000Z</time>
      </trkpt>
      <trkpt lat="47.18833" lon="-1.58592">
        <ele>52</ele>
        <time>2021-03-27T12:29:47.000Z</time>
      </trkpt>
      <trkpt lat="47.18829" lon="-1.58608">
        <ele>51</ele>
        <time>2021-03-27T12:29:49.000Z</time>
      </trkpt>
      <trkpt lat="47.18826" lon="-1.58622">
        <ele>51</ele>
        <time>2021-03-27T12:29:51.000Z</time>
      </trkpt>
      <trkpt lat="47.18823" lon="-1.58638">
        <ele>52</ele>
        <time>2021-03-27T12:29:53.000Z</time>
      </trkpt>
      <trkpt lat="47.18821" lon="-1.58654">
        <ele>52</ele>
        <time>2021-03-27T12:29:55.000Z</time>
      </trkpt>
      <trkpt lat="47.18818" lon="-1.58669">
        <ele>52</ele>
        <time>2021-03-27T12:29:57.000Z</time>
      </trkpt>
      <trkpt lat="47.18816" lon="-1.58683">
        <ele>52</ele>
        <time>2021-03-27T12:29:59.000Z</time>
      </trkpt>
      <trkpt lat="47.18815" lon="-1.58703">
        <ele>52</ele>
        <time>2021-03-27T12:30:02.000Z</time>
      </trkpt>
      <trkpt lat="47.1882" lon="-1.58716">
        <ele>52</ele>
        <time>2021-03-27T12:30:04.000Z</time>
      </trkpt>
      <trkpt lat="47.18827" lon="-1.5873">
        <ele>52</ele>
        <time>2021-03-27T12:30:06.000Z</time>
      </trkpt>
      <trkpt lat="47.1883" lon="-1.58748">
        <ele>52</ele>
        <time>2021-03-27T12:30:08.000Z</time>
      </trkpt>
      <trkpt lat="47.18828" lon="-1.58767">
        <ele>51</ele>
        <time>2021-03-27T12:30:10.000Z</time>
      </trkpt>
      <trkpt lat="47.18822" lon="-1.58784">
        <ele>51</ele>
        <time>2021-03-27T12:30:12.000Z</time>
      </trkpt>
      <trkpt lat="47.18812" lon="-1.58796">
        <ele>51</ele>
        <time>2021-03-27T12:30:14.000Z</time>
      </trkpt>
      <trkpt lat="47.188" lon="-1.58804">
        <ele>52</ele>
        <time>2021-03-27T12:30:16.000Z</time>
      </trkpt>
      <trkpt lat="47.18791" lon="-1.58818">
        <ele>52</ele>
        <time>2021-03-27T12:30:18.000Z</time>
      </trkpt>
      <trkpt lat="47.18788" lon="-1.58837">
        <ele>52</ele>
        <time>2021-03-27T12:30:20.000Z</time>
      </trkpt>
      <trkpt lat="47.18785" lon="-1.58856">
        <ele>52</ele>
        <time>2021-03-27T12:30:22.000Z</time>
      </trkpt>
      <trkpt lat="47.18781" lon="-1.58875">
        <ele>52</ele>
        <time>2021-03-27T12:30:24.000Z</time>
      </trkpt>
      <trkpt lat="47.18778" lon="-1.58893">
        <ele>52</ele>
        <time>2021-03-27T12:30:26.000Z</time>
      </trkpt>
      <trkpt lat="47.18775" lon="-1.58912">
        <ele>52</ele>
        <time>2021-03-27T12:30:28.000Z</time>
      </trkpt>
      <trkpt lat="47.18773" lon="-1.58931">
        <ele>52</ele>
        <time>2021-03-27T12:30:30.000Z</time>
      </trkpt>
      <trkpt lat="47.18771" lon="-1.58948">
        <ele>53</ele>
        <time>2021-03-27T12:30:32.000Z</time>
      </trkpt>
      <trkpt lat="47.18769" lon="-1.58965">
        <ele>53</ele>
        <time>2021-03-27T12:30:34.000Z</time>
      </trkpt>
      <trkpt lat="47.18768" lon="-1.58982">
        <ele>53</ele>
        <time>2021-03-27T12:30:36.000Z</time>
      </trkpt>
      <trkpt lat="47.18766" lon="-1.58999">
        <ele>53</ele>
        <time>2021-03-27T12:30:38.000Z</time>
      </trkpt>
      <trkpt lat="47.18764" lon="-1.59015">
        <ele>53</ele>
        <time>2021-03-27T12:30:40.000Z</time>
      </trkpt>
      <trkpt lat="47.18762" lon="-1.59032">
        <ele>54</ele>
        <time>2021-03-27T12:30:42.000Z</time>
      </trkpt>
      <trkpt lat="47.1876" lon="-1.59049">
        <ele>53</ele>
        <time>2021-03-27T12:30:44.000Z</time>
      </trkpt>
      <trkpt lat="47.18758" lon="-1.59066">
        <ele>54</ele>
        <time>2021-03-27T12:30:46.000Z</time>
      </trkpt>
      <trkpt lat="47.18756" lon="-1.59082">
        <ele>54</ele>
        <time>2021-03-27T12:30:48.000Z</time>
      </trkpt>
      <trkpt lat="47.18754" lon="-1.59099">
        <ele>54</ele>
        <time>2021-03-27T12:30:50.000Z</time>
      </trkpt>
      <trkpt lat="47.18753" lon="-1.59115">
        <ele>54</ele>
        <time>2021-03-27T12:30:52.000Z</time>
      </trkpt>
      <trkpt lat="47.1875" lon="-1.59132">
        <ele>54</ele>
        <time>2021-03-27T12:30:54.000Z</time>
      </trkpt>
      <trkpt lat="47.18748" lon="-1.59148">
        <ele>53</ele>
        <time>2021-03-27T12:30:56.000Z</time>
      </trkpt>
      <trkpt lat="47.18746" lon="-1.59165">
        <ele>53</ele>
        <time>2021-03-27T12:30:58.000Z</time>
      </trkpt>
      <trkpt lat="47.18745" lon="-1.59182">
        <ele>53</ele>
        <time>2021-03-27T12:31:00.000Z</time>
      </trkpt>
      <trkpt lat="47.18743" lon="-1.59198">
        <ele>53</ele>
        <time>2021-03-27T12:31:02.000Z</time>
      </trkpt>
      <trkpt lat="47.18741" lon="-1.59215">
        <ele>52</ele>
        <time>2021-03-27T12:31:04.000Z</time>
      </trkpt>
      <trkpt lat="47.1874" lon="-1.59231">
        <ele>52</ele>
        <time>2021-03-27T12:31:06.000Z</time>
      </trkpt>
      <trkpt lat="47.18738" lon="-1.59248">
        <ele>52</ele>
        <time>2021-03-27T12:31:08.000Z</time>
      </trkpt>
      <trkpt lat="47.18736" lon="-1.59264">
        <ele>52</ele>
        <time>2021-03-27T12:31:10.000Z</time>
      </trkpt>
      <trkpt lat="47.18734" lon="-1.59281">
        <ele>52</ele>
        <time>2021-03-27T12:31:12.000Z</time>
      </trkpt>
      <trkpt lat="47.18732" lon="-1.59297">
        <ele>51</ele>
        <time>2021-03-27T12:31:14.000Z</time>
      </trkpt>
      <trkpt lat="47.18731" lon="-1.59314">
        <ele>51</ele>
        <time>2021-03-27T12:31:16.000Z</time>
      </trkpt>
      <trkpt lat="47.18729" lon="-1.5933">
        <ele>51</ele>
        <time>2021-03-27T12:31:18.000Z</time>
      </trkpt>
      <trkpt lat="47.18727" lon="-1.59347">
        <ele>51</ele>
        <time>2021-03-27T12:31:20.000Z</time>
      </trkpt>
      <trkpt lat="47.18726" lon="-1.59364">
        <ele>51</ele>
        <time>2021-03-27T12:31:22.000Z</time>
      </trkpt>
      <trkpt lat="47.18723" lon="-1.59381">
        <ele>51</ele>
        <time>2021-03-27T12:31:24.000Z</time>
      </trkpt>
      <trkpt lat="47.18722" lon="-1.59397">
        <ele>52</ele>
        <time>2021-03-27T12:31:26.000Z</time>
      </trkpt>
      <trkpt lat="47.18721" lon="-1.59414">
        <ele>52</ele>
        <time>2021-03-27T12:31:28.000Z</time>
      </trkpt>
      <trkpt lat="47.18718" lon="-1.59431">
        <ele>52</ele>
        <time>2021-03-27T12:31:30.000Z</time>
      </trkpt>
      <trkpt lat="47.18717" lon="-1.59447">
        <ele>53</ele>
        <time>2021-03-27T12:31:32.000Z</time>
      </trkpt>
      <trkpt lat="47.18715" lon="-1.59463">
        <ele>52</ele>
        <time>2021-03-27T12:31:34.000Z</time>
      </trkpt>
      <trkpt lat="47.18713" lon="-1.59479">
        <ele>52</ele>
        <time>2021-03-27T12:31:36.000Z</time>
      </trkpt>
      <trkpt lat="47.18711" lon="-1.59495">
        <ele>52</ele>
        <time>2021-03-27T12:31:38.000Z</time>
      </trkpt>
      <trkpt lat="47.18709" lon="-1.59511">
        <ele>52</ele>
        <time>2021-03-27T12:31:40.000Z</time>
      </trkpt>
      <trkpt lat="47.18708" lon="-1.59527">
        <ele>52</ele>
        <time>2021-03-27T12:31:42.000Z</time>
      </trkpt>
      <trkpt lat="47.18706" lon="-1.59544">
        <ele>52</ele>
        <time>2021-03-27T12:31:44.000Z</time>
      </trkpt>
      <trkpt lat="47.18705" lon="-1.59559">
        <ele>53</ele>
        <time>2021-03-27T12:31:46.000Z</time>
      </trkpt>
      <trkpt lat="47.18703" lon="-1.59575">
        <ele>53</ele>
        <time>2021-03-27T12:31:48.000Z</time>
      </trkpt>
      <trkpt lat="47.18701" lon="-1.59591">
        <ele>53</ele>
        <time>2021-03-27T12:31:50.000Z</time>
      </trkpt>
      <trkpt lat="47.18699" lon="-1.59606">
        <ele>53</ele>
        <time>2021-03-27T12:31:52.000Z</time>
      </trkpt>
      <trkpt lat="47.18697" lon="-1.59623">
        <ele>53</ele>
        <time>2021-03-27T12:31:54.000Z</time>
      </trkpt>
      <trkpt lat="47.18695" lon="-1.59639">
        <ele>53</ele>
        <time>2021-03-27T12:31:56.000Z</time>
      </trkpt>
      <trkpt lat="47.18693" lon="-1.59655">
        <ele>52</ele>
        <time>2021-03-27T12:31:58.000Z</time>
      </trkpt>
      <trkpt lat="47.1869" lon="-1.5967">
        <ele>52</ele>
        <time>2021-03-27T12:32:00.000Z</time>
      </trkpt>
      <trkpt lat="47.18688" lon="-1.59686">
        <ele>52</ele>
        <time>2021-03-27T12:32:02.000Z</time>
      </trkpt>
      <trkpt lat="47.18686" lon="-1.59702">
        <ele>53</ele>
        <time>2021-03-27T12:32:04.000Z</time>
      </trkpt>
      <trkpt lat="47.18685" lon="-1.59718">
        <ele>53</ele>
        <time>2021-03-27T12:32:06.000Z</time>
      </trkpt>
      <trkpt lat="47.18684" lon="-1.59735">
        <ele>53</ele>
        <time>2021-03-27T12:32:08.000Z</time>
      </trkpt>
      <trkpt lat="47.18684" lon="-1.59754">
        <ele>53</ele>
        <time>2021-03-27T12:32:10.000Z</time>
      </trkpt>
      <trkpt lat="47.18684" lon="-1.59773">
        <ele>52</ele>
        <time>2021-03-27T12:32:12.000Z</time>
      </trkpt>
      <trkpt lat="47.18686" lon="-1.59793">
        <ele>52</ele>
        <time>2021-03-27T12:32:14.000Z</time>
      </trkpt>
      <trkpt lat="47.18685" lon="-1.59814">
        <ele>52</ele>
        <time>2021-03-27T12:32:16.000Z</time>
      </trkpt>
      <trkpt lat="47.18678" lon="-1.59831">
        <ele>52</ele>
        <time>2021-03-27T12:32:18.000Z</time>
      </trkpt>
      <trkpt lat="47.18667" lon="-1.59842">
        <ele>52</ele>
        <time>2021-03-27T12:32:20.000Z</time>
      </trkpt>
      <trkpt lat="47.18655" lon="-1.59845">
        <ele>52</ele>
        <time>2021-03-27T12:32:22.000Z</time>
      </trkpt>
      <trkpt lat="47.18643" lon="-1.59842">
        <ele>52</ele>
        <time>2021-03-27T12:32:24.000Z</time>
      </trkpt>
      <trkpt lat="47.18631" lon="-1.59833">
        <ele>52</ele>
        <time>2021-03-27T12:32:26.000Z</time>
      </trkpt>
      <trkpt lat="47.18619" lon="-1.59835">
        <ele>51</ele>
        <time>2021-03-27T12:32:28.000Z</time>
      </trkpt>
      <trkpt lat="47.18619" lon="-1.59848">
        <ele>51</ele>
        <time>2021-03-27T12:32:30.000Z</time>
      </trkpt>
      <trkpt lat="47.18625" lon="-1.59862">
        <ele>51</ele>
        <time>2021-03-27T12:32:32.000Z</time>
      </trkpt>
      <trkpt lat="47.18623" lon="-1.59879">
        <ele>51</ele>
        <time>2021-03-27T12:32:34.000Z</time>
      </trkpt>
      <trkpt lat="47.18619" lon="-1.59894">
        <ele>51</ele>
        <time>2021-03-27T12:32:36.000Z</time>
      </trkpt>
      <trkpt lat="47.18615" lon="-1.59911">
        <ele>50</ele>
        <time>2021-03-27T12:32:38.000Z</time>
      </trkpt>
      <trkpt lat="47.1861" lon="-1.59926">
        <ele>50</ele>
        <time>2021-03-27T12:32:40.000Z</time>
      </trkpt>
      <trkpt lat="47.18605" lon="-1.59941">
        <ele>50</ele>
        <time>2021-03-27T12:32:42.000Z</time>
      </trkpt>
      <trkpt lat="47.18601" lon="-1.59957">
        <ele>51</ele>
        <time>2021-03-27T12:32:44.000Z</time>
      </trkpt>
      <trkpt lat="47.18597" lon="-1.59972">
        <ele>50</ele>
        <time>2021-03-27T12:32:46.000Z</time>
      </trkpt>
      <trkpt lat="47.18592" lon="-1.59987">
        <ele>51</ele>
        <time>2021-03-27T12:32:48.000Z</time>
      </trkpt>
      <trkpt lat="47.18587" lon="-1.60003">
        <ele>51</ele>
        <time>2021-03-27T12:32:50.000Z</time>
      </trkpt>
      <trkpt lat="47.18583" lon="-1.60017">
        <ele>51</ele>
        <time>2021-03-27T12:32:52.000Z</time>
      </trkpt>
      <trkpt lat="47.18578" lon="-1.60032">
        <ele>51</ele>
        <time>2021-03-27T12:32:54.000Z</time>
      </trkpt>
      <trkpt lat="47.18572" lon="-1.60046">
        <ele>51</ele>
        <time>2021-03-27T12:32:56.000Z</time>
      </trkpt>
      <trkpt lat="47.18567" lon="-1.60061">
        <ele>52</ele>
        <time>2021-03-27T12:32:58.000Z</time>
      </trkpt>
      <trkpt lat="47.18561" lon="-1.60074">
        <ele>52</ele>
        <time>2021-03-27T12:33:00.000Z</time>
      </trkpt>
      <trkpt lat="47.18556" lon="-1.60089">
        <ele>51</ele>
        <time>2021-03-27T12:33:02.000Z</time>
      </trkpt>
      <trkpt lat="47.1855" lon="-1.60103">
        <ele>51</ele>
        <time>2021-03-27T12:33:04.000Z</time>
      </trkpt>
      <trkpt lat="47.18544" lon="-1.60117">
        <ele>52</ele>
        <time>2021-03-27T12:33:06.000Z</time>
      </trkpt>
      <trkpt lat="47.18538" lon="-1.60131">
        <ele>51</ele>
        <time>2021-03-27T12:33:08.000Z</time>
      </trkpt>
      <trkpt lat="47.18532" lon="-1.60145">
        <ele>51</ele>
        <time>2021-03-27T12:33:10.000Z</time>
      </trkpt>
      <trkpt lat="47.18525" lon="-1.60159">
        <ele>52</ele>
        <time>2021-03-27T12:33:12.000Z</time>
      </trkpt>
      <trkpt lat="47.18519" lon="-1.60172">
        <ele>52</ele>
        <time>2021-03-27T12:33:14.000Z</time>
      </trkpt>
      <trkpt lat="47.18512" lon="-1.60186">
        <ele>51</ele>
        <time>2021-03-27T12:33:16.000Z</time>
      </trkpt>
      <trkpt lat="47.18506" lon="-1.60199">
        <ele>52</ele>
        <time>2021-03-27T12:33:18.000Z</time>
      </trkpt>
      <trkpt lat="47.18499" lon="-1.60212">
        <ele>52</ele>
        <time>2021-03-27T12:33:20.000Z</time>
      </trkpt>
      <trkpt lat="47.18492" lon="-1.60225">
        <ele>52</ele>
        <time>2021-03-27T12:33:22.000Z</time>
      </trkpt>
      <trkpt lat="47.18486" lon="-1.60238">
        <ele>52</ele>
        <time>2021-03-27T12:33:24.000Z</time>
      </trkpt>
      <trkpt lat="47.18479" lon="-1.6025">
        <ele>52</ele>
        <time>2021-03-27T12:33:26.000Z</time>
      </trkpt>
      <trkpt lat="47.18473" lon="-1.60262">
        <ele>52</ele>
        <time>2021-03-27T12:33:28.000Z</time>
      </trkpt>
      <trkpt lat="47.18466" lon="-1.60274">
        <ele>52</ele>
        <time>2021-03-27T12:33:30.000Z</time>
      </trkpt>
      <trkpt lat="47.18459" lon="-1.60287">
        <ele>52</ele>
        <time>2021-03-27T12:33:32.000Z</time>
      </trkpt>
      <trkpt lat="47.18451" lon="-1.60299">
        <ele>52</ele>
        <time>2021-03-27T12:33:34.000Z</time>
      </trkpt>
      <trkpt lat="47.18444" lon="-1.60312">
        <ele>52</ele>
        <time>2021-03-27T12:33:36.000Z</time>
      </trkpt>
      <trkpt lat="47.18436" lon="-1.60325">
        <ele>52</ele>
        <time>2021-03-27T12:33:38.000Z</time>
      </trkpt>
      <trkpt lat="47.18429" lon="-1.60338">
        <ele>51</ele>
        <time>2021-03-27T12:33:40.000Z</time>
      </trkpt>
      <trkpt lat="47.1842" lon="-1.6035">
        <ele>52</ele>
        <time>2021-03-27T12:33:42.000Z</time>
      </trkpt>
      <trkpt lat="47.18411" lon="-1.60361">
        <ele>51</ele>
        <time>2021-03-27T12:33:44.000Z</time>
      </trkpt>
      <trkpt lat="47.18403" lon="-1.60373">
        <ele>51</ele>
        <time>2021-03-27T12:33:46.000Z</time>
      </trkpt>
      <trkpt lat="47.18394" lon="-1.60386">
        <ele>51</ele>
        <time>2021-03-27T12:33:48.000Z</time>
      </trkpt>
      <trkpt lat="47.18385" lon="-1.60398">
        <ele>51</ele>
        <time>2021-03-27T12:33:50.000Z</time>
      </trkpt>
      <trkpt lat="47.18375" lon="-1.6041">
        <ele>51</ele>
        <time>2021-03-27T12:33:52.000Z</time>
      </trkpt>
      <trkpt lat="47.18366" lon="-1.60421">
        <ele>51</ele>
        <time>2021-03-27T12:33:54.000Z</time>
      </trkpt>
      <trkpt lat="47.18357" lon="-1.60432">
        <ele>51</ele>
        <time>2021-03-27T12:33:56.000Z</time>
      </trkpt>
      <trkpt lat="47.18348" lon="-1.60443">
        <ele>50</ele>
        <time>2021-03-27T12:33:58.000Z</time>
      </trkpt>
      <trkpt lat="47.18338" lon="-1.60455">
        <ele>50</ele>
        <time>2021-03-27T12:34:00.000Z</time>
      </trkpt>
      <trkpt lat="47.18328" lon="-1.60467">
        <ele>50</ele>
        <time>2021-03-27T12:34:02.000Z</time>
      </trkpt>
      <trkpt lat="47.18319" lon="-1.60477">
        <ele>51</ele>
        <time>2021-03-27T12:34:04.000Z</time>
      </trkpt>
      <trkpt lat="47.1831" lon="-1.60487">
        <ele>51</ele>
        <time>2021-03-27T12:34:06.000Z</time>
      </trkpt>
      <trkpt lat="47.18301" lon="-1.60498">
        <ele>51</ele>
        <time>2021-03-27T12:34:08.000Z</time>
      </trkpt>
      <trkpt lat="47.18291" lon="-1.60508">
        <ele>51</ele>
        <time>2021-03-27T12:34:10.000Z</time>
      </trkpt>
      <trkpt lat="47.18282" lon="-1.60517">
        <ele>51</ele>
        <time>2021-03-27T12:34:12.000Z</time>
      </trkpt>
      <trkpt lat="47.18273" lon="-1.60527">
        <ele>51</ele>
        <time>2021-03-27T12:34:14.000Z</time>
      </trkpt>
      <trkpt lat="47.18263" lon="-1.60536">
        <ele>51</ele>
        <time>2021-03-27T12:34:16.000Z</time>
      </trkpt>
      <trkpt lat="47.18254" lon="-1.60545">
        <ele>51</ele>
        <time>2021-03-27T12:34:18.000Z</time>
      </trkpt>
      <trkpt lat="47.18244" lon="-1.60553">
        <ele>51</ele>
        <time>2021-03-27T12:34:20.000Z</time>
      </trkpt>
      <trkpt lat="47.18233" lon="-1.6056">
        <ele>51</ele>
        <time>2021-03-27T12:34:22.000Z</time>
      </trkpt>
      <trkpt lat="47.18223" lon="-1.60566">
        <ele>51</ele>
        <time>2021-03-27T12:34:24.000Z</time>
      </trkpt>
      <trkpt lat="47.18213" lon="-1.60571">
        <ele>51</ele>
        <time>2021-03-27T12:34:26.000Z</time>
      </trkpt>
      <trkpt lat="47.18204" lon="-1.60574">
        <ele>51</ele>
        <time>2021-03-27T12:34:28.000Z</time>
      </trkpt>
      <trkpt lat="47.18194" lon="-1.60582">
        <ele>51</ele>
        <time>2021-03-27T12:34:31.000Z</time>
      </trkpt>
      <trkpt lat="47.18187" lon="-1.60599">
        <ele>51</ele>
        <time>2021-03-27T12:34:34.000Z</time>
      </trkpt>
      <trkpt lat="47.18175" lon="-1.60603">
        <ele>51</ele>
        <time>2021-03-27T12:34:36.000Z</time>
      </trkpt>
      <trkpt lat="47.18162" lon="-1.60604">
        <ele>51</ele>
        <time>2021-03-27T12:34:38.000Z</time>
      </trkpt>
      <trkpt lat="47.1815" lon="-1.60604">
        <ele>51</ele>
        <time>2021-03-27T12:34:40.000Z</time>
      </trkpt>
      <trkpt lat="47.18138" lon="-1.60602">
        <ele>51</ele>
        <time>2021-03-27T12:34:42.000Z</time>
      </trkpt>
      <trkpt lat="47.18126" lon="-1.60598">
        <ele>52</ele>
        <time>2021-03-27T12:34:44.000Z</time>
      </trkpt>
      <trkpt lat="47.18114" lon="-1.60595">
        <ele>52</ele>
        <time>2021-03-27T12:34:46.000Z</time>
      </trkpt>
      <trkpt lat="47.18102" lon="-1.60591">
        <ele>51</ele>
        <time>2021-03-27T12:34:48.000Z</time>
      </trkpt>
      <trkpt lat="47.1809" lon="-1.60585">
        <ele>51</ele>
        <time>2021-03-27T12:34:50.000Z</time>
      </trkpt>
      <trkpt lat="47.1808" lon="-1.60579">
        <ele>51</ele>
        <time>2021-03-27T12:34:52.000Z</time>
      </trkpt>
      <trkpt lat="47.18068" lon="-1.60573">
        <ele>51</ele>
        <time>2021-03-27T12:34:54.000Z</time>
      </trkpt>
      <trkpt lat="47.18058" lon="-1.60567">
        <ele>52</ele>
        <time>2021-03-27T12:34:56.000Z</time>
      </trkpt>
      <trkpt lat="47.18047" lon="-1.6056">
        <ele>51</ele>
        <time>2021-03-27T12:34:58.000Z</time>
      </trkpt>
      <trkpt lat="47.18036" lon="-1.60556">
        <ele>52</ele>
        <time>2021-03-27T12:35:00.000Z</time>
      </trkpt>
      <trkpt lat="47.18025" lon="-1.60554">
        <ele>52</ele>
        <time>2021-03-27T12:35:02.000Z</time>
      </trkpt>
      <trkpt lat="47.18013" lon="-1.60554">
        <ele>51</ele>
        <time>2021-03-27T12:35:04.000Z</time>
      </trkpt>
      <trkpt lat="47.18002" lon="-1.60557">
        <ele>51</ele>
        <time>2021-03-27T12:35:06.000Z</time>
      </trkpt>
      <trkpt lat="47.17991" lon="-1.6056">
        <ele>51</ele>
        <time>2021-03-27T12:35:08.000Z</time>
      </trkpt>
      <trkpt lat="47.1798" lon="-1.60564">
        <ele>51</ele>
        <time>2021-03-27T12:35:10.000Z</time>
      </trkpt>
      <trkpt lat="47.17968" lon="-1.6057">
        <ele>51</ele>
        <time>2021-03-27T12:35:12.000Z</time>
      </trkpt>
      <trkpt lat="47.17957" lon="-1.60576">
        <ele>51</ele>
        <time>2021-03-27T12:35:14.000Z</time>
      </trkpt>
      <trkpt lat="47.17947" lon="-1.60581">
        <ele>51</ele>
        <time>2021-03-27T12:35:16.000Z</time>
      </trkpt>
      <trkpt lat="47.17936" lon="-1.60586">
        <ele>51</ele>
        <time>2021-03-27T12:35:18.000Z</time>
      </trkpt>
      <trkpt lat="47.17926" lon="-1.60588">
        <ele>52</ele>
        <time>2021-03-27T12:35:20.000Z</time>
      </trkpt>
      <trkpt lat="47.17916" lon="-1.60588">
        <ele>52</ele>
        <time>2021-03-27T12:35:22.000Z</time>
      </trkpt>
      <trkpt lat="47.17908" lon="-1.60595">
        <ele>51</ele>
        <time>2021-03-27T12:35:24.000Z</time>
      </trkpt>
      <trkpt lat="47.17904" lon="-1.60614">
        <ele>51</ele>
        <time>2021-03-27T12:35:26.000Z</time>
      </trkpt>
      <trkpt lat="47.17898" lon="-1.60633">
        <ele>49</ele>
        <time>2021-03-27T12:35:28.000Z</time>
      </trkpt>
      <trkpt lat="47.17892" lon="-1.60651">
        <ele>49</ele>
        <time>2021-03-27T12:35:30.000Z</time>
      </trkpt>
      <trkpt lat="47.17885" lon="-1.60668">
        <ele>49</ele>
        <time>2021-03-27T12:35:32.000Z</time>
      </trkpt>
      <trkpt lat="47.1788" lon="-1.60686">
        <ele>49</ele>
        <time>2021-03-27T12:35:34.000Z</time>
      </trkpt>
      <trkpt lat="47.17875" lon="-1.60703">
        <ele>49</ele>
        <time>2021-03-27T12:35:36.000Z</time>
      </trkpt>
      <trkpt lat="47.17871" lon="-1.60721">
        <ele>49</ele>
        <time>2021-03-27T12:35:38.000Z</time>
      </trkpt>
      <trkpt lat="47.17867" lon="-1.60737">
        <ele>49</ele>
        <time>2021-03-27T12:35:40.000Z</time>
      </trkpt>
      <trkpt lat="47.17864" lon="-1.60753">
        <ele>49</ele>
        <time>2021-03-27T12:35:42.000Z</time>
      </trkpt>
      <trkpt lat="47.1786" lon="-1.60769">
        <ele>50</ele>
        <time>2021-03-27T12:35:44.000Z</time>
      </trkpt>
      <trkpt lat="47.17857" lon="-1.60785">
        <ele>50</ele>
        <time>2021-03-27T12:35:46.000Z</time>
      </trkpt>
      <trkpt lat="47.17854" lon="-1.608">
        <ele>50</ele>
        <time>2021-03-27T12:35:48.000Z</time>
      </trkpt>
      <trkpt lat="47.1785" lon="-1.60815">
        <ele>50</ele>
        <time>2021-03-27T12:35:50.000Z</time>
      </trkpt>
      <trkpt lat="47.17845" lon="-1.60831">
        <ele>50</ele>
        <time>2021-03-27T12:35:52.000Z</time>
      </trkpt>
      <trkpt lat="47.1784" lon="-1.60845">
        <ele>49</ele>
        <time>2021-03-27T12:35:54.000Z</time>
      </trkpt>
      <trkpt lat="47.17833" lon="-1.60858">
        <ele>49</ele>
        <time>2021-03-27T12:35:56.000Z</time>
      </trkpt>
      <trkpt lat="47.17826" lon="-1.60871">
        <ele>49</ele>
        <time>2021-03-27T12:35:58.000Z</time>
      </trkpt>
      <trkpt lat="47.17817" lon="-1.60883">
        <ele>49</ele>
        <time>2021-03-27T12:36:00.000Z</time>
      </trkpt>
      <trkpt lat="47.17808" lon="-1.60893">
        <ele>49</ele>
        <time>2021-03-27T12:36:02.000Z</time>
      </trkpt>
      <trkpt lat="47.17798" lon="-1.60901">
        <ele>49</ele>
        <time>2021-03-27T12:36:04.000Z</time>
      </trkpt>
      <trkpt lat="47.17788" lon="-1.60908">
        <ele>49</ele>
        <time>2021-03-27T12:36:06.000Z</time>
      </trkpt>
      <trkpt lat="47.17778" lon="-1.60916">
        <ele>49</ele>
        <time>2021-03-27T12:36:08.000Z</time>
      </trkpt>
      <trkpt lat="47.17768" lon="-1.60924">
        <ele>50</ele>
        <time>2021-03-27T12:36:10.000Z</time>
      </trkpt>
      <trkpt lat="47.17759" lon="-1.60932">
        <ele>50</ele>
        <time>2021-03-27T12:36:12.000Z</time>
      </trkpt>
      <trkpt lat="47.17749" lon="-1.6094">
        <ele>49</ele>
        <time>2021-03-27T12:36:14.000Z</time>
      </trkpt>
      <trkpt lat="47.17739" lon="-1.60947">
        <ele>49</ele>
        <time>2021-03-27T12:36:16.000Z</time>
      </trkpt>
      <trkpt lat="47.17729" lon="-1.60954">
        <ele>50</ele>
        <time>2021-03-27T12:36:18.000Z</time>
      </trkpt>
      <trkpt lat="47.17719" lon="-1.60962">
        <ele>50</ele>
        <time>2021-03-27T12:36:20.000Z</time>
      </trkpt>
      <trkpt lat="47.17709" lon="-1.60968">
        <ele>50</ele>
        <time>2021-03-27T12:36:22.000Z</time>
      </trkpt>
      <trkpt lat="47.17698" lon="-1.60973">
        <ele>50</ele>
        <time>2021-03-27T12:36:24.000Z</time>
      </trkpt>
      <trkpt lat="47.17686" lon="-1.60974">
        <ele>50</ele>
        <time>2021-03-27T12:36:26.000Z</time>
      </trkpt>
      <trkpt lat="47.17674" lon="-1.60972">
        <ele>49</ele>
        <time>2021-03-27T12:36:28.000Z</time>
      </trkpt>
      <trkpt lat="47.17661" lon="-1.60973">
        <ele>49</ele>
        <time>2021-03-27T12:36:30.000Z</time>
      </trkpt>
      <trkpt lat="47.1765" lon="-1.60981">
        <ele>49</ele>
        <time>2021-03-27T12:36:32.000Z</time>
      </trkpt>
      <trkpt lat="47.1764" lon="-1.6099">
        <ele>49</ele>
        <time>2021-03-27T12:36:34.000Z</time>
      </trkpt>
      <trkpt lat="47.1763" lon="-1.60999">
        <ele>48</ele>
        <time>2021-03-27T12:36:36.000Z</time>
      </trkpt>
      <trkpt lat="47.1762" lon="-1.61008">
        <ele>49</ele>
        <time>2021-03-27T12:36:38.000Z</time>
      </trkpt>
      <trkpt lat="47.1761" lon="-1.61017">
        <ele>49</ele>
        <time>2021-03-27T12:36:40.000Z</time>
      </trkpt>
      <trkpt lat="47.176" lon="-1.61025">
        <ele>48</ele>
        <time>2021-03-27T12:36:42.000Z</time>
      </trkpt>
      <trkpt lat="47.17591" lon="-1.61034">
        <ele>48</ele>
        <time>2021-03-27T12:36:44.000Z</time>
      </trkpt>
      <trkpt lat="47.17581" lon="-1.61042">
        <ele>48</ele>
        <time>2021-03-27T12:36:46.000Z</time>
      </trkpt>
      <trkpt lat="47.17571" lon="-1.61051">
        <ele>48</ele>
        <time>2021-03-27T12:36:48.000Z</time>
      </trkpt>
      <trkpt lat="47.17561" lon="-1.61059">
        <ele>48</ele>
        <time>2021-03-27T12:36:50.000Z</time>
      </trkpt>
      <trkpt lat="47.17551" lon="-1.61068">
        <ele>48</ele>
        <time>2021-03-27T12:36:52.000Z</time>
      </trkpt>
      <trkpt lat="47.17542" lon="-1.61076">
        <ele>48</ele>
        <time>2021-03-27T12:36:54.000Z</time>
      </trkpt>
      <trkpt lat="47.17531" lon="-1.61085">
        <ele>48</ele>
        <time>2021-03-27T12:36:56.000Z</time>
      </trkpt>
      <trkpt lat="47.17522" lon="-1.61094">
        <ele>49</ele>
        <time>2021-03-27T12:36:58.000Z</time>
      </trkpt>
      <trkpt lat="47.17512" lon="-1.61101">
        <ele>49</ele>
        <time>2021-03-27T12:37:00.000Z</time>
      </trkpt>
      <trkpt lat="47.17501" lon="-1.61104">
        <ele>49</ele>
        <time>2021-03-27T12:37:02.000Z</time>
      </trkpt>
      <trkpt lat="47.1749" lon="-1.61105">
        <ele>49</ele>
        <time>2021-03-27T12:37:04.000Z</time>
      </trkpt>
      <trkpt lat="47.17479" lon="-1.61103">
        <ele>49</ele>
        <time>2021-03-27T12:37:06.000Z</time>
      </trkpt>
      <trkpt lat="47.17469" lon="-1.61096">
        <ele>50</ele>
        <time>2021-03-27T12:37:08.000Z</time>
      </trkpt>
      <trkpt lat="47.1746" lon="-1.61088">
        <ele>50</ele>
        <time>2021-03-27T12:37:10.000Z</time>
      </trkpt>
      <trkpt lat="47.17451" lon="-1.61077">
        <ele>51</ele>
        <time>2021-03-27T12:37:12.000Z</time>
      </trkpt>
      <trkpt lat="47.17444" lon="-1.61064">
        <ele>51</ele>
        <time>2021-03-27T12:37:14.000Z</time>
      </trkpt>
      <trkpt lat="47.17438" lon="-1.61051">
        <ele>52</ele>
        <time>2021-03-27T12:37:16.000Z</time>
      </trkpt>
      <trkpt lat="47.17434" lon="-1.61038">
        <ele>52</ele>
        <time>2021-03-27T12:37:18.000Z</time>
      </trkpt>
      <trkpt lat="47.17429" lon="-1.61021">
        <ele>53</ele>
        <time>2021-03-27T12:37:21.000Z</time>
      </trkpt>
      <trkpt lat="47.17424" lon="-1.61036">
        <ele>53</ele>
        <time>2021-03-27T12:37:26.000Z</time>
      </trkpt>
      <trkpt lat="47.17427" lon="-1.6105">
        <ele>54</ele>
        <time>2021-03-27T12:37:28.000Z</time>
      </trkpt>
      <trkpt lat="47.17431" lon="-1.61063">
        <ele>54</ele>
        <time>2021-03-27T12:37:30.000Z</time>
      </trkpt>
      <trkpt lat="47.17437" lon="-1.61076">
        <ele>55</ele>
        <time>2021-03-27T12:37:32.000Z</time>
      </trkpt>
      <trkpt lat="47.17443" lon="-1.61089">
        <ele>55</ele>
        <time>2021-03-27T12:37:34.000Z</time>
      </trkpt>
      <trkpt lat="47.17448" lon="-1.61102">
        <ele>55</ele>
        <time>2021-03-27T12:37:36.000Z</time>
      </trkpt>
      <trkpt lat="47.17452" lon="-1.61114">
        <ele>56</ele>
        <time>2021-03-27T12:37:38.000Z</time>
      </trkpt>
      <trkpt lat="47.1746" lon="-1.61131">
        <ele>57</ele>
        <time>2021-03-27T12:37:41.000Z</time>
      </trkpt>
      <trkpt lat="47.17464" lon="-1.61142">
        <ele>57</ele>
        <time>2021-03-27T12:37:43.000Z</time>
      </trkpt>
      <trkpt lat="47.17469" lon="-1.61154">
        <ele>58</ele>
        <time>2021-03-27T12:37:45.000Z</time>
      </trkpt>
      <trkpt lat="47.17474" lon="-1.61166">
        <ele>58</ele>
        <time>2021-03-27T12:37:47.000Z</time>
      </trkpt>
      <trkpt lat="47.17479" lon="-1.61179">
        <ele>58</ele>
        <time>2021-03-27T12:37:49.000Z</time>
      </trkpt>
      <trkpt lat="47.17483" lon="-1.61191">
        <ele>58</ele>
        <time>2021-03-27T12:37:51.000Z</time>
      </trkpt>
      <trkpt lat="47.17488" lon="-1.61204">
        <ele>58</ele>
        <time>2021-03-27T12:37:53.000Z</time>
      </trkpt>
      <trkpt lat="47.17493" lon="-1.61216">
        <ele>58</ele>
        <time>2021-03-27T12:37:55.000Z</time>
      </trkpt>
      <trkpt lat="47.17498" lon="-1.61227">
        <ele>59</ele>
        <time>2021-03-27T12:37:57.000Z</time>
      </trkpt>
      <trkpt lat="47.17503" lon="-1.61239">
        <ele>59</ele>
        <time>2021-03-27T12:37:59.000Z</time>
      </trkpt>
      <trkpt lat="47.1751" lon="-1.6125">
        <ele>59</ele>
        <time>2021-03-27T12:38:01.000Z</time>
      </trkpt>
      <trkpt lat="47.17516" lon="-1.61261">
        <ele>59</ele>
        <time>2021-03-27T12:38:03.000Z</time>
      </trkpt>
      <trkpt lat="47.17523" lon="-1.61272">
        <ele>59</ele>
        <time>2021-03-27T12:38:05.000Z</time>
      </trkpt>
      <trkpt lat="47.17531" lon="-1.61281">
        <ele>59</ele>
        <time>2021-03-27T12:38:07.000Z</time>
      </trkpt>
      <trkpt lat="47.1754" lon="-1.61289">
        <ele>60</ele>
        <time>2021-03-27T12:38:09.000Z</time>
      </trkpt>
      <trkpt lat="47.1755" lon="-1.61295">
        <ele>60</ele>
        <time>2021-03-27T12:38:11.000Z</time>
      </trkpt>
      <trkpt lat="47.17559" lon="-1.61305">
        <ele>60</ele>
        <time>2021-03-27T12:38:13.000Z</time>
      </trkpt>
      <trkpt lat="47.17562" lon="-1.61323">
        <ele>60</ele>
        <time>2021-03-27T12:38:15.000Z</time>
      </trkpt>
      <trkpt lat="47.17557" lon="-1.61341">
        <ele>59</ele>
        <time>2021-03-27T12:38:17.000Z</time>
      </trkpt>
      <trkpt lat="47.17549" lon="-1.61354">
        <ele>58</ele>
        <time>2021-03-27T12:38:19.000Z</time>
      </trkpt>
      <trkpt lat="47.17539" lon="-1.61362">
        <ele>58</ele>
        <time>2021-03-27T12:38:21.000Z</time>
      </trkpt>
      <trkpt lat="47.17532" lon="-1.61375">
        <ele>58</ele>
        <time>2021-03-27T12:38:23.000Z</time>
      </trkpt>
      <trkpt lat="47.17528" lon="-1.6139">
        <ele>58</ele>
        <time>2021-03-27T12:38:25.000Z</time>
      </trkpt>
      <trkpt lat="47.17524" lon="-1.61406">
        <ele>58</ele>
        <time>2021-03-27T12:38:27.000Z</time>
      </trkpt>
      <trkpt lat="47.17521" lon="-1.61421">
        <ele>59</ele>
        <time>2021-03-27T12:38:29.000Z</time>
      </trkpt>
      <trkpt lat="47.17517" lon="-1.61436">
        <ele>59</ele>
        <time>2021-03-27T12:38:31.000Z</time>
      </trkpt>
      <trkpt lat="47.17513" lon="-1.61451">
        <ele>60</ele>
        <time>2021-03-27T12:38:33.000Z</time>
      </trkpt>
      <trkpt lat="47.17506" lon="-1.61462">
        <ele>61</ele>
        <time>2021-03-27T12:38:35.000Z</time>
      </trkpt>
      <trkpt lat="47.17495" lon="-1.61467">
        <ele>62</ele>
        <time>2021-03-27T12:38:37.000Z</time>
      </trkpt>
      <trkpt lat="47.17484" lon="-1.61471">
        <ele>62</ele>
        <time>2021-03-27T12:38:39.000Z</time>
      </trkpt>
      <trkpt lat="47.17474" lon="-1.61475">
        <ele>62</ele>
        <time>2021-03-27T12:38:41.000Z</time>
      </trkpt>
      <trkpt lat="47.17464" lon="-1.61478">
        <ele>62</ele>
        <time>2021-03-27T12:38:43.000Z</time>
      </trkpt>
      <trkpt lat="47.17455" lon="-1.61483">
        <ele>62</ele>
        <time>2021-03-27T12:38:45.000Z</time>
      </trkpt>
      <trkpt lat="47.17447" lon="-1.61488">
        <ele>63</ele>
        <time>2021-03-27T12:38:47.000Z</time>
      </trkpt>
      <trkpt lat="47.17438" lon="-1.61493">
        <ele>63</ele>
        <time>2021-03-27T12:38:49.000Z</time>
      </trkpt>
      <trkpt lat="47.17429" lon="-1.61499">
        <ele>64</ele>
        <time>2021-03-27T12:38:51.000Z</time>
      </trkpt>
      <trkpt lat="47.1742" lon="-1.61505">
        <ele>64</ele>
        <time>2021-03-27T12:38:53.000Z</time>
      </trkpt>
      <trkpt lat="47.17411" lon="-1.61512">
        <ele>64</ele>
        <time>2021-03-27T12:38:55.000Z</time>
      </trkpt>
      <trkpt lat="47.17402" lon="-1.61519">
        <ele>65</ele>
        <time>2021-03-27T12:38:57.000Z</time>
      </trkpt>
      <trkpt lat="47.17393" lon="-1.61526">
        <ele>65</ele>
        <time>2021-03-27T12:38:59.000Z</time>
      </trkpt>
      <trkpt lat="47.17385" lon="-1.61533">
        <ele>65</ele>
        <time>2021-03-27T12:39:01.000Z</time>
      </trkpt>
      <trkpt lat="47.17376" lon="-1.61541">
        <ele>66</ele>
        <time>2021-03-27T12:39:03.000Z</time>
      </trkpt>
      <trkpt lat="47.17368" lon="-1.61548">
        <ele>66</ele>
        <time>2021-03-27T12:39:05.000Z</time>
      </trkpt>
      <trkpt lat="47.1736" lon="-1.61557">
        <ele>66</ele>
        <time>2021-03-27T12:39:07.000Z</time>
      </trkpt>
      <trkpt lat="47.17352" lon="-1.61567">
        <ele>67</ele>
        <time>2021-03-27T12:39:09.000Z</time>
      </trkpt>
      <trkpt lat="47.17345" lon="-1.61577">
        <ele>67</ele>
        <time>2021-03-27T12:39:11.000Z</time>
      </trkpt>
      <trkpt lat="47.17337" lon="-1.61587">
        <ele>67</ele>
        <time>2021-03-27T12:39:13.000Z</time>
      </trkpt>
      <trkpt lat="47.17329" lon="-1.61596">
        <ele>67</ele>
        <time>2021-03-27T12:39:15.000Z</time>
      </trkpt>
      <trkpt lat="47.17321" lon="-1.61606">
        <ele>67</ele>
        <time>2021-03-27T12:39:17.000Z</time>
      </trkpt>
      <trkpt lat="47.17313" lon="-1.61618">
        <ele>67</ele>
        <time>2021-03-27T12:39:19.000Z</time>
      </trkpt>
      <trkpt lat="47.17306" lon="-1.61629">
        <ele>67</ele>
        <time>2021-03-27T12:39:21.000Z</time>
      </trkpt>
      <trkpt lat="47.17298" lon="-1.61642">
        <ele>67</ele>
        <time>2021-03-27T12:39:23.000Z</time>
      </trkpt>
      <trkpt lat="47.17291" lon="-1.61654">
        <ele>67</ele>
        <time>2021-03-27T12:39:25.000Z</time>
      </trkpt>
      <trkpt lat="47.17285" lon="-1.61667">
        <ele>67</ele>
        <time>2021-03-27T12:39:27.000Z</time>
      </trkpt>
      <trkpt lat="47.17278" lon="-1.6168">
        <ele>67</ele>
        <time>2021-03-27T12:39:29.000Z</time>
      </trkpt>
      <trkpt lat="47.17272" lon="-1.61692">
        <ele>67</ele>
        <time>2021-03-27T12:39:31.000Z</time>
      </trkpt>
      <trkpt lat="47.17266" lon="-1.61704">
        <ele>67</ele>
        <time>2021-03-27T12:39:33.000Z</time>
      </trkpt>
      <trkpt lat="47.1726" lon="-1.61716">
        <ele>66</ele>
        <time>2021-03-27T12:39:35.000Z</time>
      </trkpt>
      <trkpt lat="47.17254" lon="-1.61728">
        <ele>66</ele>
        <time>2021-03-27T12:39:37.000Z</time>
      </trkpt>
      <trkpt lat="47.17249" lon="-1.61741">
        <ele>67</ele>
        <time>2021-03-27T12:39:39.000Z</time>
      </trkpt>
      <trkpt lat="47.17246" lon="-1.61755">
        <ele>67</ele>
        <time>2021-03-27T12:39:41.000Z</time>
      </trkpt>
      <trkpt lat="47.17245" lon="-1.6177">
        <ele>66</ele>
        <time>2021-03-27T12:39:43.000Z</time>
      </trkpt>
      <trkpt lat="47.17239" lon="-1.61782">
        <ele>66</ele>
        <time>2021-03-27T12:39:45.000Z</time>
      </trkpt>
      <trkpt lat="47.1723" lon="-1.61789">
        <ele>66</ele>
        <time>2021-03-27T12:39:47.000Z</time>
      </trkpt>
      <trkpt lat="47.17221" lon="-1.61797">
        <ele>65</ele>
        <time>2021-03-27T12:39:49.000Z</time>
      </trkpt>
      <trkpt lat="47.17212" lon="-1.61805">
        <ele>65</ele>
        <time>2021-03-27T12:39:51.000Z</time>
      </trkpt>
      <trkpt lat="47.17204" lon="-1.61812">
        <ele>65</ele>
        <time>2021-03-27T12:39:53.000Z</time>
      </trkpt>
      <trkpt lat="47.17195" lon="-1.61819">
        <ele>65</ele>
        <time>2021-03-27T12:39:55.000Z</time>
      </trkpt>
      <trkpt lat="47.17188" lon="-1.61827">
        <ele>66</ele>
        <time>2021-03-27T12:39:57.000Z</time>
      </trkpt>
      <trkpt lat="47.17179" lon="-1.61835">
        <ele>66</ele>
        <time>2021-03-27T12:39:59.000Z</time>
      </trkpt>
      <trkpt lat="47.17171" lon="-1.61844">
        <ele>66</ele>
        <time>2021-03-27T12:40:01.000Z</time>
      </trkpt>
      <trkpt lat="47.17162" lon="-1.61852">
        <ele>66</ele>
        <time>2021-03-27T12:40:03.000Z</time>
      </trkpt>
      <trkpt lat="47.17154" lon="-1.61859">
        <ele>66</ele>
        <time>2021-03-27T12:40:05.000Z</time>
      </trkpt>
      <trkpt lat="47.17145" lon="-1.61867">
        <ele>66</ele>
        <time>2021-03-27T12:40:07.000Z</time>
      </trkpt>
      <trkpt lat="47.17136" lon="-1.61875">
        <ele>66</ele>
        <time>2021-03-27T12:40:09.000Z</time>
      </trkpt>
      <trkpt lat="47.17127" lon="-1.61884">
        <ele>65</ele>
        <time>2021-03-27T12:40:11.000Z</time>
      </trkpt>
      <trkpt lat="47.17119" lon="-1.61892">
        <ele>65</ele>
        <time>2021-03-27T12:40:13.000Z</time>
      </trkpt>
      <trkpt lat="47.1711" lon="-1.61901">
        <ele>65</ele>
        <time>2021-03-27T12:40:15.000Z</time>
      </trkpt>
      <trkpt lat="47.17102" lon="-1.6191">
        <ele>65</ele>
        <time>2021-03-27T12:40:17.000Z</time>
      </trkpt>
      <trkpt lat="47.17093" lon="-1.61918">
        <ele>65</ele>
        <time>2021-03-27T12:40:19.000Z</time>
      </trkpt>
      <trkpt lat="47.17085" lon="-1.61926">
        <ele>65</ele>
        <time>2021-03-27T12:40:21.000Z</time>
      </trkpt>
      <trkpt lat="47.17077" lon="-1.61934">
        <ele>65</ele>
        <time>2021-03-27T12:40:23.000Z</time>
      </trkpt>
      <trkpt lat="47.17069" lon="-1.61943">
        <ele>65</ele>
        <time>2021-03-27T12:40:25.000Z</time>
      </trkpt>
      <trkpt lat="47.17061" lon="-1.61953">
        <ele>65</ele>
        <time>2021-03-27T12:40:27.000Z</time>
      </trkpt>
      <trkpt lat="47.17053" lon="-1.61963">
        <ele>66</ele>
        <time>2021-03-27T12:40:29.000Z</time>
      </trkpt>
      <trkpt lat="47.17045" lon="-1.61974">
        <ele>66</ele>
        <time>2021-03-27T12:40:31.000Z</time>
      </trkpt>
      <trkpt lat="47.17038" lon="-1.61985">
        <ele>65</ele>
        <time>2021-03-27T12:40:33.000Z</time>
      </trkpt>
      <trkpt lat="47.1703" lon="-1.61995">
        <ele>66</ele>
        <time>2021-03-27T12:40:35.000Z</time>
      </trkpt>
      <trkpt lat="47.17023" lon="-1.62006">
        <ele>66</ele>
        <time>2021-03-27T12:40:37.000Z</time>
      </trkpt>
      <trkpt lat="47.17015" lon="-1.62018">
        <ele>66</ele>
        <time>2021-03-27T12:40:39.000Z</time>
      </trkpt>
      <trkpt lat="47.17008" lon="-1.62029">
        <ele>66</ele>
        <time>2021-03-27T12:40:41.000Z</time>
      </trkpt>
      <trkpt lat="47.17001" lon="-1.62041">
        <ele>65</ele>
        <time>2021-03-27T12:40:43.000Z</time>
      </trkpt>
      <trkpt lat="47.16995" lon="-1.62053">
        <ele>65</ele>
        <time>2021-03-27T12:40:45.000Z</time>
      </trkpt>
      <trkpt lat="47.16988" lon="-1.62065">
        <ele>66</ele>
        <time>2021-03-27T12:40:47.000Z</time>
      </trkpt>
      <trkpt lat="47.16981" lon="-1.62077">
        <ele>66</ele>
        <time>2021-03-27T12:40:49.000Z</time>
      </trkpt>
      <trkpt lat="47.16974" lon="-1.62089">
        <ele>66</ele>
        <time>2021-03-27T12:40:51.000Z</time>
      </trkpt>
      <trkpt lat="47.16967" lon="-1.621">
        <ele>66</ele>
        <time>2021-03-27T12:40:53.000Z</time>
      </trkpt>
      <trkpt lat="47.16961" lon="-1.62112">
        <ele>66</ele>
        <time>2021-03-27T12:40:55.000Z</time>
      </trkpt>
      <trkpt lat="47.16955" lon="-1.62124">
        <ele>66</ele>
        <time>2021-03-27T12:40:57.000Z</time>
      </trkpt>
      <trkpt lat="47.16949" lon="-1.62136">
        <ele>66</ele>
        <time>2021-03-27T12:40:59.000Z</time>
      </trkpt>
      <trkpt lat="47.16943" lon="-1.62149">
        <ele>66</ele>
        <time>2021-03-27T12:41:01.000Z</time>
      </trkpt>
      <trkpt lat="47.16937" lon="-1.62161">
        <ele>66</ele>
        <time>2021-03-27T12:41:03.000Z</time>
      </trkpt>
      <trkpt lat="47.16931" lon="-1.62174">
        <ele>66</ele>
        <time>2021-03-27T12:41:05.000Z</time>
      </trkpt>
      <trkpt lat="47.16925" lon="-1.62185">
        <ele>66</ele>
        <time>2021-03-27T12:41:07.000Z</time>
      </trkpt>
      <trkpt lat="47.16918" lon="-1.62197">
        <ele>66</ele>
        <time>2021-03-27T12:41:09.000Z</time>
      </trkpt>
      <trkpt lat="47.16911" lon="-1.62209">
        <ele>66</ele>
        <time>2021-03-27T12:41:11.000Z</time>
      </trkpt>
      <trkpt lat="47.16903" lon="-1.6222">
        <ele>66</ele>
        <time>2021-03-27T12:41:13.000Z</time>
      </trkpt>
      <trkpt lat="47.16895" lon="-1.62231">
        <ele>66</ele>
        <time>2021-03-27T12:41:15.000Z</time>
      </trkpt>
      <trkpt lat="47.16887" lon="-1.62241">
        <ele>66</ele>
        <time>2021-03-27T12:41:17.000Z</time>
      </trkpt>
      <trkpt lat="47.16879" lon="-1.62251">
        <ele>67</ele>
        <time>2021-03-27T12:41:19.000Z</time>
      </trkpt>
      <trkpt lat="47.16871" lon="-1.6226">
        <ele>67</ele>
        <time>2021-03-27T12:41:21.000Z</time>
      </trkpt>
      <trkpt lat="47.16863" lon="-1.6227">
        <ele>66</ele>
        <time>2021-03-27T12:41:23.000Z</time>
      </trkpt>
      <trkpt lat="47.16855" lon="-1.6228">
        <ele>66</ele>
        <time>2021-03-27T12:41:25.000Z</time>
      </trkpt>
      <trkpt lat="47.16847" lon="-1.6229">
        <ele>66</ele>
        <time>2021-03-27T12:41:27.000Z</time>
      </trkpt>
      <trkpt lat="47.16839" lon="-1.623">
        <ele>66</ele>
        <time>2021-03-27T12:41:29.000Z</time>
      </trkpt>
      <trkpt lat="47.1683" lon="-1.62309">
        <ele>67</ele>
        <time>2021-03-27T12:41:31.000Z</time>
      </trkpt>
      <trkpt lat="47.16821" lon="-1.62316">
        <ele>67</ele>
        <time>2021-03-27T12:41:33.000Z</time>
      </trkpt>
      <trkpt lat="47.16812" lon="-1.62323">
        <ele>67</ele>
        <time>2021-03-27T12:41:35.000Z</time>
      </trkpt>
      <trkpt lat="47.16802" lon="-1.62329">
        <ele>67</ele>
        <time>2021-03-27T12:41:37.000Z</time>
      </trkpt>
      <trkpt lat="47.16792" lon="-1.62334">
        <ele>66</ele>
        <time>2021-03-27T12:41:39.000Z</time>
      </trkpt>
      <trkpt lat="47.16782" lon="-1.62339">
        <ele>66</ele>
        <time>2021-03-27T12:41:41.000Z</time>
      </trkpt>
      <trkpt lat="47.16772" lon="-1.62345">
        <ele>66</ele>
        <time>2021-03-27T12:41:43.000Z</time>
      </trkpt>
      <trkpt lat="47.16762" lon="-1.62353">
        <ele>66</ele>
        <time>2021-03-27T12:41:45.000Z</time>
      </trkpt>
      <trkpt lat="47.16752" lon="-1.62361">
        <ele>66</ele>
        <time>2021-03-27T12:41:47.000Z</time>
      </trkpt>
      <trkpt lat="47.16743" lon="-1.62373">
        <ele>65</ele>
        <time>2021-03-27T12:41:49.000Z</time>
      </trkpt>
      <trkpt lat="47.16737" lon="-1.62386">
        <ele>65</ele>
        <time>2021-03-27T12:41:51.000Z</time>
      </trkpt>
      <trkpt lat="47.16733" lon="-1.62401">
        <ele>65</ele>
        <time>2021-03-27T12:41:53.000Z</time>
      </trkpt>
      <trkpt lat="47.1673" lon="-1.62416">
        <ele>65</ele>
        <time>2021-03-27T12:41:55.000Z</time>
      </trkpt>
      <trkpt lat="47.16728" lon="-1.62431">
        <ele>65</ele>
        <time>2021-03-27T12:41:57.000Z</time>
      </trkpt>
      <trkpt lat="47.16725" lon="-1.62445">
        <ele>65</ele>
        <time>2021-03-27T12:41:59.000Z</time>
      </trkpt>
      <trkpt lat="47.1672" lon="-1.62458">
        <ele>65</ele>
        <time>2021-03-27T12:42:01.000Z</time>
      </trkpt>
      <trkpt lat="47.16718" lon="-1.62473">
        <ele>64</ele>
        <time>2021-03-27T12:42:03.000Z</time>
      </trkpt>
      <trkpt lat="47.16717" lon="-1.62488">
        <ele>64</ele>
        <time>2021-03-27T12:42:05.000Z</time>
      </trkpt>
      <trkpt lat="47.16727" lon="-1.62499">
        <ele>64</ele>
        <time>2021-03-27T12:42:08.000Z</time>
      </trkpt>
      <trkpt lat="47.16737" lon="-1.62503">
        <ele>64</ele>
        <time>2021-03-27T12:42:10.000Z</time>
      </trkpt>
      <trkpt lat="47.16748" lon="-1.62507">
        <ele>65</ele>
        <time>2021-03-27T12:42:12.000Z</time>
      </trkpt>
      <trkpt lat="47.16758" lon="-1.62512">
        <ele>65</ele>
        <time>2021-03-27T12:42:14.000Z</time>
      </trkpt>
      <trkpt lat="47.16768" lon="-1.62518">
        <ele>66</ele>
        <time>2021-03-27T12:42:16.000Z</time>
      </trkpt>
      <trkpt lat="47.16778" lon="-1.62525">
        <ele>66</ele>
        <time>2021-03-27T12:42:18.000Z</time>
      </trkpt>
      <trkpt lat="47.16788" lon="-1.62531">
        <ele>66</ele>
        <time>2021-03-27T12:42:20.000Z</time>
      </trkpt>
      <trkpt lat="47.16797" lon="-1.62538">
        <ele>66</ele>
        <time>2021-03-27T12:42:22.000Z</time>
      </trkpt>
      <trkpt lat="47.16807" lon="-1.62544">
        <ele>66</ele>
        <time>2021-03-27T12:42:24.000Z</time>
      </trkpt>
      <trkpt lat="47.16817" lon="-1.62552">
        <ele>66</ele>
        <time>2021-03-27T12:42:26.000Z</time>
      </trkpt>
      <trkpt lat="47.16825" lon="-1.62562">
        <ele>66</ele>
        <time>2021-03-27T12:42:28.000Z</time>
      </trkpt>
      <trkpt lat="47.16832" lon="-1.62575">
        <ele>66</ele>
        <time>2021-03-27T12:42:30.000Z</time>
      </trkpt>
      <trkpt lat="47.1683" lon="-1.62589">
        <ele>66</ele>
        <time>2021-03-27T12:42:32.000Z</time>
      </trkpt>
      <trkpt lat="47.16824" lon="-1.626">
        <ele>67</ele>
        <time>2021-03-27T12:42:34.000Z</time>
      </trkpt>
      <trkpt lat="47.16817" lon="-1.62612">
        <ele>67</ele>
        <time>2021-03-27T12:42:36.000Z</time>
      </trkpt>
      <trkpt lat="47.16811" lon="-1.62623">
        <ele>67</ele>
        <time>2021-03-27T12:42:38.000Z</time>
      </trkpt>
      <trkpt lat="47.16803" lon="-1.62634">
        <ele>66</ele>
        <time>2021-03-27T12:42:40.000Z</time>
      </trkpt>
      <trkpt lat="47.16797" lon="-1.62645">
        <ele>66</ele>
        <time>2021-03-27T12:42:42.000Z</time>
      </trkpt>
      <trkpt lat="47.16789" lon="-1.62659">
        <ele>66</ele>
        <time>2021-03-27T12:42:45.000Z</time>
      </trkpt>
      <trkpt lat="47.16779" lon="-1.62656">
        <ele>67</ele>
        <time>2021-03-27T12:42:49.000Z</time>
      </trkpt>
    </trkseg>
  </trk>
</gpx>